<gpx xmlns="http://www.topografix.com/GPX/1/1" xmlns:xsi="http://www.w3.org/2001/XMLSchema-instance" version="1.1" xsi:schemaLocation="http://www.topografix.com/GPX/1/1 http://www.topografix.com/GPX/1/1/gpx.xsd" creator="MotionXGPSFull 24.1 Build 5049R64">
<trk>
<name>Brisvegas to Armidale</name>
<desc>6 Apr 2017 10:30 am</desc>
<trkseg>
<trkpt lat="-27.3581136" lon="152.9695437">
<ele>43.651</ele>
<time>2017-04-06T00:30:55.777Z</time>
</trkpt>
<trkpt lat="-27.3581136" lon="152.9695437">
<ele>43.497</ele>
<time>2017-04-06T00:33:18.965Z</time>
</trkpt>
<trkpt lat="-27.3582237" lon="152.9692097">
<ele>43.462</ele>
<time>2017-04-06T00:33:44.803Z</time>
</trkpt>
<trkpt lat="-27.3582279" lon="152.9692119">
<ele>43.523</ele>
<time>2017-04-06T00:33:44.998Z</time>
</trkpt>
<trkpt lat="-27.3582279" lon="152.9692119">
<ele>43.620</ele>
<time>2017-04-06T00:34:05.998Z</time>
</trkpt>
<trkpt lat="-27.3582279" lon="152.9692119">
<ele>43.671</ele>
<time>2017-04-06T00:35:07.814Z</time>
</trkpt>
<trkpt lat="-27.3581302" lon="152.9691595">
<ele>43.649</ele>
<time>2017-04-06T00:35:10.797Z</time>
</trkpt>
<trkpt lat="-27.3580222" lon="152.9691017">
<ele>43.761</ele>
<time>2017-04-06T00:35:12.828Z</time>
</trkpt>
<trkpt lat="-27.3579052" lon="152.9690389">
<ele>44.149</ele>
<time>2017-04-06T00:35:15.095Z</time>
</trkpt>
<trkpt lat="-27.3578190" lon="152.9689927">
<ele>44.548</ele>
<time>2017-04-06T00:35:17.302Z</time>
</trkpt>
<trkpt lat="-27.3577149" lon="152.9689460">
<ele>44.683</ele>
<time>2017-04-06T00:35:20.998Z</time>
</trkpt>
<trkpt lat="-27.3577149" lon="152.9689460">
<ele>44.625</ele>
<time>2017-04-06T00:35:23.998Z</time>
</trkpt>
<trkpt lat="-27.3577149" lon="152.9689460">
<ele>44.543</ele>
<time>2017-04-06T00:35:36.617Z</time>
</trkpt>
<trkpt lat="-27.3576315" lon="152.9691227">
<ele>44.523</ele>
<time>2017-04-06T00:35:42.461Z</time>
</trkpt>
<trkpt lat="-27.3575597" lon="152.9692751">
<ele>44.547</ele>
<time>2017-04-06T00:35:46.199Z</time>
</trkpt>
<trkpt lat="-27.3575139" lon="152.9693711">
<ele>44.539</ele>
<time>2017-04-06T00:35:48.998Z</time>
</trkpt>
<trkpt lat="-27.3575139" lon="152.9693711">
<ele>44.470</ele>
<time>2017-04-06T00:35:50.998Z</time>
</trkpt>
<trkpt lat="-27.3575139" lon="152.9693711">
<ele>44.400</ele>
<time>2017-04-06T00:36:59.435Z</time>
</trkpt>
<trkpt lat="-27.3573844" lon="152.9696830">
<ele>44.391</ele>
<time>2017-04-06T00:37:10.520Z</time>
</trkpt>
<trkpt lat="-27.3577453" lon="152.9697700">
<ele>44.440</ele>
<time>2017-04-06T00:37:13.856Z</time>
</trkpt>
<trkpt lat="-27.3580372" lon="152.9699158">
<ele>44.633</ele>
<time>2017-04-06T00:37:15.986Z</time>
</trkpt>
<trkpt lat="-27.3584992" lon="152.9702452">
<ele>45.244</ele>
<time>2017-04-06T00:37:19.085Z</time>
</trkpt>
<trkpt lat="-27.3588059" lon="152.9704428">
<ele>46.550</ele>
<time>2017-04-06T00:37:21.062Z</time>
</trkpt>
<trkpt lat="-27.3592495" lon="152.9707527">
<ele>48.402</ele>
<time>2017-04-06T00:37:23.992Z</time>
</trkpt>
<trkpt lat="-27.3597126" lon="152.9710643">
<ele>50.233</ele>
<time>2017-04-06T00:37:26.975Z</time>
</trkpt>
<trkpt lat="-27.3601756" lon="152.9713908">
<ele>51.841</ele>
<time>2017-04-06T00:37:29.960Z</time>
</trkpt>
<trkpt lat="-27.3604955" lon="152.9715888">
<ele>53.686</ele>
<time>2017-04-06T00:37:31.953Z</time>
</trkpt>
<trkpt lat="-27.3609764" lon="152.9718763">
<ele>56.030</ele>
<time>2017-04-06T00:37:34.932Z</time>
</trkpt>
<trkpt lat="-27.3612812" lon="152.9720903">
<ele>58.701</ele>
<time>2017-04-06T00:37:36.902Z</time>
</trkpt>
<trkpt lat="-27.3617809" lon="152.9723304">
<ele>61.414</ele>
<time>2017-04-06T00:37:39.900Z</time>
</trkpt>
<trkpt lat="-27.3622300" lon="152.9726507">
<ele>63.943</ele>
<time>2017-04-06T00:37:42.830Z</time>
</trkpt>
<trkpt lat="-27.3625222" lon="152.9728980">
<ele>66.265</ele>
<time>2017-04-06T00:37:44.835Z</time>
</trkpt>
<trkpt lat="-27.3629467" lon="152.9732814">
<ele>68.315</ele>
<time>2017-04-06T00:37:47.824Z</time>
</trkpt>
<trkpt lat="-27.3633774" lon="152.9736374">
<ele>70.023</ele>
<time>2017-04-06T00:37:51.047Z</time>
</trkpt>
<trkpt lat="-27.3636476" lon="152.9738062">
<ele>71.520</ele>
<time>2017-04-06T00:37:53.319Z</time>
</trkpt>
<trkpt lat="-27.3638761" lon="152.9739381">
<ele>72.682</ele>
<time>2017-04-06T00:37:55.876Z</time>
</trkpt>
<trkpt lat="-27.3640436" lon="152.9740509">
<ele>73.127</ele>
<time>2017-04-06T00:37:57.976Z</time>
</trkpt>
<trkpt lat="-27.3642516" lon="152.9741401">
<ele>72.744</ele>
<time>2017-04-06T00:37:59.934Z</time>
</trkpt>
<trkpt lat="-27.3644091" lon="152.9742420">
<ele>71.901</ele>
<time>2017-04-06T00:38:01.280Z</time>
</trkpt>
<trkpt lat="-27.3648458" lon="152.9745997">
<ele>71.187</ele>
<time>2017-04-06T00:38:04.626Z</time>
</trkpt>
<trkpt lat="-27.3652244" lon="152.9750060">
<ele>71.050</ele>
<time>2017-04-06T00:38:07.533Z</time>
</trkpt>
<trkpt lat="-27.3655937" lon="152.9754650">
<ele>71.485</ele>
<time>2017-04-06T00:38:10.426Z</time>
</trkpt>
<trkpt lat="-27.3659368" lon="152.9760110">
<ele>71.862</ele>
<time>2017-04-06T00:38:13.429Z</time>
</trkpt>
<trkpt lat="-27.3663198" lon="152.9765381">
<ele>71.440</ele>
<time>2017-04-06T00:38:16.473Z</time>
</trkpt>
<trkpt lat="-27.3665487" lon="152.9768958">
<ele>70.023</ele>
<time>2017-04-06T00:38:18.442Z</time>
</trkpt>
<trkpt lat="-27.3668680" lon="152.9774657">
<ele>68.199</ele>
<time>2017-04-06T00:38:21.308Z</time>
</trkpt>
<trkpt lat="-27.3671357" lon="152.9778525">
<ele>66.928</ele>
<time>2017-04-06T00:38:23.269Z</time>
</trkpt>
<trkpt lat="-27.3674559" lon="152.9782064">
<ele>66.654</ele>
<time>2017-04-06T00:38:25.286Z</time>
</trkpt>
<trkpt lat="-27.3679596" lon="152.9786430">
<ele>67.162</ele>
<time>2017-04-06T00:38:28.236Z</time>
</trkpt>
<trkpt lat="-27.3683030" lon="152.9788856">
<ele>67.952</ele>
<time>2017-04-06T00:38:30.193Z</time>
</trkpt>
<trkpt lat="-27.3688480" lon="152.9791920">
<ele>68.396</ele>
<time>2017-04-06T00:38:33.174Z</time>
</trkpt>
<trkpt lat="-27.3693978" lon="152.9794801">
<ele>67.994</ele>
<time>2017-04-06T00:38:36.168Z</time>
</trkpt>
<trkpt lat="-27.3699547" lon="152.9797384">
<ele>66.685</ele>
<time>2017-04-06T00:38:39.147Z</time>
</trkpt>
<trkpt lat="-27.3703176" lon="152.9799176">
<ele>65.108</ele>
<time>2017-04-06T00:38:41.111Z</time>
</trkpt>
<trkpt lat="-27.3708804" lon="152.9801616">
<ele>64.109</ele>
<time>2017-04-06T00:38:44.101Z</time>
</trkpt>
<trkpt lat="-27.3712589" lon="152.9802837">
<ele>64.317</ele>
<time>2017-04-06T00:38:46.038Z</time>
</trkpt>
<trkpt lat="-27.3718502" lon="152.9804153">
<ele>65.904</ele>
<time>2017-04-06T00:38:48.990Z</time>
</trkpt>
<trkpt lat="-27.3722592" lon="152.9804604">
<ele>68.576</ele>
<time>2017-04-06T00:38:50.997Z</time>
</trkpt>
<trkpt lat="-27.3726648" lon="152.9804397">
<ele>71.794</ele>
<time>2017-04-06T00:38:52.973Z</time>
</trkpt>
<trkpt lat="-27.3732743" lon="152.9804297">
<ele>74.905</ele>
<time>2017-04-06T00:38:55.933Z</time>
</trkpt>
<trkpt lat="-27.3736828" lon="152.9804183">
<ele>77.353</ele>
<time>2017-04-06T00:38:57.909Z</time>
</trkpt>
<trkpt lat="-27.3742986" lon="152.9803686">
<ele>78.927</ele>
<time>2017-04-06T00:39:00.898Z</time>
</trkpt>
<trkpt lat="-27.3747017" lon="152.9803580">
<ele>79.559</ele>
<time>2017-04-06T00:39:02.866Z</time>
</trkpt>
<trkpt lat="-27.3751045" lon="152.9803565">
<ele>79.465</ele>
<time>2017-04-06T00:39:04.850Z</time>
</trkpt>
<trkpt lat="-27.3756572" lon="152.9804051">
<ele>79.117</ele>
<time>2017-04-06T00:39:07.592Z</time>
</trkpt>
<trkpt lat="-27.3762923" lon="152.9804423">
<ele>79.025</ele>
<time>2017-04-06T00:39:10.840Z</time>
</trkpt>
<trkpt lat="-27.3766318" lon="152.9804752">
<ele>79.494</ele>
<time>2017-04-06T00:39:12.858Z</time>
</trkpt>
<trkpt lat="-27.3770685" lon="152.9805389">
<ele>80.278</ele>
<time>2017-04-06T00:39:15.792Z</time>
</trkpt>
<trkpt lat="-27.3774325" lon="152.9805684">
<ele>80.828</ele>
<time>2017-04-06T00:39:18.674Z</time>
</trkpt>
<trkpt lat="-27.3776315" lon="152.9805900">
<ele>80.810</ele>
<time>2017-04-06T00:39:20.614Z</time>
</trkpt>
<trkpt lat="-27.3777976" lon="152.9806148">
<ele>80.252</ele>
<time>2017-04-06T00:39:22.578Z</time>
</trkpt>
<trkpt lat="-27.3779983" lon="152.9806573">
<ele>79.406</ele>
<time>2017-04-06T00:39:25.415Z</time>
</trkpt>
<trkpt lat="-27.3780836" lon="152.9807082">
<ele>78.386</ele>
<time>2017-04-06T00:39:27.572Z</time>
</trkpt>
<trkpt lat="-27.3781752" lon="152.9807248">
<ele>77.186</ele>
<time>2017-04-06T00:39:29.999Z</time>
</trkpt>
<trkpt lat="-27.3781752" lon="152.9807248">
<ele>76.099</ele>
<time>2017-04-06T00:39:32.999Z</time>
</trkpt>
<trkpt lat="-27.3781752" lon="152.9807248">
<ele>75.556</ele>
<time>2017-04-06T00:39:39.739Z</time>
</trkpt>
<trkpt lat="-27.3783707" lon="152.9807590">
<ele>75.579</ele>
<time>2017-04-06T00:39:44.227Z</time>
</trkpt>
<trkpt lat="-27.3785302" lon="152.9807446">
<ele>75.429</ele>
<time>2017-04-06T00:39:45.902Z</time>
</trkpt>
<trkpt lat="-27.3789774" lon="152.9808141">
<ele>74.572</ele>
<time>2017-04-06T00:39:49.690Z</time>
</trkpt>
<trkpt lat="-27.3793909" lon="152.9809002">
<ele>73.486</ele>
<time>2017-04-06T00:39:52.716Z</time>
</trkpt>
<trkpt lat="-27.3798302" lon="152.9810559">
<ele>72.654</ele>
<time>2017-04-06T00:39:55.755Z</time>
</trkpt>
<trkpt lat="-27.3802616" lon="152.9813012">
<ele>71.825</ele>
<time>2017-04-06T00:39:58.745Z</time>
</trkpt>
<trkpt lat="-27.3805648" lon="152.9814889">
<ele>70.669</ele>
<time>2017-04-06T00:40:00.767Z</time>
</trkpt>
<trkpt lat="-27.3808430" lon="152.9817200">
<ele>69.179</ele>
<time>2017-04-06T00:40:02.744Z</time>
</trkpt>
<trkpt lat="-27.3811109" lon="152.9819895">
<ele>67.647</ele>
<time>2017-04-06T00:40:04.776Z</time>
</trkpt>
<trkpt lat="-27.3814956" lon="152.9823909">
<ele>66.381</ele>
<time>2017-04-06T00:40:07.722Z</time>
</trkpt>
<trkpt lat="-27.3817585" lon="152.9826588">
<ele>65.469</ele>
<time>2017-04-06T00:40:09.681Z</time>
</trkpt>
<trkpt lat="-27.3822162" lon="152.9830104">
<ele>64.878</ele>
<time>2017-04-06T00:40:12.694Z</time>
</trkpt>
<trkpt lat="-27.3827553" lon="152.9832118">
<ele>64.623</ele>
<time>2017-04-06T00:40:15.716Z</time>
</trkpt>
<trkpt lat="-27.3833035" lon="152.9833946">
<ele>64.919</ele>
<time>2017-04-06T00:40:18.749Z</time>
</trkpt>
<trkpt lat="-27.3837697" lon="152.9835403">
<ele>66.183</ele>
<time>2017-04-06T00:40:21.352Z</time>
</trkpt>
<trkpt lat="-27.3841756" lon="152.9836911">
<ele>68.751</ele>
<time>2017-04-06T00:40:23.688Z</time>
</trkpt>
<trkpt lat="-27.3845205" lon="152.9837952">
<ele>71.892</ele>
<time>2017-04-06T00:40:25.644Z</time>
</trkpt>
<trkpt lat="-27.3850293" lon="152.9840274">
<ele>73.283</ele>
<time>2017-04-06T00:40:28.645Z</time>
</trkpt>
<trkpt lat="-27.3853403" lon="152.9842454">
<ele>70.880</ele>
<time>2017-04-06T00:40:30.653Z</time>
</trkpt>
<trkpt lat="-27.3857533" lon="152.9846336">
<ele>66.001</ele>
<time>2017-04-06T00:40:33.611Z</time>
</trkpt>
<trkpt lat="-27.3862559" lon="152.9848274">
<ele>61.944</ele>
<time>2017-04-06T00:40:36.556Z</time>
</trkpt>
<trkpt lat="-27.3867802" lon="152.9848542">
<ele>60.129</ele>
<time>2017-04-06T00:40:39.530Z</time>
</trkpt>
<trkpt lat="-27.3872930" lon="152.9848410">
<ele>59.611</ele>
<time>2017-04-06T00:40:42.564Z</time>
</trkpt>
<trkpt lat="-27.3875911" lon="152.9848799">
<ele>59.006</ele>
<time>2017-04-06T00:40:44.484Z</time>
</trkpt>
<trkpt lat="-27.3880250" lon="152.9849240">
<ele>57.713</ele>
<time>2017-04-06T00:40:47.367Z</time>
</trkpt>
<trkpt lat="-27.3883085" lon="152.9849884">
<ele>56.269</ele>
<time>2017-04-06T00:40:49.347Z</time>
</trkpt>
<trkpt lat="-27.3885887" lon="152.9850226">
<ele>55.396</ele>
<time>2017-04-06T00:40:51.479Z</time>
</trkpt>
<trkpt lat="-27.3888723" lon="152.9850839">
<ele>55.256</ele>
<time>2017-04-06T00:40:54.240Z</time>
</trkpt>
<trkpt lat="-27.3890051" lon="152.9851189">
<ele>55.537</ele>
<time>2017-04-06T00:40:55.999Z</time>
</trkpt>
<trkpt lat="-27.3890051" lon="152.9851189">
<ele>55.819</ele>
<time>2017-04-06T00:40:58.999Z</time>
</trkpt>
<trkpt lat="-27.3890051" lon="152.9851189">
<ele>55.897</ele>
<time>2017-04-06T00:41:05.574Z</time>
</trkpt>
<trkpt lat="-27.3891696" lon="152.9850995">
<ele>55.844</ele>
<time>2017-04-06T00:41:08.919Z</time>
</trkpt>
<trkpt lat="-27.3894390" lon="152.9851314">
<ele>56.038</ele>
<time>2017-04-06T00:41:11.312Z</time>
</trkpt>
<trkpt lat="-27.3900188" lon="152.9851513">
<ele>56.972</ele>
<time>2017-04-06T00:41:15.248Z</time>
</trkpt>
<trkpt lat="-27.3903119" lon="152.9851766">
<ele>58.833</ele>
<time>2017-04-06T00:41:17.132Z</time>
</trkpt>
<trkpt lat="-27.3906012" lon="152.9851841">
<ele>61.174</ele>
<time>2017-04-06T00:41:19.042Z</time>
</trkpt>
<trkpt lat="-27.3910517" lon="152.9851386">
<ele>63.217</ele>
<time>2017-04-06T00:41:22.044Z</time>
</trkpt>
<trkpt lat="-27.3914306" lon="152.9851493">
<ele>64.636</ele>
<time>2017-04-06T00:41:24.612Z</time>
</trkpt>
<trkpt lat="-27.3919222" lon="152.9850437">
<ele>65.554</ele>
<time>2017-04-06T00:41:28.139Z</time>
</trkpt>
<trkpt lat="-27.3921825" lon="152.9849952">
<ele>65.929</ele>
<time>2017-04-06T00:41:30.027Z</time>
</trkpt>
<trkpt lat="-27.3925780" lon="152.9849814">
<ele>65.577</ele>
<time>2017-04-06T00:41:32.764Z</time>
</trkpt>
<trkpt lat="-27.3930434" lon="152.9851447">
<ele>64.253</ele>
<time>2017-04-06T00:41:36.000Z</time>
</trkpt>
<trkpt lat="-27.3934840" lon="152.9853647">
<ele>61.829</ele>
<time>2017-04-06T00:41:39.139Z</time>
</trkpt>
<trkpt lat="-27.3939225" lon="152.9855449">
<ele>59.081</ele>
<time>2017-04-06T00:41:42.278Z</time>
</trkpt>
<trkpt lat="-27.3943060" lon="152.9857362">
<ele>57.272</ele>
<time>2017-04-06T00:41:45.312Z</time>
</trkpt>
<trkpt lat="-27.3946807" lon="152.9858631">
<ele>56.922</ele>
<time>2017-04-06T00:41:48.196Z</time>
</trkpt>
<trkpt lat="-27.3949443" lon="152.9859642">
<ele>57.536</ele>
<time>2017-04-06T00:41:50.182Z</time>
</trkpt>
<trkpt lat="-27.3952169" lon="152.9860657">
<ele>58.248</ele>
<time>2017-04-06T00:41:52.210Z</time>
</trkpt>
<trkpt lat="-27.3954812" lon="152.9861986">
<ele>58.301</ele>
<time>2017-04-06T00:41:54.251Z</time>
</trkpt>
<trkpt lat="-27.3958710" lon="152.9863742">
<ele>57.322</ele>
<time>2017-04-06T00:41:57.194Z</time>
</trkpt>
<trkpt lat="-27.3961337" lon="152.9865173">
<ele>55.236</ele>
<time>2017-04-06T00:41:59.219Z</time>
</trkpt>
<trkpt lat="-27.3963994" lon="152.9866387">
<ele>52.473</ele>
<time>2017-04-06T00:42:01.250Z</time>
</trkpt>
<trkpt lat="-27.3966385" lon="152.9867718">
<ele>50.054</ele>
<time>2017-04-06T00:42:03.231Z</time>
</trkpt>
<trkpt lat="-27.3969953" lon="152.9869380">
<ele>48.812</ele>
<time>2017-04-06T00:42:06.302Z</time>
</trkpt>
<trkpt lat="-27.3972057" lon="152.9870185">
<ele>48.890</ele>
<time>2017-04-06T00:42:08.269Z</time>
</trkpt>
<trkpt lat="-27.3974927" lon="152.9871296">
<ele>50.028</ele>
<time>2017-04-06T00:42:11.229Z</time>
</trkpt>
<trkpt lat="-27.3976204" lon="152.9871377">
<ele>51.764</ele>
<time>2017-04-06T00:42:12.668Z</time>
</trkpt>
<trkpt lat="-27.3977488" lon="152.9873917">
<ele>53.561</ele>
<time>2017-04-06T00:42:15.580Z</time>
</trkpt>
<trkpt lat="-27.3978352" lon="152.9875930">
<ele>55.145</ele>
<time>2017-04-06T00:42:17.803Z</time>
</trkpt>
<trkpt lat="-27.3979455" lon="152.9878481">
<ele>56.534</ele>
<time>2017-04-06T00:42:20.690Z</time>
</trkpt>
<trkpt lat="-27.3980249" lon="152.9880290">
<ele>57.757</ele>
<time>2017-04-06T00:42:22.594Z</time>
</trkpt>
<trkpt lat="-27.3981669" lon="152.9883530">
<ele>58.726</ele>
<time>2017-04-06T00:42:25.793Z</time>
</trkpt>
<trkpt lat="-27.3983052" lon="152.9886682">
<ele>59.393</ele>
<time>2017-04-06T00:42:28.922Z</time>
</trkpt>
<trkpt lat="-27.3983818" lon="152.9888428">
<ele>59.736</ele>
<time>2017-04-06T00:42:31.032Z</time>
</trkpt>
<trkpt lat="-27.3984421" lon="152.9889804">
<ele>59.775</ele>
<time>2017-04-06T00:42:32.855Z</time>
</trkpt>
<trkpt lat="-27.3985322" lon="152.9891859">
<ele>59.572</ele>
<time>2017-04-06T00:42:35.382Z</time>
</trkpt>
<trkpt lat="-27.3986329" lon="152.9894149">
<ele>59.247</ele>
<time>2017-04-06T00:42:37.876Z</time>
</trkpt>
<trkpt lat="-27.3987551" lon="152.9896929">
<ele>58.952</ele>
<time>2017-04-06T00:42:40.971Z</time>
</trkpt>
<trkpt lat="-27.3988261" lon="152.9898544">
<ele>58.667</ele>
<time>2017-04-06T00:42:43.061Z</time>
</trkpt>
<trkpt lat="-27.3989186" lon="152.9900650">
<ele>58.235</ele>
<time>2017-04-06T00:42:45.723Z</time>
</trkpt>
<trkpt lat="-27.3989958" lon="152.9902406">
<ele>57.551</ele>
<time>2017-04-06T00:42:47.649Z</time>
</trkpt>
<trkpt lat="-27.3990896" lon="152.9904350">
<ele>56.701</ele>
<time>2017-04-06T00:42:49.666Z</time>
</trkpt>
<trkpt lat="-27.3993166" lon="152.9906430">
<ele>55.873</ele>
<time>2017-04-06T00:42:52.622Z</time>
</trkpt>
<trkpt lat="-27.3994723" lon="152.9907545">
<ele>55.057</ele>
<time>2017-04-06T00:42:54.571Z</time>
</trkpt>
<trkpt lat="-27.3996120" lon="152.9908528">
<ele>54.118</ele>
<time>2017-04-06T00:42:56.543Z</time>
</trkpt>
<trkpt lat="-27.3997816" lon="152.9909711">
<ele>53.174</ele>
<time>2017-04-06T00:42:59.208Z</time>
</trkpt>
<trkpt lat="-27.3998982" lon="152.9909929">
<ele>52.443</ele>
<time>2017-04-06T00:43:00.953Z</time>
</trkpt>
<trkpt lat="-27.4000803" lon="152.9911009">
<ele>51.927</ele>
<time>2017-04-06T00:43:05.549Z</time>
</trkpt>
<trkpt lat="-27.4001197" lon="152.9913612">
<ele>51.555</ele>
<time>2017-04-06T00:43:09.410Z</time>
</trkpt>
<trkpt lat="-27.4001558" lon="152.9915992">
<ele>51.416</ele>
<time>2017-04-06T00:43:11.513Z</time>
</trkpt>
<trkpt lat="-27.4002107" lon="152.9919620">
<ele>51.756</ele>
<time>2017-04-06T00:43:14.324Z</time>
</trkpt>
<trkpt lat="-27.4002882" lon="152.9924312">
<ele>52.798</ele>
<time>2017-04-06T00:43:17.719Z</time>
</trkpt>
<trkpt lat="-27.4003546" lon="152.9928184">
<ele>54.289</ele>
<time>2017-04-06T00:43:20.629Z</time>
</trkpt>
<trkpt lat="-27.4004013" lon="152.9930967">
<ele>55.508</ele>
<time>2017-04-06T00:43:22.954Z</time>
</trkpt>
<trkpt lat="-27.4004265" lon="152.9932821">
<ele>55.926</ele>
<time>2017-04-06T00:43:24.623Z</time>
</trkpt>
<trkpt lat="-27.4004726" lon="152.9935982">
<ele>55.447</ele>
<time>2017-04-06T00:43:27.669Z</time>
</trkpt>
<trkpt lat="-27.4005113" lon="152.9938638">
<ele>54.097</ele>
<time>2017-04-06T00:43:30.959Z</time>
</trkpt>
<trkpt lat="-27.4005334" lon="152.9940154">
<ele>51.945</ele>
<time>2017-04-06T00:43:33.992Z</time>
</trkpt>
<trkpt lat="-27.4005501" lon="152.9941303">
<ele>49.192</ele>
<time>2017-04-06T00:43:37.505Z</time>
</trkpt>
<trkpt lat="-27.4005654" lon="152.9942349">
<ele>46.135</ele>
<time>2017-04-06T00:43:42.074Z</time>
</trkpt>
<trkpt lat="-27.4005865" lon="152.9943647">
<ele>43.060</ele>
<time>2017-04-06T00:43:46.544Z</time>
</trkpt>
<trkpt lat="-27.4006203" lon="152.9944856">
<ele>40.493</ele>
<time>2017-04-06T00:43:48.921Z</time>
</trkpt>
<trkpt lat="-27.4006329" lon="152.9946607">
<ele>39.005</ele>
<time>2017-04-06T00:43:51.927Z</time>
</trkpt>
<trkpt lat="-27.4006627" lon="152.9948790">
<ele>38.570</ele>
<time>2017-04-06T00:43:55.412Z</time>
</trkpt>
<trkpt lat="-27.4007154" lon="152.9952640">
<ele>38.846</ele>
<time>2017-04-06T00:43:59.219Z</time>
</trkpt>
<trkpt lat="-27.4007666" lon="152.9956431">
<ele>39.775</ele>
<time>2017-04-06T00:44:02.351Z</time>
</trkpt>
<trkpt lat="-27.4008142" lon="152.9959850">
<ele>41.273</ele>
<time>2017-04-06T00:44:05.165Z</time>
</trkpt>
<trkpt lat="-27.4008792" lon="152.9963697">
<ele>42.984</ele>
<time>2017-04-06T00:44:08.231Z</time>
</trkpt>
<trkpt lat="-27.4009217" lon="152.9966323">
<ele>44.816</ele>
<time>2017-04-06T00:44:10.295Z</time>
</trkpt>
<trkpt lat="-27.4009800" lon="152.9969922">
<ele>46.920</ele>
<time>2017-04-06T00:44:13.342Z</time>
</trkpt>
<trkpt lat="-27.4010217" lon="152.9972910">
<ele>49.149</ele>
<time>2017-04-06T00:44:16.338Z</time>
</trkpt>
<trkpt lat="-27.4010006" lon="152.9975107">
<ele>50.976</ele>
<time>2017-04-06T00:44:18.885Z</time>
</trkpt>
<trkpt lat="-27.4010570" lon="152.9977774">
<ele>51.880</ele>
<time>2017-04-06T00:44:21.924Z</time>
</trkpt>
<trkpt lat="-27.4011413" lon="152.9981338">
<ele>51.792</ele>
<time>2017-04-06T00:44:25.055Z</time>
</trkpt>
<trkpt lat="-27.4012122" lon="152.9985900">
<ele>51.182</ele>
<time>2017-04-06T00:44:28.256Z</time>
</trkpt>
<trkpt lat="-27.4012594" lon="152.9988951">
<ele>50.265</ele>
<time>2017-04-06T00:44:30.262Z</time>
</trkpt>
<trkpt lat="-27.4013293" lon="152.9993522">
<ele>48.785</ele>
<time>2017-04-06T00:44:33.282Z</time>
</trkpt>
<trkpt lat="-27.4013966" lon="152.9997927">
<ele>46.835</ele>
<time>2017-04-06T00:44:36.292Z</time>
</trkpt>
<trkpt lat="-27.4014360" lon="153.0000508">
<ele>45.148</ele>
<time>2017-04-06T00:44:38.230Z</time>
</trkpt>
<trkpt lat="-27.4014889" lon="153.0003966">
<ele>44.387</ele>
<time>2017-04-06T00:44:40.953Z</time>
</trkpt>
<trkpt lat="-27.4015395" lon="153.0007278">
<ele>44.713</ele>
<time>2017-04-06T00:44:43.564Z</time>
</trkpt>
<trkpt lat="-27.4016057" lon="153.0012023">
<ele>46.035</ele>
<time>2017-04-06T00:44:47.077Z</time>
</trkpt>
<trkpt lat="-27.4016189" lon="153.0014773">
<ele>48.222</ele>
<time>2017-04-06T00:44:49.065Z</time>
</trkpt>
<trkpt lat="-27.4016505" lon="153.0017451">
<ele>50.723</ele>
<time>2017-04-06T00:44:51.006Z</time>
</trkpt>
<trkpt lat="-27.4016884" lon="153.0020414">
<ele>52.620</ele>
<time>2017-04-06T00:44:53.128Z</time>
</trkpt>
<trkpt lat="-27.4017496" lon="153.0024510">
<ele>53.242</ele>
<time>2017-04-06T00:44:56.065Z</time>
</trkpt>
<trkpt lat="-27.4018139" lon="153.0028576">
<ele>52.328</ele>
<time>2017-04-06T00:44:59.030Z</time>
</trkpt>
<trkpt lat="-27.4018790" lon="153.0032434">
<ele>50.107</ele>
<time>2017-04-06T00:45:01.922Z</time>
</trkpt>
<trkpt lat="-27.4019639" lon="153.0036353">
<ele>47.643</ele>
<time>2017-04-06T00:45:04.970Z</time>
</trkpt>
<trkpt lat="-27.4020192" lon="153.0040041">
<ele>46.163</ele>
<time>2017-04-06T00:45:07.877Z</time>
</trkpt>
<trkpt lat="-27.4020566" lon="153.0042529">
<ele>46.053</ele>
<time>2017-04-06T00:45:09.853Z</time>
</trkpt>
<trkpt lat="-27.4021159" lon="153.0046480">
<ele>46.885</ele>
<time>2017-04-06T00:45:12.888Z</time>
</trkpt>
<trkpt lat="-27.4021570" lon="153.0049215">
<ele>48.098</ele>
<time>2017-04-06T00:45:14.907Z</time>
</trkpt>
<trkpt lat="-27.4021981" lon="153.0051930">
<ele>49.286</ele>
<time>2017-04-06T00:45:16.883Z</time>
</trkpt>
<trkpt lat="-27.4022394" lon="153.0054671">
<ele>50.194</ele>
<time>2017-04-06T00:45:18.870Z</time>
</trkpt>
<trkpt lat="-27.4023007" lon="153.0058849">
<ele>50.707</ele>
<time>2017-04-06T00:45:21.906Z</time>
</trkpt>
<trkpt lat="-27.4023585" lon="153.0062842">
<ele>50.927</ele>
<time>2017-04-06T00:45:24.850Z</time>
</trkpt>
<trkpt lat="-27.4023960" lon="153.0065434">
<ele>51.247</ele>
<time>2017-04-06T00:45:26.802Z</time>
</trkpt>
<trkpt lat="-27.4024338" lon="153.0068040">
<ele>51.985</ele>
<time>2017-04-06T00:45:28.749Z</time>
</trkpt>
<trkpt lat="-27.4024948" lon="153.0072232">
<ele>52.877</ele>
<time>2017-04-06T00:45:31.758Z</time>
</trkpt>
<trkpt lat="-27.4025609" lon="153.0076778">
<ele>53.097</ele>
<time>2017-04-06T00:45:34.862Z</time>
</trkpt>
<trkpt lat="-27.4026242" lon="153.0081134">
<ele>51.808</ele>
<time>2017-04-06T00:45:37.838Z</time>
</trkpt>
<trkpt lat="-27.4026586" lon="153.0083504">
<ele>48.997</ele>
<time>2017-04-06T00:45:39.526Z</time>
</trkpt>
<trkpt lat="-27.4027024" lon="153.0086399">
<ele>45.634</ele>
<time>2017-04-06T00:45:41.790Z</time>
</trkpt>
<trkpt lat="-27.4027488" lon="153.0089470">
<ele>42.748</ele>
<time>2017-04-06T00:45:44.632Z</time>
</trkpt>
<trkpt lat="-27.4027665" lon="153.0090635">
<ele>40.576</ele>
<time>2017-04-06T00:45:45.999Z</time>
</trkpt>
<trkpt lat="-27.4027665" lon="153.0090635">
<ele>38.990</ele>
<time>2017-04-06T00:45:52.000Z</time>
</trkpt>
<trkpt lat="-27.4027665" lon="153.0090635">
<ele>38.207</ele>
<time>2017-04-06T00:45:55.776Z</time>
</trkpt>
<trkpt lat="-27.4030041" lon="153.0092224">
<ele>38.269</ele>
<time>2017-04-06T00:46:00.344Z</time>
</trkpt>
<trkpt lat="-27.4032959" lon="153.0091710">
<ele>37.583</ele>
<time>2017-04-06T00:46:02.839Z</time>
</trkpt>
<trkpt lat="-27.4035213" lon="153.0091257">
<ele>35.030</ele>
<time>2017-04-06T00:46:04.529Z</time>
</trkpt>
<trkpt lat="-27.4038687" lon="153.0090442">
<ele>32.121</ele>
<time>2017-04-06T00:46:07.139Z</time>
</trkpt>
<trkpt lat="-27.4042383" lon="153.0089093">
<ele>30.398</ele>
<time>2017-04-06T00:46:10.201Z</time>
</trkpt>
<trkpt lat="-27.4044065" lon="153.0088919">
<ele>29.303</ele>
<time>2017-04-06T00:46:11.743Z</time>
</trkpt>
<trkpt lat="-27.4047438" lon="153.0088275">
<ele>28.034</ele>
<time>2017-04-06T00:46:15.259Z</time>
</trkpt>
<trkpt lat="-27.4049059" lon="153.0088159">
<ele>26.388</ele>
<time>2017-04-06T00:46:17.352Z</time>
</trkpt>
<trkpt lat="-27.4050565" lon="153.0088030">
<ele>24.562</ele>
<time>2017-04-06T00:46:19.548Z</time>
</trkpt>
<trkpt lat="-27.4051781" lon="153.0087857">
<ele>22.895</ele>
<time>2017-04-06T00:46:21.407Z</time>
</trkpt>
<trkpt lat="-27.4053957" lon="153.0087399">
<ele>21.592</ele>
<time>2017-04-06T00:46:23.805Z</time>
</trkpt>
<trkpt lat="-27.4056684" lon="153.0086660">
<ele>20.689</ele>
<time>2017-04-06T00:46:25.738Z</time>
</trkpt>
<trkpt lat="-27.4060671" lon="153.0085766">
<ele>20.301</ele>
<time>2017-04-06T00:46:28.332Z</time>
</trkpt>
<trkpt lat="-27.4064794" lon="153.0084694">
<ele>20.382</ele>
<time>2017-04-06T00:46:31.189Z</time>
</trkpt>
<trkpt lat="-27.4067884" lon="153.0084020">
<ele>20.546</ele>
<time>2017-04-06T00:46:33.481Z</time>
</trkpt>
<trkpt lat="-27.4071759" lon="153.0083191">
<ele>20.444</ele>
<time>2017-04-06T00:46:36.473Z</time>
</trkpt>
<trkpt lat="-27.4075577" lon="153.0082451">
<ele>20.020</ele>
<time>2017-04-06T00:46:39.582Z</time>
</trkpt>
<trkpt lat="-27.4077836" lon="153.0082007">
<ele>19.329</ele>
<time>2017-04-06T00:46:41.568Z</time>
</trkpt>
<trkpt lat="-27.4081099" lon="153.0081692">
<ele>18.437</ele>
<time>2017-04-06T00:46:45.506Z</time>
</trkpt>
<trkpt lat="-27.4082543" lon="153.0081423">
<ele>17.382</ele>
<time>2017-04-06T00:46:48.023Z</time>
</trkpt>
<trkpt lat="-27.4084922" lon="153.0081427">
<ele>16.117</ele>
<time>2017-04-06T00:46:52.116Z</time>
</trkpt>
<trkpt lat="-27.4086645" lon="153.0080761">
<ele>14.468</ele>
<time>2017-04-06T00:46:55.737Z</time>
</trkpt>
<trkpt lat="-27.4088004" lon="153.0080318">
<ele>12.660</ele>
<time>2017-04-06T00:46:58.008Z</time>
</trkpt>
<trkpt lat="-27.4089140" lon="153.0079835">
<ele>11.442</ele>
<time>2017-04-06T00:46:59.648Z</time>
</trkpt>
<trkpt lat="-27.4091692" lon="153.0080331">
<ele>11.216</ele>
<time>2017-04-06T00:47:02.743Z</time>
</trkpt>
<trkpt lat="-27.4093085" lon="153.0084097">
<ele>11.650</ele>
<time>2017-04-06T00:47:06.445Z</time>
</trkpt>
<trkpt lat="-27.4093322" lon="153.0088490">
<ele>12.452</ele>
<time>2017-04-06T00:47:09.770Z</time>
</trkpt>
<trkpt lat="-27.4093596" lon="153.0091382">
<ele>13.536</ele>
<time>2017-04-06T00:47:11.758Z</time>
</trkpt>
<trkpt lat="-27.4093973" lon="153.0094441">
<ele>14.650</ele>
<time>2017-04-06T00:47:13.833Z</time>
</trkpt>
<trkpt lat="-27.4094693" lon="153.0097316">
<ele>15.426</ele>
<time>2017-04-06T00:47:15.837Z</time>
</trkpt>
<trkpt lat="-27.4095318" lon="153.0101641">
<ele>15.767</ele>
<time>2017-04-06T00:47:18.785Z</time>
</trkpt>
<trkpt lat="-27.4096048" lon="153.0105921">
<ele>15.826</ele>
<time>2017-04-06T00:47:21.706Z</time>
</trkpt>
<trkpt lat="-27.4096415" lon="153.0108962">
<ele>15.743</ele>
<time>2017-04-06T00:47:23.747Z</time>
</trkpt>
<trkpt lat="-27.4096493" lon="153.0111979">
<ele>15.555</ele>
<time>2017-04-06T00:47:25.826Z</time>
</trkpt>
<trkpt lat="-27.4097205" lon="153.0114480">
<ele>15.255</ele>
<time>2017-04-06T00:47:27.737Z</time>
</trkpt>
<trkpt lat="-27.4097570" lon="153.0118411">
<ele>14.840</ele>
<time>2017-04-06T00:47:30.641Z</time>
</trkpt>
<trkpt lat="-27.4098065" lon="153.0122412">
<ele>14.410</ele>
<time>2017-04-06T00:47:33.564Z</time>
</trkpt>
<trkpt lat="-27.4098584" lon="153.0125274">
<ele>14.195</ele>
<time>2017-04-06T00:47:35.538Z</time>
</trkpt>
<trkpt lat="-27.4099044" lon="153.0128359">
<ele>14.356</ele>
<time>2017-04-06T00:47:37.527Z</time>
</trkpt>
<trkpt lat="-27.4099532" lon="153.0133216">
<ele>14.794</ele>
<time>2017-04-06T00:47:40.574Z</time>
</trkpt>
<trkpt lat="-27.4099963" lon="153.0136411">
<ele>15.303</ele>
<time>2017-04-06T00:47:42.605Z</time>
</trkpt>
<trkpt lat="-27.4100369" lon="153.0139460">
<ele>15.830</ele>
<time>2017-04-06T00:47:44.556Z</time>
</trkpt>
<trkpt lat="-27.4100981" lon="153.0142505">
<ele>16.383</ele>
<time>2017-04-06T00:47:46.514Z</time>
</trkpt>
<trkpt lat="-27.4101406" lon="153.0145674">
<ele>16.841</ele>
<time>2017-04-06T00:47:48.529Z</time>
</trkpt>
<trkpt lat="-27.4102029" lon="153.0150269">
<ele>17.079</ele>
<time>2017-04-06T00:47:51.536Z</time>
</trkpt>
<trkpt lat="-27.4102431" lon="153.0154411">
<ele>17.019</ele>
<time>2017-04-06T00:47:54.534Z</time>
</trkpt>
<trkpt lat="-27.4102746" lon="153.0156509">
<ele>16.470</ele>
<time>2017-04-06T00:47:56.533Z</time>
</trkpt>
<trkpt lat="-27.4103289" lon="153.0157936">
<ele>15.367</ele>
<time>2017-04-06T00:47:58.551Z</time>
</trkpt>
<trkpt lat="-27.4103624" lon="153.0158877">
<ele>14.033</ele>
<time>2017-04-06T00:47:59.999Z</time>
</trkpt>
<trkpt lat="-27.4103624" lon="153.0158877">
<ele>12.948</ele>
<time>2017-04-06T00:48:03.999Z</time>
</trkpt>
<trkpt lat="-27.4103624" lon="153.0158877">
<ele>12.448</ele>
<time>2017-04-06T00:48:27.134Z</time>
</trkpt>
<trkpt lat="-27.4103537" lon="153.0160749">
<ele>12.500</ele>
<time>2017-04-06T00:48:33.888Z</time>
</trkpt>
<trkpt lat="-27.4103866" lon="153.0162012">
<ele>12.556</ele>
<time>2017-04-06T00:48:36.010Z</time>
</trkpt>
<trkpt lat="-27.4103711" lon="153.0164039">
<ele>12.233</ele>
<time>2017-04-06T00:48:39.016Z</time>
</trkpt>
<trkpt lat="-27.4104021" lon="153.0165641">
<ele>11.840</ele>
<time>2017-04-06T00:48:41.101Z</time>
</trkpt>
<trkpt lat="-27.4104520" lon="153.0168335">
<ele>11.800</ele>
<time>2017-04-06T00:48:44.036Z</time>
</trkpt>
<trkpt lat="-27.4105182" lon="153.0173003">
<ele>12.048</ele>
<time>2017-04-06T00:48:48.134Z</time>
</trkpt>
<trkpt lat="-27.4105562" lon="153.0175546">
<ele>12.303</ele>
<time>2017-04-06T00:48:50.108Z</time>
</trkpt>
<trkpt lat="-27.4106055" lon="153.0179605">
<ele>12.385</ele>
<time>2017-04-06T00:48:53.127Z</time>
</trkpt>
<trkpt lat="-27.4106642" lon="153.0183847">
<ele>12.309</ele>
<time>2017-04-06T00:48:56.189Z</time>
</trkpt>
<trkpt lat="-27.4107056" lon="153.0186656">
<ele>12.297</ele>
<time>2017-04-06T00:48:58.196Z</time>
</trkpt>
<trkpt lat="-27.4107613" lon="153.0190915">
<ele>12.579</ele>
<time>2017-04-06T00:49:01.128Z</time>
</trkpt>
<trkpt lat="-27.4107998" lon="153.0194056">
<ele>13.189</ele>
<time>2017-04-06T00:49:03.137Z</time>
</trkpt>
<trkpt lat="-27.4108629" lon="153.0198861">
<ele>13.946</ele>
<time>2017-04-06T00:49:06.102Z</time>
</trkpt>
<trkpt lat="-27.4109172" lon="153.0203932">
<ele>14.552</ele>
<time>2017-04-06T00:49:09.116Z</time>
</trkpt>
<trkpt lat="-27.4109525" lon="153.0207426">
<ele>14.740</ele>
<time>2017-04-06T00:49:11.148Z</time>
</trkpt>
<trkpt lat="-27.4110455" lon="153.0212505">
<ele>14.491</ele>
<time>2017-04-06T00:49:14.135Z</time>
</trkpt>
<trkpt lat="-27.4111108" lon="153.0216901">
<ele>14.068</ele>
<time>2017-04-06T00:49:16.699Z</time>
</trkpt>
<trkpt lat="-27.4111514" lon="153.0221098">
<ele>13.834</ele>
<time>2017-04-06T00:49:19.121Z</time>
</trkpt>
<trkpt lat="-27.4111969" lon="153.0224488">
<ele>13.956</ele>
<time>2017-04-06T00:49:21.103Z</time>
</trkpt>
<trkpt lat="-27.4113143" lon="153.0229539">
<ele>14.378</ele>
<time>2017-04-06T00:49:24.134Z</time>
</trkpt>
<trkpt lat="-27.4113762" lon="153.0234521">
<ele>15.013</ele>
<time>2017-04-06T00:49:27.042Z</time>
</trkpt>
<trkpt lat="-27.4113848" lon="153.0238061">
<ele>15.842</ele>
<time>2017-04-06T00:49:29.083Z</time>
</trkpt>
<trkpt lat="-27.4114326" lon="153.0241483">
<ele>16.739</ele>
<time>2017-04-06T00:49:31.123Z</time>
</trkpt>
<trkpt lat="-27.4114857" lon="153.0246392">
<ele>17.534</ele>
<time>2017-04-06T00:49:34.136Z</time>
</trkpt>
<trkpt lat="-27.4115933" lon="153.0250933">
<ele>18.302</ele>
<time>2017-04-06T00:49:37.207Z</time>
</trkpt>
<trkpt lat="-27.4116263" lon="153.0253735">
<ele>19.179</ele>
<time>2017-04-06T00:49:39.268Z</time>
</trkpt>
<trkpt lat="-27.4116284" lon="153.0257485">
<ele>20.048</ele>
<time>2017-04-06T00:49:42.473Z</time>
</trkpt>
<trkpt lat="-27.4116354" lon="153.0260383">
<ele>20.751</ele>
<time>2017-04-06T00:49:46.841Z</time>
</trkpt>
<trkpt lat="-27.4117218" lon="153.0262691">
<ele>21.258</ele>
<time>2017-04-06T00:49:50.999Z</time>
</trkpt>
<trkpt lat="-27.4117218" lon="153.0262691">
<ele>21.560</ele>
<time>2017-04-06T00:49:56.999Z</time>
</trkpt>
<trkpt lat="-27.4117218" lon="153.0262691">
<ele>21.663</ele>
<time>2017-04-06T00:50:03.443Z</time>
</trkpt>
<trkpt lat="-27.4116865" lon="153.0264738">
<ele>21.635</ele>
<time>2017-04-06T00:50:08.476Z</time>
</trkpt>
<trkpt lat="-27.4117331" lon="153.0266539">
<ele>21.684</ele>
<time>2017-04-06T00:50:10.579Z</time>
</trkpt>
<trkpt lat="-27.4117875" lon="153.0270282">
<ele>21.986</ele>
<time>2017-04-06T00:50:14.075Z</time>
</trkpt>
<trkpt lat="-27.4118218" lon="153.0272862">
<ele>22.490</ele>
<time>2017-04-06T00:50:16.114Z</time>
</trkpt>
<trkpt lat="-27.4118740" lon="153.0276665">
<ele>22.984</ele>
<time>2017-04-06T00:50:19.061Z</time>
</trkpt>
<trkpt lat="-27.4119095" lon="153.0279253">
<ele>23.285</ele>
<time>2017-04-06T00:50:21.038Z</time>
</trkpt>
<trkpt lat="-27.4119766" lon="153.0281820">
<ele>23.300</ele>
<time>2017-04-06T00:50:22.993Z</time>
</trkpt>
<trkpt lat="-27.4120063" lon="153.0284587">
<ele>23.065</ele>
<time>2017-04-06T00:50:24.868Z</time>
</trkpt>
<trkpt lat="-27.4120561" lon="153.0289379">
<ele>22.680</ele>
<time>2017-04-06T00:50:27.931Z</time>
</trkpt>
<trkpt lat="-27.4121021" lon="153.0292788">
<ele>22.159</ele>
<time>2017-04-06T00:50:29.972Z</time>
</trkpt>
<trkpt lat="-27.4121298" lon="153.0296166">
<ele>21.460</ele>
<time>2017-04-06T00:50:32.018Z</time>
</trkpt>
<trkpt lat="-27.4121785" lon="153.0299273">
<ele>20.580</ele>
<time>2017-04-06T00:50:34.013Z</time>
</trkpt>
<trkpt lat="-27.4122416" lon="153.0303339">
<ele>19.417</ele>
<time>2017-04-06T00:50:36.622Z</time>
</trkpt>
<trkpt lat="-27.4122734" lon="153.0307001">
<ele>17.743</ele>
<time>2017-04-06T00:50:38.869Z</time>
</trkpt>
<trkpt lat="-27.4122868" lon="153.0312284">
<ele>15.596</ele>
<time>2017-04-06T00:50:42.046Z</time>
</trkpt>
<trkpt lat="-27.4123286" lon="153.0315627">
<ele>13.252</ele>
<time>2017-04-06T00:50:44.058Z</time>
</trkpt>
<trkpt lat="-27.4123031" lon="153.0320762">
<ele>10.898</ele>
<time>2017-04-06T00:50:47.098Z</time>
</trkpt>
<trkpt lat="-27.4123430" lon="153.0324145">
<ele>8.440</ele>
<time>2017-04-06T00:50:49.113Z</time>
</trkpt>
<trkpt lat="-27.4123430" lon="153.0324145">
<ele>8.440</ele>
<time>2017-04-06T00:50:49.113Z</time>
</trkpt>
<trkpt lat="-27.4429364" lon="153.0322732">
<ele>1.844</ele>
<time>2017-04-06T00:54:12.705Z</time>
</trkpt>
<trkpt lat="-27.4436680" lon="153.0322622">
<ele>1.843</ele>
<time>2017-04-06T00:54:17.643Z</time>
</trkpt>
<trkpt lat="-27.4444798" lon="153.0324972">
<ele>2.583</ele>
<time>2017-04-06T00:54:23.493Z</time>
</trkpt>
<trkpt lat="-27.4451710" lon="153.0328330">
<ele>5.160</ele>
<time>2017-04-06T00:54:29.029Z</time>
</trkpt>
<trkpt lat="-27.4457695" lon="153.0327392">
<ele>8.922</ele>
<time>2017-04-06T00:54:33.724Z</time>
</trkpt>
<trkpt lat="-27.4462384" lon="153.0322555">
<ele>11.839</ele>
<time>2017-04-06T00:54:38.825Z</time>
</trkpt>
<trkpt lat="-27.4464359" lon="153.0320123">
<ele>12.621</ele>
<time>2017-04-06T00:54:41.137Z</time>
</trkpt>
<trkpt lat="-27.4466162" lon="153.0318297">
<ele>11.289</ele>
<time>2017-04-06T00:54:43.002Z</time>
</trkpt>
<trkpt lat="-27.4469114" lon="153.0315707">
<ele>8.878</ele>
<time>2017-04-06T00:54:45.750Z</time>
</trkpt>
<trkpt lat="-27.4473817" lon="153.0313362">
<ele>6.553</ele>
<time>2017-04-06T00:54:49.189Z</time>
</trkpt>
<trkpt lat="-27.4476341" lon="153.0312631">
<ele>4.691</ele>
<time>2017-04-06T00:54:50.838Z</time>
</trkpt>
<trkpt lat="-27.4480154" lon="153.0312040">
<ele>3.188</ele>
<time>2017-04-06T00:54:53.289Z</time>
</trkpt>
<trkpt lat="-27.4480154" lon="153.0312040">
<ele>3.188</ele>
<time>2017-04-06T00:54:53.289Z</time>
</trkpt>
<trkpt lat="-27.4515052" lon="153.0264924">
<ele>4.664</ele>
<time>2017-04-06T00:55:29.581Z</time>
</trkpt>
<trkpt lat="-27.4516352" lon="153.0261197">
<ele>4.662</ele>
<time>2017-04-06T00:55:31.587Z</time>
</trkpt>
<trkpt lat="-27.4519141" lon="153.0256334">
<ele>4.719</ele>
<time>2017-04-06T00:55:34.491Z</time>
</trkpt>
<trkpt lat="-27.4520862" lon="153.0252831">
<ele>4.977</ele>
<time>2017-04-06T00:55:36.500Z</time>
</trkpt>
<trkpt lat="-27.4524528" lon="153.0248503">
<ele>5.443</ele>
<time>2017-04-06T00:55:39.497Z</time>
</trkpt>
<trkpt lat="-27.4527243" lon="153.0245917">
<ele>5.938</ele>
<time>2017-04-06T00:55:41.502Z</time>
</trkpt>
<trkpt lat="-27.4531685" lon="153.0242645">
<ele>6.340</ele>
<time>2017-04-06T00:55:44.492Z</time>
</trkpt>
<trkpt lat="-27.4536430" lon="153.0240245">
<ele>6.750</ele>
<time>2017-04-06T00:55:47.430Z</time>
</trkpt>
<trkpt lat="-27.4539817" lon="153.0239065">
<ele>7.338</ele>
<time>2017-04-06T00:55:49.427Z</time>
</trkpt>
<trkpt lat="-27.4544926" lon="153.0237133">
<ele>8.053</ele>
<time>2017-04-06T00:55:52.442Z</time>
</trkpt>
<trkpt lat="-27.4548270" lon="153.0236027">
<ele>8.786</ele>
<time>2017-04-06T00:55:54.396Z</time>
</trkpt>
<trkpt lat="-27.4551495" lon="153.0234270">
<ele>9.589</ele>
<time>2017-04-06T00:55:56.416Z</time>
</trkpt>
<trkpt lat="-27.4556124" lon="153.0231131">
<ele>10.408</ele>
<time>2017-04-06T00:55:59.457Z</time>
</trkpt>
<trkpt lat="-27.4560051" lon="153.0227328">
<ele>11.218</ele>
<time>2017-04-06T00:56:02.378Z</time>
</trkpt>
<trkpt lat="-27.4562501" lon="153.0224169">
<ele>12.141</ele>
<time>2017-04-06T00:56:04.482Z</time>
</trkpt>
<trkpt lat="-27.4565756" lon="153.0219495">
<ele>13.019</ele>
<time>2017-04-06T00:56:07.445Z</time>
</trkpt>
<trkpt lat="-27.4568408" lon="153.0214394">
<ele>13.522</ele>
<time>2017-04-06T00:56:10.385Z</time>
</trkpt>
<trkpt lat="-27.4569787" lon="153.0210559">
<ele>13.620</ele>
<time>2017-04-06T00:56:12.436Z</time>
</trkpt>
<trkpt lat="-27.4570869" lon="153.0206647">
<ele>13.470</ele>
<time>2017-04-06T00:56:14.457Z</time>
</trkpt>
<trkpt lat="-27.4571025" lon="153.0202626">
<ele>13.129</ele>
<time>2017-04-06T00:56:16.446Z</time>
</trkpt>
<trkpt lat="-27.4571651" lon="153.0196795">
<ele>12.682</ele>
<time>2017-04-06T00:56:19.382Z</time>
</trkpt>
<trkpt lat="-27.4571851" lon="153.0192823">
<ele>12.362</ele>
<time>2017-04-06T00:56:21.376Z</time>
</trkpt>
<trkpt lat="-27.4571634" lon="153.0188854">
<ele>12.319</ele>
<time>2017-04-06T00:56:23.363Z</time>
</trkpt>
<trkpt lat="-27.4572078" lon="153.0184893">
<ele>12.506</ele>
<time>2017-04-06T00:56:25.359Z</time>
</trkpt>
<trkpt lat="-27.4571514" lon="153.0180924">
<ele>12.828</ele>
<time>2017-04-06T00:56:27.368Z</time>
</trkpt>
<trkpt lat="-27.4571396" lon="153.0174937">
<ele>13.153</ele>
<time>2017-04-06T00:56:30.355Z</time>
</trkpt>
<trkpt lat="-27.4571121" lon="153.0170930">
<ele>13.192</ele>
<time>2017-04-06T00:56:32.345Z</time>
</trkpt>
<trkpt lat="-27.4571121" lon="153.0170930">
<ele>13.192</ele>
<time>2017-04-06T00:56:32.345Z</time>
</trkpt>
<trkpt lat="-27.4792748" lon="152.9763761">
<ele>22.905</ele>
<time>2017-04-06T01:00:17.804Z</time>
</trkpt>
<trkpt lat="-27.4797286" lon="152.9753862">
<ele>22.894</ele>
<time>2017-04-06T01:00:22.626Z</time>
</trkpt>
<trkpt lat="-27.4800048" lon="152.9747938">
<ele>23.476</ele>
<time>2017-04-06T01:00:25.451Z</time>
</trkpt>
<trkpt lat="-27.4804709" lon="152.9737987">
<ele>25.372</ele>
<time>2017-04-06T01:00:30.007Z</time>
</trkpt>
<trkpt lat="-27.4809714" lon="152.9727496">
<ele>28.339</ele>
<time>2017-04-06T01:00:34.693Z</time>
</trkpt>
<trkpt lat="-27.4815084" lon="152.9716458">
<ele>31.422</ele>
<time>2017-04-06T01:00:39.597Z</time>
</trkpt>
<trkpt lat="-27.4817296" lon="152.9712022">
<ele>33.776</ele>
<time>2017-04-06T01:00:41.584Z</time>
</trkpt>
<trkpt lat="-27.4819617" lon="152.9707638">
<ele>34.973</ele>
<time>2017-04-06T01:00:43.584Z</time>
</trkpt>
<trkpt lat="-27.4823404" lon="152.9701176">
<ele>35.297</ele>
<time>2017-04-06T01:00:46.630Z</time>
</trkpt>
<trkpt lat="-27.4825767" lon="152.9696834">
<ele>35.417</ele>
<time>2017-04-06T01:00:48.632Z</time>
</trkpt>
<trkpt lat="-27.4829474" lon="152.9690724">
<ele>35.817</ele>
<time>2017-04-06T01:00:51.538Z</time>
</trkpt>
<trkpt lat="-27.4832317" lon="152.9686748">
<ele>36.564</ele>
<time>2017-04-06T01:00:53.553Z</time>
</trkpt>
<trkpt lat="-27.4835200" lon="152.9682969">
<ele>37.485</ele>
<time>2017-04-06T01:00:55.539Z</time>
</trkpt>
<trkpt lat="-27.4838590" lon="152.9679566">
<ele>38.319</ele>
<time>2017-04-06T01:00:57.582Z</time>
</trkpt>
<trkpt lat="-27.4844121" lon="152.9675137">
<ele>38.893</ele>
<time>2017-04-06T01:01:00.626Z</time>
</trkpt>
<trkpt lat="-27.4847867" lon="152.9672597">
<ele>39.398</ele>
<time>2017-04-06T01:01:02.583Z</time>
</trkpt>
<trkpt lat="-27.4853748" lon="152.9669320">
<ele>40.068</ele>
<time>2017-04-06T01:01:05.523Z</time>
</trkpt>
<trkpt lat="-27.4858009" lon="152.9667877">
<ele>40.958</ele>
<time>2017-04-06T01:01:07.528Z</time>
</trkpt>
<trkpt lat="-27.4864459" lon="152.9665938">
<ele>42.095</ele>
<time>2017-04-06T01:01:10.593Z</time>
</trkpt>
<trkpt lat="-27.4868724" lon="152.9664773">
<ele>43.402</ele>
<time>2017-04-06T01:01:12.607Z</time>
</trkpt>
<trkpt lat="-27.4875332" lon="152.9664150">
<ele>44.565</ele>
<time>2017-04-06T01:01:15.492Z</time>
</trkpt>
<trkpt lat="-27.4879500" lon="152.9664188">
<ele>45.279</ele>
<time>2017-04-06T01:01:17.208Z</time>
</trkpt>
<trkpt lat="-27.4885962" lon="152.9664559">
<ele>45.435</ele>
<time>2017-04-06T01:01:19.899Z</time>
</trkpt>
<trkpt lat="-27.4890571" lon="152.9665765">
<ele>45.207</ele>
<time>2017-04-06T01:01:21.946Z</time>
</trkpt>
<trkpt lat="-27.4895512" lon="152.9666759">
<ele>44.998</ele>
<time>2017-04-06T01:01:24.189Z</time>
</trkpt>
<trkpt lat="-27.4902662" lon="152.9668196">
<ele>45.119</ele>
<time>2017-04-06T01:01:27.396Z</time>
</trkpt>
<trkpt lat="-27.4909251" lon="152.9668160">
<ele>45.461</ele>
<time>2017-04-06T01:01:30.302Z</time>
</trkpt>
<trkpt lat="-27.4916001" lon="152.9667118">
<ele>45.549</ele>
<time>2017-04-06T01:01:33.319Z</time>
</trkpt>
<trkpt lat="-27.4920532" lon="152.9666391">
<ele>44.771</ele>
<time>2017-04-06T01:01:35.329Z</time>
</trkpt>
<trkpt lat="-27.4926845" lon="152.9664234">
<ele>42.960</ele>
<time>2017-04-06T01:01:38.216Z</time>
</trkpt>
<trkpt lat="-27.4931064" lon="152.9662054">
<ele>40.371</ele>
<time>2017-04-06T01:01:40.245Z</time>
</trkpt>
<trkpt lat="-27.4935055" lon="152.9659746">
<ele>37.342</ele>
<time>2017-04-06T01:01:42.218Z</time>
</trkpt>
<trkpt lat="-27.4940636" lon="152.9655228">
<ele>34.339</ele>
<time>2017-04-06T01:01:45.254Z</time>
</trkpt>
<trkpt lat="-27.4946189" lon="152.9650815">
<ele>31.644</ele>
<time>2017-04-06T01:01:48.253Z</time>
</trkpt>
<trkpt lat="-27.4951872" lon="152.9646871">
<ele>29.237</ele>
<time>2017-04-06T01:01:51.173Z</time>
</trkpt>
<trkpt lat="-27.4955646" lon="152.9644114">
<ele>27.272</ele>
<time>2017-04-06T01:01:53.132Z</time>
</trkpt>
<trkpt lat="-27.4959701" lon="152.9641971">
<ele>25.880</ele>
<time>2017-04-06T01:01:55.099Z</time>
</trkpt>
<trkpt lat="-27.4966664" lon="152.9640089">
<ele>24.877</ele>
<time>2017-04-06T01:01:58.271Z</time>
</trkpt>
<trkpt lat="-27.4971328" lon="152.9638653">
<ele>23.851</ele>
<time>2017-04-06T01:02:00.425Z</time>
</trkpt>
<trkpt lat="-27.4975388" lon="152.9637381">
<ele>22.599</ele>
<time>2017-04-06T01:02:02.307Z</time>
</trkpt>
<trkpt lat="-27.4982046" lon="152.9635273">
<ele>21.376</ele>
<time>2017-04-06T01:02:05.398Z</time>
</trkpt>
<trkpt lat="-27.4988572" lon="152.9633473">
<ele>20.493</ele>
<time>2017-04-06T01:02:08.402Z</time>
</trkpt>
<trkpt lat="-27.4994923" lon="152.9631312">
<ele>19.993</ele>
<time>2017-04-06T01:02:11.375Z</time>
</trkpt>
<trkpt lat="-27.4999195" lon="152.9629996">
<ele>19.738</ele>
<time>2017-04-06T01:02:13.394Z</time>
</trkpt>
<trkpt lat="-27.5005706" lon="152.9628273">
<ele>19.563</ele>
<time>2017-04-06T01:02:16.542Z</time>
</trkpt>
<trkpt lat="-27.5009942" lon="152.9626783">
<ele>19.316</ele>
<time>2017-04-06T01:02:18.693Z</time>
</trkpt>
<trkpt lat="-27.5014294" lon="152.9626391">
<ele>18.903</ele>
<time>2017-04-06T01:02:20.845Z</time>
</trkpt>
<trkpt lat="-27.5018465" lon="152.9626721">
<ele>18.329</ele>
<time>2017-04-06T01:02:22.939Z</time>
</trkpt>
<trkpt lat="-27.5024437" lon="152.9628587">
<ele>17.645</ele>
<time>2017-04-06T01:02:26.038Z</time>
</trkpt>
<trkpt lat="-27.5030208" lon="152.9630500">
<ele>16.988</ele>
<time>2017-04-06T01:02:29.012Z</time>
</trkpt>
<trkpt lat="-27.5035688" lon="152.9632923">
<ele>16.467</ele>
<time>2017-04-06T01:02:31.897Z</time>
</trkpt>
<trkpt lat="-27.5039662" lon="152.9634020">
<ele>15.934</ele>
<time>2017-04-06T01:02:33.898Z</time>
</trkpt>
<trkpt lat="-27.5045706" lon="152.9634154">
<ele>15.249</ele>
<time>2017-04-06T01:02:36.854Z</time>
</trkpt>
<trkpt lat="-27.5049766" lon="152.9633946">
<ele>14.361</ele>
<time>2017-04-06T01:02:38.839Z</time>
</trkpt>
<trkpt lat="-27.5055875" lon="152.9632906">
<ele>13.177</ele>
<time>2017-04-06T01:02:41.824Z</time>
</trkpt>
<trkpt lat="-27.5061682" lon="152.9630762">
<ele>11.637</ele>
<time>2017-04-06T01:02:44.725Z</time>
</trkpt>
<trkpt lat="-27.5067150" lon="152.9627691">
<ele>9.669</ele>
<time>2017-04-06T01:02:47.565Z</time>
</trkpt>
<trkpt lat="-27.5072457" lon="152.9623798">
<ele>7.274</ele>
<time>2017-04-06T01:02:50.522Z</time>
</trkpt>
<trkpt lat="-27.5076061" lon="152.9620314">
<ele>4.824</ele>
<time>2017-04-06T01:02:52.789Z</time>
</trkpt>
<trkpt lat="-27.5079064" lon="152.9616691">
<ele>2.923</ele>
<time>2017-04-06T01:02:54.956Z</time>
</trkpt>
<trkpt lat="-27.5081710" lon="152.9612889">
<ele>1.896</ele>
<time>2017-04-06T01:02:57.111Z</time>
</trkpt>
<trkpt lat="-27.5085418" lon="152.9607214">
<ele>1.544</ele>
<time>2017-04-06T01:03:00.244Z</time>
</trkpt>
<trkpt lat="-27.5087779" lon="152.9603551">
<ele>1.459</ele>
<time>2017-04-06T01:03:02.236Z</time>
</trkpt>
<trkpt lat="-27.5089951" lon="152.9599832">
<ele>1.413</ele>
<time>2017-04-06T01:03:04.209Z</time>
</trkpt>
<trkpt lat="-27.5094192" lon="152.9595255">
<ele>1.457</ele>
<time>2017-04-06T01:03:07.176Z</time>
</trkpt>
<trkpt lat="-27.5097264" lon="152.9592294">
<ele>1.831</ele>
<time>2017-04-06T01:03:09.245Z</time>
</trkpt>
<trkpt lat="-27.5102187" lon="152.9588349">
<ele>2.670</ele>
<time>2017-04-06T01:03:12.395Z</time>
</trkpt>
<trkpt lat="-27.5107357" lon="152.9585230">
<ele>3.959</ele>
<time>2017-04-06T01:03:15.448Z</time>
</trkpt>
<trkpt lat="-27.5112704" lon="152.9582520">
<ele>5.698</ele>
<time>2017-04-06T01:03:18.444Z</time>
</trkpt>
<trkpt lat="-27.5116237" lon="152.9581096">
<ele>7.877</ele>
<time>2017-04-06T01:03:20.355Z</time>
</trkpt>
<trkpt lat="-27.5119720" lon="152.9579434">
<ele>10.192</ele>
<time>2017-04-06T01:03:22.277Z</time>
</trkpt>
<trkpt lat="-27.5125048" lon="152.9576688">
<ele>12.147</ele>
<time>2017-04-06T01:03:25.215Z</time>
</trkpt>
<trkpt lat="-27.5130509" lon="152.9574127">
<ele>13.455</ele>
<time>2017-04-06T01:03:28.139Z</time>
</trkpt>
<trkpt lat="-27.5135799" lon="152.9571227">
<ele>14.125</ele>
<time>2017-04-06T01:03:31.041Z</time>
</trkpt>
<trkpt lat="-27.5141927" lon="152.9568201">
<ele>14.126</ele>
<time>2017-04-06T01:03:34.330Z</time>
</trkpt>
<trkpt lat="-27.5147288" lon="152.9565911">
<ele>13.333</ele>
<time>2017-04-06T01:03:37.159Z</time>
</trkpt>
<trkpt lat="-27.5150770" lon="152.9563793">
<ele>11.881</ele>
<time>2017-04-06T01:03:39.127Z</time>
</trkpt>
<trkpt lat="-27.5156257" lon="152.9560962">
<ele>10.246</ele>
<time>2017-04-06T01:03:42.124Z</time>
</trkpt>
<trkpt lat="-27.5161691" lon="152.9557927">
<ele>8.580</ele>
<time>2017-04-06T01:03:45.093Z</time>
</trkpt>
<trkpt lat="-27.5166977" lon="152.9554637">
<ele>6.628</ele>
<time>2017-04-06T01:03:48.018Z</time>
</trkpt>
<trkpt lat="-27.5170027" lon="152.9551804">
<ele>4.640</ele>
<time>2017-04-06T01:03:49.915Z</time>
</trkpt>
<trkpt lat="-27.5173073" lon="152.9548752">
<ele>3.312</ele>
<time>2017-04-06T01:03:51.870Z</time>
</trkpt>
<trkpt lat="-27.5176046" lon="152.9545433">
<ele>2.822</ele>
<time>2017-04-06T01:03:53.891Z</time>
</trkpt>
<trkpt lat="-27.5180432" lon="152.9540652">
<ele>2.811</ele>
<time>2017-04-06T01:03:56.900Z</time>
</trkpt>
<trkpt lat="-27.5182815" lon="152.9536707">
<ele>2.968</ele>
<time>2017-04-06T01:03:59.045Z</time>
</trkpt>
<trkpt lat="-27.5186434" lon="152.9530979">
<ele>3.274</ele>
<time>2017-04-06T01:04:02.243Z</time>
</trkpt>
<trkpt lat="-27.5188711" lon="152.9527184">
<ele>3.978</ele>
<time>2017-04-06T01:04:04.366Z</time>
</trkpt>
<trkpt lat="-27.5190511" lon="152.9523276">
<ele>5.188</ele>
<time>2017-04-06T01:04:06.464Z</time>
</trkpt>
<trkpt lat="-27.5192894" lon="152.9517211">
<ele>6.588</ele>
<time>2017-04-06T01:04:09.716Z</time>
</trkpt>
<trkpt lat="-27.5194538" lon="152.9513226">
<ele>7.948</ele>
<time>2017-04-06T01:04:11.936Z</time>
</trkpt>
<trkpt lat="-27.5195792" lon="152.9509233">
<ele>9.329</ele>
<time>2017-04-06T01:04:14.095Z</time>
</trkpt>
<trkpt lat="-27.5197672" lon="152.9503601">
<ele>10.591</ele>
<time>2017-04-06T01:04:17.156Z</time>
</trkpt>
<trkpt lat="-27.5199883" lon="152.9498120">
<ele>11.455</ele>
<time>2017-04-06T01:04:20.189Z</time>
</trkpt>
<trkpt lat="-27.5201787" lon="152.9492914">
<ele>11.881</ele>
<time>2017-04-06T01:04:23.009Z</time>
</trkpt>
<trkpt lat="-27.5203970" lon="152.9489754">
<ele>11.910</ele>
<time>2017-04-06T01:04:25.021Z</time>
</trkpt>
<trkpt lat="-27.5207787" lon="152.9485944">
<ele>11.586</ele>
<time>2017-04-06T01:04:27.944Z</time>
</trkpt>
<trkpt lat="-27.5212809" lon="152.9483563">
<ele>11.073</ele>
<time>2017-04-06T01:04:31.133Z</time>
</trkpt>
<trkpt lat="-27.5217974" lon="152.9481900">
<ele>10.626</ele>
<time>2017-04-06T01:04:34.329Z</time>
</trkpt>
<trkpt lat="-27.5221386" lon="152.9481121">
<ele>10.614</ele>
<time>2017-04-06T01:04:36.380Z</time>
</trkpt>
<trkpt lat="-27.5226490" lon="152.9480103">
<ele>11.321</ele>
<time>2017-04-06T01:04:39.384Z</time>
</trkpt>
<trkpt lat="-27.5231444" lon="152.9479036">
<ele>12.677</ele>
<time>2017-04-06T01:04:42.257Z</time>
</trkpt>
<trkpt lat="-27.5236360" lon="152.9477791">
<ele>14.471</ele>
<time>2017-04-06T01:04:45.047Z</time>
</trkpt>
<trkpt lat="-27.5241516" lon="152.9476757">
<ele>16.510</ele>
<time>2017-04-06T01:04:47.787Z</time>
</trkpt>
<trkpt lat="-27.5246801" lon="152.9476125">
<ele>18.534</ele>
<time>2017-04-06T01:04:50.398Z</time>
</trkpt>
<trkpt lat="-27.5251944" lon="152.9474753">
<ele>20.164</ele>
<time>2017-04-06T01:04:52.893Z</time>
</trkpt>
<trkpt lat="-27.5258116" lon="152.9473725">
<ele>20.826</ele>
<time>2017-04-06T01:04:55.867Z</time>
</trkpt>
<trkpt lat="-27.5264788" lon="152.9472387">
<ele>20.022</ele>
<time>2017-04-06T01:04:59.224Z</time>
</trkpt>
<trkpt lat="-27.5270627" lon="152.9471271">
<ele>17.710</ele>
<time>2017-04-06T01:05:02.282Z</time>
</trkpt>
<trkpt lat="-27.5274819" lon="152.9470704">
<ele>14.352</ele>
<time>2017-04-06T01:05:04.460Z</time>
</trkpt>
<trkpt lat="-27.5280566" lon="152.9469732">
<ele>10.904</ele>
<time>2017-04-06T01:05:07.382Z</time>
</trkpt>
<trkpt lat="-27.5284362" lon="152.9469034">
<ele>8.299</ele>
<time>2017-04-06T01:05:09.247Z</time>
</trkpt>
<trkpt lat="-27.5288115" lon="152.9468068">
<ele>6.713</ele>
<time>2017-04-06T01:05:11.053Z</time>
</trkpt>
<trkpt lat="-27.5293898" lon="152.9467209">
<ele>5.683</ele>
<time>2017-04-06T01:05:13.773Z</time>
</trkpt>
<trkpt lat="-27.5297909" lon="152.9466698">
<ele>4.729</ele>
<time>2017-04-06T01:05:15.697Z</time>
</trkpt>
<trkpt lat="-27.5302108" lon="152.9466021">
<ele>3.710</ele>
<time>2017-04-06T01:05:17.726Z</time>
</trkpt>
<trkpt lat="-27.5306496" lon="152.9465054">
<ele>2.810</ele>
<time>2017-04-06T01:05:19.857Z</time>
</trkpt>
<trkpt lat="-27.5312675" lon="152.9464193">
<ele>2.216</ele>
<time>2017-04-06T01:05:22.807Z</time>
</trkpt>
<trkpt lat="-27.5319098" lon="152.9463734">
<ele>1.875</ele>
<time>2017-04-06T01:05:25.876Z</time>
</trkpt>
<trkpt lat="-27.5323177" lon="152.9463991">
<ele>1.566</ele>
<time>2017-04-06T01:05:27.802Z</time>
</trkpt>
<trkpt lat="-27.5329574" lon="152.9464359">
<ele>1.180</ele>
<time>2017-04-06T01:05:30.768Z</time>
</trkpt>
<trkpt lat="-27.5333716" lon="152.9464270">
<ele>0.856</ele>
<time>2017-04-06T01:05:32.657Z</time>
</trkpt>
<trkpt lat="-27.5337913" lon="152.9464578">
<ele>0.698</ele>
<time>2017-04-06T01:05:34.577Z</time>
</trkpt>
<trkpt lat="-27.5344502" lon="152.9465980">
<ele>0.669</ele>
<time>2017-04-06T01:05:37.701Z</time>
</trkpt>
<trkpt lat="-27.5348816" lon="152.9466524">
<ele>0.786</ele>
<time>2017-04-06T01:05:39.817Z</time>
</trkpt>
<trkpt lat="-27.5355309" lon="152.9467514">
<ele>1.119</ele>
<time>2017-04-06T01:05:43.049Z</time>
</trkpt>
<trkpt lat="-27.5359445" lon="152.9467898">
<ele>1.558</ele>
<time>2017-04-06T01:05:45.109Z</time>
</trkpt>
<trkpt lat="-27.5363631" lon="152.9468284">
<ele>1.863</ele>
<time>2017-04-06T01:05:47.242Z</time>
</trkpt>
<trkpt lat="-27.5369577" lon="152.9467765">
<ele>1.911</ele>
<time>2017-04-06T01:05:50.363Z</time>
</trkpt>
<trkpt lat="-27.5375512" lon="152.9466720">
<ele>1.733</ele>
<time>2017-04-06T01:05:53.541Z</time>
</trkpt>
<trkpt lat="-27.5379443" lon="152.9466133">
<ele>1.384</ele>
<time>2017-04-06T01:05:55.607Z</time>
</trkpt>
<trkpt lat="-27.5384784" lon="152.9464019">
<ele>0.883</ele>
<time>2017-04-06T01:05:58.530Z</time>
</trkpt>
<trkpt lat="-27.5389910" lon="152.9462222">
<ele>0.307</ele>
<time>2017-04-06T01:06:01.434Z</time>
</trkpt>
<trkpt lat="-27.5395461" lon="152.9459478">
<ele>0.000</ele>
<time>2017-04-06T01:06:04.853Z</time>
</trkpt>
<trkpt lat="-27.5398737" lon="152.9457328">
<ele>0.000</ele>
<time>2017-04-06T01:06:07.025Z</time>
</trkpt>
<trkpt lat="-27.5401851" lon="152.9454958">
<ele>0.000</ele>
<time>2017-04-06T01:06:09.431Z</time>
</trkpt>
<trkpt lat="-27.5404608" lon="152.9452498">
<ele>0.152</ele>
<time>2017-04-06T01:06:12.000Z</time>
</trkpt>
<trkpt lat="-27.5407320" lon="152.9450192">
<ele>0.308</ele>
<time>2017-04-06T01:06:14.620Z</time>
</trkpt>
<trkpt lat="-27.5411841" lon="152.9447035">
<ele>0.252</ele>
<time>2017-04-06T01:06:18.012Z</time>
</trkpt>
<trkpt lat="-27.5414478" lon="152.9445064">
<ele>0.034</ele>
<time>2017-04-06T01:06:19.903Z</time>
</trkpt>
<trkpt lat="-27.5417788" lon="152.9443059">
<ele>0.000</ele>
<time>2017-04-06T01:06:22.125Z</time>
</trkpt>
<trkpt lat="-27.5419747" lon="152.9441353">
<ele>0.000</ele>
<time>2017-04-06T01:06:23.654Z</time>
</trkpt>
<trkpt lat="-27.5422197" lon="152.9439516">
<ele>0.000</ele>
<time>2017-04-06T01:06:25.479Z</time>
</trkpt>
<trkpt lat="-27.5424996" lon="152.9437426">
<ele>0.000</ele>
<time>2017-04-06T01:06:27.596Z</time>
</trkpt>
<trkpt lat="-27.5429125" lon="152.9434530">
<ele>0.000</ele>
<time>2017-04-06T01:06:30.457Z</time>
</trkpt>
<trkpt lat="-27.5432416" lon="152.9432854">
<ele>0.000</ele>
<time>2017-04-06T01:06:32.495Z</time>
</trkpt>
<trkpt lat="-27.5436301" lon="152.9429761">
<ele>1.230</ele>
<time>2017-04-06T01:06:35.180Z</time>
</trkpt>
<trkpt lat="-27.5440946" lon="152.9427463">
<ele>3.200</ele>
<time>2017-04-06T01:06:38.090Z</time>
</trkpt>
<trkpt lat="-27.5446085" lon="152.9425215">
<ele>5.326</ele>
<time>2017-04-06T01:06:41.301Z</time>
</trkpt>
<trkpt lat="-27.5449242" lon="152.9423441">
<ele>7.460</ele>
<time>2017-04-06T01:06:43.335Z</time>
</trkpt>
<trkpt lat="-27.5454229" lon="152.9421663">
<ele>9.256</ele>
<time>2017-04-06T01:06:46.229Z</time>
</trkpt>
<trkpt lat="-27.5458985" lon="152.9419832">
<ele>10.576</ele>
<time>2017-04-06T01:06:48.867Z</time>
</trkpt>
<trkpt lat="-27.5462332" lon="152.9418901">
<ele>11.540</ele>
<time>2017-04-06T01:06:50.656Z</time>
</trkpt>
<trkpt lat="-27.5467516" lon="152.9417572">
<ele>12.220</ele>
<time>2017-04-06T01:06:53.426Z</time>
</trkpt>
<trkpt lat="-27.5471237" lon="152.9416957">
<ele>12.704</ele>
<time>2017-04-06T01:06:55.422Z</time>
</trkpt>
<trkpt lat="-27.5476943" lon="152.9416101">
<ele>13.238</ele>
<time>2017-04-06T01:06:58.499Z</time>
</trkpt>
<trkpt lat="-27.5482760" lon="152.9415447">
<ele>14.032</ele>
<time>2017-04-06T01:07:01.573Z</time>
</trkpt>
<trkpt lat="-27.5486481" lon="152.9414826">
<ele>15.094</ele>
<time>2017-04-06T01:07:03.517Z</time>
</trkpt>
<trkpt lat="-27.5490148" lon="152.9414663">
<ele>16.170</ele>
<time>2017-04-06T01:07:05.382Z</time>
</trkpt>
<trkpt lat="-27.5495707" lon="152.9414658">
<ele>16.977</ele>
<time>2017-04-06T01:07:08.180Z</time>
</trkpt>
<trkpt lat="-27.5499542" lon="152.9414453">
<ele>17.481</ele>
<time>2017-04-06T01:07:10.100Z</time>
</trkpt>
<trkpt lat="-27.5505406" lon="152.9413566">
<ele>17.770</ele>
<time>2017-04-06T01:07:12.982Z</time>
</trkpt>
<trkpt lat="-27.5511391" lon="152.9412776">
<ele>17.731</ele>
<time>2017-04-06T01:07:15.803Z</time>
</trkpt>
<trkpt lat="-27.5517292" lon="152.9411361">
<ele>17.174</ele>
<time>2017-04-06T01:07:18.544Z</time>
</trkpt>
<trkpt lat="-27.5521437" lon="152.9410589">
<ele>16.189</ele>
<time>2017-04-06T01:07:20.417Z</time>
</trkpt>
<trkpt lat="-27.5528003" lon="152.9409485">
<ele>15.181</ele>
<time>2017-04-06T01:07:23.278Z</time>
</trkpt>
<trkpt lat="-27.5532197" lon="152.9408695">
<ele>14.524</ele>
<time>2017-04-06T01:07:25.106Z</time>
</trkpt>
<trkpt lat="-27.5538926" lon="152.9407600">
<ele>14.333</ele>
<time>2017-04-06T01:07:28.024Z</time>
</trkpt>
<trkpt lat="-27.5543606" lon="152.9406632">
<ele>14.679</ele>
<time>2017-04-06T01:07:30.057Z</time>
</trkpt>
<trkpt lat="-27.5548151" lon="152.9405869">
<ele>15.660</ele>
<time>2017-04-06T01:07:32.007Z</time>
</trkpt>
<trkpt lat="-27.5552685" lon="152.9404646">
<ele>17.046</ele>
<time>2017-04-06T01:07:33.964Z</time>
</trkpt>
<trkpt lat="-27.5559670" lon="152.9403573">
<ele>18.512</ele>
<time>2017-04-06T01:07:36.899Z</time>
</trkpt>
<trkpt lat="-27.5564256" lon="152.9402559">
<ele>20.143</ele>
<time>2017-04-06T01:07:38.839Z</time>
</trkpt>
<trkpt lat="-27.5568999" lon="152.9401817">
<ele>22.042</ele>
<time>2017-04-06T01:07:40.829Z</time>
</trkpt>
<trkpt lat="-27.5576186" lon="152.9400705">
<ele>24.028</ele>
<time>2017-04-06T01:07:43.848Z</time>
</trkpt>
<trkpt lat="-27.5580935" lon="152.9400020">
<ele>26.000</ele>
<time>2017-04-06T01:07:45.848Z</time>
</trkpt>
<trkpt lat="-27.5585672" lon="152.9399401">
<ele>27.797</ele>
<time>2017-04-06T01:07:47.846Z</time>
</trkpt>
<trkpt lat="-27.5592803" lon="152.9399320">
<ele>28.996</ele>
<time>2017-04-06T01:07:50.848Z</time>
</trkpt>
<trkpt lat="-27.5597611" lon="152.9399673">
<ele>29.493</ele>
<time>2017-04-06T01:07:52.888Z</time>
</trkpt>
<trkpt lat="-27.5604591" lon="152.9401647">
<ele>29.613</ele>
<time>2017-04-06T01:07:55.881Z</time>
</trkpt>
<trkpt lat="-27.5611282" lon="152.9404405">
<ele>29.625</ele>
<time>2017-04-06T01:07:58.750Z</time>
</trkpt>
<trkpt lat="-27.5617775" lon="152.9407777">
<ele>29.470</ele>
<time>2017-04-06T01:08:01.589Z</time>
</trkpt>
<trkpt lat="-27.5624713" lon="152.9411129">
<ele>28.843</ele>
<time>2017-04-06T01:08:04.605Z</time>
</trkpt>
<trkpt lat="-27.5629308" lon="152.9413370">
<ele>27.530</ele>
<time>2017-04-06T01:08:06.609Z</time>
</trkpt>
<trkpt lat="-27.5636190" lon="152.9416946">
<ele>25.684</ele>
<time>2017-04-06T01:08:09.648Z</time>
</trkpt>
<trkpt lat="-27.5642959" lon="152.9420370">
<ele>23.470</ele>
<time>2017-04-06T01:08:12.625Z</time>
</trkpt>
<trkpt lat="-27.5647541" lon="152.9422753">
<ele>20.763</ele>
<time>2017-04-06T01:08:14.651Z</time>
</trkpt>
<trkpt lat="-27.5652057" lon="152.9424922">
<ele>17.771</ele>
<time>2017-04-06T01:08:16.623Z</time>
</trkpt>
<trkpt lat="-27.5658864" lon="152.9428198">
<ele>15.294</ele>
<time>2017-04-06T01:08:19.603Z</time>
</trkpt>
<trkpt lat="-27.5663412" lon="152.9430478">
<ele>13.883</ele>
<time>2017-04-06T01:08:21.609Z</time>
</trkpt>
<trkpt lat="-27.5667929" lon="152.9432670">
<ele>13.411</ele>
<time>2017-04-06T01:08:23.592Z</time>
</trkpt>
<trkpt lat="-27.5674921" lon="152.9435449">
<ele>13.263</ele>
<time>2017-04-06T01:08:26.592Z</time>
</trkpt>
<trkpt lat="-27.5682152" lon="152.9437423">
<ele>12.921</ele>
<time>2017-04-06T01:08:29.606Z</time>
</trkpt>
<trkpt lat="-27.5686953" lon="152.9438695">
<ele>12.460</ele>
<time>2017-04-06T01:08:31.610Z</time>
</trkpt>
<trkpt lat="-27.5691852" lon="152.9439390">
<ele>12.372</ele>
<time>2017-04-06T01:08:33.627Z</time>
</trkpt>
<trkpt lat="-27.5699114" lon="152.9441250">
<ele>13.038</ele>
<time>2017-04-06T01:08:36.670Z</time>
</trkpt>
<trkpt lat="-27.5706393" lon="152.9442254">
<ele>14.589</ele>
<time>2017-04-06T01:08:39.669Z</time>
</trkpt>
<trkpt lat="-27.5711215" lon="152.9442716">
<ele>16.928</ele>
<time>2017-04-06T01:08:41.654Z</time>
</trkpt>
<trkpt lat="-27.5715929" lon="152.9443954">
<ele>19.577</ele>
<time>2017-04-06T01:08:43.656Z</time>
</trkpt>
<trkpt lat="-27.5723287" lon="152.9444822">
<ele>21.806</ele>
<time>2017-04-06T01:08:46.743Z</time>
</trkpt>
<trkpt lat="-27.5730498" lon="152.9445786">
<ele>23.308</ele>
<time>2017-04-06T01:08:49.767Z</time>
</trkpt>
<trkpt lat="-27.5735125" lon="152.9446608">
<ele>24.190</ele>
<time>2017-04-06T01:08:51.751Z</time>
</trkpt>
<trkpt lat="-27.5742190" lon="152.9447581">
<ele>24.579</ele>
<time>2017-04-06T01:08:54.856Z</time>
</trkpt>
<trkpt lat="-27.5749422" lon="152.9448430">
<ele>24.567</ele>
<time>2017-04-06T01:08:58.119Z</time>
</trkpt>
<trkpt lat="-27.5756158" lon="152.9449564">
<ele>24.210</ele>
<time>2017-04-06T01:09:01.295Z</time>
</trkpt>
<trkpt lat="-27.5762734" lon="152.9449644">
<ele>23.458</ele>
<time>2017-04-06T01:09:04.389Z</time>
</trkpt>
<trkpt lat="-27.5767045" lon="152.9450661">
<ele>22.381</ele>
<time>2017-04-06T01:09:06.330Z</time>
</trkpt>
<trkpt lat="-27.5773194" lon="152.9450371">
<ele>21.305</ele>
<time>2017-04-06T01:09:08.987Z</time>
</trkpt>
<trkpt lat="-27.5777218" lon="152.9449163">
<ele>20.410</ele>
<time>2017-04-06T01:09:10.782Z</time>
</trkpt>
<trkpt lat="-27.5781504" lon="152.9447364">
<ele>19.629</ele>
<time>2017-04-06T01:09:12.765Z</time>
</trkpt>
<trkpt lat="-27.5787756" lon="152.9443494">
<ele>18.940</ele>
<time>2017-04-06T01:09:15.832Z</time>
</trkpt>
<trkpt lat="-27.5791259" lon="152.9440388">
<ele>18.263</ele>
<time>2017-04-06T01:09:17.746Z</time>
</trkpt>
<trkpt lat="-27.5795726" lon="152.9434252">
<ele>17.513</ele>
<time>2017-04-06T01:09:20.782Z</time>
</trkpt>
<trkpt lat="-27.5799342" lon="152.9427455">
<ele>16.826</ele>
<time>2017-04-06T01:09:23.806Z</time>
</trkpt>
<trkpt lat="-27.5801120" lon="152.9419988">
<ele>16.328</ele>
<time>2017-04-06T01:09:26.733Z</time>
</trkpt>
<trkpt lat="-27.5801677" lon="152.9414781">
<ele>16.005</ele>
<time>2017-04-06T01:09:28.732Z</time>
</trkpt>
<trkpt lat="-27.5801626" lon="152.9409641">
<ele>15.834</ele>
<time>2017-04-06T01:09:30.720Z</time>
</trkpt>
<trkpt lat="-27.5800616" lon="152.9401823">
<ele>15.808</ele>
<time>2017-04-06T01:09:33.809Z</time>
</trkpt>
<trkpt lat="-27.5799932" lon="152.9396697">
<ele>15.940</ele>
<time>2017-04-06T01:09:35.829Z</time>
</trkpt>
<trkpt lat="-27.5799215" lon="152.9389165">
<ele>16.219</ele>
<time>2017-04-06T01:09:38.688Z</time>
</trkpt>
<trkpt lat="-27.5799862" lon="152.9384095">
<ele>16.514</ele>
<time>2017-04-06T01:09:40.560Z</time>
</trkpt>
<trkpt lat="-27.5802231" lon="152.9376748">
<ele>16.740</ele>
<time>2017-04-06T01:09:43.336Z</time>
</trkpt>
<trkpt lat="-27.5803981" lon="152.9372069">
<ele>17.055</ele>
<time>2017-04-06T01:09:45.111Z</time>
</trkpt>
<trkpt lat="-27.5808004" lon="152.9364784">
<ele>17.705</ele>
<time>2017-04-06T01:09:48.087Z</time>
</trkpt>
<trkpt lat="-27.5810244" lon="152.9359666">
<ele>18.887</ele>
<time>2017-04-06T01:09:50.067Z</time>
</trkpt>
<trkpt lat="-27.5812962" lon="152.9354753">
<ele>20.533</ele>
<time>2017-04-06T01:09:52.085Z</time>
</trkpt>
<trkpt lat="-27.5817430" lon="152.9347688">
<ele>22.232</ele>
<time>2017-04-06T01:09:55.117Z</time>
</trkpt>
<trkpt lat="-27.5821559" lon="152.9340605">
<ele>23.668</ele>
<time>2017-04-06T01:09:58.062Z</time>
</trkpt>
<trkpt lat="-27.5824376" lon="152.9335841">
<ele>24.815</ele>
<time>2017-04-06T01:10:00.041Z</time>
</trkpt>
<trkpt lat="-27.5829014" lon="152.9329090">
<ele>25.606</ele>
<time>2017-04-06T01:10:02.981Z</time>
</trkpt>
<trkpt lat="-27.5833490" lon="152.9322011">
<ele>25.929</ele>
<time>2017-04-06T01:10:05.989Z</time>
</trkpt>
<trkpt lat="-27.5836548" lon="152.9317321">
<ele>25.760</ele>
<time>2017-04-06T01:10:08.005Z</time>
</trkpt>
<trkpt lat="-27.5839650" lon="152.9312745">
<ele>25.173</ele>
<time>2017-04-06T01:10:09.995Z</time>
</trkpt>
<trkpt lat="-27.5843071" lon="152.9308518">
<ele>24.332</ele>
<time>2017-04-06T01:10:11.972Z</time>
</trkpt>
<trkpt lat="-27.5847925" lon="152.9301846">
<ele>23.374</ele>
<time>2017-04-06T01:10:14.957Z</time>
</trkpt>
<trkpt lat="-27.5853480" lon="152.9295821">
<ele>22.209</ele>
<time>2017-04-06T01:10:17.966Z</time>
</trkpt>
<trkpt lat="-27.5858860" lon="152.9289630">
<ele>20.679</ele>
<time>2017-04-06T01:10:20.962Z</time>
</trkpt>
<trkpt lat="-27.5863020" lon="152.9286325">
<ele>18.950</ele>
<time>2017-04-06T01:10:22.945Z</time>
</trkpt>
<trkpt lat="-27.5869283" lon="152.9281306">
<ele>17.433</ele>
<time>2017-04-06T01:10:25.944Z</time>
</trkpt>
<trkpt lat="-27.5875670" lon="152.9276596">
<ele>16.294</ele>
<time>2017-04-06T01:10:28.931Z</time>
</trkpt>
<trkpt lat="-27.5880134" lon="152.9273598">
<ele>15.377</ele>
<time>2017-04-06T01:10:30.964Z</time>
</trkpt>
<trkpt lat="-27.5884592" lon="152.9270968">
<ele>14.572</ele>
<time>2017-04-06T01:10:32.932Z</time>
</trkpt>
<trkpt lat="-27.5891146" lon="152.9266445">
<ele>13.948</ele>
<time>2017-04-06T01:10:35.930Z</time>
</trkpt>
<trkpt lat="-27.5897592" lon="152.9261871">
<ele>13.587</ele>
<time>2017-04-06T01:10:38.900Z</time>
</trkpt>
<trkpt lat="-27.5904331" lon="152.9257567">
<ele>13.501</ele>
<time>2017-04-06T01:10:41.918Z</time>
</trkpt>
<trkpt lat="-27.5908505" lon="152.9254221">
<ele>13.652</ele>
<time>2017-04-06T01:10:43.909Z</time>
</trkpt>
<trkpt lat="-27.5914901" lon="152.9249567">
<ele>13.954</ele>
<time>2017-04-06T01:10:46.868Z</time>
</trkpt>
<trkpt lat="-27.5919411" lon="152.9246807">
<ele>14.289</ele>
<time>2017-04-06T01:10:48.863Z</time>
</trkpt>
<trkpt lat="-27.5926064" lon="152.9242477">
<ele>14.560</ele>
<time>2017-04-06T01:10:51.853Z</time>
</trkpt>
<trkpt lat="-27.5932596" lon="152.9237857">
<ele>14.789</ele>
<time>2017-04-06T01:10:54.857Z</time>
</trkpt>
<trkpt lat="-27.5937170" lon="152.9235321">
<ele>15.107</ele>
<time>2017-04-06T01:10:56.843Z</time>
</trkpt>
<trkpt lat="-27.5941663" lon="152.9232543">
<ele>15.612</ele>
<time>2017-04-06T01:10:58.838Z</time>
</trkpt>
<trkpt lat="-27.5948353" lon="152.9228109">
<ele>16.312</ele>
<time>2017-04-06T01:11:01.863Z</time>
</trkpt>
<trkpt lat="-27.5952953" lon="152.9225625">
<ele>17.167</ele>
<time>2017-04-06T01:11:03.854Z</time>
</trkpt>
<trkpt lat="-27.5957673" lon="152.9223427">
<ele>18.044</ele>
<time>2017-04-06T01:11:05.843Z</time>
</trkpt>
<trkpt lat="-27.5964576" lon="152.9219739">
<ele>18.747</ele>
<time>2017-04-06T01:11:08.813Z</time>
</trkpt>
<trkpt lat="-27.5969327" lon="152.9217814">
<ele>19.164</ele>
<time>2017-04-06T01:11:10.774Z</time>
</trkpt>
<trkpt lat="-27.5976509" lon="152.9214917">
<ele>19.316</ele>
<time>2017-04-06T01:11:13.739Z</time>
</trkpt>
<trkpt lat="-27.5983752" lon="152.9211772">
<ele>19.266</ele>
<time>2017-04-06T01:11:16.768Z</time>
</trkpt>
<trkpt lat="-27.5991135" lon="152.9209365">
<ele>19.063</ele>
<time>2017-04-06T01:11:19.767Z</time>
</trkpt>
<trkpt lat="-27.5996137" lon="152.9208018">
<ele>18.803</ele>
<time>2017-04-06T01:11:21.770Z</time>
</trkpt>
<trkpt lat="-27.6003377" lon="152.9205371">
<ele>18.596</ele>
<time>2017-04-06T01:11:24.737Z</time>
</trkpt>
<trkpt lat="-27.6010804" lon="152.9202726">
<ele>18.469</ele>
<time>2017-04-06T01:11:27.785Z</time>
</trkpt>
<trkpt lat="-27.6015642" lon="152.9201278">
<ele>18.521</ele>
<time>2017-04-06T01:11:29.743Z</time>
</trkpt>
<trkpt lat="-27.6020449" lon="152.9199375">
<ele>18.862</ele>
<time>2017-04-06T01:11:31.737Z</time>
</trkpt>
<trkpt lat="-27.6025042" lon="152.9196937">
<ele>19.427</ele>
<time>2017-04-06T01:11:33.725Z</time>
</trkpt>
<trkpt lat="-27.6029569" lon="152.9194310">
<ele>20.106</ele>
<time>2017-04-06T01:11:35.711Z</time>
</trkpt>
<trkpt lat="-27.6033802" lon="152.9190991">
<ele>20.863</ele>
<time>2017-04-06T01:11:37.711Z</time>
</trkpt>
<trkpt lat="-27.6038080" lon="152.9187901">
<ele>21.639</ele>
<time>2017-04-06T01:11:39.678Z</time>
</trkpt>
<trkpt lat="-27.6042299" lon="152.9184578">
<ele>22.405</ele>
<time>2017-04-06T01:11:41.673Z</time>
</trkpt>
<trkpt lat="-27.6045854" lon="152.9180292">
<ele>23.184</ele>
<time>2017-04-06T01:11:43.688Z</time>
</trkpt>
<trkpt lat="-27.6049177" lon="152.9175768">
<ele>23.963</ele>
<time>2017-04-06T01:11:45.703Z</time>
</trkpt>
<trkpt lat="-27.6054192" lon="152.9169016">
<ele>24.651</ele>
<time>2017-04-06T01:11:48.724Z</time>
</trkpt>
<trkpt lat="-27.6056923" lon="152.9164025">
<ele>25.168</ele>
<time>2017-04-06T01:11:50.734Z</time>
</trkpt>
<trkpt lat="-27.6060276" lon="152.9156232">
<ele>25.472</ele>
<time>2017-04-06T01:11:53.710Z</time>
</trkpt>
<trkpt lat="-27.6062783" lon="152.9151053">
<ele>25.510</ele>
<time>2017-04-06T01:11:55.744Z</time>
</trkpt>
<trkpt lat="-27.6064870" lon="152.9145765">
<ele>25.214</ele>
<time>2017-04-06T01:11:57.744Z</time>
</trkpt>
<trkpt lat="-27.6067168" lon="152.9140571">
<ele>24.571</ele>
<time>2017-04-06T01:11:59.750Z</time>
</trkpt>
<trkpt lat="-27.6071001" lon="152.9133146">
<ele>23.628</ele>
<time>2017-04-06T01:12:02.713Z</time>
</trkpt>
<trkpt lat="-27.6074726" lon="152.9125582">
<ele>22.402</ele>
<time>2017-04-06T01:12:05.692Z</time>
</trkpt>
<trkpt lat="-27.6077289" lon="152.9120711">
<ele>20.854</ele>
<time>2017-04-06T01:12:07.645Z</time>
</trkpt>
<trkpt lat="-27.6080693" lon="152.9112776">
<ele>19.157</ele>
<time>2017-04-06T01:12:10.693Z</time>
</trkpt>
<trkpt lat="-27.6084228" lon="152.9105228">
<ele>17.667</ele>
<time>2017-04-06T01:12:13.642Z</time>
</trkpt>
<trkpt lat="-27.6086154" lon="152.9099896">
<ele>16.641</ele>
<time>2017-04-06T01:12:15.630Z</time>
</trkpt>
<trkpt lat="-27.6088100" lon="152.9094565">
<ele>16.132</ele>
<time>2017-04-06T01:12:17.622Z</time>
</trkpt>
<trkpt lat="-27.6089484" lon="152.9086057">
<ele>16.005</ele>
<time>2017-04-06T01:12:20.616Z</time>
</trkpt>
<trkpt lat="-27.6090704" lon="152.9080526">
<ele>15.952</ele>
<time>2017-04-06T01:12:22.581Z</time>
</trkpt>
<trkpt lat="-27.6091128" lon="152.9074741">
<ele>15.750</ele>
<time>2017-04-06T01:12:24.580Z</time>
</trkpt>
<trkpt lat="-27.6091516" lon="152.9066259">
<ele>15.439</ele>
<time>2017-04-06T01:12:27.504Z</time>
</trkpt>
<trkpt lat="-27.6092242" lon="152.9057762">
<ele>15.106</ele>
<time>2017-04-06T01:12:30.449Z</time>
</trkpt>
<trkpt lat="-27.6092597" lon="152.9051890">
<ele>14.734</ele>
<time>2017-04-06T01:12:32.479Z</time>
</trkpt>
<trkpt lat="-27.6092897" lon="152.9043248">
<ele>14.374</ele>
<time>2017-04-06T01:12:35.464Z</time>
</trkpt>
<trkpt lat="-27.6093049" lon="152.9037522">
<ele>14.124</ele>
<time>2017-04-06T01:12:37.443Z</time>
</trkpt>
<trkpt lat="-27.6093664" lon="152.9028919">
<ele>14.107</ele>
<time>2017-04-06T01:12:40.433Z</time>
</trkpt>
<trkpt lat="-27.6093458" lon="152.9023104">
<ele>14.433</ele>
<time>2017-04-06T01:12:42.451Z</time>
</trkpt>
<trkpt lat="-27.6093073" lon="152.9017470">
<ele>14.995</ele>
<time>2017-04-06T01:12:44.409Z</time>
</trkpt>
<trkpt lat="-27.6092185" lon="152.9008961">
<ele>15.618</ele>
<time>2017-04-06T01:12:47.379Z</time>
</trkpt>
<trkpt lat="-27.6090860" lon="152.9003445">
<ele>16.175</ele>
<time>2017-04-06T01:12:49.355Z</time>
</trkpt>
<trkpt lat="-27.6088778" lon="152.8995139">
<ele>16.524</ele>
<time>2017-04-06T01:12:52.332Z</time>
</trkpt>
<trkpt lat="-27.6087122" lon="152.8989785">
<ele>16.726</ele>
<time>2017-04-06T01:12:54.285Z</time>
</trkpt>
<trkpt lat="-27.6083790" lon="152.8982031">
<ele>17.097</ele>
<time>2017-04-06T01:12:57.253Z</time>
</trkpt>
<trkpt lat="-27.6079825" lon="152.8974578">
<ele>17.737</ele>
<time>2017-04-06T01:13:00.258Z</time>
</trkpt>
<trkpt lat="-27.6074840" lon="152.8967929">
<ele>18.365</ele>
<time>2017-04-06T01:13:03.283Z</time>
</trkpt>
<trkpt lat="-27.6071677" lon="152.8963463">
<ele>18.626</ele>
<time>2017-04-06T01:13:05.272Z</time>
</trkpt>
<trkpt lat="-27.6066398" lon="152.8957294">
<ele>18.455</ele>
<time>2017-04-06T01:13:08.238Z</time>
</trkpt>
<trkpt lat="-27.6062939" lon="152.8953228">
<ele>18.109</ele>
<time>2017-04-06T01:13:10.177Z</time>
</trkpt>
<trkpt lat="-27.6059421" lon="152.8949129">
<ele>17.856</ele>
<time>2017-04-06T01:13:12.140Z</time>
</trkpt>
<trkpt lat="-27.6056144" lon="152.8944647">
<ele>17.755</ele>
<time>2017-04-06T01:13:14.145Z</time>
</trkpt>
<trkpt lat="-27.6053142" lon="152.8939918">
<ele>17.709</ele>
<time>2017-04-06T01:13:16.155Z</time>
</trkpt>
<trkpt lat="-27.6050341" lon="152.8935137">
<ele>17.616</ele>
<time>2017-04-06T01:13:18.130Z</time>
</trkpt>
<trkpt lat="-27.6047824" lon="152.8930261">
<ele>17.499</ele>
<time>2017-04-06T01:13:20.071Z</time>
</trkpt>
<trkpt lat="-27.6044211" lon="152.8922607">
<ele>17.461</ele>
<time>2017-04-06T01:13:23.049Z</time>
</trkpt>
<trkpt lat="-27.6040640" lon="152.8914875">
<ele>17.637</ele>
<time>2017-04-06T01:13:26.054Z</time>
</trkpt>
<trkpt lat="-27.6037465" lon="152.8907159">
<ele>18.151</ele>
<time>2017-04-06T01:13:28.993Z</time>
</trkpt>
<trkpt lat="-27.6034320" lon="152.8899219">
<ele>18.917</ele>
<time>2017-04-06T01:13:32.000Z</time>
</trkpt>
<trkpt lat="-27.6032140" lon="152.8894011">
<ele>19.693</ele>
<time>2017-04-06T01:13:33.993Z</time>
</trkpt>
<trkpt lat="-27.6029906" lon="152.8888864">
<ele>20.445</ele>
<time>2017-04-06T01:13:35.978Z</time>
</trkpt>
<trkpt lat="-27.6026512" lon="152.8881103">
<ele>21.301</ele>
<time>2017-04-06T01:13:38.974Z</time>
</trkpt>
<trkpt lat="-27.6024872" lon="152.8875757">
<ele>22.316</ele>
<time>2017-04-06T01:13:40.930Z</time>
</trkpt>
<trkpt lat="-27.6022332" lon="152.8867581">
<ele>23.411</ele>
<time>2017-04-06T01:13:43.906Z</time>
</trkpt>
<trkpt lat="-27.6019666" lon="152.8859503">
<ele>24.402</ele>
<time>2017-04-06T01:13:46.854Z</time>
</trkpt>
<trkpt lat="-27.6017101" lon="152.8851265">
<ele>25.096</ele>
<time>2017-04-06T01:13:49.834Z</time>
</trkpt>
<trkpt lat="-27.6015987" lon="152.8845598">
<ele>25.421</ele>
<time>2017-04-06T01:13:51.816Z</time>
</trkpt>
<trkpt lat="-27.6014681" lon="152.8839945">
<ele>25.374</ele>
<time>2017-04-06T01:13:53.813Z</time>
</trkpt>
<trkpt lat="-27.6013679" lon="152.8834319">
<ele>24.905</ele>
<time>2017-04-06T01:13:55.779Z</time>
</trkpt>
<trkpt lat="-27.6012171" lon="152.8825775">
<ele>23.891</ele>
<time>2017-04-06T01:13:58.761Z</time>
</trkpt>
<trkpt lat="-27.6011808" lon="152.8820002">
<ele>22.370</ele>
<time>2017-04-06T01:14:00.744Z</time>
</trkpt>
<trkpt lat="-27.6011109" lon="152.8814261">
<ele>20.685</ele>
<time>2017-04-06T01:14:02.738Z</time>
</trkpt>
<trkpt lat="-27.6010718" lon="152.8805544">
<ele>19.089</ele>
<time>2017-04-06T01:14:05.765Z</time>
</trkpt>
<trkpt lat="-27.6010839" lon="152.8796931">
<ele>17.397</ele>
<time>2017-04-06T01:14:08.745Z</time>
</trkpt>
<trkpt lat="-27.6011335" lon="152.8791247">
<ele>15.619</ele>
<time>2017-04-06T01:14:10.715Z</time>
</trkpt>
<trkpt lat="-27.6011622" lon="152.8785538">
<ele>14.257</ele>
<time>2017-04-06T01:14:12.681Z</time>
</trkpt>
<trkpt lat="-27.6012119" lon="152.8776952">
<ele>13.545</ele>
<time>2017-04-06T01:14:15.654Z</time>
</trkpt>
<trkpt lat="-27.6013203" lon="152.8768322">
<ele>13.056</ele>
<time>2017-04-06T01:14:18.684Z</time>
</trkpt>
<trkpt lat="-27.6014112" lon="152.8759952">
<ele>12.442</ele>
<time>2017-04-06T01:14:21.611Z</time>
</trkpt>
<trkpt lat="-27.6015996" lon="152.8751689">
<ele>11.936</ele>
<time>2017-04-06T01:14:24.562Z</time>
</trkpt>
<trkpt lat="-27.6017123" lon="152.8746086">
<ele>11.799</ele>
<time>2017-04-06T01:14:26.548Z</time>
</trkpt>
<trkpt lat="-27.6018442" lon="152.8740559">
<ele>11.836</ele>
<time>2017-04-06T01:14:28.523Z</time>
</trkpt>
<trkpt lat="-27.6020769" lon="152.8732351">
<ele>11.827</ele>
<time>2017-04-06T01:14:31.488Z</time>
</trkpt>
<trkpt lat="-27.6023089" lon="152.8727190">
<ele>11.781</ele>
<time>2017-04-06T01:14:33.477Z</time>
</trkpt>
<trkpt lat="-27.6026206" lon="152.8719258">
<ele>11.797</ele>
<time>2017-04-06T01:14:36.469Z</time>
</trkpt>
<trkpt lat="-27.6028372" lon="152.8714059">
<ele>11.963</ele>
<time>2017-04-06T01:14:38.451Z</time>
</trkpt>
<trkpt lat="-27.6030922" lon="152.8705964">
<ele>12.324</ele>
<time>2017-04-06T01:14:41.409Z</time>
</trkpt>
<trkpt lat="-27.6034004" lon="152.8697997">
<ele>12.874</ele>
<time>2017-04-06T01:14:44.411Z</time>
</trkpt>
<trkpt lat="-27.6036125" lon="152.8692719">
<ele>13.666</ele>
<time>2017-04-06T01:14:46.416Z</time>
</trkpt>
<trkpt lat="-27.6038017" lon="152.8687344">
<ele>14.690</ele>
<time>2017-04-06T01:14:48.420Z</time>
</trkpt>
<trkpt lat="-27.6040586" lon="152.8679283">
<ele>15.820</ele>
<time>2017-04-06T01:14:51.383Z</time>
</trkpt>
<trkpt lat="-27.6042064" lon="152.8673779">
<ele>17.088</ele>
<time>2017-04-06T01:14:53.377Z</time>
</trkpt>
<trkpt lat="-27.6043087" lon="152.8668161">
<ele>18.552</ele>
<time>2017-04-06T01:14:55.382Z</time>
</trkpt>
<trkpt lat="-27.6044495" lon="152.8659711">
<ele>20.105</ele>
<time>2017-04-06T01:14:58.381Z</time>
</trkpt>
<trkpt lat="-27.6044991" lon="152.8651387">
<ele>21.785</ele>
<time>2017-04-06T01:15:01.259Z</time>
</trkpt>
<trkpt lat="-27.6044783" lon="152.8645589">
<ele>23.628</ele>
<time>2017-04-06T01:15:03.259Z</time>
</trkpt>
<trkpt lat="-27.6044129" lon="152.8639777">
<ele>25.363</ele>
<time>2017-04-06T01:15:05.284Z</time>
</trkpt>
<trkpt lat="-27.6042396" lon="152.8631508">
<ele>26.622</ele>
<time>2017-04-06T01:15:08.220Z</time>
</trkpt>
<trkpt lat="-27.6039529" lon="152.8623485">
<ele>27.236</ele>
<time>2017-04-06T01:15:11.199Z</time>
</trkpt>
<trkpt lat="-27.6037262" lon="152.8618320">
<ele>27.384</ele>
<time>2017-04-06T01:15:13.182Z</time>
</trkpt>
<trkpt lat="-27.6034436" lon="152.8613395">
<ele>27.404</ele>
<time>2017-04-06T01:15:15.200Z</time>
</trkpt>
<trkpt lat="-27.6029967" lon="152.8606318">
<ele>27.326</ele>
<time>2017-04-06T01:15:18.189Z</time>
</trkpt>
<trkpt lat="-27.6026789" lon="152.8601812">
<ele>26.783</ele>
<time>2017-04-06T01:15:20.171Z</time>
</trkpt>
<trkpt lat="-27.6021057" lon="152.8596016">
<ele>25.525</ele>
<time>2017-04-06T01:15:23.168Z</time>
</trkpt>
<trkpt lat="-27.6015821" lon="152.8589910">
<ele>23.704</ele>
<time>2017-04-06T01:15:26.109Z</time>
</trkpt>
<trkpt lat="-27.6012302" lon="152.8585952">
<ele>21.663</ele>
<time>2017-04-06T01:15:28.042Z</time>
</trkpt>
<trkpt lat="-27.6008581" lon="152.8581936">
<ele>19.876</ele>
<time>2017-04-06T01:15:30.042Z</time>
</trkpt>
<trkpt lat="-27.6004880" lon="152.8577854">
<ele>18.628</ele>
<time>2017-04-06T01:15:32.051Z</time>
</trkpt>
<trkpt lat="-27.5999370" lon="152.8571976">
<ele>17.747</ele>
<time>2017-04-06T01:15:35.008Z</time>
</trkpt>
<trkpt lat="-27.5995745" lon="152.8567997">
<ele>17.126</ele>
<time>2017-04-06T01:15:36.983Z</time>
</trkpt>
<trkpt lat="-27.5991864" lon="152.8564165">
<ele>16.900</ele>
<time>2017-04-06T01:15:39.007Z</time>
</trkpt>
<trkpt lat="-27.5986874" lon="152.8557639">
<ele>17.121</ele>
<time>2017-04-06T01:15:42.005Z</time>
</trkpt>
<trkpt lat="-27.5983924" lon="152.8553137">
<ele>17.779</ele>
<time>2017-04-06T01:15:43.947Z</time>
</trkpt>
<trkpt lat="-27.5981298" lon="152.8548268">
<ele>18.852</ele>
<time>2017-04-06T01:15:45.919Z</time>
</trkpt>
<trkpt lat="-27.5979105" lon="152.8543294">
<ele>20.280</ele>
<time>2017-04-06T01:15:47.836Z</time>
</trkpt>
<trkpt lat="-27.5976213" lon="152.8535193">
<ele>21.886</ele>
<time>2017-04-06T01:15:50.846Z</time>
</trkpt>
<trkpt lat="-27.5975057" lon="152.8529603">
<ele>23.577</ele>
<time>2017-04-06T01:15:52.825Z</time>
</trkpt>
<trkpt lat="-27.5974011" lon="152.8523986">
<ele>25.436</ele>
<time>2017-04-06T01:15:54.810Z</time>
</trkpt>
<trkpt lat="-27.5973160" lon="152.8515416">
<ele>27.514</ele>
<time>2017-04-06T01:15:57.798Z</time>
</trkpt>
<trkpt lat="-27.5973450" lon="152.8506792">
<ele>29.889</ele>
<time>2017-04-06T01:16:00.793Z</time>
</trkpt>
<trkpt lat="-27.5973060" lon="152.8501093">
<ele>32.502</ele>
<time>2017-04-06T01:16:02.775Z</time>
</trkpt>
<trkpt lat="-27.5972549" lon="152.8492546">
<ele>34.754</ele>
<time>2017-04-06T01:16:05.745Z</time>
</trkpt>
<trkpt lat="-27.5972125" lon="152.8486817">
<ele>36.158</ele>
<time>2017-04-06T01:16:07.738Z</time>
</trkpt>
<trkpt lat="-27.5971549" lon="152.8481104">
<ele>36.979</ele>
<time>2017-04-06T01:16:09.732Z</time>
</trkpt>
<trkpt lat="-27.5970391" lon="152.8475498">
<ele>37.590</ele>
<time>2017-04-06T01:16:11.730Z</time>
</trkpt>
<trkpt lat="-27.5969552" lon="152.8467004">
<ele>37.995</ele>
<time>2017-04-06T01:16:14.702Z</time>
</trkpt>
<trkpt lat="-27.5968395" lon="152.8461424">
<ele>38.258</ele>
<time>2017-04-06T01:16:16.693Z</time>
</trkpt>
<trkpt lat="-27.5967029" lon="152.8452972">
<ele>38.551</ele>
<time>2017-04-06T01:16:19.665Z</time>
</trkpt>
<trkpt lat="-27.5966306" lon="152.8447304">
<ele>38.829</ele>
<time>2017-04-06T01:16:21.640Z</time>
</trkpt>
<trkpt lat="-27.5964740" lon="152.8438818">
<ele>39.009</ele>
<time>2017-04-06T01:16:24.629Z</time>
</trkpt>
<trkpt lat="-27.5963792" lon="152.8433131">
<ele>39.117</ele>
<time>2017-04-06T01:16:26.623Z</time>
</trkpt>
<trkpt lat="-27.5961713" lon="152.8424829">
<ele>39.091</ele>
<time>2017-04-06T01:16:29.589Z</time>
</trkpt>
<trkpt lat="-27.5960653" lon="152.8419127">
<ele>38.875</ele>
<time>2017-04-06T01:16:31.603Z</time>
</trkpt>
<trkpt lat="-27.5958388" lon="152.8410764">
<ele>38.451</ele>
<time>2017-04-06T01:16:34.639Z</time>
</trkpt>
<trkpt lat="-27.5956892" lon="152.8402418">
<ele>37.641</ele>
<time>2017-04-06T01:16:37.591Z</time>
</trkpt>
<trkpt lat="-27.5956952" lon="152.8393714">
<ele>36.228</ele>
<time>2017-04-06T01:16:40.590Z</time>
</trkpt>
<trkpt lat="-27.5956203" lon="152.8387830">
<ele>34.385</ele>
<time>2017-04-06T01:16:42.639Z</time>
</trkpt>
<trkpt lat="-27.5958914" lon="152.8379089">
<ele>32.630</ele>
<time>2017-04-06T01:16:45.841Z</time>
</trkpt>
<trkpt lat="-27.5961188" lon="152.8370827">
<ele>31.340</ele>
<time>2017-04-06T01:16:48.851Z</time>
</trkpt>
<trkpt lat="-27.5964095" lon="152.8366014">
<ele>30.570</ele>
<time>2017-04-06T01:16:50.874Z</time>
</trkpt>
<trkpt lat="-27.5968173" lon="152.8358647">
<ele>30.350</ele>
<time>2017-04-06T01:16:53.882Z</time>
</trkpt>
<trkpt lat="-27.5972336" lon="152.8354928">
<ele>30.900</ele>
<time>2017-04-06T01:16:55.959Z</time>
</trkpt>
<trkpt lat="-27.5975941" lon="152.8350780">
<ele>32.320</ele>
<time>2017-04-06T01:16:57.976Z</time>
</trkpt>
<trkpt lat="-27.5980091" lon="152.8347368">
<ele>34.305</ele>
<time>2017-04-06T01:16:59.981Z</time>
</trkpt>
<trkpt lat="-27.5986470" lon="152.8342528">
<ele>36.380</ele>
<time>2017-04-06T01:17:02.966Z</time>
</trkpt>
<trkpt lat="-27.5993371" lon="152.8338360">
<ele>38.404</ele>
<time>2017-04-06T01:17:05.998Z</time>
</trkpt>
<trkpt lat="-27.5999852" lon="152.8333507">
<ele>40.447</ele>
<time>2017-04-06T01:17:09.013Z</time>
</trkpt>
<trkpt lat="-27.6006638" lon="152.8329054">
<ele>42.418</ele>
<time>2017-04-06T01:17:12.054Z</time>
</trkpt>
<trkpt lat="-27.6011472" lon="152.8326752">
<ele>44.081</ele>
<time>2017-04-06T01:17:14.085Z</time>
</trkpt>
<trkpt lat="-27.6015842" lon="152.8323711">
<ele>45.209</ele>
<time>2017-04-06T01:17:16.074Z</time>
</trkpt>
<trkpt lat="-27.6022949" lon="152.8320167">
<ele>45.700</ele>
<time>2017-04-06T01:17:19.092Z</time>
</trkpt>
<trkpt lat="-27.6027385" lon="152.8317106">
<ele>45.597</ele>
<time>2017-04-06T01:17:21.117Z</time>
</trkpt>
<trkpt lat="-27.6034446" lon="152.8313741">
<ele>44.991</ele>
<time>2017-04-06T01:17:24.107Z</time>
</trkpt>
<trkpt lat="-27.6041581" lon="152.8310484">
<ele>43.927</ele>
<time>2017-04-06T01:17:27.118Z</time>
</trkpt>
<trkpt lat="-27.6048950" lon="152.8308322">
<ele>42.551</ele>
<time>2017-04-06T01:17:30.096Z</time>
</trkpt>
<trkpt lat="-27.6056207" lon="152.8305683">
<ele>41.311</ele>
<time>2017-04-06T01:17:33.069Z</time>
</trkpt>
<trkpt lat="-27.6061051" lon="152.8303835">
<ele>40.761</ele>
<time>2017-04-06T01:17:35.057Z</time>
</trkpt>
<trkpt lat="-27.6068154" lon="152.8300540">
<ele>41.124</ele>
<time>2017-04-06T01:17:38.044Z</time>
</trkpt>
<trkpt lat="-27.6073109" lon="152.8298932">
<ele>42.284</ele>
<time>2017-04-06T01:17:40.057Z</time>
</trkpt>
<trkpt lat="-27.6078091" lon="152.8297730">
<ele>43.916</ele>
<time>2017-04-06T01:17:42.048Z</time>
</trkpt>
<trkpt lat="-27.6082777" lon="152.8295444">
<ele>45.688</ele>
<time>2017-04-06T01:17:44.040Z</time>
</trkpt>
<trkpt lat="-27.6089948" lon="152.8292320">
<ele>47.415</ele>
<time>2017-04-06T01:17:47.034Z</time>
</trkpt>
<trkpt lat="-27.6097083" lon="152.8289071">
<ele>49.172</ele>
<time>2017-04-06T01:17:50.028Z</time>
</trkpt>
<trkpt lat="-27.6104118" lon="152.8285678">
<ele>51.233</ele>
<time>2017-04-06T01:17:53.013Z</time>
</trkpt>
<trkpt lat="-27.6108751" lon="152.8283389">
<ele>53.695</ele>
<time>2017-04-06T01:17:54.990Z</time>
</trkpt>
<trkpt lat="-27.6115338" lon="152.8278969">
<ele>56.265</ele>
<time>2017-04-06T01:17:57.989Z</time>
</trkpt>
<trkpt lat="-27.6119788" lon="152.8276223">
<ele>58.791</ele>
<time>2017-04-06T01:17:59.974Z</time>
</trkpt>
<trkpt lat="-27.6126145" lon="152.8271471">
<ele>61.377</ele>
<time>2017-04-06T01:18:02.944Z</time>
</trkpt>
<trkpt lat="-27.6130500" lon="152.8268493">
<ele>64.122</ele>
<time>2017-04-06T01:18:04.907Z</time>
</trkpt>
<trkpt lat="-27.6136746" lon="152.8263391">
<ele>66.919</ele>
<time>2017-04-06T01:18:07.883Z</time>
</trkpt>
<trkpt lat="-27.6141003" lon="152.8259975">
<ele>69.468</ele>
<time>2017-04-06T01:18:09.910Z</time>
</trkpt>
<trkpt lat="-27.6145412" lon="152.8257080">
<ele>71.495</ele>
<time>2017-04-06T01:18:11.896Z</time>
</trkpt>
<trkpt lat="-27.6151426" lon="152.8251741">
<ele>72.934</ele>
<time>2017-04-06T01:18:14.878Z</time>
</trkpt>
<trkpt lat="-27.6155700" lon="152.8248572">
<ele>73.753</ele>
<time>2017-04-06T01:18:16.873Z</time>
</trkpt>
<trkpt lat="-27.6161959" lon="152.8243591">
<ele>74.010</ele>
<time>2017-04-06T01:18:19.859Z</time>
</trkpt>
<trkpt lat="-27.6168370" lon="152.8238891">
<ele>73.729</ele>
<time>2017-04-06T01:18:22.839Z</time>
</trkpt>
<trkpt lat="-27.6175043" lon="152.8234553">
<ele>72.786</ele>
<time>2017-04-06T01:18:25.849Z</time>
</trkpt>
<trkpt lat="-27.6179260" lon="152.8231248">
<ele>71.085</ele>
<time>2017-04-06T01:18:27.855Z</time>
</trkpt>
<trkpt lat="-27.6186065" lon="152.8227414">
<ele>68.839</ele>
<time>2017-04-06T01:18:30.820Z</time>
</trkpt>
<trkpt lat="-27.6190538" lon="152.8224369">
<ele>66.416</ele>
<time>2017-04-06T01:18:32.857Z</time>
</trkpt>
<trkpt lat="-27.6195408" lon="152.8222390">
<ele>64.245</ele>
<time>2017-04-06T01:18:34.878Z</time>
</trkpt>
<trkpt lat="-27.6202377" lon="152.8218898">
<ele>62.680</ele>
<time>2017-04-06T01:18:37.854Z</time>
</trkpt>
<trkpt lat="-27.6207159" lon="152.8216834">
<ele>61.681</ele>
<time>2017-04-06T01:18:39.848Z</time>
</trkpt>
<trkpt lat="-27.6214270" lon="152.8213783">
<ele>61.010</ele>
<time>2017-04-06T01:18:42.812Z</time>
</trkpt>
<trkpt lat="-27.6219033" lon="152.8211548">
<ele>60.488</ele>
<time>2017-04-06T01:18:44.824Z</time>
</trkpt>
<trkpt lat="-27.6226117" lon="152.8208250">
<ele>60.022</ele>
<time>2017-04-06T01:18:47.812Z</time>
</trkpt>
<trkpt lat="-27.6230750" lon="152.8205867">
<ele>59.676</ele>
<time>2017-04-06T01:18:49.794Z</time>
</trkpt>
<trkpt lat="-27.6235199" lon="152.8203034">
<ele>59.434</ele>
<time>2017-04-06T01:18:51.778Z</time>
</trkpt>
<trkpt lat="-27.6242202" lon="152.8199386">
<ele>59.080</ele>
<time>2017-04-06T01:18:54.771Z</time>
</trkpt>
<trkpt lat="-27.6246889" lon="152.8196974">
<ele>58.286</ele>
<time>2017-04-06T01:18:56.774Z</time>
</trkpt>
<trkpt lat="-27.6251560" lon="152.8194575">
<ele>56.900</ele>
<time>2017-04-06T01:18:58.777Z</time>
</trkpt>
<trkpt lat="-27.6258157" lon="152.8190204">
<ele>55.123</ele>
<time>2017-04-06T01:19:01.760Z</time>
</trkpt>
<trkpt lat="-27.6262774" lon="152.8187646">
<ele>52.937</ele>
<time>2017-04-06T01:19:03.764Z</time>
</trkpt>
<trkpt lat="-27.6267432" lon="152.8185126">
<ele>50.248</ele>
<time>2017-04-06T01:19:05.779Z</time>
</trkpt>
<trkpt lat="-27.6274143" lon="152.8180760">
<ele>47.529</ele>
<time>2017-04-06T01:19:08.811Z</time>
</trkpt>
<trkpt lat="-27.6280619" lon="152.8176198">
<ele>45.451</ele>
<time>2017-04-06T01:19:11.811Z</time>
</trkpt>
<trkpt lat="-27.6286925" lon="152.8171363">
<ele>44.315</ele>
<time>2017-04-06T01:19:14.806Z</time>
</trkpt>
<trkpt lat="-27.6291036" lon="152.8167954">
<ele>44.100</ele>
<time>2017-04-06T01:19:16.803Z</time>
</trkpt>
<trkpt lat="-27.6295124" lon="152.8164560">
<ele>44.569</ele>
<time>2017-04-06T01:19:18.782Z</time>
</trkpt>
<trkpt lat="-27.6298871" lon="152.8160602">
<ele>45.453</ele>
<time>2017-04-06T01:19:20.777Z</time>
</trkpt>
<trkpt lat="-27.6304678" lon="152.8154918">
<ele>46.600</ele>
<time>2017-04-06T01:19:23.770Z</time>
</trkpt>
<trkpt lat="-27.6310360" lon="152.8149106">
<ele>47.987</ele>
<time>2017-04-06T01:19:26.763Z</time>
</trkpt>
<trkpt lat="-27.6314431" lon="152.8145616">
<ele>49.541</ele>
<time>2017-04-06T01:19:28.758Z</time>
</trkpt>
<trkpt lat="-27.6317905" lon="152.8141418">
<ele>51.130</ele>
<time>2017-04-06T01:19:30.746Z</time>
</trkpt>
<trkpt lat="-27.6321440" lon="152.8137231">
<ele>52.542</ele>
<time>2017-04-06T01:19:32.748Z</time>
</trkpt>
<trkpt lat="-27.6326318" lon="152.8130528">
<ele>53.499</ele>
<time>2017-04-06T01:19:35.737Z</time>
</trkpt>
<trkpt lat="-27.6329697" lon="152.8126230">
<ele>53.881</ele>
<time>2017-04-06T01:19:37.717Z</time>
</trkpt>
<trkpt lat="-27.6334412" lon="152.8119280">
<ele>53.758</ele>
<time>2017-04-06T01:19:40.748Z</time>
</trkpt>
<trkpt lat="-27.6337227" lon="152.8114451">
<ele>53.192</ele>
<time>2017-04-06T01:19:42.748Z</time>
</trkpt>
<trkpt lat="-27.6340460" lon="152.8110028">
<ele>52.302</ele>
<time>2017-04-06T01:19:44.728Z</time>
</trkpt>
<trkpt lat="-27.6344528" lon="152.8102655">
<ele>51.318</ele>
<time>2017-04-06T01:19:47.727Z</time>
</trkpt>
<trkpt lat="-27.6348873" lon="152.8095502">
<ele>50.256</ele>
<time>2017-04-06T01:19:50.725Z</time>
</trkpt>
<trkpt lat="-27.6351380" lon="152.8090448">
<ele>48.938</ele>
<time>2017-04-06T01:19:52.728Z</time>
</trkpt>
<trkpt lat="-27.6353566" lon="152.8085241">
<ele>47.402</ele>
<time>2017-04-06T01:19:54.723Z</time>
</trkpt>
<trkpt lat="-27.6355824" lon="152.8080145">
<ele>45.850</ele>
<time>2017-04-06T01:19:56.695Z</time>
</trkpt>
<trkpt lat="-27.6359232" lon="152.8072442">
<ele>44.431</ele>
<time>2017-04-06T01:19:59.664Z</time>
</trkpt>
<trkpt lat="-27.6360627" lon="152.8066886">
<ele>43.240</ele>
<time>2017-04-06T01:20:01.652Z</time>
</trkpt>
<trkpt lat="-27.6362793" lon="152.8061642">
<ele>42.268</ele>
<time>2017-04-06T01:20:03.651Z</time>
</trkpt>
<trkpt lat="-27.6365229" lon="152.8053461">
<ele>41.379</ele>
<time>2017-04-06T01:20:06.635Z</time>
</trkpt>
<trkpt lat="-27.6367232" lon="152.8045198">
<ele>40.216</ele>
<time>2017-04-06T01:20:09.593Z</time>
</trkpt>
<trkpt lat="-27.6369535" lon="152.8036980">
<ele>38.502</ele>
<time>2017-04-06T01:20:12.575Z</time>
</trkpt>
<trkpt lat="-27.6371829" lon="152.8031764">
<ele>36.499</ele>
<time>2017-04-06T01:20:14.604Z</time>
</trkpt>
<trkpt lat="-27.6373137" lon="152.8026198">
<ele>34.739</ele>
<time>2017-04-06T01:20:16.612Z</time>
</trkpt>
<trkpt lat="-27.6375600" lon="152.8018160">
<ele>33.581</ele>
<time>2017-04-06T01:20:19.570Z</time>
</trkpt>
<trkpt lat="-27.6377334" lon="152.8009832">
<ele>33.159</ele>
<time>2017-04-06T01:20:22.537Z</time>
</trkpt>
<trkpt lat="-27.6378973" lon="152.8004393">
<ele>33.435</ele>
<time>2017-04-06T01:20:24.530Z</time>
</trkpt>
<trkpt lat="-27.6381243" lon="152.7999231">
<ele>34.155</ele>
<time>2017-04-06T01:20:26.522Z</time>
</trkpt>
<trkpt lat="-27.6383645" lon="152.7991070">
<ele>34.901</ele>
<time>2017-04-06T01:20:29.490Z</time>
</trkpt>
<trkpt lat="-27.6385738" lon="152.7985804">
<ele>35.454</ele>
<time>2017-04-06T01:20:31.481Z</time>
</trkpt>
<trkpt lat="-27.6389651" lon="152.7978385">
<ele>35.883</ele>
<time>2017-04-06T01:20:34.460Z</time>
</trkpt>
<trkpt lat="-27.6392336" lon="152.7973430">
<ele>36.213</ele>
<time>2017-04-06T01:20:36.470Z</time>
</trkpt>
<trkpt lat="-27.6396829" lon="152.7966372">
<ele>36.371</ele>
<time>2017-04-06T01:20:39.476Z</time>
</trkpt>
<trkpt lat="-27.6400311" lon="152.7962159">
<ele>36.183</ele>
<time>2017-04-06T01:20:41.463Z</time>
</trkpt>
<trkpt lat="-27.6405620" lon="152.7955817">
<ele>35.492</ele>
<time>2017-04-06T01:20:44.474Z</time>
</trkpt>
<trkpt lat="-27.6411274" lon="152.7949880">
<ele>34.273</ele>
<time>2017-04-06T01:20:47.487Z</time>
</trkpt>
<trkpt lat="-27.6416314" lon="152.7943628">
<ele>32.672</ele>
<time>2017-04-06T01:20:50.407Z</time>
</trkpt>
<trkpt lat="-27.6421924" lon="152.7937588">
<ele>31.053</ele>
<time>2017-04-06T01:20:53.429Z</time>
</trkpt>
<trkpt lat="-27.6427294" lon="152.7931407">
<ele>29.753</ele>
<time>2017-04-06T01:20:56.418Z</time>
</trkpt>
<trkpt lat="-27.6432929" lon="152.7925545">
<ele>28.856</ele>
<time>2017-04-06T01:20:59.401Z</time>
</trkpt>
<trkpt lat="-27.6438329" lon="152.7919362">
<ele>28.372</ele>
<time>2017-04-06T01:21:02.398Z</time>
</trkpt>
<trkpt lat="-27.6443526" lon="152.7913010">
<ele>28.278</ele>
<time>2017-04-06T01:21:05.394Z</time>
</trkpt>
<trkpt lat="-27.6447136" lon="152.7908942">
<ele>28.416</ele>
<time>2017-04-06T01:21:07.392Z</time>
</trkpt>
<trkpt lat="-27.6450762" lon="152.7904896">
<ele>28.573</ele>
<time>2017-04-06T01:21:09.392Z</time>
</trkpt>
<trkpt lat="-27.6456176" lon="152.7898828">
<ele>28.633</ele>
<time>2017-04-06T01:21:12.390Z</time>
</trkpt>
<trkpt lat="-27.6460080" lon="152.7895181">
<ele>28.742</ele>
<time>2017-04-06T01:21:14.374Z</time>
</trkpt>
<trkpt lat="-27.6465514" lon="152.7889254">
<ele>29.164</ele>
<time>2017-04-06T01:21:17.324Z</time>
</trkpt>
<trkpt lat="-27.6471265" lon="152.7883293">
<ele>30.127</ele>
<time>2017-04-06T01:21:20.366Z</time>
</trkpt>
<trkpt lat="-27.6476346" lon="152.7876993">
<ele>31.721</ele>
<time>2017-04-06T01:21:23.308Z</time>
</trkpt>
<trkpt lat="-27.6479997" lon="152.7872829">
<ele>33.759</ele>
<time>2017-04-06T01:21:25.333Z</time>
</trkpt>
<trkpt lat="-27.6483601" lon="152.7868751">
<ele>35.809</ele>
<time>2017-04-06T01:21:27.322Z</time>
</trkpt>
<trkpt lat="-27.6488654" lon="152.7862137">
<ele>37.541</ele>
<time>2017-04-06T01:21:30.332Z</time>
</trkpt>
<trkpt lat="-27.6492409" lon="152.7858141">
<ele>38.992</ele>
<time>2017-04-06T01:21:32.338Z</time>
</trkpt>
<trkpt lat="-27.6495845" lon="152.7853941">
<ele>40.324</ele>
<time>2017-04-06T01:21:34.304Z</time>
</trkpt>
<trkpt lat="-27.6501050" lon="152.7847593">
<ele>41.528</ele>
<time>2017-04-06T01:21:37.281Z</time>
</trkpt>
<trkpt lat="-27.6504412" lon="152.7843198">
<ele>42.669</ele>
<time>2017-04-06T01:21:39.285Z</time>
</trkpt>
<trkpt lat="-27.6509091" lon="152.7836407">
<ele>43.797</ele>
<time>2017-04-06T01:21:42.260Z</time>
</trkpt>
<trkpt lat="-27.6512336" lon="152.7831968">
<ele>44.835</ele>
<time>2017-04-06T01:21:44.252Z</time>
</trkpt>
<trkpt lat="-27.6517000" lon="152.7824979">
<ele>45.784</ele>
<time>2017-04-06T01:21:47.281Z</time>
</trkpt>
<trkpt lat="-27.6520096" lon="152.7820457">
<ele>46.759</ele>
<time>2017-04-06T01:21:49.251Z</time>
</trkpt>
<trkpt lat="-27.6524695" lon="152.7813651">
<ele>47.766</ele>
<time>2017-04-06T01:21:52.138Z</time>
</trkpt>
<trkpt lat="-27.6528965" lon="152.7806193">
<ele>48.731</ele>
<time>2017-04-06T01:21:54.932Z</time>
</trkpt>
<trkpt lat="-27.6532020" lon="152.7800841">
<ele>49.757</ele>
<time>2017-04-06T01:21:56.900Z</time>
</trkpt>
<trkpt lat="-27.6535875" lon="152.7795680">
<ele>51.053</ele>
<time>2017-04-06T01:21:59.145Z</time>
</trkpt>
<trkpt lat="-27.6539041" lon="152.7790582">
<ele>52.654</ele>
<time>2017-04-06T01:22:01.402Z</time>
</trkpt>
<trkpt lat="-27.6543006" lon="152.7783672">
<ele>54.237</ele>
<time>2017-04-06T01:22:04.748Z</time>
</trkpt>
<trkpt lat="-27.6546148" lon="152.7777349">
<ele>55.148</ele>
<time>2017-04-06T01:22:07.935Z</time>
</trkpt>
<trkpt lat="-27.6549284" lon="152.7771848">
<ele>54.785</ele>
<time>2017-04-06T01:22:10.838Z</time>
</trkpt>
<trkpt lat="-27.6552436" lon="152.7766196">
<ele>53.233</ele>
<time>2017-04-06T01:22:13.802Z</time>
</trkpt>
<trkpt lat="-27.6555304" lon="152.7760283">
<ele>51.325</ele>
<time>2017-04-06T01:22:16.782Z</time>
</trkpt>
<trkpt lat="-27.6557715" lon="152.7754103">
<ele>49.945</ele>
<time>2017-04-06T01:22:19.702Z</time>
</trkpt>
<trkpt lat="-27.6561736" lon="152.7748929">
<ele>49.411</ele>
<time>2017-04-06T01:22:22.583Z</time>
</trkpt>
<trkpt lat="-27.6563675" lon="152.7744607">
<ele>49.607</ele>
<time>2017-04-06T01:22:24.608Z</time>
</trkpt>
<trkpt lat="-27.6567823" lon="152.7739186">
<ele>50.251</ele>
<time>2017-04-06T01:22:27.611Z</time>
</trkpt>
<trkpt lat="-27.6571132" lon="152.7733148">
<ele>51.173</ele>
<time>2017-04-06T01:22:30.582Z</time>
</trkpt>
<trkpt lat="-27.6574812" lon="152.7727432">
<ele>52.383</ele>
<time>2017-04-06T01:22:33.507Z</time>
</trkpt>
<trkpt lat="-27.6577415" lon="152.7723601">
<ele>53.903</ele>
<time>2017-04-06T01:22:35.467Z</time>
</trkpt>
<trkpt lat="-27.6581007" lon="152.7717629">
<ele>55.532</ele>
<time>2017-04-06T01:22:38.269Z</time>
</trkpt>
<trkpt lat="-27.6583595" lon="152.7713452">
<ele>57.104</ele>
<time>2017-04-06T01:22:40.181Z</time>
</trkpt>
<trkpt lat="-27.6587557" lon="152.7706717">
<ele>58.706</ele>
<time>2017-04-06T01:22:43.123Z</time>
</trkpt>
<trkpt lat="-27.6589824" lon="152.7701825">
<ele>60.423</ele>
<time>2017-04-06T01:22:45.108Z</time>
</trkpt>
<trkpt lat="-27.6593614" lon="152.7694564">
<ele>62.043</ele>
<time>2017-04-06T01:22:48.126Z</time>
</trkpt>
<trkpt lat="-27.6595597" lon="152.7689506">
<ele>63.242</ele>
<time>2017-04-06T01:22:50.110Z</time>
</trkpt>
<trkpt lat="-27.6599153" lon="152.7682147">
<ele>63.884</ele>
<time>2017-04-06T01:22:53.119Z</time>
</trkpt>
<trkpt lat="-27.6602007" lon="152.7674416">
<ele>64.100</ele>
<time>2017-04-06T01:22:56.114Z</time>
</trkpt>
<trkpt lat="-27.6604551" lon="152.7669655">
<ele>64.050</ele>
<time>2017-04-06T01:22:58.096Z</time>
</trkpt>
<trkpt lat="-27.6606684" lon="152.7664606">
<ele>63.751</ele>
<time>2017-04-06T01:23:00.085Z</time>
</trkpt>
<trkpt lat="-27.6608264" lon="152.7659189">
<ele>63.110</ele>
<time>2017-04-06T01:23:02.110Z</time>
</trkpt>
<trkpt lat="-27.6610580" lon="152.7654185">
<ele>62.080</ele>
<time>2017-04-06T01:23:04.116Z</time>
</trkpt>
<trkpt lat="-27.6613285" lon="152.7646329">
<ele>60.555</ele>
<time>2017-04-06T01:23:07.113Z</time>
</trkpt>
<trkpt lat="-27.6615148" lon="152.7638213">
<ele>58.446</ele>
<time>2017-04-06T01:23:10.095Z</time>
</trkpt>
<trkpt lat="-27.6617270" lon="152.7633096">
<ele>55.762</ele>
<time>2017-04-06T01:23:12.105Z</time>
</trkpt>
<trkpt lat="-27.6619716" lon="152.7625173">
<ele>52.660</ele>
<time>2017-04-06T01:23:15.089Z</time>
</trkpt>
<trkpt lat="-27.6621219" lon="152.7619712">
<ele>49.424</ele>
<time>2017-04-06T01:23:17.127Z</time>
</trkpt>
<trkpt lat="-27.6622620" lon="152.7614479">
<ele>46.424</ele>
<time>2017-04-06T01:23:19.081Z</time>
</trkpt>
<trkpt lat="-27.6624035" lon="152.7609130">
<ele>43.823</ele>
<time>2017-04-06T01:23:21.078Z</time>
</trkpt>
<trkpt lat="-27.6626253" lon="152.7601189">
<ele>41.509</ele>
<time>2017-04-06T01:23:24.057Z</time>
</trkpt>
<trkpt lat="-27.6627778" lon="152.7595878">
<ele>39.273</ele>
<time>2017-04-06T01:23:26.054Z</time>
</trkpt>
<trkpt lat="-27.6629970" lon="152.7587936">
<ele>37.148</ele>
<time>2017-04-06T01:23:29.026Z</time>
</trkpt>
<trkpt lat="-27.6631799" lon="152.7579855">
<ele>35.283</ele>
<time>2017-04-06T01:23:32.005Z</time>
</trkpt>
<trkpt lat="-27.6633091" lon="152.7574475">
<ele>33.803</ele>
<time>2017-04-06T01:23:34.001Z</time>
</trkpt>
<trkpt lat="-27.6635743" lon="152.7566707">
<ele>32.819</ele>
<time>2017-04-06T01:23:36.990Z</time>
</trkpt>
<trkpt lat="-27.6637997" lon="152.7558787">
<ele>32.429</ele>
<time>2017-04-06T01:23:39.983Z</time>
</trkpt>
<trkpt lat="-27.6640354" lon="152.7550987">
<ele>32.626</ele>
<time>2017-04-06T01:23:42.951Z</time>
</trkpt>
<trkpt lat="-27.6642697" lon="152.7543182">
<ele>33.564</ele>
<time>2017-04-06T01:23:45.928Z</time>
</trkpt>
<trkpt lat="-27.6644995" lon="152.7535355">
<ele>35.513</ele>
<time>2017-04-06T01:23:48.947Z</time>
</trkpt>
<trkpt lat="-27.6646659" lon="152.7530328">
<ele>38.337</ele>
<time>2017-04-06T01:23:50.918Z</time>
</trkpt>
<trkpt lat="-27.6648442" lon="152.7522554">
<ele>41.406</ele>
<time>2017-04-06T01:23:53.864Z</time>
</trkpt>
<trkpt lat="-27.6649714" lon="152.7514516">
<ele>44.318</ele>
<time>2017-04-06T01:23:56.843Z</time>
</trkpt>
<trkpt lat="-27.6650337" lon="152.7509146">
<ele>47.285</ele>
<time>2017-04-06T01:23:58.809Z</time>
</trkpt>
<trkpt lat="-27.6650317" lon="152.7503603">
<ele>50.380</ele>
<time>2017-04-06T01:24:00.819Z</time>
</trkpt>
<trkpt lat="-27.6650701" lon="152.7495270">
<ele>53.172</ele>
<time>2017-04-06T01:24:03.833Z</time>
</trkpt>
<trkpt lat="-27.6650953" lon="152.7489788">
<ele>55.505</ele>
<time>2017-04-06T01:24:05.809Z</time>
</trkpt>
<trkpt lat="-27.6650834" lon="152.7481429">
<ele>57.509</ele>
<time>2017-04-06T01:24:08.820Z</time>
</trkpt>
<trkpt lat="-27.6650783" lon="152.7475908">
<ele>59.165</ele>
<time>2017-04-06T01:24:10.823Z</time>
</trkpt>
<trkpt lat="-27.6650322" lon="152.7467707">
<ele>60.472</ele>
<time>2017-04-06T01:24:13.844Z</time>
</trkpt>
<trkpt lat="-27.6649795" lon="152.7462352">
<ele>61.438</ele>
<time>2017-04-06T01:24:15.840Z</time>
</trkpt>
<trkpt lat="-27.6649343" lon="152.7457022">
<ele>62.010</ele>
<time>2017-04-06T01:24:17.824Z</time>
</trkpt>
<trkpt lat="-27.6648639" lon="152.7451748">
<ele>62.255</ele>
<time>2017-04-06T01:24:19.801Z</time>
</trkpt>
<trkpt lat="-27.6647592" lon="152.7443814">
<ele>62.249</ele>
<time>2017-04-06T01:24:22.767Z</time>
</trkpt>
<trkpt lat="-27.6647045" lon="152.7438490">
<ele>62.008</ele>
<time>2017-04-06T01:24:24.742Z</time>
</trkpt>
<trkpt lat="-27.6646006" lon="152.7430453">
<ele>61.513</ele>
<time>2017-04-06T01:24:27.736Z</time>
</trkpt>
<trkpt lat="-27.6644930" lon="152.7425195">
<ele>60.597</ele>
<time>2017-04-06T01:24:29.729Z</time>
</trkpt>
<trkpt lat="-27.6642689" lon="152.7417528">
<ele>59.244</ele>
<time>2017-04-06T01:24:32.703Z</time>
</trkpt>
<trkpt lat="-27.6642013" lon="152.7409427">
<ele>57.734</ele>
<time>2017-04-06T01:24:35.672Z</time>
</trkpt>
<trkpt lat="-27.6640573" lon="152.7401404">
<ele>56.260</ele>
<time>2017-04-06T01:24:38.633Z</time>
</trkpt>
<trkpt lat="-27.6638795" lon="152.7393364">
<ele>54.855</ele>
<time>2017-04-06T01:24:41.621Z</time>
</trkpt>
<trkpt lat="-27.6638286" lon="152.7387861">
<ele>53.485</ele>
<time>2017-04-06T01:24:43.621Z</time>
</trkpt>
<trkpt lat="-27.6637377" lon="152.7382430">
<ele>52.145</ele>
<time>2017-04-06T01:24:45.619Z</time>
</trkpt>
<trkpt lat="-27.6636182" lon="152.7377058">
<ele>50.986</ele>
<time>2017-04-06T01:24:47.605Z</time>
</trkpt>
<trkpt lat="-27.6635144" lon="152.7371595">
<ele>50.055</ele>
<time>2017-04-06T01:24:49.586Z</time>
</trkpt>
<trkpt lat="-27.6634439" lon="152.7363254">
<ele>49.210</ele>
<time>2017-04-06T01:24:52.486Z</time>
</trkpt>
<trkpt lat="-27.6633304" lon="152.7354490">
<ele>48.322</ele>
<time>2017-04-06T01:24:55.492Z</time>
</trkpt>
<trkpt lat="-27.6632191" lon="152.7345749">
<ele>47.440</ele>
<time>2017-04-06T01:24:58.451Z</time>
</trkpt>
<trkpt lat="-27.6631016" lon="152.7340101">
<ele>46.806</ele>
<time>2017-04-06T01:25:00.357Z</time>
</trkpt>
<trkpt lat="-27.6629507" lon="152.7331023">
<ele>46.610</ele>
<time>2017-04-06T01:25:03.186Z</time>
</trkpt>
<trkpt lat="-27.6628253" lon="152.7324488">
<ele>46.972</ele>
<time>2017-04-06T01:25:05.144Z</time>
</trkpt>
<trkpt lat="-27.6627019" lon="152.7317683">
<ele>47.926</ele>
<time>2017-04-06T01:25:07.259Z</time>
</trkpt>
<trkpt lat="-27.6626243" lon="152.7311139">
<ele>49.099</ele>
<time>2017-04-06T01:25:09.364Z</time>
</trkpt>
<trkpt lat="-27.6624780" lon="152.7302538">
<ele>49.769</ele>
<time>2017-04-06T01:25:12.354Z</time>
</trkpt>
<trkpt lat="-27.6623484" lon="152.7294011">
<ele>49.520</ele>
<time>2017-04-06T01:25:15.321Z</time>
</trkpt>
<trkpt lat="-27.6622249" lon="152.7288360">
<ele>48.703</ele>
<time>2017-04-06T01:25:17.317Z</time>
</trkpt>
<trkpt lat="-27.6620786" lon="152.7279879">
<ele>48.036</ele>
<time>2017-04-06T01:25:20.281Z</time>
</trkpt>
<trkpt lat="-27.6620238" lon="152.7274132">
<ele>47.840</ele>
<time>2017-04-06T01:25:22.262Z</time>
</trkpt>
<trkpt lat="-27.6619202" lon="152.7265500">
<ele>47.895</ele>
<time>2017-04-06T01:25:25.244Z</time>
</trkpt>
<trkpt lat="-27.6618188" lon="152.7259831">
<ele>47.665</ele>
<time>2017-04-06T01:25:27.227Z</time>
</trkpt>
<trkpt lat="-27.6616786" lon="152.7254233">
<ele>46.724</ele>
<time>2017-04-06T01:25:29.228Z</time>
</trkpt>
<trkpt lat="-27.6615959" lon="152.7248550">
<ele>45.123</ele>
<time>2017-04-06T01:25:31.214Z</time>
</trkpt>
<trkpt lat="-27.6614482" lon="152.7240077">
<ele>43.169</ele>
<time>2017-04-06T01:25:34.211Z</time>
</trkpt>
<trkpt lat="-27.6613484" lon="152.7234511">
<ele>40.946</ele>
<time>2017-04-06T01:25:36.189Z</time>
</trkpt>
<trkpt lat="-27.6612253" lon="152.7226114">
<ele>38.506</ele>
<time>2017-04-06T01:25:39.163Z</time>
</trkpt>
<trkpt lat="-27.6609769" lon="152.7218086">
<ele>35.935</ele>
<time>2017-04-06T01:25:42.277Z</time>
</trkpt>
<trkpt lat="-27.6608023" lon="152.7210337">
<ele>33.240</ele>
<time>2017-04-06T01:25:45.471Z</time>
</trkpt>
<trkpt lat="-27.6607303" lon="152.7203301">
<ele>30.496</ele>
<time>2017-04-06T01:25:48.555Z</time>
</trkpt>
<trkpt lat="-27.6606307" lon="152.7198865">
<ele>28.094</ele>
<time>2017-04-06T01:25:50.734Z</time>
</trkpt>
<trkpt lat="-27.6606453" lon="152.7194592">
<ele>26.348</ele>
<time>2017-04-06T01:25:52.892Z</time>
</trkpt>
<trkpt lat="-27.6605160" lon="152.7189023">
<ele>25.134</ele>
<time>2017-04-06T01:25:56.055Z</time>
</trkpt>
<trkpt lat="-27.6604553" lon="152.7183928">
<ele>24.040</ele>
<time>2017-04-06T01:25:59.044Z</time>
</trkpt>
<trkpt lat="-27.6603914" lon="152.7178992">
<ele>22.853</ele>
<time>2017-04-06T01:26:02.000Z</time>
</trkpt>
<trkpt lat="-27.6603687" lon="152.7175706">
<ele>21.682</ele>
<time>2017-04-06T01:26:03.943Z</time>
</trkpt>
<trkpt lat="-27.6602756" lon="152.7170753">
<ele>20.761</ele>
<time>2017-04-06T01:26:06.906Z</time>
</trkpt>
<trkpt lat="-27.6602197" lon="152.7165705">
<ele>20.227</ele>
<time>2017-04-06T01:26:09.871Z</time>
</trkpt>
<trkpt lat="-27.6601285" lon="152.7160740">
<ele>20.002</ele>
<time>2017-04-06T01:26:12.823Z</time>
</trkpt>
<trkpt lat="-27.6600678" lon="152.7157438">
<ele>19.894</ele>
<time>2017-04-06T01:26:14.780Z</time>
</trkpt>
<trkpt lat="-27.6600089" lon="152.7154094">
<ele>19.820</ele>
<time>2017-04-06T01:26:16.754Z</time>
</trkpt>
<trkpt lat="-27.6600051" lon="152.7148981">
<ele>19.801</ele>
<time>2017-04-06T01:26:19.701Z</time>
</trkpt>
<trkpt lat="-27.6598997" lon="152.7143897">
<ele>19.857</ele>
<time>2017-04-06T01:26:22.719Z</time>
</trkpt>
<trkpt lat="-27.6598249" lon="152.7140600">
<ele>19.984</ele>
<time>2017-04-06T01:26:24.695Z</time>
</trkpt>
<trkpt lat="-27.6597512" lon="152.7135642">
<ele>20.137</ele>
<time>2017-04-06T01:26:27.615Z</time>
</trkpt>
<trkpt lat="-27.6596975" lon="152.7132262">
<ele>20.239</ele>
<time>2017-04-06T01:26:29.605Z</time>
</trkpt>
<trkpt lat="-27.6597025" lon="152.7128813">
<ele>20.255</ele>
<time>2017-04-06T01:26:31.605Z</time>
</trkpt>
<trkpt lat="-27.6595946" lon="152.7123838">
<ele>20.208</ele>
<time>2017-04-06T01:26:34.575Z</time>
</trkpt>
<trkpt lat="-27.6595035" lon="152.7118842">
<ele>20.123</ele>
<time>2017-04-06T01:26:37.530Z</time>
</trkpt>
<trkpt lat="-27.6594214" lon="152.7115559">
<ele>20.006</ele>
<time>2017-04-06T01:26:39.503Z</time>
</trkpt>
<trkpt lat="-27.6594548" lon="152.7112011">
<ele>19.890</ele>
<time>2017-04-06T01:26:41.569Z</time>
</trkpt>
<trkpt lat="-27.6594239" lon="152.7108601">
<ele>19.833</ele>
<time>2017-04-06T01:26:43.556Z</time>
</trkpt>
<trkpt lat="-27.6593366" lon="152.7103628">
<ele>19.854</ele>
<time>2017-04-06T01:26:46.505Z</time>
</trkpt>
<trkpt lat="-27.6592470" lon="152.7100318">
<ele>19.933</ele>
<time>2017-04-06T01:26:48.520Z</time>
</trkpt>
<trkpt lat="-27.6591484" lon="152.7095287">
<ele>20.051</ele>
<time>2017-04-06T01:26:51.510Z</time>
</trkpt>
<trkpt lat="-27.6591421" lon="152.7090122">
<ele>20.170</ele>
<time>2017-04-06T01:26:54.480Z</time>
</trkpt>
<trkpt lat="-27.6590499" lon="152.7086782">
<ele>20.229</ele>
<time>2017-04-06T01:26:56.465Z</time>
</trkpt>
<trkpt lat="-27.6590146" lon="152.7081558">
<ele>20.218</ele>
<time>2017-04-06T01:26:59.196Z</time>
</trkpt>
<trkpt lat="-27.6589783" lon="152.7077717">
<ele>20.202</ele>
<time>2017-04-06T01:27:00.937Z</time>
</trkpt>
<trkpt lat="-27.6589274" lon="152.7073123">
<ele>20.410</ele>
<time>2017-04-06T01:27:02.903Z</time>
</trkpt>
<trkpt lat="-27.6587947" lon="152.7065951">
<ele>21.114</ele>
<time>2017-04-06T01:27:06.002Z</time>
</trkpt>
<trkpt lat="-27.6587204" lon="152.7061427">
<ele>22.325</ele>
<time>2017-04-06T01:27:08.009Z</time>
</trkpt>
<trkpt lat="-27.6586554" lon="152.7056990">
<ele>23.629</ele>
<time>2017-04-06T01:27:09.984Z</time>
</trkpt>
<trkpt lat="-27.6585079" lon="152.7050419">
<ele>24.507</ele>
<time>2017-04-06T01:27:12.967Z</time>
</trkpt>
<trkpt lat="-27.6584063" lon="152.7043738">
<ele>24.815</ele>
<time>2017-04-06T01:27:15.970Z</time>
</trkpt>
<trkpt lat="-27.6583339" lon="152.7039362">
<ele>24.774</ele>
<time>2017-04-06T01:27:17.960Z</time>
</trkpt>
<trkpt lat="-27.6582975" lon="152.7034974">
<ele>24.615</ele>
<time>2017-04-06T01:27:19.937Z</time>
</trkpt>
<trkpt lat="-27.6581945" lon="152.7028465">
<ele>24.489</ele>
<time>2017-04-06T01:27:22.902Z</time>
</trkpt>
<trkpt lat="-27.6580208" lon="152.7022066">
<ele>24.595</ele>
<time>2017-04-06T01:27:25.902Z</time>
</trkpt>
<trkpt lat="-27.6579702" lon="152.7017683">
<ele>24.993</ele>
<time>2017-04-06T01:27:27.884Z</time>
</trkpt>
<trkpt lat="-27.6578962" lon="152.7011091">
<ele>25.399</ele>
<time>2017-04-06T01:27:30.855Z</time>
</trkpt>
<trkpt lat="-27.6577737" lon="152.7006839">
<ele>25.469</ele>
<time>2017-04-06T01:27:32.849Z</time>
</trkpt>
<trkpt lat="-27.6576966" lon="152.7000214">
<ele>25.162</ele>
<time>2017-04-06T01:27:35.811Z</time>
</trkpt>
<trkpt lat="-27.6575977" lon="152.6995721">
<ele>24.680</ele>
<time>2017-04-06T01:27:37.866Z</time>
</trkpt>
<trkpt lat="-27.6576047" lon="152.6991246">
<ele>24.248</ele>
<time>2017-04-06T01:27:39.858Z</time>
</trkpt>
<trkpt lat="-27.6576017" lon="152.6984634">
<ele>23.961</ele>
<time>2017-04-06T01:27:42.813Z</time>
</trkpt>
<trkpt lat="-27.6576403" lon="152.6980129">
<ele>23.816</ele>
<time>2017-04-06T01:27:44.837Z</time>
</trkpt>
<trkpt lat="-27.6576332" lon="152.6975686">
<ele>23.762</ele>
<time>2017-04-06T01:27:46.824Z</time>
</trkpt>
<trkpt lat="-27.6576381" lon="152.6969001">
<ele>23.769</ele>
<time>2017-04-06T01:27:49.826Z</time>
</trkpt>
<trkpt lat="-27.6576080" lon="152.6964518">
<ele>23.849</ele>
<time>2017-04-06T01:27:51.869Z</time>
</trkpt>
<trkpt lat="-27.6577699" lon="152.6958201">
<ele>23.983</ele>
<time>2017-04-06T01:27:54.881Z</time>
</trkpt>
<trkpt lat="-27.6579679" lon="152.6954440">
<ele>24.100</ele>
<time>2017-04-06T01:27:56.877Z</time>
</trkpt>
<trkpt lat="-27.6581908" lon="152.6950908">
<ele>24.155</ele>
<time>2017-04-06T01:27:58.854Z</time>
</trkpt>
<trkpt lat="-27.6586026" lon="152.6946380">
<ele>24.171</ele>
<time>2017-04-06T01:28:01.796Z</time>
</trkpt>
<trkpt lat="-27.6590976" lon="152.6942613">
<ele>24.233</ele>
<time>2017-04-06T01:28:04.871Z</time>
</trkpt>
<trkpt lat="-27.6594617" lon="152.6941086">
<ele>24.561</ele>
<time>2017-04-06T01:28:06.894Z</time>
</trkpt>
<trkpt lat="-27.6600210" lon="152.6939713">
<ele>25.401</ele>
<time>2017-04-06T01:28:09.906Z</time>
</trkpt>
<trkpt lat="-27.6603970" lon="152.6939143">
<ele>26.998</ele>
<time>2017-04-06T01:28:11.897Z</time>
</trkpt>
<trkpt lat="-27.6607727" lon="152.6938648">
<ele>29.315</ele>
<time>2017-04-06T01:28:13.873Z</time>
</trkpt>
<trkpt lat="-27.6613386" lon="152.6937200">
<ele>31.852</ele>
<time>2017-04-06T01:28:16.854Z</time>
</trkpt>
<trkpt lat="-27.6619174" lon="152.6936362">
<ele>34.241</ele>
<time>2017-04-06T01:28:19.808Z</time>
</trkpt>
<trkpt lat="-27.6625002" lon="152.6934587">
<ele>36.522</ele>
<time>2017-04-06T01:28:22.816Z</time>
</trkpt>
<trkpt lat="-27.6628879" lon="152.6933286">
<ele>38.628</ele>
<time>2017-04-06T01:28:24.814Z</time>
</trkpt>
<trkpt lat="-27.6632900" lon="152.6931161">
<ele>40.335</ele>
<time>2017-04-06T01:28:27.007Z</time>
</trkpt>
<trkpt lat="-27.6636451" lon="152.6929051">
<ele>41.476</ele>
<time>2017-04-06T01:28:28.993Z</time>
</trkpt>
<trkpt lat="-27.6640265" lon="152.6927709">
<ele>42.047</ele>
<time>2017-04-06T01:28:30.985Z</time>
</trkpt>
<trkpt lat="-27.6644281" lon="152.6926865">
<ele>42.125</ele>
<time>2017-04-06T01:28:33.039Z</time>
</trkpt>
<trkpt lat="-27.6649694" lon="152.6924484">
<ele>41.728</ele>
<time>2017-04-06T01:28:36.020Z</time>
</trkpt>
<trkpt lat="-27.6653235" lon="152.6922582">
<ele>40.769</ele>
<time>2017-04-06T01:28:38.036Z</time>
</trkpt>
<trkpt lat="-27.6658792" lon="152.6920744">
<ele>39.350</ele>
<time>2017-04-06T01:28:40.996Z</time>
</trkpt>
<trkpt lat="-27.6662422" lon="152.6919103">
<ele>37.857</ele>
<time>2017-04-06T01:28:42.987Z</time>
</trkpt>
<trkpt lat="-27.6666314" lon="152.6918308">
<ele>36.629</ele>
<time>2017-04-06T01:28:44.998Z</time>
</trkpt>
<trkpt lat="-27.6671661" lon="152.6915488">
<ele>35.694</ele>
<time>2017-04-06T01:28:48.007Z</time>
</trkpt>
<trkpt lat="-27.6676997" lon="152.6912851">
<ele>34.721</ele>
<time>2017-04-06T01:28:50.992Z</time>
</trkpt>
<trkpt lat="-27.6682713" lon="152.6911252">
<ele>33.363</ele>
<time>2017-04-06T01:28:54.025Z</time>
</trkpt>
<trkpt lat="-27.6686245" lon="152.6909327">
<ele>31.779</ele>
<time>2017-04-06T01:28:56.047Z</time>
</trkpt>
<trkpt lat="-27.6691793" lon="152.6907326">
<ele>30.458</ele>
<time>2017-04-06T01:28:59.047Z</time>
</trkpt>
<trkpt lat="-27.6695394" lon="152.6905842">
<ele>29.704</ele>
<time>2017-04-06T01:29:01.003Z</time>
</trkpt>
<trkpt lat="-27.6699046" lon="152.6904309">
<ele>29.554</ele>
<time>2017-04-06T01:29:02.982Z</time>
</trkpt>
<trkpt lat="-27.6704625" lon="152.6902076">
<ele>29.852</ele>
<time>2017-04-06T01:29:05.996Z</time>
</trkpt>
<trkpt lat="-27.6708476" lon="152.6901200">
<ele>30.390</ele>
<time>2017-04-06T01:29:08.000Z</time>
</trkpt>
<trkpt lat="-27.6713952" lon="152.6898705">
<ele>30.987</ele>
<time>2017-04-06T01:29:10.998Z</time>
</trkpt>
<trkpt lat="-27.6717965" lon="152.6898453">
<ele>31.492</ele>
<time>2017-04-06T01:29:13.035Z</time>
</trkpt>
<trkpt lat="-27.6723656" lon="152.6896377">
<ele>31.800</ele>
<time>2017-04-06T01:29:15.899Z</time>
</trkpt>
<trkpt lat="-27.6729934" lon="152.6894292">
<ele>31.955</ele>
<time>2017-04-06T01:29:18.664Z</time>
</trkpt>
<trkpt lat="-27.6734733" lon="152.6892663">
<ele>32.104</ele>
<time>2017-04-06T01:29:20.657Z</time>
</trkpt>
<trkpt lat="-27.6742331" lon="152.6891013">
<ele>32.463</ele>
<time>2017-04-06T01:29:23.696Z</time>
</trkpt>
<trkpt lat="-27.6747226" lon="152.6889395">
<ele>33.106</ele>
<time>2017-04-06T01:29:25.719Z</time>
</trkpt>
<trkpt lat="-27.6751802" lon="152.6887075">
<ele>33.784</ele>
<time>2017-04-06T01:29:27.716Z</time>
</trkpt>
<trkpt lat="-27.6759194" lon="152.6885385">
<ele>34.230</ele>
<time>2017-04-06T01:29:30.718Z</time>
</trkpt>
<trkpt lat="-27.6764058" lon="152.6884041">
<ele>34.560</ele>
<time>2017-04-06T01:29:32.707Z</time>
</trkpt>
<trkpt lat="-27.6768819" lon="152.6882345">
<ele>34.957</ele>
<time>2017-04-06T01:29:34.686Z</time>
</trkpt>
<trkpt lat="-27.6773344" lon="152.6879881">
<ele>35.346</ele>
<time>2017-04-06T01:29:36.679Z</time>
</trkpt>
<trkpt lat="-27.6779947" lon="152.6875737">
<ele>35.579</ele>
<time>2017-04-06T01:29:39.677Z</time>
</trkpt>
<trkpt lat="-27.6786070" lon="152.6870917">
<ele>35.605</ele>
<time>2017-04-06T01:29:42.633Z</time>
</trkpt>
<trkpt lat="-27.6789956" lon="152.6867353">
<ele>35.379</ele>
<time>2017-04-06T01:29:44.611Z</time>
</trkpt>
<trkpt lat="-27.6795715" lon="152.6861826">
<ele>34.942</ele>
<time>2017-04-06T01:29:47.599Z</time>
</trkpt>
<trkpt lat="-27.6799312" lon="152.6857874">
<ele>34.454</ele>
<time>2017-04-06T01:29:49.588Z</time>
</trkpt>
<trkpt lat="-27.6803877" lon="152.6851160">
<ele>34.076</ele>
<time>2017-04-06T01:29:52.565Z</time>
</trkpt>
<trkpt lat="-27.6807775" lon="152.6843894">
<ele>33.908</ele>
<time>2017-04-06T01:29:55.553Z</time>
</trkpt>
<trkpt lat="-27.6810398" lon="152.6839027">
<ele>33.936</ele>
<time>2017-04-06T01:29:57.557Z</time>
</trkpt>
<trkpt lat="-27.6812850" lon="152.6834126">
<ele>34.009</ele>
<time>2017-04-06T01:29:59.541Z</time>
</trkpt>
<trkpt lat="-27.6815588" lon="152.6826290">
<ele>34.015</ele>
<time>2017-04-06T01:30:02.515Z</time>
</trkpt>
<trkpt lat="-27.6817665" lon="152.6821196">
<ele>33.985</ele>
<time>2017-04-06T01:30:04.502Z</time>
</trkpt>
<trkpt lat="-27.6820261" lon="152.6816452">
<ele>34.096</ele>
<time>2017-04-06T01:30:06.486Z</time>
</trkpt>
<trkpt lat="-27.6823666" lon="152.6809073">
<ele>34.568</ele>
<time>2017-04-06T01:30:09.451Z</time>
</trkpt>
<trkpt lat="-27.6827700" lon="152.6802061">
<ele>35.624</ele>
<time>2017-04-06T01:30:12.412Z</time>
</trkpt>
<trkpt lat="-27.6830606" lon="152.6797438">
<ele>37.412</ele>
<time>2017-04-06T01:30:14.404Z</time>
</trkpt>
<trkpt lat="-27.6834213" lon="152.6793410">
<ele>39.699</ele>
<time>2017-04-06T01:30:16.414Z</time>
</trkpt>
<trkpt lat="-27.6837505" lon="152.6789122">
<ele>41.888</ele>
<time>2017-04-06T01:30:18.405Z</time>
</trkpt>
<trkpt lat="-27.6842205" lon="152.6782408">
<ele>43.558</ele>
<time>2017-04-06T01:30:21.409Z</time>
</trkpt>
<trkpt lat="-27.6847214" lon="152.6776108">
<ele>44.748</ele>
<time>2017-04-06T01:30:24.390Z</time>
</trkpt>
<trkpt lat="-27.6851691" lon="152.6769225">
<ele>45.753</ele>
<time>2017-04-06T01:30:27.399Z</time>
</trkpt>
<trkpt lat="-27.6856964" lon="152.6763166">
<ele>46.795</ele>
<time>2017-04-06T01:30:30.390Z</time>
</trkpt>
<trkpt lat="-27.6861927" lon="152.6756698">
<ele>47.838</ele>
<time>2017-04-06T01:30:33.394Z</time>
</trkpt>
<trkpt lat="-27.6868311" lon="152.6752065">
<ele>48.745</ele>
<time>2017-04-06T01:30:36.395Z</time>
</trkpt>
<trkpt lat="-27.6874079" lon="152.6746544">
<ele>49.428</ele>
<time>2017-04-06T01:30:39.384Z</time>
</trkpt>
<trkpt lat="-27.6878027" lon="152.6743051">
<ele>49.835</ele>
<time>2017-04-06T01:30:41.372Z</time>
</trkpt>
<trkpt lat="-27.6883715" lon="152.6737395">
<ele>49.951</ele>
<time>2017-04-06T01:30:44.378Z</time>
</trkpt>
<trkpt lat="-27.6889317" lon="152.6731755">
<ele>49.826</ele>
<time>2017-04-06T01:30:47.355Z</time>
</trkpt>
<trkpt lat="-27.6895849" lon="152.6727453">
<ele>49.410</ele>
<time>2017-04-06T01:30:50.357Z</time>
</trkpt>
<trkpt lat="-27.6900517" lon="152.6725279">
<ele>48.704</ele>
<time>2017-04-06T01:30:52.361Z</time>
</trkpt>
<trkpt lat="-27.6905333" lon="152.6723674">
<ele>47.927</ele>
<time>2017-04-06T01:30:54.337Z</time>
</trkpt>
<trkpt lat="-27.6913050" lon="152.6722937">
<ele>47.242</ele>
<time>2017-04-06T01:30:57.350Z</time>
</trkpt>
<trkpt lat="-27.6918207" lon="152.6722769">
<ele>46.677</ele>
<time>2017-04-06T01:30:59.343Z</time>
</trkpt>
<trkpt lat="-27.6923376" lon="152.6722503">
<ele>46.313</ele>
<time>2017-04-06T01:31:01.339Z</time>
</trkpt>
<trkpt lat="-27.6928565" lon="152.6721919">
<ele>46.219</ele>
<time>2017-04-06T01:31:03.342Z</time>
</trkpt>
<trkpt lat="-27.6936475" lon="152.6722039">
<ele>46.349</ele>
<time>2017-04-06T01:31:06.390Z</time>
</trkpt>
<trkpt lat="-27.6941538" lon="152.6721411">
<ele>46.543</ele>
<time>2017-04-06T01:31:08.358Z</time>
</trkpt>
<trkpt lat="-27.6949343" lon="152.6720847">
<ele>46.653</ele>
<time>2017-04-06T01:31:11.366Z</time>
</trkpt>
<trkpt lat="-27.6954426" lon="152.6720504">
<ele>46.670</ele>
<time>2017-04-06T01:31:13.297Z</time>
</trkpt>
<trkpt lat="-27.6962510" lon="152.6719661">
<ele>46.695</ele>
<time>2017-04-06T01:31:16.267Z</time>
</trkpt>
<trkpt lat="-27.6968245" lon="152.6719226">
<ele>47.087</ele>
<time>2017-04-06T01:31:18.239Z</time>
</trkpt>
<trkpt lat="-27.6974192" lon="152.6718781">
<ele>48.307</ele>
<time>2017-04-06T01:31:20.183Z</time>
</trkpt>
<trkpt lat="-27.6984195" lon="152.6718577">
<ele>50.409</ele>
<time>2017-04-06T01:31:23.359Z</time>
</trkpt>
<trkpt lat="-27.6990656" lon="152.6718102">
<ele>53.111</ele>
<time>2017-04-06T01:31:25.444Z</time>
</trkpt>
<trkpt lat="-27.6999179" lon="152.6717589">
<ele>55.735</ele>
<time>2017-04-06T01:31:28.476Z</time>
</trkpt>
<trkpt lat="-27.7004145" lon="152.6717644">
<ele>57.320</ele>
<time>2017-04-06T01:31:30.415Z</time>
</trkpt>
<trkpt lat="-27.7009067" lon="152.6716911">
<ele>57.510</ele>
<time>2017-04-06T01:31:32.367Z</time>
</trkpt>
<trkpt lat="-27.7016769" lon="152.6716638">
<ele>56.831</ele>
<time>2017-04-06T01:31:35.363Z</time>
</trkpt>
<trkpt lat="-27.7024443" lon="152.6715102">
<ele>55.941</ele>
<time>2017-04-06T01:31:38.386Z</time>
</trkpt>
<trkpt lat="-27.7031707" lon="152.6712604">
<ele>55.076</ele>
<time>2017-04-06T01:31:41.347Z</time>
</trkpt>
<trkpt lat="-27.7038633" lon="152.6708889">
<ele>53.901</ele>
<time>2017-04-06T01:31:44.347Z</time>
</trkpt>
<trkpt lat="-27.7045505" lon="152.6705305">
<ele>51.996</ele>
<time>2017-04-06T01:31:47.313Z</time>
</trkpt>
<trkpt lat="-27.7051615" lon="152.6700262">
<ele>49.524</ele>
<time>2017-04-06T01:31:50.279Z</time>
</trkpt>
<trkpt lat="-27.7055618" lon="152.6696694">
<ele>47.165</ele>
<time>2017-04-06T01:31:52.278Z</time>
</trkpt>
<trkpt lat="-27.7059676" lon="152.6693321">
<ele>45.500</ele>
<time>2017-04-06T01:31:54.261Z</time>
</trkpt>
<trkpt lat="-27.7064059" lon="152.6690425">
<ele>44.712</ele>
<time>2017-04-06T01:31:56.269Z</time>
</trkpt>
<trkpt lat="-27.7070315" lon="152.6685725">
<ele>44.552</ele>
<time>2017-04-06T01:31:59.230Z</time>
</trkpt>
<trkpt lat="-27.7076351" lon="152.6680518">
<ele>44.614</ele>
<time>2017-04-06T01:32:02.199Z</time>
</trkpt>
<trkpt lat="-27.7082512" lon="152.6675412">
<ele>44.764</ele>
<time>2017-04-06T01:32:05.174Z</time>
</trkpt>
<trkpt lat="-27.7086883" lon="152.6672463">
<ele>45.005</ele>
<time>2017-04-06T01:32:07.159Z</time>
</trkpt>
<trkpt lat="-27.7093472" lon="152.6668009">
<ele>45.156</ele>
<time>2017-04-06T01:32:10.151Z</time>
</trkpt>
<trkpt lat="-27.7097700" lon="152.6664735">
<ele>45.008</ele>
<time>2017-04-06T01:32:12.142Z</time>
</trkpt>
<trkpt lat="-27.7101803" lon="152.6661194">
<ele>44.655</ele>
<time>2017-04-06T01:32:14.145Z</time>
</trkpt>
<trkpt lat="-27.7108218" lon="152.6656454">
<ele>44.391</ele>
<time>2017-04-06T01:32:17.113Z</time>
</trkpt>
<trkpt lat="-27.7112565" lon="152.6653335">
<ele>44.508</ele>
<time>2017-04-06T01:32:19.094Z</time>
</trkpt>
<trkpt lat="-27.7119154" lon="152.6648751">
<ele>45.093</ele>
<time>2017-04-06T01:32:22.070Z</time>
</trkpt>
<trkpt lat="-27.7123639" lon="152.6645786">
<ele>45.908</ele>
<time>2017-04-06T01:32:24.083Z</time>
</trkpt>
<trkpt lat="-27.7131338" lon="152.6644437">
<ele>46.576</ele>
<time>2017-04-06T01:32:27.101Z</time>
</trkpt>
<trkpt lat="-27.7139086" lon="152.6644345">
<ele>46.824</ele>
<time>2017-04-06T01:32:30.098Z</time>
</trkpt>
<trkpt lat="-27.7144271" lon="152.6645223">
<ele>46.657</ele>
<time>2017-04-06T01:32:32.120Z</time>
</trkpt>
<trkpt lat="-27.7149530" lon="152.6645766">
<ele>46.382</ele>
<time>2017-04-06T01:32:34.152Z</time>
</trkpt>
<trkpt lat="-27.7157321" lon="152.6646771">
<ele>46.269</ele>
<time>2017-04-06T01:32:37.164Z</time>
</trkpt>
<trkpt lat="-27.7165136" lon="152.6647402">
<ele>46.363</ele>
<time>2017-04-06T01:32:40.171Z</time>
</trkpt>
<trkpt lat="-27.7172885" lon="152.6648698">
<ele>46.572</ele>
<time>2017-04-06T01:32:43.180Z</time>
</trkpt>
<trkpt lat="-27.7180632" lon="152.6649225">
<ele>46.578</ele>
<time>2017-04-06T01:32:46.162Z</time>
</trkpt>
<trkpt lat="-27.7185790" lon="152.6649923">
<ele>46.061</ele>
<time>2017-04-06T01:32:48.157Z</time>
</trkpt>
<trkpt lat="-27.7190923" lon="152.6650389">
<ele>45.169</ele>
<time>2017-04-06T01:32:50.137Z</time>
</trkpt>
<trkpt lat="-27.7198742" lon="152.6651100">
<ele>44.395</ele>
<time>2017-04-06T01:32:53.158Z</time>
</trkpt>
<trkpt lat="-27.7206543" lon="152.6651467">
<ele>44.095</ele>
<time>2017-04-06T01:32:56.168Z</time>
</trkpt>
<trkpt lat="-27.7214254" lon="152.6650179">
<ele>44.397</ele>
<time>2017-04-06T01:32:59.166Z</time>
</trkpt>
<trkpt lat="-27.7219368" lon="152.6648841">
<ele>45.160</ele>
<time>2017-04-06T01:33:01.182Z</time>
</trkpt>
<trkpt lat="-27.7224512" lon="152.6647634">
<ele>46.029</ele>
<time>2017-04-06T01:33:03.203Z</time>
</trkpt>
<trkpt lat="-27.7231736" lon="152.6644401">
<ele>46.741</ele>
<time>2017-04-06T01:33:06.190Z</time>
</trkpt>
<trkpt lat="-27.7238623" lon="152.6640229">
<ele>47.320</ele>
<time>2017-04-06T01:33:09.188Z</time>
</trkpt>
<trkpt lat="-27.7245687" lon="152.6636526">
<ele>47.999</ele>
<time>2017-04-06T01:33:12.172Z</time>
</trkpt>
<trkpt lat="-27.7250180" lon="152.6633567">
<ele>48.926</ele>
<time>2017-04-06T01:33:14.168Z</time>
</trkpt>
<trkpt lat="-27.7256450" lon="152.6628434">
<ele>49.919</ele>
<time>2017-04-06T01:33:17.144Z</time>
</trkpt>
<trkpt lat="-27.7260602" lon="152.6624908">
<ele>50.708</ele>
<time>2017-04-06T01:33:19.143Z</time>
</trkpt>
<trkpt lat="-27.7265886" lon="152.6618473">
<ele>51.216</ele>
<time>2017-04-06T01:33:22.134Z</time>
</trkpt>
<trkpt lat="-27.7270867" lon="152.6611780">
<ele>51.541</ele>
<time>2017-04-06T01:33:25.118Z</time>
</trkpt>
<trkpt lat="-27.7273882" lon="152.6606949">
<ele>51.967</ele>
<time>2017-04-06T01:33:27.139Z</time>
</trkpt>
<trkpt lat="-27.7277770" lon="152.6603122">
<ele>52.728</ele>
<time>2017-04-06T01:33:29.123Z</time>
</trkpt>
<trkpt lat="-27.7283443" lon="152.6597082">
<ele>53.717</ele>
<time>2017-04-06T01:33:32.110Z</time>
</trkpt>
<trkpt lat="-27.7288991" lon="152.6590909">
<ele>54.719</ele>
<time>2017-04-06T01:33:35.094Z</time>
</trkpt>
<trkpt lat="-27.7295561" lon="152.6586197">
<ele>55.668</ele>
<time>2017-04-06T01:33:38.079Z</time>
</trkpt>
<trkpt lat="-27.7302404" lon="152.6581890">
<ele>56.495</ele>
<time>2017-04-06T01:33:41.076Z</time>
</trkpt>
<trkpt lat="-27.7306985" lon="152.6579112">
<ele>57.067</ele>
<time>2017-04-06T01:33:43.060Z</time>
</trkpt>
<trkpt lat="-27.7314451" lon="152.6576238">
<ele>57.300</ele>
<time>2017-04-06T01:33:46.065Z</time>
</trkpt>
<trkpt lat="-27.7319501" lon="152.6574875">
<ele>57.060</ele>
<time>2017-04-06T01:33:48.047Z</time>
</trkpt>
<trkpt lat="-27.7326944" lon="152.6571811">
<ele>56.177</ele>
<time>2017-04-06T01:33:51.078Z</time>
</trkpt>
<trkpt lat="-27.7332193" lon="152.6571439">
<ele>54.640</ele>
<time>2017-04-06T01:33:53.098Z</time>
</trkpt>
<trkpt lat="-27.7339807" lon="152.6569690">
<ele>52.614</ele>
<time>2017-04-06T01:33:56.085Z</time>
</trkpt>
<trkpt lat="-27.7344951" lon="152.6569106">
<ele>50.245</ele>
<time>2017-04-06T01:33:58.077Z</time>
</trkpt>
<trkpt lat="-27.7352468" lon="152.6566956">
<ele>47.836</ele>
<time>2017-04-06T01:34:01.064Z</time>
</trkpt>
<trkpt lat="-27.7357480" lon="152.6565452">
<ele>45.817</ele>
<time>2017-04-06T01:34:03.059Z</time>
</trkpt>
<trkpt lat="-27.7365014" lon="152.6563215">
<ele>44.426</ele>
<time>2017-04-06T01:34:06.055Z</time>
</trkpt>
<trkpt lat="-27.7370214" lon="152.6562737">
<ele>43.658</ele>
<time>2017-04-06T01:34:08.063Z</time>
</trkpt>
<trkpt lat="-27.7375174" lon="152.6560918">
<ele>43.385</ele>
<time>2017-04-06T01:34:10.064Z</time>
</trkpt>
<trkpt lat="-27.7382865" lon="152.6559312">
<ele>43.346</ele>
<time>2017-04-06T01:34:13.062Z</time>
</trkpt>
<trkpt lat="-27.7388019" lon="152.6558845">
<ele>43.340</ele>
<time>2017-04-06T01:34:15.012Z</time>
</trkpt>
<trkpt lat="-27.7395937" lon="152.6556953">
<ele>43.310</ele>
<time>2017-04-06T01:34:18.014Z</time>
</trkpt>
<trkpt lat="-27.7401395" lon="152.6556078">
<ele>43.339</ele>
<time>2017-04-06T01:34:20.022Z</time>
</trkpt>
<trkpt lat="-27.7406843" lon="152.6555487">
<ele>43.485</ele>
<time>2017-04-06T01:34:22.016Z</time>
</trkpt>
<trkpt lat="-27.7414898" lon="152.6553847">
<ele>43.680</ele>
<time>2017-04-06T01:34:24.987Z</time>
</trkpt>
<trkpt lat="-27.7420387" lon="152.6552774">
<ele>43.975</ele>
<time>2017-04-06T01:34:27.003Z</time>
</trkpt>
<trkpt lat="-27.7425882" lon="152.6552068">
<ele>44.540</ele>
<time>2017-04-06T01:34:29.041Z</time>
</trkpt>
<trkpt lat="-27.7431050" lon="152.6550822">
<ele>45.403</ele>
<time>2017-04-06T01:34:31.019Z</time>
</trkpt>
<trkpt lat="-27.7438521" lon="152.6547856">
<ele>46.441</ele>
<time>2017-04-06T01:34:33.969Z</time>
</trkpt>
<trkpt lat="-27.7444029" lon="152.6547462">
<ele>47.738</ele>
<time>2017-04-06T01:34:35.947Z</time>
</trkpt>
<trkpt lat="-27.7449753" lon="152.6545925">
<ele>49.515</ele>
<time>2017-04-06T01:34:37.916Z</time>
</trkpt>
<trkpt lat="-27.7458966" lon="152.6544000">
<ele>51.704</ele>
<time>2017-04-06T01:34:40.968Z</time>
</trkpt>
<trkpt lat="-27.7465286" lon="152.6544130">
<ele>54.343</ele>
<time>2017-04-06T01:34:43.037Z</time>
</trkpt>
<trkpt lat="-27.7474018" lon="152.6541702">
<ele>57.510</ele>
<time>2017-04-06T01:34:46.043Z</time>
</trkpt>
<trkpt lat="-27.7479798" lon="152.6541226">
<ele>60.542</ele>
<time>2017-04-06T01:34:48.089Z</time>
</trkpt>
<trkpt lat="-27.7487831" lon="152.6539649">
<ele>62.832</ele>
<time>2017-04-06T01:34:51.101Z</time>
</trkpt>
<trkpt lat="-27.7492855" lon="152.6538692">
<ele>64.391</ele>
<time>2017-04-06T01:34:53.123Z</time>
</trkpt>
<trkpt lat="-27.7499930" lon="152.6537033">
<ele>65.441</ele>
<time>2017-04-06T01:34:56.269Z</time>
</trkpt>
<trkpt lat="-27.7505618" lon="152.6535794">
<ele>66.225</ele>
<time>2017-04-06T01:34:59.229Z</time>
</trkpt>
<trkpt lat="-27.7510758" lon="152.6534886">
<ele>66.677</ele>
<time>2017-04-06T01:35:02.136Z</time>
</trkpt>
<trkpt lat="-27.7514088" lon="152.6534210">
<ele>66.603</ele>
<time>2017-04-06T01:35:04.109Z</time>
</trkpt>
<trkpt lat="-27.7517360" lon="152.6533585">
<ele>66.249</ele>
<time>2017-04-06T01:35:06.092Z</time>
</trkpt>
<trkpt lat="-27.7520523" lon="152.6532702">
<ele>65.981</ele>
<time>2017-04-06T01:35:08.056Z</time>
</trkpt>
<trkpt lat="-27.7525414" lon="152.6532290">
<ele>66.020</ele>
<time>2017-04-06T01:35:11.025Z</time>
</trkpt>
<trkpt lat="-27.7528607" lon="152.6531911">
<ele>66.349</ele>
<time>2017-04-06T01:35:12.998Z</time>
</trkpt>
<trkpt lat="-27.7531715" lon="152.6531008">
<ele>66.749</ele>
<time>2017-04-06T01:35:14.982Z</time>
</trkpt>
<trkpt lat="-27.7536468" lon="152.6530264">
<ele>67.004</ele>
<time>2017-04-06T01:35:17.968Z</time>
</trkpt>
<trkpt lat="-27.7541159" lon="152.6529705">
<ele>67.040</ele>
<time>2017-04-06T01:35:20.953Z</time>
</trkpt>
<trkpt lat="-27.7544228" lon="152.6529415">
<ele>66.825</ele>
<time>2017-04-06T01:35:22.880Z</time>
</trkpt>
<trkpt lat="-27.7548863" lon="152.6527809">
<ele>66.377</ele>
<time>2017-04-06T01:35:25.772Z</time>
</trkpt>
<trkpt lat="-27.7554264" lon="152.6526551">
<ele>65.889</ele>
<time>2017-04-06T01:35:28.682Z</time>
</trkpt>
<trkpt lat="-27.7558752" lon="152.6526219">
<ele>65.732</ele>
<time>2017-04-06T01:35:30.646Z</time>
</trkpt>
<trkpt lat="-27.7563656" lon="152.6524876">
<ele>66.224</ele>
<time>2017-04-06T01:35:32.631Z</time>
</trkpt>
<trkpt lat="-27.7571691" lon="152.6523207">
<ele>67.524</ele>
<time>2017-04-06T01:35:35.729Z</time>
</trkpt>
<trkpt lat="-27.7576798" lon="152.6522644">
<ele>69.240</ele>
<time>2017-04-06T01:35:37.759Z</time>
</trkpt>
<trkpt lat="-27.7581285" lon="152.6521895">
<ele>70.532</ele>
<time>2017-04-06T01:35:39.824Z</time>
</trkpt>
<trkpt lat="-27.7587000" lon="152.6521128">
<ele>70.614</ele>
<time>2017-04-06T01:35:42.644Z</time>
</trkpt>
<trkpt lat="-27.7590712" lon="152.6519913">
<ele>68.974</ele>
<time>2017-04-06T01:35:44.595Z</time>
</trkpt>
<trkpt lat="-27.7596629" lon="152.6518918">
<ele>66.005</ele>
<time>2017-04-06T01:35:47.603Z</time>
</trkpt>
<trkpt lat="-27.7602516" lon="152.6518032">
<ele>62.846</ele>
<time>2017-04-06T01:35:50.578Z</time>
</trkpt>
<trkpt lat="-27.7606489" lon="152.6517116">
<ele>60.072</ele>
<time>2017-04-06T01:35:52.581Z</time>
</trkpt>
<trkpt lat="-27.7610476" lon="152.6516242">
<ele>57.745</ele>
<time>2017-04-06T01:35:54.542Z</time>
</trkpt>
<trkpt lat="-27.7616898" lon="152.6515795">
<ele>56.044</ele>
<time>2017-04-06T01:35:57.620Z</time>
</trkpt>
<trkpt lat="-27.7623063" lon="152.6514008">
<ele>55.000</ele>
<time>2017-04-06T01:36:00.669Z</time>
</trkpt>
<trkpt lat="-27.7627191" lon="152.6513767">
<ele>54.435</ele>
<time>2017-04-06T01:36:02.666Z</time>
</trkpt>
<trkpt lat="-27.7633196" lon="152.6512610">
<ele>54.178</ele>
<time>2017-04-06T01:36:05.633Z</time>
</trkpt>
<trkpt lat="-27.7637033" lon="152.6511650">
<ele>54.205</ele>
<time>2017-04-06T01:36:07.628Z</time>
</trkpt>
<trkpt lat="-27.7642721" lon="152.6511288">
<ele>54.493</ele>
<time>2017-04-06T01:36:10.613Z</time>
</trkpt>
<trkpt lat="-27.7648065" lon="152.6509785">
<ele>54.983</ele>
<time>2017-04-06T01:36:13.606Z</time>
</trkpt>
<trkpt lat="-27.7653327" lon="152.6508968">
<ele>55.695</ele>
<time>2017-04-06T01:36:16.561Z</time>
</trkpt>
<trkpt lat="-27.7656832" lon="152.6508597">
<ele>56.669</ele>
<time>2017-04-06T01:36:18.500Z</time>
</trkpt>
<trkpt lat="-27.7662348" lon="152.6507199">
<ele>57.783</ele>
<time>2017-04-06T01:36:21.494Z</time>
</trkpt>
<trkpt lat="-27.7666439" lon="152.6506641">
<ele>59.016</ele>
<time>2017-04-06T01:36:23.578Z</time>
</trkpt>
<trkpt lat="-27.7672195" lon="152.6505587">
<ele>60.454</ele>
<time>2017-04-06T01:36:26.625Z</time>
</trkpt>
<trkpt lat="-27.7677280" lon="152.6504156">
<ele>61.916</ele>
<time>2017-04-06T01:36:29.555Z</time>
</trkpt>
<trkpt lat="-27.7682255" lon="152.6503632">
<ele>63.011</ele>
<time>2017-04-06T01:36:32.451Z</time>
</trkpt>
<trkpt lat="-27.7685638" lon="152.6502442">
<ele>63.553</ele>
<time>2017-04-06T01:36:34.489Z</time>
</trkpt>
<trkpt lat="-27.7689120" lon="152.6502046">
<ele>63.726</ele>
<time>2017-04-06T01:36:36.503Z</time>
</trkpt>
<trkpt lat="-27.7694183" lon="152.6501447">
<ele>63.814</ele>
<time>2017-04-06T01:36:39.438Z</time>
</trkpt>
<trkpt lat="-27.7699280" lon="152.6499647">
<ele>63.833</ele>
<time>2017-04-06T01:36:42.428Z</time>
</trkpt>
<trkpt lat="-27.7703120" lon="152.6498826">
<ele>63.717</ele>
<time>2017-04-06T01:36:44.417Z</time>
</trkpt>
<trkpt lat="-27.7707341" lon="152.6498641">
<ele>63.568</ele>
<time>2017-04-06T01:36:46.462Z</time>
</trkpt>
<trkpt lat="-27.7711431" lon="152.6497492">
<ele>63.464</ele>
<time>2017-04-06T01:36:48.515Z</time>
</trkpt>
<trkpt lat="-27.7717215" lon="152.6495982">
<ele>63.251</ele>
<time>2017-04-06T01:36:51.449Z</time>
</trkpt>
<trkpt lat="-27.7721187" lon="152.6495609">
<ele>62.655</ele>
<time>2017-04-06T01:36:53.400Z</time>
</trkpt>
<trkpt lat="-27.7727361" lon="152.6494263">
<ele>61.619</ele>
<time>2017-04-06T01:36:56.424Z</time>
</trkpt>
<trkpt lat="-27.7731487" lon="152.6493181">
<ele>60.298</ele>
<time>2017-04-06T01:36:58.427Z</time>
</trkpt>
<trkpt lat="-27.7735760" lon="152.6493108">
<ele>58.853</ele>
<time>2017-04-06T01:37:00.414Z</time>
</trkpt>
<trkpt lat="-27.7742101" lon="152.6491563">
<ele>57.519</ele>
<time>2017-04-06T01:37:03.349Z</time>
</trkpt>
<trkpt lat="-27.7749308" lon="152.6490617">
<ele>56.568</ele>
<time>2017-04-06T01:37:06.501Z</time>
</trkpt>
<trkpt lat="-27.7756324" lon="152.6489133">
<ele>56.078</ele>
<time>2017-04-06T01:37:09.546Z</time>
</trkpt>
<trkpt lat="-27.7763064" lon="152.6488287">
<ele>55.946</ele>
<time>2017-04-06T01:37:12.453Z</time>
</trkpt>
<trkpt lat="-27.7767578" lon="152.6487603">
<ele>55.923</ele>
<time>2017-04-06T01:37:14.410Z</time>
</trkpt>
<trkpt lat="-27.7774532" lon="152.6486446">
<ele>55.815</ele>
<time>2017-04-06T01:37:17.404Z</time>
</trkpt>
<trkpt lat="-27.7781536" lon="152.6484853">
<ele>55.592</ele>
<time>2017-04-06T01:37:20.413Z</time>
</trkpt>
<trkpt lat="-27.7788653" lon="152.6483827">
<ele>55.137</ele>
<time>2017-04-06T01:37:23.439Z</time>
</trkpt>
<trkpt lat="-27.7795456" lon="152.6482052">
<ele>54.141</ele>
<time>2017-04-06T01:37:26.405Z</time>
</trkpt>
<trkpt lat="-27.7802342" lon="152.6480291">
<ele>52.469</ele>
<time>2017-04-06T01:37:29.410Z</time>
</trkpt>
<trkpt lat="-27.7807103" lon="152.6480445">
<ele>50.377</ele>
<time>2017-04-06T01:37:31.449Z</time>
</trkpt>
<trkpt lat="-27.7813908" lon="152.6479250">
<ele>48.336</ele>
<time>2017-04-06T01:37:34.432Z</time>
</trkpt>
<trkpt lat="-27.7818345" lon="152.6478619">
<ele>46.655</ele>
<time>2017-04-06T01:37:36.408Z</time>
</trkpt>
<trkpt lat="-27.7822712" lon="152.6477088">
<ele>45.480</ele>
<time>2017-04-06T01:37:38.422Z</time>
</trkpt>
<trkpt lat="-27.7829332" lon="152.6475298">
<ele>44.958</ele>
<time>2017-04-06T01:37:41.387Z</time>
</trkpt>
<trkpt lat="-27.7833729" lon="152.6473579">
<ele>45.173</ele>
<time>2017-04-06T01:37:43.374Z</time>
</trkpt>
<trkpt lat="-27.7837799" lon="152.6470800">
<ele>45.990</ele>
<time>2017-04-06T01:37:45.401Z</time>
</trkpt>
<trkpt lat="-27.7841752" lon="152.6468173">
<ele>47.109</ele>
<time>2017-04-06T01:37:47.413Z</time>
</trkpt>
<trkpt lat="-27.7847135" lon="152.6464072">
<ele>48.194</ele>
<time>2017-04-06T01:37:50.337Z</time>
</trkpt>
<trkpt lat="-27.7852297" lon="152.6459605">
<ele>49.116</ele>
<time>2017-04-06T01:37:53.256Z</time>
</trkpt>
<trkpt lat="-27.7857328" lon="152.6454161">
<ele>50.058</ele>
<time>2017-04-06T01:37:56.169Z</time>
</trkpt>
<trkpt lat="-27.7862105" lon="152.6446220">
<ele>51.466</ele>
<time>2017-04-06T01:37:59.433Z</time>
</trkpt>
<trkpt lat="-27.7865239" lon="152.6441131">
<ele>53.912</ele>
<time>2017-04-06T01:38:01.517Z</time>
</trkpt>
<trkpt lat="-27.7869068" lon="152.6433768">
<ele>57.245</ele>
<time>2017-04-06T01:38:04.497Z</time>
</trkpt>
<trkpt lat="-27.7870995" lon="152.6429273">
<ele>60.184</ele>
<time>2017-04-06T01:38:06.448Z</time>
</trkpt>
<trkpt lat="-27.7872853" lon="152.6425476">
<ele>61.713</ele>
<time>2017-04-06T01:38:08.372Z</time>
</trkpt>
<trkpt lat="-27.7874561" lon="152.6422223">
<ele>61.882</ele>
<time>2017-04-06T01:38:10.264Z</time>
</trkpt>
<trkpt lat="-27.7875494" lon="152.6418788">
<ele>61.125</ele>
<time>2017-04-06T01:38:12.163Z</time>
</trkpt>
<trkpt lat="-27.7878170" lon="152.6414118">
<ele>60.057</ele>
<time>2017-04-06T01:38:15.089Z</time>
</trkpt>
<trkpt lat="-27.7879915" lon="152.6410617">
<ele>59.393</ele>
<time>2017-04-06T01:38:17.145Z</time>
</trkpt>
<trkpt lat="-27.7882633" lon="152.6405812">
<ele>59.487</ele>
<time>2017-04-06T01:38:20.093Z</time>
</trkpt>
<trkpt lat="-27.7883911" lon="152.6402561">
<ele>60.270</ele>
<time>2017-04-06T01:38:22.024Z</time>
</trkpt>
<trkpt lat="-27.7885230" lon="152.6399442">
<ele>61.412</ele>
<time>2017-04-06T01:38:23.968Z</time>
</trkpt>
<trkpt lat="-27.7886871" lon="152.6396453">
<ele>62.507</ele>
<time>2017-04-06T01:38:25.986Z</time>
</trkpt>
<trkpt lat="-27.7888841" lon="152.6391921">
<ele>63.392</ele>
<time>2017-04-06T01:38:28.931Z</time>
</trkpt>
<trkpt lat="-27.7890526" lon="152.6387313">
<ele>64.224</ele>
<time>2017-04-06T01:38:31.905Z</time>
</trkpt>
<trkpt lat="-27.7892550" lon="152.6382887">
<ele>65.213</ele>
<time>2017-04-06T01:38:34.919Z</time>
</trkpt>
<trkpt lat="-27.7893710" lon="152.6379997">
<ele>66.383</ele>
<time>2017-04-06T01:38:36.937Z</time>
</trkpt>
<trkpt lat="-27.7895604" lon="152.6376447">
<ele>67.524</ele>
<time>2017-04-06T01:38:39.767Z</time>
</trkpt>
<trkpt lat="-27.7896727" lon="152.6374021">
<ele>68.455</ele>
<time>2017-04-06T01:38:41.728Z</time>
</trkpt>
<trkpt lat="-27.7898367" lon="152.6369743">
<ele>69.190</ele>
<time>2017-04-06T01:38:44.866Z</time>
</trkpt>
<trkpt lat="-27.7900052" lon="152.6366348">
<ele>69.891</ele>
<time>2017-04-06T01:38:46.999Z</time>
</trkpt>
<trkpt lat="-27.7903173" lon="152.6359474">
<ele>70.790</ele>
<time>2017-04-06T01:38:50.429Z</time>
</trkpt>
<trkpt lat="-27.7905847" lon="152.6354720">
<ele>72.328</ele>
<time>2017-04-06T01:38:52.685Z</time>
</trkpt>
<trkpt lat="-27.7908532" lon="152.6348974">
<ele>74.404</ele>
<time>2017-04-06T01:38:55.538Z</time>
</trkpt>
<trkpt lat="-27.7910192" lon="152.6346094">
<ele>75.991</ele>
<time>2017-04-06T01:38:57.362Z</time>
</trkpt>
<trkpt lat="-27.7912157" lon="152.6341466">
<ele>76.412</ele>
<time>2017-04-06T01:39:00.242Z</time>
</trkpt>
<trkpt lat="-27.7914294" lon="152.6336984">
<ele>76.023</ele>
<time>2017-04-06T01:39:03.165Z</time>
</trkpt>
<trkpt lat="-27.7915674" lon="152.6333830">
<ele>75.416</ele>
<time>2017-04-06T01:39:05.150Z</time>
</trkpt>
<trkpt lat="-27.7918421" lon="152.6329369">
<ele>74.998</ele>
<time>2017-04-06T01:39:08.152Z</time>
</trkpt>
<trkpt lat="-27.7919886" lon="152.6326047">
<ele>74.911</ele>
<time>2017-04-06T01:39:10.156Z</time>
</trkpt>
<trkpt lat="-27.7922402" lon="152.6321365">
<ele>75.145</ele>
<time>2017-04-06T01:39:13.091Z</time>
</trkpt>
<trkpt lat="-27.7924431" lon="152.6316190">
<ele>75.614</ele>
<time>2017-04-06T01:39:16.093Z</time>
</trkpt>
<trkpt lat="-27.7927535" lon="152.6311634">
<ele>76.147</ele>
<time>2017-04-06T01:39:19.099Z</time>
</trkpt>
<trkpt lat="-27.7929349" lon="152.6308274">
<ele>76.603</ele>
<time>2017-04-06T01:39:21.076Z</time>
</trkpt>
<trkpt lat="-27.7933430" lon="152.6303879">
<ele>76.935</ele>
<time>2017-04-06T01:39:24.129Z</time>
</trkpt>
<trkpt lat="-27.7936404" lon="152.6300726">
<ele>77.244</ele>
<time>2017-04-06T01:39:26.184Z</time>
</trkpt>
<trkpt lat="-27.7941285" lon="152.6296507">
<ele>77.599</ele>
<time>2017-04-06T01:39:29.202Z</time>
</trkpt>
<trkpt lat="-27.7944460" lon="152.6293562">
<ele>77.827</ele>
<time>2017-04-06T01:39:31.215Z</time>
</trkpt>
<trkpt lat="-27.7949917" lon="152.6290503">
<ele>77.672</ele>
<time>2017-04-06T01:39:34.147Z</time>
</trkpt>
<trkpt lat="-27.7955651" lon="152.6286441">
<ele>77.048</ele>
<time>2017-04-06T01:39:37.212Z</time>
</trkpt>
<trkpt lat="-27.7960285" lon="152.6285269">
<ele>76.117</ele>
<time>2017-04-06T01:39:39.305Z</time>
</trkpt>
<trkpt lat="-27.7966183" lon="152.6282085">
<ele>75.238</ele>
<time>2017-04-06T01:39:42.271Z</time>
</trkpt>
<trkpt lat="-27.7970045" lon="152.6280331">
<ele>74.456</ele>
<time>2017-04-06T01:39:44.232Z</time>
</trkpt>
<trkpt lat="-27.7973947" lon="152.6278468">
<ele>73.544</ele>
<time>2017-04-06T01:39:46.228Z</time>
</trkpt>
<trkpt lat="-27.7979786" lon="152.6275288">
<ele>72.528</ele>
<time>2017-04-06T01:39:49.237Z</time>
</trkpt>
<trkpt lat="-27.7985982" lon="152.6272490">
<ele>71.619</ele>
<time>2017-04-06T01:39:52.255Z</time>
</trkpt>
<trkpt lat="-27.7989985" lon="152.6270022">
<ele>70.977</ele>
<time>2017-04-06T01:39:54.261Z</time>
</trkpt>
<trkpt lat="-27.7994248" lon="152.6267966">
<ele>70.585</ele>
<time>2017-04-06T01:39:56.256Z</time>
</trkpt>
<trkpt lat="-27.8000669" lon="152.6264560">
<ele>70.264</ele>
<time>2017-04-06T01:39:59.278Z</time>
</trkpt>
<trkpt lat="-27.8004753" lon="152.6262012">
<ele>69.840</ele>
<time>2017-04-06T01:40:01.285Z</time>
</trkpt>
<trkpt lat="-27.8009150" lon="152.6260589">
<ele>69.155</ele>
<time>2017-04-06T01:40:03.302Z</time>
</trkpt>
<trkpt lat="-27.8012909" lon="152.6258040">
<ele>68.105</ele>
<time>2017-04-06T01:40:05.242Z</time>
</trkpt>
<trkpt lat="-27.8019323" lon="152.6254985">
<ele>66.785</ele>
<time>2017-04-06T01:40:08.259Z</time>
</trkpt>
<trkpt lat="-27.8023549" lon="152.6252086">
<ele>65.335</ele>
<time>2017-04-06T01:40:10.328Z</time>
</trkpt>
<trkpt lat="-27.8028086" lon="152.6250336">
<ele>63.804</ele>
<time>2017-04-06T01:40:12.288Z</time>
</trkpt>
<trkpt lat="-27.8034914" lon="152.6246462">
<ele>62.219</ele>
<time>2017-04-06T01:40:15.330Z</time>
</trkpt>
<trkpt lat="-27.8042349" lon="152.6243537">
<ele>60.707</ele>
<time>2017-04-06T01:40:18.396Z</time>
</trkpt>
<trkpt lat="-27.8049148" lon="152.6239769">
<ele>59.398</ele>
<time>2017-04-06T01:40:21.378Z</time>
</trkpt>
<trkpt lat="-27.8053651" lon="152.6237694">
<ele>58.187</ele>
<time>2017-04-06T01:40:23.363Z</time>
</trkpt>
<trkpt lat="-27.8059864" lon="152.6233753">
<ele>56.807</ele>
<time>2017-04-06T01:40:26.310Z</time>
</trkpt>
<trkpt lat="-27.8066691" lon="152.6230799">
<ele>55.296</ele>
<time>2017-04-06T01:40:29.367Z</time>
</trkpt>
<trkpt lat="-27.8073132" lon="152.6227918">
<ele>54.001</ele>
<time>2017-04-06T01:40:32.400Z</time>
</trkpt>
<trkpt lat="-27.8078639" lon="152.6224866">
<ele>53.002</ele>
<time>2017-04-06T01:40:35.264Z</time>
</trkpt>
<trkpt lat="-27.8082410" lon="152.6222936">
<ele>52.140</ele>
<time>2017-04-06T01:40:37.234Z</time>
</trkpt>
<trkpt lat="-27.8086457" lon="152.6221440">
<ele>51.470</ele>
<time>2017-04-06T01:40:39.239Z</time>
</trkpt>
<trkpt lat="-27.8090161" lon="152.6219043">
<ele>51.125</ele>
<time>2017-04-06T01:40:41.269Z</time>
</trkpt>
<trkpt lat="-27.8095591" lon="152.6216057">
<ele>50.997</ele>
<time>2017-04-06T01:40:44.195Z</time>
</trkpt>
<trkpt lat="-27.8099428" lon="152.6214753">
<ele>50.866</ele>
<time>2017-04-06T01:40:46.161Z</time>
</trkpt>
<trkpt lat="-27.8103100" lon="152.6212523">
<ele>50.609</ele>
<time>2017-04-06T01:40:48.159Z</time>
</trkpt>
<trkpt lat="-27.8107137" lon="152.6210464">
<ele>50.320</ele>
<time>2017-04-06T01:40:50.169Z</time>
</trkpt>
<trkpt lat="-27.8113659" lon="152.6206993">
<ele>50.148</ele>
<time>2017-04-06T01:40:53.308Z</time>
</trkpt>
<trkpt lat="-27.8117891" lon="152.6204803">
<ele>50.108</ele>
<time>2017-04-06T01:40:55.348Z</time>
</trkpt>
<trkpt lat="-27.8123688" lon="152.6201944">
<ele>50.103</ele>
<time>2017-04-06T01:40:58.217Z</time>
</trkpt>
<trkpt lat="-27.8127434" lon="152.6199810">
<ele>49.878</ele>
<time>2017-04-06T01:41:00.184Z</time>
</trkpt>
<trkpt lat="-27.8133325" lon="152.6197232">
<ele>49.295</ele>
<time>2017-04-06T01:41:03.154Z</time>
</trkpt>
<trkpt lat="-27.8137282" lon="152.6195585">
<ele>48.536</ele>
<time>2017-04-06T01:41:05.161Z</time>
</trkpt>
<trkpt lat="-27.8141133" lon="152.6194286">
<ele>47.797</ele>
<time>2017-04-06T01:41:07.131Z</time>
</trkpt>
<trkpt lat="-27.8146591" lon="152.6191910">
<ele>47.155</ele>
<time>2017-04-06T01:41:10.068Z</time>
</trkpt>
<trkpt lat="-27.8150549" lon="152.6191268">
<ele>46.738</ele>
<time>2017-04-06T01:41:12.094Z</time>
</trkpt>
<trkpt lat="-27.8154408" lon="152.6189956">
<ele>46.634</ele>
<time>2017-04-06T01:41:14.120Z</time>
</trkpt>
<trkpt lat="-27.8158031" lon="152.6188057">
<ele>46.776</ele>
<time>2017-04-06T01:41:16.127Z</time>
</trkpt>
<trkpt lat="-27.8161727" lon="152.6186630">
<ele>46.975</ele>
<time>2017-04-06T01:41:18.100Z</time>
</trkpt>
<trkpt lat="-27.8166755" lon="152.6183051">
<ele>47.082</ele>
<time>2017-04-06T01:41:21.101Z</time>
</trkpt>
<trkpt lat="-27.8170534" lon="152.6181466">
<ele>47.091</ele>
<time>2017-04-06T01:41:23.122Z</time>
</trkpt>
<trkpt lat="-27.8175941" lon="152.6178534">
<ele>47.060</ele>
<time>2017-04-06T01:41:26.141Z</time>
</trkpt>
<trkpt lat="-27.8179537" lon="152.6177104">
<ele>46.957</ele>
<time>2017-04-06T01:41:28.119Z</time>
</trkpt>
<trkpt lat="-27.8182565" lon="152.6174618">
<ele>46.668</ele>
<time>2017-04-06T01:41:30.120Z</time>
</trkpt>
<trkpt lat="-27.8187956" lon="152.6173033">
<ele>46.219</ele>
<time>2017-04-06T01:41:33.133Z</time>
</trkpt>
<trkpt lat="-27.8191269" lon="152.6171173">
<ele>45.779</ele>
<time>2017-04-06T01:41:35.138Z</time>
</trkpt>
<trkpt lat="-27.8194748" lon="152.6170068">
<ele>45.460</ele>
<time>2017-04-06T01:41:37.119Z</time>
</trkpt>
<trkpt lat="-27.8198143" lon="152.6168987">
<ele>45.276</ele>
<time>2017-04-06T01:41:39.091Z</time>
</trkpt>
<trkpt lat="-27.8201633" lon="152.6168866">
<ele>45.168</ele>
<time>2017-04-06T01:41:41.120Z</time>
</trkpt>
<trkpt lat="-27.8206395" lon="152.6168047">
<ele>45.052</ele>
<time>2017-04-06T01:41:44.046Z</time>
</trkpt>
<trkpt lat="-27.8209468" lon="152.6167557">
<ele>44.841</ele>
<time>2017-04-06T01:41:46.018Z</time>
</trkpt>
<trkpt lat="-27.8212560" lon="152.6166941">
<ele>44.520</ele>
<time>2017-04-06T01:41:48.035Z</time>
</trkpt>
<trkpt lat="-27.8217120" lon="152.6166199">
<ele>44.214</ele>
<time>2017-04-06T01:41:51.032Z</time>
</trkpt>
<trkpt lat="-27.8219962" lon="152.6165499">
<ele>44.063</ele>
<time>2017-04-06T01:41:53.003Z</time>
</trkpt>
<trkpt lat="-27.8222740" lon="152.6165664">
<ele>44.125</ele>
<time>2017-04-06T01:41:55.002Z</time>
</trkpt>
<trkpt lat="-27.8225159" lon="152.6165326">
<ele>44.459</ele>
<time>2017-04-06T01:41:56.910Z</time>
</trkpt>
<trkpt lat="-27.8227455" lon="152.6165032">
<ele>45.096</ele>
<time>2017-04-06T01:41:58.870Z</time>
</trkpt>
<trkpt lat="-27.8230736" lon="152.6164327">
<ele>45.924</ele>
<time>2017-04-06T01:42:01.838Z</time>
</trkpt>
<trkpt lat="-27.8232682" lon="152.6163452">
<ele>46.761</ele>
<time>2017-04-06T01:42:03.812Z</time>
</trkpt>
<trkpt lat="-27.8234605" lon="152.6163586">
<ele>47.448</ele>
<time>2017-04-06T01:42:05.760Z</time>
</trkpt>
<trkpt lat="-27.8237175" lon="152.6163127">
<ele>47.872</ele>
<time>2017-04-06T01:42:08.661Z</time>
</trkpt>
<trkpt lat="-27.8239027" lon="152.6162367">
<ele>47.985</ele>
<time>2017-04-06T01:42:11.305Z</time>
</trkpt>
<trkpt lat="-27.8239855" lon="152.6161533">
<ele>47.736</ele>
<time>2017-04-06T01:42:13.295Z</time>
</trkpt>
<trkpt lat="-27.8240751" lon="152.6161127">
<ele>47.129</ele>
<time>2017-04-06T01:42:15.595Z</time>
</trkpt>
<trkpt lat="-27.8241594" lon="152.6161890">
<ele>46.306</ele>
<time>2017-04-06T01:42:18.998Z</time>
</trkpt>
<trkpt lat="-27.8241594" lon="152.6161890">
<ele>45.526</ele>
<time>2017-04-06T01:42:25.998Z</time>
</trkpt>
<trkpt lat="-27.8241594" lon="152.6161890">
<ele>45.104</ele>
<time>2017-04-06T01:42:52.805Z</time>
</trkpt>
<trkpt lat="-27.8243808" lon="152.6161592">
<ele>45.121</ele>
<time>2017-04-06T01:43:03.810Z</time>
</trkpt>
<trkpt lat="-27.8244832" lon="152.6161168">
<ele>44.870</ele>
<time>2017-04-06T01:43:05.859Z</time>
</trkpt>
<trkpt lat="-27.8246048" lon="152.6161464">
<ele>43.832</ele>
<time>2017-04-06T01:43:07.940Z</time>
</trkpt>
<trkpt lat="-27.8248063" lon="152.6161108">
<ele>42.602</ele>
<time>2017-04-06T01:43:10.965Z</time>
</trkpt>
<trkpt lat="-27.8249312" lon="152.6160713">
<ele>41.818</ele>
<time>2017-04-06T01:43:12.887Z</time>
</trkpt>
<trkpt lat="-27.8251377" lon="152.6161177">
<ele>41.368</ele>
<time>2017-04-06T01:43:16.098Z</time>
</trkpt>
<trkpt lat="-27.8252669" lon="152.6161214">
<ele>41.012</ele>
<time>2017-04-06T01:43:18.079Z</time>
</trkpt>
<trkpt lat="-27.8253950" lon="152.6161349">
<ele>40.642</ele>
<time>2017-04-06T01:43:20.019Z</time>
</trkpt>
<trkpt lat="-27.8255290" lon="152.6160468">
<ele>40.303</ele>
<time>2017-04-06T01:43:22.330Z</time>
</trkpt>
<trkpt lat="-27.8257386" lon="152.6160831">
<ele>40.065</ele>
<time>2017-04-06T01:43:25.602Z</time>
</trkpt>
<trkpt lat="-27.8258685" lon="152.6161703">
<ele>39.915</ele>
<time>2017-04-06T01:43:27.975Z</time>
</trkpt>
<trkpt lat="-27.8260562" lon="152.6161644">
<ele>39.808</ele>
<time>2017-04-06T01:43:30.721Z</time>
</trkpt>
<trkpt lat="-27.8261906" lon="152.6162124">
<ele>39.697</ele>
<time>2017-04-06T01:43:32.652Z</time>
</trkpt>
<trkpt lat="-27.8263456" lon="152.6161901">
<ele>39.572</ele>
<time>2017-04-06T01:43:34.766Z</time>
</trkpt>
<trkpt lat="-27.8264831" lon="152.6162973">
<ele>39.472</ele>
<time>2017-04-06T01:43:37.013Z</time>
</trkpt>
<trkpt lat="-27.8266411" lon="152.6163225">
<ele>39.424</ele>
<time>2017-04-06T01:43:39.126Z</time>
</trkpt>
<trkpt lat="-27.8268787" lon="152.6163538">
<ele>39.431</ele>
<time>2017-04-06T01:43:42.098Z</time>
</trkpt>
<trkpt lat="-27.8270354" lon="152.6163875">
<ele>39.501</ele>
<time>2017-04-06T01:43:43.960Z</time>
</trkpt>
<trkpt lat="-27.8272132" lon="152.6163965">
<ele>39.642</ele>
<time>2017-04-06T01:43:46.101Z</time>
</trkpt>
<trkpt lat="-27.8274673" lon="152.6163957">
<ele>39.829</ele>
<time>2017-04-06T01:43:49.343Z</time>
</trkpt>
<trkpt lat="-27.8276908" lon="152.6164288">
<ele>39.999</ele>
<time>2017-04-06T01:43:52.313Z</time>
</trkpt>
<trkpt lat="-27.8279107" lon="152.6164607">
<ele>40.100</ele>
<time>2017-04-06T01:43:55.177Z</time>
</trkpt>
<trkpt lat="-27.8280678" lon="152.6164811">
<ele>40.134</ele>
<time>2017-04-06T01:43:57.279Z</time>
</trkpt>
<trkpt lat="-27.8282880" lon="152.6165477">
<ele>40.138</ele>
<time>2017-04-06T01:44:00.464Z</time>
</trkpt>
<trkpt lat="-27.8284248" lon="152.6165768">
<ele>40.140</ele>
<time>2017-04-06T01:44:02.425Z</time>
</trkpt>
<trkpt lat="-27.8285631" lon="152.6166026">
<ele>40.149</ele>
<time>2017-04-06T01:44:04.384Z</time>
</trkpt>
<trkpt lat="-27.8287730" lon="152.6166329">
<ele>40.157</ele>
<time>2017-04-06T01:44:07.241Z</time>
</trkpt>
<trkpt lat="-27.8289145" lon="152.6166592">
<ele>40.164</ele>
<time>2017-04-06T01:44:09.083Z</time>
</trkpt>
<trkpt lat="-27.8290651" lon="152.6166881">
<ele>40.182</ele>
<time>2017-04-06T01:44:10.950Z</time>
</trkpt>
<trkpt lat="-27.8292227" lon="152.6167124">
<ele>40.234</ele>
<time>2017-04-06T01:44:12.832Z</time>
</trkpt>
<trkpt lat="-27.8294717" lon="152.6167480">
<ele>40.334</ele>
<time>2017-04-06T01:44:15.623Z</time>
</trkpt>
<trkpt lat="-27.8297422" lon="152.6167842">
<ele>40.481</ele>
<time>2017-04-06T01:44:18.389Z</time>
</trkpt>
<trkpt lat="-27.8300444" lon="152.6168229">
<ele>40.688</ele>
<time>2017-04-06T01:44:21.190Z</time>
</trkpt>
<trkpt lat="-27.8302639" lon="152.6168557">
<ele>40.995</ele>
<time>2017-04-06T01:44:23.170Z</time>
</trkpt>
<trkpt lat="-27.8306013" lon="152.6169069">
<ele>41.414</ele>
<time>2017-04-06T01:44:26.257Z</time>
</trkpt>
<trkpt lat="-27.8308155" lon="152.6169375">
<ele>41.876</ele>
<time>2017-04-06T01:44:28.281Z</time>
</trkpt>
<trkpt lat="-27.8311237" lon="152.6169796">
<ele>42.282</ele>
<time>2017-04-06T01:44:31.206Z</time>
</trkpt>
<trkpt lat="-27.8313291" lon="152.6170078">
<ele>42.599</ele>
<time>2017-04-06T01:44:33.083Z</time>
</trkpt>
<trkpt lat="-27.8316747" lon="152.6170581">
<ele>42.830</ele>
<time>2017-04-06T01:44:36.034Z</time>
</trkpt>
<trkpt lat="-27.8319103" lon="152.6170867">
<ele>43.020</ele>
<time>2017-04-06T01:44:38.028Z</time>
</trkpt>
<trkpt lat="-27.8322657" lon="152.6171274">
<ele>43.224</ele>
<time>2017-04-06T01:44:40.970Z</time>
</trkpt>
<trkpt lat="-27.8325136" lon="152.6171449">
<ele>43.436</ele>
<time>2017-04-06T01:44:43.005Z</time>
</trkpt>
<trkpt lat="-27.8328730" lon="152.6171652">
<ele>43.606</ele>
<time>2017-04-06T01:44:45.971Z</time>
</trkpt>
<trkpt lat="-27.8331097" lon="152.6171679">
<ele>43.696</ele>
<time>2017-04-06T01:44:47.891Z</time>
</trkpt>
<trkpt lat="-27.8334886" lon="152.6171650">
<ele>43.699</ele>
<time>2017-04-06T01:44:50.790Z</time>
</trkpt>
<trkpt lat="-27.8338934" lon="152.6171525">
<ele>43.703</ele>
<time>2017-04-06T01:44:53.788Z</time>
</trkpt>
<trkpt lat="-27.8341605" lon="152.6171431">
<ele>43.834</ele>
<time>2017-04-06T01:44:55.725Z</time>
</trkpt>
<trkpt lat="-27.8344312" lon="152.6171330">
<ele>44.082</ele>
<time>2017-04-06T01:44:57.616Z</time>
</trkpt>
<trkpt lat="-27.8347239" lon="152.6171235">
<ele>44.292</ele>
<time>2017-04-06T01:44:59.581Z</time>
</trkpt>
<trkpt lat="-27.8350242" lon="152.6171152">
<ele>44.410</ele>
<time>2017-04-06T01:45:01.548Z</time>
</trkpt>
<trkpt lat="-27.8354885" lon="152.6171034">
<ele>44.521</ele>
<time>2017-04-06T01:45:04.516Z</time>
</trkpt>
<trkpt lat="-27.8359608" lon="152.6170992">
<ele>44.725</ele>
<time>2017-04-06T01:45:07.400Z</time>
</trkpt>
<trkpt lat="-27.8362942" lon="152.6170840">
<ele>45.083</ele>
<time>2017-04-06T01:45:09.203Z</time>
</trkpt>
<trkpt lat="-27.8369233" lon="152.6170311">
<ele>45.618</ele>
<time>2017-04-06T01:45:12.271Z</time>
</trkpt>
<trkpt lat="-27.8375996" lon="152.6169810">
<ele>46.400</ele>
<time>2017-04-06T01:45:15.585Z</time>
</trkpt>
<trkpt lat="-27.8379684" lon="152.6169744">
<ele>47.323</ele>
<time>2017-04-06T01:45:17.572Z</time>
</trkpt>
<trkpt lat="-27.8383208" lon="152.6169424">
<ele>47.924</ele>
<time>2017-04-06T01:45:19.529Z</time>
</trkpt>
<trkpt lat="-27.8388422" lon="152.6169510">
<ele>47.947</ele>
<time>2017-04-06T01:45:22.426Z</time>
</trkpt>
<trkpt lat="-27.8391877" lon="152.6168854">
<ele>47.664</ele>
<time>2017-04-06T01:45:24.369Z</time>
</trkpt>
<trkpt lat="-27.8395509" lon="152.6168676">
<ele>47.424</ele>
<time>2017-04-06T01:45:26.392Z</time>
</trkpt>
<trkpt lat="-27.8398994" lon="152.6168066">
<ele>47.353</ele>
<time>2017-04-06T01:45:28.391Z</time>
</trkpt>
<trkpt lat="-27.8402420" lon="152.6167838">
<ele>47.419</ele>
<time>2017-04-06T01:45:30.392Z</time>
</trkpt>
<trkpt lat="-27.8407231" lon="152.6166297">
<ele>47.608</ele>
<time>2017-04-06T01:45:33.433Z</time>
</trkpt>
<trkpt lat="-27.8410333" lon="152.6166163">
<ele>48.044</ele>
<time>2017-04-06T01:45:35.408Z</time>
</trkpt>
<trkpt lat="-27.8414799" lon="152.6165166">
<ele>48.832</ele>
<time>2017-04-06T01:45:38.368Z</time>
</trkpt>
<trkpt lat="-27.8419212" lon="152.6164210">
<ele>49.918</ele>
<time>2017-04-06T01:45:41.372Z</time>
</trkpt>
<trkpt lat="-27.8421871" lon="152.6162919">
<ele>51.159</ele>
<time>2017-04-06T01:45:43.381Z</time>
</trkpt>
<trkpt lat="-27.8425793" lon="152.6161332">
<ele>52.338</ele>
<time>2017-04-06T01:45:46.334Z</time>
</trkpt>
<trkpt lat="-27.8428412" lon="152.6160234">
<ele>53.277</ele>
<time>2017-04-06T01:45:48.287Z</time>
</trkpt>
<trkpt lat="-27.8432634" lon="152.6158917">
<ele>53.981</ele>
<time>2017-04-06T01:45:51.227Z</time>
</trkpt>
<trkpt lat="-27.8437146" lon="152.6157821">
<ele>54.571</ele>
<time>2017-04-06T01:45:54.197Z</time>
</trkpt>
<trkpt lat="-27.8440285" lon="152.6157402">
<ele>55.192</ele>
<time>2017-04-06T01:45:56.181Z</time>
</trkpt>
<trkpt lat="-27.8443424" lon="152.6156637">
<ele>55.861</ele>
<time>2017-04-06T01:45:58.193Z</time>
</trkpt>
<trkpt lat="-27.8446534" lon="152.6156042">
<ele>56.455</ele>
<time>2017-04-06T01:46:00.161Z</time>
</trkpt>
<trkpt lat="-27.8451321" lon="152.6154756">
<ele>56.923</ele>
<time>2017-04-06T01:46:03.085Z</time>
</trkpt>
<trkpt lat="-27.8456642" lon="152.6153488">
<ele>57.328</ele>
<time>2017-04-06T01:46:06.098Z</time>
</trkpt>
<trkpt lat="-27.8460369" lon="152.6152874">
<ele>57.836</ele>
<time>2017-04-06T01:46:08.104Z</time>
</trkpt>
<trkpt lat="-27.8465919" lon="152.6151590">
<ele>58.481</ele>
<time>2017-04-06T01:46:11.103Z</time>
</trkpt>
<trkpt lat="-27.8469738" lon="152.6151097">
<ele>59.057</ele>
<time>2017-04-06T01:46:13.130Z</time>
</trkpt>
<trkpt lat="-27.8473407" lon="152.6149876">
<ele>59.426</ele>
<time>2017-04-06T01:46:15.192Z</time>
</trkpt>
<trkpt lat="-27.8478747" lon="152.6149134">
<ele>59.606</ele>
<time>2017-04-06T01:46:18.162Z</time>
</trkpt>
<trkpt lat="-27.8482148" lon="152.6147980">
<ele>59.640</ele>
<time>2017-04-06T01:46:20.136Z</time>
</trkpt>
<trkpt lat="-27.8485914" lon="152.6147340">
<ele>59.644</ele>
<time>2017-04-06T01:46:22.218Z</time>
</trkpt>
<trkpt lat="-27.8491324" lon="152.6147017">
<ele>59.733</ele>
<time>2017-04-06T01:46:25.175Z</time>
</trkpt>
<trkpt lat="-27.8494787" lon="152.6145462">
<ele>59.944</ele>
<time>2017-04-06T01:46:27.217Z</time>
</trkpt>
<trkpt lat="-27.8500217" lon="152.6144321">
<ele>60.272</ele>
<time>2017-04-06T01:46:30.235Z</time>
</trkpt>
<trkpt lat="-27.8505609" lon="152.6143556">
<ele>60.694</ele>
<time>2017-04-06T01:46:33.164Z</time>
</trkpt>
<trkpt lat="-27.8511116" lon="152.6141843">
<ele>61.162</ele>
<time>2017-04-06T01:46:36.169Z</time>
</trkpt>
<trkpt lat="-27.8515094" lon="152.6141780">
<ele>61.702</ele>
<time>2017-04-06T01:46:38.211Z</time>
</trkpt>
<trkpt lat="-27.8518893" lon="152.6140911">
<ele>62.314</ele>
<time>2017-04-06T01:46:40.185Z</time>
</trkpt>
<trkpt lat="-27.8524683" lon="152.6139700">
<ele>62.823</ele>
<time>2017-04-06T01:46:43.166Z</time>
</trkpt>
<trkpt lat="-27.8528542" lon="152.6138675">
<ele>63.144</ele>
<time>2017-04-06T01:46:45.163Z</time>
</trkpt>
<trkpt lat="-27.8534510" lon="152.6138216">
<ele>63.357</ele>
<time>2017-04-06T01:46:48.189Z</time>
</trkpt>
<trkpt lat="-27.8538388" lon="152.6137763">
<ele>63.485</ele>
<time>2017-04-06T01:46:50.155Z</time>
</trkpt>
<trkpt lat="-27.8542302" lon="152.6137408">
<ele>63.539</ele>
<time>2017-04-06T01:46:52.082Z</time>
</trkpt>
<trkpt lat="-27.8548584" lon="152.6137784">
<ele>63.634</ele>
<time>2017-04-06T01:46:55.114Z</time>
</trkpt>
<trkpt lat="-27.8552779" lon="152.6136936">
<ele>64.057</ele>
<time>2017-04-06T01:46:57.176Z</time>
</trkpt>
<trkpt lat="-27.8558806" lon="152.6136810">
<ele>64.868</ele>
<time>2017-04-06T01:47:00.166Z</time>
</trkpt>
<trkpt lat="-27.8562699" lon="152.6137037">
<ele>65.621</ele>
<time>2017-04-06T01:47:02.157Z</time>
</trkpt>
<trkpt lat="-27.8566533" lon="152.6137284">
<ele>65.941</ele>
<time>2017-04-06T01:47:04.117Z</time>
</trkpt>
<trkpt lat="-27.8570420" lon="152.6137871">
<ele>65.921</ele>
<time>2017-04-06T01:47:06.058Z</time>
</trkpt>
<trkpt lat="-27.8576834" lon="152.6137660">
<ele>65.830</ele>
<time>2017-04-06T01:47:09.117Z</time>
</trkpt>
<trkpt lat="-27.8581389" lon="152.6138094">
<ele>66.032</ele>
<time>2017-04-06T01:47:11.127Z</time>
</trkpt>
<trkpt lat="-27.8588451" lon="152.6138692">
<ele>66.734</ele>
<time>2017-04-06T01:47:14.191Z</time>
</trkpt>
<trkpt lat="-27.8593222" lon="152.6139730">
<ele>67.960</ele>
<time>2017-04-06T01:47:16.524Z</time>
</trkpt>
<trkpt lat="-27.8598281" lon="152.6140138">
<ele>69.396</ele>
<time>2017-04-06T01:47:19.400Z</time>
</trkpt>
<trkpt lat="-27.8601187" lon="152.6140735">
<ele>70.275</ele>
<time>2017-04-06T01:47:21.203Z</time>
</trkpt>
<trkpt lat="-27.8604514" lon="152.6141295">
<ele>70.225</ele>
<time>2017-04-06T01:47:23.130Z</time>
</trkpt>
<trkpt lat="-27.8610033" lon="152.6142596">
<ele>69.877</ele>
<time>2017-04-06T01:47:26.238Z</time>
</trkpt>
<trkpt lat="-27.8613782" lon="152.6142763">
<ele>69.979</ele>
<time>2017-04-06T01:47:28.284Z</time>
</trkpt>
<trkpt lat="-27.8617396" lon="152.6143028">
<ele>70.638</ele>
<time>2017-04-06T01:47:30.265Z</time>
</trkpt>
<trkpt lat="-27.8622734" lon="152.6144261">
<ele>71.496</ele>
<time>2017-04-06T01:47:33.269Z</time>
</trkpt>
<trkpt lat="-27.8627965" lon="152.6145513">
<ele>72.295</ele>
<time>2017-04-06T01:47:36.233Z</time>
</trkpt>
<trkpt lat="-27.8631473" lon="152.6146400">
<ele>73.140</ele>
<time>2017-04-06T01:47:38.153Z</time>
</trkpt>
<trkpt lat="-27.8637118" lon="152.6147650">
<ele>74.176</ele>
<time>2017-04-06T01:47:41.090Z</time>
</trkpt>
<trkpt lat="-27.8641183" lon="152.6148112">
<ele>75.298</ele>
<time>2017-04-06T01:47:43.079Z</time>
</trkpt>
<trkpt lat="-27.8647350" lon="152.6149389">
<ele>76.204</ele>
<time>2017-04-06T01:47:46.102Z</time>
</trkpt>
<trkpt lat="-27.8651577" lon="152.6149716">
<ele>76.582</ele>
<time>2017-04-06T01:47:48.147Z</time>
</trkpt>
<trkpt lat="-27.8655713" lon="152.6150226">
<ele>76.292</ele>
<time>2017-04-06T01:47:50.180Z</time>
</trkpt>
<trkpt lat="-27.8661890" lon="152.6149771">
<ele>75.420</ele>
<time>2017-04-06T01:47:53.184Z</time>
</trkpt>
<trkpt lat="-27.8668174" lon="152.6150623">
<ele>73.902</ele>
<time>2017-04-06T01:47:56.194Z</time>
</trkpt>
<trkpt lat="-27.8672484" lon="152.6151528">
<ele>71.485</ele>
<time>2017-04-06T01:47:58.230Z</time>
</trkpt>
<trkpt lat="-27.8679213" lon="152.6152394">
<ele>68.424</ele>
<time>2017-04-06T01:48:01.343Z</time>
</trkpt>
<trkpt lat="-27.8683419" lon="152.6152868">
<ele>65.451</ele>
<time>2017-04-06T01:48:03.303Z</time>
</trkpt>
<trkpt lat="-27.8687541" lon="152.6153902">
<ele>63.147</ele>
<time>2017-04-06T01:48:05.287Z</time>
</trkpt>
<trkpt lat="-27.8693856" lon="152.6154565">
<ele>61.751</ele>
<time>2017-04-06T01:48:08.214Z</time>
</trkpt>
<trkpt lat="-27.8700451" lon="152.6155249">
<ele>61.162</ele>
<time>2017-04-06T01:48:11.188Z</time>
</trkpt>
<trkpt lat="-27.8707058" lon="152.6156768">
<ele>61.088</ele>
<time>2017-04-06T01:48:14.186Z</time>
</trkpt>
<trkpt lat="-27.8713816" lon="152.6157281">
<ele>61.330</ele>
<time>2017-04-06T01:48:17.199Z</time>
</trkpt>
<trkpt lat="-27.8720474" lon="152.6157777">
<ele>61.687</ele>
<time>2017-04-06T01:48:20.187Z</time>
</trkpt>
<trkpt lat="-27.8724775" lon="152.6159284">
<ele>61.922</ele>
<time>2017-04-06T01:48:22.252Z</time>
</trkpt>
<trkpt lat="-27.8731171" lon="152.6159811">
<ele>61.841</ele>
<time>2017-04-06T01:48:25.240Z</time>
</trkpt>
<trkpt lat="-27.8737525" lon="152.6160542">
<ele>61.313</ele>
<time>2017-04-06T01:48:28.212Z</time>
</trkpt>
<trkpt lat="-27.8741842" lon="152.6161199">
<ele>60.345</ele>
<time>2017-04-06T01:48:30.207Z</time>
</trkpt>
<trkpt lat="-27.8746269" lon="152.6160628">
<ele>59.242</ele>
<time>2017-04-06T01:48:32.226Z</time>
</trkpt>
<trkpt lat="-27.8752881" lon="152.6161121">
<ele>58.425</ele>
<time>2017-04-06T01:48:35.190Z</time>
</trkpt>
<trkpt lat="-27.8757400" lon="152.6161336">
<ele>58.226</ele>
<time>2017-04-06T01:48:37.086Z</time>
</trkpt>
<trkpt lat="-27.8762374" lon="152.6160959">
<ele>58.666</ele>
<time>2017-04-06T01:48:39.009Z</time>
</trkpt>
<trkpt lat="-27.8767710" lon="152.6159384">
<ele>59.391</ele>
<time>2017-04-06T01:48:40.933Z</time>
</trkpt>
<trkpt lat="-27.8776453" lon="152.6156336">
<ele>60.293</ele>
<time>2017-04-06T01:48:43.982Z</time>
</trkpt>
<trkpt lat="-27.8785363" lon="152.6153788">
<ele>61.564</ele>
<time>2017-04-06T01:48:46.957Z</time>
</trkpt>
<trkpt lat="-27.8791537" lon="152.6152674">
<ele>62.951</ele>
<time>2017-04-06T01:48:48.955Z</time>
</trkpt>
<trkpt lat="-27.8797553" lon="152.6150354">
<ele>64.029</ele>
<time>2017-04-06T01:48:50.973Z</time>
</trkpt>
<trkpt lat="-27.8803728" lon="152.6149566">
<ele>65.001</ele>
<time>2017-04-06T01:48:53.001Z</time>
</trkpt>
<trkpt lat="-27.8809320" lon="152.6147924">
<ele>66.188</ele>
<time>2017-04-06T01:48:55.022Z</time>
</trkpt>
<trkpt lat="-27.8817212" lon="152.6146004">
<ele>67.349</ele>
<time>2017-04-06T01:48:57.961Z</time>
</trkpt>
<trkpt lat="-27.8822247" lon="152.6144000">
<ele>68.229</ele>
<time>2017-04-06T01:49:00.021Z</time>
</trkpt>
<trkpt lat="-27.8829663" lon="152.6142359">
<ele>68.908</ele>
<time>2017-04-06T01:49:02.989Z</time>
</trkpt>
<trkpt lat="-27.8836737" lon="152.6139515">
<ele>69.396</ele>
<time>2017-04-06T01:49:05.958Z</time>
</trkpt>
<trkpt lat="-27.8844052" lon="152.6137261">
<ele>69.669</ele>
<time>2017-04-06T01:49:08.955Z</time>
</trkpt>
<trkpt lat="-27.8848982" lon="152.6136383">
<ele>69.781</ele>
<time>2017-04-06T01:49:10.935Z</time>
</trkpt>
<trkpt lat="-27.8853710" lon="152.6134194">
<ele>69.720</ele>
<time>2017-04-06T01:49:12.959Z</time>
</trkpt>
<trkpt lat="-27.8858642" lon="152.6133021">
<ele>69.520</ele>
<time>2017-04-06T01:49:14.959Z</time>
</trkpt>
<trkpt lat="-27.8866071" lon="152.6131583">
<ele>69.330</ele>
<time>2017-04-06T01:49:17.954Z</time>
</trkpt>
<trkpt lat="-27.8870899" lon="152.6130011">
<ele>69.365</ele>
<time>2017-04-06T01:49:19.948Z</time>
</trkpt>
<trkpt lat="-27.8875721" lon="152.6128384">
<ele>69.909</ele>
<time>2017-04-06T01:49:21.931Z</time>
</trkpt>
<trkpt lat="-27.8880320" lon="152.6125681">
<ele>71.186</ele>
<time>2017-04-06T01:49:23.962Z</time>
</trkpt>
<trkpt lat="-27.8886937" lon="152.6121427">
<ele>72.996</ele>
<time>2017-04-06T01:49:26.941Z</time>
</trkpt>
<trkpt lat="-27.8893712" lon="152.6117371">
<ele>74.652</ele>
<time>2017-04-06T01:49:29.938Z</time>
</trkpt>
<trkpt lat="-27.8899485" lon="152.6111462">
<ele>75.563</ele>
<time>2017-04-06T01:49:32.979Z</time>
</trkpt>
<trkpt lat="-27.8903885" lon="152.6108614">
<ele>75.443</ele>
<time>2017-04-06T01:49:34.976Z</time>
</trkpt>
<trkpt lat="-27.8909743" lon="152.6103250">
<ele>74.324</ele>
<time>2017-04-06T01:49:38.015Z</time>
</trkpt>
<trkpt lat="-27.8915713" lon="152.6098945">
<ele>72.588</ele>
<time>2017-04-06T01:49:40.980Z</time>
</trkpt>
<trkpt lat="-27.8919510" lon="152.6096018">
<ele>70.725</ele>
<time>2017-04-06T01:49:42.948Z</time>
</trkpt>
<trkpt lat="-27.8923495" lon="152.6093303">
<ele>69.180</ele>
<time>2017-04-06T01:49:44.946Z</time>
</trkpt>
<trkpt lat="-27.8929099" lon="152.6088696">
<ele>68.278</ele>
<time>2017-04-06T01:49:47.926Z</time>
</trkpt>
<trkpt lat="-27.8933015" lon="152.6085926">
<ele>67.879</ele>
<time>2017-04-06T01:49:49.924Z</time>
</trkpt>
<trkpt lat="-27.8937246" lon="152.6083712">
<ele>67.658</ele>
<time>2017-04-06T01:49:51.969Z</time>
</trkpt>
<trkpt lat="-27.8943601" lon="152.6081298">
<ele>67.419</ele>
<time>2017-04-06T01:49:54.942Z</time>
</trkpt>
<trkpt lat="-27.8949888" lon="152.6079008">
<ele>67.082</ele>
<time>2017-04-06T01:49:57.934Z</time>
</trkpt>
<trkpt lat="-27.8956075" lon="152.6076827">
<ele>66.607</ele>
<time>2017-04-06T01:50:00.973Z</time>
</trkpt>
<trkpt lat="-27.8962015" lon="152.6075361">
<ele>66.043</ele>
<time>2017-04-06T01:50:03.916Z</time>
</trkpt>
<trkpt lat="-27.8967789" lon="152.6073603">
<ele>65.449</ele>
<time>2017-04-06T01:50:06.810Z</time>
</trkpt>
<trkpt lat="-27.8974024" lon="152.6072130">
<ele>64.878</ele>
<time>2017-04-06T01:50:09.846Z</time>
</trkpt>
<trkpt lat="-27.8978023" lon="152.6070668">
<ele>64.445</ele>
<time>2017-04-06T01:50:11.830Z</time>
</trkpt>
<trkpt lat="-27.8984189" lon="152.6068778">
<ele>64.265</ele>
<time>2017-04-06T01:50:14.781Z</time>
</trkpt>
<trkpt lat="-27.8990813" lon="152.6066922">
<ele>64.418</ele>
<time>2017-04-06T01:50:17.715Z</time>
</trkpt>
<trkpt lat="-27.8998421" lon="152.6065084">
<ele>65.054</ele>
<time>2017-04-06T01:50:20.773Z</time>
</trkpt>
<trkpt lat="-27.9006195" lon="152.6063245">
<ele>66.490</ele>
<time>2017-04-06T01:50:23.848Z</time>
</trkpt>
<trkpt lat="-27.9012936" lon="152.6060629">
<ele>68.648</ele>
<time>2017-04-06T01:50:26.757Z</time>
</trkpt>
<trkpt lat="-27.9017341" lon="152.6058897">
<ele>70.644</ele>
<time>2017-04-06T01:50:28.729Z</time>
</trkpt>
<trkpt lat="-27.9024047" lon="152.6056455">
<ele>71.715</ele>
<time>2017-04-06T01:50:31.727Z</time>
</trkpt>
<trkpt lat="-27.9028494" lon="152.6055291">
<ele>71.999</ele>
<time>2017-04-06T01:50:33.705Z</time>
</trkpt>
<trkpt lat="-27.9034848" lon="152.6052526">
<ele>72.014</ele>
<time>2017-04-06T01:50:36.665Z</time>
</trkpt>
<trkpt lat="-27.9039073" lon="152.6050419">
<ele>72.236</ele>
<time>2017-04-06T01:50:38.651Z</time>
</trkpt>
<trkpt lat="-27.9045567" lon="152.6047463">
<ele>72.908</ele>
<time>2017-04-06T01:50:41.631Z</time>
</trkpt>
<trkpt lat="-27.9049905" lon="152.6045238">
<ele>74.014</ele>
<time>2017-04-06T01:50:43.568Z</time>
</trkpt>
<trkpt lat="-27.9057508" lon="152.6041120">
<ele>75.346</ele>
<time>2017-04-06T01:50:46.809Z</time>
</trkpt>
<trkpt lat="-27.9062739" lon="152.6038624">
<ele>76.883</ele>
<time>2017-04-06T01:50:48.754Z</time>
</trkpt>
<trkpt lat="-27.9068324" lon="152.6035438">
<ele>78.884</ele>
<time>2017-04-06T01:50:50.798Z</time>
</trkpt>
<trkpt lat="-27.9076185" lon="152.6030177">
<ele>81.335</ele>
<time>2017-04-06T01:50:53.718Z</time>
</trkpt>
<trkpt lat="-27.9081954" lon="152.6026821">
<ele>83.527</ele>
<time>2017-04-06T01:50:55.670Z</time>
</trkpt>
<trkpt lat="-27.9091260" lon="152.6021379">
<ele>84.597</ele>
<time>2017-04-06T01:50:58.759Z</time>
</trkpt>
<trkpt lat="-27.9099986" lon="152.6015577">
<ele>84.302</ele>
<time>2017-04-06T01:51:01.787Z</time>
</trkpt>
<trkpt lat="-27.9105473" lon="152.6012230">
<ele>83.276</ele>
<time>2017-04-06T01:51:03.771Z</time>
</trkpt>
<trkpt lat="-27.9110666" lon="152.6008885">
<ele>82.129</ele>
<time>2017-04-06T01:51:05.791Z</time>
</trkpt>
<trkpt lat="-27.9117630" lon="152.6003653">
<ele>81.051</ele>
<time>2017-04-06T01:51:08.755Z</time>
</trkpt>
<trkpt lat="-27.9124154" lon="152.5998511">
<ele>80.271</ele>
<time>2017-04-06T01:51:11.743Z</time>
</trkpt>
<trkpt lat="-27.9130820" lon="152.5994502">
<ele>79.961</ele>
<time>2017-04-06T01:51:14.682Z</time>
</trkpt>
<trkpt lat="-27.9135454" lon="152.5992171">
<ele>79.823</ele>
<time>2017-04-06T01:51:16.671Z</time>
</trkpt>
<trkpt lat="-27.9142447" lon="152.5988742">
<ele>79.445</ele>
<time>2017-04-06T01:51:19.650Z</time>
</trkpt>
<trkpt lat="-27.9149178" lon="152.5984660">
<ele>78.659</ele>
<time>2017-04-06T01:51:22.625Z</time>
</trkpt>
<trkpt lat="-27.9153519" lon="152.5981617">
<ele>77.684</ele>
<time>2017-04-06T01:51:24.618Z</time>
</trkpt>
<trkpt lat="-27.9157883" lon="152.5978853">
<ele>76.942</ele>
<time>2017-04-06T01:51:26.578Z</time>
</trkpt>
<trkpt lat="-27.9164571" lon="152.5974720">
<ele>76.796</ele>
<time>2017-04-06T01:51:29.564Z</time>
</trkpt>
<trkpt lat="-27.9169210" lon="152.5972257">
<ele>77.610</ele>
<time>2017-04-06T01:51:31.561Z</time>
</trkpt>
<trkpt lat="-27.9173710" lon="152.5969547">
<ele>79.442</ele>
<time>2017-04-06T01:51:33.616Z</time>
</trkpt>
<trkpt lat="-27.9180359" lon="152.5966990">
<ele>81.702</ele>
<time>2017-04-06T01:51:36.615Z</time>
</trkpt>
<trkpt lat="-27.9186736" lon="152.5966336">
<ele>83.563</ele>
<time>2017-04-06T01:51:39.560Z</time>
</trkpt>
<trkpt lat="-27.9190799" lon="152.5965265">
<ele>84.523</ele>
<time>2017-04-06T01:51:41.570Z</time>
</trkpt>
<trkpt lat="-27.9194776" lon="152.5964430">
<ele>84.476</ele>
<time>2017-04-06T01:51:43.536Z</time>
</trkpt>
<trkpt lat="-27.9200846" lon="152.5963373">
<ele>83.551</ele>
<time>2017-04-06T01:51:46.533Z</time>
</trkpt>
<trkpt lat="-27.9206746" lon="152.5962174">
<ele>81.753</ele>
<time>2017-04-06T01:51:49.513Z</time>
</trkpt>
<trkpt lat="-27.9212392" lon="152.5961076">
<ele>78.935</ele>
<time>2017-04-06T01:51:52.446Z</time>
</trkpt>
<trkpt lat="-27.9218117" lon="152.5960518">
<ele>75.279</ele>
<time>2017-04-06T01:51:55.401Z</time>
</trkpt>
<trkpt lat="-27.9224032" lon="152.5958561">
<ele>71.708</ele>
<time>2017-04-06T01:51:58.380Z</time>
</trkpt>
<trkpt lat="-27.9230879" lon="152.5957475">
<ele>69.287</ele>
<time>2017-04-06T01:52:01.385Z</time>
</trkpt>
<trkpt lat="-27.9235958" lon="152.5956631">
<ele>68.419</ele>
<time>2017-04-06T01:52:03.386Z</time>
</trkpt>
<trkpt lat="-27.9241277" lon="152.5955091">
<ele>68.737</ele>
<time>2017-04-06T01:52:05.356Z</time>
</trkpt>
<trkpt lat="-27.9251047" lon="152.5953465">
<ele>69.760</ele>
<time>2017-04-06T01:52:08.607Z</time>
</trkpt>
<trkpt lat="-27.9261624" lon="152.5952119">
<ele>71.314</ele>
<time>2017-04-06T01:52:11.714Z</time>
</trkpt>
<trkpt lat="-27.9272685" lon="152.5949993">
<ele>72.997</ele>
<time>2017-04-06T01:52:14.754Z</time>
</trkpt>
<trkpt lat="-27.9280076" lon="152.5949580">
<ele>74.000</ele>
<time>2017-04-06T01:52:16.847Z</time>
</trkpt>
<trkpt lat="-27.9289552" lon="152.5948314">
<ele>74.073</ele>
<time>2017-04-06T01:52:19.797Z</time>
</trkpt>
<trkpt lat="-27.9297683" lon="152.5945412">
<ele>73.837</ele>
<time>2017-04-06T01:52:22.766Z</time>
</trkpt>
<trkpt lat="-27.9302521" lon="152.5944185">
<ele>73.843</ele>
<time>2017-04-06T01:52:24.698Z</time>
</trkpt>
<trkpt lat="-27.9307501" lon="152.5944297">
<ele>74.036</ele>
<time>2017-04-06T01:52:26.669Z</time>
</trkpt>
<trkpt lat="-27.9314880" lon="152.5942223">
<ele>74.338</ele>
<time>2017-04-06T01:52:29.643Z</time>
</trkpt>
<trkpt lat="-27.9320013" lon="152.5941067">
<ele>74.997</ele>
<time>2017-04-06T01:52:31.659Z</time>
</trkpt>
<trkpt lat="-27.9327119" lon="152.5937397">
<ele>75.940</ele>
<time>2017-04-06T01:52:34.673Z</time>
</trkpt>
<trkpt lat="-27.9333433" lon="152.5932348">
<ele>76.372</ele>
<time>2017-04-06T01:52:37.674Z</time>
</trkpt>
<trkpt lat="-27.9339340" lon="152.5926954">
<ele>75.425</ele>
<time>2017-04-06T01:52:40.635Z</time>
</trkpt>
<trkpt lat="-27.9345647" lon="152.5922158">
<ele>73.024</ele>
<time>2017-04-06T01:52:43.598Z</time>
</trkpt>
<trkpt lat="-27.9349472" lon="152.5918267">
<ele>69.861</ele>
<time>2017-04-06T01:52:45.593Z</time>
</trkpt>
<trkpt lat="-27.9353435" lon="152.5914620">
<ele>66.760</ele>
<time>2017-04-06T01:52:47.571Z</time>
</trkpt>
<trkpt lat="-27.9357081" lon="152.5910495">
<ele>64.233</ele>
<time>2017-04-06T01:52:49.572Z</time>
</trkpt>
<trkpt lat="-27.9363320" lon="152.5905451">
<ele>62.457</ele>
<time>2017-04-06T01:52:52.548Z</time>
</trkpt>
<trkpt lat="-27.9367286" lon="152.5901741">
<ele>61.358</ele>
<time>2017-04-06T01:52:54.541Z</time>
</trkpt>
<trkpt lat="-27.9373047" lon="152.5896017">
<ele>60.756</ele>
<time>2017-04-06T01:52:57.509Z</time>
</trkpt>
<trkpt lat="-27.9379045" lon="152.5890613">
<ele>60.488</ele>
<time>2017-04-06T01:53:00.478Z</time>
</trkpt>
<trkpt lat="-27.9385175" lon="152.5885390">
<ele>60.403</ele>
<time>2017-04-06T01:53:03.448Z</time>
</trkpt>
<trkpt lat="-27.9391025" lon="152.5879706">
<ele>60.371</ele>
<time>2017-04-06T01:53:06.428Z</time>
</trkpt>
<trkpt lat="-27.9394857" lon="152.5875851">
<ele>60.349</ele>
<time>2017-04-06T01:53:08.411Z</time>
</trkpt>
<trkpt lat="-27.9399065" lon="152.5872600">
<ele>60.325</ele>
<time>2017-04-06T01:53:10.381Z</time>
</trkpt>
<trkpt lat="-27.9405079" lon="152.5867134">
<ele>60.314</ele>
<time>2017-04-06T01:53:13.365Z</time>
</trkpt>
<trkpt lat="-27.9411002" lon="152.5861584">
<ele>60.330</ele>
<time>2017-04-06T01:53:16.340Z</time>
</trkpt>
<trkpt lat="-27.9414815" lon="152.5857705">
<ele>60.311</ele>
<time>2017-04-06T01:53:18.324Z</time>
</trkpt>
<trkpt lat="-27.9420514" lon="152.5851799">
<ele>60.211</ele>
<time>2017-04-06T01:53:21.315Z</time>
</trkpt>
<trkpt lat="-27.9426356" lon="152.5846156">
<ele>60.099</ele>
<time>2017-04-06T01:53:24.286Z</time>
</trkpt>
<trkpt lat="-27.9433147" lon="152.5841970">
<ele>60.084</ele>
<time>2017-04-06T01:53:27.273Z</time>
</trkpt>
<trkpt lat="-27.9437441" lon="152.5838722">
<ele>60.189</ele>
<time>2017-04-06T01:53:29.259Z</time>
</trkpt>
<trkpt lat="-27.9441785" lon="152.5835156">
<ele>60.343</ele>
<time>2017-04-06T01:53:31.322Z</time>
</trkpt>
<trkpt lat="-27.9448301" lon="152.5830524">
<ele>60.508</ele>
<time>2017-04-06T01:53:34.288Z</time>
</trkpt>
<trkpt lat="-27.9455022" lon="152.5826340">
<ele>60.825</ele>
<time>2017-04-06T01:53:37.249Z</time>
</trkpt>
<trkpt lat="-27.9459272" lon="152.5823019">
<ele>61.447</ele>
<time>2017-04-06T01:53:39.243Z</time>
</trkpt>
<trkpt lat="-27.9463767" lon="152.5820125">
<ele>62.211</ele>
<time>2017-04-06T01:53:41.241Z</time>
</trkpt>
<trkpt lat="-27.9470150" lon="152.5815245">
<ele>62.784</ele>
<time>2017-04-06T01:53:44.216Z</time>
</trkpt>
<trkpt lat="-27.9476554" lon="152.5810310">
<ele>63.062</ele>
<time>2017-04-06T01:53:47.207Z</time>
</trkpt>
<trkpt lat="-27.9480980" lon="152.5807392">
<ele>63.154</ele>
<time>2017-04-06T01:53:49.185Z</time>
</trkpt>
<trkpt lat="-27.9485431" lon="152.5804489">
<ele>63.181</ele>
<time>2017-04-06T01:53:51.173Z</time>
</trkpt>
<trkpt lat="-27.9491635" lon="152.5799342">
<ele>63.234</ele>
<time>2017-04-06T01:53:54.159Z</time>
</trkpt>
<trkpt lat="-27.9495925" lon="152.5796271">
<ele>63.372</ele>
<time>2017-04-06T01:53:56.131Z</time>
</trkpt>
<trkpt lat="-27.9502546" lon="152.5791791">
<ele>63.600</ele>
<time>2017-04-06T01:53:59.125Z</time>
</trkpt>
<trkpt lat="-27.9509097" lon="152.5787230">
<ele>63.904</ele>
<time>2017-04-06T01:54:02.107Z</time>
</trkpt>
<trkpt lat="-27.9514077" lon="152.5785678">
<ele>64.335</ele>
<time>2017-04-06T01:54:04.115Z</time>
</trkpt>
<trkpt lat="-27.9519094" lon="152.5784479">
<ele>64.883</ele>
<time>2017-04-06T01:54:06.107Z</time>
</trkpt>
<trkpt lat="-27.9524233" lon="152.5783645">
<ele>65.454</ele>
<time>2017-04-06T01:54:08.120Z</time>
</trkpt>
<trkpt lat="-27.9531969" lon="152.5784617">
<ele>66.001</ele>
<time>2017-04-06T01:54:11.130Z</time>
</trkpt>
<trkpt lat="-27.9539603" lon="152.5786450">
<ele>66.498</ele>
<time>2017-04-06T01:54:14.130Z</time>
</trkpt>
<trkpt lat="-27.9547577" lon="152.5787093">
<ele>66.884</ele>
<time>2017-04-06T01:54:17.193Z</time>
</trkpt>
<trkpt lat="-27.9555421" lon="152.5787556">
<ele>67.154</ele>
<time>2017-04-06T01:54:20.204Z</time>
</trkpt>
<trkpt lat="-27.9563101" lon="152.5788462">
<ele>67.435</ele>
<time>2017-04-06T01:54:23.181Z</time>
</trkpt>
<trkpt lat="-27.9570626" lon="152.5789036">
<ele>67.854</ele>
<time>2017-04-06T01:54:26.123Z</time>
</trkpt>
<trkpt lat="-27.9575427" lon="152.5790418">
<ele>68.319</ele>
<time>2017-04-06T01:54:28.078Z</time>
</trkpt>
<trkpt lat="-27.9580631" lon="152.5790713">
<ele>68.628</ele>
<time>2017-04-06T01:54:30.140Z</time>
</trkpt>
<trkpt lat="-27.9588067" lon="152.5791100">
<ele>68.677</ele>
<time>2017-04-06T01:54:33.087Z</time>
</trkpt>
<trkpt lat="-27.9595592" lon="152.5792076">
<ele>68.509</ele>
<time>2017-04-06T01:54:36.082Z</time>
</trkpt>
<trkpt lat="-27.9600668" lon="152.5791978">
<ele>68.275</ele>
<time>2017-04-06T01:54:38.080Z</time>
</trkpt>
<trkpt lat="-27.9605736" lon="152.5791926">
<ele>68.121</ele>
<time>2017-04-06T01:54:40.072Z</time>
</trkpt>
<trkpt lat="-27.9613150" lon="152.5789902">
<ele>68.061</ele>
<time>2017-04-06T01:54:43.067Z</time>
</trkpt>
<trkpt lat="-27.9619851" lon="152.5785632">
<ele>68.036</ele>
<time>2017-04-06T01:54:46.084Z</time>
</trkpt>
<trkpt lat="-27.9624380" lon="152.5783018">
<ele>68.016</ele>
<time>2017-04-06T01:54:48.082Z</time>
</trkpt>
<trkpt lat="-27.9630999" lon="152.5778905">
<ele>68.001</ele>
<time>2017-04-06T01:54:51.050Z</time>
</trkpt>
<trkpt lat="-27.9637922" lon="152.5775332">
<ele>67.959</ele>
<time>2017-04-06T01:54:54.031Z</time>
</trkpt>
<trkpt lat="-27.9644768" lon="152.5771451">
<ele>67.850</ele>
<time>2017-04-06T01:54:57.023Z</time>
</trkpt>
<trkpt lat="-27.9649589" lon="152.5769566">
<ele>67.703</ele>
<time>2017-04-06T01:54:59.019Z</time>
</trkpt>
<trkpt lat="-27.9654003" lon="152.5766690">
<ele>67.667</ele>
<time>2017-04-06T01:55:01.017Z</time>
</trkpt>
<trkpt lat="-27.9661047" lon="152.5763497">
<ele>67.806</ele>
<time>2017-04-06T01:55:03.997Z</time>
</trkpt>
<trkpt lat="-27.9667586" lon="152.5758992">
<ele>67.962</ele>
<time>2017-04-06T01:55:07.001Z</time>
</trkpt>
<trkpt lat="-27.9672220" lon="152.5756605">
<ele>67.986</ele>
<time>2017-04-06T01:55:09.000Z</time>
</trkpt>
<trkpt lat="-27.9678901" lon="152.5751852">
<ele>67.921</ele>
<time>2017-04-06T01:55:12.100Z</time>
</trkpt>
<trkpt lat="-27.9684060" lon="152.5745469">
<ele>67.848</ele>
<time>2017-04-06T01:55:15.102Z</time>
</trkpt>
<trkpt lat="-27.9688145" lon="152.5738265">
<ele>67.790</ele>
<time>2017-04-06T01:55:18.069Z</time>
</trkpt>
<trkpt lat="-27.9690164" lon="152.5733059">
<ele>67.791</ele>
<time>2017-04-06T01:55:20.036Z</time>
</trkpt>
<trkpt lat="-27.9691546" lon="152.5727475">
<ele>67.871</ele>
<time>2017-04-06T01:55:22.040Z</time>
</trkpt>
<trkpt lat="-27.9693313" lon="152.5719083">
<ele>68.010</ele>
<time>2017-04-06T01:55:25.018Z</time>
</trkpt>
<trkpt lat="-27.9694631" lon="152.5713553">
<ele>68.171</ele>
<time>2017-04-06T01:55:26.998Z</time>
</trkpt>
<trkpt lat="-27.9697137" lon="152.5705493">
<ele>68.239</ele>
<time>2017-04-06T01:55:29.958Z</time>
</trkpt>
<trkpt lat="-27.9698685" lon="152.5697061">
<ele>68.133</ele>
<time>2017-04-06T01:55:32.949Z</time>
</trkpt>
<trkpt lat="-27.9700440" lon="152.5691661">
<ele>67.963</ele>
<time>2017-04-06T01:55:34.947Z</time>
</trkpt>
<trkpt lat="-27.9701642" lon="152.5686062">
<ele>67.928</ele>
<time>2017-04-06T01:55:36.945Z</time>
</trkpt>
<trkpt lat="-27.9703136" lon="152.5680611">
<ele>68.120</ele>
<time>2017-04-06T01:55:38.923Z</time>
</trkpt>
<trkpt lat="-27.9704534" lon="152.5675086">
<ele>68.433</ele>
<time>2017-04-06T01:55:40.915Z</time>
</trkpt>
<trkpt lat="-27.9706155" lon="152.5666675">
<ele>68.674</ele>
<time>2017-04-06T01:55:43.897Z</time>
</trkpt>
<trkpt lat="-27.9708221" lon="152.5658386">
<ele>68.755</ele>
<time>2017-04-06T01:55:46.877Z</time>
</trkpt>
<trkpt lat="-27.9710768" lon="152.5650296">
<ele>68.710</ele>
<time>2017-04-06T01:55:49.850Z</time>
</trkpt>
<trkpt lat="-27.9712636" lon="152.5641927">
<ele>68.715</ele>
<time>2017-04-06T01:55:52.836Z</time>
</trkpt>
<trkpt lat="-27.9714389" lon="152.5636530">
<ele>68.907</ele>
<time>2017-04-06T01:55:54.822Z</time>
</trkpt>
<trkpt lat="-27.9715700" lon="152.5630994">
<ele>69.204</ele>
<time>2017-04-06T01:55:56.810Z</time>
</trkpt>
<trkpt lat="-27.9718897" lon="152.5623302">
<ele>69.634</ele>
<time>2017-04-06T01:55:59.803Z</time>
</trkpt>
<trkpt lat="-27.9721937" lon="152.5616106">
<ele>70.470</ele>
<time>2017-04-06T01:56:02.716Z</time>
</trkpt>
<trkpt lat="-27.9723927" lon="152.5611724">
<ele>71.658</ele>
<time>2017-04-06T01:56:04.618Z</time>
</trkpt>
<trkpt lat="-27.9725849" lon="152.5607289">
<ele>72.858</ele>
<time>2017-04-06T01:56:06.588Z</time>
</trkpt>
<trkpt lat="-27.9728599" lon="152.5600710">
<ele>74.012</ele>
<time>2017-04-06T01:56:09.547Z</time>
</trkpt>
<trkpt lat="-27.9731762" lon="152.5594841">
<ele>75.385</ele>
<time>2017-04-06T01:56:12.432Z</time>
</trkpt>
<trkpt lat="-27.9735254" lon="152.5589489">
<ele>77.228</ele>
<time>2017-04-06T01:56:15.342Z</time>
</trkpt>
<trkpt lat="-27.9737542" lon="152.5586101">
<ele>79.382</ele>
<time>2017-04-06T01:56:17.278Z</time>
</trkpt>
<trkpt lat="-27.9740031" lon="152.5583170">
<ele>81.207</ele>
<time>2017-04-06T01:56:19.188Z</time>
</trkpt>
<trkpt lat="-27.9743062" lon="152.5578741">
<ele>82.213</ele>
<time>2017-04-06T01:56:21.976Z</time>
</trkpt>
<trkpt lat="-27.9745961" lon="152.5574514">
<ele>82.402</ele>
<time>2017-04-06T01:56:24.854Z</time>
</trkpt>
<trkpt lat="-27.9748643" lon="152.5569978">
<ele>82.108</ele>
<time>2017-04-06T01:56:27.861Z</time>
</trkpt>
<trkpt lat="-27.9751086" lon="152.5567617">
<ele>81.691</ele>
<time>2017-04-06T01:56:29.852Z</time>
</trkpt>
<trkpt lat="-27.9752492" lon="152.5564500">
<ele>81.252</ele>
<time>2017-04-06T01:56:31.796Z</time>
</trkpt>
<trkpt lat="-27.9755626" lon="152.5560813">
<ele>80.760</ele>
<time>2017-04-06T01:56:34.724Z</time>
</trkpt>
<trkpt lat="-27.9758247" lon="152.5556478">
<ele>80.301</ele>
<time>2017-04-06T01:56:37.731Z</time>
</trkpt>
<trkpt lat="-27.9760442" lon="152.5553661">
<ele>79.934</ele>
<time>2017-04-06T01:56:39.817Z</time>
</trkpt>
<trkpt lat="-27.9763522" lon="152.5549133">
<ele>79.621</ele>
<time>2017-04-06T01:56:42.864Z</time>
</trkpt>
<trkpt lat="-27.9766367" lon="152.5544203">
<ele>79.326</ele>
<time>2017-04-06T01:56:45.927Z</time>
</trkpt>
<trkpt lat="-27.9769491" lon="152.5539755">
<ele>79.066</ele>
<time>2017-04-06T01:56:48.885Z</time>
</trkpt>
<trkpt lat="-27.9771485" lon="152.5536791">
<ele>78.728</ele>
<time>2017-04-06T01:56:50.847Z</time>
</trkpt>
<trkpt lat="-27.9774701" lon="152.5533090">
<ele>78.113</ele>
<time>2017-04-06T01:56:53.688Z</time>
</trkpt>
<trkpt lat="-27.9776348" lon="152.5530634">
<ele>77.173</ele>
<time>2017-04-06T01:56:55.490Z</time>
</trkpt>
<trkpt lat="-27.9778823" lon="152.5527454">
<ele>76.036</ele>
<time>2017-04-06T01:56:58.195Z</time>
</trkpt>
<trkpt lat="-27.9780256" lon="152.5525067">
<ele>74.867</ele>
<time>2017-04-06T01:57:00.135Z</time>
</trkpt>
<trkpt lat="-27.9783037" lon="152.5522064">
<ele>73.875</ele>
<time>2017-04-06T01:57:03.141Z</time>
</trkpt>
<trkpt lat="-27.9785133" lon="152.5518021">
<ele>73.191</ele>
<time>2017-04-06T01:57:06.284Z</time>
</trkpt>
<trkpt lat="-27.9786942" lon="152.5515576">
<ele>72.817</ele>
<time>2017-04-06T01:57:08.332Z</time>
</trkpt>
<trkpt lat="-27.9789228" lon="152.5513404">
<ele>72.682</ele>
<time>2017-04-06T01:57:10.430Z</time>
</trkpt>
<trkpt lat="-27.9791921" lon="152.5509506">
<ele>72.733</ele>
<time>2017-04-06T01:57:13.446Z</time>
</trkpt>
<trkpt lat="-27.9794874" lon="152.5505874">
<ele>72.919</ele>
<time>2017-04-06T01:57:16.443Z</time>
</trkpt>
<trkpt lat="-27.9797482" lon="152.5501921">
<ele>73.210</ele>
<time>2017-04-06T01:57:19.438Z</time>
</trkpt>
<trkpt lat="-27.9800902" lon="152.5498884">
<ele>73.542</ele>
<time>2017-04-06T01:57:22.427Z</time>
</trkpt>
<trkpt lat="-27.9804207" lon="152.5495640">
<ele>73.805</ele>
<time>2017-04-06T01:57:25.427Z</time>
</trkpt>
<trkpt lat="-27.9806289" lon="152.5493310">
<ele>73.941</ele>
<time>2017-04-06T01:57:27.419Z</time>
</trkpt>
<trkpt lat="-27.9808422" lon="152.5491182">
<ele>73.988</ele>
<time>2017-04-06T01:57:29.367Z</time>
</trkpt>
<trkpt lat="-27.9811519" lon="152.5488306">
<ele>73.982</ele>
<time>2017-04-06T01:57:32.218Z</time>
</trkpt>
<trkpt lat="-27.9814398" lon="152.5485128">
<ele>73.941</ele>
<time>2017-04-06T01:57:35.182Z</time>
</trkpt>
<trkpt lat="-27.9817702" lon="152.5482701">
<ele>73.897</ele>
<time>2017-04-06T01:57:38.137Z</time>
</trkpt>
<trkpt lat="-27.9819573" lon="152.5480612">
<ele>73.921</ele>
<time>2017-04-06T01:57:40.129Z</time>
</trkpt>
<trkpt lat="-27.9821797" lon="152.5479043">
<ele>74.051</ele>
<time>2017-04-06T01:57:42.140Z</time>
</trkpt>
<trkpt lat="-27.9823712" lon="152.5476916">
<ele>74.247</ele>
<time>2017-04-06T01:57:44.193Z</time>
</trkpt>
<trkpt lat="-27.9826981" lon="152.5474018">
<ele>74.464</ele>
<time>2017-04-06T01:57:47.283Z</time>
</trkpt>
<trkpt lat="-27.9830325" lon="152.5471009">
<ele>74.678</ele>
<time>2017-04-06T01:57:50.339Z</time>
</trkpt>
<trkpt lat="-27.9832468" lon="152.5468668">
<ele>74.924</ele>
<time>2017-04-06T01:57:52.407Z</time>
</trkpt>
<trkpt lat="-27.9834846" lon="152.5466500">
<ele>75.278</ele>
<time>2017-04-06T01:57:54.469Z</time>
</trkpt>
<trkpt lat="-27.9838255" lon="152.5462994">
<ele>75.687</ele>
<time>2017-04-06T01:57:57.491Z</time>
</trkpt>
<trkpt lat="-27.9840555" lon="152.5460617">
<ele>76.003</ele>
<time>2017-04-06T01:57:59.505Z</time>
</trkpt>
<trkpt lat="-27.9844248" lon="152.5456728">
<ele>76.188</ele>
<time>2017-04-06T01:58:02.665Z</time>
</trkpt>
<trkpt lat="-27.9846866" lon="152.5453974">
<ele>76.399</ele>
<time>2017-04-06T01:58:04.782Z</time>
</trkpt>
<trkpt lat="-27.9851338" lon="152.5450281">
<ele>76.784</ele>
<time>2017-04-06T01:58:07.862Z</time>
</trkpt>
<trkpt lat="-27.9854229" lon="152.5447675">
<ele>77.242</ele>
<time>2017-04-06T01:58:09.861Z</time>
</trkpt>
<trkpt lat="-27.9858706" lon="152.5443296">
<ele>77.601</ele>
<time>2017-04-06T01:58:13.024Z</time>
</trkpt>
<trkpt lat="-27.9861886" lon="152.5440395">
<ele>77.964</ele>
<time>2017-04-06T01:58:15.141Z</time>
</trkpt>
<trkpt lat="-27.9866218" lon="152.5435602">
<ele>78.517</ele>
<time>2017-04-06T01:58:18.192Z</time>
</trkpt>
<trkpt lat="-27.9869558" lon="152.5433318">
<ele>79.229</ele>
<time>2017-04-06T01:58:20.161Z</time>
</trkpt>
<trkpt lat="-27.9872459" lon="152.5430454">
<ele>79.908</ele>
<time>2017-04-06T01:58:22.129Z</time>
</trkpt>
<trkpt lat="-27.9876698" lon="152.5425719">
<ele>80.455</ele>
<time>2017-04-06T01:58:25.156Z</time>
</trkpt>
<trkpt lat="-27.9881431" lon="152.5421491">
<ele>81.075</ele>
<time>2017-04-06T01:58:28.178Z</time>
</trkpt>
<trkpt lat="-27.9884779" lon="152.5419111">
<ele>82.012</ele>
<time>2017-04-06T01:58:30.164Z</time>
</trkpt>
<trkpt lat="-27.9888848" lon="152.5414228">
<ele>83.162</ele>
<time>2017-04-06T01:58:33.168Z</time>
</trkpt>
<trkpt lat="-27.9891695" lon="152.5411195">
<ele>84.282</ele>
<time>2017-04-06T01:58:35.159Z</time>
</trkpt>
<trkpt lat="-27.9895575" lon="152.5406054">
<ele>85.270</ele>
<time>2017-04-06T01:58:38.189Z</time>
</trkpt>
<trkpt lat="-27.9899507" lon="152.5400994">
<ele>86.047</ele>
<time>2017-04-06T01:58:41.192Z</time>
</trkpt>
<trkpt lat="-27.9903386" lon="152.5396031">
<ele>86.581</ele>
<time>2017-04-06T01:58:44.158Z</time>
</trkpt>
<trkpt lat="-27.9906192" lon="152.5392984">
<ele>87.009</ele>
<time>2017-04-06T01:58:46.146Z</time>
</trkpt>
<trkpt lat="-27.9910044" lon="152.5387953">
<ele>87.507</ele>
<time>2017-04-06T01:58:49.147Z</time>
</trkpt>
<trkpt lat="-27.9913967" lon="152.5382889">
<ele>88.204</ele>
<time>2017-04-06T01:58:52.128Z</time>
</trkpt>
<trkpt lat="-27.9917822" lon="152.5377296">
<ele>89.156</ele>
<time>2017-04-06T01:58:55.180Z</time>
</trkpt>
<trkpt lat="-27.9922177" lon="152.5371929">
<ele>90.243</ele>
<time>2017-04-06T01:58:58.219Z</time>
</trkpt>
<trkpt lat="-27.9926217" lon="152.5366252">
<ele>91.238</ele>
<time>2017-04-06T01:59:01.216Z</time>
</trkpt>
<trkpt lat="-27.9929205" lon="152.5362757">
<ele>92.056</ele>
<time>2017-04-06T01:59:03.213Z</time>
</trkpt>
<trkpt lat="-27.9933702" lon="152.5357442">
<ele>92.775</ele>
<time>2017-04-06T01:59:06.229Z</time>
</trkpt>
<trkpt lat="-27.9936674" lon="152.5353953">
<ele>93.463</ele>
<time>2017-04-06T01:59:08.219Z</time>
</trkpt>
<trkpt lat="-27.9941347" lon="152.5349452">
<ele>94.077</ele>
<time>2017-04-06T01:59:11.132Z</time>
</trkpt>
<trkpt lat="-27.9944503" lon="152.5346634">
<ele>94.614</ele>
<time>2017-04-06T01:59:13.103Z</time>
</trkpt>
<trkpt lat="-27.9947553" lon="152.5343809">
<ele>95.130</ele>
<time>2017-04-06T01:59:15.074Z</time>
</trkpt>
<trkpt lat="-27.9951088" lon="152.5341668">
<ele>95.713</ele>
<time>2017-04-06T01:59:17.074Z</time>
</trkpt>
<trkpt lat="-27.9956211" lon="152.5338477">
<ele>96.554</ele>
<time>2017-04-06T01:59:20.004Z</time>
</trkpt>
<trkpt lat="-27.9959832" lon="152.5336246">
<ele>97.844</ele>
<time>2017-04-06T01:59:22.060Z</time>
</trkpt>
<trkpt lat="-27.9965230" lon="152.5333146">
<ele>99.525</ele>
<time>2017-04-06T01:59:25.034Z</time>
</trkpt>
<trkpt lat="-27.9968985" lon="152.5331539">
<ele>101.487</ele>
<time>2017-04-06T01:59:27.025Z</time>
</trkpt>
<trkpt lat="-27.9974072" lon="152.5328099">
<ele>103.612</ele>
<time>2017-04-06T01:59:30.005Z</time>
</trkpt>
<trkpt lat="-27.9977519" lon="152.5325998">
<ele>105.676</ele>
<time>2017-04-06T01:59:31.997Z</time>
</trkpt>
<trkpt lat="-27.9982495" lon="152.5322684">
<ele>107.482</ele>
<time>2017-04-06T01:59:34.972Z</time>
</trkpt>
<trkpt lat="-27.9986066" lon="152.5320831">
<ele>108.999</ele>
<time>2017-04-06T01:59:37.025Z</time>
</trkpt>
<trkpt lat="-27.9989131" lon="152.5318495">
<ele>110.219</ele>
<time>2017-04-06T01:59:38.962Z</time>
</trkpt>
<trkpt lat="-27.9992274" lon="152.5315841">
<ele>111.126</ele>
<time>2017-04-06T01:59:41.004Z</time>
</trkpt>
<trkpt lat="-27.9996967" lon="152.5311759">
<ele>111.743</ele>
<time>2017-04-06T01:59:44.087Z</time>
</trkpt>
<trkpt lat="-28.0001301" lon="152.5308404">
<ele>112.126</ele>
<time>2017-04-06T01:59:46.936Z</time>
</trkpt>
<trkpt lat="-28.0005573" lon="152.5303725">
<ele>112.287</ele>
<time>2017-04-06T01:59:50.158Z</time>
</trkpt>
<trkpt lat="-28.0009146" lon="152.5300672">
<ele>112.367</ele>
<time>2017-04-06T01:59:52.357Z</time>
</trkpt>
<trkpt lat="-28.0012731" lon="152.5297975">
<ele>112.641</ele>
<time>2017-04-06T01:59:54.358Z</time>
</trkpt>
<trkpt lat="-28.0015895" lon="152.5294921">
<ele>113.191</ele>
<time>2017-04-06T01:59:56.286Z</time>
</trkpt>
<trkpt lat="-28.0021255" lon="152.5291321">
<ele>113.784</ele>
<time>2017-04-06T01:59:59.212Z</time>
</trkpt>
<trkpt lat="-28.0024394" lon="152.5287984">
<ele>114.189</ele>
<time>2017-04-06T02:00:01.248Z</time>
</trkpt>
<trkpt lat="-28.0028248" lon="152.5285818">
<ele>114.425</ele>
<time>2017-04-06T02:00:03.271Z</time>
</trkpt>
<trkpt lat="-28.0032150" lon="152.5283719">
<ele>114.707</ele>
<time>2017-04-06T02:00:05.274Z</time>
</trkpt>
<trkpt lat="-28.0037734" lon="152.5279334">
<ele>115.214</ele>
<time>2017-04-06T02:00:08.344Z</time>
</trkpt>
<trkpt lat="-28.0041917" lon="152.5277517">
<ele>116.040</ele>
<time>2017-04-06T02:00:10.356Z</time>
</trkpt>
<trkpt lat="-28.0047122" lon="152.5273318">
<ele>117.142</ele>
<time>2017-04-06T02:00:13.287Z</time>
</trkpt>
<trkpt lat="-28.0050953" lon="152.5271170">
<ele>118.319</ele>
<time>2017-04-06T02:00:15.279Z</time>
</trkpt>
<trkpt lat="-28.0056564" lon="152.5267558">
<ele>119.378</ele>
<time>2017-04-06T02:00:18.270Z</time>
</trkpt>
<trkpt lat="-28.0060279" lon="152.5265038">
<ele>120.240</ele>
<time>2017-04-06T02:00:20.264Z</time>
</trkpt>
<trkpt lat="-28.0063852" lon="152.5262731">
<ele>120.828</ele>
<time>2017-04-06T02:00:22.186Z</time>
</trkpt>
<trkpt lat="-28.0069024" lon="152.5258929">
<ele>121.132</ele>
<time>2017-04-06T02:00:25.117Z</time>
</trkpt>
<trkpt lat="-28.0072865" lon="152.5256709">
<ele>121.293</ele>
<time>2017-04-06T02:00:27.153Z</time>
</trkpt>
<trkpt lat="-28.0078120" lon="152.5252468">
<ele>121.532</ele>
<time>2017-04-06T02:00:30.151Z</time>
</trkpt>
<trkpt lat="-28.0082058" lon="152.5250112">
<ele>121.938</ele>
<time>2017-04-06T02:00:32.180Z</time>
</trkpt>
<trkpt lat="-28.0087921" lon="152.5246321">
<ele>122.558</ele>
<time>2017-04-06T02:00:35.207Z</time>
</trkpt>
<trkpt lat="-28.0093576" lon="152.5242806">
<ele>123.452</ele>
<time>2017-04-06T02:00:38.107Z</time>
</trkpt>
<trkpt lat="-28.0099798" lon="152.5238164">
<ele>124.525</ele>
<time>2017-04-06T02:00:41.269Z</time>
</trkpt>
<trkpt lat="-28.0105245" lon="152.5235203">
<ele>126.051</ele>
<time>2017-04-06T02:00:43.509Z</time>
</trkpt>
<trkpt lat="-28.0113598" lon="152.5229942">
<ele>129.572</ele>
<time>2017-04-06T02:00:46.690Z</time>
</trkpt>
<trkpt lat="-28.0119470" lon="152.5226266">
<ele>136.482</ele>
<time>2017-04-06T02:00:48.731Z</time>
</trkpt>
<trkpt lat="-28.0128297" lon="152.5219968">
<ele>145.330</ele>
<time>2017-04-06T02:00:51.809Z</time>
</trkpt>
<trkpt lat="-28.0136734" lon="152.5214660">
<ele>153.288</ele>
<time>2017-04-06T02:00:54.722Z</time>
</trkpt>
<trkpt lat="-28.0145000" lon="152.5209956">
<ele>159.579</ele>
<time>2017-04-06T02:00:57.635Z</time>
</trkpt>
<trkpt lat="-28.0150750" lon="152.5207273">
<ele>165.190</ele>
<time>2017-04-06T02:00:59.628Z</time>
</trkpt>
<trkpt lat="-28.0159027" lon="152.5203095">
<ele>170.520</ele>
<time>2017-04-06T02:01:02.583Z</time>
</trkpt>
<trkpt lat="-28.0164090" lon="152.5199771">
<ele>175.099</ele>
<time>2017-04-06T02:01:04.571Z</time>
</trkpt>
<trkpt lat="-28.0171282" lon="152.5196060">
<ele>178.278</ele>
<time>2017-04-06T02:01:07.427Z</time>
</trkpt>
<trkpt lat="-28.0175691" lon="152.5193643">
<ele>179.428</ele>
<time>2017-04-06T02:01:09.338Z</time>
</trkpt>
<trkpt lat="-28.0180081" lon="152.5191080">
<ele>178.469</ele>
<time>2017-04-06T02:01:11.303Z</time>
</trkpt>
<trkpt lat="-28.0184650" lon="152.5188571">
<ele>176.447</ele>
<time>2017-04-06T02:01:13.302Z</time>
</trkpt>
<trkpt lat="-28.0191501" lon="152.5184526">
<ele>174.587</ele>
<time>2017-04-06T02:01:16.306Z</time>
</trkpt>
<trkpt lat="-28.0195246" lon="152.5180460">
<ele>173.250</ele>
<time>2017-04-06T02:01:18.311Z</time>
</trkpt>
<trkpt lat="-28.0198807" lon="152.5176410">
<ele>172.235</ele>
<time>2017-04-06T02:01:20.272Z</time>
</trkpt>
<trkpt lat="-28.0201242" lon="152.5171381">
<ele>171.496</ele>
<time>2017-04-06T02:01:22.261Z</time>
</trkpt>
<trkpt lat="-28.0205289" lon="152.5164202">
<ele>171.104</ele>
<time>2017-04-06T02:01:25.235Z</time>
</trkpt>
<trkpt lat="-28.0207679" lon="152.5159184">
<ele>170.929</ele>
<time>2017-04-06T02:01:27.227Z</time>
</trkpt>
<trkpt lat="-28.0209993" lon="152.5153981">
<ele>170.735</ele>
<time>2017-04-06T02:01:29.251Z</time>
</trkpt>
<trkpt lat="-28.0213517" lon="152.5146023">
<ele>170.428</ele>
<time>2017-04-06T02:01:32.321Z</time>
</trkpt>
<trkpt lat="-28.0216212" lon="152.5140951">
<ele>170.081</ele>
<time>2017-04-06T02:01:34.349Z</time>
</trkpt>
<trkpt lat="-28.0219038" lon="152.5136057">
<ele>169.737</ele>
<time>2017-04-06T02:01:36.350Z</time>
</trkpt>
<trkpt lat="-28.0221654" lon="152.5131116">
<ele>169.326</ele>
<time>2017-04-06T02:01:38.331Z</time>
</trkpt>
<trkpt lat="-28.0225053" lon="152.5123392">
<ele>168.895</ele>
<time>2017-04-06T02:01:41.315Z</time>
</trkpt>
<trkpt lat="-28.0227333" lon="152.5118268">
<ele>168.606</ele>
<time>2017-04-06T02:01:43.310Z</time>
</trkpt>
<trkpt lat="-28.0230119" lon="152.5113489">
<ele>168.581</ele>
<time>2017-04-06T02:01:45.306Z</time>
</trkpt>
<trkpt lat="-28.0233679" lon="152.5105796">
<ele>168.830</ele>
<time>2017-04-06T02:01:48.323Z</time>
</trkpt>
<trkpt lat="-28.0237276" lon="152.5098154">
<ele>169.281</ele>
<time>2017-04-06T02:01:51.319Z</time>
</trkpt>
<trkpt lat="-28.0240986" lon="152.5090602">
<ele>169.902</ele>
<time>2017-04-06T02:01:54.298Z</time>
</trkpt>
<trkpt lat="-28.0244567" lon="152.5082945">
<ele>170.633</ele>
<time>2017-04-06T02:01:57.278Z</time>
</trkpt>
<trkpt lat="-28.0247313" lon="152.5077948">
<ele>171.308</ele>
<time>2017-04-06T02:01:59.301Z</time>
</trkpt>
<trkpt lat="-28.0250997" lon="152.5070339">
<ele>171.811</ele>
<time>2017-04-06T02:02:02.290Z</time>
</trkpt>
<trkpt lat="-28.0254900" lon="152.5062928">
<ele>172.179</ele>
<time>2017-04-06T02:02:05.284Z</time>
</trkpt>
<trkpt lat="-28.0257321" lon="152.5057842">
<ele>172.560</ele>
<time>2017-04-06T02:02:07.288Z</time>
</trkpt>
<trkpt lat="-28.0260881" lon="152.5050145">
<ele>173.098</ele>
<time>2017-04-06T02:02:10.286Z</time>
</trkpt>
<trkpt lat="-28.0263607" lon="152.5044916">
<ele>173.737</ele>
<time>2017-04-06T02:02:12.382Z</time>
</trkpt>
<trkpt lat="-28.0266271" lon="152.5040018">
<ele>174.317</ele>
<time>2017-04-06T02:02:14.369Z</time>
</trkpt>
<trkpt lat="-28.0270288" lon="152.5032508">
<ele>174.714</ele>
<time>2017-04-06T02:02:17.405Z</time>
</trkpt>
<trkpt lat="-28.0273808" lon="152.5024889">
<ele>174.758</ele>
<time>2017-04-06T02:02:20.382Z</time>
</trkpt>
<trkpt lat="-28.0277234" lon="152.5017358">
<ele>174.178</ele>
<time>2017-04-06T02:02:23.350Z</time>
</trkpt>
<trkpt lat="-28.0281164" lon="152.5010232">
<ele>172.980</ele>
<time>2017-04-06T02:02:26.325Z</time>
</trkpt>
<trkpt lat="-28.0284860" lon="152.5002777">
<ele>171.708</ele>
<time>2017-04-06T02:02:29.340Z</time>
</trkpt>
<trkpt lat="-28.0288609" lon="152.4995369">
<ele>170.931</ele>
<time>2017-04-06T02:02:32.334Z</time>
</trkpt>
<trkpt lat="-28.0291134" lon="152.4990569">
<ele>170.817</ele>
<time>2017-04-06T02:02:34.294Z</time>
</trkpt>
<trkpt lat="-28.0293746" lon="152.4985637">
<ele>171.259</ele>
<time>2017-04-06T02:02:36.298Z</time>
</trkpt>
<trkpt lat="-28.0296064" lon="152.4977221">
<ele>172.017</ele>
<time>2017-04-06T02:02:39.330Z</time>
</trkpt>
<trkpt lat="-28.0297496" lon="152.4968695">
<ele>172.892</ele>
<time>2017-04-06T02:02:42.302Z</time>
</trkpt>
<trkpt lat="-28.0297613" lon="152.4959957">
<ele>173.966</ele>
<time>2017-04-06T02:02:45.303Z</time>
</trkpt>
<trkpt lat="-28.0296949" lon="152.4951201">
<ele>175.267</ele>
<time>2017-04-06T02:02:48.319Z</time>
</trkpt>
<trkpt lat="-28.0295896" lon="152.4945563">
<ele>176.456</ele>
<time>2017-04-06T02:02:50.297Z</time>
</trkpt>
<trkpt lat="-28.0294538" lon="152.4936880">
<ele>177.222</ele>
<time>2017-04-06T02:02:53.312Z</time>
</trkpt>
<trkpt lat="-28.0293326" lon="152.4928341">
<ele>177.597</ele>
<time>2017-04-06T02:02:56.272Z</time>
</trkpt>
<trkpt lat="-28.0291828" lon="152.4919877">
<ele>177.739</ele>
<time>2017-04-06T02:02:59.250Z</time>
</trkpt>
<trkpt lat="-28.0290950" lon="152.4914201">
<ele>177.900</ele>
<time>2017-04-06T02:03:01.241Z</time>
</trkpt>
<trkpt lat="-28.0290626" lon="152.4908472">
<ele>178.345</ele>
<time>2017-04-06T02:03:03.222Z</time>
</trkpt>
<trkpt lat="-28.0289923" lon="152.4902771">
<ele>179.187</ele>
<time>2017-04-06T02:03:05.211Z</time>
</trkpt>
<trkpt lat="-28.0289293" lon="152.4897044">
<ele>180.396</ele>
<time>2017-04-06T02:03:07.203Z</time>
</trkpt>
<trkpt lat="-28.0288202" lon="152.4888371">
<ele>181.866</ele>
<time>2017-04-06T02:03:10.213Z</time>
</trkpt>
<trkpt lat="-28.0286905" lon="152.4882711">
<ele>183.590</ele>
<time>2017-04-06T02:03:12.212Z</time>
</trkpt>
<trkpt lat="-28.0286104" lon="152.4876948">
<ele>185.601</ele>
<time>2017-04-06T02:03:14.210Z</time>
</trkpt>
<trkpt lat="-28.0284897" lon="152.4868351">
<ele>187.764</ele>
<time>2017-04-06T02:03:17.195Z</time>
</trkpt>
<trkpt lat="-28.0284173" lon="152.4862645">
<ele>189.982</ele>
<time>2017-04-06T02:03:19.177Z</time>
</trkpt>
<trkpt lat="-28.0283206" lon="152.4854078">
<ele>192.179</ele>
<time>2017-04-06T02:03:22.162Z</time>
</trkpt>
<trkpt lat="-28.0283586" lon="152.4848381">
<ele>194.435</ele>
<time>2017-04-06T02:03:24.144Z</time>
</trkpt>
<trkpt lat="-28.0283265" lon="152.4839720">
<ele>197.034</ele>
<time>2017-04-06T02:03:27.142Z</time>
</trkpt>
<trkpt lat="-28.0283163" lon="152.4830900">
<ele>200.002</ele>
<time>2017-04-06T02:03:30.166Z</time>
</trkpt>
<trkpt lat="-28.0282486" lon="152.4822084">
<ele>203.041</ele>
<time>2017-04-06T02:03:33.173Z</time>
</trkpt>
<trkpt lat="-28.0281919" lon="152.4813307">
<ele>205.568</ele>
<time>2017-04-06T02:03:36.158Z</time>
</trkpt>
<trkpt lat="-28.0281680" lon="152.4807481">
<ele>206.638</ele>
<time>2017-04-06T02:03:38.148Z</time>
</trkpt>
<trkpt lat="-28.0281919" lon="152.4801654">
<ele>205.894</ele>
<time>2017-04-06T02:03:40.157Z</time>
</trkpt>
<trkpt lat="-28.0281982" lon="152.4793036">
<ele>204.057</ele>
<time>2017-04-06T02:03:43.141Z</time>
</trkpt>
<trkpt lat="-28.0282264" lon="152.4787280">
<ele>202.118</ele>
<time>2017-04-06T02:03:45.140Z</time>
</trkpt>
<trkpt lat="-28.0283273" lon="152.4781590">
<ele>200.626</ele>
<time>2017-04-06T02:03:47.145Z</time>
</trkpt>
<trkpt lat="-28.0286231" lon="152.4773432">
<ele>199.717</ele>
<time>2017-04-06T02:03:50.173Z</time>
</trkpt>
<trkpt lat="-28.0287580" lon="152.4767821">
<ele>199.153</ele>
<time>2017-04-06T02:03:52.167Z</time>
</trkpt>
<trkpt lat="-28.0289227" lon="152.4759364">
<ele>198.574</ele>
<time>2017-04-06T02:03:55.157Z</time>
</trkpt>
<trkpt lat="-28.0291168" lon="152.4750842">
<ele>197.757</ele>
<time>2017-04-06T02:03:58.195Z</time>
</trkpt>
<trkpt lat="-28.0293087" lon="152.4745451">
<ele>196.571</ele>
<time>2017-04-06T02:04:00.190Z</time>
</trkpt>
<trkpt lat="-28.0296036" lon="152.4737484">
<ele>195.109</ele>
<time>2017-04-06T02:04:03.165Z</time>
</trkpt>
<trkpt lat="-28.0298431" lon="152.4732398">
<ele>193.724</ele>
<time>2017-04-06T02:04:05.160Z</time>
</trkpt>
<trkpt lat="-28.0301404" lon="152.4727610">
<ele>192.751</ele>
<time>2017-04-06T02:04:07.188Z</time>
</trkpt>
<trkpt lat="-28.0303737" lon="152.4722483">
<ele>192.374</ele>
<time>2017-04-06T02:04:09.186Z</time>
</trkpt>
<trkpt lat="-28.0306146" lon="152.4717472">
<ele>192.665</ele>
<time>2017-04-06T02:04:11.168Z</time>
</trkpt>
<trkpt lat="-28.0309568" lon="152.4709613">
<ele>193.454</ele>
<time>2017-04-06T02:04:14.211Z</time>
</trkpt>
<trkpt lat="-28.0313493" lon="152.4702089">
<ele>194.557</ele>
<time>2017-04-06T02:04:17.235Z</time>
</trkpt>
<trkpt lat="-28.0316844" lon="152.4694260">
<ele>195.762</ele>
<time>2017-04-06T02:04:20.252Z</time>
</trkpt>
<trkpt lat="-28.0319495" lon="152.4689237">
<ele>196.677</ele>
<time>2017-04-06T02:04:22.273Z</time>
</trkpt>
<trkpt lat="-28.0321822" lon="152.4684066">
<ele>197.131</ele>
<time>2017-04-06T02:04:24.262Z</time>
</trkpt>
<trkpt lat="-28.0324389" lon="152.4679110">
<ele>197.414</ele>
<time>2017-04-06T02:04:26.234Z</time>
</trkpt>
<trkpt lat="-28.0327949" lon="152.4671402">
<ele>197.838</ele>
<time>2017-04-06T02:04:29.229Z</time>
</trkpt>
<trkpt lat="-28.0331927" lon="152.4663884">
<ele>198.644</ele>
<time>2017-04-06T02:04:32.241Z</time>
</trkpt>
<trkpt lat="-28.0334348" lon="152.4658785">
<ele>200.157</ele>
<time>2017-04-06T02:04:34.229Z</time>
</trkpt>
<trkpt lat="-28.0337720" lon="152.4650917">
<ele>202.525</ele>
<time>2017-04-06T02:04:37.231Z</time>
</trkpt>
<trkpt lat="-28.0341330" lon="152.4643199">
<ele>205.803</ele>
<time>2017-04-06T02:04:40.219Z</time>
</trkpt>
<trkpt lat="-28.0343851" lon="152.4638072">
<ele>210.141</ele>
<time>2017-04-06T02:04:42.226Z</time>
</trkpt>
<trkpt lat="-28.0347712" lon="152.4630611">
<ele>214.791</ele>
<time>2017-04-06T02:04:45.200Z</time>
</trkpt>
<trkpt lat="-28.0350031" lon="152.4625669">
<ele>218.328</ele>
<time>2017-04-06T02:04:47.154Z</time>
</trkpt>
<trkpt lat="-28.0352242" lon="152.4620668">
<ele>220.343</ele>
<time>2017-04-06T02:04:49.132Z</time>
</trkpt>
<trkpt lat="-28.0355374" lon="152.4612978">
<ele>221.405</ele>
<time>2017-04-06T02:04:52.137Z</time>
</trkpt>
<trkpt lat="-28.0358933" lon="152.4605994">
<ele>222.215</ele>
<time>2017-04-06T02:04:55.046Z</time>
</trkpt>
<trkpt lat="-28.0361747" lon="152.4599177">
<ele>223.238</ele>
<time>2017-04-06T02:04:57.901Z</time>
</trkpt>
<trkpt lat="-28.0365177" lon="152.4592540">
<ele>224.495</ele>
<time>2017-04-06T02:05:00.906Z</time>
</trkpt>
<trkpt lat="-28.0367012" lon="152.4587810">
<ele>225.858</ele>
<time>2017-04-06T02:05:02.918Z</time>
</trkpt>
<trkpt lat="-28.0367879" lon="152.4582815">
<ele>227.160</ele>
<time>2017-04-06T02:05:04.901Z</time>
</trkpt>
<trkpt lat="-28.0368515" lon="152.4575081">
<ele>228.099</ele>
<time>2017-04-06T02:05:07.914Z</time>
</trkpt>
<trkpt lat="-28.0368975" lon="152.4569943">
<ele>228.428</ele>
<time>2017-04-06T02:05:09.912Z</time>
</trkpt>
<trkpt lat="-28.0369077" lon="152.4564738">
<ele>228.249</ele>
<time>2017-04-06T02:05:11.923Z</time>
</trkpt>
<trkpt lat="-28.0370020" lon="152.4557072">
<ele>227.963</ele>
<time>2017-04-06T02:05:14.908Z</time>
</trkpt>
<trkpt lat="-28.0370900" lon="152.4549453">
<ele>228.005</ele>
<time>2017-04-06T02:05:17.885Z</time>
</trkpt>
<trkpt lat="-28.0371843" lon="152.4544340">
<ele>228.765</ele>
<time>2017-04-06T02:05:19.906Z</time>
</trkpt>
<trkpt lat="-28.0373027" lon="152.4536026">
<ele>230.488</ele>
<time>2017-04-06T02:05:23.130Z</time>
</trkpt>
<trkpt lat="-28.0374080" lon="152.4531054">
<ele>233.187</ele>
<time>2017-04-06T02:05:25.070Z</time>
</trkpt>
<trkpt lat="-28.0374759" lon="152.4525964">
<ele>236.489</ele>
<time>2017-04-06T02:05:27.020Z</time>
</trkpt>
<trkpt lat="-28.0376238" lon="152.4521026">
<ele>239.706</ele>
<time>2017-04-06T02:05:28.999Z</time>
</trkpt>
<trkpt lat="-28.0379140" lon="152.4513958">
<ele>242.462</ele>
<time>2017-04-06T02:05:31.965Z</time>
</trkpt>
<trkpt lat="-28.0383168" lon="152.4507608">
<ele>245.447</ele>
<time>2017-04-06T02:05:34.948Z</time>
</trkpt>
<trkpt lat="-28.0388506" lon="152.4502419">
<ele>250.106</ele>
<time>2017-04-06T02:05:37.973Z</time>
</trkpt>
<trkpt lat="-28.0392048" lon="152.4498962">
<ele>256.702</ele>
<time>2017-04-06T02:05:39.966Z</time>
</trkpt>
<trkpt lat="-28.0395643" lon="152.4495566">
<ele>263.187</ele>
<time>2017-04-06T02:05:41.954Z</time>
</trkpt>
<trkpt lat="-28.0400995" lon="152.4489923">
<ele>267.516</ele>
<time>2017-04-06T02:05:45.000Z</time>
</trkpt>
<trkpt lat="-28.0405579" lon="152.4482939">
<ele>270.085</ele>
<time>2017-04-06T02:05:48.064Z</time>
</trkpt>
<trkpt lat="-28.0407932" lon="152.4477699">
<ele>272.883</ele>
<time>2017-04-06T02:05:50.086Z</time>
</trkpt>
<trkpt lat="-28.0411628" lon="152.4469982">
<ele>276.780</ele>
<time>2017-04-06T02:05:53.095Z</time>
</trkpt>
<trkpt lat="-28.0414166" lon="152.4465176">
<ele>281.154</ele>
<time>2017-04-06T02:05:55.034Z</time>
</trkpt>
<trkpt lat="-28.0418926" lon="152.4459248">
<ele>285.338</ele>
<time>2017-04-06T02:05:57.948Z</time>
</trkpt>
<trkpt lat="-28.0422954" lon="152.4456558">
<ele>289.352</ele>
<time>2017-04-06T02:05:59.954Z</time>
</trkpt>
<trkpt lat="-28.0429705" lon="152.4453959">
<ele>293.438</ele>
<time>2017-04-06T02:06:03.022Z</time>
</trkpt>
<trkpt lat="-28.0437162" lon="152.4453347">
<ele>297.792</ele>
<time>2017-04-06T02:06:06.142Z</time>
</trkpt>
<trkpt lat="-28.0442154" lon="152.4454036">
<ele>302.607</ele>
<time>2017-04-06T02:06:08.181Z</time>
</trkpt>
<trkpt lat="-28.0449180" lon="152.4456668">
<ele>307.749</ele>
<time>2017-04-06T02:06:11.176Z</time>
</trkpt>
<trkpt lat="-28.0455632" lon="152.4459463">
<ele>312.886</ele>
<time>2017-04-06T02:06:14.042Z</time>
</trkpt>
<trkpt lat="-28.0459951" lon="152.4461035">
<ele>318.139</ele>
<time>2017-04-06T02:06:15.996Z</time>
</trkpt>
<trkpt lat="-28.0465780" lon="152.4463361">
<ele>323.256</ele>
<time>2017-04-06T02:06:18.821Z</time>
</trkpt>
<trkpt lat="-28.0469518" lon="152.4464235">
<ele>327.400</ele>
<time>2017-04-06T02:06:20.697Z</time>
</trkpt>
<trkpt lat="-28.0475535" lon="152.4463919">
<ele>330.249</ele>
<time>2017-04-06T02:06:23.770Z</time>
</trkpt>
<trkpt lat="-28.0479295" lon="152.4462198">
<ele>332.336</ele>
<time>2017-04-06T02:06:25.829Z</time>
</trkpt>
<trkpt lat="-28.0484556" lon="152.4457807">
<ele>334.315</ele>
<time>2017-04-06T02:06:29.081Z</time>
</trkpt>
<trkpt lat="-28.0487145" lon="152.4454072">
<ele>336.511</ele>
<time>2017-04-06T02:06:31.142Z</time>
</trkpt>
<trkpt lat="-28.0490154" lon="152.4447996">
<ele>338.918</ele>
<time>2017-04-06T02:06:34.164Z</time>
</trkpt>
<trkpt lat="-28.0492981" lon="152.4441868">
<ele>341.325</ele>
<time>2017-04-06T02:06:37.155Z</time>
</trkpt>
<trkpt lat="-28.0496270" lon="152.4436172">
<ele>343.518</ele>
<time>2017-04-06T02:06:40.097Z</time>
</trkpt>
<trkpt lat="-28.0498275" lon="152.4432224">
<ele>345.537</ele>
<time>2017-04-06T02:06:42.081Z</time>
</trkpt>
<trkpt lat="-28.0500444" lon="152.4428430">
<ele>347.473</ele>
<time>2017-04-06T02:06:44.064Z</time>
</trkpt>
<trkpt lat="-28.0503702" lon="152.4422636">
<ele>349.387</ele>
<time>2017-04-06T02:06:47.068Z</time>
</trkpt>
<trkpt lat="-28.0505951" lon="152.4418818">
<ele>351.369</ele>
<time>2017-04-06T02:06:49.062Z</time>
</trkpt>
<trkpt lat="-28.0507768" lon="152.4414699">
<ele>353.341</ele>
<time>2017-04-06T02:06:51.059Z</time>
</trkpt>
<trkpt lat="-28.0509898" lon="152.4410750">
<ele>355.017</ele>
<time>2017-04-06T02:06:53.056Z</time>
</trkpt>
<trkpt lat="-28.0513027" lon="152.4404795">
<ele>356.312</ele>
<time>2017-04-06T02:06:56.038Z</time>
</trkpt>
<trkpt lat="-28.0514929" lon="152.4400790">
<ele>357.407</ele>
<time>2017-04-06T02:06:58.004Z</time>
</trkpt>
<trkpt lat="-28.0518016" lon="152.4394809">
<ele>358.410</ele>
<time>2017-04-06T02:07:01.007Z</time>
</trkpt>
<trkpt lat="-28.0521452" lon="152.4389151">
<ele>359.252</ele>
<time>2017-04-06T02:07:03.997Z</time>
</trkpt>
<trkpt lat="-28.0523668" lon="152.4385385">
<ele>359.895</ele>
<time>2017-04-06T02:07:05.986Z</time>
</trkpt>
<trkpt lat="-28.0526471" lon="152.4379500">
<ele>360.523</ele>
<time>2017-04-06T02:07:08.951Z</time>
</trkpt>
<trkpt lat="-28.0529734" lon="152.4373888">
<ele>361.537</ele>
<time>2017-04-06T02:07:11.947Z</time>
</trkpt>
<trkpt lat="-28.0531399" lon="152.4369715">
<ele>363.386</ele>
<time>2017-04-06T02:07:13.975Z</time>
</trkpt>
<trkpt lat="-28.0533854" lon="152.4363665">
<ele>366.059</ele>
<time>2017-04-06T02:07:16.912Z</time>
</trkpt>
<trkpt lat="-28.0534680" lon="152.4359153">
<ele>369.268</ele>
<time>2017-04-06T02:07:18.945Z</time>
</trkpt>
<trkpt lat="-28.0535279" lon="152.4354666">
<ele>372.760</ele>
<time>2017-04-06T02:07:20.952Z</time>
</trkpt>
<trkpt lat="-28.0535804" lon="152.4347878">
<ele>376.164</ele>
<time>2017-04-06T02:07:23.979Z</time>
</trkpt>
<trkpt lat="-28.0535336" lon="152.4340947">
<ele>379.408</ele>
<time>2017-04-06T02:07:27.025Z</time>
</trkpt>
<trkpt lat="-28.0534528" lon="152.4334092">
<ele>382.912</ele>
<time>2017-04-06T02:07:30.016Z</time>
</trkpt>
<trkpt lat="-28.0534233" lon="152.4329559">
<ele>386.922</ele>
<time>2017-04-06T02:07:31.996Z</time>
</trkpt>
<trkpt lat="-28.0535000" lon="152.4322845">
<ele>391.101</ele>
<time>2017-04-06T02:07:34.979Z</time>
</trkpt>
<trkpt lat="-28.0538915" lon="152.4317213">
<ele>394.976</ele>
<time>2017-04-06T02:07:38.127Z</time>
</trkpt>
<trkpt lat="-28.0542806" lon="152.4311910">
<ele>398.623</ele>
<time>2017-04-06T02:07:41.131Z</time>
</trkpt>
<trkpt lat="-28.0546053" lon="152.4306084">
<ele>402.478</ele>
<time>2017-04-06T02:07:44.142Z</time>
</trkpt>
<trkpt lat="-28.0547312" lon="152.4301667">
<ele>406.673</ele>
<time>2017-04-06T02:07:46.179Z</time>
</trkpt>
<trkpt lat="-28.0549859" lon="152.4298288">
<ele>410.878</ele>
<time>2017-04-06T02:07:48.151Z</time>
</trkpt>
<trkpt lat="-28.0554890" lon="152.4294937">
<ele>414.640</ele>
<time>2017-04-06T02:07:51.118Z</time>
</trkpt>
<trkpt lat="-28.0558113" lon="152.4292322">
<ele>418.154</ele>
<time>2017-04-06T02:07:53.126Z</time>
</trkpt>
<trkpt lat="-28.0560843" lon="152.4289049">
<ele>421.833</ele>
<time>2017-04-06T02:07:55.120Z</time>
</trkpt>
<trkpt lat="-28.0564138" lon="152.4283395">
<ele>425.467</ele>
<time>2017-04-06T02:07:58.112Z</time>
</trkpt>
<trkpt lat="-28.0566977" lon="152.4277311">
<ele>428.878</ele>
<time>2017-04-06T02:08:01.150Z</time>
</trkpt>
<trkpt lat="-28.0568878" lon="152.4272985">
<ele>432.431</ele>
<time>2017-04-06T02:08:03.265Z</time>
</trkpt>
<trkpt lat="-28.0570458" lon="152.4268913">
<ele>436.187</ele>
<time>2017-04-06T02:08:05.208Z</time>
</trkpt>
<trkpt lat="-28.0572080" lon="152.4262441">
<ele>439.876</ele>
<time>2017-04-06T02:08:08.170Z</time>
</trkpt>
<trkpt lat="-28.0573374" lon="152.4258068">
<ele>443.728</ele>
<time>2017-04-06T02:08:10.208Z</time>
</trkpt>
<trkpt lat="-28.0574702" lon="152.4251553">
<ele>447.945</ele>
<time>2017-04-06T02:08:13.218Z</time>
</trkpt>
<trkpt lat="-28.0575625" lon="152.4245630">
<ele>452.140</ele>
<time>2017-04-06T02:08:16.085Z</time>
</trkpt>
<trkpt lat="-28.0576640" lon="152.4241932">
<ele>455.958</ele>
<time>2017-04-06T02:08:18.030Z</time>
</trkpt>
<trkpt lat="-28.0578025" lon="152.4236271">
<ele>459.281</ele>
<time>2017-04-06T02:08:21.024Z</time>
</trkpt>
<trkpt lat="-28.0579741" lon="152.4232830">
<ele>462.232</ele>
<time>2017-04-06T02:08:23.039Z</time>
</trkpt>
<trkpt lat="-28.0581351" lon="152.4229596">
<ele>465.056</ele>
<time>2017-04-06T02:08:24.946Z</time>
</trkpt>
<trkpt lat="-28.0584624" lon="152.4225075">
<ele>467.710</ele>
<time>2017-04-06T02:08:27.908Z</time>
</trkpt>
<trkpt lat="-28.0588214" lon="152.4220460">
<ele>470.254</ele>
<time>2017-04-06T02:08:30.923Z</time>
</trkpt>
<trkpt lat="-28.0589870" lon="152.4217263">
<ele>473.186</ele>
<time>2017-04-06T02:08:32.792Z</time>
</trkpt>
<trkpt lat="-28.0590808" lon="152.4213678">
<ele>476.518</ele>
<time>2017-04-06T02:08:34.760Z</time>
</trkpt>
<trkpt lat="-28.0591939" lon="152.4210078">
<ele>479.620</ele>
<time>2017-04-06T02:08:36.771Z</time>
</trkpt>
<trkpt lat="-28.0592920" lon="152.4206365">
<ele>482.217</ele>
<time>2017-04-06T02:08:38.786Z</time>
</trkpt>
<trkpt lat="-28.0594238" lon="152.4202728">
<ele>484.545</ele>
<time>2017-04-06T02:08:40.820Z</time>
</trkpt>
<trkpt lat="-28.0597380" lon="152.4198141">
<ele>486.768</ele>
<time>2017-04-06T02:08:43.822Z</time>
</trkpt>
<trkpt lat="-28.0601602" lon="152.4194433">
<ele>489.210</ele>
<time>2017-04-06T02:08:46.911Z</time>
</trkpt>
<trkpt lat="-28.0605850" lon="152.4190923">
<ele>493.032</ele>
<time>2017-04-06T02:08:49.914Z</time>
</trkpt>
<trkpt lat="-28.0608216" lon="152.4185896">
<ele>499.193</ele>
<time>2017-04-06T02:08:52.836Z</time>
</trkpt>
<trkpt lat="-28.0608117" lon="152.4181920">
<ele>506.844</ele>
<time>2017-04-06T02:08:54.896Z</time>
</trkpt>
<trkpt lat="-28.0606152" lon="152.4176390">
<ele>514.070</ele>
<time>2017-04-06T02:08:57.957Z</time>
</trkpt>
<trkpt lat="-28.0602337" lon="152.4172064">
<ele>519.974</ele>
<time>2017-04-06T02:09:01.024Z</time>
</trkpt>
<trkpt lat="-28.0598559" lon="152.4167712">
<ele>525.049</ele>
<time>2017-04-06T02:09:04.030Z</time>
</trkpt>
<trkpt lat="-28.0595938" lon="152.4165039">
<ele>530.010</ele>
<time>2017-04-06T02:09:06.012Z</time>
</trkpt>
<trkpt lat="-28.0593673" lon="152.4162018">
<ele>534.663</ele>
<time>2017-04-06T02:09:08.006Z</time>
</trkpt>
<trkpt lat="-28.0592288" lon="152.4158151">
<ele>538.455</ele>
<time>2017-04-06T02:09:10.140Z</time>
</trkpt>
<trkpt lat="-28.0592764" lon="152.4154104">
<ele>541.375</ele>
<time>2017-04-06T02:09:12.233Z</time>
</trkpt>
<trkpt lat="-28.0594250" lon="152.4150341">
<ele>543.877</ele>
<time>2017-04-06T02:09:14.317Z</time>
</trkpt>
<trkpt lat="-28.0595567" lon="152.4146580">
<ele>546.270</ele>
<time>2017-04-06T02:09:16.331Z</time>
</trkpt>
<trkpt lat="-28.0597831" lon="152.4140919">
<ele>548.613</ele>
<time>2017-04-06T02:09:19.407Z</time>
</trkpt>
<trkpt lat="-28.0600302" lon="152.4135666">
<ele>551.001</ele>
<time>2017-04-06T02:09:22.374Z</time>
</trkpt>
<trkpt lat="-28.0603761" lon="152.4131381">
<ele>553.587</ele>
<time>2017-04-06T02:09:25.359Z</time>
</trkpt>
<trkpt lat="-28.0606211" lon="152.4129124">
<ele>556.419</ele>
<time>2017-04-06T02:09:27.286Z</time>
</trkpt>
<trkpt lat="-28.0608241" lon="152.4126190">
<ele>559.326</ele>
<time>2017-04-06T02:09:29.340Z</time>
</trkpt>
<trkpt lat="-28.0609677" lon="152.4122431">
<ele>562.044</ele>
<time>2017-04-06T02:09:31.528Z</time>
</trkpt>
<trkpt lat="-28.0609740" lon="152.4118631">
<ele>564.471</ele>
<time>2017-04-06T02:09:33.527Z</time>
</trkpt>
<trkpt lat="-28.0606634" lon="152.4114092">
<ele>566.750</ele>
<time>2017-04-06T02:09:36.567Z</time>
</trkpt>
<trkpt lat="-28.0603655" lon="152.4112052">
<ele>569.136</ele>
<time>2017-04-06T02:09:38.621Z</time>
</trkpt>
<trkpt lat="-28.0598444" lon="152.4112268">
<ele>571.693</ele>
<time>2017-04-06T02:09:41.668Z</time>
</trkpt>
<trkpt lat="-28.0595253" lon="152.4111584">
<ele>574.339</ele>
<time>2017-04-06T02:09:43.608Z</time>
</trkpt>
<trkpt lat="-28.0590879" lon="152.4108199">
<ele>577.005</ele>
<time>2017-04-06T02:09:46.810Z</time>
</trkpt>
<trkpt lat="-28.0589704" lon="152.4104479">
<ele>579.731</ele>
<time>2017-04-06T02:09:48.905Z</time>
</trkpt>
<trkpt lat="-28.0590211" lon="152.4100544">
<ele>582.527</ele>
<time>2017-04-06T02:09:50.973Z</time>
</trkpt>
<trkpt lat="-28.0593114" lon="152.4095062">
<ele>585.211</ele>
<time>2017-04-06T02:09:54.174Z</time>
</trkpt>
<trkpt lat="-28.0595723" lon="152.4091866">
<ele>587.855</ele>
<time>2017-04-06T02:09:56.284Z</time>
</trkpt>
<trkpt lat="-28.0597607" lon="152.4088449">
<ele>590.835</ele>
<time>2017-04-06T02:09:58.250Z</time>
</trkpt>
<trkpt lat="-28.0598559" lon="152.4082269">
<ele>594.065</ele>
<time>2017-04-06T02:10:01.377Z</time>
</trkpt>
<trkpt lat="-28.0597350" lon="152.4076746">
<ele>597.423</ele>
<time>2017-04-06T02:10:04.328Z</time>
</trkpt>
<trkpt lat="-28.0594068" lon="152.4072348">
<ele>601.007</ele>
<time>2017-04-06T02:10:07.415Z</time>
</trkpt>
<trkpt lat="-28.0590685" lon="152.4068391">
<ele>604.717</ele>
<time>2017-04-06T02:10:10.421Z</time>
</trkpt>
<trkpt lat="-28.0589768" lon="152.4062913">
<ele>608.231</ele>
<time>2017-04-06T02:10:13.387Z</time>
</trkpt>
<trkpt lat="-28.0590915" lon="152.4058925">
<ele>611.414</ele>
<time>2017-04-06T02:10:15.470Z</time>
</trkpt>
<trkpt lat="-28.0593928" lon="152.4053203">
<ele>614.415</ele>
<time>2017-04-06T02:10:18.777Z</time>
</trkpt>
<trkpt lat="-28.0596285" lon="152.4050111">
<ele>617.461</ele>
<time>2017-04-06T02:10:20.941Z</time>
</trkpt>
<trkpt lat="-28.0597471" lon="152.4044856">
<ele>620.535</ele>
<time>2017-04-06T02:10:23.883Z</time>
</trkpt>
<trkpt lat="-28.0595943" lon="152.4041300">
<ele>623.718</ele>
<time>2017-04-06T02:10:26.014Z</time>
</trkpt>
<trkpt lat="-28.0592788" lon="152.4036720">
<ele>627.203</ele>
<time>2017-04-06T02:10:29.155Z</time>
</trkpt>
<trkpt lat="-28.0589762" lon="152.4035287">
<ele>630.769</ele>
<time>2017-04-06T02:10:31.329Z</time>
</trkpt>
<trkpt lat="-28.0585546" lon="152.4034320">
<ele>633.869</ele>
<time>2017-04-06T02:10:34.551Z</time>
</trkpt>
<trkpt lat="-28.0583239" lon="152.4033734">
<ele>636.353</ele>
<time>2017-04-06T02:10:36.658Z</time>
</trkpt>
<trkpt lat="-28.0580484" lon="152.4032813">
<ele>638.264</ele>
<time>2017-04-06T02:10:40.000Z</time>
</trkpt>
<trkpt lat="-28.0579141" lon="152.4032413">
<ele>639.530</ele>
<time>2017-04-06T02:10:42.060Z</time>
</trkpt>
<trkpt lat="-28.0578112" lon="152.4032045">
<ele>640.183</ele>
<time>2017-04-06T02:10:43.686Z</time>
</trkpt>
<trkpt lat="-28.0576625" lon="152.4032003">
<ele>640.504</ele>
<time>2017-04-06T02:10:45.817Z</time>
</trkpt>
<trkpt lat="-28.0574160" lon="152.4031816">
<ele>640.789</ele>
<time>2017-04-06T02:10:49.271Z</time>
</trkpt>
<trkpt lat="-28.0572196" lon="152.4031177">
<ele>641.273</ele>
<time>2017-04-06T02:10:52.283Z</time>
</trkpt>
<trkpt lat="-28.0570229" lon="152.4030540">
<ele>642.083</ele>
<time>2017-04-06T02:10:55.576Z</time>
</trkpt>
<trkpt lat="-28.0569042" lon="152.4030260">
<ele>643.198</ele>
<time>2017-04-06T02:10:57.606Z</time>
</trkpt>
<trkpt lat="-28.0567928" lon="152.4030034">
<ele>644.454</ele>
<time>2017-04-06T02:10:59.447Z</time>
</trkpt>
<trkpt lat="-28.0566732" lon="152.4029878">
<ele>645.652</ele>
<time>2017-04-06T02:11:01.366Z</time>
</trkpt>
<trkpt lat="-28.0564897" lon="152.4029498">
<ele>646.724</ele>
<time>2017-04-06T02:11:04.175Z</time>
</trkpt>
<trkpt lat="-28.0563186" lon="152.4028307">
<ele>647.860</ele>
<time>2017-04-06T02:11:06.796Z</time>
</trkpt>
<trkpt lat="-28.0560696" lon="152.4027304">
<ele>649.310</ele>
<time>2017-04-06T02:11:10.040Z</time>
</trkpt>
<trkpt lat="-28.0558800" lon="152.4025675">
<ele>651.056</ele>
<time>2017-04-06T02:11:13.276Z</time>
</trkpt>
<trkpt lat="-28.0557608" lon="152.4023883">
<ele>652.820</ele>
<time>2017-04-06T02:11:16.096Z</time>
</trkpt>
<trkpt lat="-28.0556440" lon="152.4021873">
<ele>654.375</ele>
<time>2017-04-06T02:11:18.645Z</time>
</trkpt>
<trkpt lat="-28.0555289" lon="152.4018806">
<ele>655.717</ele>
<time>2017-04-06T02:11:21.214Z</time>
</trkpt>
<trkpt lat="-28.0552815" lon="152.4013475">
<ele>657.116</ele>
<time>2017-04-06T02:11:24.752Z</time>
</trkpt>
<trkpt lat="-28.0552159" lon="152.4009575">
<ele>659.192</ele>
<time>2017-04-06T02:11:26.798Z</time>
</trkpt>
<trkpt lat="-28.0550539" lon="152.4003934">
<ele>662.537</ele>
<time>2017-04-06T02:11:29.821Z</time>
</trkpt>
<trkpt lat="-28.0549021" lon="152.4000694">
<ele>667.363</ele>
<time>2017-04-06T02:11:31.718Z</time>
</trkpt>
<trkpt lat="-28.0547152" lon="152.3997627">
<ele>672.987</ele>
<time>2017-04-06T02:11:33.637Z</time>
</trkpt>
<trkpt lat="-28.0545005" lon="152.3994626">
<ele>678.059</ele>
<time>2017-04-06T02:11:35.605Z</time>
</trkpt>
<trkpt lat="-28.0541681" lon="152.3989936">
<ele>681.667</ele>
<time>2017-04-06T02:11:38.609Z</time>
</trkpt>
<trkpt lat="-28.0539659" lon="152.3986573">
<ele>684.083</ele>
<time>2017-04-06T02:11:40.613Z</time>
</trkpt>
<trkpt lat="-28.0536941" lon="152.3981151">
<ele>686.281</ele>
<time>2017-04-06T02:11:43.646Z</time>
</trkpt>
<trkpt lat="-28.0534871" lon="152.3975354">
<ele>689.272</ele>
<time>2017-04-06T02:11:46.679Z</time>
</trkpt>
<trkpt lat="-28.0532950" lon="152.3971880">
<ele>693.329</ele>
<time>2017-04-06T02:11:48.690Z</time>
</trkpt>
<trkpt lat="-28.0531308" lon="152.3968330">
<ele>697.712</ele>
<time>2017-04-06T02:11:50.675Z</time>
</trkpt>
<trkpt lat="-28.0529811" lon="152.3964697">
<ele>701.340</ele>
<time>2017-04-06T02:11:52.691Z</time>
</trkpt>
<trkpt lat="-28.0528200" lon="152.3961183">
<ele>703.868</ele>
<time>2017-04-06T02:11:54.719Z</time>
</trkpt>
<trkpt lat="-28.0524513" lon="152.3957304">
<ele>705.749</ele>
<time>2017-04-06T02:11:57.644Z</time>
</trkpt>
<trkpt lat="-28.0521236" lon="152.3955742">
<ele>707.606</ele>
<time>2017-04-06T02:11:59.682Z</time>
</trkpt>
<trkpt lat="-28.0518034" lon="152.3954094">
<ele>709.740</ele>
<time>2017-04-06T02:12:01.707Z</time>
</trkpt>
<trkpt lat="-28.0514766" lon="152.3952632">
<ele>712.157</ele>
<time>2017-04-06T02:12:03.753Z</time>
</trkpt>
<trkpt lat="-28.0511463" lon="152.3951706">
<ele>714.613</ele>
<time>2017-04-06T02:12:05.757Z</time>
</trkpt>
<trkpt lat="-28.0508127" lon="152.3950675">
<ele>717.026</ele>
<time>2017-04-06T02:12:07.809Z</time>
</trkpt>
<trkpt lat="-28.0503250" lon="152.3949628">
<ele>719.621</ele>
<time>2017-04-06T02:12:11.071Z</time>
</trkpt>
<trkpt lat="-28.0500508" lon="152.3948821">
<ele>722.369</ele>
<time>2017-04-06T02:12:13.065Z</time>
</trkpt>
<trkpt lat="-28.0498222" lon="152.3945097">
<ele>724.890</ele>
<time>2017-04-06T02:12:15.728Z</time>
</trkpt>
<trkpt lat="-28.0496895" lon="152.3939679">
<ele>727.310</ele>
<time>2017-04-06T02:12:18.712Z</time>
</trkpt>
<trkpt lat="-28.0496696" lon="152.3933617">
<ele>729.934</ele>
<time>2017-04-06T02:12:21.733Z</time>
</trkpt>
<trkpt lat="-28.0496496" lon="152.3927378">
<ele>732.996</ele>
<time>2017-04-06T02:12:24.633Z</time>
</trkpt>
<trkpt lat="-28.0495640" lon="152.3920674">
<ele>736.402</ele>
<time>2017-04-06T02:12:27.656Z</time>
</trkpt>
<trkpt lat="-28.0493398" lon="152.3914489">
<ele>739.266</ele>
<time>2017-04-06T02:12:30.645Z</time>
</trkpt>
<trkpt lat="-28.0491911" lon="152.3910378">
<ele>740.638</ele>
<time>2017-04-06T02:12:32.644Z</time>
</trkpt>
<trkpt lat="-28.0490673" lon="152.3906328">
<ele>740.522</ele>
<time>2017-04-06T02:12:34.576Z</time>
</trkpt>
<trkpt lat="-28.0488726" lon="152.3899844">
<ele>739.337</ele>
<time>2017-04-06T02:12:37.658Z</time>
</trkpt>
<trkpt lat="-28.0488468" lon="152.3895436">
<ele>737.568</ele>
<time>2017-04-06T02:12:39.632Z</time>
</trkpt>
<trkpt lat="-28.0489120" lon="152.3890921">
<ele>735.641</ele>
<time>2017-04-06T02:12:41.662Z</time>
</trkpt>
<trkpt lat="-28.0491169" lon="152.3884584">
<ele>733.807</ele>
<time>2017-04-06T02:12:44.647Z</time>
</trkpt>
<trkpt lat="-28.0494059" lon="152.3878680">
<ele>731.995</ele>
<time>2017-04-06T02:12:47.649Z</time>
</trkpt>
<trkpt lat="-28.0496536" lon="152.3872547">
<ele>729.897</ele>
<time>2017-04-06T02:12:50.664Z</time>
</trkpt>
<trkpt lat="-28.0497486" lon="152.3868135">
<ele>727.566</ele>
<time>2017-04-06T02:12:52.686Z</time>
</trkpt>
<trkpt lat="-28.0497575" lon="152.3863434">
<ele>725.416</ele>
<time>2017-04-06T02:12:54.765Z</time>
</trkpt>
<trkpt lat="-28.0496538" lon="152.3856669">
<ele>723.630</ele>
<time>2017-04-06T02:12:57.789Z</time>
</trkpt>
<trkpt lat="-28.0496079" lon="152.3852289">
<ele>721.868</ele>
<time>2017-04-06T02:12:59.743Z</time>
</trkpt>
<trkpt lat="-28.0496057" lon="152.3847801">
<ele>719.760</ele>
<time>2017-04-06T02:13:01.742Z</time>
</trkpt>
<trkpt lat="-28.0497520" lon="152.3841450">
<ele>717.430</ele>
<time>2017-04-06T02:13:04.731Z</time>
</trkpt>
<trkpt lat="-28.0499073" lon="152.3837598">
<ele>715.128</ele>
<time>2017-04-06T02:13:06.679Z</time>
</trkpt>
<trkpt lat="-28.0501279" lon="152.3834001">
<ele>712.816</ele>
<time>2017-04-06T02:13:08.682Z</time>
</trkpt>
<trkpt lat="-28.0505932" lon="152.3829826">
<ele>710.451</ele>
<time>2017-04-06T02:13:11.708Z</time>
</trkpt>
<trkpt lat="-28.0509647" lon="152.3827514">
<ele>708.035</ele>
<time>2017-04-06T02:13:13.855Z</time>
</trkpt>
<trkpt lat="-28.0513244" lon="152.3825336">
<ele>705.682</ele>
<time>2017-04-06T02:13:15.924Z</time>
</trkpt>
<trkpt lat="-28.0516546" lon="152.3822785">
<ele>703.657</ele>
<time>2017-04-06T02:13:17.952Z</time>
</trkpt>
<trkpt lat="-28.0521242" lon="152.3818448">
<ele>702.068</ele>
<time>2017-04-06T02:13:21.037Z</time>
</trkpt>
<trkpt lat="-28.0523513" lon="152.3814925">
<ele>700.752</ele>
<time>2017-04-06T02:13:23.009Z</time>
</trkpt>
<trkpt lat="-28.0525678" lon="152.3811294">
<ele>699.546</ele>
<time>2017-04-06T02:13:24.994Z</time>
</trkpt>
<trkpt lat="-28.0530076" lon="152.3806855">
<ele>698.353</ele>
<time>2017-04-06T02:13:27.987Z</time>
</trkpt>
<trkpt lat="-28.0533841" lon="152.3805203">
<ele>697.012</ele>
<time>2017-04-06T02:13:30.012Z</time>
</trkpt>
<trkpt lat="-28.0537547" lon="152.3803365">
<ele>695.454</ele>
<time>2017-04-06T02:13:32.028Z</time>
</trkpt>
<trkpt lat="-28.0541368" lon="152.3801782">
<ele>693.865</ele>
<time>2017-04-06T02:13:34.052Z</time>
</trkpt>
<trkpt lat="-28.0545162" lon="152.3799847">
<ele>692.395</ele>
<time>2017-04-06T02:13:36.114Z</time>
</trkpt>
<trkpt lat="-28.0550186" lon="152.3796281">
<ele>690.990</ele>
<time>2017-04-06T02:13:38.954Z</time>
</trkpt>
<trkpt lat="-28.0555042" lon="152.3791244">
<ele>689.522</ele>
<time>2017-04-06T02:13:41.947Z</time>
</trkpt>
<trkpt lat="-28.0558112" lon="152.3787600">
<ele>687.934</ele>
<time>2017-04-06T02:13:43.936Z</time>
</trkpt>
<trkpt lat="-28.0561102" lon="152.3783578">
<ele>686.346</ele>
<time>2017-04-06T02:13:46.003Z</time>
</trkpt>
<trkpt lat="-28.0566273" lon="152.3778526">
<ele>684.925</ele>
<time>2017-04-06T02:13:49.014Z</time>
</trkpt>
<trkpt lat="-28.0569707" lon="152.3775114">
<ele>683.691</ele>
<time>2017-04-06T02:13:51.032Z</time>
</trkpt>
<trkpt lat="-28.0572822" lon="152.3771374">
<ele>682.552</ele>
<time>2017-04-06T02:13:53.037Z</time>
</trkpt>
<trkpt lat="-28.0575883" lon="152.3767582">
<ele>681.378</ele>
<time>2017-04-06T02:13:55.028Z</time>
</trkpt>
<trkpt lat="-28.0578497" lon="152.3763312">
<ele>679.963</ele>
<time>2017-04-06T02:13:57.036Z</time>
</trkpt>
<trkpt lat="-28.0580973" lon="152.3758799">
<ele>678.228</ele>
<time>2017-04-06T02:13:59.086Z</time>
</trkpt>
<trkpt lat="-28.0582976" lon="152.3754288">
<ele>676.446</ele>
<time>2017-04-06T02:14:01.030Z</time>
</trkpt>
<trkpt lat="-28.0585459" lon="152.3746986">
<ele>674.900</ele>
<time>2017-04-06T02:14:04.037Z</time>
</trkpt>
<trkpt lat="-28.0587200" lon="152.3742300">
<ele>673.587</ele>
<time>2017-04-06T02:14:05.988Z</time>
</trkpt>
<trkpt lat="-28.0588659" lon="152.3737310">
<ele>672.314</ele>
<time>2017-04-06T02:14:08.016Z</time>
</trkpt>
<trkpt lat="-28.0590969" lon="152.3732793">
<ele>670.856</ele>
<time>2017-04-06T02:14:10.059Z</time>
</trkpt>
<trkpt lat="-28.0592660" lon="152.3728146">
<ele>669.136</ele>
<time>2017-04-06T02:14:12.045Z</time>
</trkpt>
<trkpt lat="-28.0595855" lon="152.3721611">
<ele>667.476</ele>
<time>2017-04-06T02:14:14.968Z</time>
</trkpt>
<trkpt lat="-28.0598889" lon="152.3717642">
<ele>666.380</ele>
<time>2017-04-06T02:14:16.992Z</time>
</trkpt>
<trkpt lat="-28.0601861" lon="152.3713729">
<ele>666.025</ele>
<time>2017-04-06T02:14:18.975Z</time>
</trkpt>
<trkpt lat="-28.0606410" lon="152.3707851">
<ele>666.143</ele>
<time>2017-04-06T02:14:21.971Z</time>
</trkpt>
<trkpt lat="-28.0608873" lon="152.3703450">
<ele>666.328</ele>
<time>2017-04-06T02:14:23.980Z</time>
</trkpt>
<trkpt lat="-28.0610681" lon="152.3698803">
<ele>666.115</ele>
<time>2017-04-06T02:14:25.947Z</time>
</trkpt>
<trkpt lat="-28.0611764" lon="152.3693507">
<ele>665.026</ele>
<time>2017-04-06T02:14:28.057Z</time>
</trkpt>
<trkpt lat="-28.0612968" lon="152.3686102">
<ele>663.035</ele>
<time>2017-04-06T02:14:30.988Z</time>
</trkpt>
<trkpt lat="-28.0613625" lon="152.3680980">
<ele>660.519</ele>
<time>2017-04-06T02:14:33.002Z</time>
</trkpt>
<trkpt lat="-28.0614937" lon="152.3673526">
<ele>657.913</ele>
<time>2017-04-06T02:14:35.970Z</time>
</trkpt>
<trkpt lat="-28.0617557" lon="152.3666542">
<ele>655.783</ele>
<time>2017-04-06T02:14:38.900Z</time>
</trkpt>
<trkpt lat="-28.0619350" lon="152.3661769">
<ele>654.540</ele>
<time>2017-04-06T02:14:40.888Z</time>
</trkpt>
<trkpt lat="-28.0620923" lon="152.3656859">
<ele>653.947</ele>
<time>2017-04-06T02:14:42.895Z</time>
</trkpt>
<trkpt lat="-28.0622008" lon="152.3649168">
<ele>653.411</ele>
<time>2017-04-06T02:14:45.831Z</time>
</trkpt>
<trkpt lat="-28.0622364" lon="152.3643860">
<ele>652.559</ele>
<time>2017-04-06T02:14:47.730Z</time>
</trkpt>
<trkpt lat="-28.0622705" lon="152.3638115">
<ele>651.595</ele>
<time>2017-04-06T02:14:49.724Z</time>
</trkpt>
<trkpt lat="-28.0623218" lon="152.3629381">
<ele>651.059</ele>
<time>2017-04-06T02:14:52.715Z</time>
</trkpt>
<trkpt lat="-28.0624076" lon="152.3623631">
<ele>651.141</ele>
<time>2017-04-06T02:14:54.703Z</time>
</trkpt>
<trkpt lat="-28.0625633" lon="152.3615059">
<ele>651.544</ele>
<time>2017-04-06T02:14:57.679Z</time>
</trkpt>
<trkpt lat="-28.0627414" lon="152.3609577">
<ele>652.274</ele>
<time>2017-04-06T02:14:59.658Z</time>
</trkpt>
<trkpt lat="-28.0630967" lon="152.3601777">
<ele>653.466</ele>
<time>2017-04-06T02:15:02.624Z</time>
</trkpt>
<trkpt lat="-28.0633225" lon="152.3596512">
<ele>654.654</ele>
<time>2017-04-06T02:15:04.595Z</time>
</trkpt>
<trkpt lat="-28.0636398" lon="152.3588341">
<ele>655.313</ele>
<time>2017-04-06T02:15:07.603Z</time>
</trkpt>
<trkpt lat="-28.0638648" lon="152.3583012">
<ele>655.375</ele>
<time>2017-04-06T02:15:09.608Z</time>
</trkpt>
<trkpt lat="-28.0642038" lon="152.3575211">
<ele>655.036</ele>
<time>2017-04-06T02:15:12.558Z</time>
</trkpt>
<trkpt lat="-28.0644119" lon="152.3566736">
<ele>654.698</ele>
<time>2017-04-06T02:15:15.533Z</time>
</trkpt>
<trkpt lat="-28.0644381" lon="152.3560892">
<ele>654.826</ele>
<time>2017-04-06T02:15:17.515Z</time>
</trkpt>
<trkpt lat="-28.0643088" lon="152.3552218">
<ele>655.450</ele>
<time>2017-04-06T02:15:20.489Z</time>
</trkpt>
<trkpt lat="-28.0641462" lon="152.3546632">
<ele>656.062</ele>
<time>2017-04-06T02:15:22.469Z</time>
</trkpt>
<trkpt lat="-28.0638670" lon="152.3538348">
<ele>656.228</ele>
<time>2017-04-06T02:15:25.442Z</time>
</trkpt>
<trkpt lat="-28.0635889" lon="152.3530008">
<ele>655.963</ele>
<time>2017-04-06T02:15:28.436Z</time>
</trkpt>
<trkpt lat="-28.0632906" lon="152.3521855">
<ele>655.248</ele>
<time>2017-04-06T02:15:31.443Z</time>
</trkpt>
<trkpt lat="-28.0631069" lon="152.3516525">
<ele>653.701</ele>
<time>2017-04-06T02:15:33.457Z</time>
</trkpt>
<trkpt lat="-28.0628001" lon="152.3509075">
<ele>651.207</ele>
<time>2017-04-06T02:15:36.410Z</time>
</trkpt>
<trkpt lat="-28.0625797" lon="152.3501221">
<ele>648.509</ele>
<time>2017-04-06T02:15:39.340Z</time>
</trkpt>
<trkpt lat="-28.0623895" lon="152.3495946">
<ele>646.171</ele>
<time>2017-04-06T02:15:41.311Z</time>
</trkpt>
<trkpt lat="-28.0621417" lon="152.3487655">
<ele>644.071</ele>
<time>2017-04-06T02:15:44.318Z</time>
</trkpt>
<trkpt lat="-28.0620501" lon="152.3481992">
<ele>642.118</ele>
<time>2017-04-06T02:15:46.352Z</time>
</trkpt>
<trkpt lat="-28.0620355" lon="152.3476499">
<ele>640.386</ele>
<time>2017-04-06T02:15:48.353Z</time>
</trkpt>
<trkpt lat="-28.0620286" lon="152.3471138">
<ele>638.908</ele>
<time>2017-04-06T02:15:50.329Z</time>
</trkpt>
<trkpt lat="-28.0620067" lon="152.3463126">
<ele>637.811</ele>
<time>2017-04-06T02:15:53.264Z</time>
</trkpt>
<trkpt lat="-28.0619952" lon="152.3457615">
<ele>637.186</ele>
<time>2017-04-06T02:15:55.238Z</time>
</trkpt>
<trkpt lat="-28.0619299" lon="152.3449174">
<ele>636.804</ele>
<time>2017-04-06T02:15:58.306Z</time>
</trkpt>
<trkpt lat="-28.0620530" lon="152.3441312">
<ele>636.132</ele>
<time>2017-04-06T02:16:01.264Z</time>
</trkpt>
<trkpt lat="-28.0621264" lon="152.3436061">
<ele>634.924</ele>
<time>2017-04-06T02:16:03.238Z</time>
</trkpt>
<trkpt lat="-28.0621685" lon="152.3430677">
<ele>633.382</ele>
<time>2017-04-06T02:16:05.192Z</time>
</trkpt>
<trkpt lat="-28.0621940" lon="152.3422217">
<ele>631.758</ele>
<time>2017-04-06T02:16:08.168Z</time>
</trkpt>
<trkpt lat="-28.0621085" lon="152.3416531">
<ele>630.022</ele>
<time>2017-04-06T02:16:10.139Z</time>
</trkpt>
<trkpt lat="-28.0620130" lon="152.3410823">
<ele>628.230</ele>
<time>2017-04-06T02:16:12.055Z</time>
</trkpt>
<trkpt lat="-28.0618631" lon="152.3401511">
<ele>626.859</ele>
<time>2017-04-06T02:16:15.050Z</time>
</trkpt>
<trkpt lat="-28.0617604" lon="152.3391644">
<ele>626.472</ele>
<time>2017-04-06T02:16:18.046Z</time>
</trkpt>
<trkpt lat="-28.0617058" lon="152.3384811">
<ele>627.258</ele>
<time>2017-04-06T02:16:20.053Z</time>
</trkpt>
<trkpt lat="-28.0617177" lon="152.3374522">
<ele>628.994</ele>
<time>2017-04-06T02:16:23.056Z</time>
</trkpt>
<trkpt lat="-28.0617621" lon="152.3367720">
<ele>631.120</ele>
<time>2017-04-06T02:16:25.089Z</time>
</trkpt>
<trkpt lat="-28.0618153" lon="152.3357941">
<ele>632.895</ele>
<time>2017-04-06T02:16:28.117Z</time>
</trkpt>
<trkpt lat="-28.0618551" lon="152.3348757">
<ele>633.434</ele>
<time>2017-04-06T02:16:31.104Z</time>
</trkpt>
<trkpt lat="-28.0619026" lon="152.3342900">
<ele>631.987</ele>
<time>2017-04-06T02:16:33.096Z</time>
</trkpt>
<trkpt lat="-28.0619351" lon="152.3337159">
<ele>628.906</ele>
<time>2017-04-06T02:16:35.072Z</time>
</trkpt>
<trkpt lat="-28.0619514" lon="152.3331384">
<ele>625.596</ele>
<time>2017-04-06T02:16:37.044Z</time>
</trkpt>
<trkpt lat="-28.0619915" lon="152.3325531">
<ele>622.946</ele>
<time>2017-04-06T02:16:39.028Z</time>
</trkpt>
<trkpt lat="-28.0618680" lon="152.3316810">
<ele>620.947</ele>
<time>2017-04-06T02:16:42.012Z</time>
</trkpt>
<trkpt lat="-28.0617355" lon="152.3311152">
<ele>619.468</ele>
<time>2017-04-06T02:16:43.993Z</time>
</trkpt>
<trkpt lat="-28.0614308" lon="152.3303072">
<ele>618.371</ele>
<time>2017-04-06T02:16:46.964Z</time>
</trkpt>
<trkpt lat="-28.0611926" lon="152.3297845">
<ele>617.489</ele>
<time>2017-04-06T02:16:48.953Z</time>
</trkpt>
<trkpt lat="-28.0609708" lon="152.3292501">
<ele>616.789</ele>
<time>2017-04-06T02:16:50.951Z</time>
</trkpt>
<trkpt lat="-28.0607097" lon="152.3284232">
<ele>616.348</ele>
<time>2017-04-06T02:16:53.934Z</time>
</trkpt>
<trkpt lat="-28.0604204" lon="152.3276177">
<ele>616.168</ele>
<time>2017-04-06T02:16:56.901Z</time>
</trkpt>
<trkpt lat="-28.0601514" lon="152.3268044">
<ele>616.360</ele>
<time>2017-04-06T02:16:59.862Z</time>
</trkpt>
<trkpt lat="-28.0599621" lon="152.3262608">
<ele>617.243</ele>
<time>2017-04-06T02:17:01.835Z</time>
</trkpt>
<trkpt lat="-28.0597117" lon="152.3254195">
<ele>618.756</ele>
<time>2017-04-06T02:17:04.819Z</time>
</trkpt>
<trkpt lat="-28.0595748" lon="152.3248469">
<ele>620.273</ele>
<time>2017-04-06T02:17:06.809Z</time>
</trkpt>
<trkpt lat="-28.0594244" lon="152.3239809">
<ele>621.255</ele>
<time>2017-04-06T02:17:09.776Z</time>
</trkpt>
<trkpt lat="-28.0593111" lon="152.3231042">
<ele>621.312</ele>
<time>2017-04-06T02:17:12.761Z</time>
</trkpt>
<trkpt lat="-28.0592632" lon="152.3225206">
<ele>620.016</ele>
<time>2017-04-06T02:17:14.743Z</time>
</trkpt>
<trkpt lat="-28.0592138" lon="152.3219340">
<ele>617.582</ele>
<time>2017-04-06T02:17:16.742Z</time>
</trkpt>
<trkpt lat="-28.0591246" lon="152.3210636">
<ele>614.986</ele>
<time>2017-04-06T02:17:19.742Z</time>
</trkpt>
<trkpt lat="-28.0590506" lon="152.3204973">
<ele>612.978</ele>
<time>2017-04-06T02:17:21.787Z</time>
</trkpt>
<trkpt lat="-28.0589499" lon="152.3199899">
<ele>611.633</ele>
<time>2017-04-06T02:17:23.787Z</time>
</trkpt>
<trkpt lat="-28.0588933" lon="152.3195241">
<ele>610.685</ele>
<time>2017-04-06T02:17:25.738Z</time>
</trkpt>
<trkpt lat="-28.0587985" lon="152.3190809">
<ele>609.941</ele>
<time>2017-04-06T02:17:27.710Z</time>
</trkpt>
<trkpt lat="-28.0586921" lon="152.3184229">
<ele>609.365</ele>
<time>2017-04-06T02:17:30.644Z</time>
</trkpt>
<trkpt lat="-28.0586829" lon="152.3179735">
<ele>608.790</ele>
<time>2017-04-06T02:17:32.647Z</time>
</trkpt>
<trkpt lat="-28.0586536" lon="152.3173073">
<ele>608.025</ele>
<time>2017-04-06T02:17:35.653Z</time>
</trkpt>
<trkpt lat="-28.0587290" lon="152.3168900">
<ele>607.095</ele>
<time>2017-04-06T02:17:37.761Z</time>
</trkpt>
<trkpt lat="-28.0588226" lon="152.3163701">
<ele>606.074</ele>
<time>2017-04-06T02:17:40.661Z</time>
</trkpt>
<trkpt lat="-28.0588875" lon="152.3160759">
<ele>604.787</ele>
<time>2017-04-06T02:17:42.626Z</time>
</trkpt>
<trkpt lat="-28.0589609" lon="152.3158304">
<ele>603.002</ele>
<time>2017-04-06T02:17:44.672Z</time>
</trkpt>
<trkpt lat="-28.0590632" lon="152.3155633">
<ele>600.782</ele>
<time>2017-04-06T02:17:47.385Z</time>
</trkpt>
<trkpt lat="-28.0591312" lon="152.3154316">
<ele>598.311</ele>
<time>2017-04-06T02:17:49.257Z</time>
</trkpt>
<trkpt lat="-28.0591096" lon="152.3152993">
<ele>595.843</ele>
<time>2017-04-06T02:17:51.391Z</time>
</trkpt>
<trkpt lat="-28.0592246" lon="152.3152239">
<ele>593.843</ele>
<time>2017-04-06T02:17:55.043Z</time>
</trkpt>
<trkpt lat="-28.0592161" lon="152.3151032">
<ele>592.538</ele>
<time>2017-04-06T02:17:59.168Z</time>
</trkpt>
<trkpt lat="-28.0593003" lon="152.3150327">
<ele>591.825</ele>
<time>2017-04-06T02:18:04.994Z</time>
</trkpt>
<trkpt lat="-28.0593003" lon="152.3150327">
<ele>591.549</ele>
<time>2017-04-06T02:18:07.994Z</time>
</trkpt>
<trkpt lat="-28.0593003" lon="152.3150327">
<ele>591.452</ele>
<time>2017-04-06T02:20:58.879Z</time>
</trkpt>
<trkpt lat="-28.0593306" lon="152.3148183">
<ele>591.324</ele>
<time>2017-04-06T02:21:03.398Z</time>
</trkpt>
<trkpt lat="-28.0594046" lon="152.3146633">
<ele>591.475</ele>
<time>2017-04-06T02:21:05.580Z</time>
</trkpt>
<trkpt lat="-28.0594967" lon="152.3144526">
<ele>592.215</ele>
<time>2017-04-06T02:21:08.516Z</time>
</trkpt>
<trkpt lat="-28.0595725" lon="152.3143193">
<ele>593.221</ele>
<time>2017-04-06T02:21:10.542Z</time>
</trkpt>
<trkpt lat="-28.0596868" lon="152.3141197">
<ele>594.059</ele>
<time>2017-04-06T02:21:13.659Z</time>
</trkpt>
<trkpt lat="-28.0597521" lon="152.3140065">
<ele>594.686</ele>
<time>2017-04-06T02:21:15.655Z</time>
</trkpt>
<trkpt lat="-28.0598380" lon="152.3138476">
<ele>595.160</ele>
<time>2017-04-06T02:21:18.533Z</time>
</trkpt>
<trkpt lat="-28.0598943" lon="152.3137315">
<ele>595.518</ele>
<time>2017-04-06T02:21:20.553Z</time>
</trkpt>
<trkpt lat="-28.0599872" lon="152.3135511">
<ele>595.780</ele>
<time>2017-04-06T02:21:23.651Z</time>
</trkpt>
<trkpt lat="-28.0600516" lon="152.3134348">
<ele>595.979</ele>
<time>2017-04-06T02:21:25.547Z</time>
</trkpt>
<trkpt lat="-28.0601339" lon="152.3132163">
<ele>596.147</ele>
<time>2017-04-06T02:21:28.622Z</time>
</trkpt>
<trkpt lat="-28.0602132" lon="152.3130700">
<ele>596.312</ele>
<time>2017-04-06T02:21:30.641Z</time>
</trkpt>
<trkpt lat="-28.0602907" lon="152.3129129">
<ele>596.478</ele>
<time>2017-04-06T02:21:32.613Z</time>
</trkpt>
<trkpt lat="-28.0603931" lon="152.3126482">
<ele>596.631</ele>
<time>2017-04-06T02:21:35.619Z</time>
</trkpt>
<trkpt lat="-28.0604755" lon="152.3124614">
<ele>596.786</ele>
<time>2017-04-06T02:21:37.645Z</time>
</trkpt>
<trkpt lat="-28.0605892" lon="152.3121652">
<ele>596.986</ele>
<time>2017-04-06T02:21:40.701Z</time>
</trkpt>
<trkpt lat="-28.0606347" lon="152.3119528">
<ele>597.223</ele>
<time>2017-04-06T02:21:42.713Z</time>
</trkpt>
<trkpt lat="-28.0606791" lon="152.3117399">
<ele>597.441</ele>
<time>2017-04-06T02:21:44.640Z</time>
</trkpt>
<trkpt lat="-28.0607409" lon="152.3113898">
<ele>597.602</ele>
<time>2017-04-06T02:21:47.670Z</time>
</trkpt>
<trkpt lat="-28.0607712" lon="152.3111454">
<ele>597.725</ele>
<time>2017-04-06T02:21:49.690Z</time>
</trkpt>
<trkpt lat="-28.0607988" lon="152.3107760">
<ele>597.830</ele>
<time>2017-04-06T02:21:52.718Z</time>
</trkpt>
<trkpt lat="-28.0608149" lon="152.3104100">
<ele>597.876</ele>
<time>2017-04-06T02:21:55.710Z</time>
</trkpt>
<trkpt lat="-28.0608150" lon="152.3101624">
<ele>597.762</ele>
<time>2017-04-06T02:21:57.726Z</time>
</trkpt>
<trkpt lat="-28.0608029" lon="152.3097959">
<ele>597.440</ele>
<time>2017-04-06T02:22:00.831Z</time>
</trkpt>
<trkpt lat="-28.0607911" lon="152.3094768">
<ele>596.981</ele>
<time>2017-04-06T02:22:03.770Z</time>
</trkpt>
<trkpt lat="-28.0607915" lon="152.3091694">
<ele>596.504</ele>
<time>2017-04-06T02:22:06.814Z</time>
</trkpt>
<trkpt lat="-28.0607840" lon="152.3089786">
<ele>596.105</ele>
<time>2017-04-06T02:22:08.857Z</time>
</trkpt>
<trkpt lat="-28.0607776" lon="152.3087980">
<ele>595.837</ele>
<time>2017-04-06T02:22:10.827Z</time>
</trkpt>
<trkpt lat="-28.0607735" lon="152.3086120">
<ele>595.687</ele>
<time>2017-04-06T02:22:12.853Z</time>
</trkpt>
<trkpt lat="-28.0607714" lon="152.3084302">
<ele>595.613</ele>
<time>2017-04-06T02:22:14.876Z</time>
</trkpt>
<trkpt lat="-28.0607692" lon="152.3082529">
<ele>595.581</ele>
<time>2017-04-06T02:22:16.930Z</time>
</trkpt>
<trkpt lat="-28.0607779" lon="152.3080010">
<ele>595.559</ele>
<time>2017-04-06T02:22:19.797Z</time>
</trkpt>
<trkpt lat="-28.0608023" lon="152.3077256">
<ele>595.502</ele>
<time>2017-04-06T02:22:22.703Z</time>
</trkpt>
<trkpt lat="-28.0608346" lon="152.3074194">
<ele>595.370</ele>
<time>2017-04-06T02:22:25.577Z</time>
</trkpt>
<trkpt lat="-28.0609006" lon="152.3070614">
<ele>595.166</ele>
<time>2017-04-06T02:22:28.583Z</time>
</trkpt>
<trkpt lat="-28.0609861" lon="152.3066652">
<ele>594.865</ele>
<time>2017-04-06T02:22:31.659Z</time>
</trkpt>
<trkpt lat="-28.0610654" lon="152.3062715">
<ele>594.358</ele>
<time>2017-04-06T02:22:34.655Z</time>
</trkpt>
<trkpt lat="-28.0611309" lon="152.3060185">
<ele>593.500</ele>
<time>2017-04-06T02:22:36.828Z</time>
</trkpt>
<trkpt lat="-28.0611972" lon="152.3056945">
<ele>592.268</ele>
<time>2017-04-06T02:22:40.037Z</time>
</trkpt>
<trkpt lat="-28.0612226" lon="152.3055376">
<ele>590.680</ele>
<time>2017-04-06T02:22:42.064Z</time>
</trkpt>
<trkpt lat="-28.0612697" lon="152.3053320">
<ele>588.820</ele>
<time>2017-04-06T02:22:44.945Z</time>
</trkpt>
<trkpt lat="-28.0612918" lon="152.3051912">
<ele>586.942</ele>
<time>2017-04-06T02:22:46.996Z</time>
</trkpt>
<trkpt lat="-28.0613299" lon="152.3050597">
<ele>585.378</ele>
<time>2017-04-06T02:22:49.100Z</time>
</trkpt>
<trkpt lat="-28.0613722" lon="152.3048768">
<ele>584.328</ele>
<time>2017-04-06T02:22:52.021Z</time>
</trkpt>
<trkpt lat="-28.0613773" lon="152.3046818">
<ele>583.793</ele>
<time>2017-04-06T02:22:55.014Z</time>
</trkpt>
<trkpt lat="-28.0613764" lon="152.3045469">
<ele>583.598</ele>
<time>2017-04-06T02:22:56.969Z</time>
</trkpt>
<trkpt lat="-28.0613886" lon="152.3043320">
<ele>583.616</ele>
<time>2017-04-06T02:22:59.956Z</time>
</trkpt>
<trkpt lat="-28.0614082" lon="152.3041069">
<ele>583.827</ele>
<time>2017-04-06T02:23:02.931Z</time>
</trkpt>
<trkpt lat="-28.0614130" lon="152.3038664">
<ele>584.267</ele>
<time>2017-04-06T02:23:05.936Z</time>
</trkpt>
<trkpt lat="-28.0614101" lon="152.3036940">
<ele>584.937</ele>
<time>2017-04-06T02:23:07.953Z</time>
</trkpt>
<trkpt lat="-28.0613876" lon="152.3034323">
<ele>585.740</ele>
<time>2017-04-06T02:23:10.955Z</time>
</trkpt>
<trkpt lat="-28.0613652" lon="152.3032527">
<ele>586.542</ele>
<time>2017-04-06T02:23:12.943Z</time>
</trkpt>
<trkpt lat="-28.0613435" lon="152.3030672">
<ele>587.243</ele>
<time>2017-04-06T02:23:14.982Z</time>
</trkpt>
<trkpt lat="-28.0613051" lon="152.3027999">
<ele>587.790</ele>
<time>2017-04-06T02:23:17.921Z</time>
</trkpt>
<trkpt lat="-28.0612593" lon="152.3026144">
<ele>588.212</ele>
<time>2017-04-06T02:23:19.927Z</time>
</trkpt>
<trkpt lat="-28.0612071" lon="152.3024182">
<ele>588.583</ele>
<time>2017-04-06T02:23:22.006Z</time>
</trkpt>
<trkpt lat="-28.0611282" lon="152.3021341">
<ele>588.878</ele>
<time>2017-04-06T02:23:24.935Z</time>
</trkpt>
<trkpt lat="-28.0610468" lon="152.3018261">
<ele>589.021</ele>
<time>2017-04-06T02:23:27.900Z</time>
</trkpt>
<trkpt lat="-28.0609574" lon="152.3015003">
<ele>589.010</ele>
<time>2017-04-06T02:23:30.853Z</time>
</trkpt>
<trkpt lat="-28.0608743" lon="152.3011482">
<ele>588.869</ele>
<time>2017-04-06T02:23:33.887Z</time>
</trkpt>
<trkpt lat="-28.0607838" lon="152.3007979">
<ele>588.567</ele>
<time>2017-04-06T02:23:36.906Z</time>
</trkpt>
<trkpt lat="-28.0607329" lon="152.3005660">
<ele>588.114</ele>
<time>2017-04-06T02:23:38.871Z</time>
</trkpt>
<trkpt lat="-28.0606494" lon="152.3002112">
<ele>587.647</ele>
<time>2017-04-06T02:23:41.829Z</time>
</trkpt>
<trkpt lat="-28.0605516" lon="152.2998454">
<ele>587.334</ele>
<time>2017-04-06T02:23:44.830Z</time>
</trkpt>
<trkpt lat="-28.0604905" lon="152.2995971">
<ele>587.250</ele>
<time>2017-04-06T02:23:46.848Z</time>
</trkpt>
<trkpt lat="-28.0603952" lon="152.2992295">
<ele>587.337</ele>
<time>2017-04-06T02:23:49.914Z</time>
</trkpt>
<trkpt lat="-28.0603382" lon="152.2989992">
<ele>587.448</ele>
<time>2017-04-06T02:23:51.884Z</time>
</trkpt>
<trkpt lat="-28.0602486" lon="152.2986492">
<ele>587.449</ele>
<time>2017-04-06T02:23:54.872Z</time>
</trkpt>
<trkpt lat="-28.0601897" lon="152.2984093">
<ele>587.233</ele>
<time>2017-04-06T02:23:56.843Z</time>
</trkpt>
<trkpt lat="-28.0601002" lon="152.2980345">
<ele>586.753</ele>
<time>2017-04-06T02:23:59.828Z</time>
</trkpt>
<trkpt lat="-28.0600087" lon="152.2976438">
<ele>586.020</ele>
<time>2017-04-06T02:24:02.777Z</time>
</trkpt>
<trkpt lat="-28.0599433" lon="152.2973625">
<ele>584.941</ele>
<time>2017-04-06T02:24:04.710Z</time>
</trkpt>
<trkpt lat="-28.0598621" lon="152.2970575">
<ele>583.497</ele>
<time>2017-04-06T02:24:06.747Z</time>
</trkpt>
<trkpt lat="-28.0597217" lon="152.2966133">
<ele>581.956</ele>
<time>2017-04-06T02:24:09.785Z</time>
</trkpt>
<trkpt lat="-28.0596139" lon="152.2963439">
<ele>580.414</ele>
<time>2017-04-06T02:24:11.842Z</time>
</trkpt>
<trkpt lat="-28.0594568" lon="152.2959799">
<ele>578.752</ele>
<time>2017-04-06T02:24:14.869Z</time>
</trkpt>
<trkpt lat="-28.0593460" lon="152.2957801">
<ele>576.995</ele>
<time>2017-04-06T02:24:16.928Z</time>
</trkpt>
<trkpt lat="-28.0592060" lon="152.2955126">
<ele>575.333</ele>
<time>2017-04-06T02:24:19.864Z</time>
</trkpt>
<trkpt lat="-28.0591202" lon="152.2953445">
<ele>573.968</ele>
<time>2017-04-06T02:24:21.925Z</time>
</trkpt>
<trkpt lat="-28.0589996" lon="152.2951189">
<ele>573.076</ele>
<time>2017-04-06T02:24:24.850Z</time>
</trkpt>
<trkpt lat="-28.0589160" lon="152.2949696">
<ele>572.677</ele>
<time>2017-04-06T02:24:26.816Z</time>
</trkpt>
<trkpt lat="-28.0587946" lon="152.2947308">
<ele>572.661</ele>
<time>2017-04-06T02:24:29.810Z</time>
</trkpt>
<trkpt lat="-28.0586771" lon="152.2944812">
<ele>572.832</ele>
<time>2017-04-06T02:24:32.789Z</time>
</trkpt>
<trkpt lat="-28.0585691" lon="152.2942218">
<ele>573.024</ele>
<time>2017-04-06T02:24:35.703Z</time>
</trkpt>
<trkpt lat="-28.0584655" lon="152.2939366">
<ele>573.165</ele>
<time>2017-04-06T02:24:38.725Z</time>
</trkpt>
<trkpt lat="-28.0583959" lon="152.2937419">
<ele>573.256</ele>
<time>2017-04-06T02:24:40.722Z</time>
</trkpt>
<trkpt lat="-28.0583375" lon="152.2935384">
<ele>573.302</ele>
<time>2017-04-06T02:24:42.659Z</time>
</trkpt>
<trkpt lat="-28.0582559" lon="152.2932045">
<ele>573.316</ele>
<time>2017-04-06T02:24:45.647Z</time>
</trkpt>
<trkpt lat="-28.0581835" lon="152.2928459">
<ele>573.304</ele>
<time>2017-04-06T02:24:48.665Z</time>
</trkpt>
<trkpt lat="-28.0581475" lon="152.2926020">
<ele>573.240</ele>
<time>2017-04-06T02:24:50.638Z</time>
</trkpt>
<trkpt lat="-28.0581147" lon="152.2922256">
<ele>573.080</ele>
<time>2017-04-06T02:24:53.609Z</time>
</trkpt>
<trkpt lat="-28.0581015" lon="152.2919639">
<ele>572.742</ele>
<time>2017-04-06T02:24:55.591Z</time>
</trkpt>
<trkpt lat="-28.0580990" lon="152.2915632">
<ele>572.177</ele>
<time>2017-04-06T02:24:58.536Z</time>
</trkpt>
<trkpt lat="-28.0581127" lon="152.2912752">
<ele>571.401</ele>
<time>2017-04-06T02:25:00.459Z</time>
</trkpt>
<trkpt lat="-28.0581540" lon="152.2907901">
<ele>570.438</ele>
<time>2017-04-06T02:25:03.505Z</time>
</trkpt>
<trkpt lat="-28.0581874" lon="152.2904529">
<ele>569.255</ele>
<time>2017-04-06T02:25:05.506Z</time>
</trkpt>
<trkpt lat="-28.0582404" lon="152.2899421">
<ele>567.849</ele>
<time>2017-04-06T02:25:08.505Z</time>
</trkpt>
<trkpt lat="-28.0582679" lon="152.2895984">
<ele>566.221</ele>
<time>2017-04-06T02:25:10.504Z</time>
</trkpt>
<trkpt lat="-28.0582686" lon="152.2892552">
<ele>564.418</ele>
<time>2017-04-06T02:25:12.516Z</time>
</trkpt>
<trkpt lat="-28.0582715" lon="152.2887504">
<ele>562.590</ele>
<time>2017-04-06T02:25:15.534Z</time>
</trkpt>
<trkpt lat="-28.0582235" lon="152.2882731">
<ele>560.761</ele>
<time>2017-04-06T02:25:18.491Z</time>
</trkpt>
<trkpt lat="-28.0581603" lon="152.2879658">
<ele>558.832</ele>
<time>2017-04-06T02:25:20.471Z</time>
</trkpt>
<trkpt lat="-28.0581155" lon="152.2874895">
<ele>557.057</ele>
<time>2017-04-06T02:25:23.446Z</time>
</trkpt>
<trkpt lat="-28.0580259" lon="152.2870029">
<ele>555.797</ele>
<time>2017-04-06T02:25:26.481Z</time>
</trkpt>
<trkpt lat="-28.0579280" lon="152.2865261">
<ele>555.113</ele>
<time>2017-04-06T02:25:29.506Z</time>
</trkpt>
<trkpt lat="-28.0577983" lon="152.2860827">
<ele>554.885</ele>
<time>2017-04-06T02:25:32.456Z</time>
</trkpt>
<trkpt lat="-28.0577784" lon="152.2857668">
<ele>554.975</ele>
<time>2017-04-06T02:25:34.423Z</time>
</trkpt>
<trkpt lat="-28.0576948" lon="152.2854426">
<ele>555.254</ele>
<time>2017-04-06T02:25:36.449Z</time>
</trkpt>
<trkpt lat="-28.0575833" lon="152.2849332">
<ele>555.600</ele>
<time>2017-04-06T02:25:39.532Z</time>
</trkpt>
<trkpt lat="-28.0575395" lon="152.2845917">
<ele>555.875</ele>
<time>2017-04-06T02:25:41.526Z</time>
</trkpt>
<trkpt lat="-28.0574580" lon="152.2840755">
<ele>555.988</ele>
<time>2017-04-06T02:25:44.519Z</time>
</trkpt>
<trkpt lat="-28.0573296" lon="152.2835550">
<ele>555.952</ele>
<time>2017-04-06T02:25:47.529Z</time>
</trkpt>
<trkpt lat="-28.0572916" lon="152.2831830">
<ele>555.890</ele>
<time>2017-04-06T02:25:49.533Z</time>
</trkpt>
<trkpt lat="-28.0571763" lon="152.2826225">
<ele>555.888</ele>
<time>2017-04-06T02:25:52.562Z</time>
</trkpt>
<trkpt lat="-28.0570889" lon="152.2822486">
<ele>555.905</ele>
<time>2017-04-06T02:25:54.553Z</time>
</trkpt>
<trkpt lat="-28.0569973" lon="152.2816624">
<ele>555.886</ele>
<time>2017-04-06T02:25:57.543Z</time>
</trkpt>
<trkpt lat="-28.0568468" lon="152.2810586">
<ele>555.883</ele>
<time>2017-04-06T02:26:00.599Z</time>
</trkpt>
<trkpt lat="-28.0567577" lon="152.2806614">
<ele>555.995</ele>
<time>2017-04-06T02:26:02.601Z</time>
</trkpt>
<trkpt lat="-28.0567404" lon="152.2802562">
<ele>556.197</ele>
<time>2017-04-06T02:26:04.553Z</time>
</trkpt>
<trkpt lat="-28.0565963" lon="152.2796267">
<ele>556.319</ele>
<time>2017-04-06T02:26:07.560Z</time>
</trkpt>
<trkpt lat="-28.0565192" lon="152.2791638">
<ele>556.236</ele>
<time>2017-04-06T02:26:09.584Z</time>
</trkpt>
<trkpt lat="-28.0564274" lon="152.2786874">
<ele>556.020</ele>
<time>2017-04-06T02:26:11.592Z</time>
</trkpt>
<trkpt lat="-28.0563075" lon="152.2779593">
<ele>555.822</ele>
<time>2017-04-06T02:26:14.610Z</time>
</trkpt>
<trkpt lat="-28.0561911" lon="152.2772341">
<ele>555.562</ele>
<time>2017-04-06T02:26:17.633Z</time>
</trkpt>
<trkpt lat="-28.0561088" lon="152.2767654">
<ele>554.897</ele>
<time>2017-04-06T02:26:19.606Z</time>
</trkpt>
<trkpt lat="-28.0560311" lon="152.2762793">
<ele>553.671</ele>
<time>2017-04-06T02:26:21.614Z</time>
</trkpt>
<trkpt lat="-28.0558998" lon="152.2758003">
<ele>552.210</ele>
<time>2017-04-06T02:26:23.638Z</time>
</trkpt>
<trkpt lat="-28.0558144" lon="152.2753205">
<ele>550.927</ele>
<time>2017-04-06T02:26:25.616Z</time>
</trkpt>
<trkpt lat="-28.0556935" lon="152.2745902">
<ele>549.953</ele>
<time>2017-04-06T02:26:28.610Z</time>
</trkpt>
<trkpt lat="-28.0556044" lon="152.2741005">
<ele>549.203</ele>
<time>2017-04-06T02:26:30.614Z</time>
</trkpt>
<trkpt lat="-28.0555109" lon="152.2736126">
<ele>548.640</ele>
<time>2017-04-06T02:26:32.637Z</time>
</trkpt>
<trkpt lat="-28.0554810" lon="152.2728881">
<ele>548.326</ele>
<time>2017-04-06T02:26:35.620Z</time>
</trkpt>
<trkpt lat="-28.0554377" lon="152.2724157">
<ele>548.336</ele>
<time>2017-04-06T02:26:37.587Z</time>
</trkpt>
<trkpt lat="-28.0554213" lon="152.2719252">
<ele>548.639</ele>
<time>2017-04-06T02:26:39.591Z</time>
</trkpt>
<trkpt lat="-28.0553798" lon="152.2714273">
<ele>549.055</ele>
<time>2017-04-06T02:26:41.598Z</time>
</trkpt>
<trkpt lat="-28.0553397" lon="152.2706716">
<ele>549.352</ele>
<time>2017-04-06T02:26:44.608Z</time>
</trkpt>
<trkpt lat="-28.0552431" lon="152.2699188">
<ele>549.455</ele>
<time>2017-04-06T02:26:47.623Z</time>
</trkpt>
<trkpt lat="-28.0552229" lon="152.2694212">
<ele>549.173</ele>
<time>2017-04-06T02:26:49.624Z</time>
</trkpt>
<trkpt lat="-28.0552161" lon="152.2689305">
<ele>548.248</ele>
<time>2017-04-06T02:26:51.629Z</time>
</trkpt>
<trkpt lat="-28.0552140" lon="152.2682104">
<ele>546.777</ele>
<time>2017-04-06T02:26:54.597Z</time>
</trkpt>
<trkpt lat="-28.0552115" lon="152.2677260">
<ele>545.111</ele>
<time>2017-04-06T02:26:56.564Z</time>
</trkpt>
<trkpt lat="-28.0552213" lon="152.2669653">
<ele>543.587</ele>
<time>2017-04-06T02:26:59.592Z</time>
</trkpt>
<trkpt lat="-28.0552968" lon="152.2664543">
<ele>542.543</ele>
<time>2017-04-06T02:27:01.622Z</time>
</trkpt>
<trkpt lat="-28.0555097" lon="152.2657307">
<ele>542.193</ele>
<time>2017-04-06T02:27:04.654Z</time>
</trkpt>
<trkpt lat="-28.0556591" lon="152.2650230">
<ele>542.555</ele>
<time>2017-04-06T02:27:07.625Z</time>
</trkpt>
<trkpt lat="-28.0557321" lon="152.2645417">
<ele>543.557</ele>
<time>2017-04-06T02:27:09.623Z</time>
</trkpt>
<trkpt lat="-28.0558740" lon="152.2640659">
<ele>545.058</ele>
<time>2017-04-06T02:27:11.645Z</time>
</trkpt>
<trkpt lat="-28.0559454" lon="152.2635712">
<ele>546.814</ele>
<time>2017-04-06T02:27:13.688Z</time>
</trkpt>
<trkpt lat="-28.0560707" lon="152.2631167">
<ele>548.576</ele>
<time>2017-04-06T02:27:15.700Z</time>
</trkpt>
<trkpt lat="-28.0562446" lon="152.2624544">
<ele>550.152</ele>
<time>2017-04-06T02:27:18.636Z</time>
</trkpt>
<trkpt lat="-28.0563297" lon="152.2619845">
<ele>551.477</ele>
<time>2017-04-06T02:27:20.613Z</time>
</trkpt>
<trkpt lat="-28.0564528" lon="152.2612466">
<ele>552.535</ele>
<time>2017-04-06T02:27:23.677Z</time>
</trkpt>
<trkpt lat="-28.0565756" lon="152.2607884">
<ele>553.205</ele>
<time>2017-04-06T02:27:25.651Z</time>
</trkpt>
<trkpt lat="-28.0567050" lon="152.2600859">
<ele>553.321</ele>
<time>2017-04-06T02:27:28.611Z</time>
</trkpt>
<trkpt lat="-28.0568774" lon="152.2593749">
<ele>552.745</ele>
<time>2017-04-06T02:27:31.607Z</time>
</trkpt>
<trkpt lat="-28.0570239" lon="152.2586373">
<ele>551.375</ele>
<time>2017-04-06T02:27:34.607Z</time>
</trkpt>
<trkpt lat="-28.0571402" lon="152.2581407">
<ele>549.316</ele>
<time>2017-04-06T02:27:36.603Z</time>
</trkpt>
<trkpt lat="-28.0573233" lon="152.2573912">
<ele>547.014</ele>
<time>2017-04-06T02:27:39.576Z</time>
</trkpt>
<trkpt lat="-28.0574981" lon="152.2565998">
<ele>545.083</ele>
<time>2017-04-06T02:27:42.614Z</time>
</trkpt>
<trkpt lat="-28.0576152" lon="152.2560704">
<ele>543.908</ele>
<time>2017-04-06T02:27:44.653Z</time>
</trkpt>
<trkpt lat="-28.0577688" lon="152.2553136">
<ele>543.468</ele>
<time>2017-04-06T02:27:47.594Z</time>
</trkpt>
<trkpt lat="-28.0578836" lon="152.2548101">
<ele>543.500</ele>
<time>2017-04-06T02:27:49.524Z</time>
</trkpt>
<trkpt lat="-28.0580794" lon="152.2539909">
<ele>543.804</ele>
<time>2017-04-06T02:27:52.628Z</time>
</trkpt>
<trkpt lat="-28.0582360" lon="152.2532011">
<ele>544.381</ele>
<time>2017-04-06T02:27:55.623Z</time>
</trkpt>
<trkpt lat="-28.0583389" lon="152.2526952">
<ele>545.164</ele>
<time>2017-04-06T02:27:57.614Z</time>
</trkpt>
<trkpt lat="-28.0584961" lon="152.2519470">
<ele>545.946</ele>
<time>2017-04-06T02:28:00.586Z</time>
</trkpt>
<trkpt lat="-28.0585850" lon="152.2514461">
<ele>546.646</ele>
<time>2017-04-06T02:28:02.551Z</time>
</trkpt>
<trkpt lat="-28.0587523" lon="152.2506826">
<ele>547.282</ele>
<time>2017-04-06T02:28:05.558Z</time>
</trkpt>
<trkpt lat="-28.0588480" lon="152.2501682">
<ele>547.759</ele>
<time>2017-04-06T02:28:07.558Z</time>
</trkpt>
<trkpt lat="-28.0589957" lon="152.2496697">
<ele>548.020</ele>
<time>2017-04-06T02:28:09.576Z</time>
</trkpt>
<trkpt lat="-28.0591603" lon="152.2489203">
<ele>548.144</ele>
<time>2017-04-06T02:28:12.656Z</time>
</trkpt>
<trkpt lat="-28.0592941" lon="152.2482542">
<ele>548.037</ele>
<time>2017-04-06T02:28:15.621Z</time>
</trkpt>
<trkpt lat="-28.0593618" lon="152.2476314">
<ele>547.425</ele>
<time>2017-04-06T02:28:18.533Z</time>
</trkpt>
<trkpt lat="-28.0593877" lon="152.2470021">
<ele>546.391</ele>
<time>2017-04-06T02:28:21.513Z</time>
</trkpt>
<trkpt lat="-28.0594281" lon="152.2465841">
<ele>545.466</ele>
<time>2017-04-06T02:28:23.514Z</time>
</trkpt>
<trkpt lat="-28.0594173" lon="152.2461776">
<ele>545.005</ele>
<time>2017-04-06T02:28:25.498Z</time>
</trkpt>
<trkpt lat="-28.0594560" lon="152.2457891">
<ele>544.924</ele>
<time>2017-04-06T02:28:27.452Z</time>
</trkpt>
<trkpt lat="-28.0594161" lon="152.2453978">
<ele>544.997</ele>
<time>2017-04-06T02:28:29.428Z</time>
</trkpt>
<trkpt lat="-28.0594539" lon="152.2448010">
<ele>545.077</ele>
<time>2017-04-06T02:28:32.417Z</time>
</trkpt>
<trkpt lat="-28.0594983" lon="152.2442011">
<ele>545.060</ele>
<time>2017-04-06T02:28:35.422Z</time>
</trkpt>
<trkpt lat="-28.0595605" lon="152.2436106">
<ele>544.772</ele>
<time>2017-04-06T02:28:38.411Z</time>
</trkpt>
<trkpt lat="-28.0596546" lon="152.2432353">
<ele>544.084</ele>
<time>2017-04-06T02:28:40.373Z</time>
</trkpt>
<trkpt lat="-28.0596990" lon="152.2428284">
<ele>543.076</ele>
<time>2017-04-06T02:28:42.377Z</time>
</trkpt>
<trkpt lat="-28.0598695" lon="152.2422172">
<ele>541.924</ele>
<time>2017-04-06T02:28:45.367Z</time>
</trkpt>
<trkpt lat="-28.0600158" lon="152.2415409">
<ele>540.656</ele>
<time>2017-04-06T02:28:48.391Z</time>
</trkpt>
<trkpt lat="-28.0601038" lon="152.2410554">
<ele>539.209</ele>
<time>2017-04-06T02:28:50.419Z</time>
</trkpt>
<trkpt lat="-28.0601963" lon="152.2405599">
<ele>537.733</ele>
<time>2017-04-06T02:28:52.435Z</time>
</trkpt>
<trkpt lat="-28.0603504" lon="152.2398069">
<ele>536.443</ele>
<time>2017-04-06T02:28:55.462Z</time>
</trkpt>
<trkpt lat="-28.0605485" lon="152.2390583">
<ele>535.133</ele>
<time>2017-04-06T02:28:58.468Z</time>
</trkpt>
<trkpt lat="-28.0606804" lon="152.2382758">
<ele>533.432</ele>
<time>2017-04-06T02:29:01.487Z</time>
</trkpt>
<trkpt lat="-28.0608866" lon="152.2375039">
<ele>531.450</ele>
<time>2017-04-06T02:29:04.538Z</time>
</trkpt>
<trkpt lat="-28.0610426" lon="152.2370217">
<ele>529.549</ele>
<time>2017-04-06T02:29:06.531Z</time>
</trkpt>
<trkpt lat="-28.0611617" lon="152.2365398">
<ele>527.922</ele>
<time>2017-04-06T02:29:08.511Z</time>
</trkpt>
<trkpt lat="-28.0613027" lon="152.2360650">
<ele>526.679</ele>
<time>2017-04-06T02:29:10.509Z</time>
</trkpt>
<trkpt lat="-28.0614526" lon="152.2353332">
<ele>525.931</ele>
<time>2017-04-06T02:29:13.519Z</time>
</trkpt>
<trkpt lat="-28.0616009" lon="152.2348713">
<ele>525.704</ele>
<time>2017-04-06T02:29:15.485Z</time>
</trkpt>
<trkpt lat="-28.0617931" lon="152.2341501">
<ele>525.926</ele>
<time>2017-04-06T02:29:18.481Z</time>
</trkpt>
<trkpt lat="-28.0620096" lon="152.2334413">
<ele>526.582</ele>
<time>2017-04-06T02:29:21.510Z</time>
</trkpt>
<trkpt lat="-28.0621663" lon="152.2330194">
<ele>527.731</ele>
<time>2017-04-06T02:29:23.490Z</time>
</trkpt>
<trkpt lat="-28.0623878" lon="152.2324161">
<ele>529.140</ele>
<time>2017-04-06T02:29:26.435Z</time>
</trkpt>
<trkpt lat="-28.0626424" lon="152.2318555">
<ele>530.279</ele>
<time>2017-04-06T02:29:29.399Z</time>
</trkpt>
<trkpt lat="-28.0628022" lon="152.2314939">
<ele>530.786</ele>
<time>2017-04-06T02:29:31.290Z</time>
</trkpt>
<trkpt lat="-28.0630602" lon="152.2308949">
<ele>530.658</ele>
<time>2017-04-06T02:29:34.265Z</time>
</trkpt>
<trkpt lat="-28.0633673" lon="152.2302460">
<ele>530.061</ele>
<time>2017-04-06T02:29:37.344Z</time>
</trkpt>
<trkpt lat="-28.0635598" lon="152.2297963">
<ele>529.028</ele>
<time>2017-04-06T02:29:39.362Z</time>
</trkpt>
<trkpt lat="-28.0638630" lon="152.2291249">
<ele>527.498</ele>
<time>2017-04-06T02:29:42.366Z</time>
</trkpt>
<trkpt lat="-28.0641669" lon="152.2284341">
<ele>525.406</ele>
<time>2017-04-06T02:29:45.388Z</time>
</trkpt>
<trkpt lat="-28.0643885" lon="152.2279820">
<ele>522.602</ele>
<time>2017-04-06T02:29:47.377Z</time>
</trkpt>
<trkpt lat="-28.0647237" lon="152.2272920">
<ele>519.232</ele>
<time>2017-04-06T02:29:50.371Z</time>
</trkpt>
<trkpt lat="-28.0650656" lon="152.2265832">
<ele>515.814</ele>
<time>2017-04-06T02:29:53.379Z</time>
</trkpt>
<trkpt lat="-28.0653855" lon="152.2258428">
<ele>512.745</ele>
<time>2017-04-06T02:29:56.381Z</time>
</trkpt>
<trkpt lat="-28.0657547" lon="152.2251099">
<ele>510.454</ele>
<time>2017-04-06T02:29:59.411Z</time>
</trkpt>
<trkpt lat="-28.0661159" lon="152.2243817">
<ele>509.326</ele>
<time>2017-04-06T02:30:02.417Z</time>
</trkpt>
<trkpt lat="-28.0663674" lon="152.2239109">
<ele>509.327</ele>
<time>2017-04-06T02:30:04.386Z</time>
</trkpt>
<trkpt lat="-28.0667130" lon="152.2231378">
<ele>510.257</ele>
<time>2017-04-06T02:30:07.442Z</time>
</trkpt>
<trkpt lat="-28.0671008" lon="152.2224043">
<ele>511.941</ele>
<time>2017-04-06T02:30:10.419Z</time>
</trkpt>
<trkpt lat="-28.0673484" lon="152.2219013">
<ele>514.016</ele>
<time>2017-04-06T02:30:12.409Z</time>
</trkpt>
<trkpt lat="-28.0677065" lon="152.2211333">
<ele>515.850</ele>
<time>2017-04-06T02:30:15.394Z</time>
</trkpt>
<trkpt lat="-28.0679585" lon="152.2206108">
<ele>516.921</ele>
<time>2017-04-06T02:30:17.391Z</time>
</trkpt>
<trkpt lat="-28.0683442" lon="152.2197878">
<ele>517.249</ele>
<time>2017-04-06T02:30:20.455Z</time>
</trkpt>
<trkpt lat="-28.0685642" lon="152.2192333">
<ele>517.083</ele>
<time>2017-04-06T02:30:22.463Z</time>
</trkpt>
<trkpt lat="-28.0688834" lon="152.2184295">
<ele>516.529</ele>
<time>2017-04-06T02:30:25.423Z</time>
</trkpt>
<trkpt lat="-28.0691197" lon="152.2175890">
<ele>515.530</ele>
<time>2017-04-06T02:30:28.412Z</time>
</trkpt>
<trkpt lat="-28.0693013" lon="152.2170316">
<ele>514.123</ele>
<time>2017-04-06T02:30:30.428Z</time>
</trkpt>
<trkpt lat="-28.0695849" lon="152.2162070">
<ele>512.671</ele>
<time>2017-04-06T02:30:33.455Z</time>
</trkpt>
<trkpt lat="-28.0697287" lon="152.2156576">
<ele>511.462</ele>
<time>2017-04-06T02:30:35.448Z</time>
</trkpt>
<trkpt lat="-28.0698573" lon="152.2148225">
<ele>510.424</ele>
<time>2017-04-06T02:30:38.404Z</time>
</trkpt>
<trkpt lat="-28.0699970" lon="152.2142633">
<ele>509.466</ele>
<time>2017-04-06T02:30:40.405Z</time>
</trkpt>
<trkpt lat="-28.0701071" lon="152.2136849">
<ele>508.665</ele>
<time>2017-04-06T02:30:42.414Z</time>
</trkpt>
<trkpt lat="-28.0702027" lon="152.2131039">
<ele>508.120</ele>
<time>2017-04-06T02:30:44.409Z</time>
</trkpt>
<trkpt lat="-28.0703361" lon="152.2125310">
<ele>507.827</ele>
<time>2017-04-06T02:30:46.413Z</time>
</trkpt>
<trkpt lat="-28.0704696" lon="152.2119647">
<ele>507.671</ele>
<time>2017-04-06T02:30:48.397Z</time>
</trkpt>
<trkpt lat="-28.0706557" lon="152.2111017">
<ele>507.543</ele>
<time>2017-04-06T02:30:51.405Z</time>
</trkpt>
<trkpt lat="-28.0708364" lon="152.2102493">
<ele>507.310</ele>
<time>2017-04-06T02:30:54.397Z</time>
</trkpt>
<trkpt lat="-28.0709849" lon="152.2097026">
<ele>506.907</ele>
<time>2017-04-06T02:30:56.373Z</time>
</trkpt>
<trkpt lat="-28.0710718" lon="152.2091308">
<ele>506.476</ele>
<time>2017-04-06T02:30:58.386Z</time>
</trkpt>
<trkpt lat="-28.0712676" lon="152.2082964">
<ele>506.221</ele>
<time>2017-04-06T02:31:01.418Z</time>
</trkpt>
<trkpt lat="-28.0714863" lon="152.2075093">
<ele>506.175</ele>
<time>2017-04-06T02:31:04.389Z</time>
</trkpt>
<trkpt lat="-28.0715628" lon="152.2069772">
<ele>506.225</ele>
<time>2017-04-06T02:31:06.372Z</time>
</trkpt>
<trkpt lat="-28.0716815" lon="152.2064519">
<ele>506.301</ele>
<time>2017-04-06T02:31:08.372Z</time>
</trkpt>
<trkpt lat="-28.0718714" lon="152.2056674">
<ele>506.433</ele>
<time>2017-04-06T02:31:11.385Z</time>
</trkpt>
<trkpt lat="-28.0719726" lon="152.2051519">
<ele>506.730</ele>
<time>2017-04-06T02:31:13.377Z</time>
</trkpt>
<trkpt lat="-28.0721405" lon="152.2043957">
<ele>507.300</ele>
<time>2017-04-06T02:31:16.356Z</time>
</trkpt>
<trkpt lat="-28.0722226" lon="152.2038849">
<ele>508.225</ele>
<time>2017-04-06T02:31:18.351Z</time>
</trkpt>
<trkpt lat="-28.0723668" lon="152.2031144">
<ele>509.444</ele>
<time>2017-04-06T02:31:21.372Z</time>
</trkpt>
<trkpt lat="-28.0724961" lon="152.2026221">
<ele>510.705</ele>
<time>2017-04-06T02:31:23.364Z</time>
</trkpt>
<trkpt lat="-28.0726001" lon="152.2021340">
<ele>511.740</ele>
<time>2017-04-06T02:31:25.343Z</time>
</trkpt>
<trkpt lat="-28.0727186" lon="152.2013997">
<ele>512.437</ele>
<time>2017-04-06T02:31:28.309Z</time>
</trkpt>
<trkpt lat="-28.0728240" lon="152.2006634">
<ele>512.832</ele>
<time>2017-04-06T02:31:31.288Z</time>
</trkpt>
<trkpt lat="-28.0728969" lon="152.2001768">
<ele>513.139</ele>
<time>2017-04-06T02:31:33.282Z</time>
</trkpt>
<trkpt lat="-28.0729455" lon="152.1996976">
<ele>513.491</ele>
<time>2017-04-06T02:31:35.279Z</time>
</trkpt>
<trkpt lat="-28.0730287" lon="152.1990070">
<ele>513.760</ele>
<time>2017-04-06T02:31:38.231Z</time>
</trkpt>
<trkpt lat="-28.0730686" lon="152.1983257">
<ele>513.757</ele>
<time>2017-04-06T02:31:41.190Z</time>
</trkpt>
<trkpt lat="-28.0730883" lon="152.1978776">
<ele>513.451</ele>
<time>2017-04-06T02:31:43.192Z</time>
</trkpt>
<trkpt lat="-28.0731293" lon="152.1974600">
<ele>512.939</ele>
<time>2017-04-06T02:31:45.171Z</time>
</trkpt>
<trkpt lat="-28.0731911" lon="152.1968836">
<ele>512.335</ele>
<time>2017-04-06T02:31:48.037Z</time>
</trkpt>
<trkpt lat="-28.0731986" lon="152.1962896">
<ele>511.595</ele>
<time>2017-04-06T02:31:51.030Z</time>
</trkpt>
<trkpt lat="-28.0732159" lon="152.1958758">
<ele>510.691</ele>
<time>2017-04-06T02:31:53.034Z</time>
</trkpt>
<trkpt lat="-28.0732776" lon="152.1954470">
<ele>509.884</ele>
<time>2017-04-06T02:31:55.050Z</time>
</trkpt>
<trkpt lat="-28.0733134" lon="152.1947765">
<ele>509.477</ele>
<time>2017-04-06T02:31:58.085Z</time>
</trkpt>
<trkpt lat="-28.0733487" lon="152.1943392">
<ele>509.450</ele>
<time>2017-04-06T02:32:00.082Z</time>
</trkpt>
<trkpt lat="-28.0733553" lon="152.1939260">
<ele>509.539</ele>
<time>2017-04-06T02:32:02.049Z</time>
</trkpt>
<trkpt lat="-28.0733609" lon="152.1933271">
<ele>509.505</ele>
<time>2017-04-06T02:32:05.021Z</time>
</trkpt>
<trkpt lat="-28.0734350" lon="152.1927651">
<ele>509.337</ele>
<time>2017-04-06T02:32:07.930Z</time>
</trkpt>
<trkpt lat="-28.0735111" lon="152.1921754">
<ele>509.177</ele>
<time>2017-04-06T02:32:10.957Z</time>
</trkpt>
<trkpt lat="-28.0735512" lon="152.1917728">
<ele>509.184</ele>
<time>2017-04-06T02:32:12.944Z</time>
</trkpt>
<trkpt lat="-28.0736589" lon="152.1911652">
<ele>509.469</ele>
<time>2017-04-06T02:32:15.927Z</time>
</trkpt>
<trkpt lat="-28.0737048" lon="152.1905225">
<ele>510.086</ele>
<time>2017-04-06T02:32:19.018Z</time>
</trkpt>
<trkpt lat="-28.0737778" lon="152.1899344">
<ele>510.899</ele>
<time>2017-04-06T02:32:21.956Z</time>
</trkpt>
<trkpt lat="-28.0738815" lon="152.1895757">
<ele>511.580</ele>
<time>2017-04-06T02:32:23.964Z</time>
</trkpt>
<trkpt lat="-28.0739741" lon="152.1890817">
<ele>511.902</ele>
<time>2017-04-06T02:32:26.856Z</time>
</trkpt>
<trkpt lat="-28.0740318" lon="152.1887872">
<ele>511.941</ele>
<time>2017-04-06T02:32:28.749Z</time>
</trkpt>
<trkpt lat="-28.0740944" lon="152.1884886">
<ele>511.890</ele>
<time>2017-04-06T02:32:30.689Z</time>
</trkpt>
<trkpt lat="-28.0741840" lon="152.1881468">
<ele>511.968</ele>
<time>2017-04-06T02:32:32.783Z</time>
</trkpt>
<trkpt lat="-28.0743063" lon="152.1876007">
<ele>512.286</ele>
<time>2017-04-06T02:32:35.866Z</time>
</trkpt>
<trkpt lat="-28.0744092" lon="152.1870389">
<ele>512.696</ele>
<time>2017-04-06T02:32:38.885Z</time>
</trkpt>
<trkpt lat="-28.0744760" lon="152.1866343">
<ele>512.955</ele>
<time>2017-04-06T02:32:41.010Z</time>
</trkpt>
<trkpt lat="-28.0745803" lon="152.1860776">
<ele>513.005</ele>
<time>2017-04-06T02:32:43.903Z</time>
</trkpt>
<trkpt lat="-28.0747386" lon="152.1854646">
<ele>512.946</ele>
<time>2017-04-06T02:32:46.984Z</time>
</trkpt>
<trkpt lat="-28.0748450" lon="152.1847921">
<ele>512.933</ele>
<time>2017-04-06T02:32:50.023Z</time>
</trkpt>
<trkpt lat="-28.0749877" lon="152.1840548">
<ele>513.112</ele>
<time>2017-04-06T02:32:53.165Z</time>
</trkpt>
<trkpt lat="-28.0750793" lon="152.1836062">
<ele>513.447</ele>
<time>2017-04-06T02:32:55.102Z</time>
</trkpt>
<trkpt lat="-28.0752142" lon="152.1829296">
<ele>513.673</ele>
<time>2017-04-06T02:32:58.066Z</time>
</trkpt>
<trkpt lat="-28.0753014" lon="152.1824519">
<ele>513.583</ele>
<time>2017-04-06T02:33:00.099Z</time>
</trkpt>
<trkpt lat="-28.0753678" lon="152.1819628">
<ele>513.261</ele>
<time>2017-04-06T02:33:02.110Z</time>
</trkpt>
<trkpt lat="-28.0754795" lon="152.1814727">
<ele>512.901</ele>
<time>2017-04-06T02:33:04.134Z</time>
</trkpt>
<trkpt lat="-28.0756371" lon="152.1807361">
<ele>512.622</ele>
<time>2017-04-06T02:33:07.134Z</time>
</trkpt>
<trkpt lat="-28.0757113" lon="152.1802255">
<ele>512.439</ele>
<time>2017-04-06T02:33:09.149Z</time>
</trkpt>
<trkpt lat="-28.0758451" lon="152.1797269">
<ele>512.270</ele>
<time>2017-04-06T02:33:11.144Z</time>
</trkpt>
<trkpt lat="-28.0759936" lon="152.1789494">
<ele>512.059</ele>
<time>2017-04-06T02:33:14.131Z</time>
</trkpt>
<trkpt lat="-28.0761852" lon="152.1781468">
<ele>511.892</ele>
<time>2017-04-06T02:33:17.174Z</time>
</trkpt>
<trkpt lat="-28.0762743" lon="152.1775976">
<ele>511.824</ele>
<time>2017-04-06T02:33:19.196Z</time>
</trkpt>
<trkpt lat="-28.0763461" lon="152.1770533">
<ele>511.779</ele>
<time>2017-04-06T02:33:21.197Z</time>
</trkpt>
<trkpt lat="-28.0764922" lon="152.1765402">
<ele>511.556</ele>
<time>2017-04-06T02:33:23.182Z</time>
</trkpt>
<trkpt lat="-28.0765757" lon="152.1760138">
<ele>511.021</ele>
<time>2017-04-06T02:33:25.169Z</time>
</trkpt>
<trkpt lat="-28.0767414" lon="152.1752294">
<ele>510.243</ele>
<time>2017-04-06T02:33:28.160Z</time>
</trkpt>
<trkpt lat="-28.0769250" lon="152.1744336">
<ele>509.475</ele>
<time>2017-04-06T02:33:31.190Z</time>
</trkpt>
<trkpt lat="-28.0770119" lon="152.1736277">
<ele>508.911</ele>
<time>2017-04-06T02:33:34.200Z</time>
</trkpt>
<trkpt lat="-28.0771780" lon="152.1731266">
<ele>508.558</ele>
<time>2017-04-06T02:33:36.213Z</time>
</trkpt>
<trkpt lat="-28.0773239" lon="152.1723557">
<ele>508.262</ele>
<time>2017-04-06T02:33:39.196Z</time>
</trkpt>
<trkpt lat="-28.0774019" lon="152.1718351">
<ele>507.814</ele>
<time>2017-04-06T02:33:41.188Z</time>
</trkpt>
<trkpt lat="-28.0775632" lon="152.1710492">
<ele>507.164</ele>
<time>2017-04-06T02:33:44.213Z</time>
</trkpt>
<trkpt lat="-28.0777179" lon="152.1702678">
<ele>506.423</ele>
<time>2017-04-06T02:33:47.231Z</time>
</trkpt>
<trkpt lat="-28.0778262" lon="152.1695096">
<ele>505.588</ele>
<time>2017-04-06T02:33:50.195Z</time>
</trkpt>
<trkpt lat="-28.0779616" lon="152.1687755">
<ele>504.660</ele>
<time>2017-04-06T02:33:53.143Z</time>
</trkpt>
<trkpt lat="-28.0780081" lon="152.1682672">
<ele>503.803</ele>
<time>2017-04-06T02:33:55.151Z</time>
</trkpt>
<trkpt lat="-28.0780580" lon="152.1674993">
<ele>503.150</ele>
<time>2017-04-06T02:33:58.166Z</time>
</trkpt>
<trkpt lat="-28.0781153" lon="152.1669948">
<ele>502.568</ele>
<time>2017-04-06T02:34:00.151Z</time>
</trkpt>
<trkpt lat="-28.0781485" lon="152.1662305">
<ele>501.924</ele>
<time>2017-04-06T02:34:03.153Z</time>
</trkpt>
<trkpt lat="-28.0781713" lon="152.1655007">
<ele>501.382</ele>
<time>2017-04-06T02:34:06.090Z</time>
</trkpt>
<trkpt lat="-28.0781774" lon="152.1647911">
<ele>501.144</ele>
<time>2017-04-06T02:34:09.014Z</time>
</trkpt>
<trkpt lat="-28.0781775" lon="152.1642895">
<ele>501.179</ele>
<time>2017-04-06T02:34:11.059Z</time>
</trkpt>
<trkpt lat="-28.0782349" lon="152.1637955">
<ele>501.329</ele>
<time>2017-04-06T02:34:13.091Z</time>
</trkpt>
<trkpt lat="-28.0781783" lon="152.1630909">
<ele>501.457</ele>
<time>2017-04-06T02:34:16.020Z</time>
</trkpt>
<trkpt lat="-28.0782018" lon="152.1623853">
<ele>501.542</ele>
<time>2017-04-06T02:34:18.994Z</time>
</trkpt>
<trkpt lat="-28.0781766" lon="152.1619151">
<ele>501.607</ele>
<time>2017-04-06T02:34:20.996Z</time>
</trkpt>
<trkpt lat="-28.0782109" lon="152.1614558">
<ele>501.648</ele>
<time>2017-04-06T02:34:22.969Z</time>
</trkpt>
<trkpt lat="-28.0782602" lon="152.1609944">
<ele>501.594</ele>
<time>2017-04-06T02:34:24.962Z</time>
</trkpt>
<trkpt lat="-28.0782291" lon="152.1605148">
<ele>501.373</ele>
<time>2017-04-06T02:34:27.005Z</time>
</trkpt>
<trkpt lat="-28.0783290" lon="152.1598094">
<ele>501.016</ele>
<time>2017-04-06T02:34:30.013Z</time>
</trkpt>
<trkpt lat="-28.0783958" lon="152.1593367">
<ele>500.569</ele>
<time>2017-04-06T02:34:32.027Z</time>
</trkpt>
<trkpt lat="-28.0785483" lon="152.1586689">
<ele>500.036</ele>
<time>2017-04-06T02:34:34.942Z</time>
</trkpt>
<trkpt lat="-28.0787548" lon="152.1579912">
<ele>499.470</ele>
<time>2017-04-06T02:34:37.965Z</time>
</trkpt>
<trkpt lat="-28.0790000" lon="152.1573231">
<ele>498.924</ele>
<time>2017-04-06T02:34:40.997Z</time>
</trkpt>
<trkpt lat="-28.0792541" lon="152.1566809">
<ele>498.451</ele>
<time>2017-04-06T02:34:43.968Z</time>
</trkpt>
<trkpt lat="-28.0794437" lon="152.1562623">
<ele>498.127</ele>
<time>2017-04-06T02:34:45.955Z</time>
</trkpt>
<trkpt lat="-28.0797705" lon="152.1556397">
<ele>497.974</ele>
<time>2017-04-06T02:34:48.975Z</time>
</trkpt>
<trkpt lat="-28.0800055" lon="152.1552337">
<ele>497.955</ele>
<time>2017-04-06T02:34:50.964Z</time>
</trkpt>
<trkpt lat="-28.0802036" lon="152.1547845">
<ele>498.015</ele>
<time>2017-04-06T02:34:52.997Z</time>
</trkpt>
<trkpt lat="-28.0805115" lon="152.1544245">
<ele>498.088</ele>
<time>2017-04-06T02:34:55.010Z</time>
</trkpt>
<trkpt lat="-28.0808945" lon="152.1538033">
<ele>498.097</ele>
<time>2017-04-06T02:34:58.043Z</time>
</trkpt>
<trkpt lat="-28.0813130" lon="152.1532247">
<ele>497.945</ele>
<time>2017-04-06T02:35:01.028Z</time>
</trkpt>
<trkpt lat="-28.0815930" lon="152.1528125">
<ele>497.543</ele>
<time>2017-04-06T02:35:03.051Z</time>
</trkpt>
<trkpt lat="-28.0820603" lon="152.1521957">
<ele>496.930</ele>
<time>2017-04-06T02:35:06.111Z</time>
</trkpt>
<trkpt lat="-28.0825641" lon="152.1515969">
<ele>496.297</ele>
<time>2017-04-06T02:35:09.148Z</time>
</trkpt>
<trkpt lat="-28.0828583" lon="152.1511657">
<ele>495.852</ele>
<time>2017-04-06T02:35:11.145Z</time>
</trkpt>
<trkpt lat="-28.0831577" lon="152.1507461">
<ele>495.682</ele>
<time>2017-04-06T02:35:13.150Z</time>
</trkpt>
<trkpt lat="-28.0836029" lon="152.1501387">
<ele>495.778</ele>
<time>2017-04-06T02:35:16.134Z</time>
</trkpt>
<trkpt lat="-28.0840506" lon="152.1495412">
<ele>496.265</ele>
<time>2017-04-06T02:35:19.142Z</time>
</trkpt>
<trkpt lat="-28.0843455" lon="152.1491590">
<ele>497.378</ele>
<time>2017-04-06T02:35:21.139Z</time>
</trkpt>
<trkpt lat="-28.0847861" lon="152.1486219">
<ele>498.992</ele>
<time>2017-04-06T02:35:24.124Z</time>
</trkpt>
<trkpt lat="-28.0850312" lon="152.1482651">
<ele>500.664</ele>
<time>2017-04-06T02:35:26.069Z</time>
</trkpt>
<trkpt lat="-28.0852870" lon="152.1479320">
<ele>502.064</ele>
<time>2017-04-06T02:35:28.063Z</time>
</trkpt>
<trkpt lat="-28.0856200" lon="152.1474446">
<ele>503.029</ele>
<time>2017-04-06T02:35:30.954Z</time>
</trkpt>
<trkpt lat="-28.0859739" lon="152.1469781">
<ele>503.580</ele>
<time>2017-04-06T02:35:33.906Z</time>
</trkpt>
<trkpt lat="-28.0861926" lon="152.1466336">
<ele>503.966</ele>
<time>2017-04-06T02:35:35.919Z</time>
</trkpt>
<trkpt lat="-28.0864023" lon="152.1462774">
<ele>504.369</ele>
<time>2017-04-06T02:35:37.921Z</time>
</trkpt>
<trkpt lat="-28.0868116" lon="152.1458118">
<ele>504.729</ele>
<time>2017-04-06T02:35:40.954Z</time>
</trkpt>
<trkpt lat="-28.0870404" lon="152.1454507">
<ele>504.971</ele>
<time>2017-04-06T02:35:42.956Z</time>
</trkpt>
<trkpt lat="-28.0874125" lon="152.1449048">
<ele>505.203</ele>
<time>2017-04-06T02:35:45.978Z</time>
</trkpt>
<trkpt lat="-28.0876567" lon="152.1445119">
<ele>505.576</ele>
<time>2017-04-06T02:35:48.007Z</time>
</trkpt>
<trkpt lat="-28.0880747" lon="152.1439689">
<ele>506.028</ele>
<time>2017-04-06T02:35:51.017Z</time>
</trkpt>
<trkpt lat="-28.0884634" lon="152.1434143">
<ele>506.204</ele>
<time>2017-04-06T02:35:53.959Z</time>
</trkpt>
<trkpt lat="-28.0888441" lon="152.1427998">
<ele>505.836</ele>
<time>2017-04-06T02:35:57.038Z</time>
</trkpt>
<trkpt lat="-28.0892737" lon="152.1422491">
<ele>505.111</ele>
<time>2017-04-06T02:36:00.042Z</time>
</trkpt>
<trkpt lat="-28.0895391" lon="152.1418751">
<ele>504.374</ele>
<time>2017-04-06T02:36:02.004Z</time>
</trkpt>
<trkpt lat="-28.0899173" lon="152.1412582">
<ele>503.773</ele>
<time>2017-04-06T02:36:05.049Z</time>
</trkpt>
<trkpt lat="-28.0902153" lon="152.1408455">
<ele>503.317</ele>
<time>2017-04-06T02:36:07.205Z</time>
</trkpt>
<trkpt lat="-28.0904681" lon="152.1404670">
<ele>502.952</ele>
<time>2017-04-06T02:36:09.149Z</time>
</trkpt>
<trkpt lat="-28.0907123" lon="152.1400796">
<ele>502.620</ele>
<time>2017-04-06T02:36:11.117Z</time>
</trkpt>
<trkpt lat="-28.0911080" lon="152.1395147">
<ele>502.330</ele>
<time>2017-04-06T02:36:14.088Z</time>
</trkpt>
<trkpt lat="-28.0914130" lon="152.1391548">
<ele>502.119</ele>
<time>2017-04-06T02:36:16.096Z</time>
</trkpt>
<trkpt lat="-28.0917851" lon="152.1385112">
<ele>502.041</ele>
<time>2017-04-06T02:36:19.167Z</time>
</trkpt>
<trkpt lat="-28.0921752" lon="152.1379301">
<ele>502.094</ele>
<time>2017-04-06T02:36:22.135Z</time>
</trkpt>
<trkpt lat="-28.0924370" lon="152.1375703">
<ele>502.184</ele>
<time>2017-04-06T02:36:24.080Z</time>
</trkpt>
<trkpt lat="-28.0927594" lon="152.1369465">
<ele>502.153</ele>
<time>2017-04-06T02:36:27.102Z</time>
</trkpt>
<trkpt lat="-28.0929329" lon="152.1365187">
<ele>501.871</ele>
<time>2017-04-06T02:36:29.086Z</time>
</trkpt>
<trkpt lat="-28.0931432" lon="152.1361254">
<ele>501.386</ele>
<time>2017-04-06T02:36:31.061Z</time>
</trkpt>
<trkpt lat="-28.0932878" lon="152.1356982">
<ele>500.918</ele>
<time>2017-04-06T02:36:33.031Z</time>
</trkpt>
<trkpt lat="-28.0934974" lon="152.1350291">
<ele>500.628</ele>
<time>2017-04-06T02:36:36.037Z</time>
</trkpt>
<trkpt lat="-28.0936995" lon="152.1343365">
<ele>500.617</ele>
<time>2017-04-06T02:36:39.062Z</time>
</trkpt>
<trkpt lat="-28.0937724" lon="152.1338650">
<ele>501.027</ele>
<time>2017-04-06T02:36:41.022Z</time>
</trkpt>
<trkpt lat="-28.0938806" lon="152.1331333">
<ele>501.817</ele>
<time>2017-04-06T02:36:43.995Z</time>
</trkpt>
<trkpt lat="-28.0940462" lon="152.1323684">
<ele>502.893</ele>
<time>2017-04-06T02:36:47.063Z</time>
</trkpt>
<trkpt lat="-28.0942631" lon="152.1316556">
<ele>504.281</ele>
<time>2017-04-06T02:36:50.017Z</time>
</trkpt>
<trkpt lat="-28.0943704" lon="152.1311812">
<ele>505.678</ele>
<time>2017-04-06T02:36:51.957Z</time>
</trkpt>
<trkpt lat="-28.0945425" lon="152.1304272">
<ele>506.546</ele>
<time>2017-04-06T02:36:55.016Z</time>
</trkpt>
<trkpt lat="-28.0947334" lon="152.1297111">
<ele>506.809</ele>
<time>2017-04-06T02:36:58.005Z</time>
</trkpt>
<trkpt lat="-28.0949681" lon="152.1290727">
<ele>506.635</ele>
<time>2017-04-06T02:37:00.900Z</time>
</trkpt>
<trkpt lat="-28.0952188" lon="152.1284321">
<ele>506.063</ele>
<time>2017-04-06T02:37:03.880Z</time>
</trkpt>
<trkpt lat="-28.0955366" lon="152.1277910">
<ele>505.293</ele>
<time>2017-04-06T02:37:06.942Z</time>
</trkpt>
<trkpt lat="-28.0958756" lon="152.1271680">
<ele>504.628</ele>
<time>2017-04-06T02:37:09.921Z</time>
</trkpt>
<trkpt lat="-28.0962494" lon="152.1265289">
<ele>504.136</ele>
<time>2017-04-06T02:37:12.972Z</time>
</trkpt>
<trkpt lat="-28.0966626" lon="152.1259253">
<ele>503.736</ele>
<time>2017-04-06T02:37:15.977Z</time>
</trkpt>
<trkpt lat="-28.0969933" lon="152.1252722">
<ele>503.409</ele>
<time>2017-04-06T02:37:18.971Z</time>
</trkpt>
<trkpt lat="-28.0972811" lon="152.1248955">
<ele>503.084</ele>
<time>2017-04-06T02:37:20.961Z</time>
</trkpt>
<trkpt lat="-28.0975380" lon="152.1244804">
<ele>502.682</ele>
<time>2017-04-06T02:37:22.974Z</time>
</trkpt>
<trkpt lat="-28.0977966" lon="152.1240708">
<ele>502.220</ele>
<time>2017-04-06T02:37:24.968Z</time>
</trkpt>
<trkpt lat="-28.0981000" lon="152.1236934">
<ele>501.674</ele>
<time>2017-04-06T02:37:26.989Z</time>
</trkpt>
<trkpt lat="-28.0984954" lon="152.1230741">
<ele>500.861</ele>
<time>2017-04-06T02:37:30.007Z</time>
</trkpt>
<trkpt lat="-28.0989030" lon="152.1224693">
<ele>499.693</ele>
<time>2017-04-06T02:37:33.003Z</time>
</trkpt>
<trkpt lat="-28.0991607" lon="152.1220579">
<ele>498.167</ele>
<time>2017-04-06T02:37:34.992Z</time>
</trkpt>
<trkpt lat="-28.0995494" lon="152.1214389">
<ele>496.363</ele>
<time>2017-04-06T02:37:37.985Z</time>
</trkpt>
<trkpt lat="-28.0998920" lon="152.1207374">
<ele>494.483</ele>
<time>2017-04-06T02:37:41.116Z</time>
</trkpt>
<trkpt lat="-28.1001608" lon="152.1203285">
<ele>492.819</ele>
<time>2017-04-06T02:37:43.088Z</time>
</trkpt>
<trkpt lat="-28.1003825" lon="152.1198853">
<ele>491.676</ele>
<time>2017-04-06T02:37:45.055Z</time>
</trkpt>
<trkpt lat="-28.1007280" lon="152.1192216">
<ele>491.171</ele>
<time>2017-04-06T02:37:48.027Z</time>
</trkpt>
<trkpt lat="-28.1009267" lon="152.1187515">
<ele>491.117</ele>
<time>2017-04-06T02:37:50.021Z</time>
</trkpt>
<trkpt lat="-28.1011918" lon="152.1183110">
<ele>491.284</ele>
<time>2017-04-06T02:37:52.050Z</time>
</trkpt>
<trkpt lat="-28.1014983" lon="152.1176046">
<ele>491.546</ele>
<time>2017-04-06T02:37:55.052Z</time>
</trkpt>
<trkpt lat="-28.1016957" lon="152.1171336">
<ele>491.835</ele>
<time>2017-04-06T02:37:57.034Z</time>
</trkpt>
<trkpt lat="-28.1018895" lon="152.1166436">
<ele>492.105</ele>
<time>2017-04-06T02:37:59.045Z</time>
</trkpt>
<trkpt lat="-28.1020740" lon="152.1161471">
<ele>492.350</ele>
<time>2017-04-06T02:38:01.054Z</time>
</trkpt>
<trkpt lat="-28.1023539" lon="152.1154248">
<ele>492.549</ele>
<time>2017-04-06T02:38:04.035Z</time>
</trkpt>
<trkpt lat="-28.1026237" lon="152.1147245">
<ele>492.556</ele>
<time>2017-04-06T02:38:06.982Z</time>
</trkpt>
<trkpt lat="-28.1027604" lon="152.1142265">
<ele>492.301</ele>
<time>2017-04-06T02:38:08.993Z</time>
</trkpt>
<trkpt lat="-28.1029499" lon="152.1137476">
<ele>491.979</ele>
<time>2017-04-06T02:38:11.016Z</time>
</trkpt>
<trkpt lat="-28.1031792" lon="152.1130376">
<ele>491.742</ele>
<time>2017-04-06T02:38:13.963Z</time>
</trkpt>
<trkpt lat="-28.1034140" lon="152.1123308">
<ele>491.464</ele>
<time>2017-04-06T02:38:16.949Z</time>
</trkpt>
<trkpt lat="-28.1035794" lon="152.1118658">
<ele>491.019</ele>
<time>2017-04-06T02:38:18.937Z</time>
</trkpt>
<trkpt lat="-28.1038563" lon="152.1111763">
<ele>490.475</ele>
<time>2017-04-06T02:38:21.940Z</time>
</trkpt>
<trkpt lat="-28.1040134" lon="152.1106993">
<ele>490.012</ele>
<time>2017-04-06T02:38:23.946Z</time>
</trkpt>
<trkpt lat="-28.1042539" lon="152.1099784">
<ele>489.751</ele>
<time>2017-04-06T02:38:26.970Z</time>
</trkpt>
<trkpt lat="-28.1045159" lon="152.1092867">
<ele>489.715</ele>
<time>2017-04-06T02:38:29.946Z</time>
</trkpt>
<trkpt lat="-28.1046650" lon="152.1088324">
<ele>489.837</ele>
<time>2017-04-06T02:38:31.913Z</time>
</trkpt>
<trkpt lat="-28.1048153" lon="152.1083858">
<ele>489.969</ele>
<time>2017-04-06T02:38:33.894Z</time>
</trkpt>
<trkpt lat="-28.1049525" lon="152.1079393">
<ele>490.011</ele>
<time>2017-04-06T02:38:35.878Z</time>
</trkpt>
<trkpt lat="-28.1051041" lon="152.1074982">
<ele>489.935</ele>
<time>2017-04-06T02:38:37.868Z</time>
</trkpt>
<trkpt lat="-28.1053800" lon="152.1068561">
<ele>489.727</ele>
<time>2017-04-06T02:38:40.871Z</time>
</trkpt>
<trkpt lat="-28.1056154" lon="152.1064715">
<ele>489.473</ele>
<time>2017-04-06T02:38:42.862Z</time>
</trkpt>
<trkpt lat="-28.1058039" lon="152.1060603">
<ele>489.276</ele>
<time>2017-04-06T02:38:44.860Z</time>
</trkpt>
<trkpt lat="-28.1061734" lon="152.1055146">
<ele>489.122</ele>
<time>2017-04-06T02:38:47.860Z</time>
</trkpt>
<trkpt lat="-28.1064228" lon="152.1051650">
<ele>488.993</ele>
<time>2017-04-06T02:38:49.845Z</time>
</trkpt>
<trkpt lat="-28.1066634" lon="152.1048057">
<ele>488.952</ele>
<time>2017-04-06T02:38:51.856Z</time>
</trkpt>
<trkpt lat="-28.1070448" lon="152.1042968">
<ele>489.043</ele>
<time>2017-04-06T02:38:54.818Z</time>
</trkpt>
<trkpt lat="-28.1074720" lon="152.1037835">
<ele>489.210</ele>
<time>2017-04-06T02:38:57.823Z</time>
</trkpt>
<trkpt lat="-28.1077443" lon="152.1033709">
<ele>489.455</ele>
<time>2017-04-06T02:38:59.878Z</time>
</trkpt>
<trkpt lat="-28.1082074" lon="152.1027598">
<ele>489.862</ele>
<time>2017-04-06T02:39:02.953Z</time>
</trkpt>
<trkpt lat="-28.1086634" lon="152.1021298">
<ele>490.414</ele>
<time>2017-04-06T02:39:05.976Z</time>
</trkpt>
<trkpt lat="-28.1089568" lon="152.1017011">
<ele>490.950</ele>
<time>2017-04-06T02:39:07.978Z</time>
</trkpt>
<trkpt lat="-28.1092497" lon="152.1012698">
<ele>491.263</ele>
<time>2017-04-06T02:39:09.978Z</time>
</trkpt>
<trkpt lat="-28.1095443" lon="152.1008315">
<ele>491.292</ele>
<time>2017-04-06T02:39:11.997Z</time>
</trkpt>
<trkpt lat="-28.1100343" lon="152.1002303">
<ele>491.196</ele>
<time>2017-04-06T02:39:15.002Z</time>
</trkpt>
<trkpt lat="-28.1104921" lon="152.0996018">
<ele>491.025</ele>
<time>2017-04-06T02:39:18.004Z</time>
</trkpt>
<trkpt lat="-28.1108123" lon="152.0991929">
<ele>490.743</ele>
<time>2017-04-06T02:39:20.026Z</time>
</trkpt>
<trkpt lat="-28.1112095" lon="152.0985192">
<ele>490.419</ele>
<time>2017-04-06T02:39:23.040Z</time>
</trkpt>
<trkpt lat="-28.1115426" lon="152.0981483">
<ele>490.093</ele>
<time>2017-04-06T02:39:25.040Z</time>
</trkpt>
<trkpt lat="-28.1118122" lon="152.0977273">
<ele>489.744</ele>
<time>2017-04-06T02:39:27.029Z</time>
</trkpt>
<trkpt lat="-28.1122492" lon="152.0971282">
<ele>489.436</ele>
<time>2017-04-06T02:39:30.002Z</time>
</trkpt>
<trkpt lat="-28.1126791" lon="152.0964960">
<ele>489.226</ele>
<time>2017-04-06T02:39:33.028Z</time>
</trkpt>
<trkpt lat="-28.1131152" lon="152.0958788">
<ele>489.138</ele>
<time>2017-04-06T02:39:36.021Z</time>
</trkpt>
<trkpt lat="-28.1134373" lon="152.0955026">
<ele>489.151</ele>
<time>2017-04-06T02:39:38.019Z</time>
</trkpt>
<trkpt lat="-28.1138546" lon="152.0948708">
<ele>489.186</ele>
<time>2017-04-06T02:39:41.036Z</time>
</trkpt>
<trkpt lat="-28.1141497" lon="152.0944732">
<ele>489.179</ele>
<time>2017-04-06T02:39:43.032Z</time>
</trkpt>
<trkpt lat="-28.1144394" lon="152.0940669">
<ele>489.134</ele>
<time>2017-04-06T02:39:45.032Z</time>
</trkpt>
<trkpt lat="-28.1148772" lon="152.0934441">
<ele>489.104</ele>
<time>2017-04-06T02:39:48.054Z</time>
</trkpt>
<trkpt lat="-28.1153570" lon="152.0928519">
<ele>489.200</ele>
<time>2017-04-06T02:39:51.067Z</time>
</trkpt>
<trkpt lat="-28.1156486" lon="152.0924111">
<ele>489.464</ele>
<time>2017-04-06T02:39:53.130Z</time>
</trkpt>
<trkpt lat="-28.1160835" lon="152.0917961">
<ele>489.754</ele>
<time>2017-04-06T02:39:56.103Z</time>
</trkpt>
<trkpt lat="-28.1165445" lon="152.0912149">
<ele>490.016</ele>
<time>2017-04-06T02:39:59.126Z</time>
</trkpt>
<trkpt lat="-28.1169202" lon="152.0906297">
<ele>490.310</ele>
<time>2017-04-06T02:40:02.056Z</time>
</trkpt>
<trkpt lat="-28.1173032" lon="152.0900674">
<ele>490.540</ele>
<time>2017-04-06T02:40:05.015Z</time>
</trkpt>
<trkpt lat="-28.1177393" lon="152.0895245">
<ele>490.610</ele>
<time>2017-04-06T02:40:08.024Z</time>
</trkpt>
<trkpt lat="-28.1180166" lon="152.0891424">
<ele>490.643</ele>
<time>2017-04-06T02:40:10.013Z</time>
</trkpt>
<trkpt lat="-28.1182978" lon="152.0887659">
<ele>490.822</ele>
<time>2017-04-06T02:40:12.007Z</time>
</trkpt>
<trkpt lat="-28.1186731" lon="152.0881705">
<ele>491.206</ele>
<time>2017-04-06T02:40:15.001Z</time>
</trkpt>
<trkpt lat="-28.1188905" lon="152.0877614">
<ele>491.673</ele>
<time>2017-04-06T02:40:16.990Z</time>
</trkpt>
<trkpt lat="-28.1191541" lon="152.0871151">
<ele>492.048</ele>
<time>2017-04-06T02:40:19.971Z</time>
</trkpt>
<trkpt lat="-28.1194400" lon="152.0864783">
<ele>492.260</ele>
<time>2017-04-06T02:40:22.948Z</time>
</trkpt>
<trkpt lat="-28.1195758" lon="152.0860169">
<ele>492.337</ele>
<time>2017-04-06T02:40:24.947Z</time>
</trkpt>
<trkpt lat="-28.1196706" lon="152.0855341">
<ele>492.305</ele>
<time>2017-04-06T02:40:26.962Z</time>
</trkpt>
<trkpt lat="-28.1198124" lon="152.0848254">
<ele>492.180</ele>
<time>2017-04-06T02:40:29.946Z</time>
</trkpt>
<trkpt lat="-28.1198721" lon="152.0841379">
<ele>491.954</ele>
<time>2017-04-06T02:40:32.876Z</time>
</trkpt>
<trkpt lat="-28.1199302" lon="152.0834588">
<ele>491.605</ele>
<time>2017-04-06T02:40:35.847Z</time>
</trkpt>
<trkpt lat="-28.1199939" lon="152.0830159">
<ele>491.165</ele>
<time>2017-04-06T02:40:37.825Z</time>
</trkpt>
<trkpt lat="-28.1200835" lon="152.0825844">
<ele>490.700</ele>
<time>2017-04-06T02:40:39.792Z</time>
</trkpt>
<trkpt lat="-28.1201612" lon="152.0821365">
<ele>490.243</ele>
<time>2017-04-06T02:40:41.791Z</time>
</trkpt>
<trkpt lat="-28.1202833" lon="152.0814303">
<ele>489.811</ele>
<time>2017-04-06T02:40:44.864Z</time>
</trkpt>
<trkpt lat="-28.1204008" lon="152.0807283">
<ele>489.461</ele>
<time>2017-04-06T02:40:47.865Z</time>
</trkpt>
<trkpt lat="-28.1204736" lon="152.0802704">
<ele>489.269</ele>
<time>2017-04-06T02:40:49.832Z</time>
</trkpt>
<trkpt lat="-28.1205296" lon="152.0795665">
<ele>489.215</ele>
<time>2017-04-06T02:40:52.820Z</time>
</trkpt>
<trkpt lat="-28.1206306" lon="152.0788515">
<ele>489.218</ele>
<time>2017-04-06T02:40:55.840Z</time>
</trkpt>
<trkpt lat="-28.1207607" lon="152.0781450">
<ele>489.238</ele>
<time>2017-04-06T02:40:58.848Z</time>
</trkpt>
<trkpt lat="-28.1208480" lon="152.0774569">
<ele>489.268</ele>
<time>2017-04-06T02:41:01.817Z</time>
</trkpt>
<trkpt lat="-28.1209011" lon="152.0770118">
<ele>489.209</ele>
<time>2017-04-06T02:41:03.795Z</time>
</trkpt>
<trkpt lat="-28.1210019" lon="152.0763684">
<ele>488.941</ele>
<time>2017-04-06T02:41:06.751Z</time>
</trkpt>
<trkpt lat="-28.1210959" lon="152.0757621">
<ele>488.427</ele>
<time>2017-04-06T02:41:09.657Z</time>
</trkpt>
<trkpt lat="-28.1211685" lon="152.0753627">
<ele>487.683</ele>
<time>2017-04-06T02:41:11.637Z</time>
</trkpt>
<trkpt lat="-28.1212236" lon="152.0749540">
<ele>486.816</ele>
<time>2017-04-06T02:41:13.642Z</time>
</trkpt>
<trkpt lat="-28.1212853" lon="152.0745546">
<ele>485.986</ele>
<time>2017-04-06T02:41:15.651Z</time>
</trkpt>
<trkpt lat="-28.1213733" lon="152.0740419">
<ele>485.191</ele>
<time>2017-04-06T02:41:18.435Z</time>
</trkpt>
<trkpt lat="-28.1214092" lon="152.0737398">
<ele>484.225</ele>
<time>2017-04-06T02:41:20.259Z</time>
</trkpt>
<trkpt lat="-28.1214633" lon="152.0734330">
<ele>483.027</ele>
<time>2017-04-06T02:41:22.204Z</time>
</trkpt>
<trkpt lat="-28.1215099" lon="152.0729273">
<ele>481.914</ele>
<time>2017-04-06T02:41:25.269Z</time>
</trkpt>
<trkpt lat="-28.1216188" lon="152.0724100">
<ele>481.160</ele>
<time>2017-04-06T02:41:28.331Z</time>
</trkpt>
<trkpt lat="-28.1216616" lon="152.0720599">
<ele>480.709</ele>
<time>2017-04-06T02:41:30.326Z</time>
</trkpt>
<trkpt lat="-28.1216830" lon="152.0717044">
<ele>480.440</ele>
<time>2017-04-06T02:41:32.318Z</time>
</trkpt>
<trkpt lat="-28.1217872" lon="152.0711622">
<ele>480.307</ele>
<time>2017-04-06T02:41:35.347Z</time>
</trkpt>
<trkpt lat="-28.1218669" lon="152.0705830">
<ele>480.282</ele>
<time>2017-04-06T02:41:38.401Z</time>
</trkpt>
<trkpt lat="-28.1219371" lon="152.0701882">
<ele>480.321</ele>
<time>2017-04-06T02:41:40.427Z</time>
</trkpt>
<trkpt lat="-28.1220269" lon="152.0696070">
<ele>480.368</ele>
<time>2017-04-06T02:41:43.386Z</time>
</trkpt>
<trkpt lat="-28.1221020" lon="152.0692282">
<ele>480.405</ele>
<time>2017-04-06T02:41:45.353Z</time>
</trkpt>
<trkpt lat="-28.1222572" lon="152.0686704">
<ele>480.450</ele>
<time>2017-04-06T02:41:48.343Z</time>
</trkpt>
<trkpt lat="-28.1226387" lon="152.0682263">
<ele>480.578</ele>
<time>2017-04-06T02:41:51.476Z</time>
</trkpt>
<trkpt lat="-28.1229167" lon="152.0679578">
<ele>480.860</ele>
<time>2017-04-06T02:41:53.549Z</time>
</trkpt>
<trkpt lat="-28.1233744" lon="152.0676337">
<ele>481.237</ele>
<time>2017-04-06T02:41:56.652Z</time>
</trkpt>
<trkpt lat="-28.1236614" lon="152.0674492">
<ele>481.694</ele>
<time>2017-04-06T02:41:58.571Z</time>
</trkpt>
<trkpt lat="-28.1241674" lon="152.0673185">
<ele>482.397</ele>
<time>2017-04-06T02:42:01.588Z</time>
</trkpt>
<trkpt lat="-28.1245425" lon="152.0672869">
<ele>483.519</ele>
<time>2017-04-06T02:42:03.789Z</time>
</trkpt>
<trkpt lat="-28.1250313" lon="152.0673391">
<ele>485.051</ele>
<time>2017-04-06T02:42:06.667Z</time>
</trkpt>
<trkpt lat="-28.1255292" lon="152.0673489">
<ele>486.917</ele>
<time>2017-04-06T02:42:09.583Z</time>
</trkpt>
<trkpt lat="-28.1258903" lon="152.0673825">
<ele>489.027</ele>
<time>2017-04-06T02:42:11.617Z</time>
</trkpt>
<trkpt lat="-28.1265256" lon="152.0674088">
<ele>491.146</ele>
<time>2017-04-06T02:42:14.806Z</time>
</trkpt>
<trkpt lat="-28.1269711" lon="152.0674464">
<ele>493.202</ele>
<time>2017-04-06T02:42:16.867Z</time>
</trkpt>
<trkpt lat="-28.1275992" lon="152.0674443">
<ele>495.377</ele>
<time>2017-04-06T02:42:19.821Z</time>
</trkpt>
<trkpt lat="-28.1281960" lon="152.0675306">
<ele>497.699</ele>
<time>2017-04-06T02:42:22.793Z</time>
</trkpt>
<trkpt lat="-28.1285751" lon="152.0675970">
<ele>499.910</ele>
<time>2017-04-06T02:42:24.756Z</time>
</trkpt>
<trkpt lat="-28.1291454" lon="152.0676446">
<ele>501.571</ele>
<time>2017-04-06T02:42:27.721Z</time>
</trkpt>
<trkpt lat="-28.1297331" lon="152.0676615">
<ele>502.531</ele>
<time>2017-04-06T02:42:30.755Z</time>
</trkpt>
<trkpt lat="-28.1301338" lon="152.0676696">
<ele>503.378</ele>
<time>2017-04-06T02:42:32.774Z</time>
</trkpt>
<trkpt lat="-28.1305363" lon="152.0677189">
<ele>504.736</ele>
<time>2017-04-06T02:42:34.763Z</time>
</trkpt>
<trkpt lat="-28.1311690" lon="152.0677449">
<ele>506.461</ele>
<time>2017-04-06T02:42:37.765Z</time>
</trkpt>
<trkpt lat="-28.1318624" lon="152.0678085">
<ele>508.020</ele>
<time>2017-04-06T02:42:40.888Z</time>
</trkpt>
<trkpt lat="-28.1325617" lon="152.0678047">
<ele>509.588</ele>
<time>2017-04-06T02:42:43.848Z</time>
</trkpt>
<trkpt lat="-28.1333628" lon="152.0678653">
<ele>511.373</ele>
<time>2017-04-06T02:42:47.012Z</time>
</trkpt>
<trkpt lat="-28.1339231" lon="152.0679083">
<ele>512.272</ele>
<time>2017-04-06T02:42:49.119Z</time>
</trkpt>
<trkpt lat="-28.1344590" lon="152.0679181">
<ele>511.012</ele>
<time>2017-04-06T02:42:51.120Z</time>
</trkpt>
<trkpt lat="-28.1349933" lon="152.0679701">
<ele>508.086</ele>
<time>2017-04-06T02:42:53.131Z</time>
</trkpt>
<trkpt lat="-28.1357912" lon="152.0680753">
<ele>505.244</ele>
<time>2017-04-06T02:42:56.149Z</time>
</trkpt>
<trkpt lat="-28.1365764" lon="152.0682556">
<ele>503.867</ele>
<time>2017-04-06T02:42:59.165Z</time>
</trkpt>
<trkpt lat="-28.1373605" lon="152.0684119">
<ele>504.451</ele>
<time>2017-04-06T02:43:02.192Z</time>
</trkpt>
<trkpt lat="-28.1381208" lon="152.0685478">
<ele>506.787</ele>
<time>2017-04-06T02:43:05.174Z</time>
</trkpt>
<trkpt lat="-28.1388766" lon="152.0686237">
<ele>510.242</ele>
<time>2017-04-06T02:43:08.172Z</time>
</trkpt>
<trkpt lat="-28.1393721" lon="152.0687281">
<ele>513.850</ele>
<time>2017-04-06T02:43:10.176Z</time>
</trkpt>
<trkpt lat="-28.1398676" lon="152.0688316">
<ele>516.647</ele>
<time>2017-04-06T02:43:12.176Z</time>
</trkpt>
<trkpt lat="-28.1403723" lon="152.0688905">
<ele>518.354</ele>
<time>2017-04-06T02:43:14.185Z</time>
</trkpt>
<trkpt lat="-28.1408698" lon="152.0689915">
<ele>519.340</ele>
<time>2017-04-06T02:43:16.193Z</time>
</trkpt>
<trkpt lat="-28.1416122" lon="152.0690646">
<ele>519.931</ele>
<time>2017-04-06T02:43:19.169Z</time>
</trkpt>
<trkpt lat="-28.1421000" lon="152.0691740">
<ele>520.305</ele>
<time>2017-04-06T02:43:21.163Z</time>
</trkpt>
<trkpt lat="-28.1425985" lon="152.0692426">
<ele>520.529</ele>
<time>2017-04-06T02:43:23.179Z</time>
</trkpt>
<trkpt lat="-28.1430850" lon="152.0693471">
<ele>520.631</ele>
<time>2017-04-06T02:43:25.170Z</time>
</trkpt>
<trkpt lat="-28.1435805" lon="152.0694340">
<ele>520.563</ele>
<time>2017-04-06T02:43:27.179Z</time>
</trkpt>
<trkpt lat="-28.1443370" lon="152.0695214">
<ele>520.192</ele>
<time>2017-04-06T02:43:30.203Z</time>
</trkpt>
<trkpt lat="-28.1448291" lon="152.0696381">
<ele>519.616</ele>
<time>2017-04-06T02:43:32.223Z</time>
</trkpt>
<trkpt lat="-28.1455494" lon="152.0697515">
<ele>519.065</ele>
<time>2017-04-06T02:43:35.235Z</time>
</trkpt>
<trkpt lat="-28.1462322" lon="152.0698087">
<ele>518.254</ele>
<time>2017-04-06T02:43:38.167Z</time>
</trkpt>
<trkpt lat="-28.1469228" lon="152.0699207">
<ele>516.582</ele>
<time>2017-04-06T02:43:41.159Z</time>
</trkpt>
<trkpt lat="-28.1473850" lon="152.0700180">
<ele>513.962</ele>
<time>2017-04-06T02:43:43.162Z</time>
</trkpt>
<trkpt lat="-28.1478630" lon="152.0701253">
<ele>511.035</ele>
<time>2017-04-06T02:43:45.252Z</time>
</trkpt>
<trkpt lat="-28.1485333" lon="152.0702845">
<ele>508.753</ele>
<time>2017-04-06T02:43:48.211Z</time>
</trkpt>
<trkpt lat="-28.1489972" lon="152.0703340">
<ele>507.724</ele>
<time>2017-04-06T02:43:50.246Z</time>
</trkpt>
<trkpt lat="-28.1496699" lon="152.0704512">
<ele>507.875</ele>
<time>2017-04-06T02:43:53.223Z</time>
</trkpt>
<trkpt lat="-28.1501241" lon="152.0705625">
<ele>508.835</ele>
<time>2017-04-06T02:43:55.241Z</time>
</trkpt>
<trkpt lat="-28.1508014" lon="152.0706616">
<ele>510.271</ele>
<time>2017-04-06T02:43:58.247Z</time>
</trkpt>
<trkpt lat="-28.1514165" lon="152.0708666">
<ele>511.878</ele>
<time>2017-04-06T02:44:01.149Z</time>
</trkpt>
<trkpt lat="-28.1520091" lon="152.0711641">
<ele>513.413</ele>
<time>2017-04-06T02:44:04.047Z</time>
</trkpt>
<trkpt lat="-28.1524316" lon="152.0714472">
<ele>514.904</ele>
<time>2017-04-06T02:44:06.080Z</time>
</trkpt>
<trkpt lat="-28.1531058" lon="152.0718872">
<ele>516.633</ele>
<time>2017-04-06T02:44:09.146Z</time>
</trkpt>
<trkpt lat="-28.1536079" lon="152.0721814">
<ele>518.961</ele>
<time>2017-04-06T02:44:11.277Z</time>
</trkpt>
<trkpt lat="-28.1540556" lon="152.0725155">
<ele>521.867</ele>
<time>2017-04-06T02:44:13.245Z</time>
</trkpt>
<trkpt lat="-28.1545684" lon="152.0727995">
<ele>524.952</ele>
<time>2017-04-06T02:44:15.292Z</time>
</trkpt>
<trkpt lat="-28.1553824" lon="152.0731056">
<ele>527.942</ele>
<time>2017-04-06T02:44:18.306Z</time>
</trkpt>
<trkpt lat="-28.1559574" lon="152.0732100">
<ele>530.954</ele>
<time>2017-04-06T02:44:20.307Z</time>
</trkpt>
<trkpt lat="-28.1568103" lon="152.0734391">
<ele>533.951</ele>
<time>2017-04-06T02:44:23.327Z</time>
</trkpt>
<trkpt lat="-28.1573678" lon="152.0735580">
<ele>536.411</ele>
<time>2017-04-06T02:44:25.342Z</time>
</trkpt>
<trkpt lat="-28.1581639" lon="152.0737692">
<ele>537.795</ele>
<time>2017-04-06T02:44:28.321Z</time>
</trkpt>
<trkpt lat="-28.1586664" lon="152.0739494">
<ele>538.053</ele>
<time>2017-04-06T02:44:30.333Z</time>
</trkpt>
<trkpt lat="-28.1594076" lon="152.0740179">
<ele>537.189</ele>
<time>2017-04-06T02:44:33.237Z</time>
</trkpt>
<trkpt lat="-28.1601712" lon="152.0739922">
<ele>534.955</ele>
<time>2017-04-06T02:44:36.250Z</time>
</trkpt>
<trkpt lat="-28.1606711" lon="152.0738418">
<ele>531.945</ele>
<time>2017-04-06T02:44:38.319Z</time>
</trkpt>
<trkpt lat="-28.1613523" lon="152.0735244">
<ele>530.064</ele>
<time>2017-04-06T02:44:41.316Z</time>
</trkpt>
<trkpt lat="-28.1620118" lon="152.0731595">
<ele>530.925</ele>
<time>2017-04-06T02:44:44.333Z</time>
</trkpt>
<trkpt lat="-28.1624563" lon="152.0729315">
<ele>534.043</ele>
<time>2017-04-06T02:44:46.341Z</time>
</trkpt>
<trkpt lat="-28.1628959" lon="152.0726952">
<ele>537.308</ele>
<time>2017-04-06T02:44:48.363Z</time>
</trkpt>
<trkpt lat="-28.1634678" lon="152.0721882">
<ele>539.130</ele>
<time>2017-04-06T02:44:51.440Z</time>
</trkpt>
<trkpt lat="-28.1640702" lon="152.0718126">
<ele>539.480</ele>
<time>2017-04-06T02:44:54.438Z</time>
</trkpt>
<trkpt lat="-28.1644809" lon="152.0715885">
<ele>538.890</ele>
<time>2017-04-06T02:44:56.462Z</time>
</trkpt>
<trkpt lat="-28.1648673" lon="152.0713295">
<ele>537.818</ele>
<time>2017-04-06T02:44:58.463Z</time>
</trkpt>
<trkpt lat="-28.1654855" lon="152.0710323">
<ele>536.534</ele>
<time>2017-04-06T02:45:01.457Z</time>
</trkpt>
<trkpt lat="-28.1660677" lon="152.0706543">
<ele>534.865</ele>
<time>2017-04-06T02:45:04.461Z</time>
</trkpt>
<trkpt lat="-28.1666399" lon="152.0702914">
<ele>532.658</ele>
<time>2017-04-06T02:45:07.427Z</time>
</trkpt>
<trkpt lat="-28.1670264" lon="152.0700566">
<ele>530.336</ele>
<time>2017-04-06T02:45:09.413Z</time>
</trkpt>
<trkpt lat="-28.1675927" lon="152.0696720">
<ele>528.419</ele>
<time>2017-04-06T02:45:12.390Z</time>
</trkpt>
<trkpt lat="-28.1679610" lon="152.0693889">
<ele>526.856</ele>
<time>2017-04-06T02:45:14.366Z</time>
</trkpt>
<trkpt lat="-28.1685139" lon="152.0689262">
<ele>525.262</ele>
<time>2017-04-06T02:45:17.394Z</time>
</trkpt>
<trkpt lat="-28.1690535" lon="152.0684627">
<ele>523.218</ele>
<time>2017-04-06T02:45:20.397Z</time>
</trkpt>
<trkpt lat="-28.1695206" lon="152.0679476">
<ele>520.494</ele>
<time>2017-04-06T02:45:23.339Z</time>
</trkpt>
<trkpt lat="-28.1698529" lon="152.0676179">
<ele>517.328</ele>
<time>2017-04-06T02:45:25.339Z</time>
</trkpt>
<trkpt lat="-28.1703286" lon="152.0671039">
<ele>514.338</ele>
<time>2017-04-06T02:45:28.302Z</time>
</trkpt>
<trkpt lat="-28.1708316" lon="152.0666073">
<ele>511.930</ele>
<time>2017-04-06T02:45:31.275Z</time>
</trkpt>
<trkpt lat="-28.1711631" lon="152.0662493">
<ele>510.161</ele>
<time>2017-04-06T02:45:33.280Z</time>
</trkpt>
<trkpt lat="-28.1715156" lon="152.0659166">
<ele>509.031</ele>
<time>2017-04-06T02:45:35.265Z</time>
</trkpt>
<trkpt lat="-28.1718862" lon="152.0655886">
<ele>508.527</ele>
<time>2017-04-06T02:45:37.273Z</time>
</trkpt>
<trkpt lat="-28.1724033" lon="152.0650421">
<ele>508.421</ele>
<time>2017-04-06T02:45:40.273Z</time>
</trkpt>
<trkpt lat="-28.1727408" lon="152.0646678">
<ele>508.436</ele>
<time>2017-04-06T02:45:42.287Z</time>
</trkpt>
<trkpt lat="-28.1732560" lon="152.0641531">
<ele>508.431</ele>
<time>2017-04-06T02:45:45.258Z</time>
</trkpt>
<trkpt lat="-28.1735579" lon="152.0637735">
<ele>508.325</ele>
<time>2017-04-06T02:45:47.233Z</time>
</trkpt>
<trkpt lat="-28.1740557" lon="152.0632358">
<ele>508.078</ele>
<time>2017-04-06T02:45:50.243Z</time>
</trkpt>
<trkpt lat="-28.1745841" lon="152.0627417">
<ele>507.697</ele>
<time>2017-04-06T02:45:53.253Z</time>
</trkpt>
<trkpt lat="-28.1750707" lon="152.0622145">
<ele>507.119</ele>
<time>2017-04-06T02:45:56.237Z</time>
</trkpt>
<trkpt lat="-28.1755843" lon="152.0617042">
<ele>506.216</ele>
<time>2017-04-06T02:45:59.264Z</time>
</trkpt>
<trkpt lat="-28.1759272" lon="152.0613604">
<ele>504.937</ele>
<time>2017-04-06T02:46:01.293Z</time>
</trkpt>
<trkpt lat="-28.1764145" lon="152.0608347">
<ele>503.452</ele>
<time>2017-04-06T02:46:04.302Z</time>
</trkpt>
<trkpt lat="-28.1768950" lon="152.0603471">
<ele>502.008</ele>
<time>2017-04-06T02:46:07.229Z</time>
</trkpt>
<trkpt lat="-28.1774175" lon="152.0598831">
<ele>500.742</ele>
<time>2017-04-06T02:46:10.260Z</time>
</trkpt>
<trkpt lat="-28.1777348" lon="152.0595418">
<ele>499.786</ele>
<time>2017-04-06T02:46:12.256Z</time>
</trkpt>
<trkpt lat="-28.1782051" lon="152.0590252">
<ele>499.269</ele>
<time>2017-04-06T02:46:15.229Z</time>
</trkpt>
<trkpt lat="-28.1785369" lon="152.0586868">
<ele>499.145</ele>
<time>2017-04-06T02:46:17.229Z</time>
</trkpt>
<trkpt lat="-28.1790412" lon="152.0581763">
<ele>499.266</ele>
<time>2017-04-06T02:46:20.246Z</time>
</trkpt>
<trkpt lat="-28.1793835" lon="152.0578383">
<ele>499.582</ele>
<time>2017-04-06T02:46:22.255Z</time>
</trkpt>
<trkpt lat="-28.1799007" lon="152.0573163">
<ele>500.164</ele>
<time>2017-04-06T02:46:25.296Z</time>
</trkpt>
<trkpt lat="-28.1802279" lon="152.0569543">
<ele>501.109</ele>
<time>2017-04-06T02:46:27.316Z</time>
</trkpt>
<trkpt lat="-28.1805441" lon="152.0566130">
<ele>502.221</ele>
<time>2017-04-06T02:46:29.315Z</time>
</trkpt>
<trkpt lat="-28.1810039" lon="152.0561446">
<ele>502.985</ele>
<time>2017-04-06T02:46:32.285Z</time>
</trkpt>
<trkpt lat="-28.1814237" lon="152.0557123">
<ele>502.982</ele>
<time>2017-04-06T02:46:35.196Z</time>
</trkpt>
<trkpt lat="-28.1816950" lon="152.0554153">
<ele>502.141</ele>
<time>2017-04-06T02:46:37.184Z</time>
</trkpt>
<trkpt lat="-28.1819932" lon="152.0551412">
<ele>500.754</ele>
<time>2017-04-06T02:46:39.164Z</time>
</trkpt>
<trkpt lat="-28.1822740" lon="152.0548169">
<ele>499.320</ele>
<time>2017-04-06T02:46:41.188Z</time>
</trkpt>
<trkpt lat="-28.1827171" lon="152.0543705">
<ele>498.114</ele>
<time>2017-04-06T02:46:44.175Z</time>
</trkpt>
<trkpt lat="-28.1829927" lon="152.0540612">
<ele>497.066</ele>
<time>2017-04-06T02:46:46.150Z</time>
</trkpt>
<trkpt lat="-28.1833037" lon="152.0537843">
<ele>496.094</ele>
<time>2017-04-06T02:46:48.168Z</time>
</trkpt>
<trkpt lat="-28.1837420" lon="152.0533369">
<ele>495.275</ele>
<time>2017-04-06T02:46:51.166Z</time>
</trkpt>
<trkpt lat="-28.1840209" lon="152.0530153">
<ele>494.617</ele>
<time>2017-04-06T02:46:53.179Z</time>
</trkpt>
<trkpt lat="-28.1843531" lon="152.0527625">
<ele>494.077</ele>
<time>2017-04-06T02:46:55.197Z</time>
</trkpt>
<trkpt lat="-28.1846262" lon="152.0524441">
<ele>493.736</ele>
<time>2017-04-06T02:46:57.179Z</time>
</trkpt>
<trkpt lat="-28.1849233" lon="152.0521569">
<ele>493.642</ele>
<time>2017-04-06T02:46:59.162Z</time>
</trkpt>
<trkpt lat="-28.1852107" lon="152.0518403">
<ele>493.765</ele>
<time>2017-04-06T02:47:01.197Z</time>
</trkpt>
<trkpt lat="-28.1854982" lon="152.0515308">
<ele>494.065</ele>
<time>2017-04-06T02:47:03.203Z</time>
</trkpt>
<trkpt lat="-28.1859659" lon="152.0511123">
<ele>494.480</ele>
<time>2017-04-06T02:47:06.208Z</time>
</trkpt>
<trkpt lat="-28.1862782" lon="152.0508291">
<ele>494.955</ele>
<time>2017-04-06T02:47:08.224Z</time>
</trkpt>
<trkpt lat="-28.1865459" lon="152.0505025">
<ele>495.422</ele>
<time>2017-04-06T02:47:10.231Z</time>
</trkpt>
<trkpt lat="-28.1868341" lon="152.0502281">
<ele>495.782</ele>
<time>2017-04-06T02:47:12.209Z</time>
</trkpt>
<trkpt lat="-28.1870577" lon="152.0498972">
<ele>495.980</ele>
<time>2017-04-06T02:47:14.234Z</time>
</trkpt>
<trkpt lat="-28.1874596" lon="152.0495501">
<ele>496.015</ele>
<time>2017-04-06T02:47:17.124Z</time>
</trkpt>
<trkpt lat="-28.1878119" lon="152.0491229">
<ele>495.820</ele>
<time>2017-04-06T02:47:20.191Z</time>
</trkpt>
<trkpt lat="-28.1881765" lon="152.0487866">
<ele>495.289</ele>
<time>2017-04-06T02:47:23.105Z</time>
</trkpt>
<trkpt lat="-28.1883848" lon="152.0485445">
<ele>494.449</ele>
<time>2017-04-06T02:47:25.039Z</time>
</trkpt>
<trkpt lat="-28.1887333" lon="152.0482131">
<ele>493.603</ele>
<time>2017-04-06T02:47:27.999Z</time>
</trkpt>
<trkpt lat="-28.1890915" lon="152.0478630">
<ele>493.126</ele>
<time>2017-04-06T02:47:31.029Z</time>
</trkpt>
<trkpt lat="-28.1893199" lon="152.0476087">
<ele>493.195</ele>
<time>2017-04-06T02:47:33.017Z</time>
</trkpt>
<trkpt lat="-28.1896906" lon="152.0472233">
<ele>493.717</ele>
<time>2017-04-06T02:47:36.050Z</time>
</trkpt>
<trkpt lat="-28.1900640" lon="152.0468333">
<ele>494.539</ele>
<time>2017-04-06T02:47:39.031Z</time>
</trkpt>
<trkpt lat="-28.1903477" lon="152.0466028">
<ele>495.574</ele>
<time>2017-04-06T02:47:41.050Z</time>
</trkpt>
<trkpt lat="-28.1905953" lon="152.0463145">
<ele>496.717</ele>
<time>2017-04-06T02:47:43.050Z</time>
</trkpt>
<trkpt lat="-28.1910608" lon="152.0459574">
<ele>497.889</ele>
<time>2017-04-06T02:47:46.127Z</time>
</trkpt>
<trkpt lat="-28.1913894" lon="152.0457491">
<ele>499.229</ele>
<time>2017-04-06T02:47:48.142Z</time>
</trkpt>
<trkpt lat="-28.1917027" lon="152.0455222">
<ele>500.695</ele>
<time>2017-04-06T02:47:50.113Z</time>
</trkpt>
<trkpt lat="-28.1922288" lon="152.0452471">
<ele>501.994</ele>
<time>2017-04-06T02:47:53.160Z</time>
</trkpt>
<trkpt lat="-28.1925952" lon="152.0451312">
<ele>503.084</ele>
<time>2017-04-06T02:47:55.166Z</time>
</trkpt>
<trkpt lat="-28.1929560" lon="152.0450211">
<ele>504.070</ele>
<time>2017-04-06T02:47:57.145Z</time>
</trkpt>
<trkpt lat="-28.1935181" lon="152.0448985">
<ele>504.879</ele>
<time>2017-04-06T02:48:00.163Z</time>
</trkpt>
<trkpt lat="-28.1938926" lon="152.0448295">
<ele>505.659</ele>
<time>2017-04-06T02:48:02.161Z</time>
</trkpt>
<trkpt lat="-28.1944552" lon="152.0448511">
<ele>506.601</ele>
<time>2017-04-06T02:48:05.156Z</time>
</trkpt>
<trkpt lat="-28.1948201" lon="152.0449042">
<ele>507.570</ele>
<time>2017-04-06T02:48:07.147Z</time>
</trkpt>
<trkpt lat="-28.1951850" lon="152.0449024">
<ele>508.455</ele>
<time>2017-04-06T02:48:09.154Z</time>
</trkpt>
<trkpt lat="-28.1957190" lon="152.0449832">
<ele>509.299</ele>
<time>2017-04-06T02:48:12.150Z</time>
</trkpt>
<trkpt lat="-28.1960693" lon="152.0450347">
<ele>510.137</ele>
<time>2017-04-06T02:48:14.142Z</time>
</trkpt>
<trkpt lat="-28.1964095" lon="152.0450839">
<ele>510.960</ele>
<time>2017-04-06T02:48:16.159Z</time>
</trkpt>
<trkpt lat="-28.1967203" lon="152.0450490">
<ele>511.618</ele>
<time>2017-04-06T02:48:18.195Z</time>
</trkpt>
<trkpt lat="-28.1971073" lon="152.0450856">
<ele>511.947</ele>
<time>2017-04-06T02:48:20.992Z</time>
</trkpt>
<trkpt lat="-28.1973433" lon="152.0451141">
<ele>511.958</ele>
<time>2017-04-06T02:48:22.854Z</time>
</trkpt>
<trkpt lat="-28.1977411" lon="152.0451199">
<ele>511.782</ele>
<time>2017-04-06T02:48:25.878Z</time>
</trkpt>
<trkpt lat="-28.1982025" lon="152.0451805">
<ele>511.645</ele>
<time>2017-04-06T02:48:29.018Z</time>
</trkpt>
<trkpt lat="-28.1985341" lon="152.0452172">
<ele>511.764</ele>
<time>2017-04-06T02:48:31.081Z</time>
</trkpt>
<trkpt lat="-28.1988670" lon="152.0452588">
<ele>512.131</ele>
<time>2017-04-06T02:48:33.084Z</time>
</trkpt>
<trkpt lat="-28.1992130" lon="152.0452703">
<ele>512.526</ele>
<time>2017-04-06T02:48:35.113Z</time>
</trkpt>
<trkpt lat="-28.1997288" lon="152.0453192">
<ele>512.755</ele>
<time>2017-04-06T02:48:38.137Z</time>
</trkpt>
<trkpt lat="-28.2000704" lon="152.0453282">
<ele>512.781</ele>
<time>2017-04-06T02:48:40.151Z</time>
</trkpt>
<trkpt lat="-28.2005753" lon="152.0454059">
<ele>512.629</ele>
<time>2017-04-06T02:48:43.203Z</time>
</trkpt>
<trkpt lat="-28.2010475" lon="152.0453613">
<ele>512.254</ele>
<time>2017-04-06T02:48:46.153Z</time>
</trkpt>
<trkpt lat="-28.2013386" lon="152.0452489">
<ele>511.458</ele>
<time>2017-04-06T02:48:48.156Z</time>
</trkpt>
<trkpt lat="-28.2016118" lon="152.0451190">
<ele>510.153</ele>
<time>2017-04-06T02:48:50.152Z</time>
</trkpt>
<trkpt lat="-28.2020025" lon="152.0449268">
<ele>508.534</ele>
<time>2017-04-06T02:48:53.102Z</time>
</trkpt>
<trkpt lat="-28.2023439" lon="152.0446598">
<ele>506.716</ele>
<time>2017-04-06T02:48:56.033Z</time>
</trkpt>
<trkpt lat="-28.2025756" lon="152.0444596">
<ele>504.787</ele>
<time>2017-04-06T02:48:58.038Z</time>
</trkpt>
<trkpt lat="-28.2028129" lon="152.0442556">
<ele>503.120</ele>
<time>2017-04-06T02:49:00.051Z</time>
</trkpt>
<trkpt lat="-28.2030495" lon="152.0440591">
<ele>502.053</ele>
<time>2017-04-06T02:49:02.043Z</time>
</trkpt>
<trkpt lat="-28.2033852" lon="152.0437492">
<ele>501.525</ele>
<time>2017-04-06T02:49:05.021Z</time>
</trkpt>
<trkpt lat="-28.2036477" lon="152.0436228">
<ele>501.233</ele>
<time>2017-04-06T02:49:07.023Z</time>
</trkpt>
<trkpt lat="-28.2039167" lon="152.0435018">
<ele>500.931</ele>
<time>2017-04-06T02:49:09.051Z</time>
</trkpt>
<trkpt lat="-28.2041855" lon="152.0433546">
<ele>500.557</ele>
<time>2017-04-06T02:49:11.133Z</time>
</trkpt>
<trkpt lat="-28.2045697" lon="152.0431528">
<ele>500.107</ele>
<time>2017-04-06T02:49:14.142Z</time>
</trkpt>
<trkpt lat="-28.2048291" lon="152.0431009">
<ele>499.419</ele>
<time>2017-04-06T02:49:16.088Z</time>
</trkpt>
<trkpt lat="-28.2050970" lon="152.0430682">
<ele>498.324</ele>
<time>2017-04-06T02:49:18.083Z</time>
</trkpt>
<trkpt lat="-28.2053777" lon="152.0430420">
<ele>496.920</ele>
<time>2017-04-06T02:49:20.124Z</time>
</trkpt>
<trkpt lat="-28.2057989" lon="152.0429258">
<ele>495.432</ele>
<time>2017-04-06T02:49:23.190Z</time>
</trkpt>
<trkpt lat="-28.2060872" lon="152.0428407">
<ele>493.892</ele>
<time>2017-04-06T02:49:25.229Z</time>
</trkpt>
<trkpt lat="-28.2065320" lon="152.0427436">
<ele>492.253</ele>
<time>2017-04-06T02:49:28.275Z</time>
</trkpt>
<trkpt lat="-28.2069531" lon="152.0425396">
<ele>490.587</ele>
<time>2017-04-06T02:49:31.339Z</time>
</trkpt>
<trkpt lat="-28.2073053" lon="152.0422481">
<ele>488.942</ele>
<time>2017-04-06T02:49:34.341Z</time>
</trkpt>
<trkpt lat="-28.2075918" lon="152.0419194">
<ele>487.164</ele>
<time>2017-04-06T02:49:37.243Z</time>
</trkpt>
<trkpt lat="-28.2078330" lon="152.0415294">
<ele>485.183</ele>
<time>2017-04-06T02:49:40.225Z</time>
</trkpt>
<trkpt lat="-28.2079912" lon="152.0412410">
<ele>483.188</ele>
<time>2017-04-06T02:49:42.249Z</time>
</trkpt>
<trkpt lat="-28.2081682" lon="152.0409507">
<ele>481.455</ele>
<time>2017-04-06T02:49:44.274Z</time>
</trkpt>
<trkpt lat="-28.2082531" lon="152.0404287">
<ele>480.063</ele>
<time>2017-04-06T02:49:47.317Z</time>
</trkpt>
<trkpt lat="-28.2084050" lon="152.0399592">
<ele>478.702</ele>
<time>2017-04-06T02:49:50.292Z</time>
</trkpt>
<trkpt lat="-28.2084376" lon="152.0396453">
<ele>477.006</ele>
<time>2017-04-06T02:49:52.262Z</time>
</trkpt>
<trkpt lat="-28.2085064" lon="152.0393333">
<ele>475.186</ele>
<time>2017-04-06T02:49:54.249Z</time>
</trkpt>
<trkpt lat="-28.2086559" lon="152.0388468">
<ele>473.787</ele>
<time>2017-04-06T02:49:57.388Z</time>
</trkpt>
<trkpt lat="-28.2087172" lon="152.0383719">
<ele>472.925</ele>
<time>2017-04-06T02:50:00.359Z</time>
</trkpt>
<trkpt lat="-28.2087985" lon="152.0380818">
<ele>472.289</ele>
<time>2017-04-06T02:50:02.300Z</time>
</trkpt>
<trkpt lat="-28.2089184" lon="152.0376321">
<ele>471.689</ele>
<time>2017-04-06T02:50:05.321Z</time>
</trkpt>
<trkpt lat="-28.2089589" lon="152.0373296">
<ele>471.203</ele>
<time>2017-04-06T02:50:07.370Z</time>
</trkpt>
<trkpt lat="-28.2091024" lon="152.0369423">
<ele>470.875</ele>
<time>2017-04-06T02:50:10.348Z</time>
</trkpt>
<trkpt lat="-28.2092935" lon="152.0366308">
<ele>470.648</ele>
<time>2017-04-06T02:50:13.216Z</time>
</trkpt>
<trkpt lat="-28.2094811" lon="152.0364695">
<ele>470.492</ele>
<time>2017-04-06T02:50:15.224Z</time>
</trkpt>
<trkpt lat="-28.2097906" lon="152.0362466">
<ele>470.450</ele>
<time>2017-04-06T02:50:18.206Z</time>
</trkpt>
<trkpt lat="-28.2100440" lon="152.0361244">
<ele>470.579</ele>
<time>2017-04-06T02:50:20.260Z</time>
</trkpt>
<trkpt lat="-28.2103329" lon="152.0360676">
<ele>470.866</ele>
<time>2017-04-06T02:50:22.318Z</time>
</trkpt>
<trkpt lat="-28.2107792" lon="152.0360380">
<ele>471.257</ele>
<time>2017-04-06T02:50:25.381Z</time>
</trkpt>
<trkpt lat="-28.2112167" lon="152.0359591">
<ele>471.778</ele>
<time>2017-04-06T02:50:28.409Z</time>
</trkpt>
<trkpt lat="-28.2114994" lon="152.0359004">
<ele>472.366</ele>
<time>2017-04-06T02:50:30.365Z</time>
</trkpt>
<trkpt lat="-28.2119383" lon="152.0358202">
<ele>472.793</ele>
<time>2017-04-06T02:50:33.340Z</time>
</trkpt>
<trkpt lat="-28.2123987" lon="152.0357223">
<ele>472.970</ele>
<time>2017-04-06T02:50:36.412Z</time>
</trkpt>
<trkpt lat="-28.2127046" lon="152.0357013">
<ele>473.008</ele>
<time>2017-04-06T02:50:38.451Z</time>
</trkpt>
<trkpt lat="-28.2131415" lon="152.0356248">
<ele>472.997</ele>
<time>2017-04-06T02:50:41.483Z</time>
</trkpt>
<trkpt lat="-28.2134070" lon="152.0355443">
<ele>472.926</ele>
<time>2017-04-06T02:50:43.493Z</time>
</trkpt>
<trkpt lat="-28.2138006" lon="152.0354852">
<ele>472.755</ele>
<time>2017-04-06T02:50:46.624Z</time>
</trkpt>
<trkpt lat="-28.2141247" lon="152.0354932">
<ele>472.541</ele>
<time>2017-04-06T02:50:49.929Z</time>
</trkpt>
<trkpt lat="-28.2142761" lon="152.0354133">
<ele>472.279</ele>
<time>2017-04-06T02:50:53.736Z</time>
</trkpt>
<trkpt lat="-28.2143551" lon="152.0353571">
<ele>471.817</ele>
<time>2017-04-06T02:50:56.999Z</time>
</trkpt>
<trkpt lat="-28.2143551" lon="152.0353571">
<ele>471.101</ele>
<time>2017-04-06T02:50:57.000Z</time>
</trkpt>
<trkpt lat="-28.2143551" lon="152.0353571">
<ele>470.359</ele>
<time>2017-04-06T02:51:25.247Z</time>
</trkpt>
<trkpt lat="-28.2145690" lon="152.0353388">
<ele>469.983</ele>
<time>2017-04-06T02:51:31.163Z</time>
</trkpt>
<trkpt lat="-28.2150424" lon="152.0352402">
<ele>470.253</ele>
<time>2017-04-06T02:51:35.208Z</time>
</trkpt>
<trkpt lat="-28.2153530" lon="152.0351891">
<ele>471.266</ele>
<time>2017-04-06T02:51:37.236Z</time>
</trkpt>
<trkpt lat="-28.2157905" lon="152.0351068">
<ele>472.843</ele>
<time>2017-04-06T02:51:40.070Z</time>
</trkpt>
<trkpt lat="-28.2162533" lon="152.0350525">
<ele>474.519</ele>
<time>2017-04-06T02:51:42.995Z</time>
</trkpt>
<trkpt lat="-28.2165640" lon="152.0349734">
<ele>475.916</ele>
<time>2017-04-06T02:51:45.008Z</time>
</trkpt>
<trkpt lat="-28.2170052" lon="152.0348627">
<ele>476.904</ele>
<time>2017-04-06T02:51:47.895Z</time>
</trkpt>
<trkpt lat="-28.2174497" lon="152.0347629">
<ele>477.458</ele>
<time>2017-04-06T02:51:50.775Z</time>
</trkpt>
<trkpt lat="-28.2177653" lon="152.0347233">
<ele>477.696</ele>
<time>2017-04-06T02:51:52.786Z</time>
</trkpt>
<trkpt lat="-28.2180540" lon="152.0346896">
<ele>477.784</ele>
<time>2017-04-06T02:51:54.875Z</time>
</trkpt>
<trkpt lat="-28.2183865" lon="152.0345847">
<ele>477.774</ele>
<time>2017-04-06T02:51:57.772Z</time>
</trkpt>
<trkpt lat="-28.2185540" lon="152.0345256">
<ele>477.604</ele>
<time>2017-04-06T02:51:59.730Z</time>
</trkpt>
<trkpt lat="-28.2186416" lon="152.0344153">
<ele>477.283</ele>
<time>2017-04-06T02:52:01.521Z</time>
</trkpt>
<trkpt lat="-28.2186289" lon="152.0342175">
<ele>476.914</ele>
<time>2017-04-06T02:52:04.103Z</time>
</trkpt>
<trkpt lat="-28.2185975" lon="152.0340865">
<ele>476.521</ele>
<time>2017-04-06T02:52:06.176Z</time>
</trkpt>
<trkpt lat="-28.2186559" lon="152.0339595">
<ele>476.071</ele>
<time>2017-04-06T02:52:08.680Z</time>
</trkpt>
<trkpt lat="-28.2187523" lon="152.0339419">
<ele>475.665</ele>
<time>2017-04-06T02:52:11.070Z</time>
</trkpt>
<trkpt lat="-28.2188461" lon="152.0339366">
<ele>475.462</ele>
<time>2017-04-06T02:52:13.638Z</time>
</trkpt>
<trkpt lat="-28.2189634" lon="152.0339176">
<ele>475.482</ele>
<time>2017-04-06T02:52:17.216Z</time>
</trkpt>
<trkpt lat="-28.2190656" lon="152.0339745">
<ele>475.636</ele>
<time>2017-04-06T02:52:20.569Z</time>
</trkpt>
<trkpt lat="-28.2191392" lon="152.0340330">
<ele>475.844</ele>
<time>2017-04-06T02:52:23.338Z</time>
</trkpt>
<trkpt lat="-28.2192244" lon="152.0340934">
<ele>476.062</ele>
<time>2017-04-06T02:52:26.999Z</time>
</trkpt>
<trkpt lat="-28.2192244" lon="152.0340934">
<ele>476.240</ele>
<time>2017-04-06T02:52:30.999Z</time>
</trkpt>
<trkpt lat="-28.2192244" lon="152.0340934">
<ele>476.248</ele>
<time>2017-04-06T03:29:05.359Z</time>
</trkpt>
<trkpt lat="-28.2194809" lon="152.0341510">
<ele>476.041</ele>
<time>2017-04-06T03:31:09.000Z</time>
</trkpt>
<trkpt lat="-28.2194809" lon="152.0341510">
<ele>475.796</ele>
<time>2017-04-06T03:31:12.000Z</time>
</trkpt>
<trkpt lat="-28.2194809" lon="152.0341510">
<ele>475.644</ele>
<time>2017-04-06T03:42:30.528Z</time>
</trkpt>
<trkpt lat="-28.2193518" lon="152.0340678">
<ele>475.548</ele>
<time>2017-04-06T03:42:36.861Z</time>
</trkpt>
<trkpt lat="-28.2193051" lon="152.0339537">
<ele>475.862</ele>
<time>2017-04-06T03:42:39.471Z</time>
</trkpt>
<trkpt lat="-28.2192199" lon="152.0339028">
<ele>476.813</ele>
<time>2017-04-06T03:42:42.083Z</time>
</trkpt>
<trkpt lat="-28.2191132" lon="152.0338689">
<ele>474.021</ele>
<time>2017-04-06T03:42:46.129Z</time>
</trkpt>
<trkpt lat="-28.2190187" lon="152.0339379">
<ele>461.311</ele>
<time>2017-04-06T03:42:50.417Z</time>
</trkpt>
<trkpt lat="-28.2189009" lon="152.0339197">
<ele>440.510</ele>
<time>2017-04-06T03:42:54.409Z</time>
</trkpt>
<trkpt lat="-28.2187368" lon="152.0339155">
<ele>420.411</ele>
<time>2017-04-06T03:42:57.087Z</time>
</trkpt>
<trkpt lat="-28.2187162" lon="152.0337397">
<ele>407.137</ele>
<time>2017-04-06T03:42:59.007Z</time>
</trkpt>
<trkpt lat="-28.2186367" lon="152.0334209">
<ele>401.320</ele>
<time>2017-04-06T03:43:02.069Z</time>
</trkpt>
<trkpt lat="-28.2185682" lon="152.0332116">
<ele>400.422</ele>
<time>2017-04-06T03:43:04.159Z</time>
</trkpt>
<trkpt lat="-28.2185342" lon="152.0328936">
<ele>401.756</ele>
<time>2017-04-06T03:43:07.631Z</time>
</trkpt>
<trkpt lat="-28.2184898" lon="152.0327065">
<ele>404.010</ele>
<time>2017-04-06T03:43:10.096Z</time>
</trkpt>
<trkpt lat="-28.2184783" lon="152.0324802">
<ele>406.900</ele>
<time>2017-04-06T03:43:13.156Z</time>
</trkpt>
<trkpt lat="-28.2185227" lon="152.0323582">
<ele>410.403</ele>
<time>2017-04-06T03:43:14.685Z</time>
</trkpt>
<trkpt lat="-28.2186484" lon="152.0322621">
<ele>414.411</ele>
<time>2017-04-06T03:43:16.530Z</time>
</trkpt>
<trkpt lat="-28.2188190" lon="152.0322209">
<ele>418.297</ele>
<time>2017-04-06T03:43:18.593Z</time>
</trkpt>
<trkpt lat="-28.2190588" lon="152.0321538">
<ele>421.167</ele>
<time>2017-04-06T03:43:21.401Z</time>
</trkpt>
<trkpt lat="-28.2192296" lon="152.0320942">
<ele>422.760</ele>
<time>2017-04-06T03:43:23.505Z</time>
</trkpt>
<trkpt lat="-28.2193945" lon="152.0320632">
<ele>423.466</ele>
<time>2017-04-06T03:43:25.590Z</time>
</trkpt>
<trkpt lat="-28.2196263" lon="152.0320101">
<ele>423.818</ele>
<time>2017-04-06T03:43:29.541Z</time>
</trkpt>
<trkpt lat="-28.2197365" lon="152.0320062">
<ele>424.089</ele>
<time>2017-04-06T03:43:31.611Z</time>
</trkpt>
<trkpt lat="-28.2196256" lon="152.0319467">
<ele>424.297</ele>
<time>2017-04-06T03:43:33.872Z</time>
</trkpt>
<trkpt lat="-28.2194840" lon="152.0319878">
<ele>424.320</ele>
<time>2017-04-06T03:43:36.093Z</time>
</trkpt>
<trkpt lat="-28.2193187" lon="152.0320262">
<ele>424.133</ele>
<time>2017-04-06T03:43:38.281Z</time>
</trkpt>
<trkpt lat="-28.2190982" lon="152.0320674">
<ele>423.907</ele>
<time>2017-04-06T03:43:41.290Z</time>
</trkpt>
<trkpt lat="-28.2189762" lon="152.0320936">
<ele>423.767</ele>
<time>2017-04-06T03:43:43.253Z</time>
</trkpt>
<trkpt lat="-28.2188126" lon="152.0321052">
<ele>423.633</ele>
<time>2017-04-06T03:43:46.059Z</time>
</trkpt>
<trkpt lat="-28.2186316" lon="152.0321409">
<ele>423.407</ele>
<time>2017-04-06T03:43:49.191Z</time>
</trkpt>
<trkpt lat="-28.2184938" lon="152.0321530">
<ele>423.115</ele>
<time>2017-04-06T03:43:51.450Z</time>
</trkpt>
<trkpt lat="-28.2183372" lon="152.0320845">
<ele>422.875</ele>
<time>2017-04-06T03:43:54.027Z</time>
</trkpt>
<trkpt lat="-28.2183161" lon="152.0318717">
<ele>422.727</ele>
<time>2017-04-06T03:43:56.280Z</time>
</trkpt>
<trkpt lat="-28.2183094" lon="152.0316447">
<ele>422.631</ele>
<time>2017-04-06T03:43:58.390Z</time>
</trkpt>
<trkpt lat="-28.2183021" lon="152.0314331">
<ele>422.599</ele>
<time>2017-04-06T03:44:00.290Z</time>
</trkpt>
<trkpt lat="-28.2182523" lon="152.0310895">
<ele>422.666</ele>
<time>2017-04-06T03:44:03.289Z</time>
</trkpt>
<trkpt lat="-28.2181848" lon="152.0307289">
<ele>422.843</ele>
<time>2017-04-06T03:44:06.420Z</time>
</trkpt>
<trkpt lat="-28.2181390" lon="152.0304288">
<ele>423.151</ele>
<time>2017-04-06T03:44:09.271Z</time>
</trkpt>
<trkpt lat="-28.2180668" lon="152.0302481">
<ele>423.555</ele>
<time>2017-04-06T03:44:11.498Z</time>
</trkpt>
<trkpt lat="-28.2180767" lon="152.0300928">
<ele>423.901</ele>
<time>2017-04-06T03:44:13.415Z</time>
</trkpt>
<trkpt lat="-28.2182055" lon="152.0299003">
<ele>424.077</ele>
<time>2017-04-06T03:44:16.110Z</time>
</trkpt>
<trkpt lat="-28.2185359" lon="152.0298052">
<ele>424.220</ele>
<time>2017-04-06T03:44:19.423Z</time>
</trkpt>
<trkpt lat="-28.2187828" lon="152.0297462">
<ele>424.703</ele>
<time>2017-04-06T03:44:21.465Z</time>
</trkpt>
<trkpt lat="-28.2190205" lon="152.0296869">
<ele>425.703</ele>
<time>2017-04-06T03:44:23.512Z</time>
</trkpt>
<trkpt lat="-28.2193252" lon="152.0296265">
<ele>426.925</ele>
<time>2017-04-06T03:44:26.478Z</time>
</trkpt>
<trkpt lat="-28.2194651" lon="152.0295984">
<ele>427.897</ele>
<time>2017-04-06T03:44:28.503Z</time>
</trkpt>
<trkpt lat="-28.2196002" lon="152.0295785">
<ele>428.338</ele>
<time>2017-04-06T03:44:31.195Z</time>
</trkpt>
<trkpt lat="-28.2196994" lon="152.0295637">
<ele>428.188</ele>
<time>2017-04-06T03:44:33.998Z</time>
</trkpt>
<trkpt lat="-28.2196994" lon="152.0295637">
<ele>427.676</ele>
<time>2017-04-06T03:44:35.998Z</time>
</trkpt>
<trkpt lat="-28.2196994" lon="152.0295637">
<ele>427.224</ele>
<time>2017-04-06T03:44:53.913Z</time>
</trkpt>
<trkpt lat="-28.2198289" lon="152.0295585">
<ele>427.059</ele>
<time>2017-04-06T03:44:58.327Z</time>
</trkpt>
<trkpt lat="-28.2199431" lon="152.0294987">
<ele>426.973</ele>
<time>2017-04-06T03:45:00.462Z</time>
</trkpt>
<trkpt lat="-28.2199876" lon="152.0293440">
<ele>426.759</ele>
<time>2017-04-06T03:45:02.246Z</time>
</trkpt>
<trkpt lat="-28.2199413" lon="152.0289954">
<ele>426.541</ele>
<time>2017-04-06T03:45:05.419Z</time>
</trkpt>
<trkpt lat="-28.2198743" lon="152.0285996">
<ele>426.567</ele>
<time>2017-04-06T03:45:08.424Z</time>
</trkpt>
<trkpt lat="-28.2198329" lon="152.0281543">
<ele>426.937</ele>
<time>2017-04-06T03:45:11.466Z</time>
</trkpt>
<trkpt lat="-28.2197886" lon="152.0277032">
<ele>427.621</ele>
<time>2017-04-06T03:45:14.456Z</time>
</trkpt>
<trkpt lat="-28.2197557" lon="152.0273959">
<ele>428.518</ele>
<time>2017-04-06T03:45:16.454Z</time>
</trkpt>
<trkpt lat="-28.2197206" lon="152.0270804">
<ele>429.417</ele>
<time>2017-04-06T03:45:18.474Z</time>
</trkpt>
<trkpt lat="-28.2196615" lon="152.0266118">
<ele>430.087</ele>
<time>2017-04-06T03:45:21.485Z</time>
</trkpt>
<trkpt lat="-28.2196216" lon="152.0263095">
<ele>430.470</ele>
<time>2017-04-06T03:45:23.459Z</time>
</trkpt>
<trkpt lat="-28.2195813" lon="152.0260088">
<ele>430.603</ele>
<time>2017-04-06T03:45:25.432Z</time>
</trkpt>
<trkpt lat="-28.2195361" lon="152.0257049">
<ele>430.519</ele>
<time>2017-04-06T03:45:27.426Z</time>
</trkpt>
<trkpt lat="-28.2194445" lon="152.0252469">
<ele>430.276</ele>
<time>2017-04-06T03:45:30.460Z</time>
</trkpt>
<trkpt lat="-28.2193976" lon="152.0249399">
<ele>429.924</ele>
<time>2017-04-06T03:45:32.458Z</time>
</trkpt>
<trkpt lat="-28.2193489" lon="152.0246277">
<ele>429.543</ele>
<time>2017-04-06T03:45:34.473Z</time>
</trkpt>
<trkpt lat="-28.2193046" lon="152.0243196">
<ele>429.214</ele>
<time>2017-04-06T03:45:36.469Z</time>
</trkpt>
<trkpt lat="-28.2192394" lon="152.0238693">
<ele>428.933</ele>
<time>2017-04-06T03:45:39.392Z</time>
</trkpt>
<trkpt lat="-28.2191713" lon="152.0234005">
<ele>428.688</ele>
<time>2017-04-06T03:45:42.386Z</time>
</trkpt>
<trkpt lat="-28.2191008" lon="152.0229166">
<ele>429.469</ele>
<time>2017-04-06T03:45:45.419Z</time>
</trkpt>
<trkpt lat="-28.2190297" lon="152.0224404">
<ele>431.867</ele>
<time>2017-04-06T03:45:48.436Z</time>
</trkpt>
<trkpt lat="-28.2189883" lon="152.0221388">
<ele>434.424</ele>
<time>2017-04-06T03:45:50.442Z</time>
</trkpt>
<trkpt lat="-28.2189273" lon="152.0217147">
<ele>435.736</ele>
<time>2017-04-06T03:45:53.388Z</time>
</trkpt>
<trkpt lat="-28.2188701" lon="152.0213048">
<ele>436.097</ele>
<time>2017-04-06T03:45:56.351Z</time>
</trkpt>
<trkpt lat="-28.2188419" lon="152.0210330">
<ele>436.150</ele>
<time>2017-04-06T03:45:58.363Z</time>
</trkpt>
<trkpt lat="-28.2188187" lon="152.0207792">
<ele>436.267</ele>
<time>2017-04-06T03:46:00.392Z</time>
</trkpt>
<trkpt lat="-28.2187760" lon="152.0204470">
<ele>436.460</ele>
<time>2017-04-06T03:46:03.375Z</time>
</trkpt>
<trkpt lat="-28.2188116" lon="152.0202698">
<ele>436.550</ele>
<time>2017-04-06T03:46:05.042Z</time>
</trkpt>
<trkpt lat="-28.2191100" lon="152.0201517">
<ele>436.451</ele>
<time>2017-04-06T03:46:07.883Z</time>
</trkpt>
<trkpt lat="-28.2195651" lon="152.0200422">
<ele>436.392</ele>
<time>2017-04-06T03:46:11.078Z</time>
</trkpt>
<trkpt lat="-28.2200729" lon="152.0199439">
<ele>436.974</ele>
<time>2017-04-06T03:46:14.183Z</time>
</trkpt>
<trkpt lat="-28.2205779" lon="152.0199005">
<ele>438.759</ele>
<time>2017-04-06T03:46:17.181Z</time>
</trkpt>
<trkpt lat="-28.2209026" lon="152.0198222">
<ele>441.607</ele>
<time>2017-04-06T03:46:19.170Z</time>
</trkpt>
<trkpt lat="-28.2214061" lon="152.0197134">
<ele>444.656</ele>
<time>2017-04-06T03:46:22.252Z</time>
</trkpt>
<trkpt lat="-28.2217294" lon="152.0196408">
<ele>447.196</ele>
<time>2017-04-06T03:46:24.246Z</time>
</trkpt>
<trkpt lat="-28.2220556" lon="152.0195860">
<ele>449.122</ele>
<time>2017-04-06T03:46:26.267Z</time>
</trkpt>
<trkpt lat="-28.2225305" lon="152.0195529">
<ele>450.600</ele>
<time>2017-04-06T03:46:29.233Z</time>
</trkpt>
<trkpt lat="-28.2228278" lon="152.0194607">
<ele>451.835</ele>
<time>2017-04-06T03:46:31.245Z</time>
</trkpt>
<trkpt lat="-28.2232544" lon="152.0193828">
<ele>453.093</ele>
<time>2017-04-06T03:46:34.198Z</time>
</trkpt>
<trkpt lat="-28.2235156" lon="152.0193442">
<ele>454.317</ele>
<time>2017-04-06T03:46:36.147Z</time>
</trkpt>
<trkpt lat="-28.2237525" lon="152.0192564">
<ele>455.164</ele>
<time>2017-04-06T03:46:38.088Z</time>
</trkpt>
<trkpt lat="-28.2241117" lon="152.0192199">
<ele>455.557</ele>
<time>2017-04-06T03:46:40.924Z</time>
</trkpt>
<trkpt lat="-28.2245109" lon="152.0191456">
<ele>455.711</ele>
<time>2017-04-06T03:46:43.942Z</time>
</trkpt>
<trkpt lat="-28.2249675" lon="152.0190980">
<ele>455.775</ele>
<time>2017-04-06T03:46:47.031Z</time>
</trkpt>
<trkpt lat="-28.2254268" lon="152.0190110">
<ele>455.637</ele>
<time>2017-04-06T03:46:50.018Z</time>
</trkpt>
<trkpt lat="-28.2257264" lon="152.0189466">
<ele>454.970</ele>
<time>2017-04-06T03:46:51.983Z</time>
</trkpt>
<trkpt lat="-28.2261763" lon="152.0188666">
<ele>453.668</ele>
<time>2017-04-06T03:46:54.930Z</time>
</trkpt>
<trkpt lat="-28.2266325" lon="152.0187574">
<ele>451.876</ele>
<time>2017-04-06T03:46:57.956Z</time>
</trkpt>
<trkpt lat="-28.2270930" lon="152.0187193">
<ele>449.644</ele>
<time>2017-04-06T03:47:00.975Z</time>
</trkpt>
<trkpt lat="-28.2275404" lon="152.0186282">
<ele>447.076</ele>
<time>2017-04-06T03:47:03.961Z</time>
</trkpt>
<trkpt lat="-28.2279920" lon="152.0185448">
<ele>444.481</ele>
<time>2017-04-06T03:47:06.947Z</time>
</trkpt>
<trkpt lat="-28.2283171" lon="152.0184893">
<ele>442.177</ele>
<time>2017-04-06T03:47:09.064Z</time>
</trkpt>
<trkpt lat="-28.2287619" lon="152.0183859">
<ele>440.434</ele>
<time>2017-04-06T03:47:12.005Z</time>
</trkpt>
<trkpt lat="-28.2291952" lon="152.0183187">
<ele>439.325</ele>
<time>2017-04-06T03:47:14.904Z</time>
</trkpt>
<trkpt lat="-28.2296379" lon="152.0182192">
<ele>438.700</ele>
<time>2017-04-06T03:47:17.929Z</time>
</trkpt>
<trkpt lat="-28.2299330" lon="152.0181596">
<ele>438.420</ele>
<time>2017-04-06T03:47:19.929Z</time>
</trkpt>
<trkpt lat="-28.2303720" lon="152.0180887">
<ele>438.408</ele>
<time>2017-04-06T03:47:22.898Z</time>
</trkpt>
<trkpt lat="-28.2308067" lon="152.0180217">
<ele>438.669</ele>
<time>2017-04-06T03:47:25.862Z</time>
</trkpt>
<trkpt lat="-28.2310947" lon="152.0179535">
<ele>439.350</ele>
<time>2017-04-06T03:47:27.862Z</time>
</trkpt>
<trkpt lat="-28.2315264" lon="152.0178743">
<ele>440.413</ele>
<time>2017-04-06T03:47:30.841Z</time>
</trkpt>
<trkpt lat="-28.2318168" lon="152.0178036">
<ele>441.588</ele>
<time>2017-04-06T03:47:32.844Z</time>
</trkpt>
<trkpt lat="-28.2321245" lon="152.0177970">
<ele>442.718</ele>
<time>2017-04-06T03:47:34.891Z</time>
</trkpt>
<trkpt lat="-28.2325701" lon="152.0176882">
<ele>443.828</ele>
<time>2017-04-06T03:47:37.907Z</time>
</trkpt>
<trkpt lat="-28.2328678" lon="152.0176200">
<ele>445.077</ele>
<time>2017-04-06T03:47:39.925Z</time>
</trkpt>
<trkpt lat="-28.2333138" lon="152.0175968">
<ele>446.528</ele>
<time>2017-04-06T03:47:42.914Z</time>
</trkpt>
<trkpt lat="-28.2336073" lon="152.0175341">
<ele>447.949</ele>
<time>2017-04-06T03:47:44.923Z</time>
</trkpt>
<trkpt lat="-28.2340486" lon="152.0174590">
<ele>449.126</ele>
<time>2017-04-06T03:47:47.922Z</time>
</trkpt>
<trkpt lat="-28.2343417" lon="152.0174332">
<ele>450.199</ele>
<time>2017-04-06T03:47:49.908Z</time>
</trkpt>
<trkpt lat="-28.2346314" lon="152.0173793">
<ele>451.280</ele>
<time>2017-04-06T03:47:51.896Z</time>
</trkpt>
<trkpt lat="-28.2350793" lon="152.0173234">
<ele>452.243</ele>
<time>2017-04-06T03:47:54.939Z</time>
</trkpt>
<trkpt lat="-28.2353888" lon="152.0172889">
<ele>453.165</ele>
<time>2017-04-06T03:47:57.039Z</time>
</trkpt>
<trkpt lat="-28.2358698" lon="152.0172645">
<ele>454.254</ele>
<time>2017-04-06T03:48:00.298Z</time>
</trkpt>
<trkpt lat="-28.2363083" lon="152.0172166">
<ele>455.444</ele>
<time>2017-04-06T03:48:03.296Z</time>
</trkpt>
<trkpt lat="-28.2365973" lon="152.0172074">
<ele>456.663</ele>
<time>2017-04-06T03:48:05.257Z</time>
</trkpt>
<trkpt lat="-28.2370439" lon="152.0171749">
<ele>457.886</ele>
<time>2017-04-06T03:48:08.268Z</time>
</trkpt>
<trkpt lat="-28.2374925" lon="152.0171466">
<ele>459.031</ele>
<time>2017-04-06T03:48:11.264Z</time>
</trkpt>
<trkpt lat="-28.2377862" lon="152.0171060">
<ele>460.081</ele>
<time>2017-04-06T03:48:13.240Z</time>
</trkpt>
<trkpt lat="-28.2382282" lon="152.0170519">
<ele>461.003</ele>
<time>2017-04-06T03:48:16.211Z</time>
</trkpt>
<trkpt lat="-28.2386729" lon="152.0169888">
<ele>461.665</ele>
<time>2017-04-06T03:48:19.190Z</time>
</trkpt>
<trkpt lat="-28.2389742" lon="152.0169324">
<ele>461.921</ele>
<time>2017-04-06T03:48:21.195Z</time>
</trkpt>
<trkpt lat="-28.2392583" lon="152.0168400">
<ele>461.703</ele>
<time>2017-04-06T03:48:23.126Z</time>
</trkpt>
<trkpt lat="-28.2396982" lon="152.0167092">
<ele>461.063</ele>
<time>2017-04-06T03:48:26.113Z</time>
</trkpt>
<trkpt lat="-28.2401102" lon="152.0165396">
<ele>460.045</ele>
<time>2017-04-06T03:48:29.043Z</time>
</trkpt>
<trkpt lat="-28.2405129" lon="152.0163463">
<ele>458.628</ele>
<time>2017-04-06T03:48:31.939Z</time>
</trkpt>
<trkpt lat="-28.2409338" lon="152.0160778">
<ele>456.850</ele>
<time>2017-04-06T03:48:34.884Z</time>
</trkpt>
<trkpt lat="-28.2412866" lon="152.0158306">
<ele>455.034</ele>
<time>2017-04-06T03:48:37.104Z</time>
</trkpt>
<trkpt lat="-28.2416296" lon="152.0155763">
<ele>453.700</ele>
<time>2017-04-06T03:48:39.161Z</time>
</trkpt>
<trkpt lat="-28.2419824" lon="152.0153787">
<ele>453.070</ele>
<time>2017-04-06T03:48:41.113Z</time>
</trkpt>
<trkpt lat="-28.2424976" lon="152.0150502">
<ele>452.929</ele>
<time>2017-04-06T03:48:44.014Z</time>
</trkpt>
<trkpt lat="-28.2430743" lon="152.0146739">
<ele>452.842</ele>
<time>2017-04-06T03:48:47.084Z</time>
</trkpt>
<trkpt lat="-28.2436790" lon="152.0143120">
<ele>452.444</ele>
<time>2017-04-06T03:48:49.994Z</time>
</trkpt>
<trkpt lat="-28.2441228" lon="152.0140387">
<ele>451.642</ele>
<time>2017-04-06T03:48:52.051Z</time>
</trkpt>
<trkpt lat="-28.2448174" lon="152.0137368">
<ele>450.617</ele>
<time>2017-04-06T03:48:55.055Z</time>
</trkpt>
<trkpt lat="-28.2453636" lon="152.0136095">
<ele>449.562</ele>
<time>2017-04-06T03:48:57.283Z</time>
</trkpt>
<trkpt lat="-28.2461033" lon="152.0134333">
<ele>448.534</ele>
<time>2017-04-06T03:49:00.279Z</time>
</trkpt>
<trkpt lat="-28.2466397" lon="152.0133524">
<ele>447.664</ele>
<time>2017-04-06T03:49:02.400Z</time>
</trkpt>
<trkpt lat="-28.2474583" lon="152.0133153">
<ele>447.188</ele>
<time>2017-04-06T03:49:05.604Z</time>
</trkpt>
<trkpt lat="-28.2479696" lon="152.0133405">
<ele>447.288</ele>
<time>2017-04-06T03:49:07.613Z</time>
</trkpt>
<trkpt lat="-28.2487365" lon="152.0134092">
<ele>447.988</ele>
<time>2017-04-06T03:49:10.641Z</time>
</trkpt>
<trkpt lat="-28.2492386" lon="152.0134386">
<ele>449.134</ele>
<time>2017-04-06T03:49:12.624Z</time>
</trkpt>
<trkpt lat="-28.2500037" lon="152.0134518">
<ele>450.458</ele>
<time>2017-04-06T03:49:15.637Z</time>
</trkpt>
<trkpt lat="-28.2507653" lon="152.0135235">
<ele>451.700</ele>
<time>2017-04-06T03:49:18.632Z</time>
</trkpt>
<trkpt lat="-28.2515324" lon="152.0135734">
<ele>452.703</ele>
<time>2017-04-06T03:49:21.635Z</time>
</trkpt>
<trkpt lat="-28.2523040" lon="152.0136138">
<ele>453.536</ele>
<time>2017-04-06T03:49:24.657Z</time>
</trkpt>
<trkpt lat="-28.2528055" lon="152.0136901">
<ele>454.247</ele>
<time>2017-04-06T03:49:26.638Z</time>
</trkpt>
<trkpt lat="-28.2533204" lon="152.0137199">
<ele>454.737</ele>
<time>2017-04-06T03:49:28.662Z</time>
</trkpt>
<trkpt lat="-28.2540804" lon="152.0137398">
<ele>454.909</ele>
<time>2017-04-06T03:49:31.645Z</time>
</trkpt>
<trkpt lat="-28.2548490" lon="152.0136645">
<ele>454.798</ele>
<time>2017-04-06T03:49:34.663Z</time>
</trkpt>
<trkpt lat="-28.2553427" lon="152.0135396">
<ele>454.550</ele>
<time>2017-04-06T03:49:36.641Z</time>
</trkpt>
<trkpt lat="-28.2560777" lon="152.0133249">
<ele>454.379</ele>
<time>2017-04-06T03:49:39.610Z</time>
</trkpt>
<trkpt lat="-28.2565708" lon="152.0131772">
<ele>454.530</ele>
<time>2017-04-06T03:49:41.596Z</time>
</trkpt>
<trkpt lat="-28.2570530" lon="152.0129741">
<ele>455.312</ele>
<time>2017-04-06T03:49:43.599Z</time>
</trkpt>
<trkpt lat="-28.2577310" lon="152.0125859">
<ele>456.842</ele>
<time>2017-04-06T03:49:46.565Z</time>
</trkpt>
<trkpt lat="-28.2584470" lon="152.0122769">
<ele>458.922</ele>
<time>2017-04-06T03:49:49.569Z</time>
</trkpt>
<trkpt lat="-28.2589224" lon="152.0120792">
<ele>461.178</ele>
<time>2017-04-06T03:49:51.571Z</time>
</trkpt>
<trkpt lat="-28.2593770" lon="152.0118571">
<ele>463.013</ele>
<time>2017-04-06T03:49:53.545Z</time>
</trkpt>
<trkpt lat="-28.2598329" lon="152.0116427">
<ele>463.833</ele>
<time>2017-04-06T03:49:55.511Z</time>
</trkpt>
<trkpt lat="-28.2605333" lon="152.0113104">
<ele>463.519</ele>
<time>2017-04-06T03:49:58.523Z</time>
</trkpt>
<trkpt lat="-28.2610080" lon="152.0111239">
<ele>462.345</ele>
<time>2017-04-06T03:50:00.525Z</time>
</trkpt>
<trkpt lat="-28.2616844" lon="152.0107809">
<ele>460.926</ele>
<time>2017-04-06T03:50:03.501Z</time>
</trkpt>
<trkpt lat="-28.2623644" lon="152.0104498">
<ele>459.967</ele>
<time>2017-04-06T03:50:06.478Z</time>
</trkpt>
<trkpt lat="-28.2630775" lon="152.0101319">
<ele>459.772</ele>
<time>2017-04-06T03:50:09.521Z</time>
</trkpt>
<trkpt lat="-28.2637758" lon="152.0097738">
<ele>460.420</ele>
<time>2017-04-06T03:50:12.541Z</time>
</trkpt>
<trkpt lat="-28.2642435" lon="152.0095670">
<ele>461.890</ele>
<time>2017-04-06T03:50:14.518Z</time>
</trkpt>
<trkpt lat="-28.2649492" lon="152.0092303">
<ele>463.608</ele>
<time>2017-04-06T03:50:17.529Z</time>
</trkpt>
<trkpt lat="-28.2654278" lon="152.0090344">
<ele>464.826</ele>
<time>2017-04-06T03:50:19.525Z</time>
</trkpt>
<trkpt lat="-28.2661347" lon="152.0087206">
<ele>465.337</ele>
<time>2017-04-06T03:50:22.501Z</time>
</trkpt>
<trkpt lat="-28.2666099" lon="152.0085097">
<ele>465.315</ele>
<time>2017-04-06T03:50:24.505Z</time>
</trkpt>
<trkpt lat="-28.2673163" lon="152.0081810">
<ele>464.998</ele>
<time>2017-04-06T03:50:27.496Z</time>
</trkpt>
<trkpt lat="-28.2680793" lon="152.0078844">
<ele>464.558</ele>
<time>2017-04-06T03:50:30.643Z</time>
</trkpt>
<trkpt lat="-28.2687568" lon="152.0075618">
<ele>463.854</ele>
<time>2017-04-06T03:50:33.513Z</time>
</trkpt>
<trkpt lat="-28.2692191" lon="152.0073100">
<ele>462.782</ele>
<time>2017-04-06T03:50:35.523Z</time>
</trkpt>
<trkpt lat="-28.2699248" lon="152.0069797">
<ele>461.742</ele>
<time>2017-04-06T03:50:38.509Z</time>
</trkpt>
<trkpt lat="-28.2706320" lon="152.0066317">
<ele>461.339</ele>
<time>2017-04-06T03:50:41.504Z</time>
</trkpt>
<trkpt lat="-28.2713515" lon="152.0062893">
<ele>461.880</ele>
<time>2017-04-06T03:50:44.515Z</time>
</trkpt>
<trkpt lat="-28.2718248" lon="152.0060720">
<ele>463.346</ele>
<time>2017-04-06T03:50:46.484Z</time>
</trkpt>
<trkpt lat="-28.2723391" lon="152.0058277">
<ele>465.349</ele>
<time>2017-04-06T03:50:48.642Z</time>
</trkpt>
<trkpt lat="-28.2730076" lon="152.0054819">
<ele>467.146</ele>
<time>2017-04-06T03:50:51.481Z</time>
</trkpt>
<trkpt lat="-28.2735122" lon="152.0052311">
<ele>468.146</ele>
<time>2017-04-06T03:50:53.598Z</time>
</trkpt>
<trkpt lat="-28.2741402" lon="152.0048248">
<ele>468.269</ele>
<time>2017-04-06T03:50:56.381Z</time>
</trkpt>
<trkpt lat="-28.2747116" lon="152.0042492">
<ele>467.558</ele>
<time>2017-04-06T03:50:59.340Z</time>
</trkpt>
<trkpt lat="-28.2752755" lon="152.0036420">
<ele>466.099</ele>
<time>2017-04-06T03:51:02.351Z</time>
</trkpt>
<trkpt lat="-28.2757831" lon="152.0029668">
<ele>464.318</ele>
<time>2017-04-06T03:51:05.361Z</time>
</trkpt>
<trkpt lat="-28.2762777" lon="152.0022692">
<ele>462.877</ele>
<time>2017-04-06T03:51:08.383Z</time>
</trkpt>
<trkpt lat="-28.2766797" lon="152.0015000">
<ele>462.208</ele>
<time>2017-04-06T03:51:11.398Z</time>
</trkpt>
<trkpt lat="-28.2770030" lon="152.0006731">
<ele>462.349</ele>
<time>2017-04-06T03:51:14.452Z</time>
</trkpt>
<trkpt lat="-28.2771675" lon="152.0001108">
<ele>463.142</ele>
<time>2017-04-06T03:51:16.464Z</time>
</trkpt>
<trkpt lat="-28.2773775" lon="151.9992764">
<ele>464.254</ele>
<time>2017-04-06T03:51:19.417Z</time>
</trkpt>
<trkpt lat="-28.2776406" lon="151.9984162">
<ele>465.334</ele>
<time>2017-04-06T03:51:22.510Z</time>
</trkpt>
<trkpt lat="-28.2778459" lon="151.9978706">
<ele>466.322</ele>
<time>2017-04-06T03:51:24.525Z</time>
</trkpt>
<trkpt lat="-28.2779830" lon="151.9973138">
<ele>467.313</ele>
<time>2017-04-06T03:51:26.500Z</time>
</trkpt>
<trkpt lat="-28.2781804" lon="151.9964640">
<ele>468.320</ele>
<time>2017-04-06T03:51:29.509Z</time>
</trkpt>
<trkpt lat="-28.2782696" lon="151.9958887">
<ele>469.368</ele>
<time>2017-04-06T03:51:31.505Z</time>
</trkpt>
<trkpt lat="-28.2784286" lon="151.9950309">
<ele>470.490</ele>
<time>2017-04-06T03:51:34.492Z</time>
</trkpt>
<trkpt lat="-28.2785689" lon="151.9944521">
<ele>471.760</ele>
<time>2017-04-06T03:51:36.531Z</time>
</trkpt>
<trkpt lat="-28.2787966" lon="151.9936015">
<ele>473.119</ele>
<time>2017-04-06T03:51:39.546Z</time>
</trkpt>
<trkpt lat="-28.2790438" lon="151.9930883">
<ele>474.296</ele>
<time>2017-04-06T03:51:41.517Z</time>
</trkpt>
<trkpt lat="-28.2792570" lon="151.9924942">
<ele>475.219</ele>
<time>2017-04-06T03:51:43.666Z</time>
</trkpt>
<trkpt lat="-28.2794524" lon="151.9919412">
<ele>476.124</ele>
<time>2017-04-06T03:51:45.664Z</time>
</trkpt>
<trkpt lat="-28.2796405" lon="151.9914059">
<ele>477.101</ele>
<time>2017-04-06T03:51:47.610Z</time>
</trkpt>
<trkpt lat="-28.2798384" lon="151.9908853">
<ele>478.035</ele>
<time>2017-04-06T03:51:49.542Z</time>
</trkpt>
<trkpt lat="-28.2801533" lon="151.9901078">
<ele>478.946</ele>
<time>2017-04-06T03:51:52.478Z</time>
</trkpt>
<trkpt lat="-28.2803944" lon="151.9896007">
<ele>480.353</ele>
<time>2017-04-06T03:51:54.460Z</time>
</trkpt>
<trkpt lat="-28.2806098" lon="151.9890672">
<ele>482.464</ele>
<time>2017-04-06T03:51:56.468Z</time>
</trkpt>
<trkpt lat="-28.2809193" lon="151.9882698">
<ele>484.703</ele>
<time>2017-04-06T03:51:59.439Z</time>
</trkpt>
<trkpt lat="-28.2811206" lon="151.9877259">
<ele>486.772</ele>
<time>2017-04-06T03:52:01.448Z</time>
</trkpt>
<trkpt lat="-28.2813538" lon="151.9872070">
<ele>488.866</ele>
<time>2017-04-06T03:52:03.430Z</time>
</trkpt>
<trkpt lat="-28.2816482" lon="151.9863928">
<ele>490.883</ele>
<time>2017-04-06T03:52:06.424Z</time>
</trkpt>
<trkpt lat="-28.2819681" lon="151.9855960">
<ele>492.706</ele>
<time>2017-04-06T03:52:09.407Z</time>
</trkpt>
<trkpt lat="-28.2821122" lon="151.9850308">
<ele>494.682</ele>
<time>2017-04-06T03:52:11.421Z</time>
</trkpt>
<trkpt lat="-28.2822628" lon="151.9844755">
<ele>497.104</ele>
<time>2017-04-06T03:52:13.411Z</time>
</trkpt>
<trkpt lat="-28.2824622" lon="151.9836279">
<ele>499.673</ele>
<time>2017-04-06T03:52:16.407Z</time>
</trkpt>
<trkpt lat="-28.2826686" lon="151.9827737">
<ele>502.204</ele>
<time>2017-04-06T03:52:19.415Z</time>
</trkpt>
<trkpt lat="-28.2829221" lon="151.9819387">
<ele>504.983</ele>
<time>2017-04-06T03:52:22.407Z</time>
</trkpt>
<trkpt lat="-28.2831333" lon="151.9810942">
<ele>508.094</ele>
<time>2017-04-06T03:52:25.380Z</time>
</trkpt>
<trkpt lat="-28.2833172" lon="151.9802382">
<ele>511.320</ele>
<time>2017-04-06T03:52:28.365Z</time>
</trkpt>
<trkpt lat="-28.2834812" lon="151.9796739">
<ele>514.502</ele>
<time>2017-04-06T03:52:30.381Z</time>
</trkpt>
<trkpt lat="-28.2836747" lon="151.9788190">
<ele>517.988</ele>
<time>2017-04-06T03:52:33.374Z</time>
</trkpt>
<trkpt lat="-28.2838337" lon="151.9779487">
<ele>521.894</ele>
<time>2017-04-06T03:52:36.379Z</time>
</trkpt>
<trkpt lat="-28.2840564" lon="151.9770979">
<ele>525.280</ele>
<time>2017-04-06T03:52:39.370Z</time>
</trkpt>
<trkpt lat="-28.2842273" lon="151.9765418">
<ele>527.237</ele>
<time>2017-04-06T03:52:41.355Z</time>
</trkpt>
<trkpt lat="-28.2845191" lon="151.9757113">
<ele>527.874</ele>
<time>2017-04-06T03:52:44.372Z</time>
</trkpt>
<trkpt lat="-28.2847132" lon="151.9751912">
<ele>527.566</ele>
<time>2017-04-06T03:52:46.288Z</time>
</trkpt>
<trkpt lat="-28.2849842" lon="151.9743941">
<ele>526.662</ele>
<time>2017-04-06T03:52:49.207Z</time>
</trkpt>
<trkpt lat="-28.2853061" lon="151.9736129">
<ele>525.209</ele>
<time>2017-04-06T03:52:52.178Z</time>
</trkpt>
<trkpt lat="-28.2854819" lon="151.9730711">
<ele>522.955</ele>
<time>2017-04-06T03:52:54.170Z</time>
</trkpt>
<trkpt lat="-28.2856570" lon="151.9725246">
<ele>520.009</ele>
<time>2017-04-06T03:52:56.179Z</time>
</trkpt>
<trkpt lat="-28.2859731" lon="151.9717460">
<ele>516.949</ele>
<time>2017-04-06T03:52:59.145Z</time>
</trkpt>
<trkpt lat="-28.2862416" lon="151.9709427">
<ele>514.032</ele>
<time>2017-04-06T03:53:02.112Z</time>
</trkpt>
<trkpt lat="-28.2865688" lon="151.9701482">
<ele>511.143</ele>
<time>2017-04-06T03:53:05.134Z</time>
</trkpt>
<trkpt lat="-28.2868694" lon="151.9693506">
<ele>508.227</ele>
<time>2017-04-06T03:53:08.132Z</time>
</trkpt>
<trkpt lat="-28.2870398" lon="151.9688164">
<ele>505.496</ele>
<time>2017-04-06T03:53:10.104Z</time>
</trkpt>
<trkpt lat="-28.2873245" lon="151.9680241">
<ele>503.184</ele>
<time>2017-04-06T03:53:13.074Z</time>
</trkpt>
<trkpt lat="-28.2876774" lon="151.9672573">
<ele>501.331</ele>
<time>2017-04-06T03:53:16.068Z</time>
</trkpt>
<trkpt lat="-28.2878931" lon="151.9664260">
<ele>499.909</ele>
<time>2017-04-06T03:53:19.063Z</time>
</trkpt>
<trkpt lat="-28.2881828" lon="151.9656169">
<ele>498.837</ele>
<time>2017-04-06T03:53:22.077Z</time>
</trkpt>
<trkpt lat="-28.2882715" lon="151.9647532">
<ele>497.940</ele>
<time>2017-04-06T03:53:25.075Z</time>
</trkpt>
<trkpt lat="-28.2883042" lon="151.9641841">
<ele>496.990</ele>
<time>2017-04-06T03:53:27.042Z</time>
</trkpt>
<trkpt lat="-28.2883751" lon="151.9633251">
<ele>495.859</ele>
<time>2017-04-06T03:53:30.014Z</time>
</trkpt>
<trkpt lat="-28.2882504" lon="151.9627585">
<ele>494.589</ele>
<time>2017-04-06T03:53:32.025Z</time>
</trkpt>
<trkpt lat="-28.2881766" lon="151.9619009">
<ele>493.374</ele>
<time>2017-04-06T03:53:34.995Z</time>
</trkpt>
<trkpt lat="-28.2881760" lon="151.9613217">
<ele>492.408</ele>
<time>2017-04-06T03:53:36.989Z</time>
</trkpt>
<trkpt lat="-28.2881081" lon="151.9604686">
<ele>491.708</ele>
<time>2017-04-06T03:53:39.939Z</time>
</trkpt>
<trkpt lat="-28.2880975" lon="151.9596078">
<ele>491.035</ele>
<time>2017-04-06T03:53:42.907Z</time>
</trkpt>
<trkpt lat="-28.2880899" lon="151.9590302">
<ele>490.074</ele>
<time>2017-04-06T03:53:44.897Z</time>
</trkpt>
<trkpt lat="-28.2880798" lon="151.9584453">
<ele>488.749</ele>
<time>2017-04-06T03:53:46.904Z</time>
</trkpt>
<trkpt lat="-28.2880299" lon="151.9578715">
<ele>487.272</ele>
<time>2017-04-06T03:53:48.881Z</time>
</trkpt>
<trkpt lat="-28.2879558" lon="151.9570056">
<ele>485.864</ele>
<time>2017-04-06T03:53:51.871Z</time>
</trkpt>
<trkpt lat="-28.2879100" lon="151.9564275">
<ele>484.569</ele>
<time>2017-04-06T03:53:53.871Z</time>
</trkpt>
<trkpt lat="-28.2878239" lon="151.9555740">
<ele>483.336</ele>
<time>2017-04-06T03:53:56.846Z</time>
</trkpt>
<trkpt lat="-28.2877747" lon="151.9547207">
<ele>482.032</ele>
<time>2017-04-06T03:53:59.835Z</time>
</trkpt>
<trkpt lat="-28.2877038" lon="151.9538786">
<ele>480.532</ele>
<time>2017-04-06T03:54:02.807Z</time>
</trkpt>
<trkpt lat="-28.2876848" lon="151.9530334">
<ele>478.938</ele>
<time>2017-04-06T03:54:05.782Z</time>
</trkpt>
<trkpt lat="-28.2876771" lon="151.9524677">
<ele>477.627</ele>
<time>2017-04-06T03:54:07.775Z</time>
</trkpt>
<trkpt lat="-28.2876516" lon="151.9519011">
<ele>476.818</ele>
<time>2017-04-06T03:54:09.772Z</time>
</trkpt>
<trkpt lat="-28.2876104" lon="151.9513375">
<ele>476.354</ele>
<time>2017-04-06T03:54:11.763Z</time>
</trkpt>
<trkpt lat="-28.2875456" lon="151.9504949">
<ele>475.929</ele>
<time>2017-04-06T03:54:14.757Z</time>
</trkpt>
<trkpt lat="-28.2875050" lon="151.9499438">
<ele>475.449</ele>
<time>2017-04-06T03:54:16.736Z</time>
</trkpt>
<trkpt lat="-28.2874418" lon="151.9493918">
<ele>475.052</ele>
<time>2017-04-06T03:54:18.736Z</time>
</trkpt>
<trkpt lat="-28.2874293" lon="151.9488416">
<ele>474.863</ele>
<time>2017-04-06T03:54:20.716Z</time>
</trkpt>
<trkpt lat="-28.2874454" lon="151.9480069">
<ele>474.849</ele>
<time>2017-04-06T03:54:23.713Z</time>
</trkpt>
<trkpt lat="-28.2874554" lon="151.9471605">
<ele>474.991</ele>
<time>2017-04-06T03:54:26.736Z</time>
</trkpt>
<trkpt lat="-28.2876192" lon="151.9463454">
<ele>475.420</ele>
<time>2017-04-06T03:54:29.722Z</time>
</trkpt>
<trkpt lat="-28.2878130" lon="151.9458264">
<ele>476.315</ele>
<time>2017-04-06T03:54:31.739Z</time>
</trkpt>
<trkpt lat="-28.2879218" lon="151.9452914">
<ele>477.594</ele>
<time>2017-04-06T03:54:33.723Z</time>
</trkpt>
<trkpt lat="-28.2881308" lon="151.9445494">
<ele>478.783</ele>
<time>2017-04-06T03:54:36.624Z</time>
</trkpt>
<trkpt lat="-28.2882397" lon="151.9440480">
<ele>479.441</ele>
<time>2017-04-06T03:54:38.581Z</time>
</trkpt>
<trkpt lat="-28.2884004" lon="151.9432063">
<ele>479.590</ele>
<time>2017-04-06T03:54:41.721Z</time>
</trkpt>
<trkpt lat="-28.2885822" lon="151.9424386">
<ele>479.507</ele>
<time>2017-04-06T03:54:44.598Z</time>
</trkpt>
<trkpt lat="-28.2887358" lon="151.9416972">
<ele>479.239</ele>
<time>2017-04-06T03:54:47.461Z</time>
</trkpt>
<trkpt lat="-28.2888840" lon="151.9408800">
<ele>478.426</ele>
<time>2017-04-06T03:54:50.544Z</time>
</trkpt>
<trkpt lat="-28.2890648" lon="151.9403629">
<ele>476.878</ele>
<time>2017-04-06T03:54:52.540Z</time>
</trkpt>
<trkpt lat="-28.2892243" lon="151.9398298">
<ele>475.017</ele>
<time>2017-04-06T03:54:54.584Z</time>
</trkpt>
<trkpt lat="-28.2893872" lon="151.9393557">
<ele>473.424</ele>
<time>2017-04-06T03:54:56.447Z</time>
</trkpt>
<trkpt lat="-28.2896386" lon="151.9388798">
<ele>472.353</ele>
<time>2017-04-06T03:54:58.471Z</time>
</trkpt>
<trkpt lat="-28.2899493" lon="151.9381163">
<ele>471.683</ele>
<time>2017-04-06T03:55:01.516Z</time>
</trkpt>
<trkpt lat="-28.2902154" lon="151.9373173">
<ele>471.208</ele>
<time>2017-04-06T03:55:04.557Z</time>
</trkpt>
<trkpt lat="-28.2905753" lon="151.9365427">
<ele>471.067</ele>
<time>2017-04-06T03:55:07.599Z</time>
</trkpt>
<trkpt lat="-28.2909556" lon="151.9361091">
<ele>471.515</ele>
<time>2017-04-06T03:55:09.671Z</time>
</trkpt>
<trkpt lat="-28.2914348" lon="151.9353577">
<ele>472.382</ele>
<time>2017-04-06T03:55:12.713Z</time>
</trkpt>
<trkpt lat="-28.2917459" lon="151.9347828">
<ele>473.428</ele>
<time>2017-04-06T03:55:14.765Z</time>
</trkpt>
<trkpt lat="-28.2923994" lon="151.9339782">
<ele>474.868</ele>
<time>2017-04-06T03:55:17.904Z</time>
</trkpt>
<trkpt lat="-28.2930307" lon="151.9331797">
<ele>476.727</ele>
<time>2017-04-06T03:55:20.972Z</time>
</trkpt>
<trkpt lat="-28.2936042" lon="151.9325338">
<ele>478.336</ele>
<time>2017-04-06T03:55:23.811Z</time>
</trkpt>
<trkpt lat="-28.2940010" lon="151.9322262">
<ele>479.069</ele>
<time>2017-04-06T03:55:25.707Z</time>
</trkpt>
<trkpt lat="-28.2945815" lon="151.9318181">
<ele>479.007</ele>
<time>2017-04-06T03:55:28.583Z</time>
</trkpt>
<trkpt lat="-28.2949719" lon="151.9316027">
<ele>478.590</ele>
<time>2017-04-06T03:55:30.522Z</time>
</trkpt>
<trkpt lat="-28.2956136" lon="151.9312620">
<ele>478.149</ele>
<time>2017-04-06T03:55:33.823Z</time>
</trkpt>
<trkpt lat="-28.2961710" lon="151.9310640">
<ele>477.847</ele>
<time>2017-04-06T03:55:36.652Z</time>
</trkpt>
<trkpt lat="-28.2967411" lon="151.9308447">
<ele>477.853</ele>
<time>2017-04-06T03:55:39.661Z</time>
</trkpt>
<trkpt lat="-28.2971131" lon="151.9307474">
<ele>478.284</ele>
<time>2017-04-06T03:55:41.605Z</time>
</trkpt>
<trkpt lat="-28.2974890" lon="151.9306441">
<ele>478.998</ele>
<time>2017-04-06T03:55:43.597Z</time>
</trkpt>
<trkpt lat="-28.2978633" lon="151.9305554">
<ele>479.633</ele>
<time>2017-04-06T03:55:45.571Z</time>
</trkpt>
<trkpt lat="-28.2984357" lon="151.9303707">
<ele>480.006</ele>
<time>2017-04-06T03:55:48.601Z</time>
</trkpt>
<trkpt lat="-28.2988275" lon="151.9302986">
<ele>480.249</ele>
<time>2017-04-06T03:55:50.598Z</time>
</trkpt>
<trkpt lat="-28.2992107" lon="151.9301748">
<ele>480.561</ele>
<time>2017-04-06T03:55:52.598Z</time>
</trkpt>
<trkpt lat="-28.2995813" lon="151.9300098">
<ele>481.057</ele>
<time>2017-04-06T03:55:54.588Z</time>
</trkpt>
<trkpt lat="-28.3001344" lon="151.9297496">
<ele>481.771</ele>
<time>2017-04-06T03:55:57.569Z</time>
</trkpt>
<trkpt lat="-28.3004961" lon="151.9295345">
<ele>482.723</ele>
<time>2017-04-06T03:55:59.592Z</time>
</trkpt>
<trkpt lat="-28.3008567" lon="151.9293153">
<ele>483.866</ele>
<time>2017-04-06T03:56:01.598Z</time>
</trkpt>
<trkpt lat="-28.3013984" lon="151.9289875">
<ele>485.016</ele>
<time>2017-04-06T03:56:04.591Z</time>
</trkpt>
<trkpt lat="-28.3019462" lon="151.9286836">
<ele>486.034</ele>
<time>2017-04-06T03:56:07.572Z</time>
</trkpt>
<trkpt lat="-28.3025052" lon="151.9283976">
<ele>486.892</ele>
<time>2017-04-06T03:56:10.577Z</time>
</trkpt>
<trkpt lat="-28.3028762" lon="151.9281919">
<ele>487.569</ele>
<time>2017-04-06T03:56:12.595Z</time>
</trkpt>
<trkpt lat="-28.3032281" lon="151.9279737">
<ele>488.075</ele>
<time>2017-04-06T03:56:14.552Z</time>
</trkpt>
<trkpt lat="-28.3037793" lon="151.9276743">
<ele>488.495</ele>
<time>2017-04-06T03:56:17.543Z</time>
</trkpt>
<trkpt lat="-28.3043066" lon="151.9273249">
<ele>489.018</ele>
<time>2017-04-06T03:56:20.542Z</time>
</trkpt>
<trkpt lat="-28.3048305" lon="151.9269874">
<ele>489.860</ele>
<time>2017-04-06T03:56:23.507Z</time>
</trkpt>
<trkpt lat="-28.3051698" lon="151.9267172">
<ele>491.089</ele>
<time>2017-04-06T03:56:25.542Z</time>
</trkpt>
<trkpt lat="-28.3057286" lon="151.9264255">
<ele>492.529</ele>
<time>2017-04-06T03:56:28.570Z</time>
</trkpt>
<trkpt lat="-28.3060853" lon="151.9262095">
<ele>493.843</ele>
<time>2017-04-06T03:56:30.574Z</time>
</trkpt>
<trkpt lat="-28.3064336" lon="151.9259569">
<ele>494.811</ele>
<time>2017-04-06T03:56:32.625Z</time>
</trkpt>
<trkpt lat="-28.3067763" lon="151.9257449">
<ele>495.490</ele>
<time>2017-04-06T03:56:34.573Z</time>
</trkpt>
<trkpt lat="-28.3072814" lon="151.9253958">
<ele>496.077</ele>
<time>2017-04-06T03:56:37.544Z</time>
</trkpt>
<trkpt lat="-28.3076486" lon="151.9251805">
<ele>496.802</ele>
<time>2017-04-06T03:56:39.606Z</time>
</trkpt>
<trkpt lat="-28.3080153" lon="151.9249824">
<ele>497.753</ele>
<time>2017-04-06T03:56:41.609Z</time>
</trkpt>
<trkpt lat="-28.3085772" lon="151.9247086">
<ele>498.738</ele>
<time>2017-04-06T03:56:44.606Z</time>
</trkpt>
<trkpt lat="-28.3089805" lon="151.9246010">
<ele>499.618</ele>
<time>2017-04-06T03:56:46.609Z</time>
</trkpt>
<trkpt lat="-28.3095970" lon="151.9244368">
<ele>500.371</ele>
<time>2017-04-06T03:56:49.620Z</time>
</trkpt>
<trkpt lat="-28.3099963" lon="151.9242979">
<ele>500.870</ele>
<time>2017-04-06T03:56:51.601Z</time>
</trkpt>
<trkpt lat="-28.3106007" lon="151.9241078">
<ele>501.067</ele>
<time>2017-04-06T03:56:54.591Z</time>
</trkpt>
<trkpt lat="-28.3110035" lon="151.9239112">
<ele>501.205</ele>
<time>2017-04-06T03:56:56.669Z</time>
</trkpt>
<trkpt lat="-28.3113984" lon="151.9237311">
<ele>501.549</ele>
<time>2017-04-06T03:56:58.676Z</time>
</trkpt>
<trkpt lat="-28.3117919" lon="151.9235332">
<ele>502.116</ele>
<time>2017-04-06T03:57:00.698Z</time>
</trkpt>
<trkpt lat="-28.3121811" lon="151.9233548">
<ele>502.722</ele>
<time>2017-04-06T03:57:02.669Z</time>
</trkpt>
<trkpt lat="-28.3127670" lon="151.9230475">
<ele>503.229</ele>
<time>2017-04-06T03:57:05.700Z</time>
</trkpt>
<trkpt lat="-28.3131642" lon="151.9228713">
<ele>503.563</ele>
<time>2017-04-06T03:57:07.702Z</time>
</trkpt>
<trkpt lat="-28.3135609" lon="151.9226864">
<ele>503.778</ele>
<time>2017-04-06T03:57:09.706Z</time>
</trkpt>
<trkpt lat="-28.3139539" lon="151.9224758">
<ele>504.029</ele>
<time>2017-04-06T03:57:11.724Z</time>
</trkpt>
<trkpt lat="-28.3145554" lon="151.9222084">
<ele>504.370</ele>
<time>2017-04-06T03:57:14.717Z</time>
</trkpt>
<trkpt lat="-28.3151474" lon="151.9219316">
<ele>504.781</ele>
<time>2017-04-06T03:57:17.695Z</time>
</trkpt>
<trkpt lat="-28.3155441" lon="151.9217370">
<ele>505.231</ele>
<time>2017-04-06T03:57:19.722Z</time>
</trkpt>
<trkpt lat="-28.3161012" lon="151.9214038">
<ele>505.634</ele>
<time>2017-04-06T03:57:22.704Z</time>
</trkpt>
<trkpt lat="-28.3164796" lon="151.9212037">
<ele>506.059</ele>
<time>2017-04-06T03:57:24.695Z</time>
</trkpt>
<trkpt lat="-28.3170423" lon="151.9208941">
<ele>506.689</ele>
<time>2017-04-06T03:57:27.673Z</time>
</trkpt>
<trkpt lat="-28.3174174" lon="151.9206929">
<ele>507.684</ele>
<time>2017-04-06T03:57:29.654Z</time>
</trkpt>
<trkpt lat="-28.3177930" lon="151.9205130">
<ele>509.069</ele>
<time>2017-04-06T03:57:31.626Z</time>
</trkpt>
<trkpt lat="-28.3183362" lon="151.9201869">
<ele>510.557</ele>
<time>2017-04-06T03:57:34.619Z</time>
</trkpt>
<trkpt lat="-28.3188952" lon="151.9198907">
<ele>511.881</ele>
<time>2017-04-06T03:57:37.624Z</time>
</trkpt>
<trkpt lat="-28.3192700" lon="151.9197049">
<ele>513.159</ele>
<time>2017-04-06T03:57:39.618Z</time>
</trkpt>
<trkpt lat="-28.3198691" lon="151.9195448">
<ele>514.490</ele>
<time>2017-04-06T03:57:42.616Z</time>
</trkpt>
<trkpt lat="-28.3202890" lon="151.9195105">
<ele>515.740</ele>
<time>2017-04-06T03:57:44.656Z</time>
</trkpt>
<trkpt lat="-28.3207067" lon="151.9194659">
<ele>516.774</ele>
<time>2017-04-06T03:57:46.671Z</time>
</trkpt>
<trkpt lat="-28.3213349" lon="151.9193119">
<ele>517.673</ele>
<time>2017-04-06T03:57:49.734Z</time>
</trkpt>
<trkpt lat="-28.3217462" lon="151.9192825">
<ele>518.734</ele>
<time>2017-04-06T03:57:51.709Z</time>
</trkpt>
<trkpt lat="-28.3223613" lon="151.9191799">
<ele>520.053</ele>
<time>2017-04-06T03:57:54.709Z</time>
</trkpt>
<trkpt lat="-28.3227772" lon="151.9191636">
<ele>521.383</ele>
<time>2017-04-06T03:57:56.715Z</time>
</trkpt>
<trkpt lat="-28.3234201" lon="151.9191487">
<ele>522.535</ele>
<time>2017-04-06T03:57:59.796Z</time>
</trkpt>
<trkpt lat="-28.3240648" lon="151.9191675">
<ele>523.590</ele>
<time>2017-04-06T03:58:02.838Z</time>
</trkpt>
<trkpt lat="-28.3247034" lon="151.9192372">
<ele>524.725</ele>
<time>2017-04-06T03:58:05.811Z</time>
</trkpt>
<trkpt lat="-28.3253514" lon="151.9192762">
<ele>526.022</ele>
<time>2017-04-06T03:58:08.805Z</time>
</trkpt>
<trkpt lat="-28.3257868" lon="151.9193257">
<ele>527.409</ele>
<time>2017-04-06T03:58:10.821Z</time>
</trkpt>
<trkpt lat="-28.3264387" lon="151.9194261">
<ele>528.749</ele>
<time>2017-04-06T03:58:13.829Z</time>
</trkpt>
<trkpt lat="-28.3268801" lon="151.9194616">
<ele>530.006</ele>
<time>2017-04-06T03:58:15.835Z</time>
</trkpt>
<trkpt lat="-28.3273152" lon="151.9195415">
<ele>531.284</ele>
<time>2017-04-06T03:58:17.825Z</time>
</trkpt>
<trkpt lat="-28.3279716" lon="151.9196637">
<ele>532.649</ele>
<time>2017-04-06T03:58:20.828Z</time>
</trkpt>
<trkpt lat="-28.3284123" lon="151.9197490">
<ele>534.240</ele>
<time>2017-04-06T03:58:22.853Z</time>
</trkpt>
<trkpt lat="-28.3290399" lon="151.9199781">
<ele>536.192</ele>
<time>2017-04-06T03:58:25.845Z</time>
</trkpt>
<trkpt lat="-28.3296733" lon="151.9201731">
<ele>538.433</ele>
<time>2017-04-06T03:58:28.832Z</time>
</trkpt>
<trkpt lat="-28.3303158" lon="151.9203324">
<ele>540.837</ele>
<time>2017-04-06T03:58:31.823Z</time>
</trkpt>
<trkpt lat="-28.3307443" lon="151.9204233">
<ele>543.420</ele>
<time>2017-04-06T03:58:33.813Z</time>
</trkpt>
<trkpt lat="-28.3311583" lon="151.9205620">
<ele>546.090</ele>
<time>2017-04-06T03:58:35.811Z</time>
</trkpt>
<trkpt lat="-28.3315713" lon="151.9206967">
<ele>548.502</ele>
<time>2017-04-06T03:58:37.813Z</time>
</trkpt>
<trkpt lat="-28.3322620" lon="151.9208356">
<ele>550.325</ele>
<time>2017-04-06T03:58:41.058Z</time>
</trkpt>
<trkpt lat="-28.3328778" lon="151.9210011">
<ele>551.677</ele>
<time>2017-04-06T03:58:43.922Z</time>
</trkpt>
<trkpt lat="-28.3335409" lon="151.9211964">
<ele>552.937</ele>
<time>2017-04-06T03:58:46.907Z</time>
</trkpt>
<trkpt lat="-28.3340102" lon="151.9213240">
<ele>554.362</ele>
<time>2017-04-06T03:58:48.906Z</time>
</trkpt>
<trkpt lat="-28.3344985" lon="151.9214596">
<ele>555.856</ele>
<time>2017-04-06T03:58:50.920Z</time>
</trkpt>
<trkpt lat="-28.3352284" lon="151.9216790">
<ele>557.138</ele>
<time>2017-04-06T03:58:53.920Z</time>
</trkpt>
<trkpt lat="-28.3359439" lon="151.9218774">
<ele>557.984</ele>
<time>2017-04-06T03:58:56.881Z</time>
</trkpt>
<trkpt lat="-28.3366600" lon="151.9220597">
<ele>558.259</ele>
<time>2017-04-06T03:58:59.859Z</time>
</trkpt>
<trkpt lat="-28.3371303" lon="151.9222003">
<ele>557.896</ele>
<time>2017-04-06T03:59:01.841Z</time>
</trkpt>
<trkpt lat="-28.3378303" lon="151.9224083">
<ele>557.131</ele>
<time>2017-04-06T03:59:04.806Z</time>
</trkpt>
<trkpt lat="-28.3385294" lon="151.9225959">
<ele>556.450</ele>
<time>2017-04-06T03:59:07.783Z</time>
</trkpt>
<trkpt lat="-28.3392248" lon="151.9228143">
<ele>556.340</ele>
<time>2017-04-06T03:59:10.790Z</time>
</trkpt>
<trkpt lat="-28.3396938" lon="151.9229128">
<ele>557.205</ele>
<time>2017-04-06T03:59:12.749Z</time>
</trkpt>
<trkpt lat="-28.3401984" lon="151.9230265">
<ele>559.035</ele>
<time>2017-04-06T03:59:14.780Z</time>
</trkpt>
<trkpt lat="-28.3407248" lon="151.9231684">
<ele>561.414</ele>
<time>2017-04-06T03:59:16.796Z</time>
</trkpt>
<trkpt lat="-28.3415759" lon="151.9234040">
<ele>564.332</ele>
<time>2017-04-06T03:59:19.868Z</time>
</trkpt>
<trkpt lat="-28.3421846" lon="151.9235858">
<ele>568.253</ele>
<time>2017-04-06T03:59:21.947Z</time>
</trkpt>
<trkpt lat="-28.3430464" lon="151.9238272">
<ele>572.888</ele>
<time>2017-04-06T03:59:24.905Z</time>
</trkpt>
<trkpt lat="-28.3435683" lon="151.9239305">
<ele>577.204</ele>
<time>2017-04-06T03:59:26.809Z</time>
</trkpt>
<trkpt lat="-28.3440627" lon="151.9240885">
<ele>580.443</ele>
<time>2017-04-06T03:59:28.760Z</time>
</trkpt>
<trkpt lat="-28.3448036" lon="151.9242828">
<ele>582.374</ele>
<time>2017-04-06T03:59:31.715Z</time>
</trkpt>
<trkpt lat="-28.3453029" lon="151.9244261">
<ele>583.369</ele>
<time>2017-04-06T03:59:33.726Z</time>
</trkpt>
<trkpt lat="-28.3460594" lon="151.9246245">
<ele>584.355</ele>
<time>2017-04-06T03:59:36.739Z</time>
</trkpt>
<trkpt lat="-28.3468154" lon="151.9248264">
<ele>585.901</ele>
<time>2017-04-06T03:59:39.740Z</time>
</trkpt>
<trkpt lat="-28.3473291" lon="151.9249390">
<ele>587.808</ele>
<time>2017-04-06T03:59:41.760Z</time>
</trkpt>
<trkpt lat="-28.3478400" lon="151.9250534">
<ele>589.527</ele>
<time>2017-04-06T03:59:43.770Z</time>
</trkpt>
<trkpt lat="-28.3483387" lon="151.9252090">
<ele>590.821</ele>
<time>2017-04-06T03:59:45.768Z</time>
</trkpt>
<trkpt lat="-28.3488307" lon="151.9253777">
<ele>591.836</ele>
<time>2017-04-06T03:59:47.754Z</time>
</trkpt>
<trkpt lat="-28.3495846" lon="151.9255794">
<ele>592.776</ele>
<time>2017-04-06T03:59:50.742Z</time>
</trkpt>
<trkpt lat="-28.3500973" lon="151.9257035">
<ele>593.928</ele>
<time>2017-04-06T03:59:52.760Z</time>
</trkpt>
<trkpt lat="-28.3508635" lon="151.9258419">
<ele>595.499</ele>
<time>2017-04-06T03:59:55.749Z</time>
</trkpt>
<trkpt lat="-28.3513804" lon="151.9259156">
<ele>597.443</ele>
<time>2017-04-06T03:59:57.758Z</time>
</trkpt>
<trkpt lat="-28.3518983" lon="151.9259658">
<ele>599.570</ele>
<time>2017-04-06T03:59:59.757Z</time>
</trkpt>
<trkpt lat="-28.3526757" lon="151.9260644">
<ele>601.599</ele>
<time>2017-04-06T04:00:02.763Z</time>
</trkpt>
<trkpt lat="-28.3534543" lon="151.9261300">
<ele>603.427</ele>
<time>2017-04-06T04:00:05.763Z</time>
</trkpt>
<trkpt lat="-28.3542669" lon="151.9261616">
<ele>605.264</ele>
<time>2017-04-06T04:00:08.881Z</time>
</trkpt>
<trkpt lat="-28.3547954" lon="151.9261903">
<ele>607.257</ele>
<time>2017-04-06T04:00:10.912Z</time>
</trkpt>
<trkpt lat="-28.3553252" lon="151.9262212">
<ele>609.382</ele>
<time>2017-04-06T04:00:12.954Z</time>
</trkpt>
<trkpt lat="-28.3560877" lon="151.9262209">
<ele>611.530</ele>
<time>2017-04-06T04:00:15.896Z</time>
</trkpt>
<trkpt lat="-28.3566020" lon="151.9261945">
<ele>613.592</ele>
<time>2017-04-06T04:00:17.884Z</time>
</trkpt>
<trkpt lat="-28.3573807" lon="151.9261367">
<ele>615.496</ele>
<time>2017-04-06T04:00:20.892Z</time>
</trkpt>
<trkpt lat="-28.3581568" lon="151.9260809">
<ele>617.237</ele>
<time>2017-04-06T04:00:23.883Z</time>
</trkpt>
<trkpt lat="-28.3586710" lon="151.9260163">
<ele>618.882</ele>
<time>2017-04-06T04:00:25.874Z</time>
</trkpt>
<trkpt lat="-28.3594494" lon="151.9259586">
<ele>620.376</ele>
<time>2017-04-06T04:00:28.874Z</time>
</trkpt>
<trkpt lat="-28.3602456" lon="151.9259163">
<ele>621.652</ele>
<time>2017-04-06T04:00:31.922Z</time>
</trkpt>
<trkpt lat="-28.3610253" lon="151.9258141">
<ele>623.052</ele>
<time>2017-04-06T04:00:34.921Z</time>
</trkpt>
<trkpt lat="-28.3615471" lon="151.9257797">
<ele>624.915</ele>
<time>2017-04-06T04:00:36.920Z</time>
</trkpt>
<trkpt lat="-28.3623357" lon="151.9256933">
<ele>626.818</ele>
<time>2017-04-06T04:00:39.947Z</time>
</trkpt>
<trkpt lat="-28.3631132" lon="151.9256374">
<ele>628.029</ele>
<time>2017-04-06T04:00:42.926Z</time>
</trkpt>
<trkpt lat="-28.3636325" lon="151.9256048">
<ele>628.404</ele>
<time>2017-04-06T04:00:44.921Z</time>
</trkpt>
<trkpt lat="-28.3644095" lon="151.9255549">
<ele>628.308</ele>
<time>2017-04-06T04:00:47.914Z</time>
</trkpt>
<trkpt lat="-28.3649277" lon="151.9254943">
<ele>628.041</ele>
<time>2017-04-06T04:00:49.920Z</time>
</trkpt>
<trkpt lat="-28.3654483" lon="151.9254128">
<ele>627.657</ele>
<time>2017-04-06T04:00:51.942Z</time>
</trkpt>
<trkpt lat="-28.3662205" lon="151.9254275">
<ele>627.223</ele>
<time>2017-04-06T04:00:54.918Z</time>
</trkpt>
<trkpt lat="-28.3667366" lon="151.9254142">
<ele>627.003</ele>
<time>2017-04-06T04:00:56.911Z</time>
</trkpt>
<trkpt lat="-28.3675055" lon="151.9253414">
<ele>627.292</ele>
<time>2017-04-06T04:00:59.890Z</time>
</trkpt>
<trkpt lat="-28.3680232" lon="151.9253222">
<ele>628.300</ele>
<time>2017-04-06T04:01:01.892Z</time>
</trkpt>
<trkpt lat="-28.3687881" lon="151.9252474">
<ele>629.961</ele>
<time>2017-04-06T04:01:04.865Z</time>
</trkpt>
<trkpt lat="-28.3695497" lon="151.9250884">
<ele>632.053</ele>
<time>2017-04-06T04:01:07.868Z</time>
</trkpt>
<trkpt lat="-28.3700525" lon="151.9249746">
<ele>634.549</ele>
<time>2017-04-06T04:01:09.857Z</time>
</trkpt>
<trkpt lat="-28.3705466" lon="151.9248127">
<ele>637.295</ele>
<time>2017-04-06T04:01:11.849Z</time>
</trkpt>
<trkpt lat="-28.3712805" lon="151.9245139">
<ele>639.868</ele>
<time>2017-04-06T04:01:14.862Z</time>
</trkpt>
<trkpt lat="-28.3717567" lon="151.9242888">
<ele>642.417</ele>
<time>2017-04-06T04:01:16.852Z</time>
</trkpt>
<trkpt lat="-28.3724528" lon="151.9238951">
<ele>645.289</ele>
<time>2017-04-06T04:01:19.846Z</time>
</trkpt>
<trkpt lat="-28.3731324" lon="151.9234756">
<ele>648.167</ele>
<time>2017-04-06T04:01:22.819Z</time>
</trkpt>
<trkpt lat="-28.3737724" lon="151.9229680">
<ele>650.563</ele>
<time>2017-04-06T04:01:25.818Z</time>
</trkpt>
<trkpt lat="-28.3743957" lon="151.9224253">
<ele>652.615</ele>
<time>2017-04-06T04:01:28.835Z</time>
</trkpt>
<trkpt lat="-28.3749480" lon="151.9217901">
<ele>654.875</ele>
<time>2017-04-06T04:01:31.849Z</time>
</trkpt>
<trkpt lat="-28.3753083" lon="151.9213688">
<ele>657.587</ele>
<time>2017-04-06T04:01:33.835Z</time>
</trkpt>
<trkpt lat="-28.3758184" lon="151.9207027">
<ele>660.322</ele>
<time>2017-04-06T04:01:36.824Z</time>
</trkpt>
<trkpt lat="-28.3761178" lon="151.9202223">
<ele>662.929</ele>
<time>2017-04-06T04:01:38.818Z</time>
</trkpt>
<trkpt lat="-28.3765908" lon="151.9195191">
<ele>665.648</ele>
<time>2017-04-06T04:01:41.812Z</time>
</trkpt>
<trkpt lat="-28.3771238" lon="151.9188640">
<ele>668.387</ele>
<time>2017-04-06T04:01:44.819Z</time>
</trkpt>
<trkpt lat="-28.3774625" lon="151.9184101">
<ele>670.895</ele>
<time>2017-04-06T04:01:46.824Z</time>
</trkpt>
<trkpt lat="-28.3779049" lon="151.9176868">
<ele>673.127</ele>
<time>2017-04-06T04:01:49.807Z</time>
</trkpt>
<trkpt lat="-28.3782338" lon="151.9172204">
<ele>675.196</ele>
<time>2017-04-06T04:01:51.832Z</time>
</trkpt>
<trkpt lat="-28.3785485" lon="151.9167568">
<ele>677.287</ele>
<time>2017-04-06T04:01:53.816Z</time>
</trkpt>
<trkpt lat="-28.3789166" lon="151.9163414">
<ele>679.345</ele>
<time>2017-04-06T04:01:55.820Z</time>
</trkpt>
<trkpt lat="-28.3793851" lon="151.9156350">
<ele>681.226</ele>
<time>2017-04-06T04:01:58.824Z</time>
</trkpt>
<trkpt lat="-28.3797230" lon="151.9151893">
<ele>683.054</ele>
<time>2017-04-06T04:02:00.820Z</time>
</trkpt>
<trkpt lat="-28.3802243" lon="151.9145214">
<ele>684.999</ele>
<time>2017-04-06T04:02:03.800Z</time>
</trkpt>
<trkpt lat="-28.3806110" lon="151.9141150">
<ele>687.277</ele>
<time>2017-04-06T04:02:05.827Z</time>
</trkpt>
<trkpt lat="-28.3811391" lon="151.9134835">
<ele>690.007</ele>
<time>2017-04-06T04:02:08.777Z</time>
</trkpt>
<trkpt lat="-28.3815623" lon="151.9131366">
<ele>692.976</ele>
<time>2017-04-06T04:02:10.789Z</time>
</trkpt>
<trkpt lat="-28.3819803" lon="151.9127914">
<ele>695.807</ele>
<time>2017-04-06T04:02:12.782Z</time>
</trkpt>
<trkpt lat="-28.3826031" lon="151.9122550">
<ele>698.409</ele>
<time>2017-04-06T04:02:15.790Z</time>
</trkpt>
<trkpt lat="-28.3830362" lon="151.9119442">
<ele>701.048</ele>
<time>2017-04-06T04:02:17.766Z</time>
</trkpt>
<trkpt lat="-28.3834809" lon="151.9116445">
<ele>703.847</ele>
<time>2017-04-06T04:02:19.764Z</time>
</trkpt>
<trkpt lat="-28.3841603" lon="151.9111957">
<ele>706.520</ele>
<time>2017-04-06T04:02:22.790Z</time>
</trkpt>
<trkpt lat="-28.3846155" lon="151.9108998">
<ele>708.993</ele>
<time>2017-04-06T04:02:24.802Z</time>
</trkpt>
<trkpt lat="-28.3853455" lon="151.9105882">
<ele>711.390</ele>
<time>2017-04-06T04:02:27.797Z</time>
</trkpt>
<trkpt lat="-28.3860780" lon="151.9103029">
<ele>714.486</ele>
<time>2017-04-06T04:02:30.768Z</time>
</trkpt>
<trkpt lat="-28.3865750" lon="151.9101265">
<ele>720.178</ele>
<time>2017-04-06T04:02:32.767Z</time>
</trkpt>
<trkpt lat="-28.3870780" lon="151.9099997">
<ele>728.712</ele>
<time>2017-04-06T04:02:34.754Z</time>
</trkpt>
<trkpt lat="-28.3878435" lon="151.9098704">
<ele>737.485</ele>
<time>2017-04-06T04:02:37.746Z</time>
</trkpt>
<trkpt lat="-28.3883500" lon="151.9097553">
<ele>744.585</ele>
<time>2017-04-06T04:02:39.740Z</time>
</trkpt>
<trkpt lat="-28.3888661" lon="151.9096678">
<ele>750.063</ele>
<time>2017-04-06T04:02:41.755Z</time>
</trkpt>
<trkpt lat="-28.3893819" lon="151.9096050">
<ele>754.317</ele>
<time>2017-04-06T04:02:43.755Z</time>
</trkpt>
<trkpt lat="-28.3901593" lon="151.9095376">
<ele>757.851</ele>
<time>2017-04-06T04:02:46.761Z</time>
</trkpt>
<trkpt lat="-28.3906690" lon="151.9094563">
<ele>760.910</ele>
<time>2017-04-06T04:02:48.767Z</time>
</trkpt>
<trkpt lat="-28.3914244" lon="151.9093706">
<ele>763.304</ele>
<time>2017-04-06T04:02:51.748Z</time>
</trkpt>
<trkpt lat="-28.3919358" lon="151.9093147">
<ele>764.896</ele>
<time>2017-04-06T04:02:53.767Z</time>
</trkpt>
<trkpt lat="-28.3924499" lon="151.9092873">
<ele>765.811</ele>
<time>2017-04-06T04:02:55.783Z</time>
</trkpt>
<trkpt lat="-28.3932520" lon="151.9092451">
<ele>766.312</ele>
<time>2017-04-06T04:02:58.914Z</time>
</trkpt>
<trkpt lat="-28.3937688" lon="151.9091856">
<ele>766.567</ele>
<time>2017-04-06T04:03:00.933Z</time>
</trkpt>
<trkpt lat="-28.3942882" lon="151.9091199">
<ele>766.433</ele>
<time>2017-04-06T04:03:02.966Z</time>
</trkpt>
<trkpt lat="-28.3950316" lon="151.9090373">
<ele>765.766</ele>
<time>2017-04-06T04:03:05.867Z</time>
</trkpt>
<trkpt lat="-28.3958040" lon="151.9089953">
<ele>764.528</ele>
<time>2017-04-06T04:03:08.873Z</time>
</trkpt>
<trkpt lat="-28.3963041" lon="151.9089470">
<ele>762.666</ele>
<time>2017-04-06T04:03:10.834Z</time>
</trkpt>
<trkpt lat="-28.3968092" lon="151.9089058">
<ele>760.297</ele>
<time>2017-04-06T04:03:12.817Z</time>
</trkpt>
<trkpt lat="-28.3975721" lon="151.9088178">
<ele>757.983</ele>
<time>2017-04-06T04:03:15.813Z</time>
</trkpt>
<trkpt lat="-28.3980784" lon="151.9087520">
<ele>755.934</ele>
<time>2017-04-06T04:03:17.800Z</time>
</trkpt>
<trkpt lat="-28.3985780" lon="151.9086855">
<ele>753.897</ele>
<time>2017-04-06T04:03:19.768Z</time>
</trkpt>
<trkpt lat="-28.3990873" lon="151.9086911">
<ele>751.832</ele>
<time>2017-04-06T04:03:21.769Z</time>
</trkpt>
<trkpt lat="-28.3998498" lon="151.9086825">
<ele>749.791</ele>
<time>2017-04-06T04:03:24.768Z</time>
</trkpt>
<trkpt lat="-28.4006119" lon="151.9087876">
<ele>747.447</ele>
<time>2017-04-06T04:03:27.776Z</time>
</trkpt>
<trkpt lat="-28.4013566" lon="151.9089967">
<ele>744.614</ele>
<time>2017-04-06T04:03:30.773Z</time>
</trkpt>
<trkpt lat="-28.4020607" lon="151.9093267">
<ele>741.792</ele>
<time>2017-04-06T04:03:33.759Z</time>
</trkpt>
<trkpt lat="-28.4025193" lon="151.9095759">
<ele>739.789</ele>
<time>2017-04-06T04:03:35.766Z</time>
</trkpt>
<trkpt lat="-28.4031693" lon="151.9100277">
<ele>738.862</ele>
<time>2017-04-06T04:03:38.780Z</time>
</trkpt>
<trkpt lat="-28.4035835" lon="151.9103582">
<ele>738.952</ele>
<time>2017-04-06T04:03:40.776Z</time>
</trkpt>
<trkpt lat="-28.4039704" lon="151.9107414">
<ele>739.978</ele>
<time>2017-04-06T04:03:42.796Z</time>
</trkpt>
<trkpt lat="-28.4045202" lon="151.9113393">
<ele>741.758</ele>
<time>2017-04-06T04:03:45.791Z</time>
</trkpt>
<trkpt lat="-28.4049750" lon="151.9120222">
<ele>744.187</ele>
<time>2017-04-06T04:03:48.765Z</time>
</trkpt>
<trkpt lat="-28.4052359" lon="151.9125001">
<ele>747.224</ele>
<time>2017-04-06T04:03:50.724Z</time>
</trkpt>
<trkpt lat="-28.4056174" lon="151.9132556">
<ele>750.546</ele>
<time>2017-04-06T04:03:53.753Z</time>
</trkpt>
<trkpt lat="-28.4059325" lon="151.9140361">
<ele>753.853</ele>
<time>2017-04-06T04:03:56.719Z</time>
</trkpt>
<trkpt lat="-28.4061618" lon="151.9145835">
<ele>757.140</ele>
<time>2017-04-06T04:03:58.806Z</time>
</trkpt>
<trkpt lat="-28.4065199" lon="151.9153578">
<ele>760.253</ele>
<time>2017-04-06T04:04:01.809Z</time>
</trkpt>
<trkpt lat="-28.4068574" lon="151.9161579">
<ele>762.944</ele>
<time>2017-04-06T04:04:04.837Z</time>
</trkpt>
<trkpt lat="-28.4071898" lon="151.9169618">
<ele>765.263</ele>
<time>2017-04-06T04:04:07.858Z</time>
</trkpt>
<trkpt lat="-28.4073854" lon="151.9174952">
<ele>767.215</ele>
<time>2017-04-06T04:04:09.830Z</time>
</trkpt>
<trkpt lat="-28.4076335" lon="151.9180158">
<ele>768.508</ele>
<time>2017-04-06T04:04:11.856Z</time>
</trkpt>
<trkpt lat="-28.4079930" lon="151.9188002">
<ele>769.027</ele>
<time>2017-04-06T04:04:14.886Z</time>
</trkpt>
<trkpt lat="-28.4082031" lon="151.9193299">
<ele>768.885</ele>
<time>2017-04-06T04:04:16.883Z</time>
</trkpt>
<trkpt lat="-28.4084406" lon="151.9201587">
<ele>768.342</ele>
<time>2017-04-06T04:04:19.886Z</time>
</trkpt>
<trkpt lat="-28.4086187" lon="151.9209986">
<ele>767.770</ele>
<time>2017-04-06T04:04:22.867Z</time>
</trkpt>
<trkpt lat="-28.4087150" lon="151.9215613">
<ele>767.394</ele>
<time>2017-04-06T04:04:24.849Z</time>
</trkpt>
<trkpt lat="-28.4089043" lon="151.9224033">
<ele>767.346</ele>
<time>2017-04-06T04:04:27.851Z</time>
</trkpt>
<trkpt lat="-28.4090244" lon="151.9229735">
<ele>767.929</ele>
<time>2017-04-06T04:04:29.870Z</time>
</trkpt>
<trkpt lat="-28.4092065" lon="151.9235143">
<ele>769.228</ele>
<time>2017-04-06T04:04:31.861Z</time>
</trkpt>
<trkpt lat="-28.4095488" lon="151.9242865">
<ele>771.049</ele>
<time>2017-04-06T04:04:34.834Z</time>
</trkpt>
<trkpt lat="-28.4099737" lon="151.9250096">
<ele>773.305</ele>
<time>2017-04-06T04:04:37.818Z</time>
</trkpt>
<trkpt lat="-28.4102897" lon="151.9254637">
<ele>775.787</ele>
<time>2017-04-06T04:04:39.801Z</time>
</trkpt>
<trkpt lat="-28.4106615" lon="151.9258657">
<ele>777.924</ele>
<time>2017-04-06T04:04:41.802Z</time>
</trkpt>
<trkpt lat="-28.4110246" lon="151.9262759">
<ele>779.333</ele>
<time>2017-04-06T04:04:43.799Z</time>
</trkpt>
<trkpt lat="-28.4115532" lon="151.9269136">
<ele>780.090</ele>
<time>2017-04-06T04:04:46.801Z</time>
</trkpt>
<trkpt lat="-28.4119287" lon="151.9273176">
<ele>780.450</ele>
<time>2017-04-06T04:04:48.809Z</time>
</trkpt>
<trkpt lat="-28.4124507" lon="151.9279566">
<ele>780.602</ele>
<time>2017-04-06T04:04:51.786Z</time>
</trkpt>
<trkpt lat="-28.4127774" lon="151.9284054">
<ele>780.496</ele>
<time>2017-04-06T04:04:53.779Z</time>
</trkpt>
<trkpt lat="-28.4133031" lon="151.9290337">
<ele>779.862</ele>
<time>2017-04-06T04:04:56.752Z</time>
</trkpt>
<trkpt lat="-28.4136724" lon="151.9294287">
<ele>778.596</ele>
<time>2017-04-06T04:04:58.735Z</time>
</trkpt>
<trkpt lat="-28.4141779" lon="151.9300769">
<ele>777.166</ele>
<time>2017-04-06T04:05:01.722Z</time>
</trkpt>
<trkpt lat="-28.4145289" lon="151.9304974">
<ele>776.384</ele>
<time>2017-04-06T04:05:03.728Z</time>
</trkpt>
<trkpt lat="-28.4148759" lon="151.9309168">
<ele>776.634</ele>
<time>2017-04-06T04:05:05.723Z</time>
</trkpt>
<trkpt lat="-28.4152219" lon="151.9313456">
<ele>777.554</ele>
<time>2017-04-06T04:05:07.732Z</time>
</trkpt>
<trkpt lat="-28.4157384" lon="151.9319845">
<ele>778.720</ele>
<time>2017-04-06T04:05:10.721Z</time>
</trkpt>
<trkpt lat="-28.4161031" lon="151.9323924">
<ele>780.160</ele>
<time>2017-04-06T04:05:12.720Z</time>
</trkpt>
<trkpt lat="-28.4164650" lon="151.9327982">
<ele>781.845</ele>
<time>2017-04-06T04:05:14.703Z</time>
</trkpt>
<trkpt lat="-28.4169686" lon="151.9334567">
<ele>783.281</ele>
<time>2017-04-06T04:05:17.695Z</time>
</trkpt>
<trkpt lat="-28.4173219" lon="151.9338792">
<ele>784.064</ele>
<time>2017-04-06T04:05:19.694Z</time>
</trkpt>
<trkpt lat="-28.4178584" lon="151.9345015">
<ele>784.295</ele>
<time>2017-04-06T04:05:22.681Z</time>
</trkpt>
<trkpt lat="-28.4181738" lon="151.9349563">
<ele>784.286</ele>
<time>2017-04-06T04:05:24.665Z</time>
</trkpt>
<trkpt lat="-28.4185504" lon="151.9353518">
<ele>784.293</ele>
<time>2017-04-06T04:05:26.669Z</time>
</trkpt>
<trkpt lat="-28.4188845" lon="151.9357934">
<ele>784.465</ele>
<time>2017-04-06T04:05:28.673Z</time>
</trkpt>
<trkpt lat="-28.4194485" lon="151.9363983">
<ele>784.828</ele>
<time>2017-04-06T04:05:31.698Z</time>
</trkpt>
<trkpt lat="-28.4200364" lon="151.9369524">
<ele>785.351</ele>
<time>2017-04-06T04:05:34.673Z</time>
</trkpt>
<trkpt lat="-28.4204334" lon="151.9373242">
<ele>786.175</ele>
<time>2017-04-06T04:05:36.684Z</time>
</trkpt>
<trkpt lat="-28.4208469" lon="151.9376548">
<ele>787.394</ele>
<time>2017-04-06T04:05:38.666Z</time>
</trkpt>
<trkpt lat="-28.4214827" lon="151.9381384">
<ele>788.737</ele>
<time>2017-04-06T04:05:41.665Z</time>
</trkpt>
<trkpt lat="-28.4218977" lon="151.9384869">
<ele>789.906</ele>
<time>2017-04-06T04:05:43.680Z</time>
</trkpt>
<trkpt lat="-28.4223154" lon="151.9388214">
<ele>790.858</ele>
<time>2017-04-06T04:05:45.667Z</time>
</trkpt>
<trkpt lat="-28.4227360" lon="151.9391599">
<ele>791.571</ele>
<time>2017-04-06T04:05:47.664Z</time>
</trkpt>
<trkpt lat="-28.4231703" lon="151.9394700">
<ele>792.030</ele>
<time>2017-04-06T04:05:49.653Z</time>
</trkpt>
<trkpt lat="-28.4235955" lon="151.9397892">
<ele>792.306</ele>
<time>2017-04-06T04:05:51.630Z</time>
</trkpt>
<trkpt lat="-28.4240010" lon="151.9402055">
<ele>792.496</ele>
<time>2017-04-06T04:05:53.746Z</time>
</trkpt>
<trkpt lat="-28.4246226" lon="151.9407211">
<ele>792.624</ele>
<time>2017-04-06T04:05:56.727Z</time>
</trkpt>
<trkpt lat="-28.4252358" lon="151.9412208">
<ele>792.786</ele>
<time>2017-04-06T04:05:59.678Z</time>
</trkpt>
<trkpt lat="-28.4256371" lon="151.9415611">
<ele>793.381</ele>
<time>2017-04-06T04:06:01.650Z</time>
</trkpt>
<trkpt lat="-28.4260448" lon="151.9419052">
<ele>794.591</ele>
<time>2017-04-06T04:06:03.644Z</time>
</trkpt>
<trkpt lat="-28.4266895" lon="151.9423764">
<ele>795.910</ele>
<time>2017-04-06T04:06:06.643Z</time>
</trkpt>
<trkpt lat="-28.4272924" lon="151.9429204">
<ele>796.972</ele>
<time>2017-04-06T04:06:09.643Z</time>
</trkpt>
<trkpt lat="-28.4276949" lon="151.9432862">
<ele>797.844</ele>
<time>2017-04-06T04:06:11.645Z</time>
</trkpt>
<trkpt lat="-28.4281044" lon="151.9436218">
<ele>798.540</ele>
<time>2017-04-06T04:06:13.615Z</time>
</trkpt>
<trkpt lat="-28.4287152" lon="151.9441266">
<ele>799.153</ele>
<time>2017-04-06T04:06:16.573Z</time>
</trkpt>
<trkpt lat="-28.4291408" lon="151.9444623">
<ele>799.893</ele>
<time>2017-04-06T04:06:18.597Z</time>
</trkpt>
<trkpt lat="-28.4295555" lon="151.9448022">
<ele>800.656</ele>
<time>2017-04-06T04:06:20.591Z</time>
</trkpt>
<trkpt lat="-28.4301771" lon="151.9453098">
<ele>801.119</ele>
<time>2017-04-06T04:06:23.580Z</time>
</trkpt>
<trkpt lat="-28.4306227" lon="151.9455979">
<ele>801.171</ele>
<time>2017-04-06T04:06:25.586Z</time>
</trkpt>
<trkpt lat="-28.4312824" lon="151.9460374">
<ele>801.183</ele>
<time>2017-04-06T04:06:28.578Z</time>
</trkpt>
<trkpt lat="-28.4317501" lon="151.9462872">
<ele>801.543</ele>
<time>2017-04-06T04:06:30.597Z</time>
</trkpt>
<trkpt lat="-28.4322396" lon="151.9464451">
<ele>802.290</ele>
<time>2017-04-06T04:06:32.587Z</time>
</trkpt>
<trkpt lat="-28.4329750" lon="151.9467042">
<ele>803.351</ele>
<time>2017-04-06T04:06:35.611Z</time>
</trkpt>
<trkpt lat="-28.4337104" lon="151.9468306">
<ele>804.882</ele>
<time>2017-04-06T04:06:38.589Z</time>
</trkpt>
<trkpt lat="-28.4341541" lon="151.9469122">
<ele>806.956</ele>
<time>2017-04-06T04:06:40.485Z</time>
</trkpt>
<trkpt lat="-28.4348094" lon="151.9470757">
<ele>809.059</ele>
<time>2017-04-06T04:06:43.415Z</time>
</trkpt>
<trkpt lat="-28.4354994" lon="151.9472653">
<ele>810.653</ele>
<time>2017-04-06T04:06:46.487Z</time>
</trkpt>
<trkpt lat="-28.4362005" lon="151.9473855">
<ele>811.901</ele>
<time>2017-04-06T04:06:49.494Z</time>
</trkpt>
<trkpt lat="-28.4366511" lon="151.9474802">
<ele>813.100</ele>
<time>2017-04-06T04:06:51.442Z</time>
</trkpt>
<trkpt lat="-28.4373425" lon="151.9476420">
<ele>814.159</ele>
<time>2017-04-06T04:06:54.443Z</time>
</trkpt>
<trkpt lat="-28.4378135" lon="151.9477376">
<ele>814.964</ele>
<time>2017-04-06T04:06:56.457Z</time>
</trkpt>
<trkpt lat="-28.4385303" lon="151.9478498">
<ele>815.599</ele>
<time>2017-04-06T04:06:59.475Z</time>
</trkpt>
<trkpt lat="-28.4390048" lon="151.9479377">
<ele>816.208</ele>
<time>2017-04-06T04:07:01.478Z</time>
</trkpt>
<trkpt lat="-28.4394978" lon="151.9480705">
<ele>816.790</ele>
<time>2017-04-06T04:07:03.584Z</time>
</trkpt>
<trkpt lat="-28.4401959" lon="151.9482458">
<ele>817.244</ele>
<time>2017-04-06T04:07:06.540Z</time>
</trkpt>
<trkpt lat="-28.4406659" lon="151.9483645">
<ele>817.542</ele>
<time>2017-04-06T04:07:08.540Z</time>
</trkpt>
<trkpt lat="-28.4411219" lon="151.9484604">
<ele>817.767</ele>
<time>2017-04-06T04:07:10.497Z</time>
</trkpt>
<trkpt lat="-28.4418072" lon="151.9485939">
<ele>818.009</ele>
<time>2017-04-06T04:07:13.471Z</time>
</trkpt>
<trkpt lat="-28.4422698" lon="151.9486918">
<ele>818.453</ele>
<time>2017-04-06T04:07:15.485Z</time>
</trkpt>
<trkpt lat="-28.4429666" lon="151.9488325">
<ele>819.273</ele>
<time>2017-04-06T04:07:18.493Z</time>
</trkpt>
<trkpt lat="-28.4434379" lon="151.9489308">
<ele>820.469</ele>
<time>2017-04-06T04:07:20.518Z</time>
</trkpt>
<trkpt lat="-28.4439038" lon="151.9490304">
<ele>821.830</ele>
<time>2017-04-06T04:07:22.521Z</time>
</trkpt>
<trkpt lat="-28.4445933" lon="151.9491825">
<ele>822.942</ele>
<time>2017-04-06T04:07:25.492Z</time>
</trkpt>
<trkpt lat="-28.4453023" lon="151.9493436">
<ele>823.447</ele>
<time>2017-04-06T04:07:28.536Z</time>
</trkpt>
<trkpt lat="-28.4457833" lon="151.9494761">
<ele>823.376</ele>
<time>2017-04-06T04:07:30.602Z</time>
</trkpt>
<trkpt lat="-28.4464661" lon="151.9497366">
<ele>822.928</ele>
<time>2017-04-06T04:07:33.599Z</time>
</trkpt>
<trkpt lat="-28.4470982" lon="151.9500925">
<ele>822.110</ele>
<time>2017-04-06T04:07:36.533Z</time>
</trkpt>
<trkpt lat="-28.4477026" lon="151.9505336">
<ele>820.787</ele>
<time>2017-04-06T04:07:39.512Z</time>
</trkpt>
<trkpt lat="-28.4481321" lon="151.9508206">
<ele>818.952</ele>
<time>2017-04-06T04:07:41.566Z</time>
</trkpt>
<trkpt lat="-28.4485234" lon="151.9511555">
<ele>816.918</ele>
<time>2017-04-06T04:07:43.588Z</time>
</trkpt>
<trkpt lat="-28.4488673" lon="151.9515135">
<ele>815.128</ele>
<time>2017-04-06T04:07:45.534Z</time>
</trkpt>
<trkpt lat="-28.4493686" lon="151.9520908">
<ele>813.778</ele>
<time>2017-04-06T04:07:48.525Z</time>
</trkpt>
<trkpt lat="-28.4498633" lon="151.9526798">
<ele>812.833</ele>
<time>2017-04-06T04:07:51.506Z</time>
</trkpt>
<trkpt lat="-28.4503739" lon="151.9532463">
<ele>812.287</ele>
<time>2017-04-06T04:07:54.495Z</time>
</trkpt>
<trkpt lat="-28.4506809" lon="151.9536488">
<ele>812.035</ele>
<time>2017-04-06T04:07:56.493Z</time>
</trkpt>
<trkpt lat="-28.4511391" lon="151.9542261">
<ele>811.791</ele>
<time>2017-04-06T04:07:59.455Z</time>
</trkpt>
<trkpt lat="-28.4514693" lon="151.9545728">
<ele>811.214</ele>
<time>2017-04-06T04:08:01.420Z</time>
</trkpt>
<trkpt lat="-28.4519606" lon="151.9551530">
<ele>810.225</ele>
<time>2017-04-06T04:08:04.407Z</time>
</trkpt>
<trkpt lat="-28.4526272" lon="151.9557128">
<ele>809.201</ele>
<time>2017-04-06T04:08:07.562Z</time>
</trkpt>
<trkpt lat="-28.4531326" lon="151.9561351">
<ele>808.727</ele>
<time>2017-04-06T04:08:09.656Z</time>
</trkpt>
<trkpt lat="-28.4539537" lon="151.9567557">
<ele>809.291</ele>
<time>2017-04-06T04:08:12.787Z</time>
</trkpt>
<trkpt lat="-28.4546655" lon="151.9572780">
<ele>810.666</ele>
<time>2017-04-06T04:08:15.625Z</time>
</trkpt>
<trkpt lat="-28.4552793" lon="151.9577737">
<ele>811.888</ele>
<time>2017-04-06T04:08:18.430Z</time>
</trkpt>
<trkpt lat="-28.4557034" lon="151.9580741">
<ele>812.099</ele>
<time>2017-04-06T04:08:20.409Z</time>
</trkpt>
<trkpt lat="-28.4561212" lon="151.9583961">
<ele>811.252</ele>
<time>2017-04-06T04:08:22.408Z</time>
</trkpt>
<trkpt lat="-28.4567599" lon="151.9588723">
<ele>810.074</ele>
<time>2017-04-06T04:08:25.412Z</time>
</trkpt>
<trkpt lat="-28.4571764" lon="151.9591917">
<ele>809.327</ele>
<time>2017-04-06T04:08:27.386Z</time>
</trkpt>
<trkpt lat="-28.4576031" lon="151.9595083">
<ele>809.133</ele>
<time>2017-04-06T04:08:29.383Z</time>
</trkpt>
<trkpt lat="-28.4582145" lon="151.9600506">
<ele>809.317</ele>
<time>2017-04-06T04:08:32.400Z</time>
</trkpt>
<trkpt lat="-28.4588802" lon="151.9605087">
<ele>809.839</ele>
<time>2017-04-06T04:08:35.416Z</time>
</trkpt>
<trkpt lat="-28.4595221" lon="151.9610070">
<ele>810.830</ele>
<time>2017-04-06T04:08:38.427Z</time>
</trkpt>
<trkpt lat="-28.4602364" lon="151.9613306">
<ele>812.409</ele>
<time>2017-04-06T04:08:41.402Z</time>
</trkpt>
<trkpt lat="-28.4609824" lon="151.9615852">
<ele>814.369</ele>
<time>2017-04-06T04:08:44.407Z</time>
</trkpt>
<trkpt lat="-28.4617396" lon="151.9618036">
<ele>816.234</ele>
<time>2017-04-06T04:08:47.410Z</time>
</trkpt>
<trkpt lat="-28.4625058" lon="151.9620096">
<ele>817.793</ele>
<time>2017-04-06T04:08:50.426Z</time>
</trkpt>
<trkpt lat="-28.4630055" lon="151.9621713">
<ele>819.126</ele>
<time>2017-04-06T04:08:52.414Z</time>
</trkpt>
<trkpt lat="-28.4635415" lon="151.9622647">
<ele>820.214</ele>
<time>2017-04-06T04:08:54.488Z</time>
</trkpt>
<trkpt lat="-28.4643196" lon="151.9624482">
<ele>821.010</ele>
<time>2017-04-06T04:08:57.525Z</time>
</trkpt>
<trkpt lat="-28.4648095" lon="151.9626157">
<ele>821.578</ele>
<time>2017-04-06T04:08:59.480Z</time>
</trkpt>
<trkpt lat="-28.4653068" lon="151.9627650">
<ele>822.010</ele>
<time>2017-04-06T04:09:01.448Z</time>
</trkpt>
<trkpt lat="-28.4658022" lon="151.9629202">
<ele>822.371</ele>
<time>2017-04-06T04:09:03.423Z</time>
</trkpt>
<trkpt lat="-28.4663165" lon="151.9630294">
<ele>822.715</ele>
<time>2017-04-06T04:09:05.438Z</time>
</trkpt>
<trkpt lat="-28.4668206" lon="151.9631870">
<ele>823.127</ele>
<time>2017-04-06T04:09:07.446Z</time>
</trkpt>
<trkpt lat="-28.4675796" lon="151.9633948">
<ele>823.650</ele>
<time>2017-04-06T04:09:10.454Z</time>
</trkpt>
<trkpt lat="-28.4683282" lon="151.9636027">
<ele>824.327</ele>
<time>2017-04-06T04:09:13.433Z</time>
</trkpt>
<trkpt lat="-28.4690721" lon="151.9638297">
<ele>825.284</ele>
<time>2017-04-06T04:09:16.419Z</time>
</trkpt>
<trkpt lat="-28.4695658" lon="151.9639542">
<ele>826.513</ele>
<time>2017-04-06T04:09:18.403Z</time>
</trkpt>
<trkpt lat="-28.4700487" lon="151.9641162">
<ele>827.729</ele>
<time>2017-04-06T04:09:20.397Z</time>
</trkpt>
<trkpt lat="-28.4705485" lon="151.9642214">
<ele>828.714</ele>
<time>2017-04-06T04:09:22.406Z</time>
</trkpt>
<trkpt lat="-28.4712816" lon="151.9644582">
<ele>829.577</ele>
<time>2017-04-06T04:09:25.408Z</time>
</trkpt>
<trkpt lat="-28.4717832" lon="151.9645555">
<ele>830.555</ele>
<time>2017-04-06T04:09:27.416Z</time>
</trkpt>
<trkpt lat="-28.4725234" lon="151.9647505">
<ele>831.763</ele>
<time>2017-04-06T04:09:30.419Z</time>
</trkpt>
<trkpt lat="-28.4732583" lon="151.9649935">
<ele>833.327</ele>
<time>2017-04-06T04:09:33.430Z</time>
</trkpt>
<trkpt lat="-28.4740087" lon="151.9651840">
<ele>835.553</ele>
<time>2017-04-06T04:09:36.438Z</time>
</trkpt>
<trkpt lat="-28.4745115" lon="151.9653072">
<ele>838.591</ele>
<time>2017-04-06T04:09:38.445Z</time>
</trkpt>
<trkpt lat="-28.4752694" lon="151.9655338">
<ele>841.965</ele>
<time>2017-04-06T04:09:41.501Z</time>
</trkpt>
<trkpt lat="-28.4760121" lon="151.9657399">
<ele>845.031</ele>
<time>2017-04-06T04:09:44.481Z</time>
</trkpt>
<trkpt lat="-28.4765015" lon="151.9659022">
<ele>847.577</ele>
<time>2017-04-06T04:09:46.466Z</time>
</trkpt>
<trkpt lat="-28.4769976" lon="151.9660429">
<ele>849.613</ele>
<time>2017-04-06T04:09:48.460Z</time>
</trkpt>
<trkpt lat="-28.4777440" lon="151.9662380">
<ele>851.155</ele>
<time>2017-04-06T04:09:51.451Z</time>
</trkpt>
<trkpt lat="-28.4782468" lon="151.9663554">
<ele>852.274</ele>
<time>2017-04-06T04:09:53.456Z</time>
</trkpt>
<trkpt lat="-28.4787449" lon="151.9665042">
<ele>852.960</ele>
<time>2017-04-06T04:09:55.460Z</time>
</trkpt>
<trkpt lat="-28.4792427" lon="151.9666382">
<ele>853.201</ele>
<time>2017-04-06T04:09:57.451Z</time>
</trkpt>
<trkpt lat="-28.4799833" lon="151.9668527">
<ele>853.148</ele>
<time>2017-04-06T04:10:00.444Z</time>
</trkpt>
<trkpt lat="-28.4804635" lon="151.9670423">
<ele>853.102</ele>
<time>2017-04-06T04:10:02.446Z</time>
</trkpt>
<trkpt lat="-28.4809502" lon="151.9672125">
<ele>853.358</ele>
<time>2017-04-06T04:10:04.450Z</time>
</trkpt>
<trkpt lat="-28.4816834" lon="151.9674730">
<ele>854.081</ele>
<time>2017-04-06T04:10:07.460Z</time>
</trkpt>
<trkpt lat="-28.4824317" lon="151.9676671">
<ele>855.433</ele>
<time>2017-04-06T04:10:10.456Z</time>
</trkpt>
<trkpt lat="-28.4829327" lon="151.9678037">
<ele>857.448</ele>
<time>2017-04-06T04:10:12.463Z</time>
</trkpt>
<trkpt lat="-28.4836910" lon="151.9679603">
<ele>859.686</ele>
<time>2017-04-06T04:10:15.461Z</time>
</trkpt>
<trkpt lat="-28.4841926" lon="151.9680718">
<ele>861.521</ele>
<time>2017-04-06T04:10:17.452Z</time>
</trkpt>
<trkpt lat="-28.4849549" lon="151.9682388">
<ele>862.639</ele>
<time>2017-04-06T04:10:20.476Z</time>
</trkpt>
<trkpt lat="-28.4857131" lon="151.9683570">
<ele>863.073</ele>
<time>2017-04-06T04:10:23.455Z</time>
</trkpt>
<trkpt lat="-28.4864845" lon="151.9684383">
<ele>862.885</ele>
<time>2017-04-06T04:10:26.470Z</time>
</trkpt>
<trkpt lat="-28.4872555" lon="151.9685391">
<ele>861.992</ele>
<time>2017-04-06T04:10:29.484Z</time>
</trkpt>
<trkpt lat="-28.4877630" lon="151.9686031">
<ele>860.409</ele>
<time>2017-04-06T04:10:31.474Z</time>
</trkpt>
<trkpt lat="-28.4882684" lon="151.9686635">
<ele>858.537</ele>
<time>2017-04-06T04:10:33.464Z</time>
</trkpt>
<trkpt lat="-28.4887744" lon="151.9687013">
<ele>856.928</ele>
<time>2017-04-06T04:10:35.452Z</time>
</trkpt>
<trkpt lat="-28.4895386" lon="151.9687291">
<ele>855.929</ele>
<time>2017-04-06T04:10:38.453Z</time>
</trkpt>
<trkpt lat="-28.4903078" lon="151.9687792">
<ele>855.565</ele>
<time>2017-04-06T04:10:41.475Z</time>
</trkpt>
<trkpt lat="-28.4908158" lon="151.9688050">
<ele>855.756</ele>
<time>2017-04-06T04:10:43.470Z</time>
</trkpt>
<trkpt lat="-28.4913316" lon="151.9688198">
<ele>856.474</ele>
<time>2017-04-06T04:10:45.500Z</time>
</trkpt>
<trkpt lat="-28.4918325" lon="151.9688745">
<ele>857.751</ele>
<time>2017-04-06T04:10:47.486Z</time>
</trkpt>
<trkpt lat="-28.4925894" lon="151.9688752">
<ele>859.581</ele>
<time>2017-04-06T04:10:50.474Z</time>
</trkpt>
<trkpt lat="-28.4930946" lon="151.9688166">
<ele>861.967</ele>
<time>2017-04-06T04:10:52.469Z</time>
</trkpt>
<trkpt lat="-28.4938504" lon="151.9686473">
<ele>864.698</ele>
<time>2017-04-06T04:10:55.478Z</time>
</trkpt>
<trkpt lat="-28.4943349" lon="151.9684626">
<ele>867.282</ele>
<time>2017-04-06T04:10:57.466Z</time>
</trkpt>
<trkpt lat="-28.4950518" lon="151.9681094">
<ele>869.217</ele>
<time>2017-04-06T04:11:00.495Z</time>
</trkpt>
<trkpt lat="-28.4957499" lon="151.9677376">
<ele>870.267</ele>
<time>2017-04-06T04:11:03.487Z</time>
</trkpt>
<trkpt lat="-28.4964259" lon="151.9673185">
<ele>870.455</ele>
<time>2017-04-06T04:11:06.495Z</time>
</trkpt>
<trkpt lat="-28.4971167" lon="151.9669287">
<ele>869.894</ele>
<time>2017-04-06T04:11:09.509Z</time>
</trkpt>
<trkpt lat="-28.4975829" lon="151.9666801">
<ele>868.681</ele>
<time>2017-04-06T04:11:11.514Z</time>
</trkpt>
<trkpt lat="-28.4982829" lon="151.9663053">
<ele>867.175</ele>
<time>2017-04-06T04:11:14.522Z</time>
</trkpt>
<trkpt lat="-28.4989644" lon="151.9659028">
<ele>865.742</ele>
<time>2017-04-06T04:11:17.519Z</time>
</trkpt>
<trkpt lat="-28.4996578" lon="151.9655378">
<ele>864.508</ele>
<time>2017-04-06T04:11:20.511Z</time>
</trkpt>
<trkpt lat="-28.5001254" lon="151.9652885">
<ele>863.620</ele>
<time>2017-04-06T04:11:22.529Z</time>
</trkpt>
<trkpt lat="-28.5008139" lon="151.9648971">
<ele>863.237</ele>
<time>2017-04-06T04:11:25.530Z</time>
</trkpt>
<trkpt lat="-28.5012845" lon="151.9646698">
<ele>863.246</ele>
<time>2017-04-06T04:11:27.527Z</time>
</trkpt>
<trkpt lat="-28.5019861" lon="151.9643292">
<ele>863.384</ele>
<time>2017-04-06T04:11:30.510Z</time>
</trkpt>
<trkpt lat="-28.5026620" lon="151.9639158">
<ele>863.614</ele>
<time>2017-04-06T04:11:33.510Z</time>
</trkpt>
<trkpt lat="-28.5031407" lon="151.9636814">
<ele>864.095</ele>
<time>2017-04-06T04:11:35.541Z</time>
</trkpt>
<trkpt lat="-28.5038437" lon="151.9633106">
<ele>864.757</ele>
<time>2017-04-06T04:11:38.548Z</time>
</trkpt>
<trkpt lat="-28.5043168" lon="151.9630196">
<ele>865.291</ele>
<time>2017-04-06T04:11:40.628Z</time>
</trkpt>
<trkpt lat="-28.5050273" lon="151.9626475">
<ele>865.539</ele>
<time>2017-04-06T04:11:43.647Z</time>
</trkpt>
<trkpt lat="-28.5054787" lon="151.9623836">
<ele>865.598</ele>
<time>2017-04-06T04:11:45.613Z</time>
</trkpt>
<trkpt lat="-28.5061722" lon="151.9620328">
<ele>865.659</ele>
<time>2017-04-06T04:11:48.575Z</time>
</trkpt>
<trkpt lat="-28.5066435" lon="151.9618245">
<ele>865.844</ele>
<time>2017-04-06T04:11:50.561Z</time>
</trkpt>
<trkpt lat="-28.5073175" lon="151.9614201">
<ele>866.135</ele>
<time>2017-04-06T04:11:53.560Z</time>
</trkpt>
<trkpt lat="-28.5080037" lon="151.9610596">
<ele>866.556</ele>
<time>2017-04-06T04:11:56.536Z</time>
</trkpt>
<trkpt lat="-28.5084643" lon="151.9608200">
<ele>867.302</ele>
<time>2017-04-06T04:11:58.527Z</time>
</trkpt>
<trkpt lat="-28.5091732" lon="151.9603970">
<ele>868.564</ele>
<time>2017-04-06T04:12:01.671Z</time>
</trkpt>
<trkpt lat="-28.5098435" lon="151.9600724">
<ele>870.347</ele>
<time>2017-04-06T04:12:04.536Z</time>
</trkpt>
<trkpt lat="-28.5102958" lon="151.9597998">
<ele>872.568</ele>
<time>2017-04-06T04:12:06.544Z</time>
</trkpt>
<trkpt lat="-28.5109999" lon="151.9594348">
<ele>874.941</ele>
<time>2017-04-06T04:12:09.566Z</time>
</trkpt>
<trkpt lat="-28.5114635" lon="151.9591936">
<ele>877.072</ele>
<time>2017-04-06T04:12:11.556Z</time>
</trkpt>
<trkpt lat="-28.5121653" lon="151.9588150">
<ele>878.780</ele>
<time>2017-04-06T04:12:14.578Z</time>
</trkpt>
<trkpt lat="-28.5126362" lon="151.9585476">
<ele>880.247</ele>
<time>2017-04-06T04:12:16.619Z</time>
</trkpt>
<trkpt lat="-28.5133166" lon="151.9581588">
<ele>881.654</ele>
<time>2017-04-06T04:12:19.577Z</time>
</trkpt>
<trkpt lat="-28.5137794" lon="151.9579332">
<ele>883.126</ele>
<time>2017-04-06T04:12:21.540Z</time>
</trkpt>
<trkpt lat="-28.5142303" lon="151.9576588">
<ele>884.688</ele>
<time>2017-04-06T04:12:23.533Z</time>
</trkpt>
<trkpt lat="-28.5149295" lon="151.9572927">
<ele>886.169</ele>
<time>2017-04-06T04:12:26.534Z</time>
</trkpt>
<trkpt lat="-28.5156282" lon="151.9569277">
<ele>887.713</ele>
<time>2017-04-06T04:12:29.532Z</time>
</trkpt>
<trkpt lat="-28.5163192" lon="151.9565552">
<ele>889.921</ele>
<time>2017-04-06T04:12:32.515Z</time>
</trkpt>
<trkpt lat="-28.5170184" lon="151.9561526">
<ele>892.595</ele>
<time>2017-04-06T04:12:35.564Z</time>
</trkpt>
<trkpt lat="-28.5174543" lon="151.9558968">
<ele>894.672</ele>
<time>2017-04-06T04:12:37.467Z</time>
</trkpt>
<trkpt lat="-28.5181638" lon="151.9555299">
<ele>895.602</ele>
<time>2017-04-06T04:12:40.496Z</time>
</trkpt>
<trkpt lat="-28.5186334" lon="151.9552703">
<ele>895.595</ele>
<time>2017-04-06T04:12:42.522Z</time>
</trkpt>
<trkpt lat="-28.5193245" lon="151.9549002">
<ele>895.010</ele>
<time>2017-04-06T04:12:45.485Z</time>
</trkpt>
<trkpt lat="-28.5200066" lon="151.9544669">
<ele>894.207</ele>
<time>2017-04-06T04:12:48.519Z</time>
</trkpt>
<trkpt lat="-28.5207093" lon="151.9541252">
<ele>893.490</ele>
<time>2017-04-06T04:12:51.499Z</time>
</trkpt>
<trkpt lat="-28.5211657" lon="151.9538365">
<ele>892.984</ele>
<time>2017-04-06T04:12:53.537Z</time>
</trkpt>
<trkpt lat="-28.5218814" lon="151.9534948">
<ele>892.652</ele>
<time>2017-04-06T04:12:56.550Z</time>
</trkpt>
<trkpt lat="-28.5223656" lon="151.9531734">
<ele>892.378</ele>
<time>2017-04-06T04:12:58.713Z</time>
</trkpt>
<trkpt lat="-28.5230476" lon="151.9527965">
<ele>892.094</ele>
<time>2017-04-06T04:13:01.644Z</time>
</trkpt>
<trkpt lat="-28.5235120" lon="151.9525746">
<ele>891.815</ele>
<time>2017-04-06T04:13:03.603Z</time>
</trkpt>
<trkpt lat="-28.5239714" lon="151.9523248">
<ele>891.541</ele>
<time>2017-04-06T04:13:05.586Z</time>
</trkpt>
<trkpt lat="-28.5246573" lon="151.9519599">
<ele>891.263</ele>
<time>2017-04-06T04:13:08.535Z</time>
</trkpt>
<trkpt lat="-28.5251191" lon="151.9517303">
<ele>890.882</ele>
<time>2017-04-06T04:13:10.499Z</time>
</trkpt>
<trkpt lat="-28.5258246" lon="151.9513702">
<ele>890.236</ele>
<time>2017-04-06T04:13:13.514Z</time>
</trkpt>
<trkpt lat="-28.5262775" lon="151.9511056">
<ele>889.314</ele>
<time>2017-04-06T04:13:15.502Z</time>
</trkpt>
<trkpt lat="-28.5269776" lon="151.9507437">
<ele>888.296</ele>
<time>2017-04-06T04:13:18.498Z</time>
</trkpt>
<trkpt lat="-28.5274537" lon="151.9505372">
<ele>887.337</ele>
<time>2017-04-06T04:13:20.484Z</time>
</trkpt>
<trkpt lat="-28.5279441" lon="151.9503620">
<ele>886.523</ele>
<time>2017-04-06T04:13:22.489Z</time>
</trkpt>
<trkpt lat="-28.5287014" lon="151.9501922">
<ele>885.926</ele>
<time>2017-04-06T04:13:25.498Z</time>
</trkpt>
<trkpt lat="-28.5294608" lon="151.9500819">
<ele>885.610</ele>
<time>2017-04-06T04:13:28.481Z</time>
</trkpt>
<trkpt lat="-28.5299734" lon="151.9500712">
<ele>885.529</ele>
<time>2017-04-06T04:13:30.479Z</time>
</trkpt>
<trkpt lat="-28.5304880" lon="151.9500744">
<ele>885.589</ele>
<time>2017-04-06T04:13:32.484Z</time>
</trkpt>
<trkpt lat="-28.5312474" lon="151.9501325">
<ele>885.709</ele>
<time>2017-04-06T04:13:35.452Z</time>
</trkpt>
<trkpt lat="-28.5317563" lon="151.9501575">
<ele>885.741</ele>
<time>2017-04-06T04:13:37.446Z</time>
</trkpt>
<trkpt lat="-28.5322663" lon="151.9501658">
<ele>885.610</ele>
<time>2017-04-06T04:13:39.442Z</time>
</trkpt>
<trkpt lat="-28.5330284" lon="151.9502000">
<ele>885.381</ele>
<time>2017-04-06T04:13:42.426Z</time>
</trkpt>
<trkpt lat="-28.5337924" lon="151.9502544">
<ele>885.110</ele>
<time>2017-04-06T04:13:45.422Z</time>
</trkpt>
<trkpt lat="-28.5343004" lon="151.9502459">
<ele>884.789</ele>
<time>2017-04-06T04:13:47.410Z</time>
</trkpt>
<trkpt lat="-28.5350679" lon="151.9502920">
<ele>884.445</ele>
<time>2017-04-06T04:13:50.415Z</time>
</trkpt>
<trkpt lat="-28.5358371" lon="151.9503504">
<ele>884.150</ele>
<time>2017-04-06T04:13:53.418Z</time>
</trkpt>
<trkpt lat="-28.5363485" lon="151.9503593">
<ele>883.868</ele>
<time>2017-04-06T04:13:55.408Z</time>
</trkpt>
<trkpt lat="-28.5368658" lon="151.9503586">
<ele>883.500</ele>
<time>2017-04-06T04:13:57.421Z</time>
</trkpt>
<trkpt lat="-28.5376275" lon="151.9504367">
<ele>883.107</ele>
<time>2017-04-06T04:14:00.397Z</time>
</trkpt>
<trkpt lat="-28.5381591" lon="151.9504390">
<ele>882.794</ele>
<time>2017-04-06T04:14:02.466Z</time>
</trkpt>
<trkpt lat="-28.5389234" lon="151.9504551">
<ele>882.554</ele>
<time>2017-04-06T04:14:05.443Z</time>
</trkpt>
<trkpt lat="-28.5394363" lon="151.9504472">
<ele>882.404</ele>
<time>2017-04-06T04:14:07.446Z</time>
</trkpt>
<trkpt lat="-28.5399441" lon="151.9504863">
<ele>882.398</ele>
<time>2017-04-06T04:14:09.437Z</time>
</trkpt>
<trkpt lat="-28.5404736" lon="151.9504834">
<ele>882.553</ele>
<time>2017-04-06T04:14:11.507Z</time>
</trkpt>
<trkpt lat="-28.5412527" lon="151.9504827">
<ele>882.803</ele>
<time>2017-04-06T04:14:14.550Z</time>
</trkpt>
<trkpt lat="-28.5417582" lon="151.9505046">
<ele>882.935</ele>
<time>2017-04-06T04:14:16.524Z</time>
</trkpt>
<trkpt lat="-28.5425240" lon="151.9505623">
<ele>882.813</ele>
<time>2017-04-06T04:14:19.520Z</time>
</trkpt>
<trkpt lat="-28.5432875" lon="151.9506225">
<ele>882.666</ele>
<time>2017-04-06T04:14:22.511Z</time>
</trkpt>
<trkpt lat="-28.5440450" lon="151.9506760">
<ele>882.744</ele>
<time>2017-04-06T04:14:25.481Z</time>
</trkpt>
<trkpt lat="-28.5448163" lon="151.9506843">
<ele>883.003</ele>
<time>2017-04-06T04:14:28.492Z</time>
</trkpt>
<trkpt lat="-28.5453283" lon="151.9507090">
<ele>883.272</ele>
<time>2017-04-06T04:14:30.492Z</time>
</trkpt>
<trkpt lat="-28.5458409" lon="151.9507139">
<ele>883.430</ele>
<time>2017-04-06T04:14:32.498Z</time>
</trkpt>
<trkpt lat="-28.5463501" lon="151.9506991">
<ele>883.456</ele>
<time>2017-04-06T04:14:34.496Z</time>
</trkpt>
<trkpt lat="-28.5468584" lon="151.9507376">
<ele>883.511</ele>
<time>2017-04-06T04:14:36.498Z</time>
</trkpt>
<trkpt lat="-28.5473661" lon="151.9507673">
<ele>883.747</ele>
<time>2017-04-06T04:14:38.491Z</time>
</trkpt>
<trkpt lat="-28.5481316" lon="151.9507721">
<ele>884.087</ele>
<time>2017-04-06T04:14:41.485Z</time>
</trkpt>
<trkpt lat="-28.5486383" lon="151.9508472">
<ele>884.398</ele>
<time>2017-04-06T04:14:43.477Z</time>
</trkpt>
<trkpt lat="-28.5494310" lon="151.9508567">
<ele>884.733</ele>
<time>2017-04-06T04:14:46.559Z</time>
</trkpt>
<trkpt lat="-28.5499422" lon="151.9508824">
<ele>885.265</ele>
<time>2017-04-06T04:14:48.544Z</time>
</trkpt>
<trkpt lat="-28.5504505" lon="151.9509107">
<ele>885.946</ele>
<time>2017-04-06T04:14:50.521Z</time>
</trkpt>
<trkpt lat="-28.5512116" lon="151.9509368">
<ele>886.556</ele>
<time>2017-04-06T04:14:53.507Z</time>
</trkpt>
<trkpt lat="-28.5519291" lon="151.9509601">
<ele>887.057</ele>
<time>2017-04-06T04:14:56.422Z</time>
</trkpt>
<trkpt lat="-28.5523664" lon="151.9509661">
<ele>887.468</ele>
<time>2017-04-06T04:14:58.314Z</time>
</trkpt>
<trkpt lat="-28.5530253" lon="151.9510578">
<ele>887.638</ele>
<time>2017-04-06T04:15:01.296Z</time>
</trkpt>
<trkpt lat="-28.5537230" lon="151.9510971">
<ele>887.537</ele>
<time>2017-04-06T04:15:04.354Z</time>
</trkpt>
<trkpt lat="-28.5542013" lon="151.9511444">
<ele>887.490</ele>
<time>2017-04-06T04:15:06.376Z</time>
</trkpt>
<trkpt lat="-28.5547018" lon="151.9511588">
<ele>887.803</ele>
<time>2017-04-06T04:15:08.416Z</time>
</trkpt>
<trkpt lat="-28.5552200" lon="151.9512355">
<ele>888.376</ele>
<time>2017-04-06T04:15:10.470Z</time>
</trkpt>
<trkpt lat="-28.5559984" lon="151.9512877">
<ele>888.903</ele>
<time>2017-04-06T04:15:13.498Z</time>
</trkpt>
<trkpt lat="-28.5567585" lon="151.9513425">
<ele>889.125</ele>
<time>2017-04-06T04:15:16.473Z</time>
</trkpt>
<trkpt lat="-28.5575253" lon="151.9514184">
<ele>889.003</ele>
<time>2017-04-06T04:15:19.486Z</time>
</trkpt>
<trkpt lat="-28.5582919" lon="151.9514377">
<ele>888.771</ele>
<time>2017-04-06T04:15:22.479Z</time>
</trkpt>
<trkpt lat="-28.5590650" lon="151.9514840">
<ele>888.510</ele>
<time>2017-04-06T04:15:25.499Z</time>
</trkpt>
<trkpt lat="-28.5598246" lon="151.9515813">
<ele>887.901</ele>
<time>2017-04-06T04:15:28.479Z</time>
</trkpt>
<trkpt lat="-28.5605859" lon="151.9516459">
<ele>886.777</ele>
<time>2017-04-06T04:15:31.454Z</time>
</trkpt>
<trkpt lat="-28.5613606" lon="151.9517131">
<ele>885.498</ele>
<time>2017-04-06T04:15:34.466Z</time>
</trkpt>
<trkpt lat="-28.5618790" lon="151.9517320">
<ele>884.564</ele>
<time>2017-04-06T04:15:36.471Z</time>
</trkpt>
<trkpt lat="-28.5626473" lon="151.9518101">
<ele>884.156</ele>
<time>2017-04-06T04:15:39.454Z</time>
</trkpt>
<trkpt lat="-28.5634175" lon="151.9518696">
<ele>884.288</ele>
<time>2017-04-06T04:15:42.441Z</time>
</trkpt>
<trkpt lat="-28.5639323" lon="151.9519093">
<ele>884.988</ele>
<time>2017-04-06T04:15:44.434Z</time>
</trkpt>
<trkpt lat="-28.5647106" lon="151.9519651">
<ele>886.103</ele>
<time>2017-04-06T04:15:47.432Z</time>
</trkpt>
<trkpt lat="-28.5652327" lon="151.9520077">
<ele>887.285</ele>
<time>2017-04-06T04:15:49.436Z</time>
</trkpt>
<trkpt lat="-28.5660130" lon="151.9520678">
<ele>888.214</ele>
<time>2017-04-06T04:15:52.431Z</time>
</trkpt>
<trkpt lat="-28.5667916" lon="151.9521241">
<ele>888.706</ele>
<time>2017-04-06T04:15:55.422Z</time>
</trkpt>
<trkpt lat="-28.5675749" lon="151.9521789">
<ele>888.785</ele>
<time>2017-04-06T04:15:58.432Z</time>
</trkpt>
<trkpt lat="-28.5680951" lon="151.9522268">
<ele>888.532</ele>
<time>2017-04-06T04:16:00.436Z</time>
</trkpt>
<trkpt lat="-28.5688669" lon="151.9523164">
<ele>888.071</ele>
<time>2017-04-06T04:16:03.422Z</time>
</trkpt>
<trkpt lat="-28.5696442" lon="151.9524017">
<ele>887.679</ele>
<time>2017-04-06T04:16:06.419Z</time>
</trkpt>
<trkpt lat="-28.5704438" lon="151.9524488">
<ele>887.658</ele>
<time>2017-04-06T04:16:09.494Z</time>
</trkpt>
<trkpt lat="-28.5712152" lon="151.9524775">
<ele>888.195</ele>
<time>2017-04-06T04:16:12.485Z</time>
</trkpt>
<trkpt lat="-28.5717058" lon="151.9525358">
<ele>889.226</ele>
<time>2017-04-06T04:16:14.435Z</time>
</trkpt>
<trkpt lat="-28.5721741" lon="151.9525610">
<ele>890.333</ele>
<time>2017-04-06T04:16:16.359Z</time>
</trkpt>
<trkpt lat="-28.5728609" lon="151.9526138">
<ele>891.156</ele>
<time>2017-04-06T04:16:19.289Z</time>
</trkpt>
<trkpt lat="-28.5733302" lon="151.9526608">
<ele>891.732</ele>
<time>2017-04-06T04:16:21.292Z</time>
</trkpt>
<trkpt lat="-28.5738440" lon="151.9527332">
<ele>892.263</ele>
<time>2017-04-06T04:16:23.371Z</time>
</trkpt>
<trkpt lat="-28.5744661" lon="151.9527413">
<ele>892.894</ele>
<time>2017-04-06T04:16:25.598Z</time>
</trkpt>
<trkpt lat="-28.5754369" lon="151.9527993">
<ele>893.818</ele>
<time>2017-04-06T04:16:28.762Z</time>
</trkpt>
<trkpt lat="-28.5760724" lon="151.9528344">
<ele>895.335</ele>
<time>2017-04-06T04:16:30.807Z</time>
</trkpt>
<trkpt lat="-28.5766232" lon="151.9528718">
<ele>897.219</ele>
<time>2017-04-06T04:16:32.682Z</time>
</trkpt>
<trkpt lat="-28.5771300" lon="151.9529247">
<ele>898.366</ele>
<time>2017-04-06T04:16:34.538Z</time>
</trkpt>
<trkpt lat="-28.5778653" lon="151.9529580">
<ele>897.901</ele>
<time>2017-04-06T04:16:37.396Z</time>
</trkpt>
<trkpt lat="-28.5783571" lon="151.9529724">
<ele>895.919</ele>
<time>2017-04-06T04:16:39.378Z</time>
</trkpt>
<trkpt lat="-28.5788642" lon="151.9529902">
<ele>893.102</ele>
<time>2017-04-06T04:16:41.411Z</time>
</trkpt>
<trkpt lat="-28.5796215" lon="151.9530624">
<ele>890.343</ele>
<time>2017-04-06T04:16:44.423Z</time>
</trkpt>
<trkpt lat="-28.5803887" lon="151.9530905">
<ele>888.060</ele>
<time>2017-04-06T04:16:47.439Z</time>
</trkpt>
<trkpt lat="-28.5811487" lon="151.9531762">
<ele>885.979</ele>
<time>2017-04-06T04:16:50.434Z</time>
</trkpt>
<trkpt lat="-28.5816642" lon="151.9531987">
<ele>883.895</ele>
<time>2017-04-06T04:16:52.456Z</time>
</trkpt>
<trkpt lat="-28.5821624" lon="151.9533135">
<ele>882.057</ele>
<time>2017-04-06T04:16:54.450Z</time>
</trkpt>
<trkpt lat="-28.5826652" lon="151.9533778">
<ele>880.739</ele>
<time>2017-04-06T04:16:56.436Z</time>
</trkpt>
<trkpt lat="-28.5831780" lon="151.9534044">
<ele>879.968</ele>
<time>2017-04-06T04:16:58.451Z</time>
</trkpt>
<trkpt lat="-28.5839407" lon="151.9534813">
<ele>879.630</ele>
<time>2017-04-06T04:17:01.455Z</time>
</trkpt>
<trkpt lat="-28.5846961" lon="151.9535221">
<ele>879.697</ele>
<time>2017-04-06T04:17:04.431Z</time>
</trkpt>
<trkpt lat="-28.5854561" lon="151.9534511">
<ele>880.283</ele>
<time>2017-04-06T04:17:07.433Z</time>
</trkpt>
<trkpt lat="-28.5859651" lon="151.9534644">
<ele>881.399</ele>
<time>2017-04-06T04:17:09.427Z</time>
</trkpt>
<trkpt lat="-28.5864766" lon="151.9534765">
<ele>882.669</ele>
<time>2017-04-06T04:17:11.419Z</time>
</trkpt>
<trkpt lat="-28.5869904" lon="151.9535342">
<ele>883.583</ele>
<time>2017-04-06T04:17:13.424Z</time>
</trkpt>
<trkpt lat="-28.5875002" lon="151.9535785">
<ele>883.953</ele>
<time>2017-04-06T04:17:15.411Z</time>
</trkpt>
<trkpt lat="-28.5882614" lon="151.9536242">
<ele>883.881</ele>
<time>2017-04-06T04:17:18.380Z</time>
</trkpt>
<trkpt lat="-28.5890264" lon="151.9536582">
<ele>883.456</ele>
<time>2017-04-06T04:17:21.376Z</time>
</trkpt>
<trkpt lat="-28.5895325" lon="151.9537156">
<ele>882.868</ele>
<time>2017-04-06T04:17:23.372Z</time>
</trkpt>
<trkpt lat="-28.5902933" lon="151.9537897">
<ele>882.444</ele>
<time>2017-04-06T04:17:26.369Z</time>
</trkpt>
<trkpt lat="-28.5908013" lon="151.9538115">
<ele>882.674</ele>
<time>2017-04-06T04:17:28.359Z</time>
</trkpt>
<trkpt lat="-28.5915650" lon="151.9539120">
<ele>883.984</ele>
<time>2017-04-06T04:17:31.359Z</time>
</trkpt>
<trkpt lat="-28.5923298" lon="151.9539443">
<ele>886.200</ele>
<time>2017-04-06T04:17:34.336Z</time>
</trkpt>
<trkpt lat="-28.5931007" lon="151.9540072">
<ele>888.511</ele>
<time>2017-04-06T04:17:37.335Z</time>
</trkpt>
<trkpt lat="-28.5936079" lon="151.9540677">
<ele>890.121</ele>
<time>2017-04-06T04:17:39.311Z</time>
</trkpt>
<trkpt lat="-28.5943784" lon="151.9541240">
<ele>890.616</ele>
<time>2017-04-06T04:17:42.311Z</time>
</trkpt>
<trkpt lat="-28.5951339" lon="151.9542246">
<ele>890.045</ele>
<time>2017-04-06T04:17:45.278Z</time>
</trkpt>
<trkpt lat="-28.5959002" lon="151.9543368">
<ele>888.786</ele>
<time>2017-04-06T04:17:48.287Z</time>
</trkpt>
<trkpt lat="-28.5966712" lon="151.9543818">
<ele>887.369</ele>
<time>2017-04-06T04:17:51.280Z</time>
</trkpt>
<trkpt lat="-28.5974407" lon="151.9544572">
<ele>886.154</ele>
<time>2017-04-06T04:17:54.277Z</time>
</trkpt>
<trkpt lat="-28.5979568" lon="151.9544414">
<ele>885.060</ele>
<time>2017-04-06T04:17:56.285Z</time>
</trkpt>
<trkpt lat="-28.5987299" lon="151.9544849">
<ele>883.726</ele>
<time>2017-04-06T04:17:59.298Z</time>
</trkpt>
<trkpt lat="-28.5994992" lon="151.9545469">
<ele>881.903</ele>
<time>2017-04-06T04:18:02.301Z</time>
</trkpt>
<trkpt lat="-28.6000137" lon="151.9545876">
<ele>879.503</ele>
<time>2017-04-06T04:18:04.310Z</time>
</trkpt>
<trkpt lat="-28.6007858" lon="151.9546497">
<ele>876.831</ele>
<time>2017-04-06T04:18:07.328Z</time>
</trkpt>
<trkpt lat="-28.6015563" lon="151.9547259">
<ele>874.221</ele>
<time>2017-04-06T04:18:10.347Z</time>
</trkpt>
<trkpt lat="-28.6023321" lon="151.9547190">
<ele>871.481</ele>
<time>2017-04-06T04:18:13.367Z</time>
</trkpt>
<trkpt lat="-28.6030922" lon="151.9548406">
<ele>868.508</ele>
<time>2017-04-06T04:18:16.360Z</time>
</trkpt>
<trkpt lat="-28.6038620" lon="151.9548501">
<ele>865.714</ele>
<time>2017-04-06T04:18:19.369Z</time>
</trkpt>
<trkpt lat="-28.6043728" lon="151.9548649">
<ele>863.386</ele>
<time>2017-04-06T04:18:21.366Z</time>
</trkpt>
<trkpt lat="-28.6051255" lon="151.9549907">
<ele>861.532</ele>
<time>2017-04-06T04:18:24.342Z</time>
</trkpt>
<trkpt lat="-28.6058894" lon="151.9550578">
<ele>860.127</ele>
<time>2017-04-06T04:18:27.336Z</time>
</trkpt>
<trkpt lat="-28.6064005" lon="151.9551146">
<ele>859.140</ele>
<time>2017-04-06T04:18:29.340Z</time>
</trkpt>
<trkpt lat="-28.6071605" lon="151.9551747">
<ele>858.458</ele>
<time>2017-04-06T04:18:32.316Z</time>
</trkpt>
<trkpt lat="-28.6079320" lon="151.9552490">
<ele>857.989</ele>
<time>2017-04-06T04:18:35.350Z</time>
</trkpt>
<trkpt lat="-28.6087004" lon="151.9552897">
<ele>857.546</ele>
<time>2017-04-06T04:18:38.355Z</time>
</trkpt>
<trkpt lat="-28.6094651" lon="151.9553584">
<ele>856.825</ele>
<time>2017-04-06T04:18:41.343Z</time>
</trkpt>
<trkpt lat="-28.6099734" lon="151.9553984">
<ele>855.710</ele>
<time>2017-04-06T04:18:43.330Z</time>
</trkpt>
<trkpt lat="-28.6104811" lon="151.9554553">
<ele>854.386</ele>
<time>2017-04-06T04:18:45.324Z</time>
</trkpt>
<trkpt lat="-28.6112463" lon="151.9555096">
<ele>853.127</ele>
<time>2017-04-06T04:18:48.322Z</time>
</trkpt>
<trkpt lat="-28.6120113" lon="151.9555379">
<ele>852.134</ele>
<time>2017-04-06T04:18:51.315Z</time>
</trkpt>
<trkpt lat="-28.6125189" lon="151.9555750">
<ele>851.429</ele>
<time>2017-04-06T04:18:53.302Z</time>
</trkpt>
<trkpt lat="-28.6132809" lon="151.9556664">
<ele>850.926</ele>
<time>2017-04-06T04:18:56.295Z</time>
</trkpt>
<trkpt lat="-28.6140497" lon="151.9556942">
<ele>850.457</ele>
<time>2017-04-06T04:18:59.300Z</time>
</trkpt>
<trkpt lat="-28.6145577" lon="151.9557438">
<ele>849.836</ele>
<time>2017-04-06T04:19:01.304Z</time>
</trkpt>
<trkpt lat="-28.6152725" lon="151.9558409">
<ele>849.073</ele>
<time>2017-04-06T04:19:04.216Z</time>
</trkpt>
<trkpt lat="-28.6159279" lon="151.9558863">
<ele>848.135</ele>
<time>2017-04-06T04:19:07.078Z</time>
</trkpt>
<trkpt lat="-28.6163363" lon="151.9559060">
<ele>846.622</ele>
<time>2017-04-06T04:19:09.005Z</time>
</trkpt>
<trkpt lat="-28.6169278" lon="151.9559097">
<ele>844.422</ele>
<time>2017-04-06T04:19:11.923Z</time>
</trkpt>
<trkpt lat="-28.6173295" lon="151.9558647">
<ele>842.062</ele>
<time>2017-04-06T04:19:13.936Z</time>
</trkpt>
<trkpt lat="-28.6179318" lon="151.9557172">
<ele>840.111</ele>
<time>2017-04-06T04:19:16.975Z</time>
</trkpt>
<trkpt lat="-28.6183293" lon="151.9555971">
<ele>838.804</ele>
<time>2017-04-06T04:19:18.991Z</time>
</trkpt>
<trkpt lat="-28.6189294" lon="151.9554732">
<ele>838.121</ele>
<time>2017-04-06T04:19:21.979Z</time>
</trkpt>
<trkpt lat="-28.6193317" lon="151.9554165">
<ele>837.854</ele>
<time>2017-04-06T04:19:23.969Z</time>
</trkpt>
<trkpt lat="-28.6197306" lon="151.9553107">
<ele>837.750</ele>
<time>2017-04-06T04:19:25.976Z</time>
</trkpt>
<trkpt lat="-28.6203363" lon="151.9551720">
<ele>837.630</ele>
<time>2017-04-06T04:19:28.987Z</time>
</trkpt>
<trkpt lat="-28.6207401" lon="151.9550943">
<ele>837.375</ele>
<time>2017-04-06T04:19:30.983Z</time>
</trkpt>
<trkpt lat="-28.6213382" lon="151.9549663">
<ele>836.962</ele>
<time>2017-04-06T04:19:33.965Z</time>
</trkpt>
<trkpt lat="-28.6219359" lon="151.9548468">
<ele>836.552</ele>
<time>2017-04-06T04:19:36.951Z</time>
</trkpt>
<trkpt lat="-28.6223360" lon="151.9547564">
<ele>836.308</ele>
<time>2017-04-06T04:19:38.961Z</time>
</trkpt>
<trkpt lat="-28.6227262" lon="151.9546659">
<ele>836.233</ele>
<time>2017-04-06T04:19:40.930Z</time>
</trkpt>
<trkpt lat="-28.6233130" lon="151.9546176">
<ele>836.202</ele>
<time>2017-04-06T04:19:43.881Z</time>
</trkpt>
<trkpt lat="-28.6239022" lon="151.9545862">
<ele>836.112</ele>
<time>2017-04-06T04:19:46.872Z</time>
</trkpt>
<trkpt lat="-28.6242946" lon="151.9546019">
<ele>835.978</ele>
<time>2017-04-06T04:19:48.866Z</time>
</trkpt>
<trkpt lat="-28.6246876" lon="151.9546365">
<ele>835.844</ele>
<time>2017-04-06T04:19:50.869Z</time>
</trkpt>
<trkpt lat="-28.6252771" lon="151.9547761">
<ele>835.729</ele>
<time>2017-04-06T04:19:53.902Z</time>
</trkpt>
<trkpt lat="-28.6256540" lon="151.9549257">
<ele>835.661</ele>
<time>2017-04-06T04:19:55.895Z</time>
</trkpt>
<trkpt lat="-28.6260486" lon="151.9549825">
<ele>835.631</ele>
<time>2017-04-06T04:19:57.887Z</time>
</trkpt>
<trkpt lat="-28.6264341" lon="151.9550846">
<ele>835.588</ele>
<time>2017-04-06T04:19:59.879Z</time>
</trkpt>
<trkpt lat="-28.6270285" lon="151.9551540">
<ele>835.445</ele>
<time>2017-04-06T04:20:02.883Z</time>
</trkpt>
<trkpt lat="-28.6274288" lon="151.9551059">
<ele>835.124</ele>
<time>2017-04-06T04:20:04.901Z</time>
</trkpt>
<trkpt lat="-28.6280227" lon="151.9549655">
<ele>834.658</ele>
<time>2017-04-06T04:20:07.923Z</time>
</trkpt>
<trkpt lat="-28.6286049" lon="151.9547772">
<ele>834.021</ele>
<time>2017-04-06T04:20:10.938Z</time>
</trkpt>
<trkpt lat="-28.6290009" lon="151.9546981">
<ele>833.036</ele>
<time>2017-04-06T04:20:12.947Z</time>
</trkpt>
<trkpt lat="-28.6293866" lon="151.9545824">
<ele>831.734</ele>
<time>2017-04-06T04:20:14.943Z</time>
</trkpt>
<trkpt lat="-28.6297853" lon="151.9545065">
<ele>830.429</ele>
<time>2017-04-06T04:20:16.974Z</time>
</trkpt>
<trkpt lat="-28.6303750" lon="151.9543370">
<ele>829.367</ele>
<time>2017-04-06T04:20:20.016Z</time>
</trkpt>
<trkpt lat="-28.6307672" lon="151.9542229">
<ele>828.552</ele>
<time>2017-04-06T04:20:22.030Z</time>
</trkpt>
<trkpt lat="-28.6311684" lon="151.9541586">
<ele>827.854</ele>
<time>2017-04-06T04:20:24.052Z</time>
</trkpt>
<trkpt lat="-28.6315599" lon="151.9540589">
<ele>827.169</ele>
<time>2017-04-06T04:20:26.052Z</time>
</trkpt>
<trkpt lat="-28.6321500" lon="151.9539162">
<ele>826.468</ele>
<time>2017-04-06T04:20:29.068Z</time>
</trkpt>
<trkpt lat="-28.6325297" lon="151.9537665">
<ele>825.735</ele>
<time>2017-04-06T04:20:31.082Z</time>
</trkpt>
<trkpt lat="-28.6330886" lon="151.9535098">
<ele>824.974</ele>
<time>2017-04-06T04:20:34.084Z</time>
</trkpt>
<trkpt lat="-28.6336275" lon="151.9532210">
<ele>824.114</ele>
<time>2017-04-06T04:20:37.045Z</time>
</trkpt>
<trkpt lat="-28.6341579" lon="151.9528926">
<ele>823.023</ele>
<time>2017-04-06T04:20:40.054Z</time>
</trkpt>
<trkpt lat="-28.6344345" lon="151.9525541">
<ele>821.628</ele>
<time>2017-04-06T04:20:42.068Z</time>
</trkpt>
<trkpt lat="-28.6348573" lon="151.9520555">
<ele>819.994</ele>
<time>2017-04-06T04:20:45.078Z</time>
</trkpt>
<trkpt lat="-28.6352492" lon="151.9515344">
<ele>818.296</ele>
<time>2017-04-06T04:20:48.074Z</time>
</trkpt>
<trkpt lat="-28.6355268" lon="151.9511990">
<ele>816.622</ele>
<time>2017-04-06T04:20:50.094Z</time>
</trkpt>
<trkpt lat="-28.6358852" lon="151.9506524">
<ele>814.984</ele>
<time>2017-04-06T04:20:53.076Z</time>
</trkpt>
<trkpt lat="-28.6360818" lon="151.9502592">
<ele>813.430</ele>
<time>2017-04-06T04:20:55.056Z</time>
</trkpt>
<trkpt lat="-28.6362830" lon="151.9498663">
<ele>811.932</ele>
<time>2017-04-06T04:20:57.051Z</time>
</trkpt>
<trkpt lat="-28.6364653" lon="151.9494626">
<ele>810.356</ele>
<time>2017-04-06T04:20:59.042Z</time>
</trkpt>
<trkpt lat="-28.6366247" lon="151.9490340">
<ele>808.624</ele>
<time>2017-04-06T04:21:01.073Z</time>
</trkpt>
<trkpt lat="-28.6368582" lon="151.9486614">
<ele>806.851</ele>
<time>2017-04-06T04:21:03.065Z</time>
</trkpt>
<trkpt lat="-28.6370546" lon="151.9482622">
<ele>805.284</ele>
<time>2017-04-06T04:21:05.064Z</time>
</trkpt>
<trkpt lat="-28.6372796" lon="151.9476229">
<ele>804.015</ele>
<time>2017-04-06T04:21:08.077Z</time>
</trkpt>
<trkpt lat="-28.6374907" lon="151.9472383">
<ele>802.855</ele>
<time>2017-04-06T04:21:10.071Z</time>
</trkpt>
<trkpt lat="-28.6376485" lon="151.9468259">
<ele>801.571</ele>
<time>2017-04-06T04:21:12.064Z</time>
</trkpt>
<trkpt lat="-28.6377868" lon="151.9463986">
<ele>800.168</ele>
<time>2017-04-06T04:21:14.087Z</time>
</trkpt>
<trkpt lat="-28.6380602" lon="151.9457903">
<ele>798.822</ele>
<time>2017-04-06T04:21:17.113Z</time>
</trkpt>
<trkpt lat="-28.6383612" lon="151.9451983">
<ele>797.528</ele>
<time>2017-04-06T04:21:20.119Z</time>
</trkpt>
<trkpt lat="-28.6385833" lon="151.9448148">
<ele>796.058</ele>
<time>2017-04-06T04:21:22.136Z</time>
</trkpt>
<trkpt lat="-28.6388532" lon="151.9442001">
<ele>794.360</ele>
<time>2017-04-06T04:21:25.150Z</time>
</trkpt>
<trkpt lat="-28.6390261" lon="151.9437840">
<ele>792.567</ele>
<time>2017-04-06T04:21:27.161Z</time>
</trkpt>
<trkpt lat="-28.6391931" lon="151.9433665">
<ele>790.852</ele>
<time>2017-04-06T04:21:29.168Z</time>
</trkpt>
<trkpt lat="-28.6394478" lon="151.9427521">
<ele>789.482</ele>
<time>2017-04-06T04:21:32.153Z</time>
</trkpt>
<trkpt lat="-28.6396349" lon="151.9423408">
<ele>788.596</ele>
<time>2017-04-06T04:21:34.174Z</time>
</trkpt>
<trkpt lat="-28.6397740" lon="151.9419183">
<ele>787.900</ele>
<time>2017-04-06T04:21:36.134Z</time>
</trkpt>
<trkpt lat="-28.6399657" lon="151.9415014">
<ele>787.045</ele>
<time>2017-04-06T04:21:38.150Z</time>
</trkpt>
<trkpt lat="-28.6402011" lon="151.9410633">
<ele>786.138</ele>
<time>2017-04-06T04:21:40.253Z</time>
</trkpt>
<trkpt lat="-28.6404342" lon="151.9405649">
<ele>785.588</ele>
<time>2017-04-06T04:21:42.366Z</time>
</trkpt>
<trkpt lat="-28.6408269" lon="151.9397570">
<ele>785.687</ele>
<time>2017-04-06T04:21:45.535Z</time>
</trkpt>
<trkpt lat="-28.6411824" lon="151.9389681">
<ele>786.637</ele>
<time>2017-04-06T04:21:48.521Z</time>
</trkpt>
<trkpt lat="-28.6415086" lon="151.9381977">
<ele>788.316</ele>
<time>2017-04-06T04:21:51.463Z</time>
</trkpt>
<trkpt lat="-28.6418408" lon="151.9374219">
<ele>790.145</ele>
<time>2017-04-06T04:21:54.456Z</time>
</trkpt>
<trkpt lat="-28.6420211" lon="151.9368767">
<ele>791.511</ele>
<time>2017-04-06T04:21:56.465Z</time>
</trkpt>
<trkpt lat="-28.6423826" lon="151.9360747">
<ele>792.112</ele>
<time>2017-04-06T04:21:59.549Z</time>
</trkpt>
<trkpt lat="-28.6426940" lon="151.9352793">
<ele>791.813</ele>
<time>2017-04-06T04:22:02.507Z</time>
</trkpt>
<trkpt lat="-28.6428569" lon="151.9347400">
<ele>790.603</ele>
<time>2017-04-06T04:22:04.460Z</time>
</trkpt>
<trkpt lat="-28.6431146" lon="151.9339463">
<ele>788.803</ele>
<time>2017-04-06T04:22:07.380Z</time>
</trkpt>
<trkpt lat="-28.6433612" lon="151.9331139">
<ele>786.786</ele>
<time>2017-04-06T04:22:10.404Z</time>
</trkpt>
<trkpt lat="-28.6435495" lon="151.9322656">
<ele>784.610</ele>
<time>2017-04-06T04:22:13.402Z</time>
</trkpt>
<trkpt lat="-28.6436458" lon="151.9314035">
<ele>782.383</ele>
<time>2017-04-06T04:22:16.380Z</time>
</trkpt>
<trkpt lat="-28.6439171" lon="151.9305785">
<ele>780.472</ele>
<time>2017-04-06T04:22:19.409Z</time>
</trkpt>
<trkpt lat="-28.6440002" lon="151.9297006">
<ele>779.233</ele>
<time>2017-04-06T04:22:22.441Z</time>
</trkpt>
<trkpt lat="-28.6442794" lon="151.9288807">
<ele>778.807</ele>
<time>2017-04-06T04:22:25.447Z</time>
</trkpt>
<trkpt lat="-28.6445955" lon="151.9280857">
<ele>778.993</ele>
<time>2017-04-06T04:22:28.429Z</time>
</trkpt>
<trkpt lat="-28.6449693" lon="151.9273228">
<ele>779.423</ele>
<time>2017-04-06T04:22:31.424Z</time>
</trkpt>
<trkpt lat="-28.6454412" lon="151.9266361">
<ele>780.028</ele>
<time>2017-04-06T04:22:34.416Z</time>
</trkpt>
<trkpt lat="-28.6460543" lon="151.9260982">
<ele>780.969</ele>
<time>2017-04-06T04:22:37.432Z</time>
</trkpt>
<trkpt lat="-28.6466337" lon="151.9255196">
<ele>782.072</ele>
<time>2017-04-06T04:22:40.430Z</time>
</trkpt>
<trkpt lat="-28.6470534" lon="151.9251679">
<ele>782.895</ele>
<time>2017-04-06T04:22:42.452Z</time>
</trkpt>
<trkpt lat="-28.6476269" lon="151.9245746">
<ele>783.252</ele>
<time>2017-04-06T04:22:45.448Z</time>
</trkpt>
<trkpt lat="-28.6482407" lon="151.9240370">
<ele>783.207</ele>
<time>2017-04-06T04:22:48.447Z</time>
</trkpt>
<trkpt lat="-28.6486334" lon="151.9236579">
<ele>782.721</ele>
<time>2017-04-06T04:22:50.448Z</time>
</trkpt>
<trkpt lat="-28.6490376" lon="151.9232900">
<ele>781.838</ele>
<time>2017-04-06T04:22:52.460Z</time>
</trkpt>
<trkpt lat="-28.6494067" lon="151.9228846">
<ele>780.810</ele>
<time>2017-04-06T04:22:54.456Z</time>
</trkpt>
<trkpt lat="-28.6499473" lon="151.9222362">
<ele>779.723</ele>
<time>2017-04-06T04:22:57.509Z</time>
</trkpt>
<trkpt lat="-28.6504358" lon="151.9215830">
<ele>778.476</ele>
<time>2017-04-06T04:23:00.445Z</time>
</trkpt>
<trkpt lat="-28.6509113" lon="151.9209017">
<ele>777.160</ele>
<time>2017-04-06T04:23:03.428Z</time>
</trkpt>
<trkpt lat="-28.6513461" lon="151.9201879">
<ele>775.942</ele>
<time>2017-04-06T04:23:06.391Z</time>
</trkpt>
<trkpt lat="-28.6518145" lon="151.9195000">
<ele>774.768</ele>
<time>2017-04-06T04:23:09.354Z</time>
</trkpt>
<trkpt lat="-28.6524169" lon="151.9189472">
<ele>773.316</ele>
<time>2017-04-06T04:23:12.350Z</time>
</trkpt>
<trkpt lat="-28.6528137" lon="151.9185727">
<ele>771.191</ele>
<time>2017-04-06T04:23:14.349Z</time>
</trkpt>
<trkpt lat="-28.6535214" lon="151.9181732">
<ele>768.542</ele>
<time>2017-04-06T04:23:17.429Z</time>
</trkpt>
<trkpt lat="-28.6542417" lon="151.9178099">
<ele>766.041</ele>
<time>2017-04-06T04:23:20.500Z</time>
</trkpt>
<trkpt lat="-28.6549681" lon="151.9175326">
<ele>764.214</ele>
<time>2017-04-06T04:23:23.498Z</time>
</trkpt>
<trkpt lat="-28.6554674" lon="151.9174287">
<ele>763.242</ele>
<time>2017-04-06T04:23:25.497Z</time>
</trkpt>
<trkpt lat="-28.6562144" lon="151.9172962">
<ele>763.147</ele>
<time>2017-04-06T04:23:28.477Z</time>
</trkpt>
<trkpt lat="-28.6567188" lon="151.9172142">
<ele>763.915</ele>
<time>2017-04-06T04:23:30.480Z</time>
</trkpt>
<trkpt lat="-28.6574701" lon="151.9170799">
<ele>765.419</ele>
<time>2017-04-06T04:23:33.464Z</time>
</trkpt>
<trkpt lat="-28.6582300" lon="151.9169244">
<ele>767.309</ele>
<time>2017-04-06T04:23:36.485Z</time>
</trkpt>
<trkpt lat="-28.6589842" lon="151.9167729">
<ele>769.329</ele>
<time>2017-04-06T04:23:39.475Z</time>
</trkpt>
<trkpt lat="-28.6597396" lon="151.9166204">
<ele>771.401</ele>
<time>2017-04-06T04:23:42.464Z</time>
</trkpt>
<trkpt lat="-28.6604951" lon="151.9164531">
<ele>773.399</ele>
<time>2017-04-06T04:23:45.458Z</time>
</trkpt>
<trkpt lat="-28.6610018" lon="151.9163571">
<ele>775.119</ele>
<time>2017-04-06T04:23:47.454Z</time>
</trkpt>
<trkpt lat="-28.6615095" lon="151.9162511">
<ele>776.362</ele>
<time>2017-04-06T04:23:49.457Z</time>
</trkpt>
<trkpt lat="-28.6622724" lon="151.9161029">
<ele>777.032</ele>
<time>2017-04-06T04:23:52.458Z</time>
</trkpt>
<trkpt lat="-28.6627813" lon="151.9160040">
<ele>777.218</ele>
<time>2017-04-06T04:23:54.460Z</time>
</trkpt>
<trkpt lat="-28.6632905" lon="151.9158937">
<ele>777.136</ele>
<time>2017-04-06T04:23:56.472Z</time>
</trkpt>
<trkpt lat="-28.6637934" lon="151.9157571">
<ele>776.953</ele>
<time>2017-04-06T04:23:58.478Z</time>
</trkpt>
<trkpt lat="-28.6645541" lon="151.9156015">
<ele>776.751</ele>
<time>2017-04-06T04:24:01.476Z</time>
</trkpt>
<trkpt lat="-28.6650647" lon="151.9155072">
<ele>776.470</ele>
<time>2017-04-06T04:24:03.485Z</time>
</trkpt>
<trkpt lat="-28.6655676" lon="151.9154326">
<ele>776.010</ele>
<time>2017-04-06T04:24:05.460Z</time>
</trkpt>
<trkpt lat="-28.6663334" lon="151.9154092">
<ele>775.356</ele>
<time>2017-04-06T04:24:08.449Z</time>
</trkpt>
<trkpt lat="-28.6671022" lon="151.9154926">
<ele>774.388</ele>
<time>2017-04-06T04:24:11.459Z</time>
</trkpt>
<trkpt lat="-28.6678628" lon="151.9156449">
<ele>772.996</ele>
<time>2017-04-06T04:24:14.465Z</time>
</trkpt>
<trkpt lat="-28.6683489" lon="151.9158206">
<ele>771.425</ele>
<time>2017-04-06T04:24:16.450Z</time>
</trkpt>
<trkpt lat="-28.6688300" lon="151.9160076">
<ele>770.067</ele>
<time>2017-04-06T04:24:18.439Z</time>
</trkpt>
<trkpt lat="-28.6694802" lon="151.9164312">
<ele>769.048</ele>
<time>2017-04-06T04:24:21.452Z</time>
</trkpt>
<trkpt lat="-28.6698841" lon="151.9166821">
<ele>768.023</ele>
<time>2017-04-06T04:24:23.394Z</time>
</trkpt>
<trkpt lat="-28.6702663" lon="151.9169669">
<ele>766.594</ele>
<time>2017-04-06T04:24:25.374Z</time>
</trkpt>
<trkpt lat="-28.6707780" lon="151.9174730">
<ele>764.892</ele>
<time>2017-04-06T04:24:28.336Z</time>
</trkpt>
<trkpt lat="-28.6710965" lon="151.9178319">
<ele>763.376</ele>
<time>2017-04-06T04:24:30.322Z</time>
</trkpt>
<trkpt lat="-28.6714077" lon="151.9181553">
<ele>762.305</ele>
<time>2017-04-06T04:24:32.246Z</time>
</trkpt>
<trkpt lat="-28.6718308" lon="151.9185929">
<ele>761.510</ele>
<time>2017-04-06T04:24:35.016Z</time>
</trkpt>
<trkpt lat="-28.6722718" lon="151.9190357">
<ele>760.588</ele>
<time>2017-04-06T04:24:38.018Z</time>
</trkpt>
<trkpt lat="-28.6727598" lon="151.9194401">
<ele>759.451</ele>
<time>2017-04-06T04:24:41.064Z</time>
</trkpt>
<trkpt lat="-28.6730989" lon="151.9196933">
<ele>758.474</ele>
<time>2017-04-06T04:24:43.087Z</time>
</trkpt>
<trkpt lat="-28.6734506" lon="151.9199146">
<ele>758.019</ele>
<time>2017-04-06T04:24:45.083Z</time>
</trkpt>
<trkpt lat="-28.6739816" lon="151.9202303">
<ele>758.090</ele>
<time>2017-04-06T04:24:48.065Z</time>
</trkpt>
<trkpt lat="-28.6745192" lon="151.9205375">
<ele>758.434</ele>
<time>2017-04-06T04:24:51.067Z</time>
</trkpt>
<trkpt lat="-28.6748620" lon="151.9207667">
<ele>758.795</ele>
<time>2017-04-06T04:24:53.046Z</time>
</trkpt>
<trkpt lat="-28.6752297" lon="151.9209433">
<ele>759.050</ele>
<time>2017-04-06T04:24:55.037Z</time>
</trkpt>
<trkpt lat="-28.6758137" lon="151.9210791">
<ele>759.207</ele>
<time>2017-04-06T04:24:58.019Z</time>
</trkpt>
<trkpt lat="-28.6764169" lon="151.9210215">
<ele>759.445</ele>
<time>2017-04-06T04:25:01.032Z</time>
</trkpt>
<trkpt lat="-28.6770257" lon="151.9209243">
<ele>759.926</ele>
<time>2017-04-06T04:25:04.063Z</time>
</trkpt>
<trkpt lat="-28.6774224" lon="151.9208256">
<ele>760.496</ele>
<time>2017-04-06T04:25:06.059Z</time>
</trkpt>
<trkpt lat="-28.6780173" lon="151.9206906">
<ele>760.879</ele>
<time>2017-04-06T04:25:09.043Z</time>
</trkpt>
<trkpt lat="-28.6786307" lon="151.9205621">
<ele>760.885</ele>
<time>2017-04-06T04:25:12.117Z</time>
</trkpt>
<trkpt lat="-28.6790204" lon="151.9205304">
<ele>760.483</ele>
<time>2017-04-06T04:25:14.056Z</time>
</trkpt>
<trkpt lat="-28.6796149" lon="151.9203943">
<ele>759.848</ele>
<time>2017-04-06T04:25:17.069Z</time>
</trkpt>
<trkpt lat="-28.6801965" lon="151.9202023">
<ele>759.133</ele>
<time>2017-04-06T04:25:20.066Z</time>
</trkpt>
<trkpt lat="-28.6807572" lon="151.9199303">
<ele>758.407</ele>
<time>2017-04-06T04:25:23.072Z</time>
</trkpt>
<trkpt lat="-28.6811100" lon="151.9197076">
<ele>757.678</ele>
<time>2017-04-06T04:25:25.066Z</time>
</trkpt>
<trkpt lat="-28.6814713" lon="151.9195035">
<ele>756.760</ele>
<time>2017-04-06T04:25:27.059Z</time>
</trkpt>
<trkpt lat="-28.6819686" lon="151.9190950">
<ele>755.506</ele>
<time>2017-04-06T04:25:30.078Z</time>
</trkpt>
<trkpt lat="-28.6822996" lon="151.9187826">
<ele>753.983</ele>
<time>2017-04-06T04:25:32.128Z</time>
</trkpt>
<trkpt lat="-28.6826431" lon="151.9184038">
<ele>752.558</ele>
<time>2017-04-06T04:25:34.263Z</time>
</trkpt>
<trkpt lat="-28.6829889" lon="151.9179629">
<ele>751.691</ele>
<time>2017-04-06T04:25:36.427Z</time>
</trkpt>
<trkpt lat="-28.6833083" lon="151.9174952">
<ele>751.409</ele>
<time>2017-04-06T04:25:38.506Z</time>
</trkpt>
<trkpt lat="-28.6836064" lon="151.9170252">
<ele>751.372</ele>
<time>2017-04-06T04:25:40.521Z</time>
</trkpt>
<trkpt lat="-28.6840230" lon="151.9163042">
<ele>751.324</ele>
<time>2017-04-06T04:25:43.513Z</time>
</trkpt>
<trkpt lat="-28.6843416" lon="151.9155271">
<ele>751.208</ele>
<time>2017-04-06T04:25:46.469Z</time>
</trkpt>
<trkpt lat="-28.6845346" lon="151.9149929">
<ele>751.121</ele>
<time>2017-04-06T04:25:48.456Z</time>
</trkpt>
<trkpt lat="-28.6847543" lon="151.9144784">
<ele>751.212</ele>
<time>2017-04-06T04:25:50.439Z</time>
</trkpt>
<trkpt lat="-28.6851576" lon="151.9137708">
<ele>751.622</ele>
<time>2017-04-06T04:25:53.386Z</time>
</trkpt>
<trkpt lat="-28.6856522" lon="151.9131177">
<ele>752.521</ele>
<time>2017-04-06T04:25:56.397Z</time>
</trkpt>
<trkpt lat="-28.6862177" lon="151.9125462">
<ele>754.136</ele>
<time>2017-04-06T04:25:59.383Z</time>
</trkpt>
<trkpt lat="-28.6868486" lon="151.9120609">
<ele>756.273</ele>
<time>2017-04-06T04:26:02.376Z</time>
</trkpt>
<trkpt lat="-28.6874820" lon="151.9115523">
<ele>758.160</ele>
<time>2017-04-06T04:26:05.408Z</time>
</trkpt>
<trkpt lat="-28.6881956" lon="151.9112088">
<ele>759.229</ele>
<time>2017-04-06T04:26:08.427Z</time>
</trkpt>
<trkpt lat="-28.6886366" lon="151.9109024">
<ele>759.371</ele>
<time>2017-04-06T04:26:10.440Z</time>
</trkpt>
<trkpt lat="-28.6892102" lon="151.9103541">
<ele>758.686</ele>
<time>2017-04-06T04:26:13.372Z</time>
</trkpt>
<trkpt lat="-28.6895796" lon="151.9099645">
<ele>757.514</ele>
<time>2017-04-06T04:26:15.355Z</time>
</trkpt>
<trkpt lat="-28.6901061" lon="151.9093400">
<ele>756.323</ele>
<time>2017-04-06T04:26:18.348Z</time>
</trkpt>
<trkpt lat="-28.6906697" lon="151.9087439">
<ele>755.502</ele>
<time>2017-04-06T04:26:21.367Z</time>
</trkpt>
<trkpt lat="-28.6913123" lon="151.9082623">
<ele>755.158</ele>
<time>2017-04-06T04:26:24.381Z</time>
</trkpt>
<trkpt lat="-28.6919835" lon="151.9078411">
<ele>755.097</ele>
<time>2017-04-06T04:26:27.390Z</time>
</trkpt>
<trkpt lat="-28.6926932" lon="151.9075257">
<ele>755.134</ele>
<time>2017-04-06T04:26:30.389Z</time>
</trkpt>
<trkpt lat="-28.6931794" lon="151.9073534">
<ele>755.256</ele>
<time>2017-04-06T04:26:32.397Z</time>
</trkpt>
<trkpt lat="-28.6939243" lon="151.9071546">
<ele>755.475</ele>
<time>2017-04-06T04:26:35.409Z</time>
</trkpt>
<trkpt lat="-28.6944171" lon="151.9070184">
<ele>755.672</ele>
<time>2017-04-06T04:26:37.402Z</time>
</trkpt>
<trkpt lat="-28.6949162" lon="151.9068934">
<ele>755.662</ele>
<time>2017-04-06T04:26:39.401Z</time>
</trkpt>
<trkpt lat="-28.6954133" lon="151.9067310">
<ele>755.227</ele>
<time>2017-04-06T04:26:41.415Z</time>
</trkpt>
<trkpt lat="-28.6959107" lon="151.9065956">
<ele>754.218</ele>
<time>2017-04-06T04:26:43.411Z</time>
</trkpt>
<trkpt lat="-28.6966502" lon="151.9063970">
<ele>752.839</ele>
<time>2017-04-06T04:26:46.390Z</time>
</trkpt>
<trkpt lat="-28.6971476" lon="151.9062641">
<ele>751.326</ele>
<time>2017-04-06T04:26:48.397Z</time>
</trkpt>
<trkpt lat="-28.6978917" lon="151.9060607">
<ele>749.710</ele>
<time>2017-04-06T04:26:51.408Z</time>
</trkpt>
<trkpt lat="-28.6986171" lon="151.9058622">
<ele>748.053</ele>
<time>2017-04-06T04:26:54.388Z</time>
</trkpt>
<trkpt lat="-28.6990811" lon="151.9056895">
<ele>746.447</ele>
<time>2017-04-06T04:26:56.371Z</time>
</trkpt>
<trkpt lat="-28.6997887" lon="151.9054448">
<ele>745.036</ele>
<time>2017-04-06T04:26:59.388Z</time>
</trkpt>
<trkpt lat="-28.7004973" lon="151.9052078">
<ele>744.006</ele>
<time>2017-04-06T04:27:02.397Z</time>
</trkpt>
<trkpt lat="-28.7009580" lon="151.9050267">
<ele>743.255</ele>
<time>2017-04-06T04:27:04.379Z</time>
</trkpt>
<trkpt lat="-28.7014061" lon="151.9048076">
<ele>742.618</ele>
<time>2017-04-06T04:27:06.366Z</time>
</trkpt>
<trkpt lat="-28.7020686" lon="151.9044415">
<ele>742.085</ele>
<time>2017-04-06T04:27:09.375Z</time>
</trkpt>
<trkpt lat="-28.7027034" lon="151.9040239">
<ele>741.626</ele>
<time>2017-04-06T04:27:12.367Z</time>
</trkpt>
<trkpt lat="-28.7031004" lon="151.9037154">
<ele>741.205</ele>
<time>2017-04-06T04:27:14.325Z</time>
</trkpt>
<trkpt lat="-28.7036599" lon="151.9031543">
<ele>740.873</ele>
<time>2017-04-06T04:27:17.353Z</time>
</trkpt>
<trkpt lat="-28.7042878" lon="151.9027068">
<ele>740.676</ele>
<time>2017-04-06T04:27:20.357Z</time>
</trkpt>
<trkpt lat="-28.7049413" lon="151.9023218">
<ele>740.620</ele>
<time>2017-04-06T04:27:23.345Z</time>
</trkpt>
<trkpt lat="-28.7054092" lon="151.9021383">
<ele>740.693</ele>
<time>2017-04-06T04:27:25.355Z</time>
</trkpt>
<trkpt lat="-28.7061303" lon="151.9019724">
<ele>740.902</ele>
<time>2017-04-06T04:27:28.339Z</time>
</trkpt>
<trkpt lat="-28.7068454" lon="151.9018345">
<ele>741.290</ele>
<time>2017-04-06T04:27:31.323Z</time>
</trkpt>
<trkpt lat="-28.7073114" lon="151.9018445">
<ele>741.885</ele>
<time>2017-04-06T04:27:33.288Z</time>
</trkpt>
<trkpt lat="-28.7077829" lon="151.9018341">
<ele>742.559</ele>
<time>2017-04-06T04:27:35.300Z</time>
</trkpt>
<trkpt lat="-28.7084794" lon="151.9018603">
<ele>743.061</ele>
<time>2017-04-06T04:27:38.289Z</time>
</trkpt>
<trkpt lat="-28.7091657" lon="151.9017485">
<ele>743.207</ele>
<time>2017-04-06T04:27:41.273Z</time>
</trkpt>
<trkpt lat="-28.7096388" lon="151.9016180">
<ele>743.037</ele>
<time>2017-04-06T04:27:43.361Z</time>
</trkpt>
<trkpt lat="-28.7100986" lon="151.9014707">
<ele>742.708</ele>
<time>2017-04-06T04:27:45.388Z</time>
</trkpt>
<trkpt lat="-28.7107866" lon="151.9011487">
<ele>742.351</ele>
<time>2017-04-06T04:27:48.471Z</time>
</trkpt>
<trkpt lat="-28.7114137" lon="151.9007591">
<ele>742.026</ele>
<time>2017-04-06T04:27:51.435Z</time>
</trkpt>
<trkpt lat="-28.7119771" lon="151.9003082">
<ele>741.514</ele>
<time>2017-04-06T04:27:54.365Z</time>
</trkpt>
<trkpt lat="-28.7123112" lon="151.8999633">
<ele>740.468</ele>
<time>2017-04-06T04:27:56.336Z</time>
</trkpt>
<trkpt lat="-28.7128101" lon="151.8995658">
<ele>739.036</ele>
<time>2017-04-06T04:27:59.155Z</time>
</trkpt>
<trkpt lat="-28.7132724" lon="151.8991630">
<ele>737.601</ele>
<time>2017-04-06T04:28:02.065Z</time>
</trkpt>
<trkpt lat="-28.7135636" lon="151.8988929">
<ele>736.353</ele>
<time>2017-04-06T04:28:04.001Z</time>
</trkpt>
<trkpt lat="-28.7138874" lon="151.8985963">
<ele>735.505</ele>
<time>2017-04-06T04:28:06.096Z</time>
</trkpt>
<trkpt lat="-28.7144713" lon="151.8980924">
<ele>735.348</ele>
<time>2017-04-06T04:28:09.348Z</time>
</trkpt>
<trkpt lat="-28.7148922" lon="151.8977419">
<ele>736.265</ele>
<time>2017-04-06T04:28:11.428Z</time>
</trkpt>
<trkpt lat="-28.7152822" lon="151.8973655">
<ele>738.232</ele>
<time>2017-04-06T04:28:13.431Z</time>
</trkpt>
<trkpt lat="-28.7158151" lon="151.8967693">
<ele>740.485</ele>
<time>2017-04-06T04:28:16.388Z</time>
</trkpt>
<trkpt lat="-28.7161314" lon="151.8963297">
<ele>742.441</ele>
<time>2017-04-06T04:28:18.379Z</time>
</trkpt>
<trkpt lat="-28.7164539" lon="151.8958826">
<ele>743.924</ele>
<time>2017-04-06T04:28:20.398Z</time>
</trkpt>
<trkpt lat="-28.7167836" lon="151.8954526">
<ele>744.690</ele>
<time>2017-04-06T04:28:22.388Z</time>
</trkpt>
<trkpt lat="-28.7171090" lon="151.8950220">
<ele>744.769</ele>
<time>2017-04-06T04:28:24.376Z</time>
</trkpt>
<trkpt lat="-28.7177036" lon="151.8944855">
<ele>744.521</ele>
<time>2017-04-06T04:28:27.396Z</time>
</trkpt>
<trkpt lat="-28.7181168" lon="151.8941084">
<ele>744.235</ele>
<time>2017-04-06T04:28:29.488Z</time>
</trkpt>
<trkpt lat="-28.7185207" lon="151.8937435">
<ele>744.050</ele>
<time>2017-04-06T04:28:31.516Z</time>
</trkpt>
<trkpt lat="-28.7188549" lon="151.8933093">
<ele>743.918</ele>
<time>2017-04-06T04:28:33.505Z</time>
</trkpt>
<trkpt lat="-28.7191956" lon="151.8928726">
<ele>743.585</ele>
<time>2017-04-06T04:28:35.520Z</time>
</trkpt>
<trkpt lat="-28.7197200" lon="151.8922572">
<ele>742.797</ele>
<time>2017-04-06T04:28:38.494Z</time>
</trkpt>
<trkpt lat="-28.7200203" lon="151.8918094">
<ele>741.508</ele>
<time>2017-04-06T04:28:40.470Z</time>
</trkpt>
<trkpt lat="-28.7205437" lon="151.8912325">
<ele>739.993</ele>
<time>2017-04-06T04:28:43.432Z</time>
</trkpt>
<trkpt lat="-28.7210533" lon="151.8907396">
<ele>738.672</ele>
<time>2017-04-06T04:28:46.301Z</time>
</trkpt>
<trkpt lat="-28.7214002" lon="151.8904494">
<ele>737.819</ele>
<time>2017-04-06T04:28:48.265Z</time>
</trkpt>
<trkpt lat="-28.7217659" lon="151.8902267">
<ele>737.548</ele>
<time>2017-04-06T04:28:50.211Z</time>
</trkpt>
<trkpt lat="-28.7222865" lon="151.8899081">
<ele>737.789</ele>
<time>2017-04-06T04:28:53.092Z</time>
</trkpt>
<trkpt lat="-28.7226036" lon="151.8896782">
<ele>738.412</ele>
<time>2017-04-06T04:28:55.019Z</time>
</trkpt>
<trkpt lat="-28.7230231" lon="151.8893716">
<ele>739.325</ele>
<time>2017-04-06T04:28:57.770Z</time>
</trkpt>
<trkpt lat="-28.7232850" lon="151.8892313">
<ele>740.226</ele>
<time>2017-04-06T04:28:59.538Z</time>
</trkpt>
<trkpt lat="-28.7236323" lon="151.8889697">
<ele>740.784</ele>
<time>2017-04-06T04:29:02.342Z</time>
</trkpt>
<trkpt lat="-28.7239589" lon="151.8887559">
<ele>741.050</ele>
<time>2017-04-06T04:29:04.709Z</time>
</trkpt>
<trkpt lat="-28.7243319" lon="151.8884822">
<ele>741.402</ele>
<time>2017-04-06T04:29:06.979Z</time>
</trkpt>
<trkpt lat="-28.7249757" lon="151.8880425">
<ele>742.234</ele>
<time>2017-04-06T04:29:10.217Z</time>
</trkpt>
<trkpt lat="-28.7254668" lon="151.8877107">
<ele>743.733</ele>
<time>2017-04-06T04:29:12.461Z</time>
</trkpt>
<trkpt lat="-28.7258900" lon="151.8874191">
<ele>745.664</ele>
<time>2017-04-06T04:29:14.384Z</time>
</trkpt>
<trkpt lat="-28.7263256" lon="151.8871182">
<ele>747.396</ele>
<time>2017-04-06T04:29:16.373Z</time>
</trkpt>
<trkpt lat="-28.7269658" lon="151.8866524">
<ele>748.459</ele>
<time>2017-04-06T04:29:19.344Z</time>
</trkpt>
<trkpt lat="-28.7276412" lon="151.8862376">
<ele>748.920</ele>
<time>2017-04-06T04:29:22.347Z</time>
</trkpt>
<trkpt lat="-28.7280853" lon="151.8859546">
<ele>748.973</ele>
<time>2017-04-06T04:29:24.341Z</time>
</trkpt>
<trkpt lat="-28.7285164" lon="151.8856409">
<ele>748.728</ele>
<time>2017-04-06T04:29:26.344Z</time>
</trkpt>
<trkpt lat="-28.7289540" lon="151.8853354">
<ele>748.319</ele>
<time>2017-04-06T04:29:28.347Z</time>
</trkpt>
<trkpt lat="-28.7295970" lon="151.8848665">
<ele>747.825</ele>
<time>2017-04-06T04:29:31.321Z</time>
</trkpt>
<trkpt lat="-28.7302731" lon="151.8844416">
<ele>747.328</ele>
<time>2017-04-06T04:29:34.326Z</time>
</trkpt>
<trkpt lat="-28.7309254" lon="151.8839834">
<ele>746.970</ele>
<time>2017-04-06T04:29:37.312Z</time>
</trkpt>
<trkpt lat="-28.7315649" lon="151.8835232">
<ele>746.741</ele>
<time>2017-04-06T04:29:40.290Z</time>
</trkpt>
<trkpt lat="-28.7319326" lon="151.8832084">
<ele>746.202</ele>
<time>2017-04-06T04:29:42.191Z</time>
</trkpt>
<trkpt lat="-28.7322807" lon="151.8829367">
<ele>744.871</ele>
<time>2017-04-06T04:29:44.063Z</time>
</trkpt>
<trkpt lat="-28.7327577" lon="151.8825141">
<ele>742.798</ele>
<time>2017-04-06T04:29:46.929Z</time>
</trkpt>
<trkpt lat="-28.7332406" lon="151.8821229">
<ele>740.306</ele>
<time>2017-04-06T04:29:49.872Z</time>
</trkpt>
<trkpt lat="-28.7337217" lon="151.8817493">
<ele>737.712</ele>
<time>2017-04-06T04:29:52.808Z</time>
</trkpt>
<trkpt lat="-28.7340318" lon="151.8814619">
<ele>735.642</ele>
<time>2017-04-06T04:29:54.820Z</time>
</trkpt>
<trkpt lat="-28.7345735" lon="151.8811671">
<ele>734.682</ele>
<time>2017-04-06T04:29:57.812Z</time>
</trkpt>
<trkpt lat="-28.7351117" lon="151.8808499">
<ele>734.882</ele>
<time>2017-04-06T04:30:00.810Z</time>
</trkpt>
<trkpt lat="-28.7356858" lon="151.8806316">
<ele>736.029</ele>
<time>2017-04-06T04:30:03.791Z</time>
</trkpt>
<trkpt lat="-28.7362450" lon="151.8803733">
<ele>737.923</ele>
<time>2017-04-06T04:30:06.760Z</time>
</trkpt>
<trkpt lat="-28.7368070" lon="151.8800986">
<ele>740.149</ele>
<time>2017-04-06T04:30:09.770Z</time>
</trkpt>
<trkpt lat="-28.7373170" lon="151.8797362">
<ele>742.032</ele>
<time>2017-04-06T04:30:12.741Z</time>
</trkpt>
<trkpt lat="-28.7378046" lon="151.8793430">
<ele>743.098</ele>
<time>2017-04-06T04:30:15.721Z</time>
</trkpt>
<trkpt lat="-28.7381053" lon="151.8790412">
<ele>743.235</ele>
<time>2017-04-06T04:30:17.731Z</time>
</trkpt>
<trkpt lat="-28.7386155" lon="151.8786854">
<ele>742.583</ele>
<time>2017-04-06T04:30:20.737Z</time>
</trkpt>
<trkpt lat="-28.7391223" lon="151.8783221">
<ele>741.444</ele>
<time>2017-04-06T04:30:23.745Z</time>
</trkpt>
<trkpt lat="-28.7396224" lon="151.8779664">
<ele>740.135</ele>
<time>2017-04-06T04:30:26.717Z</time>
</trkpt>
<trkpt lat="-28.7399886" lon="151.8777732">
<ele>738.842</ele>
<time>2017-04-06T04:30:28.754Z</time>
</trkpt>
<trkpt lat="-28.7404792" lon="151.8773834">
<ele>737.720</ele>
<time>2017-04-06T04:30:31.765Z</time>
</trkpt>
<trkpt lat="-28.7407845" lon="151.8770769">
<ele>736.927</ele>
<time>2017-04-06T04:30:33.799Z</time>
</trkpt>
<trkpt lat="-28.7412280" lon="151.8765926">
<ele>736.522</ele>
<time>2017-04-06T04:30:36.818Z</time>
</trkpt>
<trkpt lat="-28.7414804" lon="151.8762294">
<ele>736.317</ele>
<time>2017-04-06T04:30:38.804Z</time>
</trkpt>
<trkpt lat="-28.7418518" lon="151.8756577">
<ele>736.058</ele>
<time>2017-04-06T04:30:41.851Z</time>
</trkpt>
<trkpt lat="-28.7421252" lon="151.8752401">
<ele>735.625</ele>
<time>2017-04-06T04:30:43.989Z</time>
</trkpt>
<trkpt lat="-28.7426966" lon="151.8747166">
<ele>735.138</ele>
<time>2017-04-06T04:30:47.114Z</time>
</trkpt>
<trkpt lat="-28.7431069" lon="151.8743733">
<ele>734.810</ele>
<time>2017-04-06T04:30:49.157Z</time>
</trkpt>
<trkpt lat="-28.7437713" lon="151.8739559">
<ele>734.803</ele>
<time>2017-04-06T04:30:52.158Z</time>
</trkpt>
<trkpt lat="-28.7442607" lon="151.8737375">
<ele>735.253</ele>
<time>2017-04-06T04:30:54.238Z</time>
</trkpt>
<trkpt lat="-28.7449865" lon="151.8734688">
<ele>736.183</ele>
<time>2017-04-06T04:30:57.256Z</time>
</trkpt>
<trkpt lat="-28.7454583" lon="151.8732719">
<ele>737.562</ele>
<time>2017-04-06T04:30:59.241Z</time>
</trkpt>
<trkpt lat="-28.7461598" lon="151.8729335">
<ele>739.415</ele>
<time>2017-04-06T04:31:02.249Z</time>
</trkpt>
<trkpt lat="-28.7466314" lon="151.8726965">
<ele>741.758</ele>
<time>2017-04-06T04:31:04.269Z</time>
</trkpt>
<trkpt lat="-28.7473101" lon="151.8722859">
<ele>744.335</ele>
<time>2017-04-06T04:31:07.266Z</time>
</trkpt>
<trkpt lat="-28.7478005" lon="151.8719739">
<ele>746.819</ele>
<time>2017-04-06T04:31:09.451Z</time>
</trkpt>
<trkpt lat="-28.7482151" lon="151.8716666">
<ele>748.983</ele>
<time>2017-04-06T04:31:11.368Z</time>
</trkpt>
<trkpt lat="-28.7488912" lon="151.8712264">
<ele>750.505</ele>
<time>2017-04-06T04:31:14.382Z</time>
</trkpt>
<trkpt lat="-28.7496056" lon="151.8707911">
<ele>750.896</ele>
<time>2017-04-06T04:31:17.520Z</time>
</trkpt>
<trkpt lat="-28.7500340" lon="151.8705245">
<ele>749.930</ele>
<time>2017-04-06T04:31:19.415Z</time>
</trkpt>
<trkpt lat="-28.7507280" lon="151.8701412">
<ele>748.022</ele>
<time>2017-04-06T04:31:22.413Z</time>
</trkpt>
<trkpt lat="-28.7511748" lon="151.8698661">
<ele>746.038</ele>
<time>2017-04-06T04:31:24.389Z</time>
</trkpt>
<trkpt lat="-28.7515910" lon="151.8695603">
<ele>744.574</ele>
<time>2017-04-06T04:31:26.323Z</time>
</trkpt>
<trkpt lat="-28.7520040" lon="151.8692017">
<ele>743.792</ele>
<time>2017-04-06T04:31:28.355Z</time>
</trkpt>
<trkpt lat="-28.7526226" lon="151.8686973">
<ele>743.589</ele>
<time>2017-04-06T04:31:31.329Z</time>
</trkpt>
<trkpt lat="-28.7530602" lon="151.8683887">
<ele>743.766</ele>
<time>2017-04-06T04:31:33.342Z</time>
</trkpt>
<trkpt lat="-28.7536820" lon="151.8678694">
<ele>744.124</ele>
<time>2017-04-06T04:31:36.354Z</time>
</trkpt>
<trkpt lat="-28.7540629" lon="151.8674396">
<ele>744.456</ele>
<time>2017-04-06T04:31:38.438Z</time>
</trkpt>
<trkpt lat="-28.7543209" lon="151.8669110">
<ele>744.639</ele>
<time>2017-04-06T04:31:40.489Z</time>
</trkpt>
<trkpt lat="-28.7548225" lon="151.8662367">
<ele>744.576</ele>
<time>2017-04-06T04:31:43.476Z</time>
</trkpt>
<trkpt lat="-28.7551695" lon="151.8658111">
<ele>744.023</ele>
<time>2017-04-06T04:31:45.447Z</time>
</trkpt>
<trkpt lat="-28.7557508" lon="151.8652699">
<ele>743.070</ele>
<time>2017-04-06T04:31:48.379Z</time>
</trkpt>
<trkpt lat="-28.7561890" lon="151.8649618">
<ele>742.310</ele>
<time>2017-04-06T04:31:50.399Z</time>
</trkpt>
<trkpt lat="-28.7566448" lon="151.8646848">
<ele>742.220</ele>
<time>2017-04-06T04:31:52.417Z</time>
</trkpt>
<trkpt lat="-28.7570820" lon="151.8643672">
<ele>742.774</ele>
<time>2017-04-06T04:31:54.436Z</time>
</trkpt>
<trkpt lat="-28.7577228" lon="151.8638959">
<ele>743.564</ele>
<time>2017-04-06T04:31:57.411Z</time>
</trkpt>
<trkpt lat="-28.7584260" lon="151.8635357">
<ele>744.129</ele>
<time>2017-04-06T04:32:00.411Z</time>
</trkpt>
<trkpt lat="-28.7591453" lon="151.8631117">
<ele>744.343</ele>
<time>2017-04-06T04:32:03.538Z</time>
</trkpt>
<trkpt lat="-28.7598020" lon="151.8627231">
<ele>744.345</ele>
<time>2017-04-06T04:32:06.398Z</time>
</trkpt>
<trkpt lat="-28.7602705" lon="151.8624398">
<ele>744.322</ele>
<time>2017-04-06T04:32:08.448Z</time>
</trkpt>
<trkpt lat="-28.7607308" lon="151.8621896">
<ele>744.363</ele>
<time>2017-04-06T04:32:10.417Z</time>
</trkpt>
<trkpt lat="-28.7611952" lon="151.8619139">
<ele>744.356</ele>
<time>2017-04-06T04:32:12.452Z</time>
</trkpt>
<trkpt lat="-28.7619165" lon="151.8615669">
<ele>744.126</ele>
<time>2017-04-06T04:32:15.505Z</time>
</trkpt>
<trkpt lat="-28.7624277" lon="151.8614443">
<ele>743.671</ele>
<time>2017-04-06T04:32:17.538Z</time>
</trkpt>
<trkpt lat="-28.7631794" lon="151.8613408">
<ele>743.193</ele>
<time>2017-04-06T04:32:20.489Z</time>
</trkpt>
<trkpt lat="-28.7636827" lon="151.8612920">
<ele>743.041</ele>
<time>2017-04-06T04:32:22.463Z</time>
</trkpt>
<trkpt lat="-28.7641886" lon="151.8611891">
<ele>743.368</ele>
<time>2017-04-06T04:32:24.465Z</time>
</trkpt>
<trkpt lat="-28.7647092" lon="151.8611142">
<ele>743.918</ele>
<time>2017-04-06T04:32:26.497Z</time>
</trkpt>
<trkpt lat="-28.7652070" lon="151.8610228">
<ele>744.469</ele>
<time>2017-04-06T04:32:28.450Z</time>
</trkpt>
<trkpt lat="-28.7659650" lon="151.8609139">
<ele>745.112</ele>
<time>2017-04-06T04:32:31.423Z</time>
</trkpt>
<trkpt lat="-28.7667192" lon="151.8608014">
<ele>746.117</ele>
<time>2017-04-06T04:32:34.393Z</time>
</trkpt>
<trkpt lat="-28.7674691" lon="151.8606021">
<ele>747.786</ele>
<time>2017-04-06T04:32:37.407Z</time>
</trkpt>
<trkpt lat="-28.7681707" lon="151.8602349">
<ele>750.216</ele>
<time>2017-04-06T04:32:40.422Z</time>
</trkpt>
<trkpt lat="-28.7686232" lon="151.8599524">
<ele>753.242</ele>
<time>2017-04-06T04:32:42.433Z</time>
</trkpt>
<trkpt lat="-28.7692621" lon="151.8594611">
<ele>756.474</ele>
<time>2017-04-06T04:32:45.428Z</time>
</trkpt>
<trkpt lat="-28.7696593" lon="151.8590757">
<ele>759.580</ele>
<time>2017-04-06T04:32:47.443Z</time>
</trkpt>
<trkpt lat="-28.7701732" lon="151.8584145">
<ele>762.203</ele>
<time>2017-04-06T04:32:50.415Z</time>
</trkpt>
<trkpt lat="-28.7705070" lon="151.8579252">
<ele>763.848</ele>
<time>2017-04-06T04:32:52.497Z</time>
</trkpt>
<trkpt lat="-28.7710044" lon="151.8572358">
<ele>764.402</ele>
<time>2017-04-06T04:32:55.508Z</time>
</trkpt>
<trkpt lat="-28.7713427" lon="151.8567978">
<ele>764.187</ele>
<time>2017-04-06T04:32:57.483Z</time>
</trkpt>
<trkpt lat="-28.7716767" lon="151.8563535">
<ele>763.331</ele>
<time>2017-04-06T04:32:59.470Z</time>
</trkpt>
<trkpt lat="-28.7721695" lon="151.8556735">
<ele>761.826</ele>
<time>2017-04-06T04:33:02.470Z</time>
</trkpt>
<trkpt lat="-28.7724836" lon="151.8552293">
<ele>759.659</ele>
<time>2017-04-06T04:33:04.417Z</time>
</trkpt>
<trkpt lat="-28.7727500" lon="151.8547316">
<ele>757.298</ele>
<time>2017-04-06T04:33:06.413Z</time>
</trkpt>
<trkpt lat="-28.7731723" lon="151.8539818">
<ele>756.142</ele>
<time>2017-04-06T04:33:09.449Z</time>
</trkpt>
<trkpt lat="-28.7736777" lon="151.8533327">
<ele>757.109</ele>
<time>2017-04-06T04:33:12.415Z</time>
</trkpt>
<trkpt lat="-28.7742193" lon="151.8527102">
<ele>759.235</ele>
<time>2017-04-06T04:33:15.433Z</time>
</trkpt>
<trkpt lat="-28.7746895" lon="151.8524327">
<ele>760.923</ele>
<time>2017-04-06T04:33:17.500Z</time>
</trkpt>
<trkpt lat="-28.7753688" lon="151.8519930">
<ele>757.688</ele>
<time>2017-04-06T04:33:20.537Z</time>
</trkpt>
<trkpt lat="-28.7758244" lon="151.8516759">
<ele>747.151</ele>
<time>2017-04-06T04:33:22.609Z</time>
</trkpt>
<trkpt lat="-28.7765130" lon="151.8512571">
<ele>735.363</ele>
<time>2017-04-06T04:33:25.635Z</time>
</trkpt>
<trkpt lat="-28.7770056" lon="151.8510460">
<ele>728.394</ele>
<time>2017-04-06T04:33:27.673Z</time>
</trkpt>
<trkpt lat="-28.7777399" lon="151.8507254">
<ele>725.452</ele>
<time>2017-04-06T04:33:30.718Z</time>
</trkpt>
<trkpt lat="-28.7781750" lon="151.8504207">
<ele>724.211</ele>
<time>2017-04-06T04:33:32.699Z</time>
</trkpt>
<trkpt lat="-28.7786040" lon="151.8500979">
<ele>723.113</ele>
<time>2017-04-06T04:33:34.694Z</time>
</trkpt>
<trkpt lat="-28.7792198" lon="151.8495451">
<ele>721.629</ele>
<time>2017-04-06T04:33:37.731Z</time>
</trkpt>
<trkpt lat="-28.7798724" lon="151.8489713">
<ele>719.559</ele>
<time>2017-04-06T04:33:40.935Z</time>
</trkpt>
<trkpt lat="-28.7802796" lon="151.8486233">
<ele>716.650</ele>
<time>2017-04-06T04:33:42.919Z</time>
</trkpt>
<trkpt lat="-28.7808796" lon="151.8480501">
<ele>713.280</ele>
<time>2017-04-06T04:33:45.970Z</time>
</trkpt>
<trkpt lat="-28.7812739" lon="151.8477173">
<ele>710.185</ele>
<time>2017-04-06T04:33:47.888Z</time>
</trkpt>
<trkpt lat="-28.7816005" lon="151.8472605">
<ele>707.700</ele>
<time>2017-04-06T04:33:49.906Z</time>
</trkpt>
<trkpt lat="-28.7819379" lon="151.8468110">
<ele>705.877</ele>
<time>2017-04-06T04:33:51.925Z</time>
</trkpt>
<trkpt lat="-28.7822351" lon="151.8463396">
<ele>704.707</ele>
<time>2017-04-06T04:33:53.906Z</time>
</trkpt>
<trkpt lat="-28.7827233" lon="151.8456560">
<ele>704.039</ele>
<time>2017-04-06T04:33:56.917Z</time>
</trkpt>
<trkpt lat="-28.7830515" lon="151.8452132">
<ele>703.568</ele>
<time>2017-04-06T04:33:58.898Z</time>
</trkpt>
<trkpt lat="-28.7833667" lon="151.8447480">
<ele>702.977</ele>
<time>2017-04-06T04:34:00.905Z</time>
</trkpt>
<trkpt lat="-28.7837195" lon="151.8443190">
<ele>702.187</ele>
<time>2017-04-06T04:34:02.906Z</time>
</trkpt>
<trkpt lat="-28.7842452" lon="151.8436705">
<ele>701.327</ele>
<time>2017-04-06T04:34:05.898Z</time>
</trkpt>
<trkpt lat="-28.7846055" lon="151.8432559">
<ele>700.377</ele>
<time>2017-04-06T04:34:07.876Z</time>
</trkpt>
<trkpt lat="-28.7852473" lon="151.8427570">
<ele>699.160</ele>
<time>2017-04-06T04:34:10.885Z</time>
</trkpt>
<trkpt lat="-28.7858998" lon="151.8422893">
<ele>697.547</ele>
<time>2017-04-06T04:34:13.871Z</time>
</trkpt>
<trkpt lat="-28.7863459" lon="151.8419988">
<ele>695.482</ele>
<time>2017-04-06T04:34:15.864Z</time>
</trkpt>
<trkpt lat="-28.7870006" lon="151.8415493">
<ele>693.147</ele>
<time>2017-04-06T04:34:18.839Z</time>
</trkpt>
<trkpt lat="-28.7874405" lon="151.8412509">
<ele>691.082</ele>
<time>2017-04-06T04:34:20.842Z</time>
</trkpt>
<trkpt lat="-28.7878759" lon="151.8409468">
<ele>689.787</ele>
<time>2017-04-06T04:34:22.845Z</time>
</trkpt>
<trkpt lat="-28.7883215" lon="151.8406679">
<ele>689.436</ele>
<time>2017-04-06T04:34:24.836Z</time>
</trkpt>
<trkpt lat="-28.7889528" lon="151.8401703">
<ele>689.949</ele>
<time>2017-04-06T04:34:27.835Z</time>
</trkpt>
<trkpt lat="-28.7896146" lon="151.8397226">
<ele>691.195</ele>
<time>2017-04-06T04:34:30.840Z</time>
</trkpt>
<trkpt lat="-28.7902770" lon="151.8392954">
<ele>693.091</ele>
<time>2017-04-06T04:34:33.854Z</time>
</trkpt>
<trkpt lat="-28.7909441" lon="151.8390244">
<ele>695.537</ele>
<time>2017-04-06T04:34:36.824Z</time>
</trkpt>
<trkpt lat="-28.7915247" lon="151.8387654">
<ele>698.060</ele>
<time>2017-04-06T04:34:39.688Z</time>
</trkpt>
<trkpt lat="-28.7920654" lon="151.8385238">
<ele>699.942</ele>
<time>2017-04-06T04:34:42.570Z</time>
</trkpt>
<trkpt lat="-28.7926056" lon="151.8382504">
<ele>700.887</ele>
<time>2017-04-06T04:34:45.592Z</time>
</trkpt>
<trkpt lat="-28.7931542" lon="151.8380517">
<ele>701.256</ele>
<time>2017-04-06T04:34:48.538Z</time>
</trkpt>
<trkpt lat="-28.7935158" lon="151.8379515">
<ele>701.647</ele>
<time>2017-04-06T04:34:50.447Z</time>
</trkpt>
<trkpt lat="-28.7938987" lon="151.8379421">
<ele>702.489</ele>
<time>2017-04-06T04:34:52.409Z</time>
</trkpt>
<trkpt lat="-28.7944880" lon="151.8380758">
<ele>703.759</ele>
<time>2017-04-06T04:34:55.474Z</time>
</trkpt>
<trkpt lat="-28.7948573" lon="151.8382782">
<ele>705.354</ele>
<time>2017-04-06T04:34:57.543Z</time>
</trkpt>
<trkpt lat="-28.7953325" lon="151.8387110">
<ele>707.252</ele>
<time>2017-04-06T04:35:00.574Z</time>
</trkpt>
<trkpt lat="-28.7956113" lon="151.8390399">
<ele>709.411</ele>
<time>2017-04-06T04:35:02.550Z</time>
</trkpt>
<trkpt lat="-28.7960196" lon="151.8395585">
<ele>711.627</ele>
<time>2017-04-06T04:35:05.552Z</time>
</trkpt>
<trkpt lat="-28.7962903" lon="151.8399117">
<ele>713.381</ele>
<time>2017-04-06T04:35:07.582Z</time>
</trkpt>
<trkpt lat="-28.7965325" lon="151.8402832">
<ele>714.200</ele>
<time>2017-04-06T04:35:09.589Z</time>
</trkpt>
<trkpt lat="-28.7968875" lon="151.8408716">
<ele>714.159</ele>
<time>2017-04-06T04:35:12.655Z</time>
</trkpt>
<trkpt lat="-28.7971775" lon="151.8412093">
<ele>713.508</ele>
<time>2017-04-06T04:35:14.666Z</time>
</trkpt>
<trkpt lat="-28.7974846" lon="151.8415245">
<ele>712.452</ele>
<time>2017-04-06T04:35:16.674Z</time>
</trkpt>
<trkpt lat="-28.7980213" lon="151.8418545">
<ele>711.305</ele>
<time>2017-04-06T04:35:19.651Z</time>
</trkpt>
<trkpt lat="-28.7983859" lon="151.8420629">
<ele>710.234</ele>
<time>2017-04-06T04:35:21.648Z</time>
</trkpt>
<trkpt lat="-28.7989438" lon="151.8423563">
<ele>709.134</ele>
<time>2017-04-06T04:35:24.663Z</time>
</trkpt>
<trkpt lat="-28.7995095" lon="151.8425496">
<ele>707.843</ele>
<time>2017-04-06T04:35:27.601Z</time>
</trkpt>
<trkpt lat="-28.8000783" lon="151.8426798">
<ele>706.285</ele>
<time>2017-04-06T04:35:30.575Z</time>
</trkpt>
<trkpt lat="-28.8006346" lon="151.8427081">
<ele>704.600</ele>
<time>2017-04-06T04:35:33.550Z</time>
</trkpt>
<trkpt lat="-28.8011662" lon="151.8427453">
<ele>703.041</ele>
<time>2017-04-06T04:35:36.492Z</time>
</trkpt>
<trkpt lat="-28.8017281" lon="151.8427839">
<ele>701.738</ele>
<time>2017-04-06T04:35:39.566Z</time>
</trkpt>
<trkpt lat="-28.8021156" lon="151.8427965">
<ele>700.804</ele>
<time>2017-04-06T04:35:41.600Z</time>
</trkpt>
<trkpt lat="-28.8025104" lon="151.8428232">
<ele>700.242</ele>
<time>2017-04-06T04:35:43.626Z</time>
</trkpt>
<trkpt lat="-28.8029023" lon="151.8428648">
<ele>699.858</ele>
<time>2017-04-06T04:35:45.623Z</time>
</trkpt>
<trkpt lat="-28.8034943" lon="151.8429418">
<ele>699.526</ele>
<time>2017-04-06T04:35:48.621Z</time>
</trkpt>
<trkpt lat="-28.8040878" lon="151.8431206">
<ele>699.206</ele>
<time>2017-04-06T04:35:51.650Z</time>
</trkpt>
<trkpt lat="-28.8045173" lon="151.8432384">
<ele>698.783</ele>
<time>2017-04-06T04:35:53.748Z</time>
</trkpt>
<trkpt lat="-28.8051946" lon="151.8434637">
<ele>698.269</ele>
<time>2017-04-06T04:35:56.910Z</time>
</trkpt>
<trkpt lat="-28.8058229" lon="151.8438533">
<ele>697.886</ele>
<time>2017-04-06T04:35:59.882Z</time>
</trkpt>
<trkpt lat="-28.8064983" lon="151.8442832">
<ele>697.859</ele>
<time>2017-04-06T04:36:02.948Z</time>
</trkpt>
<trkpt lat="-28.8071686" lon="151.8447102">
<ele>698.170</ele>
<time>2017-04-06T04:36:05.945Z</time>
</trkpt>
<trkpt lat="-28.8076512" lon="151.8449744">
<ele>698.483</ele>
<time>2017-04-06T04:36:08.029Z</time>
</trkpt>
<trkpt lat="-28.8081448" lon="151.8451684">
<ele>698.422</ele>
<time>2017-04-06T04:36:10.062Z</time>
</trkpt>
<trkpt lat="-28.8089127" lon="151.8453901">
<ele>697.971</ele>
<time>2017-04-06T04:36:13.149Z</time>
</trkpt>
<trkpt lat="-28.8093762" lon="151.8456132">
<ele>697.296</ele>
<time>2017-04-06T04:36:15.110Z</time>
</trkpt>
<trkpt lat="-28.8101085" lon="151.8458679">
<ele>696.602</ele>
<time>2017-04-06T04:36:18.094Z</time>
</trkpt>
<trkpt lat="-28.8108274" lon="151.8461771">
<ele>696.287</ele>
<time>2017-04-06T04:36:21.086Z</time>
</trkpt>
<trkpt lat="-28.8113169" lon="151.8463368">
<ele>696.648</ele>
<time>2017-04-06T04:36:23.067Z</time>
</trkpt>
<trkpt lat="-28.8117885" lon="151.8465597">
<ele>697.365</ele>
<time>2017-04-06T04:36:25.048Z</time>
</trkpt>
<trkpt lat="-28.8125800" lon="151.8467375">
<ele>697.764</ele>
<time>2017-04-06T04:36:28.169Z</time>
</trkpt>
<trkpt lat="-28.8131027" lon="151.8467660">
<ele>697.378</ele>
<time>2017-04-06T04:36:30.197Z</time>
</trkpt>
<trkpt lat="-28.8138495" lon="151.8465514">
<ele>696.276</ele>
<time>2017-04-06T04:36:33.188Z</time>
</trkpt>
<trkpt lat="-28.8145700" lon="151.8462250">
<ele>694.823</ele>
<time>2017-04-06T04:36:36.200Z</time>
</trkpt>
<trkpt lat="-28.8150263" lon="151.8459462">
<ele>693.300</ele>
<time>2017-04-06T04:36:38.212Z</time>
</trkpt>
<trkpt lat="-28.8154631" lon="151.8456536">
<ele>691.957</ele>
<time>2017-04-06T04:36:40.190Z</time>
</trkpt>
<trkpt lat="-28.8161478" lon="151.8452649">
<ele>691.015</ele>
<time>2017-04-06T04:36:43.178Z</time>
</trkpt>
<trkpt lat="-28.8166165" lon="151.8450198">
<ele>690.513</ele>
<time>2017-04-06T04:36:45.183Z</time>
</trkpt>
<trkpt lat="-28.8173911" lon="151.8447222">
<ele>690.396</ele>
<time>2017-04-06T04:36:48.348Z</time>
</trkpt>
<trkpt lat="-28.8178872" lon="151.8445992">
<ele>690.581</ele>
<time>2017-04-06T04:36:50.318Z</time>
</trkpt>
<trkpt lat="-28.8186614" lon="151.8445284">
<ele>690.970</ele>
<time>2017-04-06T04:36:53.333Z</time>
</trkpt>
<trkpt lat="-28.8194295" lon="151.8445595">
<ele>691.485</ele>
<time>2017-04-06T04:36:56.305Z</time>
</trkpt>
<trkpt lat="-28.8199598" lon="151.8446023">
<ele>692.020</ele>
<time>2017-04-06T04:36:58.359Z</time>
</trkpt>
<trkpt lat="-28.8206976" lon="151.8447896">
<ele>692.439</ele>
<time>2017-04-06T04:37:01.290Z</time>
</trkpt>
<trkpt lat="-28.8211933" lon="151.8449540">
<ele>692.684</ele>
<time>2017-04-06T04:37:03.297Z</time>
</trkpt>
<trkpt lat="-28.8216705" lon="151.8451708">
<ele>692.797</ele>
<time>2017-04-06T04:37:05.293Z</time>
</trkpt>
<trkpt lat="-28.8223564" lon="151.8455672">
<ele>692.850</ele>
<time>2017-04-06T04:37:08.279Z</time>
</trkpt>
<trkpt lat="-28.8230185" lon="151.8460148">
<ele>692.860</ele>
<time>2017-04-06T04:37:11.267Z</time>
</trkpt>
<trkpt lat="-28.8236573" lon="151.8465155">
<ele>692.762</ele>
<time>2017-04-06T04:37:14.275Z</time>
</trkpt>
<trkpt lat="-28.8241321" lon="151.8471991">
<ele>692.518</ele>
<time>2017-04-06T04:37:17.243Z</time>
</trkpt>
<trkpt lat="-28.8244968" lon="151.8479632">
<ele>692.230</ele>
<time>2017-04-06T04:37:20.226Z</time>
</trkpt>
<trkpt lat="-28.8246928" lon="151.8484902">
<ele>692.094</ele>
<time>2017-04-06T04:37:22.274Z</time>
</trkpt>
<trkpt lat="-28.8248141" lon="151.8489777">
<ele>692.165</ele>
<time>2017-04-06T04:37:24.253Z</time>
</trkpt>
<trkpt lat="-28.8248873" lon="151.8496494">
<ele>692.156</ele>
<time>2017-04-06T04:37:27.086Z</time>
</trkpt>
<trkpt lat="-28.8249010" lon="151.8501116">
<ele>691.453</ele>
<time>2017-04-06T04:37:29.107Z</time>
</trkpt>
<trkpt lat="-28.8249079" lon="151.8508048">
<ele>689.897</ele>
<time>2017-04-06T04:37:32.121Z</time>
</trkpt>
<trkpt lat="-28.8248958" lon="151.8514944">
<ele>688.149</ele>
<time>2017-04-06T04:37:35.119Z</time>
</trkpt>
<trkpt lat="-28.8249917" lon="151.8521684">
<ele>686.821</ele>
<time>2017-04-06T04:37:38.108Z</time>
</trkpt>
<trkpt lat="-28.8251190" lon="151.8525948">
<ele>685.759</ele>
<time>2017-04-06T04:37:40.086Z</time>
</trkpt>
<trkpt lat="-28.8254342" lon="151.8531795">
<ele>684.640</ele>
<time>2017-04-06T04:37:43.095Z</time>
</trkpt>
<trkpt lat="-28.8258456" lon="151.8536757">
<ele>683.475</ele>
<time>2017-04-06T04:37:46.074Z</time>
</trkpt>
<trkpt lat="-28.8261706" lon="151.8539485">
<ele>682.405</ele>
<time>2017-04-06T04:37:48.071Z</time>
</trkpt>
<trkpt lat="-28.8265257" lon="151.8541694">
<ele>681.523</ele>
<time>2017-04-06T04:37:50.066Z</time>
</trkpt>
<trkpt lat="-28.8269076" lon="151.8543125">
<ele>680.964</ele>
<time>2017-04-06T04:37:52.060Z</time>
</trkpt>
<trkpt lat="-28.8274863" lon="151.8544525">
<ele>680.746</ele>
<time>2017-04-06T04:37:55.012Z</time>
</trkpt>
<trkpt lat="-28.8278868" lon="151.8544996">
<ele>680.762</ele>
<time>2017-04-06T04:37:57.019Z</time>
</trkpt>
<trkpt lat="-28.8282762" lon="151.8545753">
<ele>680.955</ele>
<time>2017-04-06T04:37:58.996Z</time>
</trkpt>
<trkpt lat="-28.8288519" lon="151.8546160">
<ele>681.276</ele>
<time>2017-04-06T04:38:01.907Z</time>
</trkpt>
<trkpt lat="-28.8292560" lon="151.8546867">
<ele>681.604</ele>
<time>2017-04-06T04:38:03.899Z</time>
</trkpt>
<trkpt lat="-28.8299456" lon="151.8547599">
<ele>681.905</ele>
<time>2017-04-06T04:38:07.011Z</time>
</trkpt>
<trkpt lat="-28.8307594" lon="151.8548368">
<ele>682.467</ele>
<time>2017-04-06T04:38:10.342Z</time>
</trkpt>
<trkpt lat="-28.8312612" lon="151.8549163">
<ele>683.691</ele>
<time>2017-04-06T04:38:12.323Z</time>
</trkpt>
<trkpt lat="-28.8320115" lon="151.8549915">
<ele>685.464</ele>
<time>2017-04-06T04:38:15.251Z</time>
</trkpt>
<trkpt lat="-28.8325263" lon="151.8550378">
<ele>687.216</ele>
<time>2017-04-06T04:38:17.228Z</time>
</trkpt>
<trkpt lat="-28.8330538" lon="151.8550985">
<ele>688.558</ele>
<time>2017-04-06T04:38:19.176Z</time>
</trkpt>
<trkpt lat="-28.8339234" lon="151.8551912">
<ele>689.513</ele>
<time>2017-04-06T04:38:22.245Z</time>
</trkpt>
<trkpt lat="-28.8345361" lon="151.8552431">
<ele>690.650</ele>
<time>2017-04-06T04:38:24.381Z</time>
</trkpt>
<trkpt lat="-28.8353099" lon="151.8553605">
<ele>692.306</ele>
<time>2017-04-06T04:38:27.231Z</time>
</trkpt>
<trkpt lat="-28.8358082" lon="151.8554206">
<ele>693.866</ele>
<time>2017-04-06T04:38:29.179Z</time>
</trkpt>
<trkpt lat="-28.8363139" lon="151.8555059">
<ele>694.709</ele>
<time>2017-04-06T04:38:31.185Z</time>
</trkpt>
<trkpt lat="-28.8368236" lon="151.8555394">
<ele>694.934</ele>
<time>2017-04-06T04:38:33.183Z</time>
</trkpt>
<trkpt lat="-28.8375804" lon="151.8556735">
<ele>694.899</ele>
<time>2017-04-06T04:38:36.175Z</time>
</trkpt>
<trkpt lat="-28.8380977" lon="151.8557120">
<ele>694.952</ele>
<time>2017-04-06T04:38:38.194Z</time>
</trkpt>
<trkpt lat="-28.8386051" lon="151.8557962">
<ele>695.236</ele>
<time>2017-04-06T04:38:40.194Z</time>
</trkpt>
<trkpt lat="-28.8393639" lon="151.8558639">
<ele>695.764</ele>
<time>2017-04-06T04:38:43.170Z</time>
</trkpt>
<trkpt lat="-28.8401302" lon="151.8559399">
<ele>696.606</ele>
<time>2017-04-06T04:38:46.176Z</time>
</trkpt>
<trkpt lat="-28.8409004" lon="151.8560133">
<ele>697.823</ele>
<time>2017-04-06T04:38:49.193Z</time>
</trkpt>
<trkpt lat="-28.8414054" lon="151.8561048">
<ele>699.258</ele>
<time>2017-04-06T04:38:51.188Z</time>
</trkpt>
<trkpt lat="-28.8419296" lon="151.8561635">
<ele>700.550</ele>
<time>2017-04-06T04:38:53.240Z</time>
</trkpt>
<trkpt lat="-28.8426853" lon="151.8561044">
<ele>701.433</ele>
<time>2017-04-06T04:38:56.191Z</time>
</trkpt>
<trkpt lat="-28.8434545" lon="151.8559746">
<ele>702.020</ele>
<time>2017-04-06T04:38:59.216Z</time>
</trkpt>
<trkpt lat="-28.8442122" lon="151.8558979">
<ele>702.473</ele>
<time>2017-04-06T04:39:02.172Z</time>
</trkpt>
<trkpt lat="-28.8447200" lon="151.8558051">
<ele>702.654</ele>
<time>2017-04-06T04:39:04.174Z</time>
</trkpt>
<trkpt lat="-28.8455066" lon="151.8556861">
<ele>702.478</ele>
<time>2017-04-06T04:39:07.258Z</time>
</trkpt>
<trkpt lat="-28.8460011" lon="151.8556023">
<ele>702.190</ele>
<time>2017-04-06T04:39:09.203Z</time>
</trkpt>
<trkpt lat="-28.8465077" lon="151.8555269">
<ele>702.038</ele>
<time>2017-04-06T04:39:11.198Z</time>
</trkpt>
<trkpt lat="-28.8470088" lon="151.8554405">
<ele>702.058</ele>
<time>2017-04-06T04:39:13.180Z</time>
</trkpt>
<trkpt lat="-28.8477687" lon="151.8553347">
<ele>702.189</ele>
<time>2017-04-06T04:39:16.169Z</time>
</trkpt>
<trkpt lat="-28.8482800" lon="151.8552469">
<ele>702.443</ele>
<time>2017-04-06T04:39:18.181Z</time>
</trkpt>
<trkpt lat="-28.8487857" lon="151.8551489">
<ele>702.919</ele>
<time>2017-04-06T04:39:20.180Z</time>
</trkpt>
<trkpt lat="-28.8495500" lon="151.8551031">
<ele>703.546</ele>
<time>2017-04-06T04:39:23.170Z</time>
</trkpt>
<trkpt lat="-28.8503136" lon="151.8549880">
<ele>704.119</ele>
<time>2017-04-06T04:39:26.179Z</time>
</trkpt>
<trkpt lat="-28.8508234" lon="151.8548877">
<ele>704.565</ele>
<time>2017-04-06T04:39:28.191Z</time>
</trkpt>
<trkpt lat="-28.8513321" lon="151.8548209">
<ele>704.948</ele>
<time>2017-04-06T04:39:30.181Z</time>
</trkpt>
<trkpt lat="-28.8518402" lon="151.8547450">
<ele>705.353</ele>
<time>2017-04-06T04:39:32.173Z</time>
</trkpt>
<trkpt lat="-28.8523490" lon="151.8546589">
<ele>705.863</ele>
<time>2017-04-06T04:39:34.172Z</time>
</trkpt>
<trkpt lat="-28.8531125" lon="151.8545707">
<ele>706.531</ele>
<time>2017-04-06T04:39:37.149Z</time>
</trkpt>
<trkpt lat="-28.8538841" lon="151.8545528">
<ele>707.417</ele>
<time>2017-04-06T04:39:40.141Z</time>
</trkpt>
<trkpt lat="-28.8543834" lon="151.8546426">
<ele>708.521</ele>
<time>2017-04-06T04:39:42.108Z</time>
</trkpt>
<trkpt lat="-28.8551464" lon="151.8548549">
<ele>709.688</ele>
<time>2017-04-06T04:39:45.171Z</time>
</trkpt>
<trkpt lat="-28.8558287" lon="151.8551729">
<ele>711.007</ele>
<time>2017-04-06T04:39:48.049Z</time>
</trkpt>
<trkpt lat="-28.8562776" lon="151.8554885">
<ele>712.911</ele>
<time>2017-04-06T04:39:50.108Z</time>
</trkpt>
<trkpt lat="-28.8569242" lon="151.8559707">
<ele>715.358</ele>
<time>2017-04-06T04:39:53.123Z</time>
</trkpt>
<trkpt lat="-28.8573131" lon="151.8563503">
<ele>717.920</ele>
<time>2017-04-06T04:39:55.118Z</time>
</trkpt>
<trkpt lat="-28.8578227" lon="151.8570068">
<ele>720.323</ele>
<time>2017-04-06T04:39:58.118Z</time>
</trkpt>
<trkpt lat="-28.8581376" lon="151.8574705">
<ele>722.475</ele>
<time>2017-04-06T04:40:00.127Z</time>
</trkpt>
<trkpt lat="-28.8583873" lon="151.8579849">
<ele>724.398</ele>
<time>2017-04-06T04:40:02.134Z</time>
</trkpt>
<trkpt lat="-28.8587835" lon="151.8587508">
<ele>726.153</ele>
<time>2017-04-06T04:40:05.157Z</time>
</trkpt>
<trkpt lat="-28.8590259" lon="151.8592658">
<ele>727.937</ele>
<time>2017-04-06T04:40:07.144Z</time>
</trkpt>
<trkpt lat="-28.8594257" lon="151.8600139">
<ele>729.939</ele>
<time>2017-04-06T04:40:10.130Z</time>
</trkpt>
<trkpt lat="-28.8596931" lon="151.8605193">
<ele>731.898</ele>
<time>2017-04-06T04:40:12.137Z</time>
</trkpt>
<trkpt lat="-28.8599555" lon="151.8610300">
<ele>733.425</ele>
<time>2017-04-06T04:40:14.142Z</time>
</trkpt>
<trkpt lat="-28.8603521" lon="151.8617929">
<ele>734.544</ele>
<time>2017-04-06T04:40:17.143Z</time>
</trkpt>
<trkpt lat="-28.8605999" lon="151.8623076">
<ele>735.633</ele>
<time>2017-04-06T04:40:19.138Z</time>
</trkpt>
<trkpt lat="-28.8609710" lon="151.8630712">
<ele>736.924</ele>
<time>2017-04-06T04:40:22.118Z</time>
</trkpt>
<trkpt lat="-28.8612341" lon="151.8635774">
<ele>738.430</ele>
<time>2017-04-06T04:40:24.125Z</time>
</trkpt>
<trkpt lat="-28.8614985" lon="151.8640873">
<ele>740.128</ele>
<time>2017-04-06T04:40:26.137Z</time>
</trkpt>
<trkpt lat="-28.8618841" lon="151.8648469">
<ele>741.819</ele>
<time>2017-04-06T04:40:29.113Z</time>
</trkpt>
<trkpt lat="-28.8621478" lon="151.8653540">
<ele>743.496</ele>
<time>2017-04-06T04:40:31.118Z</time>
</trkpt>
<trkpt lat="-28.8625309" lon="151.8661085">
<ele>745.253</ele>
<time>2017-04-06T04:40:34.091Z</time>
</trkpt>
<trkpt lat="-28.8627889" lon="151.8669410">
<ele>746.851</ele>
<time>2017-04-06T04:40:37.093Z</time>
</trkpt>
<trkpt lat="-28.8629816" lon="151.8674932">
<ele>748.097</ele>
<time>2017-04-06T04:40:39.102Z</time>
</trkpt>
<trkpt lat="-28.8632092" lon="151.8683343">
<ele>749.046</ele>
<time>2017-04-06T04:40:42.082Z</time>
</trkpt>
<trkpt lat="-28.8634172" lon="151.8691764">
<ele>749.849</ele>
<time>2017-04-06T04:40:45.054Z</time>
</trkpt>
<trkpt lat="-28.8636138" lon="151.8700172">
<ele>750.680</ele>
<time>2017-04-06T04:40:48.018Z</time>
</trkpt>
<trkpt lat="-28.8638336" lon="151.8708594">
<ele>751.539</ele>
<time>2017-04-06T04:40:51.016Z</time>
</trkpt>
<trkpt lat="-28.8640747" lon="151.8713767">
<ele>752.347</ele>
<time>2017-04-06T04:40:53.019Z</time>
</trkpt>
<trkpt lat="-28.8644445" lon="151.8721448">
<ele>753.183</ele>
<time>2017-04-06T04:40:56.015Z</time>
</trkpt>
<trkpt lat="-28.8649926" lon="151.8727724">
<ele>754.323</ele>
<time>2017-04-06T04:40:59.033Z</time>
</trkpt>
<trkpt lat="-28.8653540" lon="151.8731943">
<ele>755.928</ele>
<time>2017-04-06T04:41:01.034Z</time>
</trkpt>
<trkpt lat="-28.8659512" lon="151.8737608">
<ele>757.661</ele>
<time>2017-04-06T04:41:04.052Z</time>
</trkpt>
<trkpt lat="-28.8664239" lon="151.8744413">
<ele>758.935</ele>
<time>2017-04-06T04:41:07.035Z</time>
</trkpt>
<trkpt lat="-28.8666868" lon="151.8752683">
<ele>759.521</ele>
<time>2017-04-06T04:41:10.059Z</time>
</trkpt>
<trkpt lat="-28.8669458" lon="151.8761074">
<ele>759.760</ele>
<time>2017-04-06T04:41:13.085Z</time>
</trkpt>
<trkpt lat="-28.8670827" lon="151.8766799">
<ele>760.231</ele>
<time>2017-04-06T04:41:15.091Z</time>
</trkpt>
<trkpt lat="-28.8672318" lon="151.8772506">
<ele>761.209</ele>
<time>2017-04-06T04:41:17.115Z</time>
</trkpt>
<trkpt lat="-28.8675904" lon="151.8780104">
<ele>762.587</ele>
<time>2017-04-06T04:41:20.066Z</time>
</trkpt>
<trkpt lat="-28.8679199" lon="151.8784681">
<ele>764.328</ele>
<time>2017-04-06T04:41:22.095Z</time>
</trkpt>
<trkpt lat="-28.8682867" lon="151.8788831">
<ele>766.363</ele>
<time>2017-04-06T04:41:24.103Z</time>
</trkpt>
<trkpt lat="-28.8688967" lon="151.8794119">
<ele>768.409</ele>
<time>2017-04-06T04:41:27.072Z</time>
</trkpt>
<trkpt lat="-28.8693444" lon="151.8796967">
<ele>770.394</ele>
<time>2017-04-06T04:41:29.054Z</time>
</trkpt>
<trkpt lat="-28.8698085" lon="151.8799551">
<ele>772.291</ele>
<time>2017-04-06T04:41:31.045Z</time>
</trkpt>
<trkpt lat="-28.8702946" lon="151.8801618">
<ele>773.696</ele>
<time>2017-04-06T04:41:33.044Z</time>
</trkpt>
<trkpt lat="-28.8710000" lon="151.8805125">
<ele>774.270</ele>
<time>2017-04-06T04:41:36.022Z</time>
</trkpt>
<trkpt lat="-28.8713835" lon="151.8809090">
<ele>773.991</ele>
<time>2017-04-06T04:41:38.039Z</time>
</trkpt>
<trkpt lat="-28.8718093" lon="151.8812414">
<ele>772.874</ele>
<time>2017-04-06T04:41:40.057Z</time>
</trkpt>
<trkpt lat="-28.8723664" lon="151.8818431">
<ele>771.193</ele>
<time>2017-04-06T04:41:43.063Z</time>
</trkpt>
<trkpt lat="-28.8729003" lon="151.8824544">
<ele>769.671</ele>
<time>2017-04-06T04:41:46.036Z</time>
</trkpt>
<trkpt lat="-28.8734182" lon="151.8831038">
<ele>769.207</ele>
<time>2017-04-06T04:41:49.058Z</time>
</trkpt>
<trkpt lat="-28.8737823" lon="151.8835190">
<ele>770.279</ele>
<time>2017-04-06T04:41:51.067Z</time>
</trkpt>
<trkpt lat="-28.8743092" lon="151.8841524">
<ele>772.436</ele>
<time>2017-04-06T04:41:54.046Z</time>
</trkpt>
<trkpt lat="-28.8746703" lon="151.8845806">
<ele>774.694</ele>
<time>2017-04-06T04:41:56.068Z</time>
</trkpt>
<trkpt lat="-28.8750287" lon="151.8850063">
<ele>776.319</ele>
<time>2017-04-06T04:41:58.077Z</time>
</trkpt>
<trkpt lat="-28.8753928" lon="151.8854103">
<ele>777.037</ele>
<time>2017-04-06T04:42:00.055Z</time>
</trkpt>
<trkpt lat="-28.8759300" lon="151.8860406">
<ele>777.059</ele>
<time>2017-04-06T04:42:03.060Z</time>
</trkpt>
<trkpt lat="-28.8762792" lon="151.8864725">
<ele>777.028</ele>
<time>2017-04-06T04:42:05.062Z</time>
</trkpt>
<trkpt lat="-28.8766468" lon="151.8868751">
<ele>777.448</ele>
<time>2017-04-06T04:42:07.039Z</time>
</trkpt>
<trkpt lat="-28.8769917" lon="151.8873065">
<ele>778.281</ele>
<time>2017-04-06T04:42:09.028Z</time>
</trkpt>
<trkpt lat="-28.8775755" lon="151.8878755">
<ele>779.280</ele>
<time>2017-04-06T04:42:12.010Z</time>
</trkpt>
<trkpt lat="-28.8781815" lon="151.8884343">
<ele>780.430</ele>
<time>2017-04-06T04:42:15.025Z</time>
</trkpt>
<trkpt lat="-28.8786027" lon="151.8887805">
<ele>781.600</ele>
<time>2017-04-06T04:42:17.024Z</time>
</trkpt>
<trkpt lat="-28.8791837" lon="151.8893866">
<ele>782.410</ele>
<time>2017-04-06T04:42:20.049Z</time>
</trkpt>
<trkpt lat="-28.8795780" lon="151.8897738">
<ele>782.524</ele>
<time>2017-04-06T04:42:22.054Z</time>
</trkpt>
<trkpt lat="-28.8801876" lon="151.8902957">
<ele>781.978</ele>
<time>2017-04-06T04:42:25.011Z</time>
</trkpt>
<trkpt lat="-28.8805613" lon="151.8906894">
<ele>781.197</ele>
<time>2017-04-06T04:42:27.001Z</time>
</trkpt>
<trkpt lat="-28.8811668" lon="151.8912238">
<ele>780.644</ele>
<time>2017-04-06T04:42:30.000Z</time>
</trkpt>
<trkpt lat="-28.8817502" lon="151.8917972">
<ele>780.424</ele>
<time>2017-04-06T04:42:33.010Z</time>
</trkpt>
<trkpt lat="-28.8821165" lon="151.8922002">
<ele>780.506</ele>
<time>2017-04-06T04:42:34.997Z</time>
</trkpt>
<trkpt lat="-28.8824247" lon="151.8926805">
<ele>780.961</ele>
<time>2017-04-06T04:42:37.027Z</time>
</trkpt>
<trkpt lat="-28.8828888" lon="151.8933922">
<ele>781.797</ele>
<time>2017-04-06T04:42:40.041Z</time>
</trkpt>
<trkpt lat="-28.8831656" lon="151.8938873">
<ele>782.700</ele>
<time>2017-04-06T04:42:42.036Z</time>
</trkpt>
<trkpt lat="-28.8836337" lon="151.8946543">
<ele>783.293</ele>
<time>2017-04-06T04:42:45.215Z</time>
</trkpt>
<trkpt lat="-28.8839693" lon="151.8950555">
<ele>783.662</ele>
<time>2017-04-06T04:42:47.104Z</time>
</trkpt>
<trkpt lat="-28.8845259" lon="151.8956683">
<ele>784.188</ele>
<time>2017-04-06T04:42:50.108Z</time>
</trkpt>
<trkpt lat="-28.8851408" lon="151.8962043">
<ele>785.053</ele>
<time>2017-04-06T04:42:53.107Z</time>
</trkpt>
<trkpt lat="-28.8855553" lon="151.8965555">
<ele>786.167</ele>
<time>2017-04-06T04:42:55.104Z</time>
</trkpt>
<trkpt lat="-28.8861684" lon="151.8970911">
<ele>787.329</ele>
<time>2017-04-06T04:42:58.089Z</time>
</trkpt>
<trkpt lat="-28.8865745" lon="151.8974371">
<ele>788.412</ele>
<time>2017-04-06T04:43:00.058Z</time>
</trkpt>
<trkpt lat="-28.8871513" lon="151.8980022">
<ele>789.389</ele>
<time>2017-04-06T04:43:03.026Z</time>
</trkpt>
<trkpt lat="-28.8875781" lon="151.8983398">
<ele>790.204</ele>
<time>2017-04-06T04:43:05.046Z</time>
</trkpt>
<trkpt lat="-28.8879477" lon="151.8987606">
<ele>790.877</ele>
<time>2017-04-06T04:43:07.067Z</time>
</trkpt>
<trkpt lat="-28.8885632" lon="151.8992959">
<ele>791.517</ele>
<time>2017-04-06T04:43:10.058Z</time>
</trkpt>
<trkpt lat="-28.8891402" lon="151.8998839">
<ele>792.247</ele>
<time>2017-04-06T04:43:13.051Z</time>
</trkpt>
<trkpt lat="-28.8897322" lon="151.9004507">
<ele>793.223</ele>
<time>2017-04-06T04:43:16.045Z</time>
</trkpt>
<trkpt lat="-28.8901222" lon="151.9008312">
<ele>794.454</ele>
<time>2017-04-06T04:43:18.037Z</time>
</trkpt>
<trkpt lat="-28.8907058" lon="151.9014051">
<ele>795.582</ele>
<time>2017-04-06T04:43:21.027Z</time>
</trkpt>
<trkpt lat="-28.8913143" lon="151.9019507">
<ele>796.043</ele>
<time>2017-04-06T04:43:24.030Z</time>
</trkpt>
<trkpt lat="-28.8919210" lon="151.9025058">
<ele>795.672</ele>
<time>2017-04-06T04:43:27.049Z</time>
</trkpt>
<trkpt lat="-28.8925250" lon="151.9030533">
<ele>794.897</ele>
<time>2017-04-06T04:43:30.044Z</time>
</trkpt>
<trkpt lat="-28.8929219" lon="151.9034161">
<ele>794.222</ele>
<time>2017-04-06T04:43:32.019Z</time>
</trkpt>
<trkpt lat="-28.8935169" lon="151.9039690">
<ele>793.841</ele>
<time>2017-04-06T04:43:35.002Z</time>
</trkpt>
<trkpt lat="-28.8939142" lon="151.9043356">
<ele>793.852</ele>
<time>2017-04-06T04:43:36.989Z</time>
</trkpt>
<trkpt lat="-28.8943191" lon="151.9046969">
<ele>794.301</ele>
<time>2017-04-06T04:43:38.989Z</time>
</trkpt>
<trkpt lat="-28.8949126" lon="151.9052423">
<ele>795.112</ele>
<time>2017-04-06T04:43:41.960Z</time>
</trkpt>
<trkpt lat="-28.8953073" lon="151.9056045">
<ele>796.261</ele>
<time>2017-04-06T04:43:43.939Z</time>
</trkpt>
<trkpt lat="-28.8956860" lon="151.9060007">
<ele>797.704</ele>
<time>2017-04-06T04:43:45.945Z</time>
</trkpt>
<trkpt lat="-28.8960793" lon="151.9063752">
<ele>799.308</ele>
<time>2017-04-06T04:43:47.943Z</time>
</trkpt>
<trkpt lat="-28.8967112" lon="151.9068757">
<ele>801.059</ele>
<time>2017-04-06T04:43:50.947Z</time>
</trkpt>
<trkpt lat="-28.8971237" lon="151.9072192">
<ele>803.062</ele>
<time>2017-04-06T04:43:52.950Z</time>
</trkpt>
<trkpt lat="-28.8977225" lon="151.9077580">
<ele>805.252</ele>
<time>2017-04-06T04:43:55.946Z</time>
</trkpt>
<trkpt lat="-28.8981411" lon="151.9081008">
<ele>807.480</ele>
<time>2017-04-06T04:43:57.955Z</time>
</trkpt>
<trkpt lat="-28.8987773" lon="151.9086085">
<ele>809.611</ele>
<time>2017-04-06T04:44:00.970Z</time>
</trkpt>
<trkpt lat="-28.8994118" lon="151.9090979">
<ele>811.758</ele>
<time>2017-04-06T04:44:03.954Z</time>
</trkpt>
<trkpt lat="-28.9000627" lon="151.9095546">
<ele>814.205</ele>
<time>2017-04-06T04:44:06.949Z</time>
</trkpt>
<trkpt lat="-28.9006617" lon="151.9100839">
<ele>817.112</ele>
<time>2017-04-06T04:44:09.928Z</time>
</trkpt>
<trkpt lat="-28.9012870" lon="151.9105809">
<ele>820.062</ele>
<time>2017-04-06T04:44:12.924Z</time>
</trkpt>
<trkpt lat="-28.9019036" lon="151.9110932">
<ele>822.418</ele>
<time>2017-04-06T04:44:15.909Z</time>
</trkpt>
<trkpt lat="-28.9023394" lon="151.9114258">
<ele>824.334</ele>
<time>2017-04-06T04:44:17.941Z</time>
</trkpt>
<trkpt lat="-28.9029860" lon="151.9119304">
<ele>826.520</ele>
<time>2017-04-06T04:44:20.958Z</time>
</trkpt>
<trkpt lat="-28.9036099" lon="151.9124696">
<ele>829.148</ele>
<time>2017-04-06T04:44:23.965Z</time>
</trkpt>
<trkpt lat="-28.9040247" lon="151.9128255">
<ele>831.635</ele>
<time>2017-04-06T04:44:25.956Z</time>
</trkpt>
<trkpt lat="-28.9044540" lon="151.9131642">
<ele>833.065</ele>
<time>2017-04-06T04:44:27.963Z</time>
</trkpt>
<trkpt lat="-28.9051105" lon="151.9136435">
<ele>833.030</ele>
<time>2017-04-06T04:44:30.970Z</time>
</trkpt>
<trkpt lat="-28.9055247" lon="151.9139900">
<ele>831.819</ele>
<time>2017-04-06T04:44:32.957Z</time>
</trkpt>
<trkpt lat="-28.9059624" lon="151.9142912">
<ele>829.955</ele>
<time>2017-04-06T04:44:34.939Z</time>
</trkpt>
<trkpt lat="-28.9065812" lon="151.9148113">
<ele>828.085</ele>
<time>2017-04-06T04:44:37.925Z</time>
</trkpt>
<trkpt lat="-28.9072045" lon="151.9153289">
<ele>826.600</ele>
<time>2017-04-06T04:44:40.925Z</time>
</trkpt>
<trkpt lat="-28.9076297" lon="151.9156629">
<ele>825.503</ele>
<time>2017-04-06T04:44:42.935Z</time>
</trkpt>
<trkpt lat="-28.9080418" lon="151.9160101">
<ele>824.765</ele>
<time>2017-04-06T04:44:44.929Z</time>
</trkpt>
<trkpt lat="-28.9086679" lon="151.9165210">
<ele>824.331</ele>
<time>2017-04-06T04:44:47.923Z</time>
</trkpt>
<trkpt lat="-28.9091032" lon="151.9168322">
<ele>823.851</ele>
<time>2017-04-06T04:44:49.922Z</time>
</trkpt>
<trkpt lat="-28.9095193" lon="151.9171729">
<ele>823.122</ele>
<time>2017-04-06T04:44:51.916Z</time>
</trkpt>
<trkpt lat="-28.9099427" lon="151.9175105">
<ele>822.416</ele>
<time>2017-04-06T04:44:53.922Z</time>
</trkpt>
<trkpt lat="-28.9105507" lon="151.9180534">
<ele>821.990</ele>
<time>2017-04-06T04:44:56.919Z</time>
</trkpt>
<trkpt lat="-28.9109693" lon="151.9183912">
<ele>821.914</ele>
<time>2017-04-06T04:44:58.911Z</time>
</trkpt>
<trkpt lat="-28.9115683" lon="151.9189363">
<ele>822.243</ele>
<time>2017-04-06T04:45:01.891Z</time>
</trkpt>
<trkpt lat="-28.9119554" lon="151.9193282">
<ele>822.856</ele>
<time>2017-04-06T04:45:03.906Z</time>
</trkpt>
<trkpt lat="-28.9125535" lon="151.9198793">
<ele>823.488</ele>
<time>2017-04-06T04:45:06.907Z</time>
</trkpt>
<trkpt lat="-28.9131565" lon="151.9204064">
<ele>824.123</ele>
<time>2017-04-06T04:45:09.884Z</time>
</trkpt>
<trkpt lat="-28.9135420" lon="151.9207862">
<ele>825.068</ele>
<time>2017-04-06T04:45:11.877Z</time>
</trkpt>
<trkpt lat="-28.9141366" lon="151.9213460">
<ele>826.458</ele>
<time>2017-04-06T04:45:14.893Z</time>
</trkpt>
<trkpt lat="-28.9145198" lon="151.9216947">
<ele>828.180</ele>
<time>2017-04-06T04:45:16.899Z</time>
</trkpt>
<trkpt lat="-28.9149869" lon="151.9221806">
<ele>829.933</ele>
<time>2017-04-06T04:45:19.712Z</time>
</trkpt>
<trkpt lat="-28.9152581" lon="151.9224554">
<ele>831.265</ele>
<time>2017-04-06T04:45:21.529Z</time>
</trkpt>
<trkpt lat="-28.9157272" lon="151.9228540">
<ele>831.999</ele>
<time>2017-04-06T04:45:24.547Z</time>
</trkpt>
<trkpt lat="-28.9160421" lon="151.9231429">
<ele>832.558</ele>
<time>2017-04-06T04:45:26.580Z</time>
</trkpt>
<trkpt lat="-28.9164962" lon="151.9236053">
<ele>833.466</ele>
<time>2017-04-06T04:45:29.602Z</time>
</trkpt>
<trkpt lat="-28.9168051" lon="151.9238924">
<ele>834.891</ele>
<time>2017-04-06T04:45:31.578Z</time>
</trkpt>
<trkpt lat="-28.9172589" lon="151.9243322">
<ele>836.556</ele>
<time>2017-04-06T04:45:34.548Z</time>
</trkpt>
<trkpt lat="-28.9175491" lon="151.9246442">
<ele>837.997</ele>
<time>2017-04-06T04:45:36.553Z</time>
</trkpt>
<trkpt lat="-28.9178633" lon="151.9249055">
<ele>838.862</ele>
<time>2017-04-06T04:45:38.535Z</time>
</trkpt>
<trkpt lat="-28.9181512" lon="151.9251716">
<ele>839.104</ele>
<time>2017-04-06T04:45:40.489Z</time>
</trkpt>
<trkpt lat="-28.9185447" lon="151.9255521">
<ele>838.797</ele>
<time>2017-04-06T04:45:43.361Z</time>
</trkpt>
<trkpt lat="-28.9188758" lon="151.9259107">
<ele>837.803</ele>
<time>2017-04-06T04:45:46.138Z</time>
</trkpt>
<trkpt lat="-28.9191133" lon="151.9261121">
<ele>835.966</ele>
<time>2017-04-06T04:45:48.084Z</time>
</trkpt>
<trkpt lat="-28.9194820" lon="151.9263974">
<ele>833.673</ele>
<time>2017-04-06T04:45:51.063Z</time>
</trkpt>
<trkpt lat="-28.9196934" lon="151.9266469">
<ele>831.522</ele>
<time>2017-04-06T04:45:53.093Z</time>
</trkpt>
<trkpt lat="-28.9199285" lon="151.9268504">
<ele>829.777</ele>
<time>2017-04-06T04:45:55.063Z</time>
</trkpt>
<trkpt lat="-28.9202647" lon="151.9271678">
<ele>828.522</ele>
<time>2017-04-06T04:45:58.001Z</time>
</trkpt>
<trkpt lat="-28.9206007" lon="151.9275118">
<ele>827.785</ele>
<time>2017-04-06T04:46:01.025Z</time>
</trkpt>
<trkpt lat="-28.9209218" lon="151.9278606">
<ele>827.473</ele>
<time>2017-04-06T04:46:03.976Z</time>
</trkpt>
<trkpt lat="-28.9211512" lon="151.9280810">
<ele>827.497</ele>
<time>2017-04-06T04:46:05.971Z</time>
</trkpt>
<trkpt lat="-28.9213846" lon="151.9282991">
<ele>827.783</ele>
<time>2017-04-06T04:46:07.968Z</time>
</trkpt>
<trkpt lat="-28.9216118" lon="151.9285254">
<ele>828.205</ele>
<time>2017-04-06T04:46:09.962Z</time>
</trkpt>
<trkpt lat="-28.9219551" lon="151.9288504">
<ele>828.619</ele>
<time>2017-04-06T04:46:12.942Z</time>
</trkpt>
<trkpt lat="-28.9221863" lon="151.9290732">
<ele>829.052</ele>
<time>2017-04-06T04:46:14.982Z</time>
</trkpt>
<trkpt lat="-28.9224268" lon="151.9292823">
<ele>829.592</ele>
<time>2017-04-06T04:46:17.011Z</time>
</trkpt>
<trkpt lat="-28.9227604" lon="151.9296305">
<ele>830.204</ele>
<time>2017-04-06T04:46:19.990Z</time>
</trkpt>
<trkpt lat="-28.9229680" lon="151.9298953">
<ele>830.861</ele>
<time>2017-04-06T04:46:22.017Z</time>
</trkpt>
<trkpt lat="-28.9232397" lon="151.9300576">
<ele>831.537</ele>
<time>2017-04-06T04:46:24.020Z</time>
</trkpt>
<trkpt lat="-28.9237251" lon="151.9300171">
<ele>832.083</ele>
<time>2017-04-06T04:46:27.213Z</time>
</trkpt>
<trkpt lat="-28.9240356" lon="151.9299090">
<ele>832.423</ele>
<time>2017-04-06T04:46:29.336Z</time>
</trkpt>
<trkpt lat="-28.9244486" lon="151.9296427">
<ele>832.639</ele>
<time>2017-04-06T04:46:32.429Z</time>
</trkpt>
<trkpt lat="-28.9246767" lon="151.9294198">
<ele>832.864</ele>
<time>2017-04-06T04:46:34.396Z</time>
</trkpt>
<trkpt lat="-28.9250685" lon="151.9291672">
<ele>833.214</ele>
<time>2017-04-06T04:46:37.376Z</time>
</trkpt>
<trkpt lat="-28.9254482" lon="151.9288694">
<ele>833.755</ele>
<time>2017-04-06T04:46:40.437Z</time>
</trkpt>
<trkpt lat="-28.9258358" lon="151.9286058">
<ele>834.575</ele>
<time>2017-04-06T04:46:43.433Z</time>
</trkpt>
<trkpt lat="-28.9262151" lon="151.9283335">
<ele>835.769</ele>
<time>2017-04-06T04:46:46.420Z</time>
</trkpt>
<trkpt lat="-28.9264918" lon="151.9281767">
<ele>837.255</ele>
<time>2017-04-06T04:46:48.455Z</time>
</trkpt>
<trkpt lat="-28.9267536" lon="151.9279973">
<ele>838.707</ele>
<time>2017-04-06T04:46:50.448Z</time>
</trkpt>
<trkpt lat="-28.9271463" lon="151.9277111">
<ele>839.809</ele>
<time>2017-04-06T04:46:53.486Z</time>
</trkpt>
<trkpt lat="-28.9274152" lon="151.9275397">
<ele>840.456</ele>
<time>2017-04-06T04:46:55.500Z</time>
</trkpt>
<trkpt lat="-28.9278043" lon="151.9272825">
<ele>840.688</ele>
<time>2017-04-06T04:46:58.458Z</time>
</trkpt>
<trkpt lat="-28.9282260" lon="151.9270470">
<ele>840.508</ele>
<time>2017-04-06T04:47:01.506Z</time>
</trkpt>
<trkpt lat="-28.9287668" lon="151.9269322">
<ele>839.898</ele>
<time>2017-04-06T04:47:04.865Z</time>
</trkpt>
<trkpt lat="-28.9292969" lon="151.9268726">
<ele>838.964</ele>
<time>2017-04-06T04:47:07.878Z</time>
</trkpt>
<trkpt lat="-28.9296636" lon="151.9268317">
<ele>838.002</ele>
<time>2017-04-06T04:47:09.890Z</time>
</trkpt>
<trkpt lat="-28.9302033" lon="151.9267485">
<ele>837.291</ele>
<time>2017-04-06T04:47:12.889Z</time>
</trkpt>
<trkpt lat="-28.9307439" lon="151.9266814">
<ele>836.833</ele>
<time>2017-04-06T04:47:15.922Z</time>
</trkpt>
<trkpt lat="-28.9311011" lon="151.9266290">
<ele>836.307</ele>
<time>2017-04-06T04:47:17.872Z</time>
</trkpt>
<trkpt lat="-28.9316932" lon="151.9265595">
<ele>835.522</ele>
<time>2017-04-06T04:47:20.873Z</time>
</trkpt>
<trkpt lat="-28.9323754" lon="151.9264783">
<ele>834.669</ele>
<time>2017-04-06T04:47:23.977Z</time>
</trkpt>
<trkpt lat="-28.9328858" lon="151.9264608">
<ele>834.025</ele>
<time>2017-04-06T04:47:26.122Z</time>
</trkpt>
<trkpt lat="-28.9336279" lon="151.9265661">
<ele>833.656</ele>
<time>2017-04-06T04:47:29.168Z</time>
</trkpt>
<trkpt lat="-28.9341195" lon="151.9267137">
<ele>833.491</ele>
<time>2017-04-06T04:47:31.158Z</time>
</trkpt>
<trkpt lat="-28.9348797" lon="151.9269426">
<ele>833.445</ele>
<time>2017-04-06T04:47:34.185Z</time>
</trkpt>
<trkpt lat="-28.9353528" lon="151.9271579">
<ele>833.379</ele>
<time>2017-04-06T04:47:36.147Z</time>
</trkpt>
<trkpt lat="-28.9358193" lon="151.9274035">
<ele>833.161</ele>
<time>2017-04-06T04:47:38.136Z</time>
</trkpt>
<trkpt lat="-28.9365087" lon="151.9278026">
<ele>832.795</ele>
<time>2017-04-06T04:47:41.136Z</time>
</trkpt>
<trkpt lat="-28.9372147" lon="151.9281991">
<ele>832.100</ele>
<time>2017-04-06T04:47:44.187Z</time>
</trkpt>
<trkpt lat="-28.9376978" lon="151.9284355">
<ele>830.689</ele>
<time>2017-04-06T04:47:46.217Z</time>
</trkpt>
<trkpt lat="-28.9381692" lon="151.9287034">
<ele>828.567</ele>
<time>2017-04-06T04:47:48.246Z</time>
</trkpt>
<trkpt lat="-28.9388503" lon="151.9291017">
<ele>826.207</ele>
<time>2017-04-06T04:47:51.196Z</time>
</trkpt>
<trkpt lat="-28.9395481" lon="151.9294834">
<ele>823.973</ele>
<time>2017-04-06T04:47:54.185Z</time>
</trkpt>
<trkpt lat="-28.9402487" lon="151.9298609">
<ele>821.934</ele>
<time>2017-04-06T04:47:57.179Z</time>
</trkpt>
<trkpt lat="-28.9407124" lon="151.9301143">
<ele>820.002</ele>
<time>2017-04-06T04:47:59.168Z</time>
</trkpt>
<trkpt lat="-28.9411876" lon="151.9303385">
<ele>818.185</ele>
<time>2017-04-06T04:48:01.153Z</time>
</trkpt>
<trkpt lat="-28.9416569" lon="151.9306170">
<ele>816.702</ele>
<time>2017-04-06T04:48:03.187Z</time>
</trkpt>
<trkpt lat="-28.9423454" lon="151.9310266">
<ele>815.742</ele>
<time>2017-04-06T04:48:06.178Z</time>
</trkpt>
<trkpt lat="-28.9430302" lon="151.9314286">
<ele>815.260</ele>
<time>2017-04-06T04:48:09.162Z</time>
</trkpt>
<trkpt lat="-28.9437064" lon="151.9318687">
<ele>815.304</ele>
<time>2017-04-06T04:48:12.178Z</time>
</trkpt>
<trkpt lat="-28.9443977" lon="151.9322584">
<ele>816.098</ele>
<time>2017-04-06T04:48:15.157Z</time>
</trkpt>
<trkpt lat="-28.9448733" lon="151.9324989">
<ele>817.555</ele>
<time>2017-04-06T04:48:17.157Z</time>
</trkpt>
<trkpt lat="-28.9453724" lon="151.9327037">
<ele>819.065</ele>
<time>2017-04-06T04:48:19.188Z</time>
</trkpt>
<trkpt lat="-28.9460775" lon="151.9330686">
<ele>820.147</ele>
<time>2017-04-06T04:48:22.147Z</time>
</trkpt>
<trkpt lat="-28.9468569" lon="151.9332254">
<ele>820.756</ele>
<time>2017-04-06T04:48:25.171Z</time>
</trkpt>
<trkpt lat="-28.9473807" lon="151.9332342">
<ele>820.949</ele>
<time>2017-04-06T04:48:27.174Z</time>
</trkpt>
<trkpt lat="-28.9478994" lon="151.9332293">
<ele>820.774</ele>
<time>2017-04-06T04:48:29.165Z</time>
</trkpt>
<trkpt lat="-28.9486654" lon="151.9331080">
<ele>820.360</ele>
<time>2017-04-06T04:48:32.144Z</time>
</trkpt>
<trkpt lat="-28.9494345" lon="151.9329388">
<ele>819.884</ele>
<time>2017-04-06T04:48:35.168Z</time>
</trkpt>
<trkpt lat="-28.9499357" lon="151.9328326">
<ele>819.433</ele>
<time>2017-04-06T04:48:37.134Z</time>
</trkpt>
<trkpt lat="-28.9507116" lon="151.9327136">
<ele>818.907</ele>
<time>2017-04-06T04:48:40.144Z</time>
</trkpt>
<trkpt lat="-28.9512245" lon="151.9326006">
<ele>818.033</ele>
<time>2017-04-06T04:48:42.142Z</time>
</trkpt>
<trkpt lat="-28.9519911" lon="151.9324248">
<ele>816.616</ele>
<time>2017-04-06T04:48:45.131Z</time>
</trkpt>
<trkpt lat="-28.9525110" lon="151.9323122">
<ele>814.521</ele>
<time>2017-04-06T04:48:47.158Z</time>
</trkpt>
<trkpt lat="-28.9532892" lon="151.9321746">
<ele>811.800</ele>
<time>2017-04-06T04:48:50.175Z</time>
</trkpt>
<trkpt lat="-28.9538352" lon="151.9321015">
<ele>808.638</ele>
<time>2017-04-06T04:48:52.282Z</time>
</trkpt>
<trkpt lat="-28.9543574" lon="151.9320350">
<ele>805.389</ele>
<time>2017-04-06T04:48:54.303Z</time>
</trkpt>
<trkpt lat="-28.9551095" lon="151.9318513">
<ele>802.787</ele>
<time>2017-04-06T04:48:57.275Z</time>
</trkpt>
<trkpt lat="-28.9558565" lon="151.9316921">
<ele>801.404</ele>
<time>2017-04-06T04:49:00.217Z</time>
</trkpt>
<trkpt lat="-28.9566201" lon="151.9315578">
<ele>800.912</ele>
<time>2017-04-06T04:49:03.206Z</time>
</trkpt>
<trkpt lat="-28.9571152" lon="151.9314388">
<ele>800.749</ele>
<time>2017-04-06T04:49:05.172Z</time>
</trkpt>
<trkpt lat="-28.9576212" lon="151.9313463">
<ele>800.671</ele>
<time>2017-04-06T04:49:07.161Z</time>
</trkpt>
<trkpt lat="-28.9583847" lon="151.9311976">
<ele>800.612</ele>
<time>2017-04-06T04:49:10.157Z</time>
</trkpt>
<trkpt lat="-28.9588900" lon="151.9310670">
<ele>800.505</ele>
<time>2017-04-06T04:49:12.156Z</time>
</trkpt>
<trkpt lat="-28.9594053" lon="151.9310138">
<ele>800.271</ele>
<time>2017-04-06T04:49:14.148Z</time>
</trkpt>
<trkpt lat="-28.9601943" lon="151.9308353">
<ele>799.918</ele>
<time>2017-04-06T04:49:17.241Z</time>
</trkpt>
<trkpt lat="-28.9609541" lon="151.9306690">
<ele>799.569</ele>
<time>2017-04-06T04:49:20.215Z</time>
</trkpt>
<trkpt lat="-28.9617149" lon="151.9305303">
<ele>799.309</ele>
<time>2017-04-06T04:49:23.183Z</time>
</trkpt>
<trkpt lat="-28.9624660" lon="151.9303675">
<ele>799.153</ele>
<time>2017-04-06T04:49:26.138Z</time>
</trkpt>
<trkpt lat="-28.9629895" lon="151.9302520">
<ele>799.184</ele>
<time>2017-04-06T04:49:28.194Z</time>
</trkpt>
<trkpt lat="-28.9637561" lon="151.9301102">
<ele>799.461</ele>
<time>2017-04-06T04:49:31.183Z</time>
</trkpt>
<trkpt lat="-28.9642709" lon="151.9301478">
<ele>799.941</ele>
<time>2017-04-06T04:49:33.173Z</time>
</trkpt>
<trkpt lat="-28.9650183" lon="151.9301858">
<ele>800.672</ele>
<time>2017-04-06T04:49:36.069Z</time>
</trkpt>
<trkpt lat="-28.9655200" lon="151.9302755">
<ele>802.029</ele>
<time>2017-04-06T04:49:38.037Z</time>
</trkpt>
<trkpt lat="-28.9663379" lon="151.9304625">
<ele>804.241</ele>
<time>2017-04-06T04:49:41.253Z</time>
</trkpt>
<trkpt lat="-28.9670884" lon="151.9307250">
<ele>807.758</ele>
<time>2017-04-06T04:49:44.267Z</time>
</trkpt>
<trkpt lat="-28.9678067" lon="151.9310354">
<ele>813.777</ele>
<time>2017-04-06T04:49:47.220Z</time>
</trkpt>
<trkpt lat="-28.9684897" lon="151.9314464">
<ele>822.275</ele>
<time>2017-04-06T04:49:50.179Z</time>
</trkpt>
<trkpt lat="-28.9691494" lon="151.9319195">
<ele>830.542</ele>
<time>2017-04-06T04:49:53.164Z</time>
</trkpt>
<trkpt lat="-28.9695365" lon="151.9323141">
<ele>835.761</ele>
<time>2017-04-06T04:49:55.159Z</time>
</trkpt>
<trkpt lat="-28.9701710" lon="151.9328397">
<ele>837.492</ele>
<time>2017-04-06T04:49:58.170Z</time>
</trkpt>
<trkpt lat="-28.9705814" lon="151.9331949">
<ele>837.033</ele>
<time>2017-04-06T04:50:00.145Z</time>
</trkpt>
<trkpt lat="-28.9712234" lon="151.9336904">
<ele>835.682</ele>
<time>2017-04-06T04:50:03.118Z</time>
</trkpt>
<trkpt lat="-28.9716311" lon="151.9340592">
<ele>833.927</ele>
<time>2017-04-06T04:50:05.112Z</time>
</trkpt>
<trkpt lat="-28.9720406" lon="151.9344156">
<ele>831.807</ele>
<time>2017-04-06T04:50:07.088Z</time>
</trkpt>
<trkpt lat="-28.9726779" lon="151.9349446">
<ele>829.521</ele>
<time>2017-04-06T04:50:10.113Z</time>
</trkpt>
<trkpt lat="-28.9730885" lon="151.9353175">
<ele>827.158</ele>
<time>2017-04-06T04:50:12.130Z</time>
</trkpt>
<trkpt lat="-28.9734708" lon="151.9357141">
<ele>824.685</ele>
<time>2017-04-06T04:50:14.119Z</time>
</trkpt>
<trkpt lat="-28.9740510" lon="151.9363061">
<ele>822.390</ele>
<time>2017-04-06T04:50:17.116Z</time>
</trkpt>
<trkpt lat="-28.9744179" lon="151.9367213">
<ele>820.508</ele>
<time>2017-04-06T04:50:19.100Z</time>
</trkpt>
<trkpt lat="-28.9749149" lon="151.9374236">
<ele>819.073</ele>
<time>2017-04-06T04:50:22.129Z</time>
</trkpt>
<trkpt lat="-28.9752563" lon="151.9378821">
<ele>818.214</ele>
<time>2017-04-06T04:50:24.137Z</time>
</trkpt>
<trkpt lat="-28.9755695" lon="151.9383801">
<ele>817.803</ele>
<time>2017-04-06T04:50:26.173Z</time>
</trkpt>
<trkpt lat="-28.9760671" lon="151.9390903">
<ele>817.350</ele>
<time>2017-04-06T04:50:29.184Z</time>
</trkpt>
<trkpt lat="-28.9765760" lon="151.9397896">
<ele>816.316</ele>
<time>2017-04-06T04:50:32.192Z</time>
</trkpt>
<trkpt lat="-28.9770994" lon="151.9404626">
<ele>814.427</ele>
<time>2017-04-06T04:50:35.172Z</time>
</trkpt>
<trkpt lat="-28.9776452" lon="151.9411185">
<ele>811.923</ele>
<time>2017-04-06T04:50:38.170Z</time>
</trkpt>
<trkpt lat="-28.9779886" lon="151.9415721">
<ele>809.369</ele>
<time>2017-04-06T04:50:40.160Z</time>
</trkpt>
<trkpt lat="-28.9784896" lon="151.9422586">
<ele>807.362</ele>
<time>2017-04-06T04:50:43.128Z</time>
</trkpt>
<trkpt lat="-28.9790046" lon="151.9429479">
<ele>806.050</ele>
<time>2017-04-06T04:50:46.137Z</time>
</trkpt>
<trkpt lat="-28.9793260" lon="151.9434226">
<ele>804.957</ele>
<time>2017-04-06T04:50:48.131Z</time>
</trkpt>
<trkpt lat="-28.9798483" lon="151.9440958">
<ele>803.804</ele>
<time>2017-04-06T04:50:51.120Z</time>
</trkpt>
<trkpt lat="-28.9802045" lon="151.9445597">
<ele>802.691</ele>
<time>2017-04-06T04:50:53.161Z</time>
</trkpt>
<trkpt lat="-28.9807211" lon="151.9452555">
<ele>801.652</ele>
<time>2017-04-06T04:50:56.170Z</time>
</trkpt>
<trkpt lat="-28.9811048" lon="151.9456683">
<ele>800.477</ele>
<time>2017-04-06T04:50:58.157Z</time>
</trkpt>
<trkpt lat="-28.9816663" lon="151.9463127">
<ele>798.772</ele>
<time>2017-04-06T04:51:01.158Z</time>
</trkpt>
<trkpt lat="-28.9822239" lon="151.9469545">
<ele>796.276</ele>
<time>2017-04-06T04:51:04.139Z</time>
</trkpt>
<trkpt lat="-28.9826071" lon="151.9473756">
<ele>793.308</ele>
<time>2017-04-06T04:51:06.143Z</time>
</trkpt>
<trkpt lat="-28.9830309" lon="151.9477408">
<ele>790.608</ele>
<time>2017-04-06T04:51:08.147Z</time>
</trkpt>
<trkpt lat="-28.9836316" lon="151.9483225">
<ele>788.695</ele>
<time>2017-04-06T04:51:11.120Z</time>
</trkpt>
<trkpt lat="-28.9842516" lon="151.9488743">
<ele>787.414</ele>
<time>2017-04-06T04:51:14.090Z</time>
</trkpt>
<trkpt lat="-28.9846596" lon="151.9492557">
<ele>786.267</ele>
<time>2017-04-06T04:51:16.086Z</time>
</trkpt>
<trkpt lat="-28.9852825" lon="151.9498144">
<ele>784.972</ele>
<time>2017-04-06T04:51:19.091Z</time>
</trkpt>
<trkpt lat="-28.9858941" lon="151.9503717">
<ele>783.592</ele>
<time>2017-04-06T04:51:22.074Z</time>
</trkpt>
<trkpt lat="-28.9862898" lon="151.9507604">
<ele>782.219</ele>
<time>2017-04-06T04:51:24.068Z</time>
</trkpt>
<trkpt lat="-28.9867041" lon="151.9511290">
<ele>780.989</ele>
<time>2017-04-06T04:51:26.073Z</time>
</trkpt>
<trkpt lat="-28.9872906" lon="151.9517321">
<ele>780.124</ele>
<time>2017-04-06T04:51:29.080Z</time>
</trkpt>
<trkpt lat="-28.9876819" lon="151.9521279">
<ele>779.687</ele>
<time>2017-04-06T04:51:31.068Z</time>
</trkpt>
<trkpt lat="-28.9880869" lon="151.9525015">
<ele>779.564</ele>
<time>2017-04-06T04:51:33.053Z</time>
</trkpt>
<trkpt lat="-28.9886810" lon="151.9530815">
<ele>779.616</ele>
<time>2017-04-06T04:51:36.041Z</time>
</trkpt>
<trkpt lat="-28.9890853" lon="151.9534581">
<ele>779.814</ele>
<time>2017-04-06T04:51:38.033Z</time>
</trkpt>
<trkpt lat="-28.9896446" lon="151.9540864">
<ele>780.265</ele>
<time>2017-04-06T04:51:41.016Z</time>
</trkpt>
<trkpt lat="-28.9900669" lon="151.9548690">
<ele>781.111</ele>
<time>2017-04-06T04:51:44.052Z</time>
</trkpt>
<trkpt lat="-28.9902989" lon="151.9554148">
<ele>782.178</ele>
<time>2017-04-06T04:51:46.052Z</time>
</trkpt>
<trkpt lat="-28.9905545" lon="151.9559461">
<ele>782.985</ele>
<time>2017-04-06T04:51:48.055Z</time>
</trkpt>
<trkpt lat="-28.9907830" lon="151.9564857">
<ele>783.254</ele>
<time>2017-04-06T04:51:50.041Z</time>
</trkpt>
<trkpt lat="-28.9911767" lon="151.9572679">
<ele>783.098</ele>
<time>2017-04-06T04:51:53.041Z</time>
</trkpt>
<trkpt lat="-28.9913948" lon="151.9578143">
<ele>782.790</ele>
<time>2017-04-06T04:51:55.038Z</time>
</trkpt>
<trkpt lat="-28.9916327" lon="151.9583496">
<ele>782.591</ele>
<time>2017-04-06T04:51:57.031Z</time>
</trkpt>
<trkpt lat="-28.9920010" lon="151.9591484">
<ele>782.596</ele>
<time>2017-04-06T04:52:00.030Z</time>
</trkpt>
<trkpt lat="-28.9923951" lon="151.9599272">
<ele>782.754</ele>
<time>2017-04-06T04:52:03.032Z</time>
</trkpt>
<trkpt lat="-28.9927537" lon="151.9607220">
<ele>782.962</ele>
<time>2017-04-06T04:52:06.027Z</time>
</trkpt>
<trkpt lat="-28.9931366" lon="151.9615236">
<ele>783.175</ele>
<time>2017-04-06T04:52:09.080Z</time>
</trkpt>
<trkpt lat="-28.9935544" lon="151.9622869">
<ele>783.619</ele>
<time>2017-04-06T04:52:12.066Z</time>
</trkpt>
<trkpt lat="-28.9939339" lon="151.9630858">
<ele>784.543</ele>
<time>2017-04-06T04:52:15.064Z</time>
</trkpt>
<trkpt lat="-28.9942165" lon="151.9635975">
<ele>785.842</ele>
<time>2017-04-06T04:52:17.062Z</time>
</trkpt>
<trkpt lat="-28.9945836" lon="151.9643993">
<ele>787.105</ele>
<time>2017-04-06T04:52:20.065Z</time>
</trkpt>
<trkpt lat="-28.9948160" lon="151.9649344">
<ele>787.971</ele>
<time>2017-04-06T04:52:22.060Z</time>
</trkpt>
<trkpt lat="-28.9951377" lon="151.9657415">
<ele>788.378</ele>
<time>2017-04-06T04:52:25.018Z</time>
</trkpt>
<trkpt lat="-28.9955337" lon="151.9665372">
<ele>788.510</ele>
<time>2017-04-06T04:52:28.053Z</time>
</trkpt>
<trkpt lat="-28.9957415" lon="151.9670944">
<ele>788.429</ele>
<time>2017-04-06T04:52:30.055Z</time>
</trkpt>
<trkpt lat="-28.9960697" lon="151.9679047">
<ele>788.174</ele>
<time>2017-04-06T04:52:33.018Z</time>
</trkpt>
<trkpt lat="-28.9962622" lon="151.9684684">
<ele>788.005</ele>
<time>2017-04-06T04:52:35.039Z</time>
</trkpt>
<trkpt lat="-28.9964730" lon="151.9690177">
<ele>788.219</ele>
<time>2017-04-06T04:52:37.047Z</time>
</trkpt>
<trkpt lat="-28.9967840" lon="151.9698552">
<ele>788.817</ele>
<time>2017-04-06T04:52:40.089Z</time>
</trkpt>
<trkpt lat="-28.9970059" lon="151.9704030">
<ele>789.604</ele>
<time>2017-04-06T04:52:42.090Z</time>
</trkpt>
<trkpt lat="-28.9972378" lon="151.9709355">
<ele>790.345</ele>
<time>2017-04-06T04:52:44.054Z</time>
</trkpt>
<trkpt lat="-28.9974827" lon="151.9714647">
<ele>790.844</ele>
<time>2017-04-06T04:52:46.030Z</time>
</trkpt>
<trkpt lat="-28.9978600" lon="151.9722527">
<ele>791.086</ele>
<time>2017-04-06T04:52:49.000Z</time>
</trkpt>
<trkpt lat="-28.9981609" lon="151.9727364">
<ele>791.247</ele>
<time>2017-04-06T04:52:50.967Z</time>
</trkpt>
<trkpt lat="-28.9984485" lon="151.9732480">
<ele>791.427</ele>
<time>2017-04-06T04:52:52.982Z</time>
</trkpt>
<trkpt lat="-28.9987721" lon="151.9737253">
<ele>791.540</ele>
<time>2017-04-06T04:52:54.980Z</time>
</trkpt>
<trkpt lat="-28.9991001" lon="151.9742015">
<ele>791.521</ele>
<time>2017-04-06T04:52:56.986Z</time>
</trkpt>
<trkpt lat="-28.9996229" lon="151.9748774">
<ele>791.405</ele>
<time>2017-04-06T04:52:59.976Z</time>
</trkpt>
<trkpt lat="-28.9999822" lon="151.9753107">
<ele>791.246</ele>
<time>2017-04-06T04:53:01.955Z</time>
</trkpt>
<trkpt lat="-29.0003690" lon="151.9757198">
<ele>791.110</ele>
<time>2017-04-06T04:53:03.952Z</time>
</trkpt>
<trkpt lat="-29.0007498" lon="151.9761373">
<ele>791.021</ele>
<time>2017-04-06T04:53:05.955Z</time>
</trkpt>
<trkpt lat="-29.0013242" lon="151.9767594">
<ele>790.972</ele>
<time>2017-04-06T04:53:08.962Z</time>
</trkpt>
<trkpt lat="-29.0018957" lon="151.9773789">
<ele>791.064</ele>
<time>2017-04-06T04:53:11.958Z</time>
</trkpt>
<trkpt lat="-29.0024532" lon="151.9780132">
<ele>791.372</ele>
<time>2017-04-06T04:53:14.949Z</time>
</trkpt>
<trkpt lat="-29.0030304" lon="151.9786295">
<ele>791.939</ele>
<time>2017-04-06T04:53:17.947Z</time>
</trkpt>
<trkpt lat="-29.0034100" lon="151.9790417">
<ele>792.910</ele>
<time>2017-04-06T04:53:19.932Z</time>
</trkpt>
<trkpt lat="-29.0037645" lon="151.9794946">
<ele>794.375</ele>
<time>2017-04-06T04:53:21.946Z</time>
</trkpt>
<trkpt lat="-29.0043215" lon="151.9801395">
<ele>796.232</ele>
<time>2017-04-06T04:53:24.943Z</time>
</trkpt>
<trkpt lat="-29.0046698" lon="151.9805936">
<ele>798.512</ele>
<time>2017-04-06T04:53:26.939Z</time>
</trkpt>
<trkpt lat="-29.0052310" lon="151.9812307">
<ele>801.189</ele>
<time>2017-04-06T04:53:29.933Z</time>
</trkpt>
<trkpt lat="-29.0055973" lon="151.9816578">
<ele>803.932</ele>
<time>2017-04-06T04:53:31.919Z</time>
</trkpt>
<trkpt lat="-29.0059454" lon="151.9821089">
<ele>806.294</ele>
<time>2017-04-06T04:53:33.912Z</time>
</trkpt>
<trkpt lat="-29.0064884" lon="151.9827773">
<ele>807.941</ele>
<time>2017-04-06T04:53:36.920Z</time>
</trkpt>
<trkpt lat="-29.0068604" lon="151.9831967">
<ele>808.970</ele>
<time>2017-04-06T04:53:38.893Z</time>
</trkpt>
<trkpt lat="-29.0073731" lon="151.9838712">
<ele>809.815</ele>
<time>2017-04-06T04:53:41.860Z</time>
</trkpt>
<trkpt lat="-29.0076834" lon="151.9843554">
<ele>810.903</ele>
<time>2017-04-06T04:53:43.855Z</time>
</trkpt>
<trkpt lat="-29.0080962" lon="151.9851303">
<ele>812.466</ele>
<time>2017-04-06T04:53:46.856Z</time>
</trkpt>
<trkpt lat="-29.0084832" lon="151.9859215">
<ele>814.144</ele>
<time>2017-04-06T04:53:49.851Z</time>
</trkpt>
<trkpt lat="-29.0087500" lon="151.9864388">
<ele>815.275</ele>
<time>2017-04-06T04:53:51.850Z</time>
</trkpt>
<trkpt lat="-29.0092066" lon="151.9871661">
<ele>815.599</ele>
<time>2017-04-06T04:53:54.839Z</time>
</trkpt>
<trkpt lat="-29.0095243" lon="151.9876454">
<ele>815.305</ele>
<time>2017-04-06T04:53:56.840Z</time>
</trkpt>
<trkpt lat="-29.0100183" lon="151.9883371">
<ele>814.842</ele>
<time>2017-04-06T04:53:59.807Z</time>
</trkpt>
<trkpt lat="-29.0105355" lon="151.9890131">
<ele>814.655</ele>
<time>2017-04-06T04:54:02.855Z</time>
</trkpt>
<trkpt lat="-29.0109516" lon="151.9896364">
<ele>814.950</ele>
<time>2017-04-06T04:54:05.711Z</time>
</trkpt>
<trkpt lat="-29.0112294" lon="151.9900278">
<ele>815.570</ele>
<time>2017-04-06T04:54:07.688Z</time>
</trkpt>
<trkpt lat="-29.0116573" lon="151.9905980">
<ele>816.215</ele>
<time>2017-04-06T04:54:10.646Z</time>
</trkpt>
<trkpt lat="-29.0121076" lon="151.9912042">
<ele>816.920</ele>
<time>2017-04-06T04:54:13.660Z</time>
</trkpt>
<trkpt lat="-29.0124223" lon="151.9916386">
<ele>818.034</ele>
<time>2017-04-06T04:54:15.705Z</time>
</trkpt>
<trkpt lat="-29.0126769" lon="151.9920992">
<ele>819.544</ele>
<time>2017-04-06T04:54:17.694Z</time>
</trkpt>
<trkpt lat="-29.0130214" lon="151.9927768">
<ele>820.896</ele>
<time>2017-04-06T04:54:20.628Z</time>
</trkpt>
<trkpt lat="-29.0133466" lon="151.9934717">
<ele>821.669</ele>
<time>2017-04-06T04:54:23.623Z</time>
</trkpt>
<trkpt lat="-29.0135993" lon="151.9939103">
<ele>822.037</ele>
<time>2017-04-06T04:54:25.619Z</time>
</trkpt>
<trkpt lat="-29.0138845" lon="151.9943266">
<ele>822.490</ele>
<time>2017-04-06T04:54:27.624Z</time>
</trkpt>
<trkpt lat="-29.0143565" lon="151.9949086">
<ele>823.488</ele>
<time>2017-04-06T04:54:30.630Z</time>
</trkpt>
<trkpt lat="-29.0147038" lon="151.9952222">
<ele>825.300</ele>
<time>2017-04-06T04:54:32.584Z</time>
</trkpt>
<trkpt lat="-29.0150701" lon="151.9955147">
<ele>827.782</ele>
<time>2017-04-06T04:54:34.594Z</time>
</trkpt>
<trkpt lat="-29.0156278" lon="151.9959082">
<ele>830.333</ele>
<time>2017-04-06T04:54:37.558Z</time>
</trkpt>
<trkpt lat="-29.0160420" lon="151.9960853">
<ele>832.619</ele>
<time>2017-04-06T04:54:39.571Z</time>
</trkpt>
<trkpt lat="-29.0166585" lon="151.9962691">
<ele>834.543</ele>
<time>2017-04-06T04:54:42.528Z</time>
</trkpt>
<trkpt lat="-29.0170727" lon="151.9963463">
<ele>835.766</ele>
<time>2017-04-06T04:54:44.510Z</time>
</trkpt>
<trkpt lat="-29.0174918" lon="151.9964165">
<ele>836.088</ele>
<time>2017-04-06T04:54:46.498Z</time>
</trkpt>
<trkpt lat="-29.0181316" lon="151.9965440">
<ele>835.824</ele>
<time>2017-04-06T04:54:49.521Z</time>
</trkpt>
<trkpt lat="-29.0185466" lon="151.9966487">
<ele>835.487</ele>
<time>2017-04-06T04:54:51.502Z</time>
</trkpt>
<trkpt lat="-29.0189654" lon="151.9967113">
<ele>835.530</ele>
<time>2017-04-06T04:54:53.477Z</time>
</trkpt>
<trkpt lat="-29.0194403" lon="151.9968067">
<ele>836.108</ele>
<time>2017-04-06T04:54:55.685Z</time>
</trkpt>
<trkpt lat="-29.0201049" lon="151.9970420">
<ele>837.119</ele>
<time>2017-04-06T04:54:58.741Z</time>
</trkpt>
<trkpt lat="-29.0207666" lon="151.9973851">
<ele>838.517</ele>
<time>2017-04-06T04:55:01.799Z</time>
</trkpt>
<trkpt lat="-29.0213942" lon="151.9977135">
<ele>840.054</ele>
<time>2017-04-06T04:55:04.706Z</time>
</trkpt>
<trkpt lat="-29.0217489" lon="151.9980108">
<ele>841.008</ele>
<time>2017-04-06T04:55:06.649Z</time>
</trkpt>
<trkpt lat="-29.0220732" lon="151.9983019">
<ele>840.758</ele>
<time>2017-04-06T04:55:08.542Z</time>
</trkpt>
<trkpt lat="-29.0225854" lon="151.9987682">
<ele>839.273</ele>
<time>2017-04-06T04:55:11.580Z</time>
</trkpt>
<trkpt lat="-29.0228881" lon="151.9991567">
<ele>836.971</ele>
<time>2017-04-06T04:55:13.612Z</time>
</trkpt>
<trkpt lat="-29.0234118" lon="151.9998278">
<ele>834.720</ele>
<time>2017-04-06T04:55:16.830Z</time>
</trkpt>
<trkpt lat="-29.0238080" lon="152.0003034">
<ele>833.548</ele>
<time>2017-04-06T04:55:18.889Z</time>
</trkpt>
<trkpt lat="-29.0244735" lon="152.0010825">
<ele>833.948</ele>
<time>2017-04-06T04:55:22.039Z</time>
</trkpt>
<trkpt lat="-29.0248995" lon="152.0016153">
<ele>835.605</ele>
<time>2017-04-06T04:55:24.087Z</time>
</trkpt>
<trkpt lat="-29.0253014" lon="152.0020739">
<ele>837.592</ele>
<time>2017-04-06T04:55:26.050Z</time>
</trkpt>
<trkpt lat="-29.0259017" lon="152.0026181">
<ele>838.729</ele>
<time>2017-04-06T04:55:28.877Z</time>
</trkpt>
<trkpt lat="-29.0263162" lon="152.0029539">
<ele>838.340</ele>
<time>2017-04-06T04:55:30.850Z</time>
</trkpt>
<trkpt lat="-29.0269736" lon="152.0034399">
<ele>836.946</ele>
<time>2017-04-06T04:55:33.876Z</time>
</trkpt>
<trkpt lat="-29.0274157" lon="152.0037435">
<ele>835.787</ele>
<time>2017-04-06T04:55:35.858Z</time>
</trkpt>
<trkpt lat="-29.0278709" lon="152.0040162">
<ele>835.574</ele>
<time>2017-04-06T04:55:37.850Z</time>
</trkpt>
<trkpt lat="-29.0285513" lon="152.0044041">
<ele>836.135</ele>
<time>2017-04-06T04:55:40.817Z</time>
</trkpt>
<trkpt lat="-29.0290175" lon="152.0046463">
<ele>837.254</ele>
<time>2017-04-06T04:55:42.811Z</time>
</trkpt>
<trkpt lat="-29.0297257" lon="152.0049989">
<ele>838.855</ele>
<time>2017-04-06T04:55:45.801Z</time>
</trkpt>
<trkpt lat="-29.0304703" lon="152.0052409">
<ele>840.771</ele>
<time>2017-04-06T04:55:48.788Z</time>
</trkpt>
<trkpt lat="-29.0309651" lon="152.0053842">
<ele>842.809</ele>
<time>2017-04-06T04:55:50.781Z</time>
</trkpt>
<trkpt lat="-29.0316763" lon="152.0056244">
<ele>844.682</ele>
<time>2017-04-06T04:55:53.725Z</time>
</trkpt>
<trkpt lat="-29.0321675" lon="152.0057373">
<ele>846.290</ele>
<time>2017-04-06T04:55:55.720Z</time>
</trkpt>
<trkpt lat="-29.0326705" lon="152.0058223">
<ele>847.928</ele>
<time>2017-04-06T04:55:57.738Z</time>
</trkpt>
<trkpt lat="-29.0331562" lon="152.0059381">
<ele>849.859</ele>
<time>2017-04-06T04:55:59.758Z</time>
</trkpt>
<trkpt lat="-29.0338084" lon="152.0060106">
<ele>852.073</ele>
<time>2017-04-06T04:56:02.562Z</time>
</trkpt>
<trkpt lat="-29.0342167" lon="152.0060243">
<ele>854.112</ele>
<time>2017-04-06T04:56:04.467Z</time>
</trkpt>
<trkpt lat="-29.0347973" lon="152.0060610">
<ele>855.110</ele>
<time>2017-04-06T04:56:07.377Z</time>
</trkpt>
<trkpt lat="-29.0353346" lon="152.0061329">
<ele>854.472</ele>
<time>2017-04-06T04:56:10.274Z</time>
</trkpt>
<trkpt lat="-29.0356997" lon="152.0061485">
<ele>852.378</ele>
<time>2017-04-06T04:56:12.288Z</time>
</trkpt>
<trkpt lat="-29.0360888" lon="152.0061627">
<ele>849.846</ele>
<time>2017-04-06T04:56:14.358Z</time>
</trkpt>
<trkpt lat="-29.0366787" lon="152.0061886">
<ele>848.024</ele>
<time>2017-04-06T04:56:17.390Z</time>
</trkpt>
<trkpt lat="-29.0372703" lon="152.0062429">
<ele>847.225</ele>
<time>2017-04-06T04:56:20.400Z</time>
</trkpt>
<trkpt lat="-29.0378319" lon="152.0064252">
<ele>846.889</ele>
<time>2017-04-06T04:56:23.382Z</time>
</trkpt>
<trkpt lat="-29.0381349" lon="152.0066933">
<ele>846.231</ele>
<time>2017-04-06T04:56:25.358Z</time>
</trkpt>
<trkpt lat="-29.0385277" lon="152.0071767">
<ele>845.024</ele>
<time>2017-04-06T04:56:28.340Z</time>
</trkpt>
<trkpt lat="-29.0388332" lon="152.0077799">
<ele>843.623</ele>
<time>2017-04-06T04:56:31.479Z</time>
</trkpt>
<trkpt lat="-29.0389299" lon="152.0082216">
<ele>842.406</ele>
<time>2017-04-06T04:56:33.547Z</time>
</trkpt>
<trkpt lat="-29.0389817" lon="152.0086501">
<ele>841.460</ele>
<time>2017-04-06T04:56:35.598Z</time>
</trkpt>
<trkpt lat="-29.0390758" lon="152.0091909">
<ele>840.588</ele>
<time>2017-04-06T04:56:38.473Z</time>
</trkpt>
<trkpt lat="-29.0391147" lon="152.0096379">
<ele>839.418</ele>
<time>2017-04-06T04:56:41.216Z</time>
</trkpt>
<trkpt lat="-29.0391831" lon="152.0100570">
<ele>837.830</ele>
<time>2017-04-06T04:56:44.146Z</time>
</trkpt>
<trkpt lat="-29.0392514" lon="152.0104817">
<ele>836.213</ele>
<time>2017-04-06T04:56:47.189Z</time>
</trkpt>
<trkpt lat="-29.0392877" lon="152.0107514">
<ele>835.121</ele>
<time>2017-04-06T04:56:49.109Z</time>
</trkpt>
<trkpt lat="-29.0393472" lon="152.0111792">
<ele>834.719</ele>
<time>2017-04-06T04:56:52.161Z</time>
</trkpt>
<trkpt lat="-29.0394004" lon="152.0116171">
<ele>834.795</ele>
<time>2017-04-06T04:56:55.234Z</time>
</trkpt>
<trkpt lat="-29.0394372" lon="152.0118932">
<ele>835.062</ele>
<time>2017-04-06T04:56:57.198Z</time>
</trkpt>
<trkpt lat="-29.0394713" lon="152.0121689">
<ele>835.307</ele>
<time>2017-04-06T04:56:59.199Z</time>
</trkpt>
<trkpt lat="-29.0395836" lon="152.0125981">
<ele>835.453</ele>
<time>2017-04-06T04:57:02.355Z</time>
</trkpt>
<trkpt lat="-29.0396294" lon="152.0130347">
<ele>835.528</ele>
<time>2017-04-06T04:57:05.407Z</time>
</trkpt>
<trkpt lat="-29.0396983" lon="152.0134716">
<ele>835.621</ele>
<time>2017-04-06T04:57:08.471Z</time>
</trkpt>
<trkpt lat="-29.0397317" lon="152.0137667">
<ele>835.846</ele>
<time>2017-04-06T04:57:10.499Z</time>
</trkpt>
<trkpt lat="-29.0397779" lon="152.0140557">
<ele>836.290</ele>
<time>2017-04-06T04:57:12.506Z</time>
</trkpt>
<trkpt lat="-29.0398471" lon="152.0144858">
<ele>836.963</ele>
<time>2017-04-06T04:57:15.497Z</time>
</trkpt>
<trkpt lat="-29.0399433" lon="152.0149281">
<ele>837.764</ele>
<time>2017-04-06T04:57:18.565Z</time>
</trkpt>
<trkpt lat="-29.0399998" lon="152.0152176">
<ele>838.448</ele>
<time>2017-04-06T04:57:20.550Z</time>
</trkpt>
<trkpt lat="-29.0400160" lon="152.0155061">
<ele>838.714</ele>
<time>2017-04-06T04:57:22.530Z</time>
</trkpt>
<trkpt lat="-29.0400797" lon="152.0159206">
<ele>838.414</ele>
<time>2017-04-06T04:57:25.486Z</time>
</trkpt>
<trkpt lat="-29.0401499" lon="152.0161889">
<ele>837.569</ele>
<time>2017-04-06T04:57:27.498Z</time>
</trkpt>
<trkpt lat="-29.0401892" lon="152.0164518">
<ele>836.350</ele>
<time>2017-04-06T04:57:29.445Z</time>
</trkpt>
<trkpt lat="-29.0402404" lon="152.0167213">
<ele>835.079</ele>
<time>2017-04-06T04:57:31.431Z</time>
</trkpt>
<trkpt lat="-29.0402701" lon="152.0170099">
<ele>834.040</ele>
<time>2017-04-06T04:57:33.465Z</time>
</trkpt>
<trkpt lat="-29.0402986" lon="152.0174482">
<ele>833.285</ele>
<time>2017-04-06T04:57:36.503Z</time>
</trkpt>
<trkpt lat="-29.0403469" lon="152.0178887">
<ele>832.636</ele>
<time>2017-04-06T04:57:39.545Z</time>
</trkpt>
<trkpt lat="-29.0404104" lon="152.0183245">
<ele>831.766</ele>
<time>2017-04-06T04:57:42.538Z</time>
</trkpt>
<trkpt lat="-29.0404659" lon="152.0186171">
<ele>830.445</ele>
<time>2017-04-06T04:57:44.554Z</time>
</trkpt>
<trkpt lat="-29.0405427" lon="152.0189023">
<ele>828.791</ele>
<time>2017-04-06T04:57:46.571Z</time>
</trkpt>
<trkpt lat="-29.0405350" lon="152.0191879">
<ele>827.117</ele>
<time>2017-04-06T04:57:48.526Z</time>
</trkpt>
<trkpt lat="-29.0405971" lon="152.0196235">
<ele>825.581</ele>
<time>2017-04-06T04:57:51.558Z</time>
</trkpt>
<trkpt lat="-29.0406344" lon="152.0199229">
<ele>824.067</ele>
<time>2017-04-06T04:57:53.614Z</time>
</trkpt>
<trkpt lat="-29.0406993" lon="152.0203548">
<ele>822.491</ele>
<time>2017-04-06T04:57:56.581Z</time>
</trkpt>
<trkpt lat="-29.0407272" lon="152.0206473">
<ele>820.795</ele>
<time>2017-04-06T04:57:58.573Z</time>
</trkpt>
<trkpt lat="-29.0408292" lon="152.0209165">
<ele>818.954</ele>
<time>2017-04-06T04:58:00.570Z</time>
</trkpt>
<trkpt lat="-29.0410602" lon="152.0212787">
<ele>817.119</ele>
<time>2017-04-06T04:58:03.653Z</time>
</trkpt>
<trkpt lat="-29.0413084" lon="152.0213780">
<ele>815.407</ele>
<time>2017-04-06T04:58:05.732Z</time>
</trkpt>
<trkpt lat="-29.0418052" lon="152.0213581">
<ele>813.757</ele>
<time>2017-04-06T04:58:09.607Z</time>
</trkpt>
<trkpt lat="-29.0420499" lon="152.0212829">
<ele>812.147</ele>
<time>2017-04-06T04:58:11.555Z</time>
</trkpt>
<trkpt lat="-29.0424259" lon="152.0212172">
<ele>810.657</ele>
<time>2017-04-06T04:58:14.496Z</time>
</trkpt>
<trkpt lat="-29.0427933" lon="152.0211125">
<ele>809.496</ele>
<time>2017-04-06T04:58:17.445Z</time>
</trkpt>
<trkpt lat="-29.0430553" lon="152.0210794">
<ele>808.816</ele>
<time>2017-04-06T04:58:19.505Z</time>
</trkpt>
<trkpt lat="-29.0434351" lon="152.0210227">
<ele>808.477</ele>
<time>2017-04-06T04:58:22.495Z</time>
</trkpt>
<trkpt lat="-29.0438135" lon="152.0209555">
<ele>808.192</ele>
<time>2017-04-06T04:58:25.481Z</time>
</trkpt>
<trkpt lat="-29.0440533" lon="152.0209074">
<ele>807.778</ele>
<time>2017-04-06T04:58:27.394Z</time>
</trkpt>
<trkpt lat="-29.0444262" lon="152.0208501">
<ele>807.336</ele>
<time>2017-04-06T04:58:30.360Z</time>
</trkpt>
<trkpt lat="-29.0446850" lon="152.0208241">
<ele>807.099</ele>
<time>2017-04-06T04:58:32.395Z</time>
</trkpt>
<trkpt lat="-29.0450773" lon="152.0208698">
<ele>807.140</ele>
<time>2017-04-06T04:58:35.457Z</time>
</trkpt>
<trkpt lat="-29.0453322" lon="152.0208731">
<ele>807.329</ele>
<time>2017-04-06T04:58:37.433Z</time>
</trkpt>
<trkpt lat="-29.0455890" lon="152.0208655">
<ele>807.517</ele>
<time>2017-04-06T04:58:39.433Z</time>
</trkpt>
<trkpt lat="-29.0459448" lon="152.0207008">
<ele>807.660</ele>
<time>2017-04-06T04:58:42.431Z</time>
</trkpt>
<trkpt lat="-29.0462832" lon="152.0204986">
<ele>807.783</ele>
<time>2017-04-06T04:58:45.418Z</time>
</trkpt>
<trkpt lat="-29.0466622" lon="152.0204089">
<ele>807.956</ele>
<time>2017-04-06T04:58:48.439Z</time>
</trkpt>
<trkpt lat="-29.0469177" lon="152.0203620">
<ele>808.297</ele>
<time>2017-04-06T04:58:50.454Z</time>
</trkpt>
<trkpt lat="-29.0473010" lon="152.0203031">
<ele>808.849</ele>
<time>2017-04-06T04:58:53.468Z</time>
</trkpt>
<trkpt lat="-29.0475519" lon="152.0202544">
<ele>809.515</ele>
<time>2017-04-06T04:58:55.460Z</time>
</trkpt>
<trkpt lat="-29.0479292" lon="152.0201862">
<ele>810.191</ele>
<time>2017-04-06T04:58:58.452Z</time>
</trkpt>
<trkpt lat="-29.0481799" lon="152.0201295">
<ele>810.905</ele>
<time>2017-04-06T04:59:00.448Z</time>
</trkpt>
<trkpt lat="-29.0485590" lon="152.0200509">
<ele>811.734</ele>
<time>2017-04-06T04:59:03.449Z</time>
</trkpt>
<trkpt lat="-29.0489401" lon="152.0199825">
<ele>812.705</ele>
<time>2017-04-06T04:59:06.447Z</time>
</trkpt>
<trkpt lat="-29.0491903" lon="152.0199382">
<ele>813.802</ele>
<time>2017-04-06T04:59:08.457Z</time>
</trkpt>
<trkpt lat="-29.0495466" lon="152.0198674">
<ele>814.916</ele>
<time>2017-04-06T04:59:11.387Z</time>
</trkpt>
<trkpt lat="-29.0497866" lon="152.0198205">
<ele>815.885</ele>
<time>2017-04-06T04:59:13.382Z</time>
</trkpt>
<trkpt lat="-29.0501503" lon="152.0197534">
<ele>816.621</ele>
<time>2017-04-06T04:59:16.386Z</time>
</trkpt>
<trkpt lat="-29.0505159" lon="152.0196880">
<ele>817.118</ele>
<time>2017-04-06T04:59:19.387Z</time>
</trkpt>
<trkpt lat="-29.0508809" lon="152.0196177">
<ele>817.414</ele>
<time>2017-04-06T04:59:22.376Z</time>
</trkpt>
<trkpt lat="-29.0511294" lon="152.0195787">
<ele>817.608</ele>
<time>2017-04-06T04:59:24.387Z</time>
</trkpt>
<trkpt lat="-29.0513793" lon="152.0195383">
<ele>817.780</ele>
<time>2017-04-06T04:59:26.407Z</time>
</trkpt>
<trkpt lat="-29.0516264" lon="152.0194972">
<ele>817.923</ele>
<time>2017-04-06T04:59:28.415Z</time>
</trkpt>
<trkpt lat="-29.0518643" lon="152.0194562">
<ele>817.984</ele>
<time>2017-04-06T04:59:30.511Z</time>
</trkpt>
<trkpt lat="-29.0521571" lon="152.0194048">
<ele>817.957</ele>
<time>2017-04-06T04:59:33.479Z</time>
</trkpt>
<trkpt lat="-29.0523817" lon="152.0193583">
<ele>817.833</ele>
<time>2017-04-06T04:59:36.329Z</time>
</trkpt>
<trkpt lat="-29.0525718" lon="152.0193228">
<ele>817.649</ele>
<time>2017-04-06T04:59:39.188Z</time>
</trkpt>
<trkpt lat="-29.0526932" lon="152.0193000">
<ele>817.472</ele>
<time>2017-04-06T04:59:41.129Z</time>
</trkpt>
<trkpt lat="-29.0528220" lon="152.0192745">
<ele>817.326</ele>
<time>2017-04-06T04:59:43.092Z</time>
</trkpt>
<trkpt lat="-29.0530359" lon="152.0192440">
<ele>817.225</ele>
<time>2017-04-06T04:59:46.157Z</time>
</trkpt>
<trkpt lat="-29.0531811" lon="152.0192319">
<ele>817.214</ele>
<time>2017-04-06T04:59:48.065Z</time>
</trkpt>
<trkpt lat="-29.0534344" lon="152.0192194">
<ele>817.302</ele>
<time>2017-04-06T04:59:51.178Z</time>
</trkpt>
<trkpt lat="-29.0536085" lon="152.0191819">
<ele>817.482</ele>
<time>2017-04-06T04:59:53.238Z</time>
</trkpt>
<trkpt lat="-29.0537657" lon="152.0191352">
<ele>817.700</ele>
<time>2017-04-06T04:59:55.217Z</time>
</trkpt>
<trkpt lat="-29.0539802" lon="152.0190773">
<ele>817.861</ele>
<time>2017-04-06T04:59:58.063Z</time>
</trkpt>
<trkpt lat="-29.0542012" lon="152.0190316">
<ele>817.891</ele>
<time>2017-04-06T05:00:01.081Z</time>
</trkpt>
<trkpt lat="-29.0544270" lon="152.0189862">
<ele>817.752</ele>
<time>2017-04-06T05:00:04.138Z</time>
</trkpt>
<trkpt lat="-29.0546470" lon="152.0189406">
<ele>817.423</ele>
<time>2017-04-06T05:00:07.149Z</time>
</trkpt>
<trkpt lat="-29.0547867" lon="152.0189124">
<ele>817.019</ele>
<time>2017-04-06T05:00:09.118Z</time>
</trkpt>
<trkpt lat="-29.0549976" lon="152.0188758">
<ele>817.579</ele>
<time>2017-04-06T05:00:12.141Z</time>
</trkpt>
<trkpt lat="-29.0552002" lon="152.0188505">
<ele>819.679</ele>
<time>2017-04-06T05:00:15.090Z</time>
</trkpt>
<trkpt lat="-29.0554056" lon="152.0188312">
<ele>821.883</ele>
<time>2017-04-06T05:00:18.140Z</time>
</trkpt>
<trkpt lat="-29.0555284" lon="152.0188018">
<ele>822.815</ele>
<time>2017-04-06T05:00:20.012Z</time>
</trkpt>
<trkpt lat="-29.0557369" lon="152.0187420">
<ele>822.784</ele>
<time>2017-04-06T05:00:23.053Z</time>
</trkpt>
<trkpt lat="-29.0559743" lon="152.0186795">
<ele>822.451</ele>
<time>2017-04-06T05:00:26.169Z</time>
</trkpt>
<trkpt lat="-29.0562220" lon="152.0186301">
<ele>822.247</ele>
<time>2017-04-06T05:00:29.269Z</time>
</trkpt>
<trkpt lat="-29.0564559" lon="152.0185867">
<ele>822.284</ele>
<time>2017-04-06T05:00:32.224Z</time>
</trkpt>
<trkpt lat="-29.0566781" lon="152.0185416">
<ele>822.436</ele>
<time>2017-04-06T05:00:35.028Z</time>
</trkpt>
<trkpt lat="-29.0569328" lon="152.0184921">
<ele>822.565</ele>
<time>2017-04-06T05:00:38.113Z</time>
</trkpt>
<trkpt lat="-29.0571916" lon="152.0184498">
<ele>822.638</ele>
<time>2017-04-06T05:00:41.126Z</time>
</trkpt>
<trkpt lat="-29.0574499" lon="152.0184034">
<ele>822.661</ele>
<time>2017-04-06T05:00:44.087Z</time>
</trkpt>
<trkpt lat="-29.0576328" lon="152.0183686">
<ele>822.726</ele>
<time>2017-04-06T05:00:46.075Z</time>
</trkpt>
<trkpt lat="-29.0579378" lon="152.0183108">
<ele>822.956</ele>
<time>2017-04-06T05:00:49.200Z</time>
</trkpt>
<trkpt lat="-29.0582392" lon="152.0182522">
<ele>823.431</ele>
<time>2017-04-06T05:00:52.185Z</time>
</trkpt>
<trkpt lat="-29.0585368" lon="152.0181690">
<ele>824.240</ele>
<time>2017-04-06T05:00:55.177Z</time>
</trkpt>
<trkpt lat="-29.0587430" lon="152.0181368">
<ele>825.463</ele>
<time>2017-04-06T05:00:57.185Z</time>
</trkpt>
<trkpt lat="-29.0590543" lon="152.0180890">
<ele>826.981</ele>
<time>2017-04-06T05:01:00.193Z</time>
</trkpt>
<trkpt lat="-29.0593630" lon="152.0180323">
<ele>828.581</ele>
<time>2017-04-06T05:01:03.180Z</time>
</trkpt>
<trkpt lat="-29.0595722" lon="152.0180004">
<ele>830.158</ele>
<time>2017-04-06T05:01:05.150Z</time>
</trkpt>
<trkpt lat="-29.0599016" lon="152.0179329">
<ele>831.661</ele>
<time>2017-04-06T05:01:08.136Z</time>
</trkpt>
<trkpt lat="-29.0602619" lon="152.0178562">
<ele>833.093</ele>
<time>2017-04-06T05:01:11.178Z</time>
</trkpt>
<trkpt lat="-29.0606363" lon="152.0177941">
<ele>834.636</ele>
<time>2017-04-06T05:01:14.207Z</time>
</trkpt>
<trkpt lat="-29.0608758" lon="152.0177581">
<ele>836.324</ele>
<time>2017-04-06T05:01:16.191Z</time>
</trkpt>
<trkpt lat="-29.0611057" lon="152.0177284">
<ele>837.752</ele>
<time>2017-04-06T05:01:18.138Z</time>
</trkpt>
<trkpt lat="-29.0614577" lon="152.0176670">
<ele>838.489</ele>
<time>2017-04-06T05:01:21.171Z</time>
</trkpt>
<trkpt lat="-29.0616770" lon="152.0176282">
<ele>838.475</ele>
<time>2017-04-06T05:01:23.176Z</time>
</trkpt>
<trkpt lat="-29.0619711" lon="152.0175820">
<ele>837.938</ele>
<time>2017-04-06T05:01:26.230Z</time>
</trkpt>
<trkpt lat="-29.0621706" lon="152.0175014">
<ele>837.163</ele>
<time>2017-04-06T05:01:29.091Z</time>
</trkpt>
<trkpt lat="-29.0622373" lon="152.0174176">
<ele>836.302</ele>
<time>2017-04-06T05:01:30.988Z</time>
</trkpt>
<trkpt lat="-29.0623002" lon="152.0173016">
<ele>835.406</ele>
<time>2017-04-06T05:01:33.710Z</time>
</trkpt>
<trkpt lat="-29.0623740" lon="152.0172109">
<ele>834.535</ele>
<time>2017-04-06T05:01:36.734Z</time>
</trkpt>
<trkpt lat="-29.0624547" lon="152.0171555">
<ele>833.708</ele>
<time>2017-04-06T05:01:40.013Z</time>
</trkpt>
<trkpt lat="-29.0624547" lon="152.0171555">
<ele>833.024</ele>
<time>2017-04-06T05:01:43.013Z</time>
</trkpt>
<trkpt lat="-29.0624547" lon="152.0171555">
<ele>832.570</ele>
<time>2017-04-06T05:01:59.455Z</time>
</trkpt>
<trkpt lat="-29.0626015" lon="152.0171777">
<ele>832.273</ele>
<time>2017-04-06T05:02:07.268Z</time>
</trkpt>
<trkpt lat="-29.0626945" lon="152.0172438">
<ele>832.087</ele>
<time>2017-04-06T05:02:10.716Z</time>
</trkpt>
<trkpt lat="-29.0627646" lon="152.0173154">
<ele>832.044</ele>
<time>2017-04-06T05:02:13.232Z</time>
</trkpt>
<trkpt lat="-29.0628348" lon="152.0173893">
<ele>832.164</ele>
<time>2017-04-06T05:02:14.589Z</time>
</trkpt>
<trkpt lat="-29.0631189" lon="152.0173824">
<ele>832.495</ele>
<time>2017-04-06T05:02:17.613Z</time>
</trkpt>
<trkpt lat="-29.0634900" lon="152.0172764">
<ele>833.121</ele>
<time>2017-04-06T05:02:20.712Z</time>
</trkpt>
<trkpt lat="-29.0638591" lon="152.0171341">
<ele>834.052</ele>
<time>2017-04-06T05:02:23.704Z</time>
</trkpt>
<trkpt lat="-29.0640810" lon="152.0170121">
<ele>835.007</ele>
<time>2017-04-06T05:02:25.668Z</time>
</trkpt>
<trkpt lat="-29.0642753" lon="152.0168795">
<ele>835.584</ele>
<time>2017-04-06T05:02:27.660Z</time>
</trkpt>
<trkpt lat="-29.0644376" lon="152.0167798">
<ele>835.659</ele>
<time>2017-04-06T05:02:29.857Z</time>
</trkpt>
<trkpt lat="-29.0645946" lon="152.0167538">
<ele>835.335</ele>
<time>2017-04-06T05:02:32.372Z</time>
</trkpt>
<trkpt lat="-29.0647130" lon="152.0168118">
<ele>834.720</ele>
<time>2017-04-06T05:02:35.218Z</time>
</trkpt>
<trkpt lat="-29.0648031" lon="152.0168616">
<ele>833.994</ele>
<time>2017-04-06T05:02:38.080Z</time>
</trkpt>
<trkpt lat="-29.0649050" lon="152.0168139">
<ele>833.439</ele>
<time>2017-04-06T05:02:42.013Z</time>
</trkpt>
<trkpt lat="-29.0649050" lon="152.0168139">
<ele>833.188</ele>
<time>2017-04-06T05:02:51.013Z</time>
</trkpt>
<trkpt lat="-29.0649050" lon="152.0168139">
<ele>833.037</ele>
<time>2017-04-06T05:02:51.113Z</time>
</trkpt>
<trkpt lat="-29.0651384" lon="152.0169063">
<ele>832.763</ele>
<time>2017-04-06T05:29:03.999Z</time>
</trkpt>
<trkpt lat="-29.0651384" lon="152.0169063">
<ele>832.428</ele>
<time>2017-04-06T05:29:07.999Z</time>
</trkpt>
<trkpt lat="-29.0651384" lon="152.0169063">
<ele>832.154</ele>
<time>2017-04-06T05:29:16.587Z</time>
</trkpt>
<trkpt lat="-29.0650985" lon="152.0167484">
<ele>831.941</ele>
<time>2017-04-06T05:29:25.584Z</time>
</trkpt>
<trkpt lat="-29.0650427" lon="152.0166384">
<ele>831.871</ele>
<time>2017-04-06T05:29:30.213Z</time>
</trkpt>
<trkpt lat="-29.0649950" lon="152.0165324">
<ele>831.997</ele>
<time>2017-04-06T05:29:34.421Z</time>
</trkpt>
<trkpt lat="-29.0650053" lon="152.0164200">
<ele>832.173</ele>
<time>2017-04-06T05:29:36.205Z</time>
</trkpt>
<trkpt lat="-29.0652411" lon="152.0162175">
<ele>832.266</ele>
<time>2017-04-06T05:29:39.335Z</time>
</trkpt>
<trkpt lat="-29.0654865" lon="152.0160583">
<ele>832.496</ele>
<time>2017-04-06T05:29:41.565Z</time>
</trkpt>
<trkpt lat="-29.0657110" lon="152.0159145">
<ele>833.186</ele>
<time>2017-04-06T05:29:43.543Z</time>
</trkpt>
<trkpt lat="-29.0660538" lon="152.0156797">
<ele>834.200</ele>
<time>2017-04-06T05:29:46.499Z</time>
</trkpt>
<trkpt lat="-29.0662909" lon="152.0155083">
<ele>835.068</ele>
<time>2017-04-06T05:29:48.519Z</time>
</trkpt>
<trkpt lat="-29.0665285" lon="152.0153416">
<ele>835.548</ele>
<time>2017-04-06T05:29:50.489Z</time>
</trkpt>
<trkpt lat="-29.0669044" lon="152.0150857">
<ele>835.655</ele>
<time>2017-04-06T05:29:53.408Z</time>
</trkpt>
<trkpt lat="-29.0671739" lon="152.0149017">
<ele>835.535</ele>
<time>2017-04-06T05:29:55.292Z</time>
</trkpt>
<trkpt lat="-29.0674940" lon="152.0146736">
<ele>835.374</ele>
<time>2017-04-06T05:29:57.321Z</time>
</trkpt>
<trkpt lat="-29.0679941" lon="152.0143160">
<ele>835.327</ele>
<time>2017-04-06T05:30:00.257Z</time>
</trkpt>
<trkpt lat="-29.0683640" lon="152.0140846">
<ele>835.511</ele>
<time>2017-04-06T05:30:02.278Z</time>
</trkpt>
<trkpt lat="-29.0689022" lon="152.0137075">
<ele>835.921</ele>
<time>2017-04-06T05:30:05.333Z</time>
</trkpt>
<trkpt lat="-29.0692588" lon="152.0134817">
<ele>836.421</ele>
<time>2017-04-06T05:30:07.321Z</time>
</trkpt>
<trkpt lat="-29.0696090" lon="152.0132396">
<ele>836.927</ele>
<time>2017-04-06T05:30:09.318Z</time>
</trkpt>
<trkpt lat="-29.0701620" lon="152.0129366">
<ele>837.494</ele>
<time>2017-04-06T05:30:12.354Z</time>
</trkpt>
<trkpt lat="-29.0706814" lon="152.0126126">
<ele>838.300</ele>
<time>2017-04-06T05:30:15.329Z</time>
</trkpt>
<trkpt lat="-29.0712261" lon="152.0123497">
<ele>839.659</ele>
<time>2017-04-06T05:30:18.244Z</time>
</trkpt>
<trkpt lat="-29.0715704" lon="152.0120855">
<ele>841.710</ele>
<time>2017-04-06T05:30:20.149Z</time>
</trkpt>
<trkpt lat="-29.0722883" lon="152.0117196">
<ele>844.156</ele>
<time>2017-04-06T05:30:23.520Z</time>
</trkpt>
<trkpt lat="-29.0726953" lon="152.0114768">
<ele>846.914</ele>
<time>2017-04-06T05:30:25.430Z</time>
</trkpt>
<trkpt lat="-29.0731103" lon="152.0112376">
<ele>850.739</ele>
<time>2017-04-06T05:30:27.450Z</time>
</trkpt>
<trkpt lat="-29.0736800" lon="152.0109107">
<ele>855.471</ele>
<time>2017-04-06T05:30:30.449Z</time>
</trkpt>
<trkpt lat="-29.0740033" lon="152.0106886">
<ele>859.339</ele>
<time>2017-04-06T05:30:32.342Z</time>
</trkpt>
<trkpt lat="-29.0745191" lon="152.0103971">
<ele>861.273</ele>
<time>2017-04-06T05:30:35.223Z</time>
</trkpt>
<trkpt lat="-29.0750928" lon="152.0101932">
<ele>861.940</ele>
<time>2017-04-06T05:30:38.185Z</time>
</trkpt>
<trkpt lat="-29.0754869" lon="152.0101274">
<ele>862.389</ele>
<time>2017-04-06T05:30:40.141Z</time>
</trkpt>
<trkpt lat="-29.0760714" lon="152.0099827">
<ele>863.189</ele>
<time>2017-04-06T05:30:43.091Z</time>
</trkpt>
<trkpt lat="-29.0766690" lon="152.0098946">
<ele>864.489</ele>
<time>2017-04-06T05:30:46.066Z</time>
</trkpt>
<trkpt lat="-29.0772524" lon="152.0097214">
<ele>866.294</ele>
<time>2017-04-06T05:30:49.047Z</time>
</trkpt>
<trkpt lat="-29.0778175" lon="152.0094990">
<ele>868.415</ele>
<time>2017-04-06T05:30:52.020Z</time>
</trkpt>
<trkpt lat="-29.0781913" lon="152.0093357">
<ele>870.637</ele>
<time>2017-04-06T05:30:53.998Z</time>
</trkpt>
<trkpt lat="-29.0786185" lon="152.0088267">
<ele>872.774</ele>
<time>2017-04-06T05:30:57.022Z</time>
</trkpt>
<trkpt lat="-29.0788749" lon="152.0084665">
<ele>874.498</ele>
<time>2017-04-06T05:30:58.997Z</time>
</trkpt>
<trkpt lat="-29.0792010" lon="152.0078733">
<ele>875.540</ele>
<time>2017-04-06T05:31:01.985Z</time>
</trkpt>
<trkpt lat="-29.0795058" lon="152.0072735">
<ele>875.841</ele>
<time>2017-04-06T05:31:04.949Z</time>
</trkpt>
<trkpt lat="-29.0797078" lon="152.0068691">
<ele>875.482</ele>
<time>2017-04-06T05:31:06.924Z</time>
</trkpt>
<trkpt lat="-29.0799757" lon="152.0064993">
<ele>874.807</ele>
<time>2017-04-06T05:31:08.871Z</time>
</trkpt>
<trkpt lat="-29.0803609" lon="152.0058741">
<ele>874.327</ele>
<time>2017-04-06T05:31:11.869Z</time>
</trkpt>
<trkpt lat="-29.0806272" lon="152.0054538">
<ele>874.488</ele>
<time>2017-04-06T05:31:13.829Z</time>
</trkpt>
<trkpt lat="-29.0811476" lon="152.0049481">
<ele>875.342</ele>
<time>2017-04-06T05:31:16.734Z</time>
</trkpt>
<trkpt lat="-29.0816027" lon="152.0047527">
<ele>876.649</ele>
<time>2017-04-06T05:31:18.723Z</time>
</trkpt>
<trkpt lat="-29.0823235" lon="152.0045626">
<ele>878.271</ele>
<time>2017-04-06T05:31:21.695Z</time>
</trkpt>
<trkpt lat="-29.0828250" lon="152.0044674">
<ele>880.316</ele>
<time>2017-04-06T05:31:23.726Z</time>
</trkpt>
<trkpt lat="-29.0835506" lon="152.0043201">
<ele>882.790</ele>
<time>2017-04-06T05:31:26.701Z</time>
</trkpt>
<trkpt lat="-29.0840312" lon="152.0042164">
<ele>885.555</ele>
<time>2017-04-06T05:31:28.696Z</time>
</trkpt>
<trkpt lat="-29.0847604" lon="152.0041064">
<ele>888.375</ele>
<time>2017-04-06T05:31:31.662Z</time>
</trkpt>
<trkpt lat="-29.0855852" lon="152.0039598">
<ele>891.047</ele>
<time>2017-04-06T05:31:34.957Z</time>
</trkpt>
<trkpt lat="-29.0860840" lon="152.0038576">
<ele>893.596</ele>
<time>2017-04-06T05:31:36.940Z</time>
</trkpt>
<trkpt lat="-29.0865823" lon="152.0037672">
<ele>896.152</ele>
<time>2017-04-06T05:31:38.911Z</time>
</trkpt>
<trkpt lat="-29.0873330" lon="152.0036327">
<ele>898.648</ele>
<time>2017-04-06T05:31:41.875Z</time>
</trkpt>
<trkpt lat="-29.0878379" lon="152.0035732">
<ele>901.139</ele>
<time>2017-04-06T05:31:43.847Z</time>
</trkpt>
<trkpt lat="-29.0885899" lon="152.0034033">
<ele>903.682</ele>
<time>2017-04-06T05:31:46.818Z</time>
</trkpt>
<trkpt lat="-29.0890961" lon="152.0033013">
<ele>906.251</ele>
<time>2017-04-06T05:31:48.814Z</time>
</trkpt>
<trkpt lat="-29.0895979" lon="152.0032272">
<ele>908.811</ele>
<time>2017-04-06T05:31:50.786Z</time>
</trkpt>
<trkpt lat="-29.0903501" lon="152.0031122">
<ele>911.173</ele>
<time>2017-04-06T05:31:53.745Z</time>
</trkpt>
<trkpt lat="-29.0911031" lon="152.0029416">
<ele>913.299</ele>
<time>2017-04-06T05:31:56.731Z</time>
</trkpt>
<trkpt lat="-29.0918645" lon="152.0027918">
<ele>915.512</ele>
<time>2017-04-06T05:31:59.720Z</time>
</trkpt>
<trkpt lat="-29.0923732" lon="152.0027192">
<ele>917.829</ele>
<time>2017-04-06T05:32:01.692Z</time>
</trkpt>
<trkpt lat="-29.0931282" lon="152.0025069">
<ele>919.832</ele>
<time>2017-04-06T05:32:04.681Z</time>
</trkpt>
<trkpt lat="-29.0936462" lon="152.0024662">
<ele>921.170</ele>
<time>2017-04-06T05:32:06.682Z</time>
</trkpt>
<trkpt lat="-29.0944110" lon="152.0023523">
<ele>921.807</ele>
<time>2017-04-06T05:32:09.666Z</time>
</trkpt>
<trkpt lat="-29.0949125" lon="152.0022691">
<ele>921.843</ele>
<time>2017-04-06T05:32:11.633Z</time>
</trkpt>
<trkpt lat="-29.0956684" lon="152.0021080">
<ele>921.420</ele>
<time>2017-04-06T05:32:14.609Z</time>
</trkpt>
<trkpt lat="-29.0964303" lon="152.0020001">
<ele>920.706</ele>
<time>2017-04-06T05:32:17.576Z</time>
</trkpt>
<trkpt lat="-29.0971922" lon="152.0018736">
<ele>919.927</ele>
<time>2017-04-06T05:32:20.549Z</time>
</trkpt>
<trkpt lat="-29.0976997" lon="152.0017654">
<ele>919.218</ele>
<time>2017-04-06T05:32:22.535Z</time>
</trkpt>
<trkpt lat="-29.0984624" lon="152.0016056">
<ele>918.641</ele>
<time>2017-04-06T05:32:25.520Z</time>
</trkpt>
<trkpt lat="-29.0992253" lon="152.0014851">
<ele>918.408</ele>
<time>2017-04-06T05:32:28.496Z</time>
</trkpt>
<trkpt lat="-29.0997282" lon="152.0014119">
<ele>918.869</ele>
<time>2017-04-06T05:32:30.464Z</time>
</trkpt>
<trkpt lat="-29.1004799" lon="152.0012578">
<ele>920.040</ele>
<time>2017-04-06T05:32:33.425Z</time>
</trkpt>
<trkpt lat="-29.1012361" lon="152.0010860">
<ele>921.665</ele>
<time>2017-04-06T05:32:36.395Z</time>
</trkpt>
<trkpt lat="-29.1017704" lon="152.0010066">
<ele>923.681</ele>
<time>2017-04-06T05:32:38.454Z</time>
</trkpt>
<trkpt lat="-29.1022996" lon="152.0009279">
<ele>925.997</ele>
<time>2017-04-06T05:32:40.487Z</time>
</trkpt>
<trkpt lat="-29.1028063" lon="152.0008628">
<ele>928.196</ele>
<time>2017-04-06T05:32:42.423Z</time>
</trkpt>
<trkpt lat="-29.1033210" lon="152.0007466">
<ele>930.025</ele>
<time>2017-04-06T05:32:44.399Z</time>
</trkpt>
<trkpt lat="-29.1041041" lon="152.0005996">
<ele>931.576</ele>
<time>2017-04-06T05:32:47.368Z</time>
</trkpt>
<trkpt lat="-29.1048831" lon="152.0003907">
<ele>932.970</ele>
<time>2017-04-06T05:32:50.339Z</time>
</trkpt>
<trkpt lat="-29.1057095" lon="152.0000970">
<ele>934.314</ele>
<time>2017-04-06T05:32:53.541Z</time>
</trkpt>
<trkpt lat="-29.1061918" lon="151.9999046">
<ele>935.514</ele>
<time>2017-04-06T05:32:55.439Z</time>
</trkpt>
<trkpt lat="-29.1069594" lon="151.9996308">
<ele>936.212</ele>
<time>2017-04-06T05:32:58.439Z</time>
</trkpt>
<trkpt lat="-29.1077052" lon="151.9993339">
<ele>936.293</ele>
<time>2017-04-06T05:33:01.407Z</time>
</trkpt>
<trkpt lat="-29.1084377" lon="151.9990307">
<ele>936.074</ele>
<time>2017-04-06T05:33:04.356Z</time>
</trkpt>
<trkpt lat="-29.1089151" lon="151.9987938">
<ele>936.059</ele>
<time>2017-04-06T05:33:06.329Z</time>
</trkpt>
<trkpt lat="-29.1093934" lon="151.9985505">
<ele>936.583</ele>
<time>2017-04-06T05:33:08.311Z</time>
</trkpt>
<trkpt lat="-29.1101012" lon="151.9981554">
<ele>937.427</ele>
<time>2017-04-06T05:33:11.288Z</time>
</trkpt>
<trkpt lat="-29.1105701" lon="151.9978950">
<ele>938.200</ele>
<time>2017-04-06T05:33:13.257Z</time>
</trkpt>
<trkpt lat="-29.1110347" lon="151.9976200">
<ele>938.859</ele>
<time>2017-04-06T05:33:15.231Z</time>
</trkpt>
<trkpt lat="-29.1117513" lon="151.9972470">
<ele>939.605</ele>
<time>2017-04-06T05:33:18.201Z</time>
</trkpt>
<trkpt lat="-29.1122116" lon="151.9969747">
<ele>940.732</ele>
<time>2017-04-06T05:33:20.160Z</time>
</trkpt>
<trkpt lat="-29.1129250" lon="151.9966007">
<ele>942.281</ele>
<time>2017-04-06T05:33:23.127Z</time>
</trkpt>
<trkpt lat="-29.1136669" lon="151.9963048">
<ele>944.090</ele>
<time>2017-04-06T05:33:26.093Z</time>
</trkpt>
<trkpt lat="-29.1141789" lon="151.9961795">
<ele>946.223</ele>
<time>2017-04-06T05:33:28.065Z</time>
</trkpt>
<trkpt lat="-29.1149572" lon="151.9960463">
<ele>948.670</ele>
<time>2017-04-06T05:33:31.024Z</time>
</trkpt>
<trkpt lat="-29.1154820" lon="151.9960260">
<ele>951.236</ele>
<time>2017-04-06T05:33:32.996Z</time>
</trkpt>
<trkpt lat="-29.1162705" lon="151.9961199">
<ele>953.736</ele>
<time>2017-04-06T05:33:35.969Z</time>
</trkpt>
<trkpt lat="-29.1167905" lon="151.9962000">
<ele>955.950</ele>
<time>2017-04-06T05:33:37.932Z</time>
</trkpt>
<trkpt lat="-29.1173131" lon="151.9963330">
<ele>957.855</ele>
<time>2017-04-06T05:33:39.933Z</time>
</trkpt>
<trkpt lat="-29.1180759" lon="151.9965903">
<ele>959.563</ele>
<time>2017-04-06T05:33:42.903Z</time>
</trkpt>
<trkpt lat="-29.1185841" lon="151.9967758">
<ele>960.903</ele>
<time>2017-04-06T05:33:44.891Z</time>
</trkpt>
<trkpt lat="-29.1193534" lon="151.9970183">
<ele>961.645</ele>
<time>2017-04-06T05:33:47.871Z</time>
</trkpt>
<trkpt lat="-29.1198697" lon="151.9971674">
<ele>961.842</ele>
<time>2017-04-06T05:33:49.863Z</time>
</trkpt>
<trkpt lat="-29.1206524" lon="151.9973299">
<ele>961.680</ele>
<time>2017-04-06T05:33:52.839Z</time>
</trkpt>
<trkpt lat="-29.1211761" lon="151.9974069">
<ele>961.191</ele>
<time>2017-04-06T05:33:54.815Z</time>
</trkpt>
<trkpt lat="-29.1219666" lon="151.9975281">
<ele>960.461</ele>
<time>2017-04-06T05:33:57.794Z</time>
</trkpt>
<trkpt lat="-29.1225074" lon="151.9975146">
<ele>959.257</ele>
<time>2017-04-06T05:33:59.805Z</time>
</trkpt>
<trkpt lat="-29.1230449" lon="151.9974721">
<ele>957.098</ele>
<time>2017-04-06T05:34:01.805Z</time>
</trkpt>
<trkpt lat="-29.1235749" lon="151.9974745">
<ele>954.398</ele>
<time>2017-04-06T05:34:03.779Z</time>
</trkpt>
<trkpt lat="-29.1243512" lon="151.9973229">
<ele>952.318</ele>
<time>2017-04-06T05:34:06.724Z</time>
</trkpt>
<trkpt lat="-29.1248720" lon="151.9972403">
<ele>952.090</ele>
<time>2017-04-06T05:34:08.702Z</time>
</trkpt>
<trkpt lat="-29.1256395" lon="151.9970571">
<ele>954.017</ele>
<time>2017-04-06T05:34:11.663Z</time>
</trkpt>
<trkpt lat="-29.1261613" lon="151.9969538">
<ele>956.588</ele>
<time>2017-04-06T05:34:13.662Z</time>
</trkpt>
<trkpt lat="-29.1266808" lon="151.9968994">
<ele>958.169</ele>
<time>2017-04-06T05:34:15.621Z</time>
</trkpt>
<trkpt lat="-29.1272100" lon="151.9967959">
<ele>958.508</ele>
<time>2017-04-06T05:34:17.634Z</time>
</trkpt>
<trkpt lat="-29.1279775" lon="151.9965342">
<ele>957.886</ele>
<time>2017-04-06T05:34:20.642Z</time>
</trkpt>
<trkpt lat="-29.1287398" lon="151.9962878">
<ele>956.535</ele>
<time>2017-04-06T05:34:23.627Z</time>
</trkpt>
<trkpt lat="-29.1295124" lon="151.9960847">
<ele>954.591</ele>
<time>2017-04-06T05:34:26.608Z</time>
</trkpt>
<trkpt lat="-29.1300316" lon="151.9959069">
<ele>952.304</ele>
<time>2017-04-06T05:34:28.635Z</time>
</trkpt>
<trkpt lat="-29.1308199" lon="151.9957796">
<ele>950.156</ele>
<time>2017-04-06T05:34:31.609Z</time>
</trkpt>
<trkpt lat="-29.1316133" lon="151.9956321">
<ele>948.365</ele>
<time>2017-04-06T05:34:34.606Z</time>
</trkpt>
<trkpt lat="-29.1321427" lon="151.9956152">
<ele>946.429</ele>
<time>2017-04-06T05:34:36.581Z</time>
</trkpt>
<trkpt lat="-29.1329334" lon="151.9955861">
<ele>943.729</ele>
<time>2017-04-06T05:34:39.541Z</time>
</trkpt>
<trkpt lat="-29.1334685" lon="151.9956125">
<ele>940.180</ele>
<time>2017-04-06T05:34:41.541Z</time>
</trkpt>
<trkpt lat="-29.1340043" lon="151.9956515">
<ele>936.165</ele>
<time>2017-04-06T05:34:43.543Z</time>
</trkpt>
<trkpt lat="-29.1347935" lon="151.9957088">
<ele>932.182</ele>
<time>2017-04-06T05:34:46.502Z</time>
</trkpt>
<trkpt lat="-29.1353222" lon="151.9956822">
<ele>928.257</ele>
<time>2017-04-06T05:34:48.489Z</time>
</trkpt>
<trkpt lat="-29.1361149" lon="151.9957101">
<ele>924.245</ele>
<time>2017-04-06T05:34:51.469Z</time>
</trkpt>
<trkpt lat="-29.1366454" lon="151.9957490">
<ele>920.584</ele>
<time>2017-04-06T05:34:53.462Z</time>
</trkpt>
<trkpt lat="-29.1371686" lon="151.9958265">
<ele>917.838</ele>
<time>2017-04-06T05:34:55.442Z</time>
</trkpt>
<trkpt lat="-29.1376871" lon="151.9959492">
<ele>916.069</ele>
<time>2017-04-06T05:34:57.429Z</time>
</trkpt>
<trkpt lat="-29.1384210" lon="151.9963288">
<ele>914.821</ele>
<time>2017-04-06T05:35:00.438Z</time>
</trkpt>
<trkpt lat="-29.1390776" lon="151.9968516">
<ele>913.225</ele>
<time>2017-04-06T05:35:03.417Z</time>
</trkpt>
<trkpt lat="-29.1397402" lon="151.9973658">
<ele>910.575</ele>
<time>2017-04-06T05:35:06.395Z</time>
</trkpt>
<trkpt lat="-29.1401663" lon="151.9977258">
<ele>906.797</ele>
<time>2017-04-06T05:35:08.367Z</time>
</trkpt>
<trkpt lat="-29.1408678" lon="151.9981633">
<ele>902.385</ele>
<time>2017-04-06T05:35:11.356Z</time>
</trkpt>
<trkpt lat="-29.1415999" lon="151.9984960">
<ele>897.672</ele>
<time>2017-04-06T05:35:14.322Z</time>
</trkpt>
<trkpt lat="-29.1421196" lon="151.9986001">
<ele>892.509</ele>
<time>2017-04-06T05:35:16.319Z</time>
</trkpt>
<trkpt lat="-29.1428745" lon="151.9988197">
<ele>887.032</ele>
<time>2017-04-06T05:35:19.281Z</time>
</trkpt>
<trkpt lat="-29.1436321" lon="151.9990923">
<ele>881.838</ele>
<time>2017-04-06T05:35:22.292Z</time>
</trkpt>
<trkpt lat="-29.1444041" lon="151.9993113">
<ele>877.705</ele>
<time>2017-04-06T05:35:25.283Z</time>
</trkpt>
<trkpt lat="-29.1449048" lon="151.9994940">
<ele>875.268</ele>
<time>2017-04-06T05:35:27.255Z</time>
</trkpt>
<trkpt lat="-29.1454102" lon="151.9996922">
<ele>874.080</ele>
<time>2017-04-06T05:35:29.256Z</time>
</trkpt>
<trkpt lat="-29.1461792" lon="151.9999434">
<ele>872.835</ele>
<time>2017-04-06T05:35:32.252Z</time>
</trkpt>
<trkpt lat="-29.1469027" lon="152.0002812">
<ele>870.561</ele>
<time>2017-04-06T05:35:35.203Z</time>
</trkpt>
<trkpt lat="-29.1474138" lon="152.0004115">
<ele>867.468</ele>
<time>2017-04-06T05:35:37.198Z</time>
</trkpt>
<trkpt lat="-29.1479167" lon="152.0005788">
<ele>864.868</ele>
<time>2017-04-06T05:35:39.190Z</time>
</trkpt>
<trkpt lat="-29.1484269" lon="152.0007281">
<ele>863.774</ele>
<time>2017-04-06T05:35:41.183Z</time>
</trkpt>
<trkpt lat="-29.1492016" lon="152.0009527">
<ele>864.122</ele>
<time>2017-04-06T05:35:44.190Z</time>
</trkpt>
<trkpt lat="-29.1497193" lon="152.0010822">
<ele>865.302</ele>
<time>2017-04-06T05:35:46.175Z</time>
</trkpt>
<trkpt lat="-29.1505037" lon="152.0012220">
<ele>866.534</ele>
<time>2017-04-06T05:35:49.150Z</time>
</trkpt>
<trkpt lat="-29.1510544" lon="152.0013269">
<ele>867.149</ele>
<time>2017-04-06T05:35:51.238Z</time>
</trkpt>
<trkpt lat="-29.1518528" lon="152.0013929">
<ele>866.799</ele>
<time>2017-04-06T05:35:54.232Z</time>
</trkpt>
<trkpt lat="-29.1526379" lon="152.0014365">
<ele>865.359</ele>
<time>2017-04-06T05:35:57.219Z</time>
</trkpt>
<trkpt lat="-29.1534106" lon="152.0014280">
<ele>863.016</ele>
<time>2017-04-06T05:36:00.194Z</time>
</trkpt>
<trkpt lat="-29.1539294" lon="152.0014326">
<ele>860.567</ele>
<time>2017-04-06T05:36:02.188Z</time>
</trkpt>
<trkpt lat="-29.1547074" lon="152.0013769">
<ele>858.896</ele>
<time>2017-04-06T05:36:05.171Z</time>
</trkpt>
<trkpt lat="-29.1554749" lon="152.0012680">
<ele>858.194</ele>
<time>2017-04-06T05:36:08.124Z</time>
</trkpt>
<trkpt lat="-29.1562423" lon="152.0011448">
<ele>857.997</ele>
<time>2017-04-06T05:36:11.081Z</time>
</trkpt>
<trkpt lat="-29.1567537" lon="152.0010303">
<ele>857.640</ele>
<time>2017-04-06T05:36:13.065Z</time>
</trkpt>
<trkpt lat="-29.1572686" lon="152.0009339">
<ele>856.690</ele>
<time>2017-04-06T05:36:15.048Z</time>
</trkpt>
<trkpt lat="-29.1580415" lon="152.0008378">
<ele>855.147</ele>
<time>2017-04-06T05:36:18.006Z</time>
</trkpt>
<trkpt lat="-29.1585552" lon="152.0007306">
<ele>853.144</ele>
<time>2017-04-06T05:36:19.999Z</time>
</trkpt>
<trkpt lat="-29.1590658" lon="152.0006322">
<ele>850.760</ele>
<time>2017-04-06T05:36:21.999Z</time>
</trkpt>
<trkpt lat="-29.1598440" lon="152.0005200">
<ele>848.279</ele>
<time>2017-04-06T05:36:24.999Z</time>
</trkpt>
<trkpt lat="-29.1606188" lon="152.0003576">
<ele>846.114</ele>
<time>2017-04-06T05:36:28.025Z</time>
</trkpt>
<trkpt lat="-29.1611285" lon="152.0003492">
<ele>844.428</ele>
<time>2017-04-06T05:36:29.988Z</time>
</trkpt>
<trkpt lat="-29.1616015" lon="152.0003609">
<ele>843.176</ele>
<time>2017-04-06T05:36:31.884Z</time>
</trkpt>
<trkpt lat="-29.1622760" lon="152.0005245">
<ele>842.185</ele>
<time>2017-04-06T05:36:34.825Z</time>
</trkpt>
<trkpt lat="-29.1629615" lon="152.0008307">
<ele>841.294</ele>
<time>2017-04-06T05:36:37.959Z</time>
</trkpt>
<trkpt lat="-29.1636389" lon="152.0010972">
<ele>840.562</ele>
<time>2017-04-06T05:36:40.935Z</time>
</trkpt>
<trkpt lat="-29.1643011" lon="152.0014023">
<ele>840.063</ele>
<time>2017-04-06T05:36:43.937Z</time>
</trkpt>
<trkpt lat="-29.1647369" lon="152.0016025">
<ele>839.635</ele>
<time>2017-04-06T05:36:45.926Z</time>
</trkpt>
<trkpt lat="-29.1651624" lon="152.0017957">
<ele>839.066</ele>
<time>2017-04-06T05:36:47.881Z</time>
</trkpt>
<trkpt lat="-29.1657871" lon="152.0021517">
<ele>838.296</ele>
<time>2017-04-06T05:36:50.868Z</time>
</trkpt>
<trkpt lat="-29.1661731" lon="152.0024254">
<ele>837.304</ele>
<time>2017-04-06T05:36:52.819Z</time>
</trkpt>
<trkpt lat="-29.1666837" lon="152.0029580">
<ele>836.063</ele>
<time>2017-04-06T05:36:55.796Z</time>
</trkpt>
<trkpt lat="-29.1671854" lon="152.0035362">
<ele>834.727</ele>
<time>2017-04-06T05:36:58.816Z</time>
</trkpt>
<trkpt lat="-29.1674972" lon="152.0039643">
<ele>833.644</ele>
<time>2017-04-06T05:37:00.845Z</time>
</trkpt>
<trkpt lat="-29.1677702" lon="152.0044318">
<ele>832.996</ele>
<time>2017-04-06T05:37:02.865Z</time>
</trkpt>
<trkpt lat="-29.1680443" lon="152.0049116">
<ele>832.602</ele>
<time>2017-04-06T05:37:04.898Z</time>
</trkpt>
<trkpt lat="-29.1685108" lon="152.0055700">
<ele>832.188</ele>
<time>2017-04-06T05:37:07.902Z</time>
</trkpt>
<trkpt lat="-29.1690568" lon="152.0061246">
<ele>831.583</ele>
<time>2017-04-06T05:37:10.888Z</time>
</trkpt>
<trkpt lat="-29.1696856" lon="152.0066042">
<ele>830.748</ele>
<time>2017-04-06T05:37:13.956Z</time>
</trkpt>
<trkpt lat="-29.1701244" lon="152.0068657">
<ele>829.880</ele>
<time>2017-04-06T05:37:15.953Z</time>
</trkpt>
<trkpt lat="-29.1708210" lon="152.0071634">
<ele>829.281</ele>
<time>2017-04-06T05:37:18.952Z</time>
</trkpt>
<trkpt lat="-29.1713075" lon="152.0073097">
<ele>829.080</ele>
<time>2017-04-06T05:37:20.964Z</time>
</trkpt>
<trkpt lat="-29.1720514" lon="152.0074212">
<ele>829.228</ele>
<time>2017-04-06T05:37:23.970Z</time>
</trkpt>
<trkpt lat="-29.1728077" lon="152.0074465">
<ele>829.734</ele>
<time>2017-04-06T05:37:27.027Z</time>
</trkpt>
<trkpt lat="-29.1735220" lon="152.0072965">
<ele>830.742</ele>
<time>2017-04-06T05:37:30.003Z</time>
</trkpt>
<trkpt lat="-29.1742153" lon="152.0071226">
<ele>832.111</ele>
<time>2017-04-06T05:37:32.969Z</time>
</trkpt>
<trkpt lat="-29.1746419" lon="152.0068987">
<ele>833.281</ele>
<time>2017-04-06T05:37:34.951Z</time>
</trkpt>
<trkpt lat="-29.1752680" lon="152.0065074">
<ele>833.811</ele>
<time>2017-04-06T05:37:37.961Z</time>
</trkpt>
<trkpt lat="-29.1756659" lon="152.0061982">
<ele>833.670</ele>
<time>2017-04-06T05:37:39.983Z</time>
</trkpt>
<trkpt lat="-29.1762696" lon="152.0057914">
<ele>833.056</ele>
<time>2017-04-06T05:37:42.952Z</time>
</trkpt>
<trkpt lat="-29.1766698" lon="152.0055384">
<ele>832.092</ele>
<time>2017-04-06T05:37:44.927Z</time>
</trkpt>
<trkpt lat="-29.1772445" lon="152.0051762">
<ele>830.770</ele>
<time>2017-04-06T05:37:47.853Z</time>
</trkpt>
<trkpt lat="-29.1778665" lon="152.0049148">
<ele>828.883</ele>
<time>2017-04-06T05:37:50.814Z</time>
</trkpt>
<trkpt lat="-29.1786582" lon="152.0047522">
<ele>826.231</ele>
<time>2017-04-06T05:37:54.147Z</time>
</trkpt>
<trkpt lat="-29.1793158" lon="152.0046302">
<ele>823.327</ele>
<time>2017-04-06T05:37:56.452Z</time>
</trkpt>
<trkpt lat="-29.1800325" lon="152.0046509">
<ele>821.211</ele>
<time>2017-04-06T05:37:58.648Z</time>
</trkpt>
<trkpt lat="-29.1810390" lon="152.0048927">
<ele>820.540</ele>
<time>2017-04-06T05:38:01.705Z</time>
</trkpt>
<trkpt lat="-29.1819762" lon="152.0050801">
<ele>821.157</ele>
<time>2017-04-06T05:38:04.620Z</time>
</trkpt>
<trkpt lat="-29.1825307" lon="152.0052200">
<ele>822.236</ele>
<time>2017-04-06T05:38:06.512Z</time>
</trkpt>
<trkpt lat="-29.1832878" lon="152.0053725">
<ele>823.080</ele>
<time>2017-04-06T05:38:09.310Z</time>
</trkpt>
<trkpt lat="-29.1840198" lon="152.0055436">
<ele>823.619</ele>
<time>2017-04-06T05:38:12.252Z</time>
</trkpt>
<trkpt lat="-29.1847864" lon="152.0057139">
<ele>824.085</ele>
<time>2017-04-06T05:38:15.310Z</time>
</trkpt>
<trkpt lat="-29.1855576" lon="152.0059088">
<ele>824.578</ele>
<time>2017-04-06T05:38:18.330Z</time>
</trkpt>
<trkpt lat="-29.1860723" lon="152.0060455">
<ele>824.722</ele>
<time>2017-04-06T05:38:20.351Z</time>
</trkpt>
<trkpt lat="-29.1868259" lon="152.0062069">
<ele>823.955</ele>
<time>2017-04-06T05:38:23.317Z</time>
</trkpt>
<trkpt lat="-29.1873320" lon="152.0063187">
<ele>822.056</ele>
<time>2017-04-06T05:38:25.315Z</time>
</trkpt>
<trkpt lat="-29.1881081" lon="152.0064637">
<ele>819.460</ele>
<time>2017-04-06T05:38:28.338Z</time>
</trkpt>
<trkpt lat="-29.1888702" lon="152.0066404">
<ele>816.847</ele>
<time>2017-04-06T05:38:31.328Z</time>
</trkpt>
<trkpt lat="-29.1893824" lon="152.0067333">
<ele>814.458</ele>
<time>2017-04-06T05:38:33.329Z</time>
</trkpt>
<trkpt lat="-29.1901486" lon="152.0069223">
<ele>812.250</ele>
<time>2017-04-06T05:38:36.351Z</time>
</trkpt>
<trkpt lat="-29.1906624" lon="152.0070256">
<ele>810.240</ele>
<time>2017-04-06T05:38:38.363Z</time>
</trkpt>
<trkpt lat="-29.1914123" lon="152.0072476">
<ele>808.450</ele>
<time>2017-04-06T05:38:41.354Z</time>
</trkpt>
<trkpt lat="-29.1919184" lon="152.0073645">
<ele>806.999</ele>
<time>2017-04-06T05:38:43.351Z</time>
</trkpt>
<trkpt lat="-29.1926627" lon="152.0076129">
<ele>806.030</ele>
<time>2017-04-06T05:38:46.339Z</time>
</trkpt>
<trkpt lat="-29.1934091" lon="152.0078690">
<ele>805.577</ele>
<time>2017-04-06T05:38:49.329Z</time>
</trkpt>
<trkpt lat="-29.1941484" lon="152.0081479">
<ele>805.282</ele>
<time>2017-04-06T05:38:52.328Z</time>
</trkpt>
<trkpt lat="-29.1948996" lon="152.0083744">
<ele>804.355</ele>
<time>2017-04-06T05:38:55.327Z</time>
</trkpt>
<trkpt lat="-29.1953899" lon="152.0085944">
<ele>802.264</ele>
<time>2017-04-06T05:38:57.345Z</time>
</trkpt>
<trkpt lat="-29.1961371" lon="152.0088966">
<ele>799.310</ele>
<time>2017-04-06T05:39:00.372Z</time>
</trkpt>
<trkpt lat="-29.1965905" lon="152.0091938">
<ele>795.811</ele>
<time>2017-04-06T05:39:02.381Z</time>
</trkpt>
<trkpt lat="-29.1972541" lon="152.0096508">
<ele>791.667</ele>
<time>2017-04-06T05:39:05.371Z</time>
</trkpt>
<trkpt lat="-29.1977064" lon="152.0099660">
<ele>786.718</ele>
<time>2017-04-06T05:39:07.403Z</time>
</trkpt>
<trkpt lat="-29.1983093" lon="152.0105518">
<ele>781.126</ele>
<time>2017-04-06T05:39:10.418Z</time>
</trkpt>
<trkpt lat="-29.1988927" lon="152.0111637">
<ele>775.148</ele>
<time>2017-04-06T05:39:13.434Z</time>
</trkpt>
<trkpt lat="-29.1992602" lon="152.0115977">
<ele>768.964</ele>
<time>2017-04-06T05:39:15.447Z</time>
</trkpt>
<trkpt lat="-29.1996108" lon="152.0120532">
<ele>763.108</ele>
<time>2017-04-06T05:39:17.473Z</time>
</trkpt>
<trkpt lat="-29.2001473" lon="152.0126892">
<ele>758.442</ele>
<time>2017-04-06T05:39:20.446Z</time>
</trkpt>
<trkpt lat="-29.2005112" lon="152.0130965">
<ele>754.972</ele>
<time>2017-04-06T05:39:22.426Z</time>
</trkpt>
<trkpt lat="-29.2010896" lon="152.0136568">
<ele>752.357</ele>
<time>2017-04-06T05:39:25.395Z</time>
</trkpt>
<trkpt lat="-29.2018152" lon="152.0139161">
<ele>750.755</ele>
<time>2017-04-06T05:39:28.391Z</time>
</trkpt>
<trkpt lat="-29.2023266" lon="152.0139842">
<ele>750.652</ele>
<time>2017-04-06T05:39:30.416Z</time>
</trkpt>
<trkpt lat="-29.2028449" lon="152.0139926">
<ele>752.157</ele>
<time>2017-04-06T05:39:32.441Z</time>
</trkpt>
<trkpt lat="-29.2033685" lon="152.0139144">
<ele>754.681</ele>
<time>2017-04-06T05:39:34.494Z</time>
</trkpt>
<trkpt lat="-29.2041068" lon="152.0136120">
<ele>757.107</ele>
<time>2017-04-06T05:39:37.534Z</time>
</trkpt>
<trkpt lat="-29.2045723" lon="152.0133478">
<ele>757.947</ele>
<time>2017-04-06T05:39:39.551Z</time>
</trkpt>
<trkpt lat="-29.2050360" lon="152.0130927">
<ele>756.472</ele>
<time>2017-04-06T05:39:41.546Z</time>
</trkpt>
<trkpt lat="-29.2057579" lon="152.0127460">
<ele>754.002</ele>
<time>2017-04-06T05:39:44.574Z</time>
</trkpt>
<trkpt lat="-29.2065230" lon="152.0126148">
<ele>752.477</ele>
<time>2017-04-06T05:39:47.580Z</time>
</trkpt>
<trkpt lat="-29.2070386" lon="152.0126179">
<ele>752.764</ele>
<time>2017-04-06T05:39:49.591Z</time>
</trkpt>
<trkpt lat="-29.2078075" lon="152.0127482">
<ele>754.513</ele>
<time>2017-04-06T05:39:52.607Z</time>
</trkpt>
<trkpt lat="-29.2085850" lon="152.0128365">
<ele>756.796</ele>
<time>2017-04-06T05:39:55.618Z</time>
</trkpt>
<trkpt lat="-29.2090952" lon="152.0128874">
<ele>759.204</ele>
<time>2017-04-06T05:39:57.601Z</time>
</trkpt>
<trkpt lat="-29.2098621" lon="152.0129945">
<ele>761.824</ele>
<time>2017-04-06T05:40:00.598Z</time>
</trkpt>
<trkpt lat="-29.2106407" lon="152.0129214">
<ele>764.736</ele>
<time>2017-04-06T05:40:03.616Z</time>
</trkpt>
<trkpt lat="-29.2111855" lon="152.0127291">
<ele>768.051</ele>
<time>2017-04-06T05:40:05.826Z</time>
</trkpt>
<trkpt lat="-29.2116769" lon="152.0125152">
<ele>771.429</ele>
<time>2017-04-06T05:40:07.876Z</time>
</trkpt>
<trkpt lat="-29.2123656" lon="152.0121137">
<ele>774.300</ele>
<time>2017-04-06T05:40:10.885Z</time>
</trkpt>
<trkpt lat="-29.2127959" lon="152.0117915">
<ele>776.721</ele>
<time>2017-04-06T05:40:12.873Z</time>
</trkpt>
<trkpt lat="-29.2132604" lon="152.0115096">
<ele>778.974</ele>
<time>2017-04-06T05:40:14.905Z</time>
</trkpt>
<trkpt lat="-29.2137250" lon="152.0112584">
<ele>781.057</ele>
<time>2017-04-06T05:40:16.890Z</time>
</trkpt>
<trkpt lat="-29.2144087" lon="152.0108203">
<ele>782.998</ele>
<time>2017-04-06T05:40:19.914Z</time>
</trkpt>
<trkpt lat="-29.2148629" lon="152.0105373">
<ele>785.075</ele>
<time>2017-04-06T05:40:21.907Z</time>
</trkpt>
<trkpt lat="-29.2155577" lon="152.0101458">
<ele>787.617</ele>
<time>2017-04-06T05:40:24.892Z</time>
</trkpt>
<trkpt lat="-29.2160488" lon="152.0099356">
<ele>790.835</ele>
<time>2017-04-06T05:40:26.916Z</time>
</trkpt>
<trkpt lat="-29.2168106" lon="152.0097567">
<ele>794.403</ele>
<time>2017-04-06T05:40:29.918Z</time>
</trkpt>
<trkpt lat="-29.2173330" lon="152.0097105">
<ele>797.586</ele>
<time>2017-04-06T05:40:31.936Z</time>
</trkpt>
<trkpt lat="-29.2178472" lon="152.0097309">
<ele>800.051</ele>
<time>2017-04-06T05:40:33.916Z</time>
</trkpt>
<trkpt lat="-29.2186429" lon="152.0097817">
<ele>801.994</ele>
<time>2017-04-06T05:40:36.983Z</time>
</trkpt>
<trkpt lat="-29.2194336" lon="152.0097960">
<ele>803.556</ele>
<time>2017-04-06T05:40:40.029Z</time>
</trkpt>
<trkpt lat="-29.2199412" lon="152.0098459">
<ele>804.873</ele>
<time>2017-04-06T05:40:42.000Z</time>
</trkpt>
<trkpt lat="-29.2204623" lon="152.0098931">
<ele>806.110</ele>
<time>2017-04-06T05:40:44.024Z</time>
</trkpt>
<trkpt lat="-29.2209762" lon="152.0098884">
<ele>807.275</ele>
<time>2017-04-06T05:40:46.015Z</time>
</trkpt>
<trkpt lat="-29.2217460" lon="152.0098892">
<ele>808.368</ele>
<time>2017-04-06T05:40:48.997Z</time>
</trkpt>
<trkpt lat="-29.2222681" lon="152.0098622">
<ele>809.709</ele>
<time>2017-04-06T05:40:51.016Z</time>
</trkpt>
<trkpt lat="-29.2230432" lon="152.0097615">
<ele>811.482</ele>
<time>2017-04-06T05:40:54.019Z</time>
</trkpt>
<trkpt lat="-29.2238250" lon="152.0096033">
<ele>813.533</ele>
<time>2017-04-06T05:40:57.058Z</time>
</trkpt>
<trkpt lat="-29.2246033" lon="152.0094647">
<ele>815.486</ele>
<time>2017-04-06T05:41:00.061Z</time>
</trkpt>
<trkpt lat="-29.2251142" lon="152.0093729">
<ele>816.805</ele>
<time>2017-04-06T05:41:02.043Z</time>
</trkpt>
<trkpt lat="-29.2256196" lon="152.0092453">
<ele>817.137</ele>
<time>2017-04-06T05:41:04.033Z</time>
</trkpt>
<trkpt lat="-29.2261295" lon="152.0091471">
<ele>816.457</ele>
<time>2017-04-06T05:41:06.022Z</time>
</trkpt>
<trkpt lat="-29.2268958" lon="152.0089577">
<ele>814.860</ele>
<time>2017-04-06T05:41:09.031Z</time>
</trkpt>
<trkpt lat="-29.2274127" lon="152.0088437">
<ele>812.405</ele>
<time>2017-04-06T05:41:11.042Z</time>
</trkpt>
<trkpt lat="-29.2281951" lon="152.0087178">
<ele>809.648</ele>
<time>2017-04-06T05:41:14.061Z</time>
</trkpt>
<trkpt lat="-29.2286957" lon="152.0085512">
<ele>808.513</ele>
<time>2017-04-06T05:41:16.058Z</time>
</trkpt>
<trkpt lat="-29.2294696" lon="152.0084004">
<ele>810.283</ele>
<time>2017-04-06T05:41:19.079Z</time>
</trkpt>
<trkpt lat="-29.2302214" lon="152.0082045">
<ele>813.402</ele>
<time>2017-04-06T05:41:22.065Z</time>
</trkpt>
<trkpt lat="-29.2307061" lon="152.0080005">
<ele>815.555</ele>
<time>2017-04-06T05:41:24.066Z</time>
</trkpt>
<trkpt lat="-29.2311710" lon="152.0077328">
<ele>815.975</ele>
<time>2017-04-06T05:41:26.074Z</time>
</trkpt>
<trkpt lat="-29.2318618" lon="152.0073142">
<ele>815.056</ele>
<time>2017-04-06T05:41:29.083Z</time>
</trkpt>
<trkpt lat="-29.2322839" lon="152.0069768">
<ele>813.391</ele>
<time>2017-04-06T05:41:31.067Z</time>
</trkpt>
<trkpt lat="-29.2329005" lon="152.0064542">
<ele>811.415</ele>
<time>2017-04-06T05:41:34.038Z</time>
</trkpt>
<trkpt lat="-29.2332868" lon="152.0060665">
<ele>809.519</ele>
<time>2017-04-06T05:41:36.030Z</time>
</trkpt>
<trkpt lat="-29.2338070" lon="152.0054047">
<ele>808.069</ele>
<time>2017-04-06T05:41:39.035Z</time>
</trkpt>
<trkpt lat="-29.2343280" lon="152.0047367">
<ele>807.180</ele>
<time>2017-04-06T05:41:42.049Z</time>
</trkpt>
<trkpt lat="-29.2348986" lon="152.0041346">
<ele>806.778</ele>
<time>2017-04-06T05:41:45.040Z</time>
</trkpt>
<trkpt lat="-29.2354556" lon="152.0035116">
<ele>806.776</ele>
<time>2017-04-06T05:41:48.045Z</time>
</trkpt>
<trkpt lat="-29.2360917" lon="152.0029869">
<ele>807.224</ele>
<time>2017-04-06T05:41:51.083Z</time>
</trkpt>
<trkpt lat="-29.2364751" lon="152.0026242">
<ele>808.099</ele>
<time>2017-04-06T05:41:53.062Z</time>
</trkpt>
<trkpt lat="-29.2370507" lon="152.0021081">
<ele>809.069</ele>
<time>2017-04-06T05:41:56.017Z</time>
</trkpt>
<trkpt lat="-29.2374436" lon="152.0017519">
<ele>809.905</ele>
<time>2017-04-06T05:41:58.032Z</time>
</trkpt>
<trkpt lat="-29.2380415" lon="152.0012364">
<ele>810.704</ele>
<time>2017-04-06T05:42:00.985Z</time>
</trkpt>
<trkpt lat="-29.2384748" lon="152.0008848">
<ele>811.599</ele>
<time>2017-04-06T05:42:02.952Z</time>
</trkpt>
<trkpt lat="-29.2389789" lon="152.0005086">
<ele>812.742</ele>
<time>2017-04-06T05:42:05.002Z</time>
</trkpt>
<trkpt lat="-29.2397778" lon="151.9998791">
<ele>814.034</ele>
<time>2017-04-06T05:42:08.091Z</time>
</trkpt>
<trkpt lat="-29.2403609" lon="151.9995224">
<ele>814.913</ele>
<time>2017-04-06T05:42:10.158Z</time>
</trkpt>
<trkpt lat="-29.2411630" lon="151.9990254">
<ele>814.907</ele>
<time>2017-04-06T05:42:13.164Z</time>
</trkpt>
<trkpt lat="-29.2416181" lon="151.9986985">
<ele>814.170</ele>
<time>2017-04-06T05:42:15.120Z</time>
</trkpt>
<trkpt lat="-29.2420821" lon="151.9984539">
<ele>813.182</ele>
<time>2017-04-06T05:42:17.087Z</time>
</trkpt>
<trkpt lat="-29.2425422" lon="151.9982231">
<ele>812.229</ele>
<time>2017-04-06T05:42:19.063Z</time>
</trkpt>
<trkpt lat="-29.2432312" lon="151.9978466">
<ele>811.456</ele>
<time>2017-04-06T05:42:22.057Z</time>
</trkpt>
<trkpt lat="-29.2437055" lon="151.9976169">
<ele>811.118</ele>
<time>2017-04-06T05:42:24.059Z</time>
</trkpt>
<trkpt lat="-29.2444269" lon="151.9972809">
<ele>811.298</ele>
<time>2017-04-06T05:42:27.082Z</time>
</trkpt>
<trkpt lat="-29.2451603" lon="151.9969941">
<ele>811.827</ele>
<time>2017-04-06T05:42:30.093Z</time>
</trkpt>
<trkpt lat="-29.2456403" lon="151.9967750">
<ele>812.498</ele>
<time>2017-04-06T05:42:32.097Z</time>
</trkpt>
<trkpt lat="-29.2463835" lon="151.9965163">
<ele>813.157</ele>
<time>2017-04-06T05:42:35.101Z</time>
</trkpt>
<trkpt lat="-29.2468867" lon="151.9963816">
<ele>813.852</ele>
<time>2017-04-06T05:42:37.092Z</time>
</trkpt>
<trkpt lat="-29.2476412" lon="151.9961662">
<ele>814.745</ele>
<time>2017-04-06T05:42:40.092Z</time>
</trkpt>
<trkpt lat="-29.2483835" lon="151.9958981">
<ele>815.724</ele>
<time>2017-04-06T05:42:43.105Z</time>
</trkpt>
<trkpt lat="-29.2488910" lon="151.9957736">
<ele>816.634</ele>
<time>2017-04-06T05:42:45.116Z</time>
</trkpt>
<trkpt lat="-29.2493893" lon="151.9956191">
<ele>817.585</ele>
<time>2017-04-06T05:42:47.118Z</time>
</trkpt>
<trkpt lat="-29.2498907" lon="151.9954511">
<ele>818.603</ele>
<time>2017-04-06T05:42:49.142Z</time>
</trkpt>
<trkpt lat="-29.2506407" lon="151.9952303">
<ele>819.599</ele>
<time>2017-04-06T05:42:52.137Z</time>
</trkpt>
<trkpt lat="-29.2511243" lon="151.9950148">
<ele>820.755</ele>
<time>2017-04-06T05:42:54.133Z</time>
</trkpt>
<trkpt lat="-29.2518627" lon="151.9947056">
<ele>822.333</ele>
<time>2017-04-06T05:42:57.147Z</time>
</trkpt>
<trkpt lat="-29.2525834" lon="151.9943642">
<ele>824.302</ele>
<time>2017-04-06T05:43:00.144Z</time>
</trkpt>
<trkpt lat="-29.2532773" lon="151.9939560">
<ele>826.305</ele>
<time>2017-04-06T05:43:03.156Z</time>
</trkpt>
<trkpt lat="-29.2539316" lon="151.9934790">
<ele>827.835</ele>
<time>2017-04-06T05:43:06.152Z</time>
</trkpt>
<trkpt lat="-29.2543663" lon="151.9931552">
<ele>828.633</ele>
<time>2017-04-06T05:43:08.155Z</time>
</trkpt>
<trkpt lat="-29.2547503" lon="151.9927612">
<ele>828.937</ele>
<time>2017-04-06T05:43:10.151Z</time>
</trkpt>
<trkpt lat="-29.2553654" lon="151.9922236">
<ele>829.169</ele>
<time>2017-04-06T05:43:13.147Z</time>
</trkpt>
<trkpt lat="-29.2559842" lon="151.9916789">
<ele>829.732</ele>
<time>2017-04-06T05:43:16.154Z</time>
</trkpt>
<trkpt lat="-29.2563769" lon="151.9912797">
<ele>830.624</ele>
<time>2017-04-06T05:43:18.163Z</time>
</trkpt>
<trkpt lat="-29.2567940" lon="151.9909213">
<ele>831.365</ele>
<time>2017-04-06T05:43:20.158Z</time>
</trkpt>
<trkpt lat="-29.2574057" lon="151.9903685">
<ele>831.651</ele>
<time>2017-04-06T05:43:23.146Z</time>
</trkpt>
<trkpt lat="-29.2578449" lon="151.9900388">
<ele>831.449</ele>
<time>2017-04-06T05:43:25.166Z</time>
</trkpt>
<trkpt lat="-29.2582831" lon="151.9897225">
<ele>830.873</ele>
<time>2017-04-06T05:43:27.162Z</time>
</trkpt>
<trkpt lat="-29.2589531" lon="151.9892641">
<ele>830.467</ele>
<time>2017-04-06T05:43:30.166Z</time>
</trkpt>
<trkpt lat="-29.2594220" lon="151.9890065">
<ele>830.855</ele>
<time>2017-04-06T05:43:32.161Z</time>
</trkpt>
<trkpt lat="-29.2601321" lon="151.9886225">
<ele>832.068</ele>
<time>2017-04-06T05:43:35.172Z</time>
</trkpt>
<trkpt lat="-29.2606116" lon="151.9883910">
<ele>833.659</ele>
<time>2017-04-06T05:43:37.169Z</time>
</trkpt>
<trkpt lat="-29.2610864" lon="151.9881517">
<ele>835.056</ele>
<time>2017-04-06T05:43:39.161Z</time>
</trkpt>
<trkpt lat="-29.2617817" lon="151.9877449">
<ele>835.806</ele>
<time>2017-04-06T05:43:42.164Z</time>
</trkpt>
<trkpt lat="-29.2622256" lon="151.9874324">
<ele>835.654</ele>
<time>2017-04-06T05:43:44.177Z</time>
</trkpt>
<trkpt lat="-29.2628418" lon="151.9868952">
<ele>834.538</ele>
<time>2017-04-06T05:43:47.182Z</time>
</trkpt>
<trkpt lat="-29.2632318" lon="151.9865107">
<ele>832.531</ele>
<time>2017-04-06T05:43:49.186Z</time>
</trkpt>
<trkpt lat="-29.2638216" lon="151.9859392">
<ele>830.245</ele>
<time>2017-04-06T05:43:52.187Z</time>
</trkpt>
<trkpt lat="-29.2641849" lon="151.9855047">
<ele>828.618</ele>
<time>2017-04-06T05:43:54.207Z</time>
</trkpt>
<trkpt lat="-29.2645805" lon="151.9851073">
<ele>828.084</ele>
<time>2017-04-06T05:43:56.218Z</time>
</trkpt>
<trkpt lat="-29.2651694" lon="151.9844836">
<ele>828.461</ele>
<time>2017-04-06T05:43:59.290Z</time>
</trkpt>
<trkpt lat="-29.2655516" lon="151.9840991">
<ele>829.483</ele>
<time>2017-04-06T05:44:01.255Z</time>
</trkpt>
<trkpt lat="-29.2661291" lon="151.9835144">
<ele>830.790</ele>
<time>2017-04-06T05:44:04.243Z</time>
</trkpt>
<trkpt lat="-29.2666881" lon="151.9829082">
<ele>832.120</ele>
<time>2017-04-06T05:44:07.217Z</time>
</trkpt>
<trkpt lat="-29.2672906" lon="151.9823237">
<ele>833.589</ele>
<time>2017-04-06T05:44:10.240Z</time>
</trkpt>
<trkpt lat="-29.2676617" lon="151.9819024">
<ele>835.265</ele>
<time>2017-04-06T05:44:12.233Z</time>
</trkpt>
<trkpt lat="-29.2682526" lon="151.9813142">
<ele>836.722</ele>
<time>2017-04-06T05:44:15.229Z</time>
</trkpt>
<trkpt lat="-29.2686289" lon="151.9809077">
<ele>837.526</ele>
<time>2017-04-06T05:44:17.221Z</time>
</trkpt>
<trkpt lat="-29.2690415" lon="151.9805498">
<ele>837.672</ele>
<time>2017-04-06T05:44:19.221Z</time>
</trkpt>
<trkpt lat="-29.2696266" lon="151.9799686">
<ele>837.451</ele>
<time>2017-04-06T05:44:22.221Z</time>
</trkpt>
<trkpt lat="-29.2701858" lon="151.9793718">
<ele>837.255</ele>
<time>2017-04-06T05:44:25.194Z</time>
</trkpt>
<trkpt lat="-29.2707550" lon="151.9787885">
<ele>837.524</ele>
<time>2017-04-06T05:44:28.173Z</time>
</trkpt>
<trkpt lat="-29.2711499" lon="151.9784097">
<ele>838.813</ele>
<time>2017-04-06T05:44:30.189Z</time>
</trkpt>
<trkpt lat="-29.2715274" lon="151.9780209">
<ele>841.289</ele>
<time>2017-04-06T05:44:32.179Z</time>
</trkpt>
<trkpt lat="-29.2718950" lon="151.9776136">
<ele>844.421</ele>
<time>2017-04-06T05:44:34.177Z</time>
</trkpt>
<trkpt lat="-29.2722664" lon="151.9771998">
<ele>847.360</ele>
<time>2017-04-06T05:44:36.189Z</time>
</trkpt>
<trkpt lat="-29.2728725" lon="151.9766471">
<ele>849.519</ele>
<time>2017-04-06T05:44:39.195Z</time>
</trkpt>
<trkpt lat="-29.2732906" lon="151.9763134">
<ele>851.080</ele>
<time>2017-04-06T05:44:41.178Z</time>
</trkpt>
<trkpt lat="-29.2739341" lon="151.9758159">
<ele>852.677</ele>
<time>2017-04-06T05:44:44.194Z</time>
</trkpt>
<trkpt lat="-29.2743795" lon="151.9754971">
<ele>854.735</ele>
<time>2017-04-06T05:44:46.212Z</time>
</trkpt>
<trkpt lat="-29.2750228" lon="151.9749829">
<ele>857.482</ele>
<time>2017-04-06T05:44:49.211Z</time>
</trkpt>
<trkpt lat="-29.2754397" lon="151.9746299">
<ele>860.970</ele>
<time>2017-04-06T05:44:51.187Z</time>
</trkpt>
<trkpt lat="-29.2758609" lon="151.9742747">
<ele>864.566</ele>
<time>2017-04-06T05:44:53.180Z</time>
</trkpt>
<trkpt lat="-29.2762917" lon="151.9739321">
<ele>867.108</ele>
<time>2017-04-06T05:44:55.173Z</time>
</trkpt>
<trkpt lat="-29.2769145" lon="151.9733643">
<ele>868.022</ele>
<time>2017-04-06T05:44:58.192Z</time>
</trkpt>
<trkpt lat="-29.2773282" lon="151.9730070">
<ele>867.625</ele>
<time>2017-04-06T05:45:00.165Z</time>
</trkpt>
<trkpt lat="-29.2777333" lon="151.9726367">
<ele>866.338</ele>
<time>2017-04-06T05:45:02.149Z</time>
</trkpt>
<trkpt lat="-29.2780875" lon="151.9721962">
<ele>864.559</ele>
<time>2017-04-06T05:45:04.156Z</time>
</trkpt>
<trkpt lat="-29.2784576" lon="151.9717825">
<ele>862.536</ele>
<time>2017-04-06T05:45:06.149Z</time>
</trkpt>
<trkpt lat="-29.2790410" lon="151.9711980">
<ele>860.262</ele>
<time>2017-04-06T05:45:09.138Z</time>
</trkpt>
<trkpt lat="-29.2795686" lon="151.9705296">
<ele>857.618</ele>
<time>2017-04-06T05:45:12.163Z</time>
</trkpt>
<trkpt lat="-29.2799619" lon="151.9701364">
<ele>854.544</ele>
<time>2017-04-06T05:45:14.171Z</time>
</trkpt>
<trkpt lat="-29.2805121" lon="151.9695014">
<ele>851.628</ele>
<time>2017-04-06T05:45:17.178Z</time>
</trkpt>
<trkpt lat="-29.2808817" lon="151.9690769">
<ele>850.579</ele>
<time>2017-04-06T05:45:19.199Z</time>
</trkpt>
<trkpt lat="-29.2812433" lon="151.9686586">
<ele>852.138</ele>
<time>2017-04-06T05:45:21.190Z</time>
</trkpt>
<trkpt lat="-29.2815454" lon="151.9681841">
<ele>854.608</ele>
<time>2017-04-06T05:45:23.181Z</time>
</trkpt>
<trkpt lat="-29.2818952" lon="151.9677462">
<ele>856.003</ele>
<time>2017-04-06T05:45:25.187Z</time>
</trkpt>
<trkpt lat="-29.2824095" lon="151.9670608">
<ele>855.866</ele>
<time>2017-04-06T05:45:28.227Z</time>
</trkpt>
<trkpt lat="-29.2829475" lon="151.9664137">
<ele>854.528</ele>
<time>2017-04-06T05:45:31.224Z</time>
</trkpt>
<trkpt lat="-29.2832993" lon="151.9659872">
<ele>852.425</ele>
<time>2017-04-06T05:45:33.196Z</time>
</trkpt>
<trkpt lat="-29.2836560" lon="151.9655474">
<ele>850.135</ele>
<time>2017-04-06T05:45:35.215Z</time>
</trkpt>
<trkpt lat="-29.2841510" lon="151.9648627">
<ele>848.259</ele>
<time>2017-04-06T05:45:38.201Z</time>
</trkpt>
<trkpt lat="-29.2845041" lon="151.9644125">
<ele>846.920</ele>
<time>2017-04-06T05:45:40.224Z</time>
</trkpt>
<trkpt lat="-29.2850811" lon="151.9638070">
<ele>845.924</ele>
<time>2017-04-06T05:45:43.219Z</time>
</trkpt>
<trkpt lat="-29.2856847" lon="151.9632503">
<ele>845.092</ele>
<time>2017-04-06T05:45:46.199Z</time>
</trkpt>
<trkpt lat="-29.2861296" lon="151.9629437">
<ele>844.113</ele>
<time>2017-04-06T05:45:48.208Z</time>
</trkpt>
<trkpt lat="-29.2868044" lon="151.9625346">
<ele>842.752</ele>
<time>2017-04-06T05:45:51.169Z</time>
</trkpt>
<trkpt lat="-29.2875245" lon="151.9621939">
<ele>840.948</ele>
<time>2017-04-06T05:45:54.186Z</time>
</trkpt>
<trkpt lat="-29.2880164" lon="151.9619970">
<ele>838.656</ele>
<time>2017-04-06T05:45:56.197Z</time>
</trkpt>
<trkpt lat="-29.2887204" lon="151.9616048">
<ele>836.272</ele>
<time>2017-04-06T05:45:59.221Z</time>
</trkpt>
<trkpt lat="-29.2891917" lon="151.9613670">
<ele>834.410</ele>
<time>2017-04-06T05:46:01.207Z</time>
</trkpt>
<trkpt lat="-29.2899153" lon="151.9609467">
<ele>833.197</ele>
<time>2017-04-06T05:46:04.318Z</time>
</trkpt>
<trkpt lat="-29.2903757" lon="151.9606411">
<ele>832.411</ele>
<time>2017-04-06T05:46:06.350Z</time>
</trkpt>
<trkpt lat="-29.2907741" lon="151.9602317">
<ele>831.802</ele>
<time>2017-04-06T05:46:08.392Z</time>
</trkpt>
<trkpt lat="-29.2911649" lon="151.9598351">
<ele>831.087</ele>
<time>2017-04-06T05:46:10.384Z</time>
</trkpt>
<trkpt lat="-29.2915537" lon="151.9594402">
<ele>830.070</ele>
<time>2017-04-06T05:46:12.377Z</time>
</trkpt>
<trkpt lat="-29.2920777" lon="151.9587985">
<ele>828.733</ele>
<time>2017-04-06T05:46:15.337Z</time>
</trkpt>
<trkpt lat="-29.2925928" lon="151.9581363">
<ele>827.223</ele>
<time>2017-04-06T05:46:18.336Z</time>
</trkpt>
<trkpt lat="-29.2929529" lon="151.9577081">
<ele>825.646</ele>
<time>2017-04-06T05:46:20.338Z</time>
</trkpt>
<trkpt lat="-29.2935096" lon="151.9570832">
<ele>824.179</ele>
<time>2017-04-06T05:46:23.342Z</time>
</trkpt>
<trkpt lat="-29.2938778" lon="151.9566690">
<ele>823.134</ele>
<time>2017-04-06T05:46:25.335Z</time>
</trkpt>
<trkpt lat="-29.2943812" lon="151.9560085">
<ele>822.679</ele>
<time>2017-04-06T05:46:28.292Z</time>
</trkpt>
<trkpt lat="-29.2947619" lon="151.9556021">
<ele>822.799</ele>
<time>2017-04-06T05:46:30.299Z</time>
</trkpt>
<trkpt lat="-29.2951303" lon="151.9551819">
<ele>823.418</ele>
<time>2017-04-06T05:46:32.304Z</time>
</trkpt>
<trkpt lat="-29.2954897" lon="151.9547584">
<ele>824.219</ele>
<time>2017-04-06T05:46:34.292Z</time>
</trkpt>
<trkpt lat="-29.2958317" lon="151.9543077">
<ele>824.775</ele>
<time>2017-04-06T05:46:36.304Z</time>
</trkpt>
<trkpt lat="-29.2963616" lon="151.9536576">
<ele>824.940</ele>
<time>2017-04-06T05:46:39.298Z</time>
</trkpt>
<trkpt lat="-29.2969029" lon="151.9530101">
<ele>824.768</ele>
<time>2017-04-06T05:46:42.307Z</time>
</trkpt>
<trkpt lat="-29.2974226" lon="151.9523445">
<ele>824.279</ele>
<time>2017-04-06T05:46:45.296Z</time>
</trkpt>
<trkpt lat="-29.2979477" lon="151.9516791">
<ele>823.536</ele>
<time>2017-04-06T05:46:48.296Z</time>
</trkpt>
<trkpt lat="-29.2982949" lon="151.9512304">
<ele>822.769</ele>
<time>2017-04-06T05:46:50.295Z</time>
</trkpt>
<trkpt lat="-29.2988501" lon="151.9505923">
<ele>822.239</ele>
<time>2017-04-06T05:46:53.304Z</time>
</trkpt>
<trkpt lat="-29.2993918" lon="151.9499662">
<ele>822.017</ele>
<time>2017-04-06T05:46:56.264Z</time>
</trkpt>
<trkpt lat="-29.2997460" lon="151.9495360">
<ele>822.032</ele>
<time>2017-04-06T05:46:58.261Z</time>
</trkpt>
<trkpt lat="-29.3000741" lon="151.9490973">
<ele>822.226</ele>
<time>2017-04-06T05:47:00.213Z</time>
</trkpt>
<trkpt lat="-29.3005997" lon="151.9484586">
<ele>822.550</ele>
<time>2017-04-06T05:47:03.173Z</time>
</trkpt>
<trkpt lat="-29.3009406" lon="151.9479992">
<ele>822.938</ele>
<time>2017-04-06T05:47:05.198Z</time>
</trkpt>
<trkpt lat="-29.3014195" lon="151.9472934">
<ele>823.424</ele>
<time>2017-04-06T05:47:08.195Z</time>
</trkpt>
<trkpt lat="-29.3017527" lon="151.9468283">
<ele>824.172</ele>
<time>2017-04-06T05:47:10.211Z</time>
</trkpt>
<trkpt lat="-29.3020612" lon="151.9463440">
<ele>825.253</ele>
<time>2017-04-06T05:47:12.225Z</time>
</trkpt>
<trkpt lat="-29.3025280" lon="151.9456516">
<ele>826.578</ele>
<time>2017-04-06T05:47:15.168Z</time>
</trkpt>
<trkpt lat="-29.3028529" lon="151.9451801">
<ele>828.170</ele>
<time>2017-04-06T05:47:17.179Z</time>
</trkpt>
<trkpt lat="-29.3031685" lon="151.9447012">
<ele>829.948</ele>
<time>2017-04-06T05:47:19.187Z</time>
</trkpt>
<trkpt lat="-29.3035091" lon="151.9442596">
<ele>831.473</ele>
<time>2017-04-06T05:47:21.169Z</time>
</trkpt>
<trkpt lat="-29.3040171" lon="151.9435832">
<ele>832.384</ele>
<time>2017-04-06T05:47:24.176Z</time>
</trkpt>
<trkpt lat="-29.3045287" lon="151.9429007">
<ele>832.708</ele>
<time>2017-04-06T05:47:27.195Z</time>
</trkpt>
<trkpt lat="-29.3048635" lon="151.9424321">
<ele>832.526</ele>
<time>2017-04-06T05:47:29.216Z</time>
</trkpt>
<trkpt lat="-29.3052102" lon="151.9416200">
<ele>831.824</ele>
<time>2017-04-06T05:47:32.231Z</time>
</trkpt>
<trkpt lat="-29.3054911" lon="151.9411103">
<ele>830.337</ele>
<time>2017-04-06T05:47:34.246Z</time>
</trkpt>
<trkpt lat="-29.3059594" lon="151.9404033">
<ele>827.845</ele>
<time>2017-04-06T05:47:37.227Z</time>
</trkpt>
<trkpt lat="-29.3062646" lon="151.9399286">
<ele>824.643</ele>
<time>2017-04-06T05:47:39.220Z</time>
</trkpt>
<trkpt lat="-29.3065394" lon="151.9394374">
<ele>821.705</ele>
<time>2017-04-06T05:47:41.199Z</time>
</trkpt>
<trkpt lat="-29.3069658" lon="151.9387021">
<ele>820.049</ele>
<time>2017-04-06T05:47:44.194Z</time>
</trkpt>
<trkpt lat="-29.3074116" lon="151.9379785">
<ele>819.795</ele>
<time>2017-04-06T05:47:47.197Z</time>
</trkpt>
<trkpt lat="-29.3077077" lon="151.9374899">
<ele>820.096</ele>
<time>2017-04-06T05:47:49.213Z</time>
</trkpt>
<trkpt lat="-29.3081854" lon="151.9367916">
<ele>820.280</ele>
<time>2017-04-06T05:47:52.225Z</time>
</trkpt>
<trkpt lat="-29.3085740" lon="151.9364056">
<ele>820.311</ele>
<time>2017-04-06T05:47:54.266Z</time>
</trkpt>
<trkpt lat="-29.3091836" lon="151.9359474">
<ele>820.360</ele>
<time>2017-04-06T05:47:57.248Z</time>
</trkpt>
<trkpt lat="-29.3095591" lon="151.9356829">
<ele>820.414</ele>
<time>2017-04-06T05:47:59.214Z</time>
</trkpt>
<trkpt lat="-29.3100908" lon="151.9353635">
<ele>820.267</ele>
<time>2017-04-06T05:48:02.127Z</time>
</trkpt>
<trkpt lat="-29.3105614" lon="151.9350766">
<ele>819.494</ele>
<time>2017-04-06T05:48:05.066Z</time>
</trkpt>
<trkpt lat="-29.3109514" lon="151.9348346">
<ele>817.793</ele>
<time>2017-04-06T05:48:07.865Z</time>
</trkpt>
<trkpt lat="-29.3111826" lon="151.9347195">
<ele>815.490</ele>
<time>2017-04-06T05:48:09.760Z</time>
</trkpt>
<trkpt lat="-29.3114453" lon="151.9345466">
<ele>813.340</ele>
<time>2017-04-06T05:48:12.404Z</time>
</trkpt>
<trkpt lat="-29.3115823" lon="151.9345160">
<ele>811.817</ele>
<time>2017-04-06T05:48:14.001Z</time>
</trkpt>
<trkpt lat="-29.3115823" lon="151.9345160">
<ele>810.960</ele>
<time>2017-04-06T05:48:18.998Z</time>
</trkpt>
<trkpt lat="-29.3115823" lon="151.9345160">
<ele>810.574</ele>
<time>2017-04-06T05:56:33.471Z</time>
</trkpt>
<trkpt lat="-29.3117524" lon="151.9343678">
<ele>810.368</ele>
<time>2017-04-06T05:56:43.957Z</time>
</trkpt>
<trkpt lat="-29.3118971" lon="151.9342388">
<ele>810.168</ele>
<time>2017-04-06T05:56:47.064Z</time>
</trkpt>
<trkpt lat="-29.3119894" lon="151.9341665">
<ele>810.017</ele>
<time>2017-04-06T05:56:48.808Z</time>
</trkpt>
<trkpt lat="-29.3121089" lon="151.9340463">
<ele>810.004</ele>
<time>2017-04-06T05:56:51.361Z</time>
</trkpt>
<trkpt lat="-29.3121879" lon="151.9339756">
<ele>810.191</ele>
<time>2017-04-06T05:56:53.044Z</time>
</trkpt>
<trkpt lat="-29.3122732" lon="151.9339251">
<ele>810.532</ele>
<time>2017-04-06T05:56:54.843Z</time>
</trkpt>
<trkpt lat="-29.3123552" lon="151.9338563">
<ele>810.884</ele>
<time>2017-04-06T05:56:56.998Z</time>
</trkpt>
<trkpt lat="-29.3123552" lon="151.9338563">
<ele>811.135</ele>
<time>2017-04-06T05:57:02.998Z</time>
</trkpt>
<trkpt lat="-29.3123552" lon="151.9338563">
<ele>811.111</ele>
<time>2017-04-06T05:57:29.153Z</time>
</trkpt>
<trkpt lat="-29.3125173" lon="151.9336361">
<ele>810.761</ele>
<time>2017-04-06T05:57:52.009Z</time>
</trkpt>
<trkpt lat="-29.3126020" lon="151.9335980">
<ele>810.762</ele>
<time>2017-04-06T05:57:55.997Z</time>
</trkpt>
<trkpt lat="-29.3126020" lon="151.9335980">
<ele>811.602</ele>
<time>2017-04-06T05:58:02.997Z</time>
</trkpt>
<trkpt lat="-29.3126020" lon="151.9335980">
<ele>812.298</ele>
<time>2017-04-06T06:00:48.964Z</time>
</trkpt>
<trkpt lat="-29.3127275" lon="151.9334597">
<ele>811.963</ele>
<time>2017-04-06T06:00:56.128Z</time>
</trkpt>
<trkpt lat="-29.3127951" lon="151.9333596">
<ele>811.604</ele>
<time>2017-04-06T06:00:59.065Z</time>
</trkpt>
<trkpt lat="-29.3128568" lon="151.9332767">
<ele>812.264</ele>
<time>2017-04-06T06:01:02.744Z</time>
</trkpt>
<trkpt lat="-29.3129351" lon="151.9332187">
<ele>813.421</ele>
<time>2017-04-06T06:01:06.997Z</time>
</trkpt>
<trkpt lat="-29.3129351" lon="151.9332187">
<ele>814.239</ele>
<time>2017-04-06T06:01:11.997Z</time>
</trkpt>
<trkpt lat="-29.3129351" lon="151.9332187">
<ele>814.418</ele>
<time>2017-04-06T06:08:07.946Z</time>
</trkpt>
<trkpt lat="-29.3130011" lon="151.9329843">
<ele>814.030</ele>
<time>2017-04-06T06:08:21.313Z</time>
</trkpt>
<trkpt lat="-29.3130659" lon="151.9328710">
<ele>813.831</ele>
<time>2017-04-06T06:08:23.842Z</time>
</trkpt>
<trkpt lat="-29.3131186" lon="151.9327788">
<ele>814.401</ele>
<time>2017-04-06T06:08:25.717Z</time>
</trkpt>
<trkpt lat="-29.3132174" lon="151.9326339">
<ele>815.335</ele>
<time>2017-04-06T06:08:28.397Z</time>
</trkpt>
<trkpt lat="-29.3132726" lon="151.9324953">
<ele>816.084</ele>
<time>2017-04-06T06:08:30.330Z</time>
</trkpt>
<trkpt lat="-29.3133434" lon="151.9323574">
<ele>816.595</ele>
<time>2017-04-06T06:08:32.198Z</time>
</trkpt>
<trkpt lat="-29.3134794" lon="151.9321434">
<ele>816.958</ele>
<time>2017-04-06T06:08:35.086Z</time>
</trkpt>
<trkpt lat="-29.3135774" lon="151.9319810">
<ele>817.264</ele>
<time>2017-04-06T06:08:37.012Z</time>
</trkpt>
<trkpt lat="-29.3136708" lon="151.9317812">
<ele>817.578</ele>
<time>2017-04-06T06:08:39.209Z</time>
</trkpt>
<trkpt lat="-29.3138135" lon="151.9315428">
<ele>817.907</ele>
<time>2017-04-06T06:08:42.307Z</time>
</trkpt>
<trkpt lat="-29.3138929" lon="151.9314078">
<ele>818.214</ele>
<time>2017-04-06T06:08:44.303Z</time>
</trkpt>
<trkpt lat="-29.3140265" lon="151.9312328">
<ele>818.461</ele>
<time>2017-04-06T06:08:47.147Z</time>
</trkpt>
<trkpt lat="-29.3141240" lon="151.9311067">
<ele>818.682</ele>
<time>2017-04-06T06:08:49.080Z</time>
</trkpt>
<trkpt lat="-29.3142760" lon="151.9309003">
<ele>818.967</ele>
<time>2017-04-06T06:08:51.871Z</time>
</trkpt>
<trkpt lat="-29.3144731" lon="151.9306602">
<ele>819.398</ele>
<time>2017-04-06T06:08:54.870Z</time>
</trkpt>
<trkpt lat="-29.3146938" lon="151.9304245">
<ele>820.080</ele>
<time>2017-04-06T06:08:57.931Z</time>
</trkpt>
<trkpt lat="-29.3148711" lon="151.9301830">
<ele>821.117</ele>
<time>2017-04-06T06:09:00.874Z</time>
</trkpt>
<trkpt lat="-29.3149646" lon="151.9300109">
<ele>822.527</ele>
<time>2017-04-06T06:09:02.944Z</time>
</trkpt>
<trkpt lat="-29.3150834" lon="151.9297608">
<ele>824.149</ele>
<time>2017-04-06T06:09:06.026Z</time>
</trkpt>
<trkpt lat="-29.3151219" lon="151.9295909">
<ele>825.805</ele>
<time>2017-04-06T06:09:08.101Z</time>
</trkpt>
<trkpt lat="-29.3151569" lon="151.9294364">
<ele>827.419</ele>
<time>2017-04-06T06:09:10.155Z</time>
</trkpt>
<trkpt lat="-29.3151971" lon="151.9292333">
<ele>828.906</ele>
<time>2017-04-06T06:09:12.931Z</time>
</trkpt>
<trkpt lat="-29.3152374" lon="151.9290834">
<ele>830.273</ele>
<time>2017-04-06T06:09:14.973Z</time>
</trkpt>
<trkpt lat="-29.3152781" lon="151.9289318">
<ele>831.640</ele>
<time>2017-04-06T06:09:16.965Z</time>
</trkpt>
<trkpt lat="-29.3153348" lon="151.9287815">
<ele>832.972</ele>
<time>2017-04-06T06:09:19.023Z</time>
</trkpt>
<trkpt lat="-29.3154191" lon="151.9285613">
<ele>834.210</ele>
<time>2017-04-06T06:09:22.140Z</time>
</trkpt>
<trkpt lat="-29.3155143" lon="151.9283639">
<ele>835.508</ele>
<time>2017-04-06T06:09:25.147Z</time>
</trkpt>
<trkpt lat="-29.3155985" lon="151.9282389">
<ele>837.048</ele>
<time>2017-04-06T06:09:27.232Z</time>
</trkpt>
<trkpt lat="-29.3156771" lon="151.9281092">
<ele>838.706</ele>
<time>2017-04-06T06:09:29.335Z</time>
</trkpt>
<trkpt lat="-29.3158164" lon="151.9279428">
<ele>840.185</ele>
<time>2017-04-06T06:09:32.451Z</time>
</trkpt>
<trkpt lat="-29.3159542" lon="151.9277805">
<ele>841.463</ele>
<time>2017-04-06T06:09:35.572Z</time>
</trkpt>
<trkpt lat="-29.3160901" lon="151.9276280">
<ele>842.737</ele>
<time>2017-04-06T06:09:38.443Z</time>
</trkpt>
<trkpt lat="-29.3162570" lon="151.9274610">
<ele>844.091</ele>
<time>2017-04-06T06:09:41.468Z</time>
</trkpt>
<trkpt lat="-29.3163824" lon="151.9273470">
<ele>845.546</ele>
<time>2017-04-06T06:09:43.482Z</time>
</trkpt>
<trkpt lat="-29.3165983" lon="151.9271741">
<ele>847.081</ele>
<time>2017-04-06T06:09:46.723Z</time>
</trkpt>
<trkpt lat="-29.3167295" lon="151.9270699">
<ele>848.687</ele>
<time>2017-04-06T06:09:48.752Z</time>
</trkpt>
<trkpt lat="-29.3168537" lon="151.9269569">
<ele>850.353</ele>
<time>2017-04-06T06:09:50.844Z</time>
</trkpt>
<trkpt lat="-29.3170452" lon="151.9268243">
<ele>851.960</ele>
<time>2017-04-06T06:09:53.782Z</time>
</trkpt>
<trkpt lat="-29.3171703" lon="151.9267178">
<ele>853.491</ele>
<time>2017-04-06T06:09:55.732Z</time>
</trkpt>
<trkpt lat="-29.3173774" lon="151.9265501">
<ele>855.041</ele>
<time>2017-04-06T06:09:58.862Z</time>
</trkpt>
<trkpt lat="-29.3175605" lon="151.9263708">
<ele>856.645</ele>
<time>2017-04-06T06:10:01.949Z</time>
</trkpt>
<trkpt lat="-29.3177086" lon="151.9261629">
<ele>858.389</ele>
<time>2017-04-06T06:10:05.288Z</time>
</trkpt>
<trkpt lat="-29.3177810" lon="151.9260352">
<ele>860.283</ele>
<time>2017-04-06T06:10:07.229Z</time>
</trkpt>
<trkpt lat="-29.3178665" lon="151.9258112">
<ele>862.062</ele>
<time>2017-04-06T06:10:09.943Z</time>
</trkpt>
<trkpt lat="-29.3179154" lon="151.9255007">
<ele>863.577</ele>
<time>2017-04-06T06:10:13.271Z</time>
</trkpt>
<trkpt lat="-29.3179744" lon="151.9252640">
<ele>865.066</ele>
<time>2017-04-06T06:10:16.069Z</time>
</trkpt>
<trkpt lat="-29.3180148" lon="151.9249999">
<ele>866.750</ele>
<time>2017-04-06T06:10:19.121Z</time>
</trkpt>
<trkpt lat="-29.3180550" lon="151.9247352">
<ele>868.541</ele>
<time>2017-04-06T06:10:22.228Z</time>
</trkpt>
<trkpt lat="-29.3181030" lon="151.9244863">
<ele>870.335</ele>
<time>2017-04-06T06:10:24.945Z</time>
</trkpt>
<trkpt lat="-29.3181681" lon="151.9243099">
<ele>872.128</ele>
<time>2017-04-06T06:10:26.926Z</time>
</trkpt>
<trkpt lat="-29.3182369" lon="151.9241257">
<ele>873.829</ele>
<time>2017-04-06T06:10:29.050Z</time>
</trkpt>
<trkpt lat="-29.3183682" lon="151.9238961">
<ele>875.313</ele>
<time>2017-04-06T06:10:32.184Z</time>
</trkpt>
<trkpt lat="-29.3184957" lon="151.9236877">
<ele>876.703</ele>
<time>2017-04-06T06:10:34.990Z</time>
</trkpt>
<trkpt lat="-29.3185958" lon="151.9235388">
<ele>878.286</ele>
<time>2017-04-06T06:10:36.944Z</time>
</trkpt>
<trkpt lat="-29.3187046" lon="151.9233860">
<ele>880.053</ele>
<time>2017-04-06T06:10:38.952Z</time>
</trkpt>
<trkpt lat="-29.3188249" lon="151.9232344">
<ele>881.716</ele>
<time>2017-04-06T06:10:41.041Z</time>
</trkpt>
<trkpt lat="-29.3189876" lon="151.9230172">
<ele>883.142</ele>
<time>2017-04-06T06:10:44.180Z</time>
</trkpt>
<trkpt lat="-29.3191456" lon="151.9228326">
<ele>884.496</ele>
<time>2017-04-06T06:10:47.310Z</time>
</trkpt>
<trkpt lat="-29.3192362" lon="151.9227186">
<ele>885.967</ele>
<time>2017-04-06T06:10:49.170Z</time>
</trkpt>
<trkpt lat="-29.3193882" lon="151.9225227">
<ele>887.484</ele>
<time>2017-04-06T06:10:52.161Z</time>
</trkpt>
<trkpt lat="-29.3195421" lon="151.9223112">
<ele>888.943</ele>
<time>2017-04-06T06:10:55.305Z</time>
</trkpt>
<trkpt lat="-29.3196862" lon="151.9221019">
<ele>890.468</ele>
<time>2017-04-06T06:10:58.402Z</time>
</trkpt>
<trkpt lat="-29.3197810" lon="151.9219622">
<ele>892.151</ele>
<time>2017-04-06T06:11:00.483Z</time>
</trkpt>
<trkpt lat="-29.3198793" lon="151.9218288">
<ele>893.810</ele>
<time>2017-04-06T06:11:02.566Z</time>
</trkpt>
<trkpt lat="-29.3199593" lon="151.9216901">
<ele>895.230</ele>
<time>2017-04-06T06:11:04.541Z</time>
</trkpt>
<trkpt lat="-29.3200885" lon="151.9214845">
<ele>896.396</ele>
<time>2017-04-06T06:11:07.400Z</time>
</trkpt>
<trkpt lat="-29.3201731" lon="151.9213305">
<ele>897.513</ele>
<time>2017-04-06T06:11:09.352Z</time>
</trkpt>
<trkpt lat="-29.3203154" lon="151.9210972">
<ele>898.729</ele>
<time>2017-04-06T06:11:12.156Z</time>
</trkpt>
<trkpt lat="-29.3204749" lon="151.9208184">
<ele>900.073</ele>
<time>2017-04-06T06:11:15.270Z</time>
</trkpt>
<trkpt lat="-29.3206627" lon="151.9205823">
<ele>901.666</ele>
<time>2017-04-06T06:11:18.311Z</time>
</trkpt>
<trkpt lat="-29.3207740" lon="151.9204126">
<ele>903.629</ele>
<time>2017-04-06T06:11:20.354Z</time>
</trkpt>
<trkpt lat="-29.3209312" lon="151.9201525">
<ele>905.752</ele>
<time>2017-04-06T06:11:23.484Z</time>
</trkpt>
<trkpt lat="-29.3210914" lon="151.9199040">
<ele>907.781</ele>
<time>2017-04-06T06:11:26.757Z</time>
</trkpt>
<trkpt lat="-29.3212326" lon="151.9196824">
<ele>909.735</ele>
<time>2017-04-06T06:11:29.776Z</time>
</trkpt>
<trkpt lat="-29.3213748" lon="151.9194620">
<ele>911.639</ele>
<time>2017-04-06T06:11:32.748Z</time>
</trkpt>
<trkpt lat="-29.3214658" lon="151.9193043">
<ele>913.377</ele>
<time>2017-04-06T06:11:34.741Z</time>
</trkpt>
<trkpt lat="-29.3215610" lon="151.9191480">
<ele>914.853</ele>
<time>2017-04-06T06:11:36.649Z</time>
</trkpt>
<trkpt lat="-29.3216660" lon="151.9189889">
<ele>916.036</ele>
<time>2017-04-06T06:11:38.589Z</time>
</trkpt>
<trkpt lat="-29.3218552" lon="151.9187569">
<ele>916.970</ele>
<time>2017-04-06T06:11:41.431Z</time>
</trkpt>
<trkpt lat="-29.3219863" lon="151.9185878">
<ele>917.787</ele>
<time>2017-04-06T06:11:43.148Z</time>
</trkpt>
<trkpt lat="-29.3221215" lon="151.9183939">
<ele>918.564</ele>
<time>2017-04-06T06:11:44.923Z</time>
</trkpt>
<trkpt lat="-29.3224013" lon="151.9180431">
<ele>919.282</ele>
<time>2017-04-06T06:11:47.875Z</time>
</trkpt>
<trkpt lat="-29.3227109" lon="151.9177136">
<ele>920.039</ele>
<time>2017-04-06T06:11:50.724Z</time>
</trkpt>
<trkpt lat="-29.3229349" lon="151.9174926">
<ele>920.938</ele>
<time>2017-04-06T06:11:52.543Z</time>
</trkpt>
<trkpt lat="-29.3231999" lon="151.9172466">
<ele>921.815</ele>
<time>2017-04-06T06:11:54.401Z</time>
</trkpt>
<trkpt lat="-29.3234986" lon="151.9169440">
<ele>922.536</ele>
<time>2017-04-06T06:11:56.297Z</time>
</trkpt>
<trkpt lat="-29.3240130" lon="151.9163907">
<ele>923.374</ele>
<time>2017-04-06T06:11:59.526Z</time>
</trkpt>
<trkpt lat="-29.3243048" lon="151.9160870">
<ele>924.917</ele>
<time>2017-04-06T06:12:01.396Z</time>
</trkpt>
<trkpt lat="-29.3246008" lon="151.9157419">
<ele>927.276</ele>
<time>2017-04-06T06:12:03.422Z</time>
</trkpt>
<trkpt lat="-29.3250098" lon="151.9152094">
<ele>929.716</ele>
<time>2017-04-06T06:12:06.328Z</time>
</trkpt>
<trkpt lat="-29.3254570" lon="151.9146475">
<ele>931.703</ele>
<time>2017-04-06T06:12:09.147Z</time>
</trkpt>
<trkpt lat="-29.3257708" lon="151.9141643">
<ele>933.552</ele>
<time>2017-04-06T06:12:11.038Z</time>
</trkpt>
<trkpt lat="-29.3263043" lon="151.9133344">
<ele>935.762</ele>
<time>2017-04-06T06:12:14.062Z</time>
</trkpt>
<trkpt lat="-29.3266532" lon="151.9127270">
<ele>938.054</ele>
<time>2017-04-06T06:12:16.028Z</time>
</trkpt>
<trkpt lat="-29.3271731" lon="151.9117538">
<ele>939.577</ele>
<time>2017-04-06T06:12:19.082Z</time>
</trkpt>
<trkpt lat="-29.3276044" lon="151.9107450">
<ele>940.128</ele>
<time>2017-04-06T06:12:22.177Z</time>
</trkpt>
<trkpt lat="-29.3278540" lon="151.9101343">
<ele>940.276</ele>
<time>2017-04-06T06:12:24.190Z</time>
</trkpt>
<trkpt lat="-29.3281255" lon="151.9095651">
<ele>942.844</ele>
<time>2017-04-06T06:12:26.242Z</time>
</trkpt>
<trkpt lat="-29.3285089" lon="151.9087696">
<ele>949.308</ele>
<time>2017-04-06T06:12:29.226Z</time>
</trkpt>
<trkpt lat="-29.3287438" lon="151.9082438">
<ele>955.919</ele>
<time>2017-04-06T06:12:31.214Z</time>
</trkpt>
<trkpt lat="-29.3291386" lon="151.9074454">
<ele>959.125</ele>
<time>2017-04-06T06:12:34.301Z</time>
</trkpt>
<trkpt lat="-29.3293453" lon="151.9069078">
<ele>959.877</ele>
<time>2017-04-06T06:12:36.275Z</time>
</trkpt>
<trkpt lat="-29.3296146" lon="151.9063913">
<ele>960.094</ele>
<time>2017-04-06T06:12:38.299Z</time>
</trkpt>
<trkpt lat="-29.3298464" lon="151.9058631">
<ele>960.895</ele>
<time>2017-04-06T06:12:40.290Z</time>
</trkpt>
<trkpt lat="-29.3302369" lon="151.9050888">
<ele>962.473</ele>
<time>2017-04-06T06:12:43.296Z</time>
</trkpt>
<trkpt lat="-29.3304572" lon="151.9045597">
<ele>964.572</ele>
<time>2017-04-06T06:12:45.269Z</time>
</trkpt>
<trkpt lat="-29.3307181" lon="151.9040546">
<ele>966.531</ele>
<time>2017-04-06T06:12:47.249Z</time>
</trkpt>
<trkpt lat="-29.3311253" lon="151.9033168">
<ele>967.167</ele>
<time>2017-04-06T06:12:50.192Z</time>
</trkpt>
<trkpt lat="-29.3315840" lon="151.9026268">
<ele>966.133</ele>
<time>2017-04-06T06:12:53.112Z</time>
</trkpt>
<trkpt lat="-29.3320408" lon="151.9019084">
<ele>965.340</ele>
<time>2017-04-06T06:12:56.099Z</time>
</trkpt>
<trkpt lat="-29.3323330" lon="151.9014251">
<ele>967.199</ele>
<time>2017-04-06T06:12:58.074Z</time>
</trkpt>
<trkpt lat="-29.3326363" lon="151.9009510">
<ele>971.758</ele>
<time>2017-04-06T06:13:00.041Z</time>
</trkpt>
<trkpt lat="-29.3329470" lon="151.9004698">
<ele>977.191</ele>
<time>2017-04-06T06:13:02.039Z</time>
</trkpt>
<trkpt lat="-29.3332556" lon="151.8999857">
<ele>982.072</ele>
<time>2017-04-06T06:13:04.041Z</time>
</trkpt>
<trkpt lat="-29.3335423" lon="151.8994886">
<ele>986.101</ele>
<time>2017-04-06T06:13:06.034Z</time>
</trkpt>
<trkpt lat="-29.3340087" lon="151.8987693">
<ele>989.467</ele>
<time>2017-04-06T06:13:09.022Z</time>
</trkpt>
<trkpt lat="-29.3344355" lon="151.8980256">
<ele>992.547</ele>
<time>2017-04-06T06:13:11.976Z</time>
</trkpt>
<trkpt lat="-29.3347421" lon="151.8975372">
<ele>995.413</ele>
<time>2017-04-06T06:13:13.963Z</time>
</trkpt>
<trkpt lat="-29.3350599" lon="151.8970485">
<ele>997.514</ele>
<time>2017-04-06T06:13:15.973Z</time>
</trkpt>
<trkpt lat="-29.3355286" lon="151.8963152">
<ele>998.237</ele>
<time>2017-04-06T06:13:18.973Z</time>
</trkpt>
<trkpt lat="-29.3358703" lon="151.8958629">
<ele>997.402</ele>
<time>2017-04-06T06:13:20.954Z</time>
</trkpt>
<trkpt lat="-29.3364089" lon="151.8952145">
<ele>995.643</ele>
<time>2017-04-06T06:13:23.927Z</time>
</trkpt>
<trkpt lat="-29.3368147" lon="151.8948363">
<ele>994.918</ele>
<time>2017-04-06T06:13:25.929Z</time>
</trkpt>
<trkpt lat="-29.3372362" lon="151.8944827">
<ele>996.246</ele>
<time>2017-04-06T06:13:27.935Z</time>
</trkpt>
<trkpt lat="-29.3378562" lon="151.8939815">
<ele>998.162</ele>
<time>2017-04-06T06:13:30.859Z</time>
</trkpt>
<trkpt lat="-29.3385285" lon="151.8935345">
<ele>998.730</ele>
<time>2017-04-06T06:13:33.867Z</time>
</trkpt>
<trkpt lat="-29.3389847" lon="151.8932622">
<ele>997.224</ele>
<time>2017-04-06T06:13:35.858Z</time>
</trkpt>
<trkpt lat="-29.3396857" lon="151.8928719">
<ele>994.115</ele>
<time>2017-04-06T06:13:38.861Z</time>
</trkpt>
<trkpt lat="-29.3401749" lon="151.8926908">
<ele>990.508</ele>
<time>2017-04-06T06:13:40.827Z</time>
</trkpt>
<trkpt lat="-29.3409151" lon="151.8924606">
<ele>987.173</ele>
<time>2017-04-06T06:13:43.758Z</time>
</trkpt>
<trkpt lat="-29.3414339" lon="151.8923531">
<ele>980.586</ele>
<time>2017-04-06T06:13:45.779Z</time>
</trkpt>
<trkpt lat="-29.3422127" lon="151.8922617">
<ele>967.981</ele>
<time>2017-04-06T06:13:48.782Z</time>
</trkpt>
<trkpt lat="-29.3430076" lon="151.8922257">
<ele>954.741</ele>
<time>2017-04-06T06:13:51.825Z</time>
</trkpt>
<trkpt lat="-29.3438364" lon="151.8922042">
<ele>947.059</ele>
<time>2017-04-06T06:13:54.986Z</time>
</trkpt>
<trkpt lat="-29.3443413" lon="151.8922074">
<ele>944.333</ele>
<time>2017-04-06T06:13:56.917Z</time>
</trkpt>
<trkpt lat="-29.3451309" lon="151.8922275">
<ele>943.929</ele>
<time>2017-04-06T06:13:59.927Z</time>
</trkpt>
<trkpt lat="-29.3456663" lon="151.8923591">
<ele>943.962</ele>
<time>2017-04-06T06:14:02.004Z</time>
</trkpt>
<trkpt lat="-29.3461567" lon="151.8925428">
<ele>943.788</ele>
<time>2017-04-06T06:14:03.971Z</time>
</trkpt>
<trkpt lat="-29.3468796" lon="151.8928732">
<ele>943.513</ele>
<time>2017-04-06T06:14:06.947Z</time>
</trkpt>
<trkpt lat="-29.3473257" lon="151.8931752">
<ele>943.675</ele>
<time>2017-04-06T06:14:08.931Z</time>
</trkpt>
<trkpt lat="-29.3477536" lon="151.8935262">
<ele>944.830</ele>
<time>2017-04-06T06:14:10.946Z</time>
</trkpt>
<trkpt lat="-29.3483129" lon="151.8941613">
<ele>946.862</ele>
<time>2017-04-06T06:14:13.959Z</time>
</trkpt>
<trkpt lat="-29.3486679" lon="151.8946055">
<ele>948.938</ele>
<time>2017-04-06T06:14:15.965Z</time>
</trkpt>
<trkpt lat="-29.3492117" lon="151.8952457">
<ele>950.370</ele>
<time>2017-04-06T06:14:18.942Z</time>
</trkpt>
<trkpt lat="-29.3497432" lon="151.8959096">
<ele>951.223</ele>
<time>2017-04-06T06:14:21.955Z</time>
</trkpt>
<trkpt lat="-29.3501040" lon="151.8963338">
<ele>951.994</ele>
<time>2017-04-06T06:14:23.982Z</time>
</trkpt>
<trkpt lat="-29.3504774" lon="151.8966992">
<ele>952.780</ele>
<time>2017-04-06T06:14:25.925Z</time>
</trkpt>
<trkpt lat="-29.3511048" lon="151.8971703">
<ele>953.259</ele>
<time>2017-04-06T06:14:28.852Z</time>
</trkpt>
<trkpt lat="-29.3518384" lon="151.8974752">
<ele>953.279</ele>
<time>2017-04-06T06:14:31.838Z</time>
</trkpt>
<trkpt lat="-29.3526166" lon="151.8976323">
<ele>952.945</ele>
<time>2017-04-06T06:14:34.846Z</time>
</trkpt>
<trkpt lat="-29.3533949" lon="151.8976784">
<ele>951.881</ele>
<time>2017-04-06T06:14:37.838Z</time>
</trkpt>
<trkpt lat="-29.3541638" lon="151.8975364">
<ele>949.290</ele>
<time>2017-04-06T06:14:40.844Z</time>
</trkpt>
<trkpt lat="-29.3549292" lon="151.8973674">
<ele>945.371</ele>
<time>2017-04-06T06:14:43.825Z</time>
</trkpt>
<trkpt lat="-29.3557224" lon="151.8972822">
<ele>941.577</ele>
<time>2017-04-06T06:14:46.838Z</time>
</trkpt>
<trkpt lat="-29.3565202" lon="151.8973481">
<ele>939.150</ele>
<time>2017-04-06T06:14:49.852Z</time>
</trkpt>
<trkpt lat="-29.3573114" lon="151.8976060">
<ele>938.292</ele>
<time>2017-04-06T06:14:52.950Z</time>
</trkpt>
<trkpt lat="-29.3578055" lon="151.8978285">
<ele>938.614</ele>
<time>2017-04-06T06:14:54.954Z</time>
</trkpt>
<trkpt lat="-29.3583282" lon="151.8980034">
<ele>939.500</ele>
<time>2017-04-06T06:14:57.000Z</time>
</trkpt>
<trkpt lat="-29.3590368" lon="151.8983473">
<ele>940.224</ele>
<time>2017-04-06T06:14:59.882Z</time>
</trkpt>
<trkpt lat="-29.3595654" lon="151.8985222">
<ele>940.066</ele>
<time>2017-04-06T06:15:01.946Z</time>
</trkpt>
<trkpt lat="-29.3603298" lon="151.8987295">
<ele>938.637</ele>
<time>2017-04-06T06:15:04.915Z</time>
</trkpt>
<trkpt lat="-29.3608499" lon="151.8988192">
<ele>935.940</ele>
<time>2017-04-06T06:15:06.927Z</time>
</trkpt>
<trkpt lat="-29.3616304" lon="151.8988899">
<ele>932.516</ele>
<time>2017-04-06T06:15:09.927Z</time>
</trkpt>
<trkpt lat="-29.3621551" lon="151.8988767">
<ele>929.315</ele>
<time>2017-04-06T06:15:11.926Z</time>
</trkpt>
<trkpt lat="-29.3626785" lon="151.8988587">
<ele>927.083</ele>
<time>2017-04-06T06:15:13.906Z</time>
</trkpt>
<trkpt lat="-29.3634639" lon="151.8988177">
<ele>925.899</ele>
<time>2017-04-06T06:15:16.879Z</time>
</trkpt>
<trkpt lat="-29.3640014" lon="151.8988385">
<ele>925.483</ele>
<time>2017-04-06T06:15:18.910Z</time>
</trkpt>
<trkpt lat="-29.3645322" lon="151.8988200">
<ele>925.499</ele>
<time>2017-04-06T06:15:20.916Z</time>
</trkpt>
<trkpt lat="-29.3650864" lon="151.8987960">
<ele>925.786</ele>
<time>2017-04-06T06:15:23.003Z</time>
</trkpt>
<trkpt lat="-29.3659011" lon="151.8987751">
<ele>926.339</ele>
<time>2017-04-06T06:15:26.048Z</time>
</trkpt>
<trkpt lat="-29.3666828" lon="151.8985362">
<ele>927.015</ele>
<time>2017-04-06T06:15:29.068Z</time>
</trkpt>
<trkpt lat="-29.3674132" lon="151.8981801">
<ele>927.380</ele>
<time>2017-04-06T06:15:32.058Z</time>
</trkpt>
<trkpt lat="-29.3678790" lon="151.8978918">
<ele>926.892</ele>
<time>2017-04-06T06:15:34.073Z</time>
</trkpt>
<trkpt lat="-29.3682649" lon="151.8975057">
<ele>925.487</ele>
<time>2017-04-06T06:15:36.031Z</time>
</trkpt>
<trkpt lat="-29.3688287" lon="151.8968732">
<ele>923.862</ele>
<time>2017-04-06T06:15:39.040Z</time>
</trkpt>
<trkpt lat="-29.3692007" lon="151.8964451">
<ele>922.785</ele>
<time>2017-04-06T06:15:41.032Z</time>
</trkpt>
<trkpt lat="-29.3695989" lon="151.8960364">
<ele>922.434</ele>
<time>2017-04-06T06:15:43.044Z</time>
</trkpt>
<trkpt lat="-29.3699760" lon="151.8955894">
<ele>922.666</ele>
<time>2017-04-06T06:15:45.084Z</time>
</trkpt>
<trkpt lat="-29.3705388" lon="151.8949358">
<ele>923.346</ele>
<time>2017-04-06T06:15:48.106Z</time>
</trkpt>
<trkpt lat="-29.3711102" lon="151.8943079">
<ele>924.319</ele>
<time>2017-04-06T06:15:51.105Z</time>
</trkpt>
<trkpt lat="-29.3717048" lon="151.8937221">
<ele>925.412</ele>
<time>2017-04-06T06:15:54.081Z</time>
</trkpt>
<trkpt lat="-29.3721246" lon="151.8933557">
<ele>926.528</ele>
<time>2017-04-06T06:15:56.087Z</time>
</trkpt>
<trkpt lat="-29.3728298" lon="151.8929648">
<ele>927.577</ele>
<time>2017-04-06T06:15:59.053Z</time>
</trkpt>
<trkpt lat="-29.3733414" lon="151.8927730">
<ele>928.605</ele>
<time>2017-04-06T06:16:01.072Z</time>
</trkpt>
<trkpt lat="-29.3738650" lon="151.8926473">
<ele>929.634</ele>
<time>2017-04-06T06:16:03.085Z</time>
</trkpt>
<trkpt lat="-29.3743919" lon="151.8926037">
<ele>930.388</ele>
<time>2017-04-06T06:16:05.076Z</time>
</trkpt>
<trkpt lat="-29.3751915" lon="151.8926143">
<ele>930.693</ele>
<time>2017-04-06T06:16:08.077Z</time>
</trkpt>
<trkpt lat="-29.3759964" lon="151.8927703">
<ele>930.714</ele>
<time>2017-04-06T06:16:11.123Z</time>
</trkpt>
<trkpt lat="-29.3767662" lon="151.8930387">
<ele>930.475</ele>
<time>2017-04-06T06:16:14.126Z</time>
</trkpt>
<trkpt lat="-29.3772764" lon="151.8931975">
<ele>929.735</ele>
<time>2017-04-06T06:16:16.120Z</time>
</trkpt>
<trkpt lat="-29.3780463" lon="151.8934205">
<ele>928.497</ele>
<time>2017-04-06T06:16:19.126Z</time>
</trkpt>
<trkpt lat="-29.3785688" lon="151.8935304">
<ele>927.146</ele>
<time>2017-04-06T06:16:21.142Z</time>
</trkpt>
<trkpt lat="-29.3793622" lon="151.8935456">
<ele>926.070</ele>
<time>2017-04-06T06:16:24.143Z</time>
</trkpt>
<trkpt lat="-29.3798939" lon="151.8934159">
<ele>925.481</ele>
<time>2017-04-06T06:16:26.186Z</time>
</trkpt>
<trkpt lat="-29.3804071" lon="151.8932358">
<ele>925.369</ele>
<time>2017-04-06T06:16:28.197Z</time>
</trkpt>
<trkpt lat="-29.3809072" lon="151.8929981">
<ele>925.541</ele>
<time>2017-04-06T06:16:30.223Z</time>
</trkpt>
<trkpt lat="-29.3814052" lon="151.8927707">
<ele>925.783</ele>
<time>2017-04-06T06:16:32.229Z</time>
</trkpt>
<trkpt lat="-29.3821281" lon="151.8923795">
<ele>925.915</ele>
<time>2017-04-06T06:16:35.213Z</time>
</trkpt>
<trkpt lat="-29.3828784" lon="151.8920218">
<ele>925.844</ele>
<time>2017-04-06T06:16:38.212Z</time>
</trkpt>
<trkpt lat="-29.3836314" lon="151.8916758">
<ele>925.630</ele>
<time>2017-04-06T06:16:41.200Z</time>
</trkpt>
<trkpt lat="-29.3843638" lon="151.8913308">
<ele>925.596</ele>
<time>2017-04-06T06:16:44.152Z</time>
</trkpt>
<trkpt lat="-29.3848552" lon="151.8910901">
<ele>926.198</ele>
<time>2017-04-06T06:16:46.150Z</time>
</trkpt>
<trkpt lat="-29.3855715" lon="151.8907009">
<ele>927.537</ele>
<time>2017-04-06T06:16:49.108Z</time>
</trkpt>
<trkpt lat="-29.3860630" lon="151.8904543">
<ele>929.160</ele>
<time>2017-04-06T06:16:51.110Z</time>
</trkpt>
<trkpt lat="-29.3868063" lon="151.8900969">
<ele>930.432</ele>
<time>2017-04-06T06:16:54.127Z</time>
</trkpt>
<trkpt lat="-29.3872668" lon="151.8897910">
<ele>930.837</ele>
<time>2017-04-06T06:16:56.140Z</time>
</trkpt>
<trkpt lat="-29.3878858" lon="151.8892455">
<ele>930.339</ele>
<time>2017-04-06T06:16:59.109Z</time>
</trkpt>
<trkpt lat="-29.3883827" lon="151.8885547">
<ele>929.538</ele>
<time>2017-04-06T06:17:02.079Z</time>
</trkpt>
<trkpt lat="-29.3886896" lon="151.8880413">
<ele>929.223</ele>
<time>2017-04-06T06:17:04.130Z</time>
</trkpt>
<trkpt lat="-29.3891273" lon="151.8872905">
<ele>929.694</ele>
<time>2017-04-06T06:17:07.104Z</time>
</trkpt>
<trkpt lat="-29.3894105" lon="151.8867791">
<ele>930.535</ele>
<time>2017-04-06T06:17:09.095Z</time>
</trkpt>
<trkpt lat="-29.3898332" lon="151.8859999">
<ele>931.061</ele>
<time>2017-04-06T06:17:12.112Z</time>
</trkpt>
<trkpt lat="-29.3901359" lon="151.8855078">
<ele>931.034</ele>
<time>2017-04-06T06:17:14.100Z</time>
</trkpt>
<trkpt lat="-29.3906194" lon="151.8847917">
<ele>930.712</ele>
<time>2017-04-06T06:17:17.099Z</time>
</trkpt>
<trkpt lat="-29.3908893" lon="151.8842787">
<ele>930.622</ele>
<time>2017-04-06T06:17:19.088Z</time>
</trkpt>
<trkpt lat="-29.3913709" lon="151.8835615">
<ele>931.247</ele>
<time>2017-04-06T06:17:22.084Z</time>
</trkpt>
<trkpt lat="-29.3917030" lon="151.8830860">
<ele>932.758</ele>
<time>2017-04-06T06:17:24.090Z</time>
</trkpt>
<trkpt lat="-29.3920562" lon="151.8826281">
<ele>934.830</ele>
<time>2017-04-06T06:17:26.102Z</time>
</trkpt>
<trkpt lat="-29.3925283" lon="151.8819009">
<ele>936.857</ele>
<time>2017-04-06T06:17:29.085Z</time>
</trkpt>
<trkpt lat="-29.3930652" lon="151.8812010">
<ele>938.579</ele>
<time>2017-04-06T06:17:32.148Z</time>
</trkpt>
<trkpt lat="-29.3936674" lon="151.8805796">
<ele>940.201</ele>
<time>2017-04-06T06:17:35.197Z</time>
</trkpt>
<trkpt lat="-29.3942876" lon="151.8800092">
<ele>941.916</ele>
<time>2017-04-06T06:17:38.181Z</time>
</trkpt>
<trkpt lat="-29.3946851" lon="151.8795924">
<ele>943.680</ele>
<time>2017-04-06T06:17:40.197Z</time>
</trkpt>
<trkpt lat="-29.3950921" lon="151.8792013">
<ele>945.222</ele>
<time>2017-04-06T06:17:42.191Z</time>
</trkpt>
<trkpt lat="-29.3957117" lon="151.8786291">
<ele>946.229</ele>
<time>2017-04-06T06:17:45.183Z</time>
</trkpt>
<trkpt lat="-29.3961405" lon="151.8782635">
<ele>946.569</ele>
<time>2017-04-06T06:17:47.189Z</time>
</trkpt>
<trkpt lat="-29.3967061" lon="151.8776165">
<ele>946.301</ele>
<time>2017-04-06T06:17:50.187Z</time>
</trkpt>
<trkpt lat="-29.3970972" lon="151.8772144">
<ele>945.514</ele>
<time>2017-04-06T06:17:52.159Z</time>
</trkpt>
<trkpt lat="-29.3977237" lon="151.8766477">
<ele>944.445</ele>
<time>2017-04-06T06:17:55.184Z</time>
</trkpt>
<trkpt lat="-29.3983366" lon="151.8761097">
<ele>943.346</ele>
<time>2017-04-06T06:17:58.174Z</time>
</trkpt>
<trkpt lat="-29.3989117" lon="151.8755559">
<ele>941.921</ele>
<time>2017-04-06T06:18:01.097Z</time>
</trkpt>
<trkpt lat="-29.3995370" lon="151.8750310">
<ele>939.937</ele>
<time>2017-04-06T06:18:04.064Z</time>
</trkpt>
<trkpt lat="-29.4001877" lon="151.8745042">
<ele>938.079</ele>
<time>2017-04-06T06:18:07.068Z</time>
</trkpt>
<trkpt lat="-29.4008655" lon="151.8740127">
<ele>937.151</ele>
<time>2017-04-06T06:18:10.090Z</time>
</trkpt>
<trkpt lat="-29.4015377" lon="151.8735450">
<ele>937.266</ele>
<time>2017-04-06T06:18:13.065Z</time>
</trkpt>
<trkpt lat="-29.4020175" lon="151.8732875">
<ele>938.102</ele>
<time>2017-04-06T06:18:15.059Z</time>
</trkpt>
<trkpt lat="-29.4027193" lon="151.8728442">
<ele>939.221</ele>
<time>2017-04-06T06:18:18.056Z</time>
</trkpt>
<trkpt lat="-29.4031775" lon="151.8725217">
<ele>940.280</ele>
<time>2017-04-06T06:18:20.049Z</time>
</trkpt>
<trkpt lat="-29.4039060" lon="151.8721107">
<ele>941.157</ele>
<time>2017-04-06T06:18:23.042Z</time>
</trkpt>
<trkpt lat="-29.4046213" lon="151.8716528">
<ele>941.821</ele>
<time>2017-04-06T06:18:26.040Z</time>
</trkpt>
<trkpt lat="-29.4050987" lon="151.8713487">
<ele>942.253</ele>
<time>2017-04-06T06:18:28.030Z</time>
</trkpt>
<trkpt lat="-29.4055673" lon="151.8710210">
<ele>942.484</ele>
<time>2017-04-06T06:18:30.031Z</time>
</trkpt>
<trkpt lat="-29.4062875" lon="151.8705724">
<ele>942.524</ele>
<time>2017-04-06T06:18:33.030Z</time>
</trkpt>
<trkpt lat="-29.4067664" lon="151.8702808">
<ele>942.326</ele>
<time>2017-04-06T06:18:35.023Z</time>
</trkpt>
<trkpt lat="-29.4074580" lon="151.8697853">
<ele>941.880</ele>
<time>2017-04-06T06:18:38.026Z</time>
</trkpt>
<trkpt lat="-29.4078994" lon="151.8694184">
<ele>941.267</ele>
<time>2017-04-06T06:18:40.038Z</time>
</trkpt>
<trkpt lat="-29.4083716" lon="151.8691213">
<ele>940.638</ele>
<time>2017-04-06T06:18:42.025Z</time>
</trkpt>
<trkpt lat="-29.4090664" lon="151.8686375">
<ele>940.130</ele>
<time>2017-04-06T06:18:45.023Z</time>
</trkpt>
<trkpt lat="-29.4095288" lon="151.8683203">
<ele>939.775</ele>
<time>2017-04-06T06:18:47.021Z</time>
</trkpt>
<trkpt lat="-29.4099993" lon="151.8680301">
<ele>939.467</ele>
<time>2017-04-06T06:18:49.009Z</time>
</trkpt>
<trkpt lat="-29.4104533" lon="151.8677029">
<ele>939.081</ele>
<time>2017-04-06T06:18:51.000Z</time>
</trkpt>
<trkpt lat="-29.4111678" lon="151.8672745">
<ele>938.668</ele>
<time>2017-04-06T06:18:53.988Z</time>
</trkpt>
<trkpt lat="-29.4116333" lon="151.8669571">
<ele>938.464</ele>
<time>2017-04-06T06:18:55.994Z</time>
</trkpt>
<trkpt lat="-29.4123519" lon="151.8665400">
<ele>938.558</ele>
<time>2017-04-06T06:18:58.979Z</time>
</trkpt>
<trkpt lat="-29.4128237" lon="151.8662466">
<ele>938.801</ele>
<time>2017-04-06T06:19:00.973Z</time>
</trkpt>
<trkpt lat="-29.4135369" lon="151.8658261">
<ele>939.082</ele>
<time>2017-04-06T06:19:03.963Z</time>
</trkpt>
<trkpt lat="-29.4140033" lon="151.8655405">
<ele>939.445</ele>
<time>2017-04-06T06:19:05.936Z</time>
</trkpt>
<trkpt lat="-29.4144916" lon="151.8652841">
<ele>939.914</ele>
<time>2017-04-06T06:19:07.930Z</time>
</trkpt>
<trkpt lat="-29.4149795" lon="151.8650143">
<ele>940.410</ele>
<time>2017-04-06T06:19:09.934Z</time>
</trkpt>
<trkpt lat="-29.4157115" lon="151.8646123">
<ele>940.795</ele>
<time>2017-04-06T06:19:12.939Z</time>
</trkpt>
<trkpt lat="-29.4164199" lon="151.8641631">
<ele>940.962</ele>
<time>2017-04-06T06:19:15.937Z</time>
</trkpt>
<trkpt lat="-29.4169109" lon="151.8639021">
<ele>940.873</ele>
<time>2017-04-06T06:19:17.940Z</time>
</trkpt>
<trkpt lat="-29.4173909" lon="151.8636308">
<ele>940.502</ele>
<time>2017-04-06T06:19:19.918Z</time>
</trkpt>
<trkpt lat="-29.4180854" lon="151.8631552">
<ele>939.834</ele>
<time>2017-04-06T06:19:22.904Z</time>
</trkpt>
<trkpt lat="-29.4187883" lon="151.8626900">
<ele>938.926</ele>
<time>2017-04-06T06:19:25.902Z</time>
</trkpt>
<trkpt lat="-29.4195044" lon="151.8622579">
<ele>937.914</ele>
<time>2017-04-06T06:19:28.893Z</time>
</trkpt>
<trkpt lat="-29.4199702" lon="151.8619458">
<ele>936.956</ele>
<time>2017-04-06T06:19:30.894Z</time>
</trkpt>
<trkpt lat="-29.4206754" lon="151.8615065">
<ele>936.224</ele>
<time>2017-04-06T06:19:33.876Z</time>
</trkpt>
<trkpt lat="-29.4211467" lon="151.8612150">
<ele>935.975</ele>
<time>2017-04-06T06:19:35.864Z</time>
</trkpt>
<trkpt lat="-29.4216344" lon="151.8609314">
<ele>936.352</ele>
<time>2017-04-06T06:19:37.890Z</time>
</trkpt>
<trkpt lat="-29.4223399" lon="151.8604765">
<ele>937.229</ele>
<time>2017-04-06T06:19:40.892Z</time>
</trkpt>
<trkpt lat="-29.4227988" lon="151.8601721">
<ele>938.495</ele>
<time>2017-04-06T06:19:42.862Z</time>
</trkpt>
<trkpt lat="-29.4234999" lon="151.8597210">
<ele>940.009</ele>
<time>2017-04-06T06:19:45.847Z</time>
</trkpt>
<trkpt lat="-29.4239568" lon="151.8593882">
<ele>941.446</ele>
<time>2017-04-06T06:19:47.845Z</time>
</trkpt>
<trkpt lat="-29.4246875" lon="151.8589759">
<ele>942.545</ele>
<time>2017-04-06T06:19:50.850Z</time>
</trkpt>
<trkpt lat="-29.4251581" lon="151.8586691">
<ele>943.294</ele>
<time>2017-04-06T06:19:52.854Z</time>
</trkpt>
<trkpt lat="-29.4258618" lon="151.8582108">
<ele>943.841</ele>
<time>2017-04-06T06:19:55.856Z</time>
</trkpt>
<trkpt lat="-29.4263289" lon="151.8579166">
<ele>944.384</ele>
<time>2017-04-06T06:19:57.832Z</time>
</trkpt>
<trkpt lat="-29.4270333" lon="151.8574602">
<ele>945.021</ele>
<time>2017-04-06T06:20:00.826Z</time>
</trkpt>
<trkpt lat="-29.4275003" lon="151.8571515">
<ele>945.776</ele>
<time>2017-04-06T06:20:02.813Z</time>
</trkpt>
<trkpt lat="-29.4282084" lon="151.8566913">
<ele>946.582</ele>
<time>2017-04-06T06:20:05.805Z</time>
</trkpt>
<trkpt lat="-29.4289068" lon="151.8562125">
<ele>947.303</ele>
<time>2017-04-06T06:20:08.790Z</time>
</trkpt>
<trkpt lat="-29.4296108" lon="151.8557439">
<ele>947.811</ele>
<time>2017-04-06T06:20:11.788Z</time>
</trkpt>
<trkpt lat="-29.4303210" lon="151.8553053">
<ele>947.999</ele>
<time>2017-04-06T06:20:14.772Z</time>
</trkpt>
<trkpt lat="-29.4307807" lon="151.8549846">
<ele>947.883</ele>
<time>2017-04-06T06:20:16.762Z</time>
</trkpt>
<trkpt lat="-29.4312434" lon="151.8546678">
<ele>947.634</ele>
<time>2017-04-06T06:20:18.782Z</time>
</trkpt>
<trkpt lat="-29.4316943" lon="151.8543670">
<ele>947.338</ele>
<time>2017-04-06T06:20:20.864Z</time>
</trkpt>
<trkpt lat="-29.4323209" lon="151.8540205">
<ele>946.851</ele>
<time>2017-04-06T06:20:23.870Z</time>
</trkpt>
<trkpt lat="-29.4326731" lon="151.8538112">
<ele>945.785</ele>
<time>2017-04-06T06:20:25.849Z</time>
</trkpt>
<trkpt lat="-29.4329973" lon="151.8536035">
<ele>943.971</ele>
<time>2017-04-06T06:20:27.843Z</time>
</trkpt>
<trkpt lat="-29.4334650" lon="151.8533033">
<ele>941.879</ele>
<time>2017-04-06T06:20:30.830Z</time>
</trkpt>
<trkpt lat="-29.4337512" lon="151.8530940">
<ele>940.010</ele>
<time>2017-04-06T06:20:32.816Z</time>
</trkpt>
<trkpt lat="-29.4339299" lon="151.8527847">
<ele>938.477</ele>
<time>2017-04-06T06:20:34.760Z</time>
</trkpt>
<trkpt lat="-29.4340965" lon="151.8522625">
<ele>937.352</ele>
<time>2017-04-06T06:20:37.700Z</time>
</trkpt>
<trkpt lat="-29.4341958" lon="151.8518947">
<ele>936.643</ele>
<time>2017-04-06T06:20:39.738Z</time>
</trkpt>
<trkpt lat="-29.4343726" lon="151.8513724">
<ele>936.224</ele>
<time>2017-04-06T06:20:42.708Z</time>
</trkpt>
<trkpt lat="-29.4344458" lon="151.8510108">
<ele>935.985</ele>
<time>2017-04-06T06:20:44.740Z</time>
</trkpt>
<trkpt lat="-29.4345262" lon="151.8504972">
<ele>935.817</ele>
<time>2017-04-06T06:20:47.756Z</time>
</trkpt>
<trkpt lat="-29.4346085" lon="151.8500367">
<ele>935.529</ele>
<time>2017-04-06T06:20:50.752Z</time>
</trkpt>
<trkpt lat="-29.4347046" lon="151.8496320">
<ele>934.902</ele>
<time>2017-04-06T06:20:53.663Z</time>
</trkpt>
<trkpt lat="-29.4347012" lon="151.8493509">
<ele>933.890</ele>
<time>2017-04-06T06:20:55.695Z</time>
</trkpt>
<trkpt lat="-29.4347478" lon="151.8490816">
<ele>932.751</ele>
<time>2017-04-06T06:20:57.659Z</time>
</trkpt>
<trkpt lat="-29.4348940" lon="151.8486844">
<ele>931.853</ele>
<time>2017-04-06T06:21:00.681Z</time>
</trkpt>
<trkpt lat="-29.4350114" lon="151.8482671">
<ele>931.327</ele>
<time>2017-04-06T06:21:03.670Z</time>
</trkpt>
<trkpt lat="-29.4350916" lon="151.8479862">
<ele>931.005</ele>
<time>2017-04-06T06:21:05.694Z</time>
</trkpt>
<trkpt lat="-29.4352314" lon="151.8477594">
<ele>930.718</ele>
<time>2017-04-06T06:21:07.632Z</time>
</trkpt>
<trkpt lat="-29.4355093" lon="151.8474704">
<ele>930.470</ele>
<time>2017-04-06T06:21:10.659Z</time>
</trkpt>
<trkpt lat="-29.4356972" lon="151.8472894">
<ele>930.316</ele>
<time>2017-04-06T06:21:12.666Z</time>
</trkpt>
<trkpt lat="-29.4359232" lon="151.8471937">
<ele>930.277</ele>
<time>2017-04-06T06:21:14.629Z</time>
</trkpt>
<trkpt lat="-29.4363124" lon="151.8471895">
<ele>930.339</ele>
<time>2017-04-06T06:21:17.771Z</time>
</trkpt>
<trkpt lat="-29.4365572" lon="151.8471193">
<ele>930.462</ele>
<time>2017-04-06T06:21:19.788Z</time>
</trkpt>
<trkpt lat="-29.4367948" lon="151.8470527">
<ele>930.611</ele>
<time>2017-04-06T06:21:21.727Z</time>
</trkpt>
<trkpt lat="-29.4373053" lon="151.8470112">
<ele>930.750</ele>
<time>2017-04-06T06:21:25.733Z</time>
</trkpt>
<trkpt lat="-29.4374820" lon="151.8469663">
<ele>930.824</ele>
<time>2017-04-06T06:21:27.132Z</time>
</trkpt>
<trkpt lat="-29.4378777" lon="151.8469181">
<ele>930.792</ele>
<time>2017-04-06T06:21:30.218Z</time>
</trkpt>
<trkpt lat="-29.4381297" lon="151.8469074">
<ele>930.667</ele>
<time>2017-04-06T06:21:32.197Z</time>
</trkpt>
<trkpt lat="-29.4383709" lon="151.8468644">
<ele>930.496</ele>
<time>2017-04-06T06:21:34.128Z</time>
</trkpt>
<trkpt lat="-29.4387395" lon="151.8467896">
<ele>930.318</ele>
<time>2017-04-06T06:21:37.098Z</time>
</trkpt>
<trkpt lat="-29.4389763" lon="151.8467086">
<ele>930.171</ele>
<time>2017-04-06T06:21:39.060Z</time>
</trkpt>
<trkpt lat="-29.4392194" lon="151.8466414">
<ele>930.098</ele>
<time>2017-04-06T06:21:41.050Z</time>
</trkpt>
<trkpt lat="-29.4395953" lon="151.8465771">
<ele>930.103</ele>
<time>2017-04-06T06:21:44.074Z</time>
</trkpt>
<trkpt lat="-29.4398269" lon="151.8465152">
<ele>930.168</ele>
<time>2017-04-06T06:21:45.956Z</time>
</trkpt>
<trkpt lat="-29.4400790" lon="151.8464668">
<ele>930.305</ele>
<time>2017-04-06T06:21:47.988Z</time>
</trkpt>
<trkpt lat="-29.4404390" lon="151.8463928">
<ele>930.538</ele>
<time>2017-04-06T06:21:50.909Z</time>
</trkpt>
<trkpt lat="-29.4406939" lon="151.8463673">
<ele>930.852</ele>
<time>2017-04-06T06:21:52.954Z</time>
</trkpt>
<trkpt lat="-29.4409360" lon="151.8463286">
<ele>931.202</ele>
<time>2017-04-06T06:21:54.904Z</time>
</trkpt>
<trkpt lat="-29.4413205" lon="151.8462863">
<ele>931.558</ele>
<time>2017-04-06T06:21:57.980Z</time>
</trkpt>
<trkpt lat="-29.4415893" lon="151.8462745">
<ele>931.976</ele>
<time>2017-04-06T06:22:00.117Z</time>
</trkpt>
<trkpt lat="-29.4419762" lon="151.8462134">
<ele>932.519</ele>
<time>2017-04-06T06:22:03.212Z</time>
</trkpt>
<trkpt lat="-29.4423438" lon="151.8461401">
<ele>933.270</ele>
<time>2017-04-06T06:22:06.157Z</time>
</trkpt>
<trkpt lat="-29.4427178" lon="151.8460945">
<ele>934.316</ele>
<time>2017-04-06T06:22:09.109Z</time>
</trkpt>
<trkpt lat="-29.4430945" lon="151.8460098">
<ele>935.537</ele>
<time>2017-04-06T06:22:12.106Z</time>
</trkpt>
<trkpt lat="-29.4433471" lon="151.8459445">
<ele>936.554</ele>
<time>2017-04-06T06:22:14.116Z</time>
</trkpt>
<trkpt lat="-29.4435815" lon="151.8458117">
<ele>937.071</ele>
<time>2017-04-06T06:22:16.149Z</time>
</trkpt>
<trkpt lat="-29.4439010" lon="151.8455743">
<ele>937.049</ele>
<time>2017-04-06T06:22:19.123Z</time>
</trkpt>
<trkpt lat="-29.4441158" lon="151.8454238">
<ele>936.574</ele>
<time>2017-04-06T06:22:21.106Z</time>
</trkpt>
<trkpt lat="-29.4444217" lon="151.8451744">
<ele>935.798</ele>
<time>2017-04-06T06:22:24.062Z</time>
</trkpt>
<trkpt lat="-29.4446062" lon="151.8449762">
<ele>934.869</ele>
<time>2017-04-06T06:22:25.900Z</time>
</trkpt>
<trkpt lat="-29.4449000" lon="151.8446194">
<ele>933.897</ele>
<time>2017-04-06T06:22:28.726Z</time>
</trkpt>
<trkpt lat="-29.4451636" lon="151.8443140">
<ele>933.112</ele>
<time>2017-04-06T06:22:30.667Z</time>
</trkpt>
<trkpt lat="-29.4456598" lon="151.8437919">
<ele>932.845</ele>
<time>2017-04-06T06:22:33.717Z</time>
</trkpt>
<trkpt lat="-29.4461905" lon="151.8431593">
<ele>933.414</ele>
<time>2017-04-06T06:22:36.775Z</time>
</trkpt>
<trkpt lat="-29.4465941" lon="151.8427533">
<ele>935.001</ele>
<time>2017-04-06T06:22:38.780Z</time>
</trkpt>
<trkpt lat="-29.4470274" lon="151.8423784">
<ele>937.247</ele>
<time>2017-04-06T06:22:40.815Z</time>
</trkpt>
<trkpt lat="-29.4476797" lon="151.8418883">
<ele>939.381</ele>
<time>2017-04-06T06:22:43.793Z</time>
</trkpt>
<trkpt lat="-29.4481854" lon="151.8417523">
<ele>940.963</ele>
<time>2017-04-06T06:22:45.802Z</time>
</trkpt>
<trkpt lat="-29.4489512" lon="151.8415567">
<ele>942.074</ele>
<time>2017-04-06T06:22:48.826Z</time>
</trkpt>
<trkpt lat="-29.4497337" lon="151.8414779">
<ele>942.911</ele>
<time>2017-04-06T06:22:51.839Z</time>
</trkpt>
<trkpt lat="-29.4505357" lon="151.8415302">
<ele>943.626</ele>
<time>2017-04-06T06:22:54.903Z</time>
</trkpt>
<trkpt lat="-29.4513282" lon="151.8416013">
<ele>944.312</ele>
<time>2017-04-06T06:22:57.908Z</time>
</trkpt>
<trkpt lat="-29.4518587" lon="151.8416359">
<ele>944.958</ele>
<time>2017-04-06T06:22:59.897Z</time>
</trkpt>
<trkpt lat="-29.4524046" lon="151.8416980">
<ele>945.526</ele>
<time>2017-04-06T06:23:01.943Z</time>
</trkpt>
<trkpt lat="-29.4529502" lon="151.8417466">
<ele>945.994</ele>
<time>2017-04-06T06:23:04.000Z</time>
</trkpt>
<trkpt lat="-29.4536900" lon="151.8418542">
<ele>946.348</ele>
<time>2017-04-06T06:23:06.817Z</time>
</trkpt>
<trkpt lat="-29.4542008" lon="151.8419663">
<ele>946.626</ele>
<time>2017-04-06T06:23:08.769Z</time>
</trkpt>
<trkpt lat="-29.4548573" lon="151.8421094">
<ele>946.895</ele>
<time>2017-04-06T06:23:11.260Z</time>
</trkpt>
<trkpt lat="-29.4556375" lon="151.8422457">
<ele>947.177</ele>
<time>2017-04-06T06:23:14.209Z</time>
</trkpt>
<trkpt lat="-29.4561548" lon="151.8423327">
<ele>947.552</ele>
<time>2017-04-06T06:23:16.166Z</time>
</trkpt>
<trkpt lat="-29.4569823" lon="151.8424411">
<ele>948.083</ele>
<time>2017-04-06T06:23:19.290Z</time>
</trkpt>
<trkpt lat="-29.4577488" lon="151.8426159">
<ele>948.727</ele>
<time>2017-04-06T06:23:22.231Z</time>
</trkpt>
<trkpt lat="-29.4585356" lon="151.8428000">
<ele>949.652</ele>
<time>2017-04-06T06:23:25.250Z</time>
</trkpt>
<trkpt lat="-29.4590592" lon="151.8429065">
<ele>951.320</ele>
<time>2017-04-06T06:23:27.248Z</time>
</trkpt>
<trkpt lat="-29.4598507" lon="151.8430579">
<ele>953.815</ele>
<time>2017-04-06T06:23:30.277Z</time>
</trkpt>
<trkpt lat="-29.4606297" lon="151.8431807">
<ele>956.693</ele>
<time>2017-04-06T06:23:33.266Z</time>
</trkpt>
<trkpt lat="-29.4614053" lon="151.8432947">
<ele>959.315</ele>
<time>2017-04-06T06:23:36.299Z</time>
</trkpt>
<trkpt lat="-29.4618922" lon="151.8433814">
<ele>961.058</ele>
<time>2017-04-06T06:23:38.312Z</time>
</trkpt>
<trkpt lat="-29.4623499" lon="151.8434470">
<ele>961.624</ele>
<time>2017-04-06T06:23:40.271Z</time>
</trkpt>
<trkpt lat="-29.4627955" lon="151.8435471">
<ele>961.356</ele>
<time>2017-04-06T06:23:42.231Z</time>
</trkpt>
<trkpt lat="-29.4634465" lon="151.8437809">
<ele>960.889</ele>
<time>2017-04-06T06:23:45.169Z</time>
</trkpt>
<trkpt lat="-29.4638595" lon="151.8440245">
<ele>960.782</ele>
<time>2017-04-06T06:23:47.143Z</time>
</trkpt>
<trkpt lat="-29.4643967" lon="151.8445555">
<ele>961.283</ele>
<time>2017-04-06T06:23:50.117Z</time>
</trkpt>
<trkpt lat="-29.4647129" lon="151.8449751">
<ele>962.473</ele>
<time>2017-04-06T06:23:52.105Z</time>
</trkpt>
<trkpt lat="-29.4649943" lon="151.8454314">
<ele>964.238</ele>
<time>2017-04-06T06:23:54.081Z</time>
</trkpt>
<trkpt lat="-29.4653580" lon="151.8461724">
<ele>966.163</ele>
<time>2017-04-06T06:23:57.051Z</time>
</trkpt>
<trkpt lat="-29.4657635" lon="151.8469612">
<ele>967.828</ele>
<time>2017-04-06T06:24:00.201Z</time>
</trkpt>
<trkpt lat="-29.4660233" lon="151.8474631">
<ele>969.145</ele>
<time>2017-04-06T06:24:02.210Z</time>
</trkpt>
<trkpt lat="-29.4663152" lon="151.8479278">
<ele>970.161</ele>
<time>2017-04-06T06:24:04.217Z</time>
</trkpt>
<trkpt lat="-29.4667238" lon="151.8486251">
<ele>971.084</ele>
<time>2017-04-06T06:24:07.194Z</time>
</trkpt>
<trkpt lat="-29.4672163" lon="151.8492560">
<ele>972.416</ele>
<time>2017-04-06T06:24:10.167Z</time>
</trkpt>
<trkpt lat="-29.4676182" lon="151.8496232">
<ele>974.476</ele>
<time>2017-04-06T06:24:12.187Z</time>
</trkpt>
<trkpt lat="-29.4680833" lon="151.8498858">
<ele>976.666</ele>
<time>2017-04-06T06:24:14.208Z</time>
</trkpt>
<trkpt lat="-29.4685350" lon="151.8501702">
<ele>978.015</ele>
<time>2017-04-06T06:24:16.211Z</time>
</trkpt>
<trkpt lat="-29.4689877" lon="151.8504451">
<ele>978.238</ele>
<time>2017-04-06T06:24:18.206Z</time>
</trkpt>
<trkpt lat="-29.4697063" lon="151.8507535">
<ele>977.659</ele>
<time>2017-04-06T06:24:21.171Z</time>
</trkpt>
<trkpt lat="-29.4702118" lon="151.8508985">
<ele>976.725</ele>
<time>2017-04-06T06:24:23.150Z</time>
</trkpt>
<trkpt lat="-29.4707862" lon="151.8510046">
<ele>975.800</ele>
<time>2017-04-06T06:24:25.352Z</time>
</trkpt>
<trkpt lat="-29.4713106" lon="151.8511205">
<ele>975.029</ele>
<time>2017-04-06T06:24:27.374Z</time>
</trkpt>
<trkpt lat="-29.4718289" lon="151.8512580">
<ele>974.349</ele>
<time>2017-04-06T06:24:29.389Z</time>
</trkpt>
<trkpt lat="-29.4723358" lon="151.8513691">
<ele>973.556</ele>
<time>2017-04-06T06:24:31.346Z</time>
</trkpt>
<trkpt lat="-29.4731091" lon="151.8515540">
<ele>972.483</ele>
<time>2017-04-06T06:24:34.348Z</time>
</trkpt>
<trkpt lat="-29.4736201" lon="151.8516934">
<ele>971.040</ele>
<time>2017-04-06T06:24:36.352Z</time>
</trkpt>
<trkpt lat="-29.4743762" lon="151.8519173">
<ele>969.357</ele>
<time>2017-04-06T06:24:39.329Z</time>
</trkpt>
<trkpt lat="-29.4748696" lon="151.8521097">
<ele>967.869</ele>
<time>2017-04-06T06:24:41.307Z</time>
</trkpt>
<trkpt lat="-29.4753736" lon="151.8522904">
<ele>966.870</ele>
<time>2017-04-06T06:24:43.311Z</time>
</trkpt>
<trkpt lat="-29.4761380" lon="151.8525025">
<ele>966.283</ele>
<time>2017-04-06T06:24:46.300Z</time>
</trkpt>
<trkpt lat="-29.4766418" lon="151.8526578">
<ele>965.996</ele>
<time>2017-04-06T06:24:48.283Z</time>
</trkpt>
<trkpt lat="-29.4773983" lon="151.8528966">
<ele>965.945</ele>
<time>2017-04-06T06:24:51.258Z</time>
</trkpt>
<trkpt lat="-29.4779222" lon="151.8530026">
<ele>966.081</ele>
<time>2017-04-06T06:24:53.276Z</time>
</trkpt>
<trkpt lat="-29.4787063" lon="151.8531147">
<ele>966.351</ele>
<time>2017-04-06T06:24:56.283Z</time>
</trkpt>
<trkpt lat="-29.4792230" lon="151.8531012">
<ele>966.734</ele>
<time>2017-04-06T06:24:58.256Z</time>
</trkpt>
<trkpt lat="-29.4800022" lon="151.8531062">
<ele>967.242</ele>
<time>2017-04-06T06:25:01.230Z</time>
</trkpt>
<trkpt lat="-29.4807905" lon="151.8531152">
<ele>967.878</ele>
<time>2017-04-06T06:25:04.232Z</time>
</trkpt>
<trkpt lat="-29.4815774" lon="151.8531670">
<ele>968.581</ele>
<time>2017-04-06T06:25:07.233Z</time>
</trkpt>
<trkpt lat="-29.4821033" lon="151.8531388">
<ele>969.217</ele>
<time>2017-04-06T06:25:09.239Z</time>
</trkpt>
<trkpt lat="-29.4826250" lon="151.8531263">
<ele>969.685</ele>
<time>2017-04-06T06:25:11.223Z</time>
</trkpt>
<trkpt lat="-29.4834037" lon="151.8532723">
<ele>970.031</ele>
<time>2017-04-06T06:25:14.214Z</time>
</trkpt>
<trkpt lat="-29.4841770" lon="151.8534492">
<ele>970.370</ele>
<time>2017-04-06T06:25:17.192Z</time>
</trkpt>
<trkpt lat="-29.4846581" lon="151.8537079">
<ele>970.815</ele>
<time>2017-04-06T06:25:19.201Z</time>
</trkpt>
<trkpt lat="-29.4853458" lon="151.8541493">
<ele>971.423</ele>
<time>2017-04-06T06:25:22.192Z</time>
</trkpt>
<trkpt lat="-29.4857432" lon="151.8545473">
<ele>972.177</ele>
<time>2017-04-06T06:25:24.193Z</time>
</trkpt>
<trkpt lat="-29.4863078" lon="151.8551883">
<ele>972.969</ele>
<time>2017-04-06T06:25:27.206Z</time>
</trkpt>
<trkpt lat="-29.4868622" lon="151.8558253">
<ele>973.616</ele>
<time>2017-04-06T06:25:30.189Z</time>
</trkpt>
<trkpt lat="-29.4872324" lon="151.8562527">
<ele>974.013</ele>
<time>2017-04-06T06:25:32.186Z</time>
</trkpt>
<trkpt lat="-29.4876255" lon="151.8566511">
<ele>974.290</ele>
<time>2017-04-06T06:25:34.181Z</time>
</trkpt>
<trkpt lat="-29.4880134" lon="151.8570635">
<ele>974.671</ele>
<time>2017-04-06T06:25:36.191Z</time>
</trkpt>
<trkpt lat="-29.4884399" lon="151.8574153">
<ele>975.295</ele>
<time>2017-04-06T06:25:38.183Z</time>
</trkpt>
<trkpt lat="-29.4890921" lon="151.8579415">
<ele>976.194</ele>
<time>2017-04-06T06:25:41.202Z</time>
</trkpt>
<trkpt lat="-29.4895314" lon="151.8582764">
<ele>977.349</ele>
<time>2017-04-06T06:25:43.199Z</time>
</trkpt>
<trkpt lat="-29.4899829" lon="151.8585876">
<ele>978.637</ele>
<time>2017-04-06T06:25:45.204Z</time>
</trkpt>
<trkpt lat="-29.4906393" lon="151.8590845">
<ele>979.808</ele>
<time>2017-04-06T06:25:48.205Z</time>
</trkpt>
<trkpt lat="-29.4912604" lon="151.8596277">
<ele>980.708</ele>
<time>2017-04-06T06:25:51.180Z</time>
</trkpt>
<trkpt lat="-29.4916818" lon="151.8599926">
<ele>981.433</ele>
<time>2017-04-06T06:25:53.182Z</time>
</trkpt>
<trkpt lat="-29.4920774" lon="151.8603882">
<ele>982.149</ele>
<time>2017-04-06T06:25:55.165Z</time>
</trkpt>
<trkpt lat="-29.4926816" lon="151.8609739">
<ele>983.005</ele>
<time>2017-04-06T06:25:58.139Z</time>
</trkpt>
<trkpt lat="-29.4933498" lon="151.8614853">
<ele>984.200</ele>
<time>2017-04-06T06:26:01.157Z</time>
</trkpt>
<trkpt lat="-29.4938052" lon="151.8617918">
<ele>985.746</ele>
<time>2017-04-06T06:26:03.160Z</time>
</trkpt>
<trkpt lat="-29.4945519" lon="151.8620674">
<ele>987.276</ele>
<time>2017-04-06T06:26:06.145Z</time>
</trkpt>
<trkpt lat="-29.4953130" lon="151.8622858">
<ele>988.443</ele>
<time>2017-04-06T06:26:09.142Z</time>
</trkpt>
<trkpt lat="-29.4958233" lon="151.8623809">
<ele>989.178</ele>
<time>2017-04-06T06:26:11.117Z</time>
</trkpt>
<trkpt lat="-29.4966090" lon="151.8623590">
<ele>989.533</ele>
<time>2017-04-06T06:26:14.109Z</time>
</trkpt>
<trkpt lat="-29.4973960" lon="151.8622814">
<ele>989.661</ele>
<time>2017-04-06T06:26:17.120Z</time>
</trkpt>
<trkpt lat="-29.4981701" lon="151.8621836">
<ele>989.819</ele>
<time>2017-04-06T06:26:20.099Z</time>
</trkpt>
<trkpt lat="-29.4989498" lon="151.8621034">
<ele>990.322</ele>
<time>2017-04-06T06:26:23.089Z</time>
</trkpt>
<trkpt lat="-29.4997307" lon="151.8620081">
<ele>991.389</ele>
<time>2017-04-06T06:26:26.078Z</time>
</trkpt>
<trkpt lat="-29.5002584" lon="151.8619404">
<ele>992.885</ele>
<time>2017-04-06T06:26:28.094Z</time>
</trkpt>
<trkpt lat="-29.5010431" lon="151.8618715">
<ele>994.405</ele>
<time>2017-04-06T06:26:31.087Z</time>
</trkpt>
<trkpt lat="-29.5018254" lon="151.8617772">
<ele>995.733</ele>
<time>2017-04-06T06:26:34.075Z</time>
</trkpt>
<trkpt lat="-29.5023478" lon="151.8616883">
<ele>996.983</ele>
<time>2017-04-06T06:26:36.070Z</time>
</trkpt>
<trkpt lat="-29.5028727" lon="151.8616273">
<ele>998.307</ele>
<time>2017-04-06T06:26:38.063Z</time>
</trkpt>
<trkpt lat="-29.5036644" lon="151.8615664">
<ele>999.743</ele>
<time>2017-04-06T06:26:41.058Z</time>
</trkpt>
<trkpt lat="-29.5041902" lon="151.8615073">
<ele>1001.371</ele>
<time>2017-04-06T06:26:43.054Z</time>
</trkpt>
<trkpt lat="-29.5049371" lon="151.8612058">
<ele>1003.192</ele>
<time>2017-04-06T06:26:46.055Z</time>
</trkpt>
<trkpt lat="-29.5056471" lon="151.8608110">
<ele>1005.032</ele>
<time>2017-04-06T06:26:49.054Z</time>
</trkpt>
<trkpt lat="-29.5060852" lon="151.8604686">
<ele>1006.656</ele>
<time>2017-04-06T06:26:51.067Z</time>
</trkpt>
<trkpt lat="-29.5065282" lon="151.8601430">
<ele>1007.799</ele>
<time>2017-04-06T06:26:53.063Z</time>
</trkpt>
<trkpt lat="-29.5072004" lon="151.8596643">
<ele>1008.223</ele>
<time>2017-04-06T06:26:56.059Z</time>
</trkpt>
<trkpt lat="-29.5076639" lon="151.8593597">
<ele>1008.006</ele>
<time>2017-04-06T06:26:58.083Z</time>
</trkpt>
<trkpt lat="-29.5083723" lon="151.8589701">
<ele>1007.546</ele>
<time>2017-04-06T06:27:01.054Z</time>
</trkpt>
<trkpt lat="-29.5091013" lon="151.8586093">
<ele>1007.054</ele>
<time>2017-04-06T06:27:04.049Z</time>
</trkpt>
<trkpt lat="-29.5096201" lon="151.8585064">
<ele>1006.303</ele>
<time>2017-04-06T06:27:06.042Z</time>
</trkpt>
<trkpt lat="-29.5101371" lon="151.8583947">
<ele>1005.172</ele>
<time>2017-04-06T06:27:08.040Z</time>
</trkpt>
<trkpt lat="-29.5106616" lon="151.8583294">
<ele>1004.015</ele>
<time>2017-04-06T06:27:10.047Z</time>
</trkpt>
<trkpt lat="-29.5114331" lon="151.8581812">
<ele>1003.172</ele>
<time>2017-04-06T06:27:13.022Z</time>
</trkpt>
<trkpt lat="-29.5122210" lon="151.8580755">
<ele>1002.523</ele>
<time>2017-04-06T06:27:16.045Z</time>
</trkpt>
<trkpt lat="-29.5129988" lon="151.8579585">
<ele>1001.906</ele>
<time>2017-04-06T06:27:19.041Z</time>
</trkpt>
<trkpt lat="-29.5135233" lon="151.8578882">
<ele>1001.460</ele>
<time>2017-04-06T06:27:21.056Z</time>
</trkpt>
<trkpt lat="-29.5140519" lon="151.8578793">
<ele>1001.412</ele>
<time>2017-04-06T06:27:23.068Z</time>
</trkpt>
<trkpt lat="-29.5148388" lon="151.8578189">
<ele>1001.835</ele>
<time>2017-04-06T06:27:26.070Z</time>
</trkpt>
<trkpt lat="-29.5156225" lon="151.8577922">
<ele>1002.897</ele>
<time>2017-04-06T06:27:29.060Z</time>
</trkpt>
<trkpt lat="-29.5161434" lon="151.8577711">
<ele>1004.756</ele>
<time>2017-04-06T06:27:31.053Z</time>
</trkpt>
<trkpt lat="-29.5169248" lon="151.8577357">
<ele>1007.031</ele>
<time>2017-04-06T06:27:34.043Z</time>
</trkpt>
<trkpt lat="-29.5174493" lon="151.8577021">
<ele>1009.186</ele>
<time>2017-04-06T06:27:36.044Z</time>
</trkpt>
<trkpt lat="-29.5179793" lon="151.8576666">
<ele>1011.162</ele>
<time>2017-04-06T06:27:38.061Z</time>
</trkpt>
<trkpt lat="-29.5185057" lon="151.8576327">
<ele>1012.985</ele>
<time>2017-04-06T06:27:40.065Z</time>
</trkpt>
<trkpt lat="-29.5193001" lon="151.8575823">
<ele>1014.537</ele>
<time>2017-04-06T06:27:43.088Z</time>
</trkpt>
<trkpt lat="-29.5198490" lon="151.8575792">
<ele>1015.824</ele>
<time>2017-04-06T06:27:45.169Z</time>
</trkpt>
<trkpt lat="-29.5203859" lon="151.8575522">
<ele>1016.903</ele>
<time>2017-04-06T06:27:47.203Z</time>
</trkpt>
<trkpt lat="-29.5209074" lon="151.8575126">
<ele>1017.663</ele>
<time>2017-04-06T06:27:49.181Z</time>
</trkpt>
<trkpt lat="-29.5216956" lon="151.8574173">
<ele>1017.998</ele>
<time>2017-04-06T06:27:52.170Z</time>
</trkpt>
<trkpt lat="-29.5222264" lon="151.8573539">
<ele>1017.840</ele>
<time>2017-04-06T06:27:54.184Z</time>
</trkpt>
<trkpt lat="-29.5227581" lon="151.8573540">
<ele>1017.122</ele>
<time>2017-04-06T06:27:56.210Z</time>
</trkpt>
<trkpt lat="-29.5232814" lon="151.8574032">
<ele>1016.042</ele>
<time>2017-04-06T06:27:58.223Z</time>
</trkpt>
<trkpt lat="-29.5240310" lon="151.8576484">
<ele>1014.998</ele>
<time>2017-04-06T06:28:01.213Z</time>
</trkpt>
<trkpt lat="-29.5245152" lon="151.8578723">
<ele>1014.242</ele>
<time>2017-04-06T06:28:03.208Z</time>
</trkpt>
<trkpt lat="-29.5252436" lon="151.8582928">
<ele>1013.761</ele>
<time>2017-04-06T06:28:06.307Z</time>
</trkpt>
<trkpt lat="-29.5257217" lon="151.8585321">
<ele>1013.245</ele>
<time>2017-04-06T06:28:08.284Z</time>
</trkpt>
<trkpt lat="-29.5261885" lon="151.8588302">
<ele>1012.421</ele>
<time>2017-04-06T06:28:10.309Z</time>
</trkpt>
<trkpt lat="-29.5269008" lon="151.8592046">
<ele>1011.379</ele>
<time>2017-04-06T06:28:13.282Z</time>
</trkpt>
<trkpt lat="-29.5276183" lon="151.8595894">
<ele>1010.255</ele>
<time>2017-04-06T06:28:16.290Z</time>
</trkpt>
<trkpt lat="-29.5283694" lon="151.8598692">
<ele>1009.115</ele>
<time>2017-04-06T06:28:19.283Z</time>
</trkpt>
<trkpt lat="-29.5288759" lon="151.8600447">
<ele>1008.066</ele>
<time>2017-04-06T06:28:21.283Z</time>
</trkpt>
<trkpt lat="-29.5294017" lon="151.8601315">
<ele>1006.989</ele>
<time>2017-04-06T06:28:23.296Z</time>
</trkpt>
<trkpt lat="-29.5299263" lon="151.8601698">
<ele>1005.788</ele>
<time>2017-04-06T06:28:25.299Z</time>
</trkpt>
<trkpt lat="-29.5307001" lon="151.8601192">
<ele>1004.635</ele>
<time>2017-04-06T06:28:28.259Z</time>
</trkpt>
<trkpt lat="-29.5312223" lon="151.8600810">
<ele>1003.445</ele>
<time>2017-04-06T06:28:30.256Z</time>
</trkpt>
<trkpt lat="-29.5320055" lon="151.8599595">
<ele>1001.999</ele>
<time>2017-04-06T06:28:33.268Z</time>
</trkpt>
<trkpt lat="-29.5325255" lon="151.8598849">
<ele>1000.313</ele>
<time>2017-04-06T06:28:35.267Z</time>
</trkpt>
<trkpt lat="-29.5330506" lon="151.8598603">
<ele>998.570</ele>
<time>2017-04-06T06:28:37.276Z</time>
</trkpt>
<trkpt lat="-29.5335703" lon="151.8599262">
<ele>996.994</ele>
<time>2017-04-06T06:28:39.268Z</time>
</trkpt>
<trkpt lat="-29.5340929" lon="151.8599933">
<ele>995.808</ele>
<time>2017-04-06T06:28:41.259Z</time>
</trkpt>
<trkpt lat="-29.5346152" lon="151.8601182">
<ele>995.076</ele>
<time>2017-04-06T06:28:43.274Z</time>
</trkpt>
<trkpt lat="-29.5351474" lon="151.8601580">
<ele>994.649</ele>
<time>2017-04-06T06:28:45.290Z</time>
</trkpt>
<trkpt lat="-29.5359399" lon="151.8602290">
<ele>994.351</ele>
<time>2017-04-06T06:28:48.299Z</time>
</trkpt>
<trkpt lat="-29.5364574" lon="151.8602838">
<ele>993.996</ele>
<time>2017-04-06T06:28:50.269Z</time>
</trkpt>
<trkpt lat="-29.5372362" lon="151.8601901">
<ele>993.289</ele>
<time>2017-04-06T06:28:53.251Z</time>
</trkpt>
<trkpt lat="-29.5380124" lon="151.8600924">
<ele>991.954</ele>
<time>2017-04-06T06:28:56.240Z</time>
</trkpt>
<trkpt lat="-29.5385236" lon="151.8600224">
<ele>989.929</ele>
<time>2017-04-06T06:28:58.210Z</time>
</trkpt>
<trkpt lat="-29.5393083" lon="151.8600067">
<ele>987.668</ele>
<time>2017-04-06T06:29:01.191Z</time>
</trkpt>
<trkpt lat="-29.5398372" lon="151.8599590">
<ele>985.839</ele>
<time>2017-04-06T06:29:03.185Z</time>
</trkpt>
<trkpt lat="-29.5403743" lon="151.8599201">
<ele>984.573</ele>
<time>2017-04-06T06:29:05.202Z</time>
</trkpt>
<trkpt lat="-29.5411756" lon="151.8598939">
<ele>983.710</ele>
<time>2017-04-06T06:29:08.208Z</time>
</trkpt>
<trkpt lat="-29.5417105" lon="151.8598369">
<ele>983.223</ele>
<time>2017-04-06T06:29:10.221Z</time>
</trkpt>
<trkpt lat="-29.5425083" lon="151.8597850">
<ele>982.914</ele>
<time>2017-04-06T06:29:13.208Z</time>
</trkpt>
<trkpt lat="-29.5433100" lon="151.8597745">
<ele>982.334</ele>
<time>2017-04-06T06:29:16.206Z</time>
</trkpt>
<trkpt lat="-29.5441097" lon="151.8597878">
<ele>981.191</ele>
<time>2017-04-06T06:29:19.209Z</time>
</trkpt>
<trkpt lat="-29.5449034" lon="151.8597928">
<ele>979.556</ele>
<time>2017-04-06T06:29:22.195Z</time>
</trkpt>
<trkpt lat="-29.5454345" lon="151.8598131">
<ele>977.773</ele>
<time>2017-04-06T06:29:24.196Z</time>
</trkpt>
<trkpt lat="-29.5462252" lon="151.8598219">
<ele>976.224</ele>
<time>2017-04-06T06:29:27.174Z</time>
</trkpt>
<trkpt lat="-29.5470226" lon="151.8598590">
<ele>975.063</ele>
<time>2017-04-06T06:29:30.167Z</time>
</trkpt>
<trkpt lat="-29.5475594" lon="151.8598600">
<ele>974.220</ele>
<time>2017-04-06T06:29:32.172Z</time>
</trkpt>
<trkpt lat="-29.5480905" lon="151.8598317">
<ele>973.649</ele>
<time>2017-04-06T06:29:34.159Z</time>
</trkpt>
<trkpt lat="-29.5486280" lon="151.8598355">
<ele>973.329</ele>
<time>2017-04-06T06:29:36.170Z</time>
</trkpt>
<trkpt lat="-29.5491648" lon="151.8598270">
<ele>973.174</ele>
<time>2017-04-06T06:29:38.184Z</time>
</trkpt>
<trkpt lat="-29.5499623" lon="151.8598116">
<ele>973.133</ele>
<time>2017-04-06T06:29:41.185Z</time>
</trkpt>
<trkpt lat="-29.5504946" lon="151.8598657">
<ele>973.360</ele>
<time>2017-04-06T06:29:43.197Z</time>
</trkpt>
<trkpt lat="-29.5510305" lon="151.8598323">
<ele>974.051</ele>
<time>2017-04-06T06:29:45.211Z</time>
</trkpt>
<trkpt lat="-29.5515905" lon="151.8598487">
<ele>975.177</ele>
<time>2017-04-06T06:29:47.308Z</time>
</trkpt>
<trkpt lat="-29.5521309" lon="151.8598376">
<ele>976.532</ele>
<time>2017-04-06T06:29:49.329Z</time>
</trkpt>
<trkpt lat="-29.5529223" lon="151.8598403">
<ele>977.936</ele>
<time>2017-04-06T06:29:52.284Z</time>
</trkpt>
<trkpt lat="-29.5537341" lon="151.8598432">
<ele>979.224</ele>
<time>2017-04-06T06:29:55.313Z</time>
</trkpt>
<trkpt lat="-29.5545294" lon="151.8598134">
<ele>980.184</ele>
<time>2017-04-06T06:29:58.287Z</time>
</trkpt>
<trkpt lat="-29.5550639" lon="151.8598191">
<ele>980.616</ele>
<time>2017-04-06T06:30:00.284Z</time>
</trkpt>
<trkpt lat="-29.5555989" lon="151.8598313">
<ele>980.501</ele>
<time>2017-04-06T06:30:02.281Z</time>
</trkpt>
<trkpt lat="-29.5563964" lon="151.8598815">
<ele>979.990</ele>
<time>2017-04-06T06:30:05.264Z</time>
</trkpt>
<trkpt lat="-29.5569296" lon="151.8598932">
<ele>979.249</ele>
<time>2017-04-06T06:30:07.261Z</time>
</trkpt>
<trkpt lat="-29.5574621" lon="151.8598385">
<ele>978.406</ele>
<time>2017-04-06T06:30:09.267Z</time>
</trkpt>
<trkpt lat="-29.5582639" lon="151.8597937">
<ele>977.509</ele>
<time>2017-04-06T06:30:12.274Z</time>
</trkpt>
<trkpt lat="-29.5588032" lon="151.8598459">
<ele>976.531</ele>
<time>2017-04-06T06:30:14.294Z</time>
</trkpt>
<trkpt lat="-29.5593331" lon="151.8599585">
<ele>975.614</ele>
<time>2017-04-06T06:30:16.305Z</time>
</trkpt>
<trkpt lat="-29.5600892" lon="151.8602726">
<ele>975.116</ele>
<time>2017-04-06T06:30:19.302Z</time>
</trkpt>
<trkpt lat="-29.5608173" lon="151.8606568">
<ele>975.264</ele>
<time>2017-04-06T06:30:22.293Z</time>
</trkpt>
<trkpt lat="-29.5612596" lon="151.8609943">
<ele>975.979</ele>
<time>2017-04-06T06:30:24.277Z</time>
</trkpt>
<trkpt lat="-29.5616711" lon="151.8613917">
<ele>976.947</ele>
<time>2017-04-06T06:30:26.284Z</time>
</trkpt>
<trkpt lat="-29.5622514" lon="151.8620314">
<ele>977.748</ele>
<time>2017-04-06T06:30:29.293Z</time>
</trkpt>
<trkpt lat="-29.5627488" lon="151.8627529">
<ele>978.049</ele>
<time>2017-04-06T06:30:32.302Z</time>
</trkpt>
<trkpt lat="-29.5632324" lon="151.8634810">
<ele>977.764</ele>
<time>2017-04-06T06:30:35.294Z</time>
</trkpt>
<trkpt lat="-29.5636080" lon="151.8639229">
<ele>977.024</ele>
<time>2017-04-06T06:30:37.309Z</time>
</trkpt>
<trkpt lat="-29.5641951" lon="151.8645360">
<ele>975.997</ele>
<time>2017-04-06T06:30:40.280Z</time>
</trkpt>
<trkpt lat="-29.5648545" lon="151.8650727">
<ele>974.676</ele>
<time>2017-04-06T06:30:43.381Z</time>
</trkpt>
<trkpt lat="-29.5653048" lon="151.8653360">
<ele>972.948</ele>
<time>2017-04-06T06:30:45.423Z</time>
</trkpt>
<trkpt lat="-29.5657604" lon="151.8655128">
<ele>970.845</ele>
<time>2017-04-06T06:30:47.394Z</time>
</trkpt>
<trkpt lat="-29.5664778" lon="151.8656998">
<ele>968.650</ele>
<time>2017-04-06T06:30:50.397Z</time>
</trkpt>
<trkpt lat="-29.5672123" lon="151.8657349">
<ele>966.691</ele>
<time>2017-04-06T06:30:53.376Z</time>
</trkpt>
<trkpt lat="-29.5679516" lon="151.8657590">
<ele>965.200</ele>
<time>2017-04-06T06:30:56.360Z</time>
</trkpt>
<trkpt lat="-29.5684428" lon="151.8657768">
<ele>964.232</ele>
<time>2017-04-06T06:30:58.347Z</time>
</trkpt>
<trkpt lat="-29.5691814" lon="151.8657401">
<ele>963.636</ele>
<time>2017-04-06T06:31:01.329Z</time>
</trkpt>
<trkpt lat="-29.5696800" lon="151.8657423">
<ele>963.199</ele>
<time>2017-04-06T06:31:03.305Z</time>
</trkpt>
<trkpt lat="-29.5704483" lon="151.8657725">
<ele>962.861</ele>
<time>2017-04-06T06:31:06.290Z</time>
</trkpt>
<trkpt lat="-29.5709588" lon="151.8659405">
<ele>962.698</ele>
<time>2017-04-06T06:31:08.304Z</time>
</trkpt>
<trkpt lat="-29.5717296" lon="151.8662558">
<ele>962.797</ele>
<time>2017-04-06T06:31:11.375Z</time>
</trkpt>
<trkpt lat="-29.5722092" lon="151.8665407">
<ele>963.128</ele>
<time>2017-04-06T06:31:13.393Z</time>
</trkpt>
<trkpt lat="-29.5728937" lon="151.8670230">
<ele>963.593</ele>
<time>2017-04-06T06:31:16.398Z</time>
</trkpt>
<trkpt lat="-29.5736024" lon="151.8674580">
<ele>964.187</ele>
<time>2017-04-06T06:31:19.409Z</time>
</trkpt>
<trkpt lat="-29.5740600" lon="151.8677663">
<ele>964.992</ele>
<time>2017-04-06T06:31:21.403Z</time>
</trkpt>
<trkpt lat="-29.5745317" lon="151.8680313">
<ele>965.933</ele>
<time>2017-04-06T06:31:23.376Z</time>
</trkpt>
<trkpt lat="-29.5750154" lon="151.8682850">
<ele>966.782</ele>
<time>2017-04-06T06:31:25.374Z</time>
</trkpt>
<trkpt lat="-29.5757766" lon="151.8685664">
<ele>967.428</ele>
<time>2017-04-06T06:31:28.388Z</time>
</trkpt>
<trkpt lat="-29.5765095" lon="151.8689068">
<ele>967.895</ele>
<time>2017-04-06T06:31:31.364Z</time>
</trkpt>
<trkpt lat="-29.5770166" lon="151.8690991">
<ele>968.249</ele>
<time>2017-04-06T06:31:33.366Z</time>
</trkpt>
<trkpt lat="-29.5774970" lon="151.8693753">
<ele>968.618</ele>
<time>2017-04-06T06:31:35.382Z</time>
</trkpt>
<trkpt lat="-29.5782250" lon="151.8697186">
<ele>969.126</ele>
<time>2017-04-06T06:31:38.344Z</time>
</trkpt>
<trkpt lat="-29.5789827" lon="151.8700003">
<ele>969.848</ele>
<time>2017-04-06T06:31:41.335Z</time>
</trkpt>
<trkpt lat="-29.5797770" lon="151.8701671">
<ele>970.770</ele>
<time>2017-04-06T06:31:44.360Z</time>
</trkpt>
<trkpt lat="-29.5803042" lon="151.8702652">
<ele>971.777</ele>
<time>2017-04-06T06:31:46.362Z</time>
</trkpt>
<trkpt lat="-29.5808289" lon="151.8703680">
<ele>972.647</ele>
<time>2017-04-06T06:31:48.353Z</time>
</trkpt>
<trkpt lat="-29.5816113" lon="151.8705805">
<ele>973.186</ele>
<time>2017-04-06T06:31:51.353Z</time>
</trkpt>
<trkpt lat="-29.5824064" lon="151.8707148">
<ele>973.482</ele>
<time>2017-04-06T06:31:54.359Z</time>
</trkpt>
<trkpt lat="-29.5829346" lon="151.8707704">
<ele>973.870</ele>
<time>2017-04-06T06:31:56.352Z</time>
</trkpt>
<trkpt lat="-29.5834658" lon="151.8707983">
<ele>974.544</ele>
<time>2017-04-06T06:31:58.357Z</time>
</trkpt>
<trkpt lat="-29.5839933" lon="151.8708553">
<ele>975.546</ele>
<time>2017-04-06T06:32:00.353Z</time>
</trkpt>
<trkpt lat="-29.5845230" lon="151.8708921">
<ele>976.859</ele>
<time>2017-04-06T06:32:02.345Z</time>
</trkpt>
<trkpt lat="-29.5853221" lon="151.8709586">
<ele>978.299</ele>
<time>2017-04-06T06:32:05.355Z</time>
</trkpt>
<trkpt lat="-29.5861172" lon="151.8709758">
<ele>979.759</ele>
<time>2017-04-06T06:32:08.365Z</time>
</trkpt>
<trkpt lat="-29.5866439" lon="151.8709765">
<ele>981.499</ele>
<time>2017-04-06T06:32:10.359Z</time>
</trkpt>
<trkpt lat="-29.5874290" lon="151.8708629">
<ele>983.652</ele>
<time>2017-04-06T06:32:13.336Z</time>
</trkpt>
<trkpt lat="-29.5879662" lon="151.8708117">
<ele>986.132</ele>
<time>2017-04-06T06:32:15.346Z</time>
</trkpt>
<trkpt lat="-29.5887733" lon="151.8707150">
<ele>988.878</ele>
<time>2017-04-06T06:32:18.373Z</time>
</trkpt>
<trkpt lat="-29.5895666" lon="151.8705955">
<ele>991.569</ele>
<time>2017-04-06T06:32:21.368Z</time>
</trkpt>
<trkpt lat="-29.5901007" lon="151.8705763">
<ele>993.680</ele>
<time>2017-04-06T06:32:23.370Z</time>
</trkpt>
<trkpt lat="-29.5908994" lon="151.8706152">
<ele>995.186</ele>
<time>2017-04-06T06:32:26.365Z</time>
</trkpt>
<trkpt lat="-29.5916876" lon="151.8708018">
<ele>996.839</ele>
<time>2017-04-06T06:32:29.374Z</time>
</trkpt>
<trkpt lat="-29.5922106" lon="151.8709449">
<ele>999.389</ele>
<time>2017-04-06T06:32:31.380Z</time>
</trkpt>
<trkpt lat="-29.5927335" lon="151.8710812">
<ele>1002.590</ele>
<time>2017-04-06T06:32:33.383Z</time>
</trkpt>
<trkpt lat="-29.5935143" lon="151.8712988">
<ele>1005.332</ele>
<time>2017-04-06T06:32:36.381Z</time>
</trkpt>
<trkpt lat="-29.5943146" lon="151.8714692">
<ele>1006.731</ele>
<time>2017-04-06T06:32:39.411Z</time>
</trkpt>
<trkpt lat="-29.5948532" lon="151.8715510">
<ele>1006.760</ele>
<time>2017-04-06T06:32:41.433Z</time>
</trkpt>
<trkpt lat="-29.5953960" lon="151.8716020">
<ele>1005.963</ele>
<time>2017-04-06T06:32:43.459Z</time>
</trkpt>
<trkpt lat="-29.5959297" lon="151.8716094">
<ele>1004.921</ele>
<time>2017-04-06T06:32:45.447Z</time>
</trkpt>
<trkpt lat="-29.5967274" lon="151.8716913">
<ele>1004.020</ele>
<time>2017-04-06T06:32:48.433Z</time>
</trkpt>
<trkpt lat="-29.5975235" lon="151.8716478">
<ele>1003.344</ele>
<time>2017-04-06T06:32:51.403Z</time>
</trkpt>
<trkpt lat="-29.5980540" lon="151.8715771">
<ele>1002.821</ele>
<time>2017-04-06T06:32:53.395Z</time>
</trkpt>
<trkpt lat="-29.5985860" lon="151.8715430">
<ele>1002.430</ele>
<time>2017-04-06T06:32:55.386Z</time>
</trkpt>
<trkpt lat="-29.5991135" lon="151.8714740">
<ele>1002.172</ele>
<time>2017-04-06T06:32:57.370Z</time>
</trkpt>
<trkpt lat="-29.5999083" lon="151.8714154">
<ele>1002.015</ele>
<time>2017-04-06T06:33:00.346Z</time>
</trkpt>
<trkpt lat="-29.6007045" lon="151.8712638">
<ele>1001.971</ele>
<time>2017-04-06T06:33:03.369Z</time>
</trkpt>
<trkpt lat="-29.6012182" lon="151.8710994">
<ele>1002.133</ele>
<time>2017-04-06T06:33:05.364Z</time>
</trkpt>
<trkpt lat="-29.6017143" lon="151.8708575">
<ele>1002.471</ele>
<time>2017-04-06T06:33:07.375Z</time>
</trkpt>
<trkpt lat="-29.6024296" lon="151.8704234">
<ele>1002.802</ele>
<time>2017-04-06T06:33:10.388Z</time>
</trkpt>
<trkpt lat="-29.6031007" lon="151.8699130">
<ele>1003.002</ele>
<time>2017-04-06T06:33:13.384Z</time>
</trkpt>
<trkpt lat="-29.6037313" lon="151.8693479">
<ele>1003.127</ele>
<time>2017-04-06T06:33:16.360Z</time>
</trkpt>
<trkpt lat="-29.6041568" lon="151.8689677">
<ele>1003.256</ele>
<time>2017-04-06T06:33:18.361Z</time>
</trkpt>
<trkpt lat="-29.6045992" lon="151.8686173">
<ele>1003.364</ele>
<time>2017-04-06T06:33:20.357Z</time>
</trkpt>
<trkpt lat="-29.6052553" lon="151.8680847">
<ele>1003.458</ele>
<time>2017-04-06T06:33:23.357Z</time>
</trkpt>
<trkpt lat="-29.6056855" lon="151.8677253">
<ele>1003.604</ele>
<time>2017-04-06T06:33:25.357Z</time>
</trkpt>
<trkpt lat="-29.6060985" lon="151.8673377">
<ele>1003.908</ele>
<time>2017-04-06T06:33:27.367Z</time>
</trkpt>
<trkpt lat="-29.6067714" lon="151.8668577">
<ele>1004.456</ele>
<time>2017-04-06T06:33:30.353Z</time>
</trkpt>
<trkpt lat="-29.6074435" lon="151.8663676">
<ele>1005.172</ele>
<time>2017-04-06T06:33:33.340Z</time>
</trkpt>
<trkpt lat="-29.6078939" lon="151.8660431">
<ele>1005.914</ele>
<time>2017-04-06T06:33:35.322Z</time>
</trkpt>
<trkpt lat="-29.6085999" lon="151.8655957">
<ele>1006.588</ele>
<time>2017-04-06T06:33:38.329Z</time>
</trkpt>
<trkpt lat="-29.6092938" lon="151.8651320">
<ele>1007.169</ele>
<time>2017-04-06T06:33:41.337Z</time>
</trkpt>
<trkpt lat="-29.6100105" lon="151.8647341">
<ele>1007.879</ele>
<time>2017-04-06T06:33:44.337Z</time>
</trkpt>
<trkpt lat="-29.6105051" lon="151.8645206">
<ele>1009.024</ele>
<time>2017-04-06T06:33:46.335Z</time>
</trkpt>
<trkpt lat="-29.6112233" lon="151.8641430">
<ele>1010.502</ele>
<time>2017-04-06T06:33:49.319Z</time>
</trkpt>
<trkpt lat="-29.6119455" lon="151.8637583">
<ele>1011.971</ele>
<time>2017-04-06T06:33:52.308Z</time>
</trkpt>
<trkpt lat="-29.6124342" lon="151.8634863">
<ele>1013.415</ele>
<time>2017-04-06T06:33:54.338Z</time>
</trkpt>
<trkpt lat="-29.6129159" lon="151.8632247">
<ele>1014.991</ele>
<time>2017-04-06T06:33:56.331Z</time>
</trkpt>
<trkpt lat="-29.6133907" lon="151.8629498">
<ele>1016.663</ele>
<time>2017-04-06T06:33:58.321Z</time>
</trkpt>
<trkpt lat="-29.6141233" lon="151.8625856">
<ele>1018.379</ele>
<time>2017-04-06T06:34:01.304Z</time>
</trkpt>
<trkpt lat="-29.6148460" lon="151.8621845">
<ele>1020.205</ele>
<time>2017-04-06T06:34:04.297Z</time>
</trkpt>
<trkpt lat="-29.6155740" lon="151.8617974">
<ele>1022.104</ele>
<time>2017-04-06T06:34:07.294Z</time>
</trkpt>
<trkpt lat="-29.6163129" lon="151.8614440">
<ele>1023.854</ele>
<time>2017-04-06T06:34:10.295Z</time>
</trkpt>
<trkpt lat="-29.6170343" lon="151.8610618">
<ele>1025.519</ele>
<time>2017-04-06T06:34:13.275Z</time>
</trkpt>
<trkpt lat="-29.6175145" lon="151.8607896">
<ele>1027.406</ele>
<time>2017-04-06T06:34:15.275Z</time>
</trkpt>
<trkpt lat="-29.6182494" lon="151.8604074">
<ele>1029.470</ele>
<time>2017-04-06T06:34:18.289Z</time>
</trkpt>
<trkpt lat="-29.6189662" lon="151.8599983">
<ele>1031.533</ele>
<time>2017-04-06T06:34:21.288Z</time>
</trkpt>
<trkpt lat="-29.6194519" lon="151.8597435">
<ele>1033.681</ele>
<time>2017-04-06T06:34:23.280Z</time>
</trkpt>
<trkpt lat="-29.6199433" lon="151.8594909">
<ele>1035.791</ele>
<time>2017-04-06T06:34:25.278Z</time>
</trkpt>
<trkpt lat="-29.6204248" lon="151.8592197">
<ele>1037.472</ele>
<time>2017-04-06T06:34:27.266Z</time>
</trkpt>
<trkpt lat="-29.6209051" lon="151.8589340">
<ele>1038.513</ele>
<time>2017-04-06T06:34:29.278Z</time>
</trkpt>
<trkpt lat="-29.6216261" lon="151.8585318">
<ele>1038.872</ele>
<time>2017-04-06T06:34:32.268Z</time>
</trkpt>
<trkpt lat="-29.6223533" lon="151.8581576">
<ele>1038.532</ele>
<time>2017-04-06T06:34:35.247Z</time>
</trkpt>
<trkpt lat="-29.6228459" lon="151.8579221">
<ele>1037.529</ele>
<time>2017-04-06T06:34:37.240Z</time>
</trkpt>
<trkpt lat="-29.6233305" lon="151.8576518">
<ele>1036.020</ele>
<time>2017-04-06T06:34:39.247Z</time>
</trkpt>
<trkpt lat="-29.6238183" lon="151.8573846">
<ele>1034.273</ele>
<time>2017-04-06T06:34:41.263Z</time>
</trkpt>
<trkpt lat="-29.6245403" lon="151.8569918">
<ele>1032.550</ele>
<time>2017-04-06T06:34:44.253Z</time>
</trkpt>
<trkpt lat="-29.6250244" lon="151.8567348">
<ele>1031.159</ele>
<time>2017-04-06T06:34:46.253Z</time>
</trkpt>
<trkpt lat="-29.6255052" lon="151.8564668">
<ele>1030.368</ele>
<time>2017-04-06T06:34:48.261Z</time>
</trkpt>
<trkpt lat="-29.6259912" lon="151.8562228">
<ele>1030.170</ele>
<time>2017-04-06T06:34:50.257Z</time>
</trkpt>
<trkpt lat="-29.6264727" lon="151.8559622">
<ele>1030.426</ele>
<time>2017-04-06T06:34:52.264Z</time>
</trkpt>
<trkpt lat="-29.6271972" lon="151.8555976">
<ele>1031.124</ele>
<time>2017-04-06T06:34:55.246Z</time>
</trkpt>
<trkpt lat="-29.6279031" lon="151.8551774">
<ele>1032.296</ele>
<time>2017-04-06T06:34:58.238Z</time>
</trkpt>
<trkpt lat="-29.6285939" lon="151.8547183">
<ele>1033.949</ele>
<time>2017-04-06T06:35:01.237Z</time>
</trkpt>
<trkpt lat="-29.6290283" lon="151.8543690">
<ele>1036.062</ele>
<time>2017-04-06T06:35:03.221Z</time>
</trkpt>
<trkpt lat="-29.6294540" lon="151.8539983">
<ele>1038.347</ele>
<time>2017-04-06T06:35:05.215Z</time>
</trkpt>
<trkpt lat="-29.6299860" lon="151.8533043">
<ele>1040.376</ele>
<time>2017-04-06T06:35:08.222Z</time>
</trkpt>
<trkpt lat="-29.6304600" lon="151.8525696">
<ele>1042.235</ele>
<time>2017-04-06T06:35:11.193Z</time>
</trkpt>
<trkpt lat="-29.6307660" lon="151.8520615">
<ele>1044.242</ele>
<time>2017-04-06T06:35:13.195Z</time>
</trkpt>
<trkpt lat="-29.6310350" lon="151.8515232">
<ele>1046.120</ele>
<time>2017-04-06T06:35:15.208Z</time>
</trkpt>
<trkpt lat="-29.6314263" lon="151.8507231">
<ele>1047.366</ele>
<time>2017-04-06T06:35:18.192Z</time>
</trkpt>
<trkpt lat="-29.6317880" lon="151.8499064">
<ele>1047.925</ele>
<time>2017-04-06T06:35:21.179Z</time>
</trkpt>
<trkpt lat="-29.6321249" lon="151.8490757">
<ele>1047.959</ele>
<time>2017-04-06T06:35:24.168Z</time>
</trkpt>
<trkpt lat="-29.6323793" lon="151.8485396">
<ele>1047.669</ele>
<time>2017-04-06T06:35:26.163Z</time>
</trkpt>
<trkpt lat="-29.6326005" lon="151.8479888">
<ele>1047.388</ele>
<time>2017-04-06T06:35:28.140Z</time>
</trkpt>
<trkpt lat="-29.6329757" lon="151.8471650">
<ele>1047.316</ele>
<time>2017-04-06T06:35:31.158Z</time>
</trkpt>
<trkpt lat="-29.6332296" lon="151.8466191">
<ele>1047.354</ele>
<time>2017-04-06T06:35:33.164Z</time>
</trkpt>
<trkpt lat="-29.6335926" lon="151.8457971">
<ele>1047.366</ele>
<time>2017-04-06T06:35:36.155Z</time>
</trkpt>
<trkpt lat="-29.6340025" lon="151.8450025">
<ele>1047.490</ele>
<time>2017-04-06T06:35:39.155Z</time>
</trkpt>
<trkpt lat="-29.6342561" lon="151.8444617">
<ele>1047.959</ele>
<time>2017-04-06T06:35:41.153Z</time>
</trkpt>
<trkpt lat="-29.6345888" lon="151.8436263">
<ele>1048.636</ele>
<time>2017-04-06T06:35:44.143Z</time>
</trkpt>
<trkpt lat="-29.6348248" lon="151.8430768">
<ele>1049.180</ele>
<time>2017-04-06T06:35:46.140Z</time>
</trkpt>
<trkpt lat="-29.6351197" lon="151.8422246">
<ele>1049.518</ele>
<time>2017-04-06T06:35:49.127Z</time>
</trkpt>
<trkpt lat="-29.6354437" lon="151.8413824">
<ele>1049.920</ele>
<time>2017-04-06T06:35:52.129Z</time>
</trkpt>
<trkpt lat="-29.6356278" lon="151.8408096">
<ele>1050.799</ele>
<time>2017-04-06T06:35:54.125Z</time>
</trkpt>
<trkpt lat="-29.6358066" lon="151.8402352">
<ele>1052.253</ele>
<time>2017-04-06T06:35:56.118Z</time>
</trkpt>
<trkpt lat="-29.6360375" lon="151.8393546">
<ele>1054.043</ele>
<time>2017-04-06T06:35:59.125Z</time>
</trkpt>
<trkpt lat="-29.6362826" lon="151.8384821">
<ele>1056.074</ele>
<time>2017-04-06T06:36:02.122Z</time>
</trkpt>
<trkpt lat="-29.6365684" lon="151.8376216">
<ele>1058.361</ele>
<time>2017-04-06T06:36:05.133Z</time>
</trkpt>
<trkpt lat="-29.6367321" lon="151.8370347">
<ele>1060.818</ele>
<time>2017-04-06T06:36:07.146Z</time>
</trkpt>
<trkpt lat="-29.6369003" lon="151.8364545">
<ele>1063.297</ele>
<time>2017-04-06T06:36:09.140Z</time>
</trkpt>
<trkpt lat="-29.6371699" lon="151.8355832">
<ele>1065.646</ele>
<time>2017-04-06T06:36:12.148Z</time>
</trkpt>
<trkpt lat="-29.6373327" lon="151.8349981">
<ele>1067.723</ele>
<time>2017-04-06T06:36:14.140Z</time>
</trkpt>
<trkpt lat="-29.6374983" lon="151.8344169">
<ele>1069.456</ele>
<time>2017-04-06T06:36:16.126Z</time>
</trkpt>
<trkpt lat="-29.6376646" lon="151.8338365">
<ele>1070.838</ele>
<time>2017-04-06T06:36:18.116Z</time>
</trkpt>
<trkpt lat="-29.6379371" lon="151.8329796">
<ele>1072.027</ele>
<time>2017-04-06T06:36:21.089Z</time>
</trkpt>
<trkpt lat="-29.6381078" lon="151.8323947">
<ele>1073.473</ele>
<time>2017-04-06T06:36:23.099Z</time>
</trkpt>
<trkpt lat="-29.6382685" lon="151.8318134">
<ele>1075.439</ele>
<time>2017-04-06T06:36:25.086Z</time>
</trkpt>
<trkpt lat="-29.6385063" lon="151.8309387">
<ele>1077.566</ele>
<time>2017-04-06T06:36:28.072Z</time>
</trkpt>
<trkpt lat="-29.6387576" lon="151.8300622">
<ele>1079.354</ele>
<time>2017-04-06T06:36:31.069Z</time>
</trkpt>
<trkpt lat="-29.6389366" lon="151.8294783">
<ele>1080.515</ele>
<time>2017-04-06T06:36:33.070Z</time>
</trkpt>
<trkpt lat="-29.6391430" lon="151.8289086">
<ele>1080.841</ele>
<time>2017-04-06T06:36:35.065Z</time>
</trkpt>
<trkpt lat="-29.6393485" lon="151.8283404">
<ele>1080.234</ele>
<time>2017-04-06T06:36:37.055Z</time>
</trkpt>
<trkpt lat="-29.6396168" lon="151.8274781">
<ele>1078.857</ele>
<time>2017-04-06T06:36:40.084Z</time>
</trkpt>
<trkpt lat="-29.6399108" lon="151.8266857">
<ele>1076.817</ele>
<time>2017-04-06T06:36:43.040Z</time>
</trkpt>
<trkpt lat="-29.6401257" lon="151.8261674">
<ele>1074.085</ele>
<time>2017-04-06T06:36:44.988Z</time>
</trkpt>
<trkpt lat="-29.6404307" lon="151.8253256">
<ele>1071.084</ele>
<time>2017-04-06T06:36:48.004Z</time>
</trkpt>
<trkpt lat="-29.6406236" lon="151.8247491">
<ele>1068.295</ele>
<time>2017-04-06T06:36:50.009Z</time>
</trkpt>
<trkpt lat="-29.6409384" lon="151.8239152">
<ele>1065.666</ele>
<time>2017-04-06T06:36:53.007Z</time>
</trkpt>
<trkpt lat="-29.6411356" lon="151.8233799">
<ele>1062.950</ele>
<time>2017-04-06T06:36:54.994Z</time>
</trkpt>
<trkpt lat="-29.6414434" lon="151.8225882">
<ele>1060.184</ele>
<time>2017-04-06T06:36:57.968Z</time>
</trkpt>
<trkpt lat="-29.6415984" lon="151.8220355">
<ele>1057.546</ele>
<time>2017-04-06T06:36:59.941Z</time>
</trkpt>
<trkpt lat="-29.6419681" lon="151.8212509">
<ele>1055.150</ele>
<time>2017-04-06T06:37:02.943Z</time>
</trkpt>
<trkpt lat="-29.6421853" lon="151.8207006">
<ele>1053.008</ele>
<time>2017-04-06T06:37:04.942Z</time>
</trkpt>
<trkpt lat="-29.6423871" lon="151.8201388">
<ele>1051.194</ele>
<time>2017-04-06T06:37:06.928Z</time>
</trkpt>
<trkpt lat="-29.6427194" lon="151.8193018">
<ele>1049.817</ele>
<time>2017-04-06T06:37:09.914Z</time>
</trkpt>
<trkpt lat="-29.6429358" lon="151.8187397">
<ele>1048.948</ele>
<time>2017-04-06T06:37:11.908Z</time>
</trkpt>
<trkpt lat="-29.6432735" lon="151.8179132">
<ele>1048.369</ele>
<time>2017-04-06T06:37:14.879Z</time>
</trkpt>
<trkpt lat="-29.6434717" lon="151.8173444">
<ele>1047.829</ele>
<time>2017-04-06T06:37:16.844Z</time>
</trkpt>
<trkpt lat="-29.6438085" lon="151.8164732">
<ele>1047.323</ele>
<time>2017-04-06T06:37:19.852Z</time>
</trkpt>
<trkpt lat="-29.6441446" lon="151.8155940">
<ele>1046.972</ele>
<time>2017-04-06T06:37:22.821Z</time>
</trkpt>
<trkpt lat="-29.6445121" lon="151.8147023">
<ele>1046.842</ele>
<time>2017-04-06T06:37:25.821Z</time>
</trkpt>
<trkpt lat="-29.6448315" lon="151.8137699">
<ele>1046.904</ele>
<time>2017-04-06T06:37:28.856Z</time>
</trkpt>
<trkpt lat="-29.6452167" lon="151.8128936">
<ele>1046.891</ele>
<time>2017-04-06T06:37:31.874Z</time>
</trkpt>
<trkpt lat="-29.6454529" lon="151.8123183">
<ele>1046.380</ele>
<time>2017-04-06T06:37:33.866Z</time>
</trkpt>
<trkpt lat="-29.6457765" lon="151.8114423">
<ele>1045.326</ele>
<time>2017-04-06T06:37:36.869Z</time>
</trkpt>
<trkpt lat="-29.6460006" lon="151.8108835">
<ele>1044.067</ele>
<time>2017-04-06T06:37:38.863Z</time>
</trkpt>
<trkpt lat="-29.6463229" lon="151.8100643">
<ele>1042.787</ele>
<time>2017-04-06T06:37:41.807Z</time>
</trkpt>
<trkpt lat="-29.6465461" lon="151.8095119">
<ele>1041.570</ele>
<time>2017-04-06T06:37:43.822Z</time>
</trkpt>
<trkpt lat="-29.6468501" lon="151.8086897">
<ele>1040.611</ele>
<time>2017-04-06T06:37:46.794Z</time>
</trkpt>
<trkpt lat="-29.6470699" lon="151.8081466">
<ele>1039.896</ele>
<time>2017-04-06T06:37:48.780Z</time>
</trkpt>
<trkpt lat="-29.6472750" lon="151.8075858">
<ele>1039.318</ele>
<time>2017-04-06T06:37:50.810Z</time>
</trkpt>
<trkpt lat="-29.6475773" lon="151.8067741">
<ele>1038.805</ele>
<time>2017-04-06T06:37:53.791Z</time>
</trkpt>
<trkpt lat="-29.6477832" lon="151.8062431">
<ele>1038.100</ele>
<time>2017-04-06T06:37:55.769Z</time>
</trkpt>
<trkpt lat="-29.6479661" lon="151.8056971">
<ele>1037.150</ele>
<time>2017-04-06T06:37:57.758Z</time>
</trkpt>
<trkpt lat="-29.6483419" lon="151.8049349">
<ele>1036.339</ele>
<time>2017-04-06T06:38:00.744Z</time>
</trkpt>
<trkpt lat="-29.6485893" lon="151.8044354">
<ele>1035.841</ele>
<time>2017-04-06T06:38:02.701Z</time>
</trkpt>
<trkpt lat="-29.6488963" lon="151.8039615">
<ele>1035.547</ele>
<time>2017-04-06T06:38:04.695Z</time>
</trkpt>
<trkpt lat="-29.6493135" lon="151.8032031">
<ele>1035.422</ele>
<time>2017-04-06T06:38:07.707Z</time>
</trkpt>
<trkpt lat="-29.6496051" lon="151.8027077">
<ele>1035.450</ele>
<time>2017-04-06T06:38:09.709Z</time>
</trkpt>
<trkpt lat="-29.6498749" lon="151.8021999">
<ele>1035.624</ele>
<time>2017-04-06T06:38:11.703Z</time>
</trkpt>
<trkpt lat="-29.6501438" lon="151.8016901">
<ele>1036.155</ele>
<time>2017-04-06T06:38:13.736Z</time>
</trkpt>
<trkpt lat="-29.6505158" lon="151.8009516">
<ele>1037.063</ele>
<time>2017-04-06T06:38:16.707Z</time>
</trkpt>
<trkpt lat="-29.6507746" lon="151.8004835">
<ele>1037.760</ele>
<time>2017-04-06T06:38:18.683Z</time>
</trkpt>
<trkpt lat="-29.6511512" lon="151.7997723">
<ele>1037.837</ele>
<time>2017-04-06T06:38:21.652Z</time>
</trkpt>
<trkpt lat="-29.6514181" lon="151.7993005">
<ele>1037.594</ele>
<time>2017-04-06T06:38:23.649Z</time>
</trkpt>
<trkpt lat="-29.6518174" lon="151.7985955">
<ele>1037.387</ele>
<time>2017-04-06T06:38:26.619Z</time>
</trkpt>
<trkpt lat="-29.6521725" lon="151.7978461">
<ele>1037.431</ele>
<time>2017-04-06T06:38:29.626Z</time>
</trkpt>
<trkpt lat="-29.6524292" lon="151.7973698">
<ele>1037.765</ele>
<time>2017-04-06T06:38:31.613Z</time>
</trkpt>
<trkpt lat="-29.6528025" lon="151.7966563">
<ele>1038.122</ele>
<time>2017-04-06T06:38:34.560Z</time>
</trkpt>
<trkpt lat="-29.6530441" lon="151.7961590">
<ele>1038.169</ele>
<time>2017-04-06T06:38:36.527Z</time>
</trkpt>
<trkpt lat="-29.6532671" lon="151.7956129">
<ele>1037.894</ele>
<time>2017-04-06T06:38:38.435Z</time>
</trkpt>
<trkpt lat="-29.6536424" lon="151.7946543">
<ele>1037.564</ele>
<time>2017-04-06T06:38:41.441Z</time>
</trkpt>
<trkpt lat="-29.6541197" lon="151.7935803">
<ele>1037.906</ele>
<time>2017-04-06T06:38:44.523Z</time>
</trkpt>
<trkpt lat="-29.6544437" lon="151.7928723">
<ele>1039.464</ele>
<time>2017-04-06T06:38:46.531Z</time>
</trkpt>
<trkpt lat="-29.6548042" lon="151.7922214">
<ele>1041.513</ele>
<time>2017-04-06T06:38:48.617Z</time>
</trkpt>
<trkpt lat="-29.6552645" lon="151.7913528">
<ele>1042.560</ele>
<time>2017-04-06T06:38:51.549Z</time>
</trkpt>
<trkpt lat="-29.6555360" lon="151.7908001">
<ele>1041.705</ele>
<time>2017-04-06T06:38:53.552Z</time>
</trkpt>
<trkpt lat="-29.6558927" lon="151.7899941">
<ele>1039.177</ele>
<time>2017-04-06T06:38:56.491Z</time>
</trkpt>
<trkpt lat="-29.6560899" lon="151.7894336">
<ele>1035.949</ele>
<time>2017-04-06T06:38:58.476Z</time>
</trkpt>
<trkpt lat="-29.6562511" lon="151.7888519">
<ele>1032.937</ele>
<time>2017-04-06T06:39:00.474Z</time>
</trkpt>
<trkpt lat="-29.6563858" lon="151.7882578">
<ele>1030.664</ele>
<time>2017-04-06T06:39:02.479Z</time>
</trkpt>
<trkpt lat="-29.6564898" lon="151.7876638">
<ele>1029.127</ele>
<time>2017-04-06T06:39:04.455Z</time>
</trkpt>
<trkpt lat="-29.6565758" lon="151.7870649">
<ele>1027.967</ele>
<time>2017-04-06T06:39:06.432Z</time>
</trkpt>
<trkpt lat="-29.6566677" lon="151.7861486">
<ele>1026.919</ele>
<time>2017-04-06T06:39:09.434Z</time>
</trkpt>
<trkpt lat="-29.6567332" lon="151.7855384">
<ele>1025.857</ele>
<time>2017-04-06T06:39:11.435Z</time>
</trkpt>
<trkpt lat="-29.6569050" lon="151.7846380">
<ele>1024.758</ele>
<time>2017-04-06T06:39:14.432Z</time>
</trkpt>
<trkpt lat="-29.6570437" lon="151.7840414">
<ele>1023.612</ele>
<time>2017-04-06T06:39:16.432Z</time>
</trkpt>
<trkpt lat="-29.6572222" lon="151.7834604">
<ele>1022.411</ele>
<time>2017-04-06T06:39:18.421Z</time>
</trkpt>
<trkpt lat="-29.6574674" lon="151.7829155">
<ele>1021.309</ele>
<time>2017-04-06T06:39:20.406Z</time>
</trkpt>
<trkpt lat="-29.6578796" lon="151.7821359">
<ele>1020.440</ele>
<time>2017-04-06T06:39:23.370Z</time>
</trkpt>
<trkpt lat="-29.6581664" lon="151.7816297">
<ele>1019.745</ele>
<time>2017-04-06T06:39:25.340Z</time>
</trkpt>
<trkpt lat="-29.6585379" lon="151.7811908">
<ele>1019.155</ele>
<time>2017-04-06T06:39:27.340Z</time>
</trkpt>
<trkpt lat="-29.6589371" lon="151.7807799">
<ele>1018.629</ele>
<time>2017-04-06T06:39:29.354Z</time>
</trkpt>
<trkpt lat="-29.6595593" lon="151.7802245">
<ele>1018.159</ele>
<time>2017-04-06T06:39:32.315Z</time>
</trkpt>
<trkpt lat="-29.6599916" lon="151.7798724">
<ele>1017.987</ele>
<time>2017-04-06T06:39:34.306Z</time>
</trkpt>
<trkpt lat="-29.6606873" lon="151.7794258">
<ele>1018.307</ele>
<time>2017-04-06T06:39:37.299Z</time>
</trkpt>
<trkpt lat="-29.6611559" lon="151.7791390">
<ele>1018.853</ele>
<time>2017-04-06T06:39:39.293Z</time>
</trkpt>
<trkpt lat="-29.6616050" lon="151.7788038">
<ele>1019.258</ele>
<time>2017-04-06T06:39:41.307Z</time>
</trkpt>
<trkpt lat="-29.6622990" lon="151.7783657">
<ele>1019.471</ele>
<time>2017-04-06T06:39:44.287Z</time>
</trkpt>
<trkpt lat="-29.6627442" lon="151.7780278">
<ele>1019.664</ele>
<time>2017-04-06T06:39:46.294Z</time>
</trkpt>
<trkpt lat="-29.6634378" lon="151.7775595">
<ele>1019.933</ele>
<time>2017-04-06T06:39:49.317Z</time>
</trkpt>
<trkpt lat="-29.6638993" lon="151.7772433">
<ele>1020.215</ele>
<time>2017-04-06T06:39:51.334Z</time>
</trkpt>
<trkpt lat="-29.6645824" lon="151.7767782">
<ele>1020.419</ele>
<time>2017-04-06T06:39:54.315Z</time>
</trkpt>
<trkpt lat="-29.6650303" lon="151.7764516">
<ele>1020.640</ele>
<time>2017-04-06T06:39:56.301Z</time>
</trkpt>
<trkpt lat="-29.6656860" lon="151.7758937">
<ele>1021.129</ele>
<time>2017-04-06T06:39:59.348Z</time>
</trkpt>
<trkpt lat="-29.6662750" lon="151.7752799">
<ele>1022.029</ele>
<time>2017-04-06T06:40:02.316Z</time>
</trkpt>
<trkpt lat="-29.6666905" lon="151.7748860">
<ele>1023.287</ele>
<time>2017-04-06T06:40:04.323Z</time>
</trkpt>
<trkpt lat="-29.6672830" lon="151.7742615">
<ele>1024.706</ele>
<time>2017-04-06T06:40:07.315Z</time>
</trkpt>
<trkpt lat="-29.6677047" lon="151.7738878">
<ele>1026.003</ele>
<time>2017-04-06T06:40:09.301Z</time>
</trkpt>
<trkpt lat="-29.6681224" lon="151.7735068">
<ele>1027.008</ele>
<time>2017-04-06T06:40:11.291Z</time>
</trkpt>
<trkpt lat="-29.6685695" lon="151.7731658">
<ele>1027.813</ele>
<time>2017-04-06T06:40:13.297Z</time>
</trkpt>
<trkpt lat="-29.6692481" lon="151.7726844">
<ele>1028.584</ele>
<time>2017-04-06T06:40:16.283Z</time>
</trkpt>
<trkpt lat="-29.6699668" lon="151.7722809">
<ele>1029.473</ele>
<time>2017-04-06T06:40:19.277Z</time>
</trkpt>
<trkpt lat="-29.6704487" lon="151.7720174">
<ele>1030.701</ele>
<time>2017-04-06T06:40:21.271Z</time>
</trkpt>
<trkpt lat="-29.6712220" lon="151.7717635">
<ele>1032.176</ele>
<time>2017-04-06T06:40:24.275Z</time>
</trkpt>
<trkpt lat="-29.6719841" lon="151.7714907">
<ele>1033.420</ele>
<time>2017-04-06T06:40:27.259Z</time>
</trkpt>
<trkpt lat="-29.6724881" lon="151.7713086">
<ele>1034.219</ele>
<time>2017-04-06T06:40:29.240Z</time>
</trkpt>
<trkpt lat="-29.6732533" lon="151.7710410">
<ele>1034.662</ele>
<time>2017-04-06T06:40:32.235Z</time>
</trkpt>
<trkpt lat="-29.6737588" lon="151.7708369">
<ele>1034.809</ele>
<time>2017-04-06T06:40:34.234Z</time>
</trkpt>
<trkpt lat="-29.6745126" lon="151.7705249">
<ele>1034.774</ele>
<time>2017-04-06T06:40:37.221Z</time>
</trkpt>
<trkpt lat="-29.6752751" lon="151.7702494">
<ele>1034.770</ele>
<time>2017-04-06T06:40:40.214Z</time>
</trkpt>
<trkpt lat="-29.6757692" lon="151.7700311">
<ele>1035.138</ele>
<time>2017-04-06T06:40:42.204Z</time>
</trkpt>
<trkpt lat="-29.6765207" lon="151.7697349">
<ele>1036.042</ele>
<time>2017-04-06T06:40:45.189Z</time>
</trkpt>
<trkpt lat="-29.6770166" lon="151.7695122">
<ele>1037.271</ele>
<time>2017-04-06T06:40:47.187Z</time>
</trkpt>
<trkpt lat="-29.6775075" lon="151.7692822">
<ele>1038.521</ele>
<time>2017-04-06T06:40:49.177Z</time>
</trkpt>
<trkpt lat="-29.6782563" lon="151.7689662">
<ele>1039.608</ele>
<time>2017-04-06T06:40:52.174Z</time>
</trkpt>
<trkpt lat="-29.6787315" lon="151.7686707">
<ele>1040.658</ele>
<time>2017-04-06T06:40:54.198Z</time>
</trkpt>
<trkpt lat="-29.6794646" lon="151.7682931">
<ele>1041.957</ele>
<time>2017-04-06T06:40:57.201Z</time>
</trkpt>
<trkpt lat="-29.6799504" lon="151.7680269">
<ele>1043.535</ele>
<time>2017-04-06T06:40:59.209Z</time>
</trkpt>
<trkpt lat="-29.6804241" lon="151.7677370">
<ele>1045.137</ele>
<time>2017-04-06T06:41:01.214Z</time>
</trkpt>
<trkpt lat="-29.6809033" lon="151.7674646">
<ele>1046.631</ele>
<time>2017-04-06T06:41:03.212Z</time>
</trkpt>
<trkpt lat="-29.6815927" lon="151.7669984">
<ele>1048.027</ele>
<time>2017-04-06T06:41:06.198Z</time>
</trkpt>
<trkpt lat="-29.6820590" lon="151.7667048">
<ele>1049.202</ele>
<time>2017-04-06T06:41:08.181Z</time>
</trkpt>
<trkpt lat="-29.6825033" lon="151.7663621">
<ele>1049.973</ele>
<time>2017-04-06T06:41:10.177Z</time>
</trkpt>
<trkpt lat="-29.6829584" lon="151.7660408">
<ele>1050.497</ele>
<time>2017-04-06T06:41:12.170Z</time>
</trkpt>
<trkpt lat="-29.6836170" lon="151.7655190">
<ele>1051.041</ele>
<time>2017-04-06T06:41:15.158Z</time>
</trkpt>
<trkpt lat="-29.6840301" lon="151.7651284">
<ele>1051.635</ele>
<time>2017-04-06T06:41:17.158Z</time>
</trkpt>
<trkpt lat="-29.6846754" lon="151.7645923">
<ele>1052.109</ele>
<time>2017-04-06T06:41:20.138Z</time>
</trkpt>
<trkpt lat="-29.6850999" lon="151.7642204">
<ele>1052.517</ele>
<time>2017-04-06T06:41:22.134Z</time>
</trkpt>
<trkpt lat="-29.6855306" lon="151.7638454">
<ele>1053.120</ele>
<time>2017-04-06T06:41:24.149Z</time>
</trkpt>
<trkpt lat="-29.6861304" lon="151.7632305">
<ele>1053.955</ele>
<time>2017-04-06T06:41:27.141Z</time>
</trkpt>
<trkpt lat="-29.6867011" lon="151.7625753">
<ele>1054.761</ele>
<time>2017-04-06T06:41:30.140Z</time>
</trkpt>
<trkpt lat="-29.6870864" lon="151.7621380">
<ele>1055.304</ele>
<time>2017-04-06T06:41:32.154Z</time>
</trkpt>
<trkpt lat="-29.6876692" lon="151.7614921">
<ele>1055.341</ele>
<time>2017-04-06T06:41:35.175Z</time>
</trkpt>
<trkpt lat="-29.6880225" lon="151.7610353">
<ele>1054.567</ele>
<time>2017-04-06T06:41:37.164Z</time>
</trkpt>
<trkpt lat="-29.6885748" lon="151.7603691">
<ele>1053.048</ele>
<time>2017-04-06T06:41:40.158Z</time>
</trkpt>
<trkpt lat="-29.6889368" lon="151.7599221">
<ele>1051.140</ele>
<time>2017-04-06T06:41:42.139Z</time>
</trkpt>
<trkpt lat="-29.6894879" lon="151.7592493">
<ele>1049.061</ele>
<time>2017-04-06T06:41:45.135Z</time>
</trkpt>
<trkpt lat="-29.6898733" lon="151.7588185">
<ele>1046.880</ele>
<time>2017-04-06T06:41:47.143Z</time>
</trkpt>
<trkpt lat="-29.6903859" lon="151.7581183">
<ele>1044.792</ele>
<time>2017-04-06T06:41:50.124Z</time>
</trkpt>
<trkpt lat="-29.6907488" lon="151.7576723">
<ele>1043.051</ele>
<time>2017-04-06T06:41:52.115Z</time>
</trkpt>
<trkpt lat="-29.6912787" lon="151.7569775">
<ele>1041.861</ele>
<time>2017-04-06T06:41:55.124Z</time>
</trkpt>
<trkpt lat="-29.6916558" lon="151.7565517">
<ele>1041.349</ele>
<time>2017-04-06T06:41:57.106Z</time>
</trkpt>
<trkpt lat="-29.6921919" lon="151.7558862">
<ele>1041.480</ele>
<time>2017-04-06T06:42:00.068Z</time>
</trkpt>
<trkpt lat="-29.6924855" lon="151.7553696">
<ele>1042.091</ele>
<time>2017-04-06T06:42:02.082Z</time>
</trkpt>
<trkpt lat="-29.6929277" lon="151.7546095">
<ele>1043.029</ele>
<time>2017-04-06T06:42:05.067Z</time>
</trkpt>
<trkpt lat="-29.6933368" lon="151.7538264">
<ele>1044.121</ele>
<time>2017-04-06T06:42:08.052Z</time>
</trkpt>
<trkpt lat="-29.6937069" lon="151.7530189">
<ele>1045.343</ele>
<time>2017-04-06T06:42:11.040Z</time>
</trkpt>
<trkpt lat="-29.6941176" lon="151.7522291">
<ele>1046.843</ele>
<time>2017-04-06T06:42:14.049Z</time>
</trkpt>
<trkpt lat="-29.6945655" lon="151.7514668">
<ele>1048.594</ele>
<time>2017-04-06T06:42:17.041Z</time>
</trkpt>
<trkpt lat="-29.6951246" lon="151.7507978">
<ele>1050.388</ele>
<time>2017-04-06T06:42:20.046Z</time>
</trkpt>
<trkpt lat="-29.6955012" lon="151.7503541">
<ele>1051.893</ele>
<time>2017-04-06T06:42:22.048Z</time>
</trkpt>
<trkpt lat="-29.6961408" lon="151.7497903">
<ele>1052.789</ele>
<time>2017-04-06T06:42:25.041Z</time>
</trkpt>
<trkpt lat="-29.6965880" lon="151.7494435">
<ele>1052.856</ele>
<time>2017-04-06T06:42:27.052Z</time>
</trkpt>
<trkpt lat="-29.6972498" lon="151.7489238">
<ele>1052.067</ele>
<time>2017-04-06T06:42:30.045Z</time>
</trkpt>
<trkpt lat="-29.6976870" lon="151.7485639">
<ele>1050.506</ele>
<time>2017-04-06T06:42:32.052Z</time>
</trkpt>
<trkpt lat="-29.6983308" lon="151.7480108">
<ele>1048.418</ele>
<time>2017-04-06T06:42:35.049Z</time>
</trkpt>
<trkpt lat="-29.6989599" lon="151.7474357">
<ele>1045.965</ele>
<time>2017-04-06T06:42:38.049Z</time>
</trkpt>
<trkpt lat="-29.6995813" lon="151.7468527">
<ele>1043.109</ele>
<time>2017-04-06T06:42:41.045Z</time>
</trkpt>
<trkpt lat="-29.6999742" lon="151.7464382">
<ele>1039.984</ele>
<time>2017-04-06T06:42:43.039Z</time>
</trkpt>
<trkpt lat="-29.7006217" lon="151.7459045">
<ele>1037.155</ele>
<time>2017-04-06T06:42:46.024Z</time>
</trkpt>
<trkpt lat="-29.7010532" lon="151.7455402">
<ele>1034.963</ele>
<time>2017-04-06T06:42:48.031Z</time>
</trkpt>
<trkpt lat="-29.7015090" lon="151.7452385">
<ele>1033.294</ele>
<time>2017-04-06T06:42:50.002Z</time>
</trkpt>
<trkpt lat="-29.7022437" lon="151.7448778">
<ele>1031.967</ele>
<time>2017-04-06T06:42:53.002Z</time>
</trkpt>
<trkpt lat="-29.7029951" lon="151.7445812">
<ele>1030.778</ele>
<time>2017-04-06T06:42:55.991Z</time>
</trkpt>
<trkpt lat="-29.7035178" lon="151.7444604">
<ele>1029.457</ele>
<time>2017-04-06T06:42:57.995Z</time>
</trkpt>
<trkpt lat="-29.7043115" lon="151.7443209">
<ele>1028.054</ele>
<time>2017-04-06T06:43:01.012Z</time>
</trkpt>
<trkpt lat="-29.7048383" lon="151.7442373">
<ele>1026.785</ele>
<time>2017-04-06T06:43:03.011Z</time>
</trkpt>
<trkpt lat="-29.7053626" lon="151.7441322">
<ele>1025.739</ele>
<time>2017-04-06T06:43:05.040Z</time>
</trkpt>
<trkpt lat="-29.7061170" lon="151.7440074">
<ele>1024.841</ele>
<time>2017-04-06T06:43:08.030Z</time>
</trkpt>
<trkpt lat="-29.7068423" lon="151.7438999">
<ele>1023.869</ele>
<time>2017-04-06T06:43:11.006Z</time>
</trkpt>
<trkpt lat="-29.7073170" lon="151.7438139">
<ele>1022.796</ele>
<time>2017-04-06T06:43:12.997Z</time>
</trkpt>
<trkpt lat="-29.7077827" lon="151.7436872">
<ele>1021.891</ele>
<time>2017-04-06T06:43:14.996Z</time>
</trkpt>
<trkpt lat="-29.7082483" lon="151.7435902">
<ele>1021.247</ele>
<time>2017-04-06T06:43:17.002Z</time>
</trkpt>
<trkpt lat="-29.7089237" lon="151.7434385">
<ele>1020.738</ele>
<time>2017-04-06T06:43:19.963Z</time>
</trkpt>
<trkpt lat="-29.7093776" lon="151.7433815">
<ele>1020.348</ele>
<time>2017-04-06T06:43:21.924Z</time>
</trkpt>
<trkpt lat="-29.7098590" lon="151.7432559">
<ele>1020.186</ele>
<time>2017-04-06T06:43:23.931Z</time>
</trkpt>
<trkpt lat="-29.7104230" lon="151.7431148">
<ele>1020.356</ele>
<time>2017-04-06T06:43:26.015Z</time>
</trkpt>
<trkpt lat="-29.7113817" lon="151.7429297">
<ele>1021.000</ele>
<time>2017-04-06T06:43:29.173Z</time>
</trkpt>
<trkpt lat="-29.7120397" lon="151.7428587">
<ele>1022.697</ele>
<time>2017-04-06T06:43:31.254Z</time>
</trkpt>
<trkpt lat="-29.7129186" lon="151.7427160">
<ele>1025.350</ele>
<time>2017-04-06T06:43:34.206Z</time>
</trkpt>
<trkpt lat="-29.7134374" lon="151.7426127">
<ele>1027.565</ele>
<time>2017-04-06T06:43:36.141Z</time>
</trkpt>
<trkpt lat="-29.7141912" lon="151.7424557">
<ele>1028.331</ele>
<time>2017-04-06T06:43:39.059Z</time>
</trkpt>
<trkpt lat="-29.7149803" lon="151.7423382">
<ele>1027.996</ele>
<time>2017-04-06T06:43:42.099Z</time>
</trkpt>
<trkpt lat="-29.7155062" lon="151.7422545">
<ele>1027.337</ele>
<time>2017-04-06T06:43:44.105Z</time>
</trkpt>
<trkpt lat="-29.7162902" lon="151.7420971">
<ele>1026.929</ele>
<time>2017-04-06T06:43:47.103Z</time>
</trkpt>
<trkpt lat="-29.7168118" lon="151.7419954">
<ele>1026.902</ele>
<time>2017-04-06T06:43:49.095Z</time>
</trkpt>
<trkpt lat="-29.7173343" lon="151.7418839">
<ele>1027.242</ele>
<time>2017-04-06T06:43:51.097Z</time>
</trkpt>
<trkpt lat="-29.7181195" lon="151.7417614">
<ele>1027.923</ele>
<time>2017-04-06T06:43:54.084Z</time>
</trkpt>
<trkpt lat="-29.7186467" lon="151.7416302">
<ele>1028.959</ele>
<time>2017-04-06T06:43:56.115Z</time>
</trkpt>
<trkpt lat="-29.7194309" lon="151.7415082">
<ele>1030.212</ele>
<time>2017-04-06T06:43:59.107Z</time>
</trkpt>
<trkpt lat="-29.7202086" lon="151.7413812">
<ele>1031.276</ele>
<time>2017-04-06T06:44:02.104Z</time>
</trkpt>
<trkpt lat="-29.7207228" lon="151.7412915">
<ele>1031.876</ele>
<time>2017-04-06T06:44:04.097Z</time>
</trkpt>
<trkpt lat="-29.7214913" lon="151.7411520">
<ele>1032.126</ele>
<time>2017-04-06T06:44:07.145Z</time>
</trkpt>
<trkpt lat="-29.7221746" lon="151.7410235">
<ele>1032.218</ele>
<time>2017-04-06T06:44:10.065Z</time>
</trkpt>
<trkpt lat="-29.7225727" lon="151.7409314">
<ele>1032.025</ele>
<time>2017-04-06T06:44:11.974Z</time>
</trkpt>
<trkpt lat="-29.7231432" lon="151.7407902">
<ele>1031.219</ele>
<time>2017-04-06T06:44:14.862Z</time>
</trkpt>
<trkpt lat="-29.7235388" lon="151.7407569">
<ele>1029.839</ele>
<time>2017-04-06T06:44:16.872Z</time>
</trkpt>
<trkpt lat="-29.7241190" lon="151.7406415">
<ele>1028.378</ele>
<time>2017-04-06T06:44:19.848Z</time>
</trkpt>
<trkpt lat="-29.7247043" lon="151.7405420">
<ele>1027.237</ele>
<time>2017-04-06T06:44:22.829Z</time>
</trkpt>
<trkpt lat="-29.7250929" lon="151.7404478">
<ele>1026.493</ele>
<time>2017-04-06T06:44:24.824Z</time>
</trkpt>
<trkpt lat="-29.7256849" lon="151.7403539">
<ele>1026.091</ele>
<time>2017-04-06T06:44:27.821Z</time>
</trkpt>
<trkpt lat="-29.7262717" lon="151.7402394">
<ele>1025.924</ele>
<time>2017-04-06T06:44:30.797Z</time>
</trkpt>
<trkpt lat="-29.7266680" lon="151.7401763">
<ele>1025.802</ele>
<time>2017-04-06T06:44:32.796Z</time>
</trkpt>
<trkpt lat="-29.7270602" lon="151.7400936">
<ele>1025.630</ele>
<time>2017-04-06T06:44:34.791Z</time>
</trkpt>
<trkpt lat="-29.7276560" lon="151.7399949">
<ele>1025.377</ele>
<time>2017-04-06T06:44:37.799Z</time>
</trkpt>
<trkpt lat="-29.7280465" lon="151.7399036">
<ele>1025.045</ele>
<time>2017-04-06T06:44:39.788Z</time>
</trkpt>
<trkpt lat="-29.7286418" lon="151.7398144">
<ele>1024.733</ele>
<time>2017-04-06T06:44:42.782Z</time>
</trkpt>
<trkpt lat="-29.7292385" lon="151.7397257">
<ele>1024.529</ele>
<time>2017-04-06T06:44:45.777Z</time>
</trkpt>
<trkpt lat="-29.7296317" lon="151.7396626">
<ele>1024.482</ele>
<time>2017-04-06T06:44:47.753Z</time>
</trkpt>
<trkpt lat="-29.7300219" lon="151.7395789">
<ele>1024.642</ele>
<time>2017-04-06T06:44:49.736Z</time>
</trkpt>
<trkpt lat="-29.7306105" lon="151.7395024">
<ele>1024.922</ele>
<time>2017-04-06T06:44:52.735Z</time>
</trkpt>
<trkpt lat="-29.7309706" lon="151.7394039">
<ele>1025.118</ele>
<time>2017-04-06T06:44:54.743Z</time>
</trkpt>
<trkpt lat="-29.7314356" lon="151.7393383">
<ele>1025.071</ele>
<time>2017-04-06T06:44:57.522Z</time>
</trkpt>
<trkpt lat="-29.7317083" lon="151.7392456">
<ele>1024.717</ele>
<time>2017-04-06T06:44:59.385Z</time>
</trkpt>
<trkpt lat="-29.7319982" lon="151.7392048">
<ele>1024.135</ele>
<time>2017-04-06T06:45:01.352Z</time>
</trkpt>
<trkpt lat="-29.7322984" lon="151.7392012">
<ele>1023.573</ele>
<time>2017-04-06T06:45:03.365Z</time>
</trkpt>
<trkpt lat="-29.7327447" lon="151.7391325">
<ele>1023.244</ele>
<time>2017-04-06T06:45:06.368Z</time>
</trkpt>
<trkpt lat="-29.7330408" lon="151.7390769">
<ele>1023.151</ele>
<time>2017-04-06T06:45:08.357Z</time>
</trkpt>
<trkpt lat="-29.7334814" lon="151.7389507">
<ele>1023.179</ele>
<time>2017-04-06T06:45:11.357Z</time>
</trkpt>
<trkpt lat="-29.7337764" lon="151.7388986">
<ele>1023.277</ele>
<time>2017-04-06T06:45:13.334Z</time>
</trkpt>
<trkpt lat="-29.7340746" lon="151.7388543">
<ele>1023.463</ele>
<time>2017-04-06T06:45:15.332Z</time>
</trkpt>
<trkpt lat="-29.7345120" lon="151.7387397">
<ele>1023.769</ele>
<time>2017-04-06T06:45:18.330Z</time>
</trkpt>
<trkpt lat="-29.7347993" lon="151.7386966">
<ele>1024.278</ele>
<time>2017-04-06T06:45:20.287Z</time>
</trkpt>
<trkpt lat="-29.7352382" lon="151.7386544">
<ele>1025.076</ele>
<time>2017-04-06T06:45:23.282Z</time>
</trkpt>
<trkpt lat="-29.7355258" lon="151.7385704">
<ele>1026.206</ele>
<time>2017-04-06T06:45:25.305Z</time>
</trkpt>
<trkpt lat="-29.7358161" lon="151.7385646">
<ele>1027.590</ele>
<time>2017-04-06T06:45:27.282Z</time>
</trkpt>
<trkpt lat="-29.7362420" lon="151.7384805">
<ele>1029.013</ele>
<time>2017-04-06T06:45:30.241Z</time>
</trkpt>
<trkpt lat="-29.7366246" lon="151.7384079">
<ele>1030.246</ele>
<time>2017-04-06T06:45:33.066Z</time>
</trkpt>
<trkpt lat="-29.7368566" lon="151.7384253">
<ele>1031.099</ele>
<time>2017-04-06T06:45:34.934Z</time>
</trkpt>
<trkpt lat="-29.7371597" lon="151.7383855">
<ele>1031.472</ele>
<time>2017-04-06T06:45:37.622Z</time>
</trkpt>
<trkpt lat="-29.7373191" lon="151.7383232">
<ele>1031.482</ele>
<time>2017-04-06T06:45:39.279Z</time>
</trkpt>
<trkpt lat="-29.7374574" lon="151.7383282">
<ele>1031.339</ele>
<time>2017-04-06T06:45:40.817Z</time>
</trkpt>
<trkpt lat="-29.7377114" lon="151.7382687">
<ele>1031.214</ele>
<time>2017-04-06T06:45:43.915Z</time>
</trkpt>
<trkpt lat="-29.7380482" lon="151.7381521">
<ele>1031.203</ele>
<time>2017-04-06T06:45:47.547Z</time>
</trkpt>
<trkpt lat="-29.7382865" lon="151.7381068">
<ele>1031.393</ele>
<time>2017-04-06T06:45:49.674Z</time>
</trkpt>
<trkpt lat="-29.7387488" lon="151.7380751">
<ele>1031.865</ele>
<time>2017-04-06T06:45:53.262Z</time>
</trkpt>
<trkpt lat="-29.7390291" lon="151.7379949">
<ele>1032.584</ele>
<time>2017-04-06T06:45:55.312Z</time>
</trkpt>
<trkpt lat="-29.7392963" lon="151.7379269">
<ele>1033.327</ele>
<time>2017-04-06T06:45:57.219Z</time>
</trkpt>
<trkpt lat="-29.7397113" lon="151.7378620">
<ele>1033.825</ele>
<time>2017-04-06T06:46:00.190Z</time>
</trkpt>
<trkpt lat="-29.7399742" lon="151.7377854">
<ele>1034.032</ele>
<time>2017-04-06T06:46:02.159Z</time>
</trkpt>
<trkpt lat="-29.7403832" lon="151.7377404">
<ele>1034.086</ele>
<time>2017-04-06T06:46:05.154Z</time>
</trkpt>
<trkpt lat="-29.7407683" lon="151.7376479">
<ele>1034.037</ele>
<time>2017-04-06T06:46:08.065Z</time>
</trkpt>
<trkpt lat="-29.7411445" lon="151.7375785">
<ele>1033.829</ele>
<time>2017-04-06T06:46:10.970Z</time>
</trkpt>
<trkpt lat="-29.7415076" lon="151.7374855">
<ele>1033.528</ele>
<time>2017-04-06T06:46:13.888Z</time>
</trkpt>
<trkpt lat="-29.7417657" lon="151.7375091">
<ele>1033.341</ele>
<time>2017-04-06T06:46:15.946Z</time>
</trkpt>
<trkpt lat="-29.7420151" lon="151.7374611">
<ele>1033.358</ele>
<time>2017-04-06T06:46:17.955Z</time>
</trkpt>
<trkpt lat="-29.7423750" lon="151.7373935">
<ele>1033.463</ele>
<time>2017-04-06T06:46:20.884Z</time>
</trkpt>
<trkpt lat="-29.7425957" lon="151.7372930">
<ele>1033.528</ele>
<time>2017-04-06T06:46:22.851Z</time>
</trkpt>
<trkpt lat="-29.7428253" lon="151.7372413">
<ele>1033.530</ele>
<time>2017-04-06T06:46:24.830Z</time>
</trkpt>
<trkpt lat="-29.7431992" lon="151.7372278">
<ele>1033.508</ele>
<time>2017-04-06T06:46:27.944Z</time>
</trkpt>
<trkpt lat="-29.7434533" lon="151.7371871">
<ele>1033.538</ele>
<time>2017-04-06T06:46:30.008Z</time>
</trkpt>
<trkpt lat="-29.7438391" lon="151.7370863">
<ele>1033.648</ele>
<time>2017-04-06T06:46:33.095Z</time>
</trkpt>
<trkpt lat="-29.7440855" lon="151.7370216">
<ele>1033.764</ele>
<time>2017-04-06T06:46:35.050Z</time>
</trkpt>
<trkpt lat="-29.7444555" lon="151.7369763">
<ele>1033.778</ele>
<time>2017-04-06T06:46:37.974Z</time>
</trkpt>
<trkpt lat="-29.7446975" lon="151.7369108">
<ele>1033.677</ele>
<time>2017-04-06T06:46:39.947Z</time>
</trkpt>
<trkpt lat="-29.7450631" lon="151.7368726">
<ele>1033.536</ele>
<time>2017-04-06T06:46:42.893Z</time>
</trkpt>
<trkpt lat="-29.7454177" lon="151.7368041">
<ele>1033.427</ele>
<time>2017-04-06T06:46:45.798Z</time>
</trkpt>
<trkpt lat="-29.7456567" lon="151.7367144">
<ele>1033.359</ele>
<time>2017-04-06T06:46:47.821Z</time>
</trkpt>
<trkpt lat="-29.7459017" lon="151.7366861">
<ele>1033.314</ele>
<time>2017-04-06T06:46:49.800Z</time>
</trkpt>
<trkpt lat="-29.7461298" lon="151.7366673">
<ele>1033.274</ele>
<time>2017-04-06T06:46:51.667Z</time>
</trkpt>
<trkpt lat="-29.7464056" lon="151.7366332">
<ele>1033.203</ele>
<time>2017-04-06T06:46:54.254Z</time>
</trkpt>
<trkpt lat="-29.7465501" lon="151.7366276">
<ele>1032.968</ele>
<time>2017-04-06T06:46:55.799Z</time>
</trkpt>
<trkpt lat="-29.7468224" lon="151.7365821">
<ele>1032.549</ele>
<time>2017-04-06T06:46:59.063Z</time>
</trkpt>
<trkpt lat="-29.7470085" lon="151.7364961">
<ele>1032.199</ele>
<time>2017-04-06T06:47:01.261Z</time>
</trkpt>
<trkpt lat="-29.7472750" lon="151.7365343">
<ele>1032.099</ele>
<time>2017-04-06T06:47:04.103Z</time>
</trkpt>
<trkpt lat="-29.7474885" lon="151.7365024">
<ele>1032.210</ele>
<time>2017-04-06T06:47:06.382Z</time>
</trkpt>
<trkpt lat="-29.7478272" lon="151.7363701">
<ele>1032.490</ele>
<time>2017-04-06T06:47:09.770Z</time>
</trkpt>
<trkpt lat="-29.7480967" lon="151.7363533">
<ele>1033.033</ele>
<time>2017-04-06T06:47:11.976Z</time>
</trkpt>
<trkpt lat="-29.7485061" lon="151.7362480">
<ele>1033.916</ele>
<time>2017-04-06T06:47:15.081Z</time>
</trkpt>
<trkpt lat="-29.7487858" lon="151.7361792">
<ele>1034.970</ele>
<time>2017-04-06T06:47:17.112Z</time>
</trkpt>
<trkpt lat="-29.7492202" lon="151.7360855">
<ele>1035.902</ele>
<time>2017-04-06T06:47:20.179Z</time>
</trkpt>
<trkpt lat="-29.7495176" lon="151.7360343">
<ele>1036.581</ele>
<time>2017-04-06T06:47:22.222Z</time>
</trkpt>
<trkpt lat="-29.7499694" lon="151.7359456">
<ele>1037.027</ele>
<time>2017-04-06T06:47:25.309Z</time>
</trkpt>
<trkpt lat="-29.7502683" lon="151.7358955">
<ele>1037.294</ele>
<time>2017-04-06T06:47:27.336Z</time>
</trkpt>
<trkpt lat="-29.7505654" lon="151.7358429">
<ele>1037.433</ele>
<time>2017-04-06T06:47:29.353Z</time>
</trkpt>
<trkpt lat="-29.7508608" lon="151.7357925">
<ele>1037.567</ele>
<time>2017-04-06T06:47:31.360Z</time>
</trkpt>
<trkpt lat="-29.7511573" lon="151.7357428">
<ele>1037.805</ele>
<time>2017-04-06T06:47:33.375Z</time>
</trkpt>
<trkpt lat="-29.7514508" lon="151.7356790">
<ele>1038.120</ele>
<time>2017-04-06T06:47:35.379Z</time>
</trkpt>
<trkpt lat="-29.7517453" lon="151.7356111">
<ele>1038.449</ele>
<time>2017-04-06T06:47:37.383Z</time>
</trkpt>
<trkpt lat="-29.7521867" lon="151.7355308">
<ele>1038.810</ele>
<time>2017-04-06T06:47:40.366Z</time>
</trkpt>
<trkpt lat="-29.7524792" lon="151.7354659">
<ele>1039.247</ele>
<time>2017-04-06T06:47:42.365Z</time>
</trkpt>
<trkpt lat="-29.7529220" lon="151.7353949">
<ele>1039.746</ele>
<time>2017-04-06T06:47:45.362Z</time>
</trkpt>
<trkpt lat="-29.7533701" lon="151.7353148">
<ele>1040.297</ele>
<time>2017-04-06T06:47:48.373Z</time>
</trkpt>
<trkpt lat="-29.7537059" lon="151.7352569">
<ele>1040.960</ele>
<time>2017-04-06T06:47:50.456Z</time>
</trkpt>
<trkpt lat="-29.7540810" lon="151.7351852">
<ele>1041.837</ele>
<time>2017-04-06T06:47:52.546Z</time>
</trkpt>
<trkpt lat="-29.7546601" lon="151.7350320">
<ele>1043.032</ele>
<time>2017-04-06T06:47:55.597Z</time>
</trkpt>
<trkpt lat="-29.7552610" lon="151.7349412">
<ele>1044.632</ele>
<time>2017-04-06T06:47:58.616Z</time>
</trkpt>
<trkpt lat="-29.7556590" lon="151.7348649">
<ele>1046.586</ele>
<time>2017-04-06T06:48:00.618Z</time>
</trkpt>
<trkpt lat="-29.7562495" lon="151.7347480">
<ele>1048.594</ele>
<time>2017-04-06T06:48:03.603Z</time>
</trkpt>
<trkpt lat="-29.7568339" lon="151.7346225">
<ele>1050.465</ele>
<time>2017-04-06T06:48:06.577Z</time>
</trkpt>
<trkpt lat="-29.7574340" lon="151.7345588">
<ele>1052.312</ele>
<time>2017-04-06T06:48:09.589Z</time>
</trkpt>
<trkpt lat="-29.7580325" lon="151.7344793">
<ele>1054.268</ele>
<time>2017-04-06T06:48:12.599Z</time>
</trkpt>
<trkpt lat="-29.7584154" lon="151.7343510">
<ele>1056.466</ele>
<time>2017-04-06T06:48:14.594Z</time>
</trkpt>
<trkpt lat="-29.7588112" lon="151.7342965">
<ele>1058.881</ele>
<time>2017-04-06T06:48:16.588Z</time>
</trkpt>
<trkpt lat="-29.7592081" lon="151.7342128">
<ele>1061.211</ele>
<time>2017-04-06T06:48:18.601Z</time>
</trkpt>
<trkpt lat="-29.7598029" lon="151.7340866">
<ele>1063.227</ele>
<time>2017-04-06T06:48:21.609Z</time>
</trkpt>
<trkpt lat="-29.7602038" lon="151.7340261">
<ele>1064.994</ele>
<time>2017-04-06T06:48:23.611Z</time>
</trkpt>
<trkpt lat="-29.7608066" lon="151.7339307">
<ele>1066.617</ele>
<time>2017-04-06T06:48:26.621Z</time>
</trkpt>
<trkpt lat="-29.7612012" lon="151.7338691">
<ele>1068.099</ele>
<time>2017-04-06T06:48:28.599Z</time>
</trkpt>
<trkpt lat="-29.7617940" lon="151.7337470">
<ele>1069.344</ele>
<time>2017-04-06T06:48:31.603Z</time>
</trkpt>
<trkpt lat="-29.7623893" lon="151.7336222">
<ele>1070.304</ele>
<time>2017-04-06T06:48:34.622Z</time>
</trkpt>
<trkpt lat="-29.7629879" lon="151.7335111">
<ele>1071.148</ele>
<time>2017-04-06T06:48:37.630Z</time>
</trkpt>
<trkpt lat="-29.7633893" lon="151.7334446">
<ele>1072.142</ele>
<time>2017-04-06T06:48:39.634Z</time>
</trkpt>
<trkpt lat="-29.7639787" lon="151.7332991">
<ele>1073.263</ele>
<time>2017-04-06T06:48:42.616Z</time>
</trkpt>
<trkpt lat="-29.7645769" lon="151.7331721">
<ele>1074.313</ele>
<time>2017-04-06T06:48:45.629Z</time>
</trkpt>
<trkpt lat="-29.7649801" lon="151.7331330">
<ele>1075.192</ele>
<time>2017-04-06T06:48:47.635Z</time>
</trkpt>
<trkpt lat="-29.7653729" lon="151.7330500">
<ele>1075.912</ele>
<time>2017-04-06T06:48:49.631Z</time>
</trkpt>
<trkpt lat="-29.7659354" lon="151.7328834">
<ele>1076.517</ele>
<time>2017-04-06T06:48:52.585Z</time>
</trkpt>
<trkpt lat="-29.7665158" lon="151.7328227">
<ele>1077.047</ele>
<time>2017-04-06T06:48:55.586Z</time>
</trkpt>
<trkpt lat="-29.7670803" lon="151.7326953">
<ele>1077.467</ele>
<time>2017-04-06T06:48:58.572Z</time>
</trkpt>
<trkpt lat="-29.7674255" lon="151.7326087">
<ele>1077.698</ele>
<time>2017-04-06T06:49:00.487Z</time>
</trkpt>
<trkpt lat="-29.7677664" lon="151.7325736">
<ele>1077.734</ele>
<time>2017-04-06T06:49:02.424Z</time>
</trkpt>
<trkpt lat="-29.7682866" lon="151.7324862">
<ele>1077.663</ele>
<time>2017-04-06T06:49:05.403Z</time>
</trkpt>
<trkpt lat="-29.7686455" lon="151.7324039">
<ele>1077.608</ele>
<time>2017-04-06T06:49:07.427Z</time>
</trkpt>
<trkpt lat="-29.7691962" lon="151.7323245">
<ele>1077.686</ele>
<time>2017-04-06T06:49:10.444Z</time>
</trkpt>
<trkpt lat="-29.7697536" lon="151.7322449">
<ele>1077.936</ele>
<time>2017-04-06T06:49:13.483Z</time>
</trkpt>
<trkpt lat="-29.7703033" lon="151.7321914">
<ele>1078.283</ele>
<time>2017-04-06T06:49:16.479Z</time>
</trkpt>
<trkpt lat="-29.7706649" lon="151.7321055">
<ele>1078.631</ele>
<time>2017-04-06T06:49:18.466Z</time>
</trkpt>
<trkpt lat="-29.7710502" lon="151.7320674">
<ele>1078.975</ele>
<time>2017-04-06T06:49:20.495Z</time>
</trkpt>
<trkpt lat="-29.7716307" lon="151.7319283">
<ele>1079.429</ele>
<time>2017-04-06T06:49:23.531Z</time>
</trkpt>
<trkpt lat="-29.7722027" lon="151.7318193">
<ele>1080.060</ele>
<time>2017-04-06T06:49:26.478Z</time>
</trkpt>
<trkpt lat="-29.7725844" lon="151.7317616">
<ele>1080.742</ele>
<time>2017-04-06T06:49:28.434Z</time>
</trkpt>
<trkpt lat="-29.7729803" lon="151.7316954">
<ele>1081.352</ele>
<time>2017-04-06T06:49:30.441Z</time>
</trkpt>
<trkpt lat="-29.7736174" lon="151.7315927">
<ele>1081.941</ele>
<time>2017-04-06T06:49:33.620Z</time>
</trkpt>
<trkpt lat="-29.7740100" lon="151.7315105">
<ele>1082.616</ele>
<time>2017-04-06T06:49:35.587Z</time>
</trkpt>
<trkpt lat="-29.7743945" lon="151.7314395">
<ele>1083.342</ele>
<time>2017-04-06T06:49:37.520Z</time>
</trkpt>
<trkpt lat="-29.7748093" lon="151.7313117">
<ele>1083.949</ele>
<time>2017-04-06T06:49:39.610Z</time>
</trkpt>
<trkpt lat="-29.7752601" lon="151.7312166">
<ele>1084.450</ele>
<time>2017-04-06T06:49:41.723Z</time>
</trkpt>
<trkpt lat="-29.7759470" lon="151.7311625">
<ele>1085.076</ele>
<time>2017-04-06T06:49:44.794Z</time>
</trkpt>
<trkpt lat="-29.7765915" lon="151.7311472">
<ele>1085.899</ele>
<time>2017-04-06T06:49:47.718Z</time>
</trkpt>
<trkpt lat="-29.7772250" lon="151.7311856">
<ele>1086.716</ele>
<time>2017-04-06T06:49:50.679Z</time>
</trkpt>
<trkpt lat="-29.7778913" lon="151.7312605">
<ele>1087.346</ele>
<time>2017-04-06T06:49:53.746Z</time>
</trkpt>
<trkpt lat="-29.7783431" lon="151.7312795">
<ele>1087.855</ele>
<time>2017-04-06T06:49:55.776Z</time>
</trkpt>
<trkpt lat="-29.7789891" lon="151.7313608">
<ele>1088.280</ele>
<time>2017-04-06T06:49:58.738Z</time>
</trkpt>
<trkpt lat="-29.7793962" lon="151.7314308">
<ele>1088.434</ele>
<time>2017-04-06T06:50:00.689Z</time>
</trkpt>
<trkpt lat="-29.7800153" lon="151.7314072">
<ele>1088.243</ele>
<time>2017-04-06T06:50:03.660Z</time>
</trkpt>
<trkpt lat="-29.7806978" lon="151.7315056">
<ele>1087.926</ele>
<time>2017-04-06T06:50:06.783Z</time>
</trkpt>
<trkpt lat="-29.7812262" lon="151.7315314">
<ele>1087.739</ele>
<time>2017-04-06T06:50:08.880Z</time>
</trkpt>
<trkpt lat="-29.7818281" lon="151.7315724">
<ele>1087.849</ele>
<time>2017-04-06T06:50:10.937Z</time>
</trkpt>
<trkpt lat="-29.7828177" lon="151.7316483">
<ele>1088.569</ele>
<time>2017-04-06T06:50:13.973Z</time>
</trkpt>
<trkpt lat="-29.7835323" lon="151.7317082">
<ele>1090.345</ele>
<time>2017-04-06T06:50:15.997Z</time>
</trkpt>
<trkpt lat="-29.7842370" lon="151.7318035">
<ele>1092.787</ele>
<time>2017-04-06T06:50:18.021Z</time>
</trkpt>
<trkpt lat="-29.7852041" lon="151.7318873">
<ele>1094.725</ele>
<time>2017-04-06T06:50:20.952Z</time>
</trkpt>
<trkpt lat="-29.7857963" lon="151.7319129">
<ele>1095.631</ele>
<time>2017-04-06T06:50:22.913Z</time>
</trkpt>
<trkpt lat="-29.7863696" lon="151.7319402">
<ele>1096.623</ele>
<time>2017-04-06T06:50:24.907Z</time>
</trkpt>
<trkpt lat="-29.7871761" lon="151.7320447">
<ele>1099.009</ele>
<time>2017-04-06T06:50:27.838Z</time>
</trkpt>
<trkpt lat="-29.7879385" lon="151.7321246">
<ele>1102.417</ele>
<time>2017-04-06T06:50:30.731Z</time>
</trkpt>
<trkpt lat="-29.7884665" lon="151.7321983">
<ele>1105.276</ele>
<time>2017-04-06T06:50:32.767Z</time>
</trkpt>
<trkpt lat="-29.7892540" lon="151.7323380">
<ele>1106.585</ele>
<time>2017-04-06T06:50:35.783Z</time>
</trkpt>
<trkpt lat="-29.7900513" lon="151.7324474">
<ele>1106.197</ele>
<time>2017-04-06T06:50:38.800Z</time>
</trkpt>
<trkpt lat="-29.7905866" lon="151.7324971">
<ele>1104.522</ele>
<time>2017-04-06T06:50:40.814Z</time>
</trkpt>
<trkpt lat="-29.7911111" lon="151.7325640">
<ele>1102.130</ele>
<time>2017-04-06T06:50:42.795Z</time>
</trkpt>
<trkpt lat="-29.7919027" lon="151.7326098">
<ele>1099.565</ele>
<time>2017-04-06T06:50:45.781Z</time>
</trkpt>
<trkpt lat="-29.7926901" lon="151.7327320">
<ele>1096.988</ele>
<time>2017-04-06T06:50:48.780Z</time>
</trkpt>
<trkpt lat="-29.7934762" lon="151.7328742">
<ele>1094.346</ele>
<time>2017-04-06T06:50:51.779Z</time>
</trkpt>
<trkpt lat="-29.7940111" lon="151.7329047">
<ele>1091.972</ele>
<time>2017-04-06T06:50:53.796Z</time>
</trkpt>
<trkpt lat="-29.7945411" lon="151.7329289">
<ele>1090.340</ele>
<time>2017-04-06T06:50:55.797Z</time>
</trkpt>
<trkpt lat="-29.7953178" lon="151.7330798">
<ele>1089.507</ele>
<time>2017-04-06T06:50:58.778Z</time>
</trkpt>
<trkpt lat="-29.7958387" lon="151.7331424">
<ele>1089.134</ele>
<time>2017-04-06T06:51:00.761Z</time>
</trkpt>
<trkpt lat="-29.7963594" lon="151.7332724">
<ele>1088.886</ele>
<time>2017-04-06T06:51:02.772Z</time>
</trkpt>
<trkpt lat="-29.7968905" lon="151.7333014">
<ele>1088.758</ele>
<time>2017-04-06T06:51:04.775Z</time>
</trkpt>
<trkpt lat="-29.7976759" lon="151.7334101">
<ele>1088.820</ele>
<time>2017-04-06T06:51:07.758Z</time>
</trkpt>
<trkpt lat="-29.7981987" lon="151.7334981">
<ele>1088.938</ele>
<time>2017-04-06T06:51:09.750Z</time>
</trkpt>
<trkpt lat="-29.7989805" lon="151.7336309">
<ele>1088.903</ele>
<time>2017-04-06T06:51:12.731Z</time>
</trkpt>
<trkpt lat="-29.7997315" lon="151.7339223">
<ele>1088.658</ele>
<time>2017-04-06T06:51:15.716Z</time>
</trkpt>
<trkpt lat="-29.8004732" lon="151.7342648">
<ele>1088.236</ele>
<time>2017-04-06T06:51:18.718Z</time>
</trkpt>
<trkpt lat="-29.8009780" lon="151.7344613">
<ele>1087.630</ele>
<time>2017-04-06T06:51:20.719Z</time>
</trkpt>
<trkpt lat="-29.8014331" lon="151.7347729">
<ele>1086.898</ele>
<time>2017-04-06T06:51:22.715Z</time>
</trkpt>
<trkpt lat="-29.8021071" lon="151.7352466">
<ele>1086.211</ele>
<time>2017-04-06T06:51:25.697Z</time>
</trkpt>
<trkpt lat="-29.8025322" lon="151.7356128">
<ele>1085.541</ele>
<time>2017-04-06T06:51:27.696Z</time>
</trkpt>
<trkpt lat="-29.8031379" lon="151.7362160">
<ele>1084.700</ele>
<time>2017-04-06T06:51:30.704Z</time>
</trkpt>
<trkpt lat="-29.8035850" lon="151.7365432">
<ele>1083.680</ele>
<time>2017-04-06T06:51:32.697Z</time>
</trkpt>
<trkpt lat="-29.8040048" lon="151.7368988">
<ele>1082.720</ele>
<time>2017-04-06T06:51:34.666Z</time>
</trkpt>
<trkpt lat="-29.8046504" lon="151.7374271">
<ele>1082.010</ele>
<time>2017-04-06T06:51:37.663Z</time>
</trkpt>
<trkpt lat="-29.8050912" lon="151.7377713">
<ele>1081.551</ele>
<time>2017-04-06T06:51:39.672Z</time>
</trkpt>
<trkpt lat="-29.8055054" lon="151.7381463">
<ele>1081.270</ele>
<time>2017-04-06T06:51:41.657Z</time>
</trkpt>
<trkpt lat="-29.8059359" lon="151.7385005">
<ele>1081.159</ele>
<time>2017-04-06T06:51:43.652Z</time>
</trkpt>
<trkpt lat="-29.8065788" lon="151.7390336">
<ele>1081.229</ele>
<time>2017-04-06T06:51:46.642Z</time>
</trkpt>
<trkpt lat="-29.8070350" lon="151.7393444">
<ele>1081.438</ele>
<time>2017-04-06T06:51:48.643Z</time>
</trkpt>
<trkpt lat="-29.8076741" lon="151.7398748">
<ele>1081.677</ele>
<time>2017-04-06T06:51:51.622Z</time>
</trkpt>
<trkpt lat="-29.8081081" lon="151.7402212">
<ele>1081.891</ele>
<time>2017-04-06T06:51:53.621Z</time>
</trkpt>
<trkpt lat="-29.8085640" lon="151.7405341">
<ele>1082.121</ele>
<time>2017-04-06T06:51:55.629Z</time>
</trkpt>
<trkpt lat="-29.8090373" lon="151.7408002">
<ele>1082.358</ele>
<time>2017-04-06T06:51:57.617Z</time>
</trkpt>
<trkpt lat="-29.8097532" lon="151.7412039">
<ele>1082.522</ele>
<time>2017-04-06T06:52:00.620Z</time>
</trkpt>
<trkpt lat="-29.8102568" lon="151.7413844">
<ele>1082.673</ele>
<time>2017-04-06T06:52:02.606Z</time>
</trkpt>
<trkpt lat="-29.8110507" lon="151.7415290">
<ele>1082.906</ele>
<time>2017-04-06T06:52:05.633Z</time>
</trkpt>
<trkpt lat="-29.8118339" lon="151.7416446">
<ele>1083.197</ele>
<time>2017-04-06T06:52:08.612Z</time>
</trkpt>
<trkpt lat="-29.8123613" lon="151.7416246">
<ele>1083.521</ele>
<time>2017-04-06T06:52:10.605Z</time>
</trkpt>
<trkpt lat="-29.8131589" lon="151.7414865">
<ele>1083.883</ele>
<time>2017-04-06T06:52:13.638Z</time>
</trkpt>
<trkpt lat="-29.8139414" lon="151.7412763">
<ele>1084.202</ele>
<time>2017-04-06T06:52:16.650Z</time>
</trkpt>
<trkpt lat="-29.8147321" lon="151.7411569">
<ele>1084.304</ele>
<time>2017-04-06T06:52:19.643Z</time>
</trkpt>
<trkpt lat="-29.8152641" lon="151.7410869">
<ele>1084.138</ele>
<time>2017-04-06T06:52:21.655Z</time>
</trkpt>
<trkpt lat="-29.8160507" lon="151.7409395">
<ele>1083.924</ele>
<time>2017-04-06T06:52:24.656Z</time>
</trkpt>
<trkpt lat="-29.8165709" lon="151.7408182">
<ele>1083.853</ele>
<time>2017-04-06T06:52:26.656Z</time>
</trkpt>
<trkpt lat="-29.8173695" lon="151.7406540">
<ele>1083.896</ele>
<time>2017-04-06T06:52:29.714Z</time>
</trkpt>
<trkpt lat="-29.8178741" lon="151.7405725">
<ele>1084.031</ele>
<time>2017-04-06T06:52:31.639Z</time>
</trkpt>
<trkpt lat="-29.8186627" lon="151.7404359">
<ele>1084.289</ele>
<time>2017-04-06T06:52:34.657Z</time>
</trkpt>
<trkpt lat="-29.8191846" lon="151.7403135">
<ele>1084.689</ele>
<time>2017-04-06T06:52:36.666Z</time>
</trkpt>
<trkpt lat="-29.8199657" lon="151.7401417">
<ele>1085.161</ele>
<time>2017-04-06T06:52:39.664Z</time>
</trkpt>
<trkpt lat="-29.8207472" lon="151.7399964">
<ele>1085.555</ele>
<time>2017-04-06T06:52:42.655Z</time>
</trkpt>
<trkpt lat="-29.8215196" lon="151.7398135">
<ele>1085.758</ele>
<time>2017-04-06T06:52:45.642Z</time>
</trkpt>
<trkpt lat="-29.8220403" lon="151.7396901">
<ele>1085.781</ele>
<time>2017-04-06T06:52:47.652Z</time>
</trkpt>
<trkpt lat="-29.8228237" lon="151.7395703">
<ele>1085.657</ele>
<time>2017-04-06T06:52:50.616Z</time>
</trkpt>
<trkpt lat="-29.8233770" lon="151.7395023">
<ele>1085.447</ele>
<time>2017-04-06T06:52:52.601Z</time>
</trkpt>
<trkpt lat="-29.8242912" lon="151.7392630">
<ele>1085.380</ele>
<time>2017-04-06T06:52:55.688Z</time>
</trkpt>
<trkpt lat="-29.8249463" lon="151.7391525">
<ele>1085.940</ele>
<time>2017-04-06T06:52:57.718Z</time>
</trkpt>
<trkpt lat="-29.8259261" lon="151.7389221">
<ele>1087.365</ele>
<time>2017-04-06T06:53:00.752Z</time>
</trkpt>
<trkpt lat="-29.8268785" lon="151.7387922">
<ele>1089.223</ele>
<time>2017-04-06T06:53:03.730Z</time>
</trkpt>
<trkpt lat="-29.8274632" lon="151.7386937">
<ele>1090.743</ele>
<time>2017-04-06T06:53:05.666Z</time>
</trkpt>
<trkpt lat="-29.8283245" lon="151.7385189">
<ele>1091.390</ele>
<time>2017-04-06T06:53:08.649Z</time>
</trkpt>
<trkpt lat="-29.8288780" lon="151.7384080">
<ele>1091.132</ele>
<time>2017-04-06T06:53:10.646Z</time>
</trkpt>
<trkpt lat="-29.8296580" lon="151.7382943">
<ele>1090.296</ele>
<time>2017-04-06T06:53:13.554Z</time>
</trkpt>
<trkpt lat="-29.8301694" lon="151.7381918">
<ele>1089.281</ele>
<time>2017-04-06T06:53:15.534Z</time>
</trkpt>
<trkpt lat="-29.8306804" lon="151.7380673">
<ele>1088.489</ele>
<time>2017-04-06T06:53:17.533Z</time>
</trkpt>
<trkpt lat="-29.8314510" lon="151.7379188">
<ele>1088.190</ele>
<time>2017-04-06T06:53:20.516Z</time>
</trkpt>
<trkpt lat="-29.8322242" lon="151.7377825">
<ele>1088.495</ele>
<time>2017-04-06T06:53:23.499Z</time>
</trkpt>
<trkpt lat="-29.8327477" lon="151.7376909">
<ele>1089.402</ele>
<time>2017-04-06T06:53:25.513Z</time>
</trkpt>
<trkpt lat="-29.8332737" lon="151.7376444">
<ele>1090.697</ele>
<time>2017-04-06T06:53:27.512Z</time>
</trkpt>
<trkpt lat="-29.8338020" lon="151.7376344">
<ele>1092.133</ele>
<time>2017-04-06T06:53:29.513Z</time>
</trkpt>
<trkpt lat="-29.8345883" lon="151.7376584">
<ele>1093.501</ele>
<time>2017-04-06T06:53:32.490Z</time>
</trkpt>
<trkpt lat="-29.8351171" lon="151.7376781">
<ele>1094.566</ele>
<time>2017-04-06T06:53:34.491Z</time>
</trkpt>
<trkpt lat="-29.8359071" lon="151.7378038">
<ele>1095.206</ele>
<time>2017-04-06T06:53:37.505Z</time>
</trkpt>
<trkpt lat="-29.8366944" lon="151.7379098">
<ele>1095.472</ele>
<time>2017-04-06T06:53:40.499Z</time>
</trkpt>
<trkpt lat="-29.8372130" lon="151.7379799">
<ele>1095.503</ele>
<time>2017-04-06T06:53:42.476Z</time>
</trkpt>
<trkpt lat="-29.8380043" lon="151.7380454">
<ele>1095.440</ele>
<time>2017-04-06T06:53:45.478Z</time>
</trkpt>
<trkpt lat="-29.8388004" lon="151.7381194">
<ele>1095.352</ele>
<time>2017-04-06T06:53:48.488Z</time>
</trkpt>
<trkpt lat="-29.8395889" lon="151.7382187">
<ele>1095.270</ele>
<time>2017-04-06T06:53:51.472Z</time>
</trkpt>
<trkpt lat="-29.8401119" lon="151.7382887">
<ele>1095.218</ele>
<time>2017-04-06T06:53:53.458Z</time>
</trkpt>
<trkpt lat="-29.8406381" lon="151.7383376">
<ele>1095.217</ele>
<time>2017-04-06T06:53:55.455Z</time>
</trkpt>
<trkpt lat="-29.8414300" lon="151.7384309">
<ele>1095.259</ele>
<time>2017-04-06T06:53:58.463Z</time>
</trkpt>
<trkpt lat="-29.8422309" lon="151.7385238">
<ele>1095.236</ele>
<time>2017-04-06T06:54:01.488Z</time>
</trkpt>
<trkpt lat="-29.8427597" lon="151.7386071">
<ele>1094.970</ele>
<time>2017-04-06T06:54:03.486Z</time>
</trkpt>
<trkpt lat="-29.8432937" lon="151.7386622">
<ele>1094.421</ele>
<time>2017-04-06T06:54:05.497Z</time>
</trkpt>
<trkpt lat="-29.8438228" lon="151.7386556">
<ele>1093.728</ele>
<time>2017-04-06T06:54:07.486Z</time>
</trkpt>
<trkpt lat="-29.8446145" lon="151.7386071">
<ele>1093.058</ele>
<time>2017-04-06T06:54:10.469Z</time>
</trkpt>
<trkpt lat="-29.8451387" lon="151.7385313">
<ele>1092.395</ele>
<time>2017-04-06T06:54:12.457Z</time>
</trkpt>
<trkpt lat="-29.8456545" lon="151.7384557">
<ele>1091.484</ele>
<time>2017-04-06T06:54:14.443Z</time>
</trkpt>
<trkpt lat="-29.8463450" lon="151.7383625">
<ele>1090.064</ele>
<time>2017-04-06T06:54:17.265Z</time>
</trkpt>
<trkpt lat="-29.8467685" lon="151.7382868">
<ele>1087.975</ele>
<time>2017-04-06T06:54:19.178Z</time>
</trkpt>
<trkpt lat="-29.8471834" lon="151.7382590">
<ele>1085.277</ele>
<time>2017-04-06T06:54:21.133Z</time>
</trkpt>
<trkpt lat="-29.8477655" lon="151.7382087">
<ele>1082.359</ele>
<time>2017-04-06T06:54:24.011Z</time>
</trkpt>
<trkpt lat="-29.8482372" lon="151.7380975">
<ele>1079.542</ele>
<time>2017-04-06T06:54:26.676Z</time>
</trkpt>
<trkpt lat="-29.8486843" lon="151.7380040">
<ele>1076.879</ele>
<time>2017-04-06T06:54:29.480Z</time>
</trkpt>
<trkpt lat="-29.8489823" lon="151.7379418">
<ele>1074.525</ele>
<time>2017-04-06T06:54:31.422Z</time>
</trkpt>
<trkpt lat="-29.8494210" lon="151.7378353">
<ele>1072.780</ele>
<time>2017-04-06T06:54:34.344Z</time>
</trkpt>
<trkpt lat="-29.8498599" lon="151.7377197">
<ele>1071.734</ele>
<time>2017-04-06T06:54:37.284Z</time>
</trkpt>
<trkpt lat="-29.8501615" lon="151.7376456">
<ele>1071.174</ele>
<time>2017-04-06T06:54:39.284Z</time>
</trkpt>
<trkpt lat="-29.8504658" lon="151.7375726">
<ele>1070.866</ele>
<time>2017-04-06T06:54:41.282Z</time>
</trkpt>
<trkpt lat="-29.8507670" lon="151.7375085">
<ele>1070.688</ele>
<time>2017-04-06T06:54:43.240Z</time>
</trkpt>
<trkpt lat="-29.8510644" lon="151.7374288">
<ele>1070.544</ele>
<time>2017-04-06T06:54:45.202Z</time>
</trkpt>
<trkpt lat="-29.8515131" lon="151.7373179">
<ele>1070.402</ele>
<time>2017-04-06T06:54:48.173Z</time>
</trkpt>
<trkpt lat="-29.8519595" lon="151.7372085">
<ele>1070.312</ele>
<time>2017-04-06T06:54:51.141Z</time>
</trkpt>
<trkpt lat="-29.8524146" lon="151.7371600">
<ele>1070.302</ele>
<time>2017-04-06T06:54:54.109Z</time>
</trkpt>
<trkpt lat="-29.8527248" lon="151.7370979">
<ele>1070.346</ele>
<time>2017-04-06T06:54:56.142Z</time>
</trkpt>
<trkpt lat="-29.8530314" lon="151.7370695">
<ele>1070.408</ele>
<time>2017-04-06T06:54:58.123Z</time>
</trkpt>
<trkpt lat="-29.8534932" lon="151.7370604">
<ele>1070.459</ele>
<time>2017-04-06T06:55:01.102Z</time>
</trkpt>
<trkpt lat="-29.8539567" lon="151.7370722">
<ele>1070.486</ele>
<time>2017-04-06T06:55:04.089Z</time>
</trkpt>
<trkpt lat="-29.8544193" lon="151.7370603">
<ele>1070.504</ele>
<time>2017-04-06T06:55:07.078Z</time>
</trkpt>
<trkpt lat="-29.8547317" lon="151.7370770">
<ele>1070.547</ele>
<time>2017-04-06T06:55:09.099Z</time>
</trkpt>
<trkpt lat="-29.8551913" lon="151.7371462">
<ele>1070.635</ele>
<time>2017-04-06T06:55:12.087Z</time>
</trkpt>
<trkpt lat="-29.8554877" lon="151.7372420">
<ele>1070.811</ele>
<time>2017-04-06T06:55:14.073Z</time>
</trkpt>
<trkpt lat="-29.8559439" lon="151.7373063">
<ele>1071.094</ele>
<time>2017-04-06T06:55:17.064Z</time>
</trkpt>
<trkpt lat="-29.8562181" lon="151.7373816">
<ele>1071.383</ele>
<time>2017-04-06T06:55:18.928Z</time>
</trkpt>
<trkpt lat="-29.8566192" lon="151.7374587">
<ele>1071.523</ele>
<time>2017-04-06T06:55:21.736Z</time>
</trkpt>
<trkpt lat="-29.8570171" lon="151.7374757">
<ele>1071.408</ele>
<time>2017-04-06T06:55:24.622Z</time>
</trkpt>
<trkpt lat="-29.8572879" lon="151.7375176">
<ele>1071.051</ele>
<time>2017-04-06T06:55:26.654Z</time>
</trkpt>
<trkpt lat="-29.8575703" lon="151.7375649">
<ele>1070.633</ele>
<time>2017-04-06T06:55:28.762Z</time>
</trkpt>
<trkpt lat="-29.8580035" lon="151.7376397">
<ele>1070.349</ele>
<time>2017-04-06T06:55:31.864Z</time>
</trkpt>
<trkpt lat="-29.8582903" lon="151.7377159">
<ele>1070.234</ele>
<time>2017-04-06T06:55:33.903Z</time>
</trkpt>
<trkpt lat="-29.8587109" lon="151.7378440">
<ele>1070.222</ele>
<time>2017-04-06T06:55:36.891Z</time>
</trkpt>
<trkpt lat="-29.8590058" lon="151.7378785">
<ele>1070.278</ele>
<time>2017-04-06T06:55:38.923Z</time>
</trkpt>
<trkpt lat="-29.8592934" lon="151.7378996">
<ele>1070.407</ele>
<time>2017-04-06T06:55:40.901Z</time>
</trkpt>
<trkpt lat="-29.8595727" lon="151.7379615">
<ele>1070.589</ele>
<time>2017-04-06T06:55:42.857Z</time>
</trkpt>
<trkpt lat="-29.8598715" lon="151.7379815">
<ele>1070.838</ele>
<time>2017-04-06T06:55:44.901Z</time>
</trkpt>
<trkpt lat="-29.8601863" lon="151.7379860">
<ele>1071.254</ele>
<time>2017-04-06T06:55:46.991Z</time>
</trkpt>
<trkpt lat="-29.8606630" lon="151.7380252">
<ele>1071.950</ele>
<time>2017-04-06T06:55:50.053Z</time>
</trkpt>
<trkpt lat="-29.8611364" lon="151.7380313">
<ele>1073.080</ele>
<time>2017-04-06T06:55:53.045Z</time>
</trkpt>
<trkpt lat="-29.8614459" lon="151.7380313">
<ele>1074.734</ele>
<time>2017-04-06T06:55:55.003Z</time>
</trkpt>
<trkpt lat="-29.8619188" lon="151.7380261">
<ele>1076.665</ele>
<time>2017-04-06T06:55:58.002Z</time>
</trkpt>
<trkpt lat="-29.8622329" lon="151.7379837">
<ele>1078.590</ele>
<time>2017-04-06T06:55:59.993Z</time>
</trkpt>
<trkpt lat="-29.8627655" lon="151.7379214">
<ele>1080.462</ele>
<time>2017-04-06T06:56:03.189Z</time>
</trkpt>
<trkpt lat="-29.8631758" lon="151.7378286">
<ele>1082.390</ele>
<time>2017-04-06T06:56:05.468Z</time>
</trkpt>
<trkpt lat="-29.8636287" lon="151.7377461">
<ele>1084.567</ele>
<time>2017-04-06T06:56:07.705Z</time>
</trkpt>
<trkpt lat="-29.8643473" lon="151.7375557">
<ele>1087.087</ele>
<time>2017-04-06T06:56:10.921Z</time>
</trkpt>
<trkpt lat="-29.8648519" lon="151.7374010">
<ele>1089.926</ele>
<time>2017-04-06T06:56:13.012Z</time>
</trkpt>
<trkpt lat="-29.8653763" lon="151.7372667">
<ele>1092.954</ele>
<time>2017-04-06T06:56:15.068Z</time>
</trkpt>
<trkpt lat="-29.8661431" lon="151.7370119">
<ele>1095.807</ele>
<time>2017-04-06T06:56:18.073Z</time>
</trkpt>
<trkpt lat="-29.8666658" lon="151.7368682">
<ele>1098.255</ele>
<time>2017-04-06T06:56:20.091Z</time>
</trkpt>
<trkpt lat="-29.8671754" lon="151.7367029">
<ele>1100.289</ele>
<time>2017-04-06T06:56:22.075Z</time>
</trkpt>
<trkpt lat="-29.8676987" lon="151.7365657">
<ele>1101.857</ele>
<time>2017-04-06T06:56:24.084Z</time>
</trkpt>
<trkpt lat="-29.8684681" lon="151.7363371">
<ele>1102.963</ele>
<time>2017-04-06T06:56:27.074Z</time>
</trkpt>
<trkpt lat="-29.8689848" lon="151.7361940">
<ele>1103.903</ele>
<time>2017-04-06T06:56:29.084Z</time>
</trkpt>
<trkpt lat="-29.8694980" lon="151.7360330">
<ele>1104.987</ele>
<time>2017-04-06T06:56:31.095Z</time>
</trkpt>
<trkpt lat="-29.8702629" lon="151.7358244">
<ele>1106.143</ele>
<time>2017-04-06T06:56:34.074Z</time>
</trkpt>
<trkpt lat="-29.8710470" lon="151.7356528">
<ele>1107.174</ele>
<time>2017-04-06T06:56:37.096Z</time>
</trkpt>
<trkpt lat="-29.8715606" lon="151.7355050">
<ele>1107.992</ele>
<time>2017-04-06T06:56:39.090Z</time>
</trkpt>
<trkpt lat="-29.8720836" lon="151.7353755">
<ele>1108.479</ele>
<time>2017-04-06T06:56:41.103Z</time>
</trkpt>
<trkpt lat="-29.8725954" lon="151.7352242">
<ele>1108.628</ele>
<time>2017-04-06T06:56:43.091Z</time>
</trkpt>
<trkpt lat="-29.8731084" lon="151.7350742">
<ele>1108.597</ele>
<time>2017-04-06T06:56:45.092Z</time>
</trkpt>
<trkpt lat="-29.8738906" lon="151.7349014">
<ele>1108.526</ele>
<time>2017-04-06T06:56:48.099Z</time>
</trkpt>
<trkpt lat="-29.8744152" lon="151.7347759">
<ele>1108.519</ele>
<time>2017-04-06T06:56:50.111Z</time>
</trkpt>
<trkpt lat="-29.8749281" lon="151.7346283">
<ele>1108.612</ele>
<time>2017-04-06T06:56:52.097Z</time>
</trkpt>
<trkpt lat="-29.8756979" lon="151.7344033">
<ele>1108.821</ele>
<time>2017-04-06T06:56:55.088Z</time>
</trkpt>
<trkpt lat="-29.8762200" lon="151.7342933">
<ele>1109.315</ele>
<time>2017-04-06T06:56:57.091Z</time>
</trkpt>
<trkpt lat="-29.8767398" lon="151.7341854">
<ele>1110.224</ele>
<time>2017-04-06T06:56:59.085Z</time>
</trkpt>
<trkpt lat="-29.8775207" lon="151.7340618">
<ele>1111.410</ele>
<time>2017-04-06T06:57:02.071Z</time>
</trkpt>
<trkpt lat="-29.8780467" lon="151.7339990">
<ele>1112.740</ele>
<time>2017-04-06T06:57:04.077Z</time>
</trkpt>
<trkpt lat="-29.8785758" lon="151.7340053">
<ele>1114.122</ele>
<time>2017-04-06T06:57:06.076Z</time>
</trkpt>
<trkpt lat="-29.8791024" lon="151.7340234">
<ele>1115.345</ele>
<time>2017-04-06T06:57:08.062Z</time>
</trkpt>
<trkpt lat="-29.8798969" lon="151.7340783">
<ele>1116.253</ele>
<time>2017-04-06T06:57:11.062Z</time>
</trkpt>
<trkpt lat="-29.8806920" lon="151.7341475">
<ele>1116.896</ele>
<time>2017-04-06T06:57:14.059Z</time>
</trkpt>
<trkpt lat="-29.8812220" lon="151.7342101">
<ele>1117.427</ele>
<time>2017-04-06T06:57:16.062Z</time>
</trkpt>
<trkpt lat="-29.8817464" lon="151.7342489">
<ele>1117.982</ele>
<time>2017-04-06T06:57:18.044Z</time>
</trkpt>
<trkpt lat="-29.8825337" lon="151.7343250">
<ele>1118.627</ele>
<time>2017-04-06T06:57:21.028Z</time>
</trkpt>
<trkpt lat="-29.8833256" lon="151.7343545">
<ele>1119.431</ele>
<time>2017-04-06T06:57:24.013Z</time>
</trkpt>
<trkpt lat="-29.8838578" lon="151.7343258">
<ele>1120.466</ele>
<time>2017-04-06T06:57:26.014Z</time>
</trkpt>
<trkpt lat="-29.8846460" lon="151.7341979">
<ele>1121.638</ele>
<time>2017-04-06T06:57:29.000Z</time>
</trkpt>
<trkpt lat="-29.8854123" lon="151.7339596">
<ele>1122.730</ele>
<time>2017-04-06T06:57:31.979Z</time>
</trkpt>
<trkpt lat="-29.8861689" lon="151.7337017">
<ele>1123.620</ele>
<time>2017-04-06T06:57:34.947Z</time>
</trkpt>
<trkpt lat="-29.8866716" lon="151.7335219">
<ele>1124.353</ele>
<time>2017-04-06T06:57:36.937Z</time>
</trkpt>
<trkpt lat="-29.8873910" lon="151.7331526">
<ele>1125.079</ele>
<time>2017-04-06T06:57:39.932Z</time>
</trkpt>
<trkpt lat="-29.8878891" lon="151.7329803">
<ele>1126.009</ele>
<time>2017-04-06T06:57:41.914Z</time>
</trkpt>
<trkpt lat="-29.8886811" lon="151.7329330">
<ele>1127.243</ele>
<time>2017-04-06T06:57:44.933Z</time>
</trkpt>
<trkpt lat="-29.8892137" lon="151.7329397">
<ele>1128.689</ele>
<time>2017-04-06T06:57:46.953Z</time>
</trkpt>
<trkpt lat="-29.8897461" lon="151.7330207">
<ele>1130.139</ele>
<time>2017-04-06T06:57:48.980Z</time>
</trkpt>
<trkpt lat="-29.8905288" lon="151.7332066">
<ele>1131.433</ele>
<time>2017-04-06T06:57:51.994Z</time>
</trkpt>
<trkpt lat="-29.8910412" lon="151.7333756">
<ele>1132.631</ele>
<time>2017-04-06T06:57:54.001Z</time>
</trkpt>
<trkpt lat="-29.8917908" lon="151.7336788">
<ele>1133.729</ele>
<time>2017-04-06T06:57:56.989Z</time>
</trkpt>
<trkpt lat="-29.8923059" lon="151.7338451">
<ele>1134.357</ele>
<time>2017-04-06T06:57:59.000Z</time>
</trkpt>
<trkpt lat="-29.8930638" lon="151.7341169">
<ele>1134.202</ele>
<time>2017-04-06T06:58:01.982Z</time>
</trkpt>
<trkpt lat="-29.8938555" lon="151.7342671">
<ele>1133.282</ele>
<time>2017-04-06T06:58:04.999Z</time>
</trkpt>
<trkpt lat="-29.8946579" lon="151.7343102">
<ele>1131.741</ele>
<time>2017-04-06T06:58:08.016Z</time>
</trkpt>
<trkpt lat="-29.8951865" lon="151.7342875">
<ele>1129.759</ele>
<time>2017-04-06T06:58:10.014Z</time>
</trkpt>
<trkpt lat="-29.8959634" lon="151.7341720">
<ele>1127.823</ele>
<time>2017-04-06T06:58:12.997Z</time>
</trkpt>
<trkpt lat="-29.8964707" lon="151.7340014">
<ele>1126.619</ele>
<time>2017-04-06T06:58:15.007Z</time>
</trkpt>
<trkpt lat="-29.8972246" lon="151.7337464">
<ele>1126.466</ele>
<time>2017-04-06T06:58:17.978Z</time>
</trkpt>
<trkpt lat="-29.8977274" lon="151.7335671">
<ele>1127.401</ele>
<time>2017-04-06T06:58:19.968Z</time>
</trkpt>
<trkpt lat="-29.8984795" lon="151.7333140">
<ele>1129.266</ele>
<time>2017-04-06T06:58:22.943Z</time>
</trkpt>
<trkpt lat="-29.8992536" lon="151.7331342">
<ele>1131.740</ele>
<time>2017-04-06T06:58:25.935Z</time>
</trkpt>
<trkpt lat="-29.8997664" lon="151.7329855">
<ele>1134.615</ele>
<time>2017-04-06T06:58:27.927Z</time>
</trkpt>
<trkpt lat="-29.9005421" lon="151.7328106">
<ele>1137.468</ele>
<time>2017-04-06T06:58:30.898Z</time>
</trkpt>
<trkpt lat="-29.9013147" lon="151.7326287">
<ele>1139.766</ele>
<time>2017-04-06T06:58:33.870Z</time>
</trkpt>
<trkpt lat="-29.9020988" lon="151.7325199">
<ele>1141.379</ele>
<time>2017-04-06T06:58:36.860Z</time>
</trkpt>
<trkpt lat="-29.9028805" lon="151.7324054">
<ele>1142.415</ele>
<time>2017-04-06T06:58:39.848Z</time>
</trkpt>
<trkpt lat="-29.9036778" lon="151.7323245">
<ele>1143.065</ele>
<time>2017-04-06T06:58:42.876Z</time>
</trkpt>
<trkpt lat="-29.9044706" lon="151.7322641">
<ele>1143.493</ele>
<time>2017-04-06T06:58:45.871Z</time>
</trkpt>
<trkpt lat="-29.9052635" lon="151.7322234">
<ele>1143.908</ele>
<time>2017-04-06T06:58:48.861Z</time>
</trkpt>
<trkpt lat="-29.9060577" lon="151.7322112">
<ele>1144.561</ele>
<time>2017-04-06T06:58:51.853Z</time>
</trkpt>
<trkpt lat="-29.9065887" lon="151.7322102">
<ele>1145.381</ele>
<time>2017-04-06T06:58:53.854Z</time>
</trkpt>
<trkpt lat="-29.9071200" lon="151.7322404">
<ele>1146.158</ele>
<time>2017-04-06T06:58:55.859Z</time>
</trkpt>
<trkpt lat="-29.9079075" lon="151.7323830">
<ele>1146.841</ele>
<time>2017-04-06T06:58:58.861Z</time>
</trkpt>
<trkpt lat="-29.9084292" lon="151.7324779">
<ele>1147.351</ele>
<time>2017-04-06T06:59:00.848Z</time>
</trkpt>
<trkpt lat="-29.9089839" lon="151.7324996">
<ele>1147.596</ele>
<time>2017-04-06T06:59:02.934Z</time>
</trkpt>
<trkpt lat="-29.9095206" lon="151.7324220">
<ele>1147.604</ele>
<time>2017-04-06T06:59:04.962Z</time>
</trkpt>
<trkpt lat="-29.9103118" lon="151.7321968">
<ele>1147.451</ele>
<time>2017-04-06T06:59:08.014Z</time>
</trkpt>
<trkpt lat="-29.9108168" lon="151.7320034">
<ele>1147.204</ele>
<time>2017-04-06T06:59:10.006Z</time>
</trkpt>
<trkpt lat="-29.9112915" lon="151.7317224">
<ele>1146.936</ele>
<time>2017-04-06T06:59:12.002Z</time>
</trkpt>
<trkpt lat="-29.9119524" lon="151.7312190">
<ele>1146.672</ele>
<time>2017-04-06T06:59:14.973Z</time>
</trkpt>
<trkpt lat="-29.9123771" lon="151.7308633">
<ele>1146.318</ele>
<time>2017-04-06T06:59:16.952Z</time>
</trkpt>
<trkpt lat="-29.9130512" lon="151.7303705">
<ele>1145.813</ele>
<time>2017-04-06T06:59:19.960Z</time>
</trkpt>
<trkpt lat="-29.9134919" lon="151.7300391">
<ele>1145.216</ele>
<time>2017-04-06T06:59:21.939Z</time>
</trkpt>
<trkpt lat="-29.9141742" lon="151.7295788">
<ele>1144.631</ele>
<time>2017-04-06T06:59:24.922Z</time>
</trkpt>
<trkpt lat="-29.9146322" lon="151.7292784">
<ele>1144.191</ele>
<time>2017-04-06T06:59:26.917Z</time>
</trkpt>
<trkpt lat="-29.9150855" lon="151.7289598">
<ele>1144.036</ele>
<time>2017-04-06T06:59:28.928Z</time>
</trkpt>
<trkpt lat="-29.9158084" lon="151.7285709">
<ele>1144.196</ele>
<time>2017-04-06T06:59:31.941Z</time>
</trkpt>
<trkpt lat="-29.9165261" lon="151.7281913">
<ele>1144.721</ele>
<time>2017-04-06T06:59:34.921Z</time>
</trkpt>
<trkpt lat="-29.9171913" lon="151.7276906">
<ele>1145.618</ele>
<time>2017-04-06T06:59:37.922Z</time>
</trkpt>
<trkpt lat="-29.9176390" lon="151.7273555">
<ele>1146.684</ele>
<time>2017-04-06T06:59:39.936Z</time>
</trkpt>
<trkpt lat="-29.9182648" lon="151.7268543">
<ele>1147.581</ele>
<time>2017-04-06T06:59:42.860Z</time>
</trkpt>
<trkpt lat="-29.9186432" lon="151.7265656">
<ele>1147.978</ele>
<time>2017-04-06T06:59:44.720Z</time>
</trkpt>
<trkpt lat="-29.9191154" lon="151.7261584">
<ele>1147.661</ele>
<time>2017-04-06T06:59:47.423Z</time>
</trkpt>
<trkpt lat="-29.9195815" lon="151.7257652">
<ele>1146.671</ele>
<time>2017-04-06T06:59:50.281Z</time>
</trkpt>
<trkpt lat="-29.9199400" lon="151.7255386">
<ele>1145.445</ele>
<time>2017-04-06T06:59:52.338Z</time>
</trkpt>
<trkpt lat="-29.9204741" lon="151.7252047">
<ele>1144.635</ele>
<time>2017-04-06T06:59:55.347Z</time>
</trkpt>
<trkpt lat="-29.9208463" lon="151.7250300">
<ele>1144.606</ele>
<time>2017-04-06T06:59:57.325Z</time>
</trkpt>
<trkpt lat="-29.9214052" lon="151.7248536">
<ele>1145.231</ele>
<time>2017-04-06T07:00:00.222Z</time>
</trkpt>
<trkpt lat="-29.9219901" lon="151.7247484">
<ele>1146.132</ele>
<time>2017-04-06T07:00:03.227Z</time>
</trkpt>
<trkpt lat="-29.9225698" lon="151.7246179">
<ele>1146.932</ele>
<time>2017-04-06T07:00:06.224Z</time>
</trkpt>
<trkpt lat="-29.9231529" lon="151.7245108">
<ele>1147.433</ele>
<time>2017-04-06T07:00:09.210Z</time>
</trkpt>
<trkpt lat="-29.9237357" lon="151.7243790">
<ele>1147.633</ele>
<time>2017-04-06T07:00:12.205Z</time>
</trkpt>
<trkpt lat="-29.9241365" lon="151.7243317">
<ele>1147.703</ele>
<time>2017-04-06T07:00:14.232Z</time>
</trkpt>
<trkpt lat="-29.9245288" lon="151.7242528">
<ele>1147.849</ele>
<time>2017-04-06T07:00:16.228Z</time>
</trkpt>
<trkpt lat="-29.9249129" lon="151.7241274">
<ele>1148.119</ele>
<time>2017-04-06T07:00:18.228Z</time>
</trkpt>
<trkpt lat="-29.9252946" lon="151.7239931">
<ele>1148.384</ele>
<time>2017-04-06T07:00:20.231Z</time>
</trkpt>
<trkpt lat="-29.9258843" lon="151.7240374">
<ele>1148.536</ele>
<time>2017-04-06T07:00:23.212Z</time>
</trkpt>
<trkpt lat="-29.9264648" lon="151.7241658">
<ele>1148.608</ele>
<time>2017-04-06T07:00:26.202Z</time>
</trkpt>
<trkpt lat="-29.9270553" lon="151.7242764">
<ele>1148.743</ele>
<time>2017-04-06T07:00:29.217Z</time>
</trkpt>
<trkpt lat="-29.9274546" lon="151.7243221">
<ele>1149.116</ele>
<time>2017-04-06T07:00:31.234Z</time>
</trkpt>
<trkpt lat="-29.9280493" lon="151.7241846">
<ele>1149.840</ele>
<time>2017-04-06T07:00:34.267Z</time>
</trkpt>
<trkpt lat="-29.9286115" lon="151.7239036">
<ele>1150.727</ele>
<time>2017-04-06T07:00:37.312Z</time>
</trkpt>
<trkpt lat="-29.9289860" lon="151.7237336">
<ele>1151.362</ele>
<time>2017-04-06T07:00:39.307Z</time>
</trkpt>
<trkpt lat="-29.9293692" lon="151.7235822">
<ele>1151.519</ele>
<time>2017-04-06T07:00:41.319Z</time>
</trkpt>
<trkpt lat="-29.9297641" lon="151.7235369">
<ele>1151.225</ele>
<time>2017-04-06T07:00:43.301Z</time>
</trkpt>
<trkpt lat="-29.9301590" lon="151.7235475">
<ele>1150.577</ele>
<time>2017-04-06T07:00:45.282Z</time>
</trkpt>
<trkpt lat="-29.9305550" lon="151.7235870">
<ele>1149.716</ele>
<time>2017-04-06T07:00:47.279Z</time>
</trkpt>
<trkpt lat="-29.9311703" lon="151.7237316">
<ele>1148.863</ele>
<time>2017-04-06T07:00:50.375Z</time>
</trkpt>
<trkpt lat="-29.9316386" lon="151.7237571">
<ele>1148.125</ele>
<time>2017-04-06T07:00:52.584Z</time>
</trkpt>
<trkpt lat="-29.9323966" lon="151.7237857">
<ele>1147.487</ele>
<time>2017-04-06T07:00:55.788Z</time>
</trkpt>
<trkpt lat="-29.9329164" lon="151.7238101">
<ele>1147.023</ele>
<time>2017-04-06T07:00:57.780Z</time>
</trkpt>
<trkpt lat="-29.9337255" lon="151.7238481">
<ele>1146.749</ele>
<time>2017-04-06T07:01:00.807Z</time>
</trkpt>
<trkpt lat="-29.9345248" lon="151.7238045">
<ele>1146.252</ele>
<time>2017-04-06T07:01:03.828Z</time>
</trkpt>
<trkpt lat="-29.9350433" lon="151.7238081">
<ele>1145.140</ele>
<time>2017-04-06T07:01:05.799Z</time>
</trkpt>
<trkpt lat="-29.9355685" lon="151.7237729">
<ele>1143.702</ele>
<time>2017-04-06T07:01:07.799Z</time>
</trkpt>
<trkpt lat="-29.9363671" lon="151.7237246">
<ele>1142.627</ele>
<time>2017-04-06T07:01:10.834Z</time>
</trkpt>
<trkpt lat="-29.9371512" lon="151.7236080">
<ele>1142.226</ele>
<time>2017-04-06T07:01:13.834Z</time>
</trkpt>
<trkpt lat="-29.9379416" lon="151.7234989">
<ele>1142.453</ele>
<time>2017-04-06T07:01:16.847Z</time>
</trkpt>
<trkpt lat="-29.9384628" lon="151.7233997">
<ele>1143.248</ele>
<time>2017-04-06T07:01:18.838Z</time>
</trkpt>
<trkpt lat="-29.9389852" lon="151.7233094">
<ele>1144.484</ele>
<time>2017-04-06T07:01:20.832Z</time>
</trkpt>
<trkpt lat="-29.9397707" lon="151.7231699">
<ele>1145.877</ele>
<time>2017-04-06T07:01:23.835Z</time>
</trkpt>
<trkpt lat="-29.9402862" lon="151.7230435">
<ele>1147.396</ele>
<time>2017-04-06T07:01:25.824Z</time>
</trkpt>
<trkpt lat="-29.9410471" lon="151.7227918">
<ele>1149.182</ele>
<time>2017-04-06T07:01:28.809Z</time>
</trkpt>
<trkpt lat="-29.9417694" lon="151.7224045">
<ele>1151.046</ele>
<time>2017-04-06T07:01:31.800Z</time>
</trkpt>
<trkpt lat="-29.9422183" lon="151.7220761">
<ele>1152.680</ele>
<time>2017-04-06T07:01:33.794Z</time>
</trkpt>
<trkpt lat="-29.9429273" lon="151.7216556">
<ele>1153.955</ele>
<time>2017-04-06T07:01:36.786Z</time>
</trkpt>
<trkpt lat="-29.9434062" lon="151.7213826">
<ele>1154.867</ele>
<time>2017-04-06T07:01:38.786Z</time>
</trkpt>
<trkpt lat="-29.9441064" lon="151.7209596">
<ele>1155.594</ele>
<time>2017-04-06T07:01:41.761Z</time>
</trkpt>
<trkpt lat="-29.9448171" lon="151.7205639">
<ele>1156.383</ele>
<time>2017-04-06T07:01:44.745Z</time>
</trkpt>
<trkpt lat="-29.9453181" lon="151.7203700">
<ele>1157.347</ele>
<time>2017-04-06T07:01:46.750Z</time>
</trkpt>
<trkpt lat="-29.9460239" lon="151.7199493">
<ele>1158.431</ele>
<time>2017-04-06T07:01:49.755Z</time>
</trkpt>
<trkpt lat="-29.9467725" lon="151.7196299">
<ele>1159.623</ele>
<time>2017-04-06T07:01:52.759Z</time>
</trkpt>
<trkpt lat="-29.9475530" lon="151.7194210">
<ele>1160.952</ele>
<time>2017-04-06T07:01:55.779Z</time>
</trkpt>
<trkpt lat="-29.9480758" lon="151.7193089">
<ele>1162.220</ele>
<time>2017-04-06T07:01:57.789Z</time>
</trkpt>
<trkpt lat="-29.9488399" lon="151.7190598">
<ele>1163.143</ele>
<time>2017-04-06T07:02:00.794Z</time>
</trkpt>
<trkpt lat="-29.9496149" lon="151.7188695">
<ele>1163.868</ele>
<time>2017-04-06T07:02:03.790Z</time>
</trkpt>
<trkpt lat="-29.9503805" lon="151.7186385">
<ele>1164.813</ele>
<time>2017-04-06T07:02:06.785Z</time>
</trkpt>
<trkpt lat="-29.9511551" lon="151.7184605">
<ele>1166.196</ele>
<time>2017-04-06T07:02:09.782Z</time>
</trkpt>
<trkpt lat="-29.9519352" lon="151.7183439">
<ele>1168.016</ele>
<time>2017-04-06T07:02:12.769Z</time>
</trkpt>
<trkpt lat="-29.9527271" lon="151.7183115">
<ele>1170.108</ele>
<time>2017-04-06T07:02:15.771Z</time>
</trkpt>
<trkpt lat="-29.9532530" lon="151.7183265">
<ele>1172.192</ele>
<time>2017-04-06T07:02:17.762Z</time>
</trkpt>
<trkpt lat="-29.9540486" lon="151.7183567">
<ele>1173.985</ele>
<time>2017-04-06T07:02:20.770Z</time>
</trkpt>
<trkpt lat="-29.9548372" lon="151.7183883">
<ele>1175.311</ele>
<time>2017-04-06T07:02:23.750Z</time>
</trkpt>
<trkpt lat="-29.9553407" lon="151.7184271">
<ele>1176.326</ele>
<time>2017-04-06T07:02:25.699Z</time>
</trkpt>
<trkpt lat="-29.9557892" lon="151.7184238">
<ele>1177.335</ele>
<time>2017-04-06T07:02:27.526Z</time>
</trkpt>
<trkpt lat="-29.9562221" lon="151.7184640">
<ele>1178.440</ele>
<time>2017-04-06T07:02:29.398Z</time>
</trkpt>
<trkpt lat="-29.9566521" lon="151.7185446">
<ele>1179.752</ele>
<time>2017-04-06T07:02:31.345Z</time>
</trkpt>
<trkpt lat="-29.9570688" lon="151.7187510">
<ele>1181.493</ele>
<time>2017-04-06T07:02:33.389Z</time>
</trkpt>
<trkpt lat="-29.9576883" lon="151.7191876">
<ele>1183.677</ele>
<time>2017-04-06T07:02:36.537Z</time>
</trkpt>
<trkpt lat="-29.9582963" lon="151.7197058">
<ele>1186.259</ele>
<time>2017-04-06T07:02:39.615Z</time>
</trkpt>
<trkpt lat="-29.9589249" lon="151.7202290">
<ele>1189.256</ele>
<time>2017-04-06T07:02:42.650Z</time>
</trkpt>
<trkpt lat="-29.9595668" lon="151.7207309">
<ele>1192.334</ele>
<time>2017-04-06T07:02:45.637Z</time>
</trkpt>
<trkpt lat="-29.9599930" lon="151.7210742">
<ele>1195.041</ele>
<time>2017-04-06T07:02:47.630Z</time>
</trkpt>
<trkpt lat="-29.9604147" lon="151.7214186">
<ele>1197.339</ele>
<time>2017-04-06T07:02:49.614Z</time>
</trkpt>
<trkpt lat="-29.9608395" lon="151.7217505">
<ele>1199.098</ele>
<time>2017-04-06T07:02:51.593Z</time>
</trkpt>
<trkpt lat="-29.9614004" lon="151.7223017">
<ele>1199.965</ele>
<time>2017-04-06T07:02:54.496Z</time>
</trkpt>
<trkpt lat="-29.9619419" lon="151.7228771">
<ele>1199.847</ele>
<time>2017-04-06T07:02:57.468Z</time>
</trkpt>
<trkpt lat="-29.9624536" lon="151.7233602">
<ele>1199.155</ele>
<time>2017-04-06T07:03:00.265Z</time>
</trkpt>
<trkpt lat="-29.9628145" lon="151.7235565">
<ele>1198.701</ele>
<time>2017-04-06T07:03:02.058Z</time>
</trkpt>
<trkpt lat="-29.9631965" lon="151.7236092">
<ele>1198.917</ele>
<time>2017-04-06T07:03:03.903Z</time>
</trkpt>
<trkpt lat="-29.9636040" lon="151.7235329">
<ele>1199.404</ele>
<time>2017-04-06T07:03:05.959Z</time>
</trkpt>
<trkpt lat="-29.9642445" lon="151.7233358">
<ele>1199.927</ele>
<time>2017-04-06T07:03:09.138Z</time>
</trkpt>
<trkpt lat="-29.9646856" lon="151.7231722">
<ele>1201.145</ele>
<time>2017-04-06T07:03:11.232Z</time>
</trkpt>
<trkpt lat="-29.9653491" lon="151.7229645">
<ele>1203.813</ele>
<time>2017-04-06T07:03:14.230Z</time>
</trkpt>
<trkpt lat="-29.9657905" lon="151.7229289">
<ele>1208.251</ele>
<time>2017-04-06T07:03:16.166Z</time>
</trkpt>
<trkpt lat="-29.9664752" lon="151.7230425">
<ele>1213.943</ele>
<time>2017-04-06T07:03:19.202Z</time>
</trkpt>
<trkpt lat="-29.9671457" lon="151.7233246">
<ele>1219.778</ele>
<time>2017-04-06T07:03:22.259Z</time>
</trkpt>
<trkpt lat="-29.9677776" lon="151.7236547">
<ele>1225.088</ele>
<time>2017-04-06T07:03:25.223Z</time>
</trkpt>
<trkpt lat="-29.9683350" lon="151.7239969">
<ele>1229.801</ele>
<time>2017-04-06T07:03:28.056Z</time>
</trkpt>
<trkpt lat="-29.9687108" lon="151.7241402">
<ele>1234.130</ele>
<time>2017-04-06T07:03:29.920Z</time>
</trkpt>
<trkpt lat="-29.9691061" lon="151.7241347">
<ele>1238.550</ele>
<time>2017-04-06T07:03:31.868Z</time>
</trkpt>
<trkpt lat="-29.9694801" lon="151.7240025">
<ele>1243.229</ele>
<time>2017-04-06T07:03:33.849Z</time>
</trkpt>
<trkpt lat="-29.9699346" lon="151.7235715">
<ele>1248.005</ele>
<time>2017-04-06T07:03:36.876Z</time>
</trkpt>
<trkpt lat="-29.9701745" lon="151.7231707">
<ele>1252.938</ele>
<time>2017-04-06T07:03:39.021Z</time>
</trkpt>
<trkpt lat="-29.9705199" lon="151.7224963">
<ele>1258.041</ele>
<time>2017-04-06T07:03:42.242Z</time>
</trkpt>
<trkpt lat="-29.9708045" lon="151.7220627">
<ele>1263.316</ele>
<time>2017-04-06T07:03:44.344Z</time>
</trkpt>
<trkpt lat="-29.9711957" lon="151.7213911">
<ele>1268.818</ele>
<time>2017-04-06T07:03:47.370Z</time>
</trkpt>
<trkpt lat="-29.9716857" lon="151.7208062">
<ele>1274.611</ele>
<time>2017-04-06T07:03:50.364Z</time>
</trkpt>
<trkpt lat="-29.9720610" lon="151.7204234">
<ele>1280.777</ele>
<time>2017-04-06T07:03:52.446Z</time>
</trkpt>
<trkpt lat="-29.9726246" lon="151.7198516">
<ele>1286.962</ele>
<time>2017-04-06T07:03:55.491Z</time>
</trkpt>
<trkpt lat="-29.9729918" lon="151.7194643">
<ele>1292.514</ele>
<time>2017-04-06T07:03:57.495Z</time>
</trkpt>
<trkpt lat="-29.9734166" lon="151.7191377">
<ele>1297.268</ele>
<time>2017-04-06T07:03:59.535Z</time>
</trkpt>
<trkpt lat="-29.9740546" lon="151.7186275">
<ele>1301.166</ele>
<time>2017-04-06T07:04:02.588Z</time>
</trkpt>
<trkpt lat="-29.9747143" lon="151.7181080">
<ele>1304.370</ele>
<time>2017-04-06T07:04:05.716Z</time>
</trkpt>
<trkpt lat="-29.9753638" lon="151.7176662">
<ele>1307.431</ele>
<time>2017-04-06T07:04:08.687Z</time>
</trkpt>
<trkpt lat="-29.9757690" lon="151.7173281">
<ele>1310.839</ele>
<time>2017-04-06T07:04:10.671Z</time>
</trkpt>
<trkpt lat="-29.9761858" lon="151.7170487">
<ele>1314.646</ele>
<time>2017-04-06T07:04:12.617Z</time>
</trkpt>
<trkpt lat="-29.9765870" lon="151.7167915">
<ele>1318.282</ele>
<time>2017-04-06T07:04:14.528Z</time>
</trkpt>
<trkpt lat="-29.9772369" lon="151.7164839">
<ele>1321.166</ele>
<time>2017-04-06T07:04:17.509Z</time>
</trkpt>
<trkpt lat="-29.9779053" lon="151.7161954">
<ele>1323.451</ele>
<time>2017-04-06T07:04:20.520Z</time>
</trkpt>
<trkpt lat="-29.9783758" lon="151.7161725">
<ele>1325.288</ele>
<time>2017-04-06T07:04:22.504Z</time>
</trkpt>
<trkpt lat="-29.9790639" lon="151.7161400">
<ele>1326.258</ele>
<time>2017-04-06T07:04:25.455Z</time>
</trkpt>
<trkpt lat="-29.9795179" lon="151.7161197">
<ele>1325.997</ele>
<time>2017-04-06T07:04:27.437Z</time>
</trkpt>
<trkpt lat="-29.9801941" lon="151.7160796">
<ele>1324.904</ele>
<time>2017-04-06T07:04:30.423Z</time>
</trkpt>
<trkpt lat="-29.9806563" lon="151.7160542">
<ele>1323.800</ele>
<time>2017-04-06T07:04:32.463Z</time>
</trkpt>
<trkpt lat="-29.9811401" lon="151.7160385">
<ele>1323.355</ele>
<time>2017-04-06T07:04:34.550Z</time>
</trkpt>
<trkpt lat="-29.9818661" lon="151.7160088">
<ele>1323.741</ele>
<time>2017-04-06T07:04:37.582Z</time>
</trkpt>
<trkpt lat="-29.9825830" lon="151.7159710">
<ele>1324.866</ele>
<time>2017-04-06T07:04:40.540Z</time>
</trkpt>
<trkpt lat="-29.9830758" lon="151.7159454">
<ele>1326.383</ele>
<time>2017-04-06T07:04:42.572Z</time>
</trkpt>
<trkpt lat="-29.9837981" lon="151.7159743">
<ele>1327.655</ele>
<time>2017-04-06T07:04:45.551Z</time>
</trkpt>
<trkpt lat="-29.9842670" lon="151.7159202">
<ele>1328.216</ele>
<time>2017-04-06T07:04:47.508Z</time>
</trkpt>
<trkpt lat="-29.9847284" lon="151.7159180">
<ele>1328.070</ele>
<time>2017-04-06T07:04:49.459Z</time>
</trkpt>
<trkpt lat="-29.9851600" lon="151.7160253">
<ele>1327.418</ele>
<time>2017-04-06T07:04:51.372Z</time>
</trkpt>
<trkpt lat="-29.9857891" lon="151.7161577">
<ele>1326.631</ele>
<time>2017-04-06T07:04:54.238Z</time>
</trkpt>
<trkpt lat="-29.9861297" lon="151.7162277">
<ele>1326.196</ele>
<time>2017-04-06T07:04:55.871Z</time>
</trkpt>
<trkpt lat="-29.9865945" lon="151.7162830">
<ele>1326.438</ele>
<time>2017-04-06T07:04:58.354Z</time>
</trkpt>
<trkpt lat="-29.9868824" lon="151.7163341">
<ele>1327.494</ele>
<time>2017-04-06T07:05:00.016Z</time>
</trkpt>
<trkpt lat="-29.9871502" lon="151.7163710">
<ele>1329.239</ele>
<time>2017-04-06T07:05:01.738Z</time>
</trkpt>
<trkpt lat="-29.9875057" lon="151.7164095">
<ele>1331.208</ele>
<time>2017-04-06T07:05:04.181Z</time>
</trkpt>
<trkpt lat="-29.9877362" lon="151.7164690">
<ele>1333.025</ele>
<time>2017-04-06T07:05:05.980Z</time>
</trkpt>
<trkpt lat="-29.9880975" lon="151.7165038">
<ele>1334.608</ele>
<time>2017-04-06T07:05:08.874Z</time>
</trkpt>
<trkpt lat="-29.9884371" lon="151.7165988">
<ele>1335.959</ele>
<time>2017-04-06T07:05:11.754Z</time>
</trkpt>
<trkpt lat="-29.9888014" lon="151.7166548">
<ele>1337.178</ele>
<time>2017-04-06T07:05:14.867Z</time>
</trkpt>
<trkpt lat="-29.9891743" lon="151.7166878">
<ele>1338.415</ele>
<time>2017-04-06T07:05:18.027Z</time>
</trkpt>
<trkpt lat="-29.9894282" lon="151.7167346">
<ele>1339.686</ele>
<time>2017-04-06T07:05:20.118Z</time>
</trkpt>
<trkpt lat="-29.9898073" lon="151.7168066">
<ele>1340.842</ele>
<time>2017-04-06T07:05:23.207Z</time>
</trkpt>
<trkpt lat="-29.9901751" lon="151.7168900">
<ele>1341.765</ele>
<time>2017-04-06T07:05:26.172Z</time>
</trkpt>
<trkpt lat="-29.9904187" lon="151.7170087">
<ele>1342.627</ele>
<time>2017-04-06T07:05:28.255Z</time>
</trkpt>
<trkpt lat="-29.9907507" lon="151.7172279">
<ele>1343.621</ele>
<time>2017-04-06T07:05:31.255Z</time>
</trkpt>
<trkpt lat="-29.9909528" lon="151.7173990">
<ele>1344.718</ele>
<time>2017-04-06T07:05:33.207Z</time>
</trkpt>
<trkpt lat="-29.9911826" lon="151.7176037">
<ele>1345.868</ele>
<time>2017-04-06T07:05:35.483Z</time>
</trkpt>
<trkpt lat="-29.9914166" lon="151.7178606">
<ele>1347.085</ele>
<time>2017-04-06T07:05:38.073Z</time>
</trkpt>
<trkpt lat="-29.9915960" lon="151.7180211">
<ele>1348.431</ele>
<time>2017-04-06T07:05:39.985Z</time>
</trkpt>
<trkpt lat="-29.9918116" lon="151.7183092">
<ele>1349.924</ele>
<time>2017-04-06T07:05:42.842Z</time>
</trkpt>
<trkpt lat="-29.9919519" lon="151.7186389">
<ele>1351.474</ele>
<time>2017-04-06T07:05:45.708Z</time>
</trkpt>
<trkpt lat="-29.9920586" lon="151.7188389">
<ele>1353.043</ele>
<time>2017-04-06T07:05:47.585Z</time>
</trkpt>
<trkpt lat="-29.9921687" lon="151.7191416">
<ele>1354.554</ele>
<time>2017-04-06T07:05:50.261Z</time>
</trkpt>
<trkpt lat="-29.9923125" lon="151.7194112">
<ele>1355.900</ele>
<time>2017-04-06T07:05:52.995Z</time>
</trkpt>
<trkpt lat="-29.9923750" lon="151.7196087">
<ele>1357.182</ele>
<time>2017-04-06T07:05:54.885Z</time>
</trkpt>
<trkpt lat="-29.9924568" lon="151.7199255">
<ele>1358.493</ele>
<time>2017-04-06T07:05:57.956Z</time>
</trkpt>
<trkpt lat="-29.9925515" lon="151.7201184">
<ele>1359.793</ele>
<time>2017-04-06T07:06:00.021Z</time>
</trkpt>
<trkpt lat="-29.9926378" lon="151.7203225">
<ele>1360.992</ele>
<time>2017-04-06T07:06:02.123Z</time>
</trkpt>
<trkpt lat="-29.9927896" lon="151.7206321">
<ele>1361.997</ele>
<time>2017-04-06T07:06:05.334Z</time>
</trkpt>
<trkpt lat="-29.9928903" lon="151.7208619">
<ele>1362.891</ele>
<time>2017-04-06T07:06:07.570Z</time>
</trkpt>
<trkpt lat="-29.9930356" lon="151.7212308">
<ele>1363.850</ele>
<time>2017-04-06T07:06:10.956Z</time>
</trkpt>
<trkpt lat="-29.9931414" lon="151.7214737">
<ele>1364.864</ele>
<time>2017-04-06T07:06:13.050Z</time>
</trkpt>
<trkpt lat="-29.9932829" lon="151.7218619">
<ele>1365.780</ele>
<time>2017-04-06T07:06:16.197Z</time>
</trkpt>
<trkpt lat="-29.9933988" lon="151.7221424">
<ele>1366.499</ele>
<time>2017-04-06T07:06:18.439Z</time>
</trkpt>
<trkpt lat="-29.9935622" lon="151.7225328">
<ele>1367.067</ele>
<time>2017-04-06T07:06:21.503Z</time>
</trkpt>
<trkpt lat="-29.9937654" lon="151.7229198">
<ele>1367.638</ele>
<time>2017-04-06T07:06:24.643Z</time>
</trkpt>
<trkpt lat="-29.9939141" lon="151.7231577">
<ele>1368.393</ele>
<time>2017-04-06T07:06:26.662Z</time>
</trkpt>
<trkpt lat="-29.9942074" lon="151.7234691">
<ele>1369.371</ele>
<time>2017-04-06T07:06:29.808Z</time>
</trkpt>
<trkpt lat="-29.9944552" lon="151.7235892">
<ele>1370.406</ele>
<time>2017-04-06T07:06:31.916Z</time>
</trkpt>
<trkpt lat="-29.9948440" lon="151.7237529">
<ele>1371.344</ele>
<time>2017-04-06T07:06:35.073Z</time>
</trkpt>
<trkpt lat="-29.9952630" lon="151.7238488">
<ele>1372.240</ele>
<time>2017-04-06T07:06:38.217Z</time>
</trkpt>
<trkpt lat="-29.9956792" lon="151.7238523">
<ele>1373.225</ele>
<time>2017-04-06T07:06:41.183Z</time>
</trkpt>
<trkpt lat="-29.9959529" lon="151.7238114">
<ele>1374.223</ele>
<time>2017-04-06T07:06:43.134Z</time>
</trkpt>
<trkpt lat="-29.9963858" lon="151.7236490">
<ele>1374.952</ele>
<time>2017-04-06T07:06:46.318Z</time>
</trkpt>
<trkpt lat="-29.9966412" lon="151.7234584">
<ele>1375.282</ele>
<time>2017-04-06T07:06:48.376Z</time>
</trkpt>
<trkpt lat="-29.9970513" lon="151.7230562">
<ele>1375.285</ele>
<time>2017-04-06T07:06:51.705Z</time>
</trkpt>
<trkpt lat="-29.9973439" lon="151.7225036">
<ele>1375.039</ele>
<time>2017-04-06T07:06:54.938Z</time>
</trkpt>
<trkpt lat="-29.9977574" lon="151.7219894">
<ele>1374.519</ele>
<time>2017-04-06T07:06:58.243Z</time>
</trkpt>
<trkpt lat="-29.9980465" lon="151.7216587">
<ele>1373.651</ele>
<time>2017-04-06T07:07:00.346Z</time>
</trkpt>
<trkpt lat="-29.9984545" lon="151.7211275">
<ele>1372.524</ele>
<time>2017-04-06T07:07:03.384Z</time>
</trkpt>
<trkpt lat="-29.9987569" lon="151.7207946">
<ele>1371.504</ele>
<time>2017-04-06T07:07:05.423Z</time>
</trkpt>
<trkpt lat="-29.9990534" lon="151.7204698">
<ele>1370.838</ele>
<time>2017-04-06T07:07:07.416Z</time>
</trkpt>
<trkpt lat="-29.9993882" lon="151.7202096">
<ele>1370.437</ele>
<time>2017-04-06T07:07:09.390Z</time>
</trkpt>
<trkpt lat="-29.9997582" lon="151.7199932">
<ele>1370.174</ele>
<time>2017-04-06T07:07:11.430Z</time>
</trkpt>
<trkpt lat="-30.0003298" lon="151.7197598">
<ele>1369.963</ele>
<time>2017-04-06T07:07:14.459Z</time>
</trkpt>
<trkpt lat="-30.0008799" lon="151.7195056">
<ele>1369.591</ele>
<time>2017-04-06T07:07:17.468Z</time>
</trkpt>
<trkpt lat="-30.0012236" lon="151.7192702">
<ele>1368.840</ele>
<time>2017-04-06T07:07:19.484Z</time>
</trkpt>
<trkpt lat="-30.0015276" lon="151.7189732">
<ele>1367.731</ele>
<time>2017-04-06T07:07:21.462Z</time>
</trkpt>
<trkpt lat="-30.0018884" lon="151.7183982">
<ele>1366.405</ele>
<time>2017-04-06T07:07:24.504Z</time>
</trkpt>
<trkpt lat="-30.0020451" lon="151.7179580">
<ele>1364.696</ele>
<time>2017-04-06T07:07:26.551Z</time>
</trkpt>
<trkpt lat="-30.0022855" lon="151.7173115">
<ele>1362.482</ele>
<time>2017-04-06T07:07:29.583Z</time>
</trkpt>
<trkpt lat="-30.0024274" lon="151.7166450">
<ele>1359.891</ele>
<time>2017-04-06T07:07:32.562Z</time>
</trkpt>
<trkpt lat="-30.0025353" lon="151.7162270">
<ele>1356.944</ele>
<time>2017-04-06T07:07:34.484Z</time>
</trkpt>
<trkpt lat="-30.0027228" lon="151.7155795">
<ele>1353.764</ele>
<time>2017-04-06T07:07:37.536Z</time>
</trkpt>
<trkpt lat="-30.0030260" lon="151.7152408">
<ele>1350.567</ele>
<time>2017-04-06T07:07:39.670Z</time>
</trkpt>
<trkpt lat="-30.0034924" lon="151.7147909">
<ele>1347.424</ele>
<time>2017-04-06T07:07:42.645Z</time>
</trkpt>
<trkpt lat="-30.0040608" lon="151.7145724">
<ele>1344.850</ele>
<time>2017-04-06T07:07:45.569Z</time>
</trkpt>
<trkpt lat="-30.0044649" lon="151.7145028">
<ele>1344.416</ele>
<time>2017-04-06T07:07:47.556Z</time>
</trkpt>
<trkpt lat="-30.0048862" lon="151.7144956">
<ele>1347.511</ele>
<time>2017-04-06T07:07:49.585Z</time>
</trkpt>
<trkpt lat="-30.0053346" lon="151.7145762">
<ele>1353.223</ele>
<time>2017-04-06T07:07:51.743Z</time>
</trkpt>
<trkpt lat="-30.0060578" lon="151.7148169">
<ele>1358.784</ele>
<time>2017-04-06T07:07:55.217Z</time>
</trkpt>
<trkpt lat="-30.0064486" lon="151.7149745">
<ele>1362.199</ele>
<time>2017-04-06T07:07:57.078Z</time>
</trkpt>
<trkpt lat="-30.0069156" lon="151.7151695">
<ele>1357.860</ele>
<time>2017-04-06T07:07:59.231Z</time>
</trkpt>
<trkpt lat="-30.0074139" lon="151.7153702">
<ele>1343.107</ele>
<time>2017-04-06T07:08:01.391Z</time>
</trkpt>
<trkpt lat="-30.0081776" lon="151.7157401">
<ele>1326.921</ele>
<time>2017-04-06T07:08:04.557Z</time>
</trkpt>
<trkpt lat="-30.0089586" lon="151.7160364">
<ele>1318.234</ele>
<time>2017-04-06T07:08:07.604Z</time>
</trkpt>
<trkpt lat="-30.0093991" lon="151.7162931">
<ele>1316.101</ele>
<time>2017-04-06T07:08:09.507Z</time>
</trkpt>
<trkpt lat="-30.0098385" lon="151.7165693">
<ele>1316.994</ele>
<time>2017-04-06T07:08:11.490Z</time>
</trkpt>
<trkpt lat="-30.0101986" lon="151.7170283">
<ele>1318.417</ele>
<time>2017-04-06T07:08:13.577Z</time>
</trkpt>
<trkpt lat="-30.0106958" lon="151.7177492">
<ele>1319.594</ele>
<time>2017-04-06T07:08:16.610Z</time>
</trkpt>
<trkpt lat="-30.0110194" lon="151.7182358">
<ele>1320.694</ele>
<time>2017-04-06T07:08:18.620Z</time>
</trkpt>
<trkpt lat="-30.0113285" lon="151.7187127">
<ele>1322.007</ele>
<time>2017-04-06T07:08:20.610Z</time>
</trkpt>
<trkpt lat="-30.0116801" lon="151.7190772">
<ele>1323.508</ele>
<time>2017-04-06T07:08:22.566Z</time>
</trkpt>
<trkpt lat="-30.0121915" lon="151.7194136">
<ele>1324.888</ele>
<time>2017-04-06T07:08:25.277Z</time>
</trkpt>
<trkpt lat="-30.0125508" lon="151.7195253">
<ele>1325.836</ele>
<time>2017-04-06T07:08:27.180Z</time>
</trkpt>
<trkpt lat="-30.0129291" lon="151.7196509">
<ele>1326.301</ele>
<time>2017-04-06T07:08:29.202Z</time>
</trkpt>
<trkpt lat="-30.0135542" lon="151.7196126">
<ele>1326.536</ele>
<time>2017-04-06T07:08:32.273Z</time>
</trkpt>
<trkpt lat="-30.0139985" lon="151.7195287">
<ele>1326.861</ele>
<time>2017-04-06T07:08:34.346Z</time>
</trkpt>
<trkpt lat="-30.0146647" lon="151.7193257">
<ele>1327.393</ele>
<time>2017-04-06T07:08:37.403Z</time>
</trkpt>
<trkpt lat="-30.0153295" lon="151.7191758">
<ele>1327.986</ele>
<time>2017-04-06T07:08:40.378Z</time>
</trkpt>
<trkpt lat="-30.0157683" lon="151.7190290">
<ele>1328.424</ele>
<time>2017-04-06T07:08:42.378Z</time>
</trkpt>
<trkpt lat="-30.0164675" lon="151.7188222">
<ele>1328.736</ele>
<time>2017-04-06T07:08:45.441Z</time>
</trkpt>
<trkpt lat="-30.0172471" lon="151.7187094">
<ele>1329.200</ele>
<time>2017-04-06T07:08:48.628Z</time>
</trkpt>
<trkpt lat="-30.0177188" lon="151.7186903">
<ele>1329.855</ele>
<time>2017-04-06T07:08:50.594Z</time>
</trkpt>
<trkpt lat="-30.0183481" lon="151.7186714">
<ele>1330.295</ele>
<time>2017-04-06T07:08:53.382Z</time>
</trkpt>
<trkpt lat="-30.0190146" lon="151.7185779">
<ele>1330.149</ele>
<time>2017-04-06T07:08:56.420Z</time>
</trkpt>
<trkpt lat="-30.0194900" lon="151.7184866">
<ele>1329.588</ele>
<time>2017-04-06T07:08:58.497Z</time>
</trkpt>
<trkpt lat="-30.0199819" lon="151.7184482">
<ele>1329.143</ele>
<time>2017-04-06T07:09:00.562Z</time>
</trkpt>
<trkpt lat="-30.0207103" lon="151.7184295">
<ele>1329.229</ele>
<time>2017-04-06T07:09:03.577Z</time>
</trkpt>
<trkpt lat="-30.0211912" lon="151.7184704">
<ele>1329.989</ele>
<time>2017-04-06T07:09:05.567Z</time>
</trkpt>
<trkpt lat="-30.0216596" lon="151.7185721">
<ele>1331.222</ele>
<time>2017-04-06T07:09:07.543Z</time>
</trkpt>
<trkpt lat="-30.0223555" lon="151.7187639">
<ele>1332.418</ele>
<time>2017-04-06T07:09:10.523Z</time>
</trkpt>
<trkpt lat="-30.0228063" lon="151.7189170">
<ele>1333.174</ele>
<time>2017-04-06T07:09:12.493Z</time>
</trkpt>
<trkpt lat="-30.0234413" lon="151.7192448">
<ele>1333.452</ele>
<time>2017-04-06T07:09:15.446Z</time>
</trkpt>
<trkpt lat="-30.0241121" lon="151.7194834">
<ele>1333.437</ele>
<time>2017-04-06T07:09:18.443Z</time>
</trkpt>
<trkpt lat="-30.0247851" lon="151.7197659">
<ele>1333.463</ele>
<time>2017-04-06T07:09:21.470Z</time>
</trkpt>
<trkpt lat="-30.0252294" lon="151.7199722">
<ele>1333.729</ele>
<time>2017-04-06T07:09:23.489Z</time>
</trkpt>
<trkpt lat="-30.0258252" lon="151.7203903">
<ele>1334.076</ele>
<time>2017-04-06T07:09:26.462Z</time>
</trkpt>
<trkpt lat="-30.0262002" lon="151.7206680">
<ele>1334.061</ele>
<time>2017-04-06T07:09:28.398Z</time>
</trkpt>
<trkpt lat="-30.0265466" lon="151.7210414">
<ele>1333.346</ele>
<time>2017-04-06T07:09:30.423Z</time>
</trkpt>
<trkpt lat="-30.0269421" lon="151.7213741">
<ele>1332.021</ele>
<time>2017-04-06T07:09:32.440Z</time>
</trkpt>
<trkpt lat="-30.0275828" lon="151.7218345">
<ele>1330.490</ele>
<time>2017-04-06T07:09:35.472Z</time>
</trkpt>
<trkpt lat="-30.0280622" lon="151.7220721">
<ele>1328.869</ele>
<time>2017-04-06T07:09:37.507Z</time>
</trkpt>
<trkpt lat="-30.0287477" lon="151.7224865">
<ele>1327.026</ele>
<time>2017-04-06T07:09:40.455Z</time>
</trkpt>
<trkpt lat="-30.0292039" lon="151.7228157">
<ele>1324.847</ele>
<time>2017-04-06T07:09:42.469Z</time>
</trkpt>
<trkpt lat="-30.0298575" lon="151.7233708">
<ele>1322.369</ele>
<time>2017-04-06T07:09:45.496Z</time>
</trkpt>
<trkpt lat="-30.0305189" lon="151.7238813">
<ele>1319.786</ele>
<time>2017-04-06T07:09:48.486Z</time>
</trkpt>
<trkpt lat="-30.0309793" lon="151.7241536">
<ele>1317.606</ele>
<time>2017-04-06T07:09:50.469Z</time>
</trkpt>
<trkpt lat="-30.0314478" lon="151.7243569">
<ele>1316.442</ele>
<time>2017-04-06T07:09:52.432Z</time>
</trkpt>
<trkpt lat="-30.0321550" lon="151.7245430">
<ele>1316.477</ele>
<time>2017-04-06T07:09:55.366Z</time>
</trkpt>
<trkpt lat="-30.0326223" lon="151.7246195">
<ele>1317.376</ele>
<time>2017-04-06T07:09:57.337Z</time>
</trkpt>
<trkpt lat="-30.0330867" lon="151.7246450">
<ele>1318.767</ele>
<time>2017-04-06T07:09:59.325Z</time>
</trkpt>
<trkpt lat="-30.0336859" lon="151.7245855">
<ele>1320.329</ele>
<time>2017-04-06T07:10:02.069Z</time>
</trkpt>
<trkpt lat="-30.0340634" lon="151.7245251">
<ele>1321.920</ele>
<time>2017-04-06T07:10:03.994Z</time>
</trkpt>
<trkpt lat="-30.0346604" lon="151.7243465">
<ele>1323.527</ele>
<time>2017-04-06T07:10:07.114Z</time>
</trkpt>
<trkpt lat="-30.0350373" lon="151.7241700">
<ele>1325.105</ele>
<time>2017-04-06T07:10:09.115Z</time>
</trkpt>
<trkpt lat="-30.0354161" lon="151.7240043">
<ele>1326.528</ele>
<time>2017-04-06T07:10:11.111Z</time>
</trkpt>
<trkpt lat="-30.0357742" lon="151.7237910">
<ele>1327.564</ele>
<time>2017-04-06T07:10:13.105Z</time>
</trkpt>
<trkpt lat="-30.0362436" lon="151.7233520">
<ele>1328.055</ele>
<time>2017-04-06T07:10:16.096Z</time>
</trkpt>
<trkpt lat="-30.0365760" lon="151.7230491">
<ele>1328.172</ele>
<time>2017-04-06T07:10:18.142Z</time>
</trkpt>
<trkpt lat="-30.0370027" lon="151.7224917">
<ele>1328.222</ele>
<time>2017-04-06T07:10:21.163Z</time>
</trkpt>
<trkpt lat="-30.0374141" lon="151.7219236">
<ele>1328.399</ele>
<time>2017-04-06T07:10:24.157Z</time>
</trkpt>
<trkpt lat="-30.0376438" lon="151.7215283">
<ele>1328.680</ele>
<time>2017-04-06T07:10:26.110Z</time>
</trkpt>
<trkpt lat="-30.0379228" lon="151.7208400">
<ele>1328.922</ele>
<time>2017-04-06T07:10:29.165Z</time>
</trkpt>
<trkpt lat="-30.0382237" lon="151.7201359">
<ele>1329.118</ele>
<time>2017-04-06T07:10:32.193Z</time>
</trkpt>
<trkpt lat="-30.0384443" lon="151.7196455">
<ele>1329.466</ele>
<time>2017-04-06T07:10:34.260Z</time>
</trkpt>
<trkpt lat="-30.0386832" lon="151.7191086">
<ele>1330.205</ele>
<time>2017-04-06T07:10:36.370Z</time>
</trkpt>
<trkpt lat="-30.0389509" lon="151.7185597">
<ele>1331.517</ele>
<time>2017-04-06T07:10:38.436Z</time>
</trkpt>
<trkpt lat="-30.0394592" lon="151.7178362">
<ele>1333.285</ele>
<time>2017-04-06T07:10:41.433Z</time>
</trkpt>
<trkpt lat="-30.0400835" lon="151.7172578">
<ele>1335.274</ele>
<time>2017-04-06T07:10:44.409Z</time>
</trkpt>
<trkpt lat="-30.0405635" lon="151.7169423">
<ele>1337.716</ele>
<time>2017-04-06T07:10:46.492Z</time>
</trkpt>
<trkpt lat="-30.0413055" lon="151.7165693">
<ele>1341.043</ele>
<time>2017-04-06T07:10:49.585Z</time>
</trkpt>
<trkpt lat="-30.0418101" lon="151.7164448">
<ele>1344.646</ele>
<time>2017-04-06T07:10:51.581Z</time>
</trkpt>
<trkpt lat="-30.0425714" lon="151.7163966">
<ele>1347.259</ele>
<time>2017-04-06T07:10:54.555Z</time>
</trkpt>
<trkpt lat="-30.0433467" lon="151.7164188">
<ele>1348.779</ele>
<time>2017-04-06T07:10:57.561Z</time>
</trkpt>
<trkpt lat="-30.0438520" lon="151.7165953">
<ele>1350.477</ele>
<time>2017-04-06T07:10:59.572Z</time>
</trkpt>
<trkpt lat="-30.0445889" lon="151.7169501">
<ele>1353.323</ele>
<time>2017-04-06T07:11:02.584Z</time>
</trkpt>
<trkpt lat="-30.0450373" lon="151.7172789">
<ele>1357.436</ele>
<time>2017-04-06T07:11:04.577Z</time>
</trkpt>
<trkpt lat="-30.0454972" lon="151.7175927">
<ele>1362.151</ele>
<time>2017-04-06T07:11:06.587Z</time>
</trkpt>
<trkpt lat="-30.0461801" lon="151.7180505">
<ele>1366.467</ele>
<time>2017-04-06T07:11:09.577Z</time>
</trkpt>
<trkpt lat="-30.0468483" lon="151.7185067">
<ele>1370.231</ele>
<time>2017-04-06T07:11:12.536Z</time>
</trkpt>
<trkpt lat="-30.0475386" lon="151.7189510">
<ele>1373.903</ele>
<time>2017-04-06T07:11:15.551Z</time>
</trkpt>
<trkpt lat="-30.0482951" lon="151.7192107">
<ele>1377.274</ele>
<time>2017-04-06T07:11:18.566Z</time>
</trkpt>
<trkpt lat="-30.0488188" lon="151.7192828">
<ele>1379.908</ele>
<time>2017-04-06T07:11:20.581Z</time>
</trkpt>
<trkpt lat="-30.0493577" lon="151.7193326">
<ele>1381.739</ele>
<time>2017-04-06T07:11:22.635Z</time>
</trkpt>
<trkpt lat="-30.0501582" lon="151.7193176">
<ele>1382.942</ele>
<time>2017-04-06T07:11:25.651Z</time>
</trkpt>
<trkpt lat="-30.0506859" lon="151.7193275">
<ele>1383.948</ele>
<time>2017-04-06T07:11:27.639Z</time>
</trkpt>
<trkpt lat="-30.0514772" lon="151.7192126">
<ele>1385.047</ele>
<time>2017-04-06T07:11:30.666Z</time>
</trkpt>
<trkpt lat="-30.0519952" lon="151.7191713">
<ele>1386.128</ele>
<time>2017-04-06T07:11:32.669Z</time>
</trkpt>
<trkpt lat="-30.0524883" lon="151.7190652">
<ele>1386.958</ele>
<time>2017-04-06T07:11:34.641Z</time>
</trkpt>
<trkpt lat="-30.0532143" lon="151.7188975">
<ele>1387.362</ele>
<time>2017-04-06T07:11:37.574Z</time>
</trkpt>
<trkpt lat="-30.0537252" lon="151.7187017">
<ele>1387.271</ele>
<time>2017-04-06T07:11:39.672Z</time>
</trkpt>
<trkpt lat="-30.0544759" lon="151.7183766">
<ele>1386.779</ele>
<time>2017-04-06T07:11:42.745Z</time>
</trkpt>
<trkpt lat="-30.0549705" lon="151.7181972">
<ele>1385.909</ele>
<time>2017-04-06T07:11:44.722Z</time>
</trkpt>
<trkpt lat="-30.0557130" lon="151.7178974">
<ele>1384.640</ele>
<time>2017-04-06T07:11:47.717Z</time>
</trkpt>
<trkpt lat="-30.0564421" lon="151.7175351">
<ele>1382.889</ele>
<time>2017-04-06T07:11:50.735Z</time>
</trkpt>
<trkpt lat="-30.0569390" lon="151.7173168">
<ele>1380.416</ele>
<time>2017-04-06T07:11:52.767Z</time>
</trkpt>
<trkpt lat="-30.0576593" lon="151.7169888">
<ele>1377.359</ele>
<time>2017-04-06T07:11:55.753Z</time>
</trkpt>
<trkpt lat="-30.0581276" lon="151.7167863">
<ele>1374.318</ele>
<time>2017-04-06T07:11:57.722Z</time>
</trkpt>
<trkpt lat="-30.0588667" lon="151.7166602">
<ele>1371.702</ele>
<time>2017-04-06T07:12:00.694Z</time>
</trkpt>
<trkpt lat="-30.0593650" lon="151.7166243">
<ele>1369.588</ele>
<time>2017-04-06T07:12:02.668Z</time>
</trkpt>
<trkpt lat="-30.0601253" lon="151.7167189">
<ele>1367.921</ele>
<time>2017-04-06T07:12:05.662Z</time>
</trkpt>
<trkpt lat="-30.0608772" lon="151.7169213">
<ele>1366.525</ele>
<time>2017-04-06T07:12:08.649Z</time>
</trkpt>
<trkpt lat="-30.0613574" lon="151.7171702">
<ele>1365.222</ele>
<time>2017-04-06T07:12:10.664Z</time>
</trkpt>
<trkpt lat="-30.0618284" lon="151.7174408">
<ele>1364.009</ele>
<time>2017-04-06T07:12:12.669Z</time>
</trkpt>
<trkpt lat="-30.0624884" lon="151.7179568">
<ele>1363.057</ele>
<time>2017-04-06T07:12:15.695Z</time>
</trkpt>
<trkpt lat="-30.0631507" lon="151.7184652">
<ele>1362.389</ele>
<time>2017-04-06T07:12:18.718Z</time>
</trkpt>
<trkpt lat="-30.0637667" lon="151.7189907">
<ele>1361.888</ele>
<time>2017-04-06T07:12:21.674Z</time>
</trkpt>
<trkpt lat="-30.0642173" lon="151.7192666">
<ele>1361.517</ele>
<time>2017-04-06T07:12:23.662Z</time>
</trkpt>
<trkpt lat="-30.0646705" lon="151.7195543">
<ele>1361.321</ele>
<time>2017-04-06T07:12:25.654Z</time>
</trkpt>
<trkpt lat="-30.0651945" lon="151.7197285">
<ele>1361.278</ele>
<time>2017-04-06T07:12:27.729Z</time>
</trkpt>
<trkpt lat="-30.0659753" lon="151.7198119">
<ele>1361.305</ele>
<time>2017-04-06T07:12:30.696Z</time>
</trkpt>
<trkpt lat="-30.0665103" lon="151.7198360">
<ele>1361.310</ele>
<time>2017-04-06T07:12:32.714Z</time>
</trkpt>
<trkpt lat="-30.0670476" lon="151.7197895">
<ele>1361.202</ele>
<time>2017-04-06T07:12:34.743Z</time>
</trkpt>
<trkpt lat="-30.0678361" lon="151.7196549">
<ele>1360.935</ele>
<time>2017-04-06T07:12:37.753Z</time>
</trkpt>
<trkpt lat="-30.0683577" lon="151.7195662">
<ele>1360.501</ele>
<time>2017-04-06T07:12:39.757Z</time>
</trkpt>
<trkpt lat="-30.0691302" lon="151.7193927">
<ele>1360.013</ele>
<time>2017-04-06T07:12:42.758Z</time>
</trkpt>
<trkpt lat="-30.0699092" lon="151.7192635">
<ele>1359.776</ele>
<time>2017-04-06T07:12:45.768Z</time>
</trkpt>
<trkpt lat="-30.0704156" lon="151.7191286">
<ele>1360.213</ele>
<time>2017-04-06T07:12:47.774Z</time>
</trkpt>
<trkpt lat="-30.0711619" lon="151.7189636">
<ele>1361.527</ele>
<time>2017-04-06T07:12:50.740Z</time>
</trkpt>
<trkpt lat="-30.0719244" lon="151.7188302">
<ele>1363.720</ele>
<time>2017-04-06T07:12:53.763Z</time>
</trkpt>
<trkpt lat="-30.0726655" lon="151.7186719">
<ele>1366.823</ele>
<time>2017-04-06T07:12:56.734Z</time>
</trkpt>
<trkpt lat="-30.0734054" lon="151.7185535">
<ele>1370.624</ele>
<time>2017-04-06T07:12:59.717Z</time>
</trkpt>
<trkpt lat="-30.0738916" lon="151.7185079">
<ele>1374.550</ele>
<time>2017-04-06T07:13:01.695Z</time>
</trkpt>
<trkpt lat="-30.0746296" lon="151.7186118">
<ele>1378.117</ele>
<time>2017-04-06T07:13:04.711Z</time>
</trkpt>
<trkpt lat="-30.0753899" lon="151.7187900">
<ele>1381.243</ele>
<time>2017-04-06T07:13:07.783Z</time>
</trkpt>
<trkpt lat="-30.0758861" lon="151.7189314">
<ele>1383.986</ele>
<time>2017-04-06T07:13:09.770Z</time>
</trkpt>
<trkpt lat="-30.0763860" lon="151.7190573">
<ele>1386.076</ele>
<time>2017-04-06T07:13:11.753Z</time>
</trkpt>
<trkpt lat="-30.0771329" lon="151.7193094">
<ele>1387.265</ele>
<time>2017-04-06T07:13:14.756Z</time>
</trkpt>
<trkpt lat="-30.0778998" lon="151.7195055">
<ele>1387.975</ele>
<time>2017-04-06T07:13:17.765Z</time>
</trkpt>
<trkpt lat="-30.0784125" lon="151.7196525">
<ele>1388.797</ele>
<time>2017-04-06T07:13:19.780Z</time>
</trkpt>
<trkpt lat="-30.0791794" lon="151.7198253">
<ele>1389.707</ele>
<time>2017-04-06T07:13:22.774Z</time>
</trkpt>
<trkpt lat="-30.0796807" lon="151.7199985">
<ele>1390.241</ele>
<time>2017-04-06T07:13:24.789Z</time>
</trkpt>
<trkpt lat="-30.0804385" lon="151.7202301">
<ele>1390.160</ele>
<time>2017-04-06T07:13:27.795Z</time>
</trkpt>
<trkpt lat="-30.0809575" lon="151.7203637">
<ele>1389.562</ele>
<time>2017-04-06T07:13:29.814Z</time>
</trkpt>
<trkpt lat="-30.0817241" lon="151.7205789">
<ele>1388.656</ele>
<time>2017-04-06T07:13:32.801Z</time>
</trkpt>
<trkpt lat="-30.0824887" lon="151.7207995">
<ele>1387.575</ele>
<time>2017-04-06T07:13:35.792Z</time>
</trkpt>
<trkpt lat="-30.0832699" lon="151.7208712">
<ele>1386.356</ele>
<time>2017-04-06T07:13:38.771Z</time>
</trkpt>
<trkpt lat="-30.0838050" lon="151.7208129">
<ele>1385.007</ele>
<time>2017-04-06T07:13:40.808Z</time>
</trkpt>
<trkpt lat="-30.0845857" lon="151.7205940">
<ele>1383.593</ele>
<time>2017-04-06T07:13:43.843Z</time>
</trkpt>
<trkpt lat="-30.0853607" lon="151.7203766">
<ele>1382.148</ele>
<time>2017-04-06T07:13:46.847Z</time>
</trkpt>
<trkpt lat="-30.0858756" lon="151.7202228">
<ele>1380.614</ele>
<time>2017-04-06T07:13:48.859Z</time>
</trkpt>
<trkpt lat="-30.0866542" lon="151.7202112">
<ele>1379.038</ele>
<time>2017-04-06T07:13:51.830Z</time>
</trkpt>
<trkpt lat="-30.0871740" lon="151.7202917">
<ele>1377.376</ele>
<time>2017-04-06T07:13:53.840Z</time>
</trkpt>
<trkpt lat="-30.0879476" lon="151.7203833">
<ele>1375.560</ele>
<time>2017-04-06T07:13:56.815Z</time>
</trkpt>
<trkpt lat="-30.0884679" lon="151.7204340">
<ele>1374.006</ele>
<time>2017-04-06T07:13:58.808Z</time>
</trkpt>
<trkpt lat="-30.0889923" lon="151.7204972">
<ele>1373.169</ele>
<time>2017-04-06T07:14:00.819Z</time>
</trkpt>
<trkpt lat="-30.0897652" lon="151.7206325">
<ele>1373.002</ele>
<time>2017-04-06T07:14:03.800Z</time>
</trkpt>
<trkpt lat="-30.0905091" lon="151.7209266">
<ele>1373.352</ele>
<time>2017-04-06T07:14:06.797Z</time>
</trkpt>
<trkpt lat="-30.0912133" lon="151.7213705">
<ele>1374.109</ele>
<time>2017-04-06T07:14:09.841Z</time>
</trkpt>
<trkpt lat="-30.0918380" lon="151.7219412">
<ele>1374.939</ele>
<time>2017-04-06T07:14:12.861Z</time>
</trkpt>
<trkpt lat="-30.0924578" lon="151.7225032">
<ele>1375.457</ele>
<time>2017-04-06T07:14:15.858Z</time>
</trkpt>
<trkpt lat="-30.0928603" lon="151.7228872">
<ele>1375.611</ele>
<time>2017-04-06T07:14:17.849Z</time>
</trkpt>
<trkpt lat="-30.0932687" lon="151.7232623">
<ele>1375.633</ele>
<time>2017-04-06T07:14:19.839Z</time>
</trkpt>
<trkpt lat="-30.0938651" lon="151.7238608">
<ele>1375.797</ele>
<time>2017-04-06T07:14:22.845Z</time>
</trkpt>
<trkpt lat="-30.0944634" lon="151.7244620">
<ele>1376.362</ele>
<time>2017-04-06T07:14:25.848Z</time>
</trkpt>
<trkpt lat="-30.0948928" lon="151.7248297">
<ele>1377.312</ele>
<time>2017-04-06T07:14:27.854Z</time>
</trkpt>
<trkpt lat="-30.0955261" lon="151.7255084">
<ele>1378.204</ele>
<time>2017-04-06T07:14:31.076Z</time>
</trkpt>
<trkpt lat="-30.0959292" lon="151.7258979">
<ele>1378.564</ele>
<time>2017-04-06T07:14:33.042Z</time>
</trkpt>
<trkpt lat="-30.0963352" lon="151.7262776">
<ele>1378.250</ele>
<time>2017-04-06T07:14:35.006Z</time>
</trkpt>
<trkpt lat="-30.0967300" lon="151.7266728">
<ele>1377.436</ele>
<time>2017-04-06T07:14:36.981Z</time>
</trkpt>
<trkpt lat="-30.0971292" lon="151.7270651">
<ele>1376.510</ele>
<time>2017-04-06T07:14:38.970Z</time>
</trkpt>
<trkpt lat="-30.0977604" lon="151.7276135">
<ele>1375.743</ele>
<time>2017-04-06T07:14:41.986Z</time>
</trkpt>
<trkpt lat="-30.0981336" lon="151.7279814">
<ele>1375.017</ele>
<time>2017-04-06T07:14:43.924Z</time>
</trkpt>
<trkpt lat="-30.0984793" lon="151.7283174">
<ele>1373.964</ele>
<time>2017-04-06T07:14:45.826Z</time>
</trkpt>
<trkpt lat="-30.0990116" lon="151.7287331">
<ele>1372.388</ele>
<time>2017-04-06T07:14:48.675Z</time>
</trkpt>
<trkpt lat="-30.0996508" lon="151.7289240">
<ele>1370.342</ele>
<time>2017-04-06T07:14:51.621Z</time>
</trkpt>
<trkpt lat="-30.1003548" lon="151.7290062">
<ele>1367.845</ele>
<time>2017-04-06T07:14:54.668Z</time>
</trkpt>
<trkpt lat="-30.1010558" lon="151.7289287">
<ele>1365.351</ele>
<time>2017-04-06T07:14:57.690Z</time>
</trkpt>
<trkpt lat="-30.1015082" lon="151.7289051">
<ele>1363.968</ele>
<time>2017-04-06T07:14:59.672Z</time>
</trkpt>
<trkpt lat="-30.1021930" lon="151.7289085">
<ele>1364.630</ele>
<time>2017-04-06T07:15:02.687Z</time>
</trkpt>
<trkpt lat="-30.1026455" lon="151.7287979">
<ele>1367.245</ele>
<time>2017-04-06T07:15:04.706Z</time>
</trkpt>
<trkpt lat="-30.1030636" lon="151.7285352">
<ele>1370.509</ele>
<time>2017-04-06T07:15:06.744Z</time>
</trkpt>
<trkpt lat="-30.1036011" lon="151.7279695">
<ele>1372.847</ele>
<time>2017-04-06T07:15:09.769Z</time>
</trkpt>
<trkpt lat="-30.1039120" lon="151.7275099">
<ele>1373.037</ele>
<time>2017-04-06T07:15:11.784Z</time>
</trkpt>
<trkpt lat="-30.1043984" lon="151.7268236">
<ele>1370.754</ele>
<time>2017-04-06T07:15:14.772Z</time>
</trkpt>
<trkpt lat="-30.1048812" lon="151.7261051">
<ele>1367.011</ele>
<time>2017-04-06T07:15:17.782Z</time>
</trkpt>
<trkpt lat="-30.1052106" lon="151.7256317">
<ele>1363.312</ele>
<time>2017-04-06T07:15:19.780Z</time>
</trkpt>
<trkpt lat="-30.1055107" lon="151.7251330">
<ele>1360.486</ele>
<time>2017-04-06T07:15:21.780Z</time>
</trkpt>
<trkpt lat="-30.1058550" lon="151.7246765">
<ele>1358.492</ele>
<time>2017-04-06T07:15:23.774Z</time>
</trkpt>
<trkpt lat="-30.1061849" lon="151.7242049">
<ele>1356.874</ele>
<time>2017-04-06T07:15:25.775Z</time>
</trkpt>
<trkpt lat="-30.1066352" lon="151.7234633">
<ele>1355.553</ele>
<time>2017-04-06T07:15:28.768Z</time>
</trkpt>
<trkpt lat="-30.1071148" lon="151.7227508">
<ele>1354.490</ele>
<time>2017-04-06T07:15:31.753Z</time>
</trkpt>
<trkpt lat="-30.1076158" lon="151.7220527">
<ele>1353.419</ele>
<time>2017-04-06T07:15:34.745Z</time>
</trkpt>
<trkpt lat="-30.1079056" lon="151.7215444">
<ele>1352.217</ele>
<time>2017-04-06T07:15:36.748Z</time>
</trkpt>
<trkpt lat="-30.1084075" lon="151.7208481">
<ele>1351.000</ele>
<time>2017-04-06T07:15:39.729Z</time>
</trkpt>
<trkpt lat="-30.1088650" lon="151.7201104">
<ele>1349.971</ele>
<time>2017-04-06T07:15:42.730Z</time>
</trkpt>
<trkpt lat="-30.1090876" lon="151.7195742">
<ele>1349.330</ele>
<time>2017-04-06T07:15:44.726Z</time>
</trkpt>
<trkpt lat="-30.1092479" lon="151.7190181">
<ele>1349.194</ele>
<time>2017-04-06T07:15:46.726Z</time>
</trkpt>
<trkpt lat="-30.1094548" lon="151.7181966">
<ele>1349.448</ele>
<time>2017-04-06T07:15:49.688Z</time>
</trkpt>
<trkpt lat="-30.1097453" lon="151.7174204">
<ele>1349.982</ele>
<time>2017-04-06T07:15:52.670Z</time>
</trkpt>
<trkpt lat="-30.1100481" lon="151.7166599">
<ele>1351.157</ele>
<time>2017-04-06T07:15:55.655Z</time>
</trkpt>
<trkpt lat="-30.1103494" lon="151.7162331">
<ele>1353.556</ele>
<time>2017-04-06T07:15:57.621Z</time>
</trkpt>
<trkpt lat="-30.1107286" lon="151.7158681">
<ele>1356.616</ele>
<time>2017-04-06T07:15:59.639Z</time>
</trkpt>
<trkpt lat="-30.1113576" lon="151.7154157">
<ele>1359.241</ele>
<time>2017-04-06T07:16:02.619Z</time>
</trkpt>
<trkpt lat="-30.1118398" lon="151.7151750">
<ele>1361.927</ele>
<time>2017-04-06T07:16:04.669Z</time>
</trkpt>
<trkpt lat="-30.1123563" lon="151.7150159">
<ele>1365.449</ele>
<time>2017-04-06T07:16:06.704Z</time>
</trkpt>
<trkpt lat="-30.1128710" lon="151.7148815">
<ele>1368.943</ele>
<time>2017-04-06T07:16:08.707Z</time>
</trkpt>
<trkpt lat="-30.1136302" lon="151.7146952">
<ele>1371.403</ele>
<time>2017-04-06T07:16:11.684Z</time>
</trkpt>
<trkpt lat="-30.1141455" lon="151.7145990">
<ele>1372.805</ele>
<time>2017-04-06T07:16:13.703Z</time>
</trkpt>
<trkpt lat="-30.1146414" lon="151.7144367">
<ele>1373.499</ele>
<time>2017-04-06T07:16:15.704Z</time>
</trkpt>
<trkpt lat="-30.1151410" lon="151.7143098">
<ele>1373.875</ele>
<time>2017-04-06T07:16:17.728Z</time>
</trkpt>
<trkpt lat="-30.1158159" lon="151.7140856">
<ele>1374.145</ele>
<time>2017-04-06T07:16:20.622Z</time>
</trkpt>
<trkpt lat="-30.1161991" lon="151.7138265">
<ele>1374.315</ele>
<time>2017-04-06T07:16:22.542Z</time>
</trkpt>
<trkpt lat="-30.1167277" lon="151.7132756">
<ele>1374.330</ele>
<time>2017-04-06T07:16:25.574Z</time>
</trkpt>
<trkpt lat="-30.1171961" lon="151.7125737">
<ele>1374.146</ele>
<time>2017-04-06T07:16:28.669Z</time>
</trkpt>
<trkpt lat="-30.1174972" lon="151.7120886">
<ele>1373.758</ele>
<time>2017-04-06T07:16:30.686Z</time>
</trkpt>
<trkpt lat="-30.1180083" lon="151.7114078">
<ele>1373.333</ele>
<time>2017-04-06T07:16:33.710Z</time>
</trkpt>
<trkpt lat="-30.1183147" lon="151.7109402">
<ele>1373.053</ele>
<time>2017-04-06T07:16:35.683Z</time>
</trkpt>
<trkpt lat="-30.1187304" lon="151.7102022">
<ele>1372.781</ele>
<time>2017-04-06T07:16:38.664Z</time>
</trkpt>
<trkpt lat="-30.1190018" lon="151.7097101">
<ele>1372.303</ele>
<time>2017-04-06T07:16:40.648Z</time>
</trkpt>
<trkpt lat="-30.1192807" lon="151.7092200">
<ele>1371.757</ele>
<time>2017-04-06T07:16:42.641Z</time>
</trkpt>
<trkpt lat="-30.1195737" lon="151.7087322">
<ele>1371.438</ele>
<time>2017-04-06T07:16:44.649Z</time>
</trkpt>
<trkpt lat="-30.1198808" lon="151.7082477">
<ele>1371.387</ele>
<time>2017-04-06T07:16:46.662Z</time>
</trkpt>
<trkpt lat="-30.1201729" lon="151.7077453">
<ele>1371.347</ele>
<time>2017-04-06T07:16:48.672Z</time>
</trkpt>
<trkpt lat="-30.1205975" lon="151.7069807">
<ele>1370.893</ele>
<time>2017-04-06T07:16:51.670Z</time>
</trkpt>
<trkpt lat="-30.1209577" lon="151.7065283">
<ele>1369.418</ele>
<time>2017-04-06T07:16:53.693Z</time>
</trkpt>
<trkpt lat="-30.1213212" lon="151.7057045">
<ele>1366.682</ele>
<time>2017-04-06T07:16:56.730Z</time>
</trkpt>
<trkpt lat="-30.1215816" lon="151.7051807">
<ele>1363.023</ele>
<time>2017-04-06T07:16:58.723Z</time>
</trkpt>
<trkpt lat="-30.1218463" lon="151.7046662">
<ele>1359.106</ele>
<time>2017-04-06T07:17:00.705Z</time>
</trkpt>
<trkpt lat="-30.1222903" lon="151.7039083">
<ele>1355.761</ele>
<time>2017-04-06T07:17:03.721Z</time>
</trkpt>
<trkpt lat="-30.1226946" lon="151.7031035">
<ele>1353.376</ele>
<time>2017-04-06T07:17:06.737Z</time>
</trkpt>
<trkpt lat="-30.1229414" lon="151.7021801">
<ele>1351.494</ele>
<time>2017-04-06T07:17:09.798Z</time>
</trkpt>
<trkpt lat="-30.1230686" lon="151.7015890">
<ele>1349.477</ele>
<time>2017-04-06T07:17:11.751Z</time>
</trkpt>
<trkpt lat="-30.1232412" lon="151.7007061">
<ele>1347.020</ele>
<time>2017-04-06T07:17:14.718Z</time>
</trkpt>
<trkpt lat="-30.1234164" lon="151.6998193">
<ele>1343.972</ele>
<time>2017-04-06T07:17:17.727Z</time>
</trkpt>
<trkpt lat="-30.1235556" lon="151.6989377">
<ele>1340.200</ele>
<time>2017-04-06T07:17:20.699Z</time>
</trkpt>
<trkpt lat="-30.1235169" lon="151.6980366">
<ele>1336.036</ele>
<time>2017-04-06T07:17:23.671Z</time>
</trkpt>
<trkpt lat="-30.1232590" lon="151.6971677">
<ele>1332.191</ele>
<time>2017-04-06T07:17:26.643Z</time>
</trkpt>
<trkpt lat="-30.1229095" lon="151.6963032">
<ele>1328.998</ele>
<time>2017-04-06T07:17:29.678Z</time>
</trkpt>
<trkpt lat="-30.1226071" lon="151.6957791">
<ele>1326.388</ele>
<time>2017-04-06T07:17:31.699Z</time>
</trkpt>
<trkpt lat="-30.1223062" lon="151.6949618">
<ele>1324.186</ele>
<time>2017-04-06T07:17:34.618Z</time>
</trkpt>
<trkpt lat="-30.1220802" lon="151.6944336">
<ele>1322.101</ele>
<time>2017-04-06T07:17:36.603Z</time>
</trkpt>
<trkpt lat="-30.1217409" lon="151.6936559">
<ele>1319.847</ele>
<time>2017-04-06T07:17:39.568Z</time>
</trkpt>
<trkpt lat="-30.1215409" lon="151.6931308">
<ele>1317.328</ele>
<time>2017-04-06T07:17:41.545Z</time>
</trkpt>
<trkpt lat="-30.1214299" lon="151.6925826">
<ele>1314.728</ele>
<time>2017-04-06T07:17:43.492Z</time>
</trkpt>
<trkpt lat="-30.1214686" lon="151.6916898">
<ele>1312.410</ele>
<time>2017-04-06T07:17:46.523Z</time>
</trkpt>
<trkpt lat="-30.1214677" lon="151.6910774">
<ele>1310.658</ele>
<time>2017-04-06T07:17:48.544Z</time>
</trkpt>
<trkpt lat="-30.1214970" lon="151.6904811">
<ele>1309.500</ele>
<time>2017-04-06T07:17:50.522Z</time>
</trkpt>
<trkpt lat="-30.1215421" lon="151.6899098">
<ele>1308.790</ele>
<time>2017-04-06T07:17:52.458Z</time>
</trkpt>
<trkpt lat="-30.1215762" lon="151.6893405">
<ele>1308.221</ele>
<time>2017-04-06T07:17:54.421Z</time>
</trkpt>
<trkpt lat="-30.1218734" lon="151.6885349">
<ele>1307.670</ele>
<time>2017-04-06T07:17:57.456Z</time>
</trkpt>
<trkpt lat="-30.1220942" lon="151.6879980">
<ele>1307.273</ele>
<time>2017-04-06T07:17:59.498Z</time>
</trkpt>
<trkpt lat="-30.1225550" lon="151.6872664">
<ele>1307.098</ele>
<time>2017-04-06T07:18:02.612Z</time>
</trkpt>
<trkpt lat="-30.1229087" lon="151.6868464">
<ele>1306.806</ele>
<time>2017-04-06T07:18:04.628Z</time>
</trkpt>
<trkpt lat="-30.1232452" lon="151.6864466">
<ele>1305.902</ele>
<time>2017-04-06T07:18:06.530Z</time>
</trkpt>
<trkpt lat="-30.1237163" lon="151.6860955">
<ele>1304.345</ele>
<time>2017-04-06T07:18:08.725Z</time>
</trkpt>
<trkpt lat="-30.1243262" lon="151.6858371">
<ele>1302.528</ele>
<time>2017-04-06T07:18:11.259Z</time>
</trkpt>
<trkpt lat="-30.1248848" lon="151.6856787">
<ele>1300.796</ele>
<time>2017-04-06T07:18:13.478Z</time>
</trkpt>
<trkpt lat="-30.1253906" lon="151.6855675">
<ele>1299.438</ele>
<time>2017-04-06T07:18:15.446Z</time>
</trkpt>
<trkpt lat="-30.1258681" lon="151.6854451">
<ele>1298.656</ele>
<time>2017-04-06T07:18:17.315Z</time>
</trkpt>
<trkpt lat="-30.1266930" lon="151.6851836">
<ele>1298.400</ele>
<time>2017-04-06T07:18:20.577Z</time>
</trkpt>
<trkpt lat="-30.1270579" lon="151.6850576">
<ele>1298.462</ele>
<time>2017-04-06T07:18:22.034Z</time>
</trkpt>
<trkpt lat="-30.1279246" lon="151.6847989">
<ele>1298.639</ele>
<time>2017-04-06T07:18:25.450Z</time>
</trkpt>
<trkpt lat="-30.1288443" lon="151.6845623">
<ele>1298.773</ele>
<time>2017-04-06T07:18:28.984Z</time>
</trkpt>
<trkpt lat="-30.1295812" lon="151.6843797">
<ele>1298.805</ele>
<time>2017-04-06T07:18:31.794Z</time>
</trkpt>
<trkpt lat="-30.1303919" lon="151.6840893">
<ele>1298.768</ele>
<time>2017-04-06T07:18:34.962Z</time>
</trkpt>
<trkpt lat="-30.1311563" lon="151.6839074">
<ele>1298.691</ele>
<time>2017-04-06T07:18:37.897Z</time>
</trkpt>
<trkpt lat="-30.1316770" lon="151.6838013">
<ele>1298.562</ele>
<time>2017-04-06T07:18:39.902Z</time>
</trkpt>
<trkpt lat="-30.1324500" lon="151.6836464">
<ele>1298.398</ele>
<time>2017-04-06T07:18:42.881Z</time>
</trkpt>
<trkpt lat="-30.1332624" lon="151.6835128">
<ele>1298.195</ele>
<time>2017-04-06T07:18:45.997Z</time>
</trkpt>
<trkpt lat="-30.1337960" lon="151.6835063">
<ele>1297.935</ele>
<time>2017-04-06T07:18:48.026Z</time>
</trkpt>
<trkpt lat="-30.1345773" lon="151.6834443">
<ele>1297.656</ele>
<time>2017-04-06T07:18:51.001Z</time>
</trkpt>
<trkpt lat="-30.1353585" lon="151.6835222">
<ele>1297.390</ele>
<time>2017-04-06T07:18:53.977Z</time>
</trkpt>
<trkpt lat="-30.1358558" lon="151.6836002">
<ele>1297.148</ele>
<time>2017-04-06T07:18:55.883Z</time>
</trkpt>
<trkpt lat="-30.1366617" lon="151.6836811">
<ele>1297.033</ele>
<time>2017-04-06T07:18:58.949Z</time>
</trkpt>
<trkpt lat="-30.1374508" lon="151.6837198">
<ele>1297.145</ele>
<time>2017-04-06T07:19:01.929Z</time>
</trkpt>
<trkpt lat="-30.1379707" lon="151.6837693">
<ele>1297.491</ele>
<time>2017-04-06T07:19:03.895Z</time>
</trkpt>
<trkpt lat="-30.1385009" lon="151.6838026">
<ele>1297.992</ele>
<time>2017-04-06T07:19:05.900Z</time>
</trkpt>
<trkpt lat="-30.1392905" lon="151.6839280">
<ele>1298.488</ele>
<time>2017-04-06T07:19:08.916Z</time>
</trkpt>
<trkpt lat="-30.1398080" lon="151.6839731">
<ele>1298.807</ele>
<time>2017-04-06T07:19:10.887Z</time>
</trkpt>
<trkpt lat="-30.1405933" lon="151.6840718">
<ele>1298.895</ele>
<time>2017-04-06T07:19:13.888Z</time>
</trkpt>
<trkpt lat="-30.1411874" lon="151.6841356">
<ele>1298.827</ele>
<time>2017-04-06T07:19:16.142Z</time>
</trkpt>
<trkpt lat="-30.1419766" lon="151.6842338">
<ele>1298.695</ele>
<time>2017-04-06T07:19:19.135Z</time>
</trkpt>
<trkpt lat="-30.1424936" lon="151.6842086">
<ele>1298.574</ele>
<time>2017-04-06T07:19:21.089Z</time>
</trkpt>
<trkpt lat="-30.1430097" lon="151.6842648">
<ele>1298.577</ele>
<time>2017-04-06T07:19:23.050Z</time>
</trkpt>
<trkpt lat="-30.1438029" lon="151.6843408">
<ele>1298.821</ele>
<time>2017-04-06T07:19:26.061Z</time>
</trkpt>
<trkpt lat="-30.1445747" lon="151.6843802">
<ele>1299.292</ele>
<time>2017-04-06T07:19:28.992Z</time>
</trkpt>
<trkpt lat="-30.1453669" lon="151.6844018">
<ele>1299.866</ele>
<time>2017-04-06T07:19:32.011Z</time>
</trkpt>
<trkpt lat="-30.1458916" lon="151.6844187">
<ele>1300.395</ele>
<time>2017-04-06T07:19:34.010Z</time>
</trkpt>
<trkpt lat="-30.1466771" lon="151.6843327">
<ele>1300.822</ele>
<time>2017-04-06T07:19:37.008Z</time>
</trkpt>
<trkpt lat="-30.1471967" lon="151.6842610">
<ele>1301.338</ele>
<time>2017-04-06T07:19:38.995Z</time>
</trkpt>
<trkpt lat="-30.1479935" lon="151.6841385">
<ele>1302.237</ele>
<time>2017-04-06T07:19:42.051Z</time>
</trkpt>
<trkpt lat="-30.1487518" lon="151.6839249">
<ele>1303.767</ele>
<time>2017-04-06T07:19:45.016Z</time>
</trkpt>
<trkpt lat="-30.1495349" lon="151.6837188">
<ele>1305.933</ele>
<time>2017-04-06T07:19:48.053Z</time>
</trkpt>
<trkpt lat="-30.1502998" lon="151.6834841">
<ele>1308.387</ele>
<time>2017-04-06T07:19:51.038Z</time>
</trkpt>
<trkpt lat="-30.1510552" lon="151.6831967">
<ele>1310.758</ele>
<time>2017-04-06T07:19:54.039Z</time>
</trkpt>
<trkpt lat="-30.1518129" lon="151.6829040">
<ele>1312.841</ele>
<time>2017-04-06T07:19:57.052Z</time>
</trkpt>
<trkpt lat="-30.1523177" lon="151.6827180">
<ele>1314.445</ele>
<time>2017-04-06T07:19:59.048Z</time>
</trkpt>
<trkpt lat="-30.1530792" lon="151.6824395">
<ele>1315.554</ele>
<time>2017-04-06T07:20:02.061Z</time>
</trkpt>
<trkpt lat="-30.1538399" lon="151.6821878">
<ele>1316.407</ele>
<time>2017-04-06T07:20:05.063Z</time>
</trkpt>
<trkpt lat="-30.1545817" lon="151.6818999">
<ele>1317.539</ele>
<time>2017-04-06T07:20:08.053Z</time>
</trkpt>
<trkpt lat="-30.1553610" lon="151.6817684">
<ele>1319.514</ele>
<time>2017-04-06T07:20:11.062Z</time>
</trkpt>
<trkpt lat="-30.1561514" lon="151.6817572">
<ele>1322.513</ele>
<time>2017-04-06T07:20:14.059Z</time>
</trkpt>
<trkpt lat="-30.1569397" lon="151.6818515">
<ele>1326.208</ele>
<time>2017-04-06T07:20:17.043Z</time>
</trkpt>
<trkpt lat="-30.1577834" lon="151.6820158">
<ele>1329.897</ele>
<time>2017-04-06T07:20:20.254Z</time>
</trkpt>
<trkpt lat="-30.1585244" lon="151.6822785">
<ele>1332.930</ele>
<time>2017-04-06T07:20:23.168Z</time>
</trkpt>
<trkpt lat="-30.1589964" lon="151.6825217">
<ele>1335.138</ele>
<time>2017-04-06T07:20:25.122Z</time>
</trkpt>
<trkpt lat="-30.1594674" lon="151.6828130">
<ele>1336.644</ele>
<time>2017-04-06T07:20:27.143Z</time>
</trkpt>
<trkpt lat="-30.1601757" lon="151.6832140">
<ele>1337.648</ele>
<time>2017-04-06T07:20:30.127Z</time>
</trkpt>
<trkpt lat="-30.1606579" lon="151.6834704">
<ele>1338.401</ele>
<time>2017-04-06T07:20:32.132Z</time>
</trkpt>
<trkpt lat="-30.1611361" lon="151.6837223">
<ele>1339.081</ele>
<time>2017-04-06T07:20:34.118Z</time>
</trkpt>
<trkpt lat="-30.1618415" lon="151.6841438">
<ele>1339.747</ele>
<time>2017-04-06T07:20:37.121Z</time>
</trkpt>
<trkpt lat="-30.1623193" lon="151.6843952">
<ele>1340.542</ele>
<time>2017-04-06T07:20:39.108Z</time>
</trkpt>
<trkpt lat="-30.1630492" lon="151.6847486">
<ele>1341.605</ele>
<time>2017-04-06T07:20:42.103Z</time>
</trkpt>
<trkpt lat="-30.1638016" lon="151.6850369">
<ele>1342.891</ele>
<time>2017-04-06T07:20:45.097Z</time>
</trkpt>
<trkpt lat="-30.1645693" lon="151.6853055">
<ele>1344.241</ele>
<time>2017-04-06T07:20:48.113Z</time>
</trkpt>
<trkpt lat="-30.1653441" lon="151.6855038">
<ele>1345.363</ele>
<time>2017-04-06T07:20:51.096Z</time>
</trkpt>
<trkpt lat="-30.1658596" lon="151.6856193">
<ele>1345.890</ele>
<time>2017-04-06T07:20:53.075Z</time>
</trkpt>
<trkpt lat="-30.1666318" lon="151.6858596">
<ele>1345.733</ele>
<time>2017-04-06T07:20:56.088Z</time>
</trkpt>
<trkpt lat="-30.1674282" lon="151.6859731">
<ele>1345.012</ele>
<time>2017-04-06T07:20:59.113Z</time>
</trkpt>
<trkpt lat="-30.1679548" lon="151.6860319">
<ele>1343.746</ele>
<time>2017-04-06T07:21:01.101Z</time>
</trkpt>
<trkpt lat="-30.1684909" lon="151.6860575">
<ele>1342.093</ele>
<time>2017-04-06T07:21:03.117Z</time>
</trkpt>
<trkpt lat="-30.1692841" lon="151.6860818">
<ele>1340.405</ele>
<time>2017-04-06T07:21:06.107Z</time>
</trkpt>
<trkpt lat="-30.1698035" lon="151.6861110">
<ele>1338.777</ele>
<time>2017-04-06T07:21:08.077Z</time>
</trkpt>
<trkpt lat="-30.1703264" lon="151.6860712">
<ele>1337.148</ele>
<time>2017-04-06T07:21:10.066Z</time>
</trkpt>
<trkpt lat="-30.1711921" lon="151.6860167">
<ele>1335.707</ele>
<time>2017-04-06T07:21:13.344Z</time>
</trkpt>
<trkpt lat="-30.1716985" lon="151.6859458">
<ele>1334.631</ele>
<time>2017-04-06T07:21:15.266Z</time>
</trkpt>
<trkpt lat="-30.1722170" lon="151.6858989">
<ele>1333.866</ele>
<time>2017-04-06T07:21:17.232Z</time>
</trkpt>
<trkpt lat="-30.1729910" lon="151.6856862">
<ele>1333.301</ele>
<time>2017-04-06T07:21:20.248Z</time>
</trkpt>
<trkpt lat="-30.1734878" lon="151.6855437">
<ele>1332.917</ele>
<time>2017-04-06T07:21:22.191Z</time>
</trkpt>
<trkpt lat="-30.1739974" lon="151.6854290">
<ele>1332.668</ele>
<time>2017-04-06T07:21:24.161Z</time>
</trkpt>
<trkpt lat="-30.1744664" lon="151.6852378">
<ele>1332.412</ele>
<time>2017-04-06T07:21:26.046Z</time>
</trkpt>
<trkpt lat="-30.1752206" lon="151.6849095">
<ele>1332.047</ele>
<time>2017-04-06T07:21:29.092Z</time>
</trkpt>
<trkpt lat="-30.1760022" lon="151.6845930">
<ele>1331.511</ele>
<time>2017-04-06T07:21:32.212Z</time>
</trkpt>
<trkpt lat="-30.1765089" lon="151.6843706">
<ele>1330.753</ele>
<time>2017-04-06T07:21:34.251Z</time>
</trkpt>
<trkpt lat="-30.1771961" lon="151.6840147">
<ele>1329.898</ele>
<time>2017-04-06T07:21:37.090Z</time>
</trkpt>
<trkpt lat="-30.1776948" lon="151.6837260">
<ele>1329.185</ele>
<time>2017-04-06T07:21:39.197Z</time>
</trkpt>
<trkpt lat="-30.1781789" lon="151.6834529">
<ele>1328.730</ele>
<time>2017-04-06T07:21:41.225Z</time>
</trkpt>
<trkpt lat="-30.1788754" lon="151.6829831">
<ele>1328.468</ele>
<time>2017-04-06T07:21:44.258Z</time>
</trkpt>
<trkpt lat="-30.1795831" lon="151.6825910">
<ele>1328.251</ele>
<time>2017-04-06T07:21:47.217Z</time>
</trkpt>
<trkpt lat="-30.1800426" lon="151.6822986">
<ele>1327.930</ele>
<time>2017-04-06T07:21:49.199Z</time>
</trkpt>
<trkpt lat="-30.1805237" lon="151.6820316">
<ele>1327.489</ele>
<time>2017-04-06T07:21:51.213Z</time>
</trkpt>
<trkpt lat="-30.1809868" lon="151.6817374">
<ele>1327.069</ele>
<time>2017-04-06T07:21:53.208Z</time>
</trkpt>
<trkpt lat="-30.1816700" lon="151.6812745">
<ele>1326.781</ele>
<time>2017-04-06T07:21:56.204Z</time>
</trkpt>
<trkpt lat="-30.1821460" lon="151.6810369">
<ele>1326.513</ele>
<time>2017-04-06T07:21:58.178Z</time>
</trkpt>
<trkpt lat="-30.1825986" lon="151.6807283">
<ele>1326.118</ele>
<time>2017-04-06T07:22:00.180Z</time>
</trkpt>
<trkpt lat="-30.1833161" lon="151.6803514">
<ele>1325.688</ele>
<time>2017-04-06T07:22:03.177Z</time>
</trkpt>
<trkpt lat="-30.1837817" lon="151.6800603">
<ele>1325.418</ele>
<time>2017-04-06T07:22:05.189Z</time>
</trkpt>
<trkpt lat="-30.1844891" lon="151.6796575">
<ele>1325.377</ele>
<time>2017-04-06T07:22:08.185Z</time>
</trkpt>
<trkpt lat="-30.1852040" lon="151.6792670">
<ele>1325.551</ele>
<time>2017-04-06T07:22:11.192Z</time>
</trkpt>
<trkpt lat="-30.1859158" lon="151.6788970">
<ele>1325.886</ele>
<time>2017-04-06T07:22:14.159Z</time>
</trkpt>
<trkpt lat="-30.1866569" lon="151.6785741">
<ele>1326.343</ele>
<time>2017-04-06T07:22:17.161Z</time>
</trkpt>
<trkpt lat="-30.1871656" lon="151.6784105">
<ele>1326.967</ele>
<time>2017-04-06T07:22:19.161Z</time>
</trkpt>
<trkpt lat="-30.1879169" lon="151.6781437">
<ele>1327.771</ele>
<time>2017-04-06T07:22:22.151Z</time>
</trkpt>
<trkpt lat="-30.1884358" lon="151.6780315">
<ele>1328.862</ele>
<time>2017-04-06T07:22:24.161Z</time>
</trkpt>
<trkpt lat="-30.1892118" lon="151.6778359">
<ele>1330.235</ele>
<time>2017-04-06T07:22:27.179Z</time>
</trkpt>
<trkpt lat="-30.1897355" lon="151.6777549">
<ele>1331.586</ele>
<time>2017-04-06T07:22:29.199Z</time>
</trkpt>
<trkpt lat="-30.1905097" lon="151.6776685">
<ele>1332.686</ele>
<time>2017-04-06T07:22:32.201Z</time>
</trkpt>
<trkpt lat="-30.1910071" lon="151.6775618">
<ele>1333.530</ele>
<time>2017-04-06T07:22:34.183Z</time>
</trkpt>
<trkpt lat="-30.1917541" lon="151.6774408">
<ele>1334.193</ele>
<time>2017-04-06T07:22:37.146Z</time>
</trkpt>
<trkpt lat="-30.1925219" lon="151.6773291">
<ele>1334.986</ele>
<time>2017-04-06T07:22:40.162Z</time>
</trkpt>
<trkpt lat="-30.1932860" lon="151.6771777">
<ele>1336.344</ele>
<time>2017-04-06T07:22:43.164Z</time>
</trkpt>
<trkpt lat="-30.1937996" lon="151.6770912">
<ele>1338.520</ele>
<time>2017-04-06T07:22:45.175Z</time>
</trkpt>
<trkpt lat="-30.1945790" lon="151.6769856">
<ele>1341.226</ele>
<time>2017-04-06T07:22:48.218Z</time>
</trkpt>
<trkpt lat="-30.1950990" lon="151.6769371">
<ele>1343.954</ele>
<time>2017-04-06T07:22:50.237Z</time>
</trkpt>
<trkpt lat="-30.1958565" lon="151.6767533">
<ele>1346.426</ele>
<time>2017-04-06T07:22:53.233Z</time>
</trkpt>
<trkpt lat="-30.1963679" lon="151.6766585">
<ele>1348.482</ele>
<time>2017-04-06T07:22:55.246Z</time>
</trkpt>
<trkpt lat="-30.1968725" lon="151.6766044">
<ele>1349.895</ele>
<time>2017-04-06T07:22:57.225Z</time>
</trkpt>
<trkpt lat="-30.1976302" lon="151.6765230">
<ele>1350.512</ele>
<time>2017-04-06T07:23:00.194Z</time>
</trkpt>
<trkpt lat="-30.1981441" lon="151.6764198">
<ele>1350.268</ele>
<time>2017-04-06T07:23:02.220Z</time>
</trkpt>
<trkpt lat="-30.1989111" lon="151.6763172">
<ele>1349.208</ele>
<time>2017-04-06T07:23:05.222Z</time>
</trkpt>
<trkpt lat="-30.1996653" lon="151.6761888">
<ele>1347.429</ele>
<time>2017-04-06T07:23:08.204Z</time>
</trkpt>
<trkpt lat="-30.2001727" lon="151.6761215">
<ele>1345.142</ele>
<time>2017-04-06T07:23:10.208Z</time>
</trkpt>
<trkpt lat="-30.2006728" lon="151.6760112">
<ele>1342.808</ele>
<time>2017-04-06T07:23:12.211Z</time>
</trkpt>
<trkpt lat="-30.2014191" lon="151.6759014">
<ele>1340.968</ele>
<time>2017-04-06T07:23:15.192Z</time>
</trkpt>
<trkpt lat="-30.2018959" lon="151.6758466">
<ele>1339.739</ele>
<time>2017-04-06T07:23:17.193Z</time>
</trkpt>
<trkpt lat="-30.2025379" lon="151.6756942">
<ele>1338.699</ele>
<time>2017-04-06T07:23:20.149Z</time>
</trkpt>
<trkpt lat="-30.2031040" lon="151.6756068">
<ele>1337.150</ele>
<time>2017-04-06T07:23:23.042Z</time>
</trkpt>
<trkpt lat="-30.2034391" lon="151.6755237">
<ele>1334.716</ele>
<time>2017-04-06T07:23:24.960Z</time>
</trkpt>
<trkpt lat="-30.2039459" lon="151.6755019">
<ele>1331.828</ele>
<time>2017-04-06T07:23:27.898Z</time>
</trkpt>
<trkpt lat="-30.2044667" lon="151.6754087">
<ele>1329.229</ele>
<time>2017-04-06T07:23:30.944Z</time>
</trkpt>
<trkpt lat="-30.2048115" lon="151.6753028">
<ele>1327.304</ele>
<time>2017-04-06T07:23:32.963Z</time>
</trkpt>
<trkpt lat="-30.2051619" lon="151.6752504">
<ele>1326.107</ele>
<time>2017-04-06T07:23:34.956Z</time>
</trkpt>
<trkpt lat="-30.2055160" lon="151.6752046">
<ele>1325.507</ele>
<time>2017-04-06T07:23:36.970Z</time>
</trkpt>
<trkpt lat="-30.2060432" lon="151.6751560">
<ele>1325.231</ele>
<time>2017-04-06T07:23:39.968Z</time>
</trkpt>
<trkpt lat="-30.2063897" lon="151.6750683">
<ele>1325.016</ele>
<time>2017-04-06T07:23:41.975Z</time>
</trkpt>
<trkpt lat="-30.2069143" lon="151.6749554">
<ele>1324.710</ele>
<time>2017-04-06T07:23:44.985Z</time>
</trkpt>
<trkpt lat="-30.2074336" lon="151.6748519">
<ele>1324.332</ele>
<time>2017-04-06T07:23:47.959Z</time>
</trkpt>
<trkpt lat="-30.2077790" lon="151.6747942">
<ele>1323.952</ele>
<time>2017-04-06T07:23:49.934Z</time>
</trkpt>
<trkpt lat="-30.2083071" lon="151.6747516">
<ele>1323.592</ele>
<time>2017-04-06T07:23:52.931Z</time>
</trkpt>
<trkpt lat="-30.2086540" lon="151.6746831">
<ele>1323.217</ele>
<time>2017-04-06T07:23:54.924Z</time>
</trkpt>
<trkpt lat="-30.2089991" lon="151.6746063">
<ele>1322.765</ele>
<time>2017-04-06T07:23:56.916Z</time>
</trkpt>
<trkpt lat="-30.2093437" lon="151.6745371">
<ele>1322.260</ele>
<time>2017-04-06T07:23:58.904Z</time>
</trkpt>
<trkpt lat="-30.2096927" lon="151.6744928">
<ele>1321.814</ele>
<time>2017-04-06T07:24:00.893Z</time>
</trkpt>
<trkpt lat="-30.2100444" lon="151.6744277">
<ele>1321.515</ele>
<time>2017-04-06T07:24:02.894Z</time>
</trkpt>
<trkpt lat="-30.2103964" lon="151.6744036">
<ele>1321.371</ele>
<time>2017-04-06T07:24:04.872Z</time>
</trkpt>
<trkpt lat="-30.2109157" lon="151.6742638">
<ele>1321.339</ele>
<time>2017-04-06T07:24:07.878Z</time>
</trkpt>
<trkpt lat="-30.2114348" lon="151.6741469">
<ele>1321.398</ele>
<time>2017-04-06T07:24:10.870Z</time>
</trkpt>
<trkpt lat="-30.2117847" lon="151.6740936">
<ele>1321.625</ele>
<time>2017-04-06T07:24:12.857Z</time>
</trkpt>
<trkpt lat="-30.2123191" lon="151.6739958">
<ele>1322.069</ele>
<time>2017-04-06T07:24:15.893Z</time>
</trkpt>
<trkpt lat="-30.2126685" lon="151.6739161">
<ele>1322.649</ele>
<time>2017-04-06T07:24:17.900Z</time>
</trkpt>
<trkpt lat="-30.2131954" lon="151.6738198">
<ele>1323.229</ele>
<time>2017-04-06T07:24:20.912Z</time>
</trkpt>
<trkpt lat="-30.2137239" lon="151.6737274">
<ele>1323.788</ele>
<time>2017-04-06T07:24:23.923Z</time>
</trkpt>
<trkpt lat="-30.2140755" lon="151.6736625">
<ele>1324.379</ele>
<time>2017-04-06T07:24:25.942Z</time>
</trkpt>
<trkpt lat="-30.2145910" lon="151.6735845">
<ele>1324.934</ele>
<time>2017-04-06T07:24:28.929Z</time>
</trkpt>
<trkpt lat="-30.2149240" lon="151.6735246">
<ele>1325.300</ele>
<time>2017-04-06T07:24:30.890Z</time>
</trkpt>
<trkpt lat="-30.2152640" lon="151.6734609">
<ele>1325.485</ele>
<time>2017-04-06T07:24:32.900Z</time>
</trkpt>
<trkpt lat="-30.2157787" lon="151.6734557">
<ele>1325.621</ele>
<time>2017-04-06T07:24:35.904Z</time>
</trkpt>
<trkpt lat="-30.2162827" lon="151.6733712">
<ele>1325.833</ele>
<time>2017-04-06T07:24:38.880Z</time>
</trkpt>
<trkpt lat="-30.2166237" lon="151.6733140">
<ele>1326.143</ele>
<time>2017-04-06T07:24:40.890Z</time>
</trkpt>
<trkpt lat="-30.2171314" lon="151.6732272">
<ele>1326.468</ele>
<time>2017-04-06T07:24:43.877Z</time>
</trkpt>
<trkpt lat="-30.2174822" lon="151.6731998">
<ele>1326.825</ele>
<time>2017-04-06T07:24:45.908Z</time>
</trkpt>
<trkpt lat="-30.2180057" lon="151.6731650">
<ele>1327.323</ele>
<time>2017-04-06T07:24:48.922Z</time>
</trkpt>
<trkpt lat="-30.2183504" lon="151.6730703">
<ele>1327.972</ele>
<time>2017-04-06T07:24:50.950Z</time>
</trkpt>
<trkpt lat="-30.2187065" lon="151.6730129">
<ele>1328.625</ele>
<time>2017-04-06T07:24:52.998Z</time>
</trkpt>
<trkpt lat="-30.2190548" lon="151.6729302">
<ele>1329.073</ele>
<time>2017-04-06T07:24:55.025Z</time>
</trkpt>
<trkpt lat="-30.2195685" lon="151.6728186">
<ele>1329.219</ele>
<time>2017-04-06T07:24:58.002Z</time>
</trkpt>
<trkpt lat="-30.2200943" lon="151.6727225">
<ele>1329.100</ele>
<time>2017-04-06T07:25:01.024Z</time>
</trkpt>
<trkpt lat="-30.2204291" lon="151.6726339">
<ele>1328.753</ele>
<time>2017-04-06T07:25:02.997Z</time>
</trkpt>
<trkpt lat="-30.2209201" lon="151.6725437">
<ele>1328.262</ele>
<time>2017-04-06T07:25:05.917Z</time>
</trkpt>
<trkpt lat="-30.2214203" lon="151.6725089">
<ele>1327.757</ele>
<time>2017-04-06T07:25:08.919Z</time>
</trkpt>
<trkpt lat="-30.2217503" lon="151.6724428">
<ele>1327.323</ele>
<time>2017-04-06T07:25:10.919Z</time>
</trkpt>
<trkpt lat="-30.2220833" lon="151.6724034">
<ele>1326.992</ele>
<time>2017-04-06T07:25:12.907Z</time>
</trkpt>
<trkpt lat="-30.2225778" lon="151.6722929">
<ele>1326.783</ele>
<time>2017-04-06T07:25:15.891Z</time>
</trkpt>
<trkpt lat="-30.2229191" lon="151.6722495">
<ele>1326.590</ele>
<time>2017-04-06T07:25:17.912Z</time>
</trkpt>
<trkpt lat="-30.2234291" lon="151.6721560">
<ele>1326.227</ele>
<time>2017-04-06T07:25:20.943Z</time>
</trkpt>
<trkpt lat="-30.2237693" lon="151.6721036">
<ele>1325.573</ele>
<time>2017-04-06T07:25:22.959Z</time>
</trkpt>
<trkpt lat="-30.2241079" lon="151.6720854">
<ele>1324.620</ele>
<time>2017-04-06T07:25:24.948Z</time>
</trkpt>
<trkpt lat="-30.2244456" lon="151.6720328">
<ele>1323.520</ele>
<time>2017-04-06T07:25:26.948Z</time>
</trkpt>
<trkpt lat="-30.2249439" lon="151.6719439">
<ele>1322.456</ele>
<time>2017-04-06T07:25:29.912Z</time>
</trkpt>
<trkpt lat="-30.2252754" lon="151.6718714">
<ele>1321.477</ele>
<time>2017-04-06T07:25:31.898Z</time>
</trkpt>
<trkpt lat="-30.2257783" lon="151.6717724">
<ele>1320.663</ele>
<time>2017-04-06T07:25:34.909Z</time>
</trkpt>
<trkpt lat="-30.2261071" lon="151.6717066">
<ele>1320.141</ele>
<time>2017-04-06T07:25:36.887Z</time>
</trkpt>
<trkpt lat="-30.2266134" lon="151.6717051">
<ele>1319.918</ele>
<time>2017-04-06T07:25:39.892Z</time>
</trkpt>
<trkpt lat="-30.2269489" lon="151.6716992">
<ele>1319.954</ele>
<time>2017-04-06T07:25:41.882Z</time>
</trkpt>
<trkpt lat="-30.2272711" lon="151.6718205">
<ele>1320.249</ele>
<time>2017-04-06T07:25:43.887Z</time>
</trkpt>
<trkpt lat="-30.2276028" lon="151.6719103">
<ele>1320.774</ele>
<time>2017-04-06T07:25:45.896Z</time>
</trkpt>
<trkpt lat="-30.2280921" lon="151.6720447">
<ele>1321.507</ele>
<time>2017-04-06T07:25:48.868Z</time>
</trkpt>
<trkpt lat="-30.2284125" lon="151.6721444">
<ele>1322.501</ele>
<time>2017-04-06T07:25:50.839Z</time>
</trkpt>
<trkpt lat="-30.2289166" lon="151.6723055">
<ele>1323.721</ele>
<time>2017-04-06T07:25:53.943Z</time>
</trkpt>
<trkpt lat="-30.2292524" lon="151.6723238">
<ele>1325.037</ele>
<time>2017-04-06T07:25:55.969Z</time>
</trkpt>
<trkpt lat="-30.2297230" lon="151.6723301">
<ele>1326.264</ele>
<time>2017-04-06T07:25:58.874Z</time>
</trkpt>
<trkpt lat="-30.2300339" lon="151.6723163">
<ele>1327.162</ele>
<time>2017-04-06T07:26:00.806Z</time>
</trkpt>
<trkpt lat="-30.2305365" lon="151.6722241">
<ele>1327.614</ele>
<time>2017-04-06T07:26:03.899Z</time>
</trkpt>
<trkpt lat="-30.2310335" lon="151.6721500">
<ele>1327.737</ele>
<time>2017-04-06T07:26:06.865Z</time>
</trkpt>
<trkpt lat="-30.2313681" lon="151.6720245">
<ele>1327.666</ele>
<time>2017-04-06T07:26:08.925Z</time>
</trkpt>
<trkpt lat="-30.2318835" lon="151.6719312">
<ele>1327.499</ele>
<time>2017-04-06T07:26:12.003Z</time>
</trkpt>
<trkpt lat="-30.2323621" lon="151.6718126">
<ele>1327.437</ele>
<time>2017-04-06T07:26:14.937Z</time>
</trkpt>
<trkpt lat="-30.2326920" lon="151.6717696">
<ele>1327.758</ele>
<time>2017-04-06T07:26:16.936Z</time>
</trkpt>
<trkpt lat="-30.2331923" lon="151.6717038">
<ele>1328.445</ele>
<time>2017-04-06T07:26:19.939Z</time>
</trkpt>
<trkpt lat="-30.2335318" lon="151.6716385">
<ele>1329.147</ele>
<time>2017-04-06T07:26:21.974Z</time>
</trkpt>
<trkpt lat="-30.2340255" lon="151.6715406">
<ele>1329.593</ele>
<time>2017-04-06T07:26:24.964Z</time>
</trkpt>
<trkpt lat="-30.2345070" lon="151.6714653">
<ele>1329.680</ele>
<time>2017-04-06T07:26:27.931Z</time>
</trkpt>
<trkpt lat="-30.2349841" lon="151.6713650">
<ele>1329.354</ele>
<time>2017-04-06T07:26:30.935Z</time>
</trkpt>
<trkpt lat="-30.2353080" lon="151.6713295">
<ele>1328.692</ele>
<time>2017-04-06T07:26:32.939Z</time>
</trkpt>
<trkpt lat="-30.2356363" lon="151.6712755">
<ele>1327.902</ele>
<time>2017-04-06T07:26:34.956Z</time>
</trkpt>
<trkpt lat="-30.2359658" lon="151.6712275">
<ele>1327.207</ele>
<time>2017-04-06T07:26:36.960Z</time>
</trkpt>
<trkpt lat="-30.2364505" lon="151.6711043">
<ele>1326.732</ele>
<time>2017-04-06T07:26:39.957Z</time>
</trkpt>
<trkpt lat="-30.2369389" lon="151.6710509">
<ele>1326.465</ele>
<time>2017-04-06T07:26:42.951Z</time>
</trkpt>
<trkpt lat="-30.2372559" lon="151.6709741">
<ele>1326.347</ele>
<time>2017-04-06T07:26:44.937Z</time>
</trkpt>
<trkpt lat="-30.2375798" lon="151.6708980">
<ele>1326.322</ele>
<time>2017-04-06T07:26:46.943Z</time>
</trkpt>
<trkpt lat="-30.2380769" lon="151.6708197">
<ele>1326.363</ele>
<time>2017-04-06T07:26:49.962Z</time>
</trkpt>
<trkpt lat="-30.2384079" lon="151.6707490">
<ele>1326.466</ele>
<time>2017-04-06T07:26:51.963Z</time>
</trkpt>
<trkpt lat="-30.2389129" lon="151.6706323">
<ele>1326.639</ele>
<time>2017-04-06T07:26:54.974Z</time>
</trkpt>
<trkpt lat="-30.2392647" lon="151.6705945">
<ele>1326.897</ele>
<time>2017-04-06T07:26:56.982Z</time>
</trkpt>
<trkpt lat="-30.2398081" lon="151.6705381">
<ele>1327.220</ele>
<time>2017-04-06T07:27:00.038Z</time>
</trkpt>
<trkpt lat="-30.2401619" lon="151.6704685">
<ele>1327.523</ele>
<time>2017-04-06T07:27:02.028Z</time>
</trkpt>
<trkpt lat="-30.2406951" lon="151.6703791">
<ele>1327.722</ele>
<time>2017-04-06T07:27:05.026Z</time>
</trkpt>
<trkpt lat="-30.2412151" lon="151.6703028">
<ele>1327.744</ele>
<time>2017-04-06T07:27:07.996Z</time>
</trkpt>
<trkpt lat="-30.2417212" lon="151.6702329">
<ele>1327.433</ele>
<time>2017-04-06T07:27:10.940Z</time>
</trkpt>
<trkpt lat="-30.2422308" lon="151.6701256">
<ele>1326.745</ele>
<time>2017-04-06T07:27:13.937Z</time>
</trkpt>
<trkpt lat="-30.2427519" lon="151.6700052">
<ele>1325.924</ele>
<time>2017-04-06T07:27:16.967Z</time>
</trkpt>
<trkpt lat="-30.2432775" lon="151.6699133">
<ele>1325.138</ele>
<time>2017-04-06T07:27:19.973Z</time>
</trkpt>
<trkpt lat="-30.2437986" lon="151.6698473">
<ele>1324.303</ele>
<time>2017-04-06T07:27:22.939Z</time>
</trkpt>
<trkpt lat="-30.2443309" lon="151.6697836">
<ele>1323.401</ele>
<time>2017-04-06T07:27:25.909Z</time>
</trkpt>
<trkpt lat="-30.2447162" lon="151.6697169">
<ele>1322.629</ele>
<time>2017-04-06T07:27:27.898Z</time>
</trkpt>
<trkpt lat="-30.2453769" lon="151.6697151">
<ele>1322.256</ele>
<time>2017-04-06T07:27:31.027Z</time>
</trkpt>
<trkpt lat="-30.2458173" lon="151.6697562">
<ele>1322.436</ele>
<time>2017-04-06T07:27:33.038Z</time>
</trkpt>
<trkpt lat="-30.2464403" lon="151.6699198">
<ele>1322.971</ele>
<time>2017-04-06T07:27:35.968Z</time>
</trkpt>
<trkpt lat="-30.2468563" lon="151.6700677">
<ele>1323.445</ele>
<time>2017-04-06T07:27:37.977Z</time>
</trkpt>
<trkpt lat="-30.2474799" lon="151.6703225">
<ele>1323.627</ele>
<time>2017-04-06T07:27:41.001Z</time>
</trkpt>
<trkpt lat="-30.2480365" lon="151.6707438">
<ele>1323.584</ele>
<time>2017-04-06T07:27:44.009Z</time>
</trkpt>
<trkpt lat="-30.2483862" lon="151.6710728">
<ele>1323.419</ele>
<time>2017-04-06T07:27:46.012Z</time>
</trkpt>
<trkpt lat="-30.2488997" lon="151.6715983">
<ele>1323.206</ele>
<time>2017-04-06T07:27:48.983Z</time>
</trkpt>
<trkpt lat="-30.2493576" lon="151.6722537">
<ele>1323.077</ele>
<time>2017-04-06T07:27:52.004Z</time>
</trkpt>
<trkpt lat="-30.2496637" lon="151.6727440">
<ele>1323.296</ele>
<time>2017-04-06T07:27:54.114Z</time>
</trkpt>
<trkpt lat="-30.2501405" lon="151.6733961">
<ele>1323.973</ele>
<time>2017-04-06T07:27:57.118Z</time>
</trkpt>
<trkpt lat="-30.2505968" lon="151.6740455">
<ele>1324.821</ele>
<time>2017-04-06T07:28:00.123Z</time>
</trkpt>
<trkpt lat="-30.2510240" lon="151.6747134">
<ele>1325.473</ele>
<time>2017-04-06T07:28:03.122Z</time>
</trkpt>
<trkpt lat="-30.2513581" lon="151.6751238">
<ele>1325.931</ele>
<time>2017-04-06T07:28:05.130Z</time>
</trkpt>
<trkpt lat="-30.2519367" lon="151.6756517">
<ele>1326.350</ele>
<time>2017-04-06T07:28:08.150Z</time>
</trkpt>
<trkpt lat="-30.2526239" lon="151.6759829">
<ele>1326.765</ele>
<time>2017-04-06T07:28:11.201Z</time>
</trkpt>
<trkpt lat="-30.2533125" lon="151.6762967">
<ele>1327.396</ele>
<time>2017-04-06T07:28:14.220Z</time>
</trkpt>
<trkpt lat="-30.2540365" lon="151.6765278">
<ele>1328.671</ele>
<time>2017-04-06T07:28:17.250Z</time>
</trkpt>
<trkpt lat="-30.2547794" lon="151.6766174">
<ele>1330.662</ele>
<time>2017-04-06T07:28:20.237Z</time>
</trkpt>
<trkpt lat="-30.2552884" lon="151.6766290">
<ele>1333.025</ele>
<time>2017-04-06T07:28:22.247Z</time>
</trkpt>
<trkpt lat="-30.2560623" lon="151.6765610">
<ele>1335.372</ele>
<time>2017-04-06T07:28:25.289Z</time>
</trkpt>
<trkpt lat="-30.2565687" lon="151.6764993">
<ele>1337.536</ele>
<time>2017-04-06T07:28:27.297Z</time>
</trkpt>
<trkpt lat="-30.2573198" lon="151.6764054">
<ele>1339.491</ele>
<time>2017-04-06T07:28:30.298Z</time>
</trkpt>
<trkpt lat="-30.2580769" lon="151.6763321">
<ele>1341.277</ele>
<time>2017-04-06T07:28:33.321Z</time>
</trkpt>
<trkpt lat="-30.2585854" lon="151.6763546">
<ele>1343.077</ele>
<time>2017-04-06T07:28:35.335Z</time>
</trkpt>
<trkpt lat="-30.2590917" lon="151.6763208">
<ele>1344.998</ele>
<time>2017-04-06T07:28:37.335Z</time>
</trkpt>
<trkpt lat="-30.2598460" lon="151.6764597">
<ele>1346.926</ele>
<time>2017-04-06T07:28:40.338Z</time>
</trkpt>
<trkpt lat="-30.2605933" lon="151.6766509">
<ele>1348.978</ele>
<time>2017-04-06T07:28:43.339Z</time>
</trkpt>
<trkpt lat="-30.2610820" lon="151.6768380">
<ele>1351.392</ele>
<time>2017-04-06T07:28:45.356Z</time>
</trkpt>
<trkpt lat="-30.2617904" lon="151.6772003">
<ele>1353.961</ele>
<time>2017-04-06T07:28:48.394Z</time>
</trkpt>
<trkpt lat="-30.2624460" lon="151.6776326">
<ele>1356.337</ele>
<time>2017-04-06T07:28:51.357Z</time>
</trkpt>
<trkpt lat="-30.2628814" lon="151.6779382">
<ele>1358.492</ele>
<time>2017-04-06T07:28:53.358Z</time>
</trkpt>
<trkpt lat="-30.2635209" lon="151.6784170">
<ele>1360.362</ele>
<time>2017-04-06T07:28:56.347Z</time>
</trkpt>
<trkpt lat="-30.2639381" lon="151.6787605">
<ele>1361.783</ele>
<time>2017-04-06T07:28:58.345Z</time>
</trkpt>
<trkpt lat="-30.2646065" lon="151.6792141">
<ele>1362.831</ele>
<time>2017-04-06T07:29:01.359Z</time>
</trkpt>
<trkpt lat="-30.2650691" lon="151.6794656">
<ele>1363.785</ele>
<time>2017-04-06T07:29:03.354Z</time>
</trkpt>
<trkpt lat="-30.2655466" lon="151.6796871">
<ele>1364.916</ele>
<time>2017-04-06T07:29:05.369Z</time>
</trkpt>
<trkpt lat="-30.2662632" lon="151.6799659">
<ele>1366.334</ele>
<time>2017-04-06T07:29:08.325Z</time>
</trkpt>
<trkpt lat="-30.2667624" lon="151.6801004">
<ele>1367.902</ele>
<time>2017-04-06T07:29:10.317Z</time>
</trkpt>
<trkpt lat="-30.2672737" lon="151.6801951">
<ele>1369.224</ele>
<time>2017-04-06T07:29:12.338Z</time>
</trkpt>
<trkpt lat="-30.2680192" lon="151.6803319">
<ele>1369.896</ele>
<time>2017-04-06T07:29:15.363Z</time>
</trkpt>
<trkpt lat="-30.2686999" lon="151.6804516">
<ele>1369.724</ele>
<time>2017-04-06T07:29:18.278Z</time>
</trkpt>
<trkpt lat="-30.2691471" lon="151.6805107">
<ele>1368.731</ele>
<time>2017-04-06T07:29:20.259Z</time>
</trkpt>
<trkpt lat="-30.2695905" lon="151.6806139">
<ele>1367.319</ele>
<time>2017-04-06T07:29:22.234Z</time>
</trkpt>
<trkpt lat="-30.2702775" lon="151.6807607">
<ele>1366.075</ele>
<time>2017-04-06T07:29:25.240Z</time>
</trkpt>
<trkpt lat="-30.2707355" lon="151.6809119">
<ele>1365.248</ele>
<time>2017-04-06T07:29:27.252Z</time>
</trkpt>
<trkpt lat="-30.2711909" lon="151.6810719">
<ele>1364.734</ele>
<time>2017-04-06T07:29:29.262Z</time>
</trkpt>
<trkpt lat="-30.2716354" lon="151.6812450">
<ele>1364.398</ele>
<time>2017-04-06T07:29:31.279Z</time>
</trkpt>
<trkpt lat="-30.2722494" lon="151.6815304">
<ele>1364.194</ele>
<time>2017-04-06T07:29:34.239Z</time>
</trkpt>
<trkpt lat="-30.2726129" lon="151.6816919">
<ele>1364.117</ele>
<time>2017-04-06T07:29:36.124Z</time>
</trkpt>
<trkpt lat="-30.2729768" lon="151.6818866">
<ele>1364.161</ele>
<time>2017-04-06T07:29:38.125Z</time>
</trkpt>
<trkpt lat="-30.2733395" lon="151.6820707">
<ele>1364.438</ele>
<time>2017-04-06T07:29:40.100Z</time>
</trkpt>
<trkpt lat="-30.2739133" lon="151.6822994">
<ele>1365.135</ele>
<time>2017-04-06T07:29:43.106Z</time>
</trkpt>
<trkpt lat="-30.2742914" lon="151.6824686">
<ele>1366.402</ele>
<time>2017-04-06T07:29:45.101Z</time>
</trkpt>
<trkpt lat="-30.2746820" lon="151.6826004">
<ele>1368.091</ele>
<time>2017-04-06T07:29:47.163Z</time>
</trkpt>
<trkpt lat="-30.2751961" lon="151.6828397">
<ele>1369.677</ele>
<time>2017-04-06T07:29:50.150Z</time>
</trkpt>
<trkpt lat="-30.2754940" lon="151.6829688">
<ele>1370.677</ele>
<time>2017-04-06T07:29:52.060Z</time>
</trkpt>
<trkpt lat="-30.2757724" lon="151.6830970">
<ele>1371.014</ele>
<time>2017-04-06T07:29:53.982Z</time>
</trkpt>
<trkpt lat="-30.2760608" lon="151.6831735">
<ele>1370.863</ele>
<time>2017-04-06T07:29:55.950Z</time>
</trkpt>
<trkpt lat="-30.2764678" lon="151.6833740">
<ele>1370.460</ele>
<time>2017-04-06T07:29:58.922Z</time>
</trkpt>
<trkpt lat="-30.2768778" lon="151.6835527">
<ele>1369.975</ele>
<time>2017-04-06T07:30:01.874Z</time>
</trkpt>
<trkpt lat="-30.2771546" lon="151.6836459">
<ele>1369.462</ele>
<time>2017-04-06T07:30:03.855Z</time>
</trkpt>
<trkpt lat="-30.2774210" lon="151.6837197">
<ele>1368.926</ele>
<time>2017-04-06T07:30:05.804Z</time>
</trkpt>
<trkpt lat="-30.2777726" lon="151.6839397">
<ele>1368.376</ele>
<time>2017-04-06T07:30:08.750Z</time>
</trkpt>
<trkpt lat="-30.2780139" lon="151.6840439">
<ele>1367.789</ele>
<time>2017-04-06T07:30:10.715Z</time>
</trkpt>
<trkpt lat="-30.2783084" lon="151.6843236">
<ele>1367.143</ele>
<time>2017-04-06T07:30:13.690Z</time>
</trkpt>
<trkpt lat="-30.2785255" lon="151.6844546">
<ele>1366.431</ele>
<time>2017-04-06T07:30:15.635Z</time>
</trkpt>
<trkpt lat="-30.2787637" lon="151.6845815">
<ele>1365.724</ele>
<time>2017-04-06T07:30:17.653Z</time>
</trkpt>
<trkpt lat="-30.2790069" lon="151.6847397">
<ele>1365.182</ele>
<time>2017-04-06T07:30:19.692Z</time>
</trkpt>
<trkpt lat="-30.2792419" lon="151.6849213">
<ele>1364.882</ele>
<time>2017-04-06T07:30:21.687Z</time>
</trkpt>
<trkpt lat="-30.2794799" lon="151.6851179">
<ele>1364.726</ele>
<time>2017-04-06T07:30:23.717Z</time>
</trkpt>
<trkpt lat="-30.2796881" lon="151.6853570">
<ele>1364.563</ele>
<time>2017-04-06T07:30:25.745Z</time>
</trkpt>
<trkpt lat="-30.2800495" lon="151.6856254">
<ele>1364.327</ele>
<time>2017-04-06T07:30:28.706Z</time>
</trkpt>
<trkpt lat="-30.2802553" lon="151.6858748">
<ele>1364.018</ele>
<time>2017-04-06T07:30:30.720Z</time>
</trkpt>
<trkpt lat="-30.2805119" lon="151.6860815">
<ele>1363.653</ele>
<time>2017-04-06T07:30:32.751Z</time>
</trkpt>
<trkpt lat="-30.2809201" lon="151.6864266">
<ele>1363.338</ele>
<time>2017-04-06T07:30:35.864Z</time>
</trkpt>
<trkpt lat="-30.2811705" lon="151.6867008">
<ele>1363.197</ele>
<time>2017-04-06T07:30:37.884Z</time>
</trkpt>
<trkpt lat="-30.2815675" lon="151.6870874">
<ele>1363.234</ele>
<time>2017-04-06T07:30:40.879Z</time>
</trkpt>
<trkpt lat="-30.2818509" lon="151.6873194">
<ele>1363.354</ele>
<time>2017-04-06T07:30:42.881Z</time>
</trkpt>
<trkpt lat="-30.2822314" lon="151.6876910">
<ele>1363.453</ele>
<time>2017-04-06T07:30:45.792Z</time>
</trkpt>
<trkpt lat="-30.2825140" lon="151.6878561">
<ele>1363.426</ele>
<time>2017-04-06T07:30:47.674Z</time>
</trkpt>
<trkpt lat="-30.2828396" lon="151.6880898">
<ele>1363.177</ele>
<time>2017-04-06T07:30:49.938Z</time>
</trkpt>
<trkpt lat="-30.2833046" lon="151.6883634">
<ele>1362.653</ele>
<time>2017-04-06T07:30:52.995Z</time>
</trkpt>
<trkpt lat="-30.2835937" lon="151.6885765">
<ele>1361.711</ele>
<time>2017-04-06T07:30:55.007Z</time>
</trkpt>
<trkpt lat="-30.2838867" lon="151.6886762">
<ele>1360.276</ele>
<time>2017-04-06T07:30:56.800Z</time>
</trkpt>
<trkpt lat="-30.2842622" lon="151.6888394">
<ele>1358.563</ele>
<time>2017-04-06T07:30:59.131Z</time>
</trkpt>
<trkpt lat="-30.2844961" lon="151.6888970">
<ele>1356.806</ele>
<time>2017-04-06T07:31:00.500Z</time>
</trkpt>
<trkpt lat="-30.2850336" lon="151.6891342">
<ele>1355.038</ele>
<time>2017-04-06T07:31:03.704Z</time>
</trkpt>
<trkpt lat="-30.2855899" lon="151.6893555">
<ele>1353.209</ele>
<time>2017-04-06T07:31:06.804Z</time>
</trkpt>
<trkpt lat="-30.2859793" lon="151.6894454">
<ele>1351.246</ele>
<time>2017-04-06T07:31:08.794Z</time>
</trkpt>
<trkpt lat="-30.2864009" lon="151.6896092">
<ele>1349.268</ele>
<time>2017-04-06T07:31:10.931Z</time>
</trkpt>
<trkpt lat="-30.2869412" lon="151.6896959">
<ele>1347.567</ele>
<time>2017-04-06T07:31:13.485Z</time>
</trkpt>
<trkpt lat="-30.2874197" lon="151.6897505">
<ele>1346.204</ele>
<time>2017-04-06T07:31:15.688Z</time>
</trkpt>
<trkpt lat="-30.2881537" lon="151.6897825">
<ele>1345.007</ele>
<time>2017-04-06T07:31:19.014Z</time>
</trkpt>
<trkpt lat="-30.2885684" lon="151.6898044">
<ele>1343.860</ele>
<time>2017-04-06T07:31:20.887Z</time>
</trkpt>
<trkpt lat="-30.2892654" lon="151.6897907">
<ele>1342.777</ele>
<time>2017-04-06T07:31:24.032Z</time>
</trkpt>
<trkpt lat="-30.2896689" lon="151.6898405">
<ele>1341.820</ele>
<time>2017-04-06T07:31:25.859Z</time>
</trkpt>
<trkpt lat="-30.2903828" lon="151.6898305">
<ele>1341.041</ele>
<time>2017-04-06T07:31:29.019Z</time>
</trkpt>
<trkpt lat="-30.2911030" lon="151.6898331">
<ele>1340.511</ele>
<time>2017-04-06T07:31:32.047Z</time>
</trkpt>
<trkpt lat="-30.2918736" lon="151.6897847">
<ele>1340.326</ele>
<time>2017-04-06T07:31:35.156Z</time>
</trkpt>
<trkpt lat="-30.2926027" lon="151.6897835">
<ele>1340.422</ele>
<time>2017-04-06T07:31:38.090Z</time>
</trkpt>
<trkpt lat="-30.2930877" lon="151.6897782">
<ele>1340.596</ele>
<time>2017-04-06T07:31:40.067Z</time>
</trkpt>
<trkpt lat="-30.2935749" lon="151.6897495">
<ele>1340.703</ele>
<time>2017-04-06T07:31:42.066Z</time>
</trkpt>
<trkpt lat="-30.2939647" lon="151.6897792">
<ele>1340.675</ele>
<time>2017-04-06T07:31:43.665Z</time>
</trkpt>
<trkpt lat="-30.2947762" lon="151.6898151">
<ele>1340.509</ele>
<time>2017-04-06T07:31:46.958Z</time>
</trkpt>
<trkpt lat="-30.2955075" lon="151.6897943">
<ele>1340.318</ele>
<time>2017-04-06T07:31:49.887Z</time>
</trkpt>
<trkpt lat="-30.2962850" lon="151.6897795">
<ele>1340.258</ele>
<time>2017-04-06T07:31:52.988Z</time>
</trkpt>
<trkpt lat="-30.2970719" lon="151.6897256">
<ele>1340.483</ele>
<time>2017-04-06T07:31:56.141Z</time>
</trkpt>
<trkpt lat="-30.2975998" lon="151.6897042">
<ele>1341.207</ele>
<time>2017-04-06T07:31:58.269Z</time>
</trkpt>
<trkpt lat="-30.2983364" lon="151.6896832">
<ele>1342.395</ele>
<time>2017-04-06T07:32:01.250Z</time>
</trkpt>
<trkpt lat="-30.2988329" lon="151.6896865">
<ele>1343.749</ele>
<time>2017-04-06T07:32:03.249Z</time>
</trkpt>
<trkpt lat="-30.2995872" lon="151.6896905">
<ele>1345.065</ele>
<time>2017-04-06T07:32:06.254Z</time>
</trkpt>
<trkpt lat="-30.3003511" lon="151.6896206">
<ele>1346.274</ele>
<time>2017-04-06T07:32:09.267Z</time>
</trkpt>
<trkpt lat="-30.3009257" lon="151.6896249">
<ele>1347.295</ele>
<time>2017-04-06T07:32:11.522Z</time>
</trkpt>
<trkpt lat="-30.3014139" lon="151.6896392">
<ele>1348.080</ele>
<time>2017-04-06T07:32:13.449Z</time>
</trkpt>
<trkpt lat="-30.3019105" lon="151.6896836">
<ele>1348.692</ele>
<time>2017-04-06T07:32:15.424Z</time>
</trkpt>
<trkpt lat="-30.3026626" lon="151.6897146">
<ele>1349.276</ele>
<time>2017-04-06T07:32:18.425Z</time>
</trkpt>
<trkpt lat="-30.3033999" lon="151.6897238">
<ele>1349.990</ele>
<time>2017-04-06T07:32:21.405Z</time>
</trkpt>
<trkpt lat="-30.3038826" lon="151.6897276">
<ele>1351.061</ele>
<time>2017-04-06T07:32:23.408Z</time>
</trkpt>
<trkpt lat="-30.3045808" lon="151.6897249">
<ele>1352.407</ele>
<time>2017-04-06T07:32:26.369Z</time>
</trkpt>
<trkpt lat="-30.3050281" lon="151.6897263">
<ele>1353.526</ele>
<time>2017-04-06T07:32:28.331Z</time>
</trkpt>
<trkpt lat="-30.3054632" lon="151.6896922">
<ele>1354.131</ele>
<time>2017-04-06T07:32:30.262Z</time>
</trkpt>
<trkpt lat="-30.3059140" lon="151.6896679">
<ele>1354.437</ele>
<time>2017-04-06T07:32:32.227Z</time>
</trkpt>
<trkpt lat="-30.3066245" lon="151.6896316">
<ele>1354.807</ele>
<time>2017-04-06T07:32:35.271Z</time>
</trkpt>
<trkpt lat="-30.3073402" lon="151.6896268">
<ele>1355.370</ele>
<time>2017-04-06T07:32:38.298Z</time>
</trkpt>
<trkpt lat="-30.3078132" lon="151.6895696">
<ele>1356.062</ele>
<time>2017-04-06T07:32:40.314Z</time>
</trkpt>
<trkpt lat="-30.3082725" lon="151.6895649">
<ele>1356.775</ele>
<time>2017-04-06T07:32:42.292Z</time>
</trkpt>
<trkpt lat="-30.3089438" lon="151.6895505">
<ele>1357.321</ele>
<time>2017-04-06T07:32:45.264Z</time>
</trkpt>
<trkpt lat="-30.3093580" lon="151.6895721">
<ele>1357.462</ele>
<time>2017-04-06T07:32:47.183Z</time>
</trkpt>
<trkpt lat="-30.3099963" lon="151.6896475">
<ele>1357.118</ele>
<time>2017-04-06T07:32:50.180Z</time>
</trkpt>
<trkpt lat="-30.3106434" lon="151.6896872">
<ele>1356.414</ele>
<time>2017-04-06T07:32:53.188Z</time>
</trkpt>
<trkpt lat="-30.3110612" lon="151.6897490">
<ele>1355.381</ele>
<time>2017-04-06T07:32:55.139Z</time>
</trkpt>
<trkpt lat="-30.3116885" lon="151.6899235">
<ele>1353.899</ele>
<time>2017-04-06T07:32:58.130Z</time>
</trkpt>
<trkpt lat="-30.3123322" lon="151.6900131">
<ele>1351.887</ele>
<time>2017-04-06T07:33:01.140Z</time>
</trkpt>
<trkpt lat="-30.3129345" lon="151.6902202">
<ele>1349.363</ele>
<time>2017-04-06T07:33:04.116Z</time>
</trkpt>
<trkpt lat="-30.3135040" lon="151.6903838">
<ele>1346.440</ele>
<time>2017-04-06T07:33:07.153Z</time>
</trkpt>
<trkpt lat="-30.3139609" lon="151.6903339">
<ele>1343.233</ele>
<time>2017-04-06T07:33:10.153Z</time>
</trkpt>
<trkpt lat="-30.3142150" lon="151.6903197">
<ele>1339.709</ele>
<time>2017-04-06T07:33:12.399Z</time>
</trkpt>
<trkpt lat="-30.3142509" lon="151.6901011">
<ele>1336.025</ele>
<time>2017-04-06T07:33:15.220Z</time>
</trkpt>
<trkpt lat="-30.3143569" lon="151.6900135">
<ele>1332.525</ele>
<time>2017-04-06T07:33:17.723Z</time>
</trkpt>
<trkpt lat="-30.3144419" lon="151.6899132">
<ele>1329.488</ele>
<time>2017-04-06T07:33:20.562Z</time>
</trkpt>
<trkpt lat="-30.3145310" lon="151.6898550">
<ele>1327.151</ele>
<time>2017-04-06T07:33:23.405Z</time>
</trkpt>
<trkpt lat="-30.3146319" lon="151.6898211">
<ele>1325.662</ele>
<time>2017-04-06T07:33:26.795Z</time>
</trkpt>
<trkpt lat="-30.3147197" lon="151.6897914">
<ele>1324.843</ele>
<time>2017-04-06T07:33:33.000Z</time>
</trkpt>
<trkpt lat="-30.3147197" lon="151.6897914">
<ele>1324.407</ele>
<time>2017-04-06T07:33:33.001Z</time>
</trkpt>
<trkpt lat="-30.3147197" lon="151.6897914">
<ele>1324.171</ele>
<time>2017-04-06T07:36:29.897Z</time>
</trkpt>
<trkpt lat="-30.3149131" lon="151.6898843">
<ele>1324.078</ele>
<time>2017-04-06T07:36:42.798Z</time>
</trkpt>
<trkpt lat="-30.3150079" lon="151.6899799">
<ele>1324.125</ele>
<time>2017-04-06T07:36:47.059Z</time>
</trkpt>
<trkpt lat="-30.3150681" lon="151.6900849">
<ele>1324.302</ele>
<time>2017-04-06T07:36:50.157Z</time>
</trkpt>
<trkpt lat="-30.3151220" lon="151.6901981">
<ele>1324.523</ele>
<time>2017-04-06T07:36:52.300Z</time>
</trkpt>
<trkpt lat="-30.3153144" lon="151.6902373">
<ele>1324.714</ele>
<time>2017-04-06T07:36:54.344Z</time>
</trkpt>
<trkpt lat="-30.3156910" lon="151.6902341">
<ele>1324.962</ele>
<time>2017-04-06T07:36:57.213Z</time>
</trkpt>
<trkpt lat="-30.3160053" lon="151.6902199">
<ele>1325.527</ele>
<time>2017-04-06T07:36:59.120Z</time>
</trkpt>
<trkpt lat="-30.3165472" lon="151.6901792">
<ele>1326.554</ele>
<time>2017-04-06T07:37:02.090Z</time>
</trkpt>
<trkpt lat="-30.3171374" lon="151.6901024">
<ele>1327.992</ele>
<time>2017-04-06T07:37:05.052Z</time>
</trkpt>
<trkpt lat="-30.3177348" lon="151.6898622">
<ele>1329.757</ele>
<time>2017-04-06T07:37:08.047Z</time>
</trkpt>
<trkpt lat="-30.3181456" lon="151.6896798">
<ele>1331.640</ele>
<time>2017-04-06T07:37:10.049Z</time>
</trkpt>
<trkpt lat="-30.3185422" lon="151.6894478">
<ele>1333.172</ele>
<time>2017-04-06T07:37:11.997Z</time>
</trkpt>
<trkpt lat="-30.3191177" lon="151.6889825">
<ele>1334.028</ele>
<time>2017-04-06T07:37:15.000Z</time>
</trkpt>
<trkpt lat="-30.3196527" lon="151.6884364">
<ele>1334.304</ele>
<time>2017-04-06T07:37:17.982Z</time>
</trkpt>
<trkpt lat="-30.3200067" lon="151.6880577">
<ele>1334.150</ele>
<time>2017-04-06T07:37:19.972Z</time>
</trkpt>
<trkpt lat="-30.3203725" lon="151.6876877">
<ele>1333.569</ele>
<time>2017-04-06T07:37:21.978Z</time>
</trkpt>
<trkpt lat="-30.3209098" lon="151.6871094">
<ele>1332.600</ele>
<time>2017-04-06T07:37:25.007Z</time>
</trkpt>
<trkpt lat="-30.3212937" lon="151.6867500">
<ele>1331.099</ele>
<time>2017-04-06T07:37:27.015Z</time>
</trkpt>
<trkpt lat="-30.3216931" lon="151.6863824">
<ele>1328.978</ele>
<time>2017-04-06T07:37:29.068Z</time>
</trkpt>
<trkpt lat="-30.3220268" lon="151.6859666">
<ele>1326.563</ele>
<time>2017-04-06T07:37:31.079Z</time>
</trkpt>
<trkpt lat="-30.3223802" lon="151.6856139">
<ele>1324.092</ele>
<time>2017-04-06T07:37:33.034Z</time>
</trkpt>
<trkpt lat="-30.3227473" lon="151.6852573">
<ele>1321.528</ele>
<time>2017-04-06T07:37:35.062Z</time>
</trkpt>
<trkpt lat="-30.3232271" lon="151.6846590">
<ele>1318.992</ele>
<time>2017-04-06T07:37:38.083Z</time>
</trkpt>
<trkpt lat="-30.3235900" lon="151.6843402">
<ele>1316.313</ele>
<time>2017-04-06T07:37:40.058Z</time>
</trkpt>
<trkpt lat="-30.3239164" lon="151.6839603">
<ele>1313.118</ele>
<time>2017-04-06T07:37:42.026Z</time>
</trkpt>
<trkpt lat="-30.3244207" lon="151.6833604">
<ele>1309.677</ele>
<time>2017-04-06T07:37:45.034Z</time>
</trkpt>
<trkpt lat="-30.3246694" lon="151.6828642">
<ele>1306.475</ele>
<time>2017-04-06T07:37:47.034Z</time>
</trkpt>
<trkpt lat="-30.3250146" lon="151.6821029">
<ele>1303.559</ele>
<time>2017-04-06T07:37:50.013Z</time>
</trkpt>
<trkpt lat="-30.3252170" lon="151.6815642">
<ele>1300.796</ele>
<time>2017-04-06T07:37:52.031Z</time>
</trkpt>
<trkpt lat="-30.3254618" lon="151.6807330">
<ele>1298.152</ele>
<time>2017-04-06T07:37:55.044Z</time>
</trkpt>
<trkpt lat="-30.3256038" lon="151.6801832">
<ele>1295.781</ele>
<time>2017-04-06T07:37:57.013Z</time>
</trkpt>
<trkpt lat="-30.3256900" lon="151.6796112">
<ele>1293.867</ele>
<time>2017-04-06T07:37:59.019Z</time>
</trkpt>
<trkpt lat="-30.3256883" lon="151.6787430">
<ele>1292.470</ele>
<time>2017-04-06T07:38:02.053Z</time>
</trkpt>
<trkpt lat="-30.3257401" lon="151.6781964">
<ele>1291.350</ele>
<time>2017-04-06T07:38:04.011Z</time>
</trkpt>
<trkpt lat="-30.3257660" lon="151.6776418">
<ele>1290.085</ele>
<time>2017-04-06T07:38:06.023Z</time>
</trkpt>
<trkpt lat="-30.3256402" lon="151.6768407">
<ele>1288.648</ele>
<time>2017-04-06T07:38:09.022Z</time>
</trkpt>
<trkpt lat="-30.3256171" lon="151.6763199">
<ele>1287.063</ele>
<time>2017-04-06T07:38:11.001Z</time>
</trkpt>
<trkpt lat="-30.3256822" lon="151.6755513">
<ele>1285.083</ele>
<time>2017-04-06T07:38:13.952Z</time>
</trkpt>
<trkpt lat="-30.3257718" lon="151.6750476">
<ele>1282.422</ele>
<time>2017-04-06T07:38:15.929Z</time>
</trkpt>
<trkpt lat="-30.3259281" lon="151.6745622">
<ele>1279.140</ele>
<time>2017-04-06T07:38:17.909Z</time>
</trkpt>
<trkpt lat="-30.3261229" lon="151.6740895">
<ele>1275.798</ele>
<time>2017-04-06T07:38:19.905Z</time>
</trkpt>
<trkpt lat="-30.3265193" lon="151.6734407">
<ele>1272.882</ele>
<time>2017-04-06T07:38:22.928Z</time>
</trkpt>
<trkpt lat="-30.3268076" lon="151.6730335">
<ele>1269.983</ele>
<time>2017-04-06T07:38:24.909Z</time>
</trkpt>
<trkpt lat="-30.3271528" lon="151.6726662">
<ele>1266.433</ele>
<time>2017-04-06T07:38:26.936Z</time>
</trkpt>
<trkpt lat="-30.3277010" lon="151.6721708">
<ele>1262.195</ele>
<time>2017-04-06T07:38:29.897Z</time>
</trkpt>
<trkpt lat="-30.3283501" lon="151.6717834">
<ele>1257.456</ele>
<time>2017-04-06T07:38:32.965Z</time>
</trkpt>
<trkpt lat="-30.3290067" lon="151.6714717">
<ele>1252.255</ele>
<time>2017-04-06T07:38:35.974Z</time>
</trkpt>
<trkpt lat="-30.3294216" lon="151.6712590">
<ele>1246.994</ele>
<time>2017-04-06T07:38:37.947Z</time>
</trkpt>
<trkpt lat="-30.3300042" lon="151.6708578">
<ele>1242.282</ele>
<time>2017-04-06T07:38:40.913Z</time>
</trkpt>
<trkpt lat="-30.3305418" lon="151.6703606">
<ele>1237.844</ele>
<time>2017-04-06T07:38:43.918Z</time>
</trkpt>
<trkpt lat="-30.3309923" lon="151.6697491">
<ele>1232.653</ele>
<time>2017-04-06T07:38:46.919Z</time>
</trkpt>
<trkpt lat="-30.3312494" lon="151.6693116">
<ele>1226.493</ele>
<time>2017-04-06T07:38:48.870Z</time>
</trkpt>
<trkpt lat="-30.3315850" lon="151.6685955">
<ele>1220.503</ele>
<time>2017-04-06T07:38:51.852Z</time>
</trkpt>
<trkpt lat="-30.3318074" lon="151.6678156">
<ele>1215.661</ele>
<time>2017-04-06T07:38:54.839Z</time>
</trkpt>
<trkpt lat="-30.3320296" lon="151.6670424">
<ele>1211.936</ele>
<time>2017-04-06T07:38:57.818Z</time>
</trkpt>
<trkpt lat="-30.3321221" lon="151.6665088">
<ele>1208.589</ele>
<time>2017-04-06T07:38:59.828Z</time>
</trkpt>
<trkpt lat="-30.3323009" lon="151.6660085">
<ele>1204.973</ele>
<time>2017-04-06T07:39:01.845Z</time>
</trkpt>
<trkpt lat="-30.3326740" lon="151.6653399">
<ele>1200.989</ele>
<time>2017-04-06T07:39:04.825Z</time>
</trkpt>
<trkpt lat="-30.3330098" lon="151.6649721">
<ele>1196.671</ele>
<time>2017-04-06T07:39:06.825Z</time>
</trkpt>
<trkpt lat="-30.3333318" lon="151.6645790">
<ele>1192.043</ele>
<time>2017-04-06T07:39:08.817Z</time>
</trkpt>
<trkpt lat="-30.3338872" lon="151.6640431">
<ele>1187.493</ele>
<time>2017-04-06T07:39:11.821Z</time>
</trkpt>
<trkpt lat="-30.3345329" lon="151.6636134">
<ele>1183.118</ele>
<time>2017-04-06T07:39:14.816Z</time>
</trkpt>
<trkpt lat="-30.3350667" lon="151.6634469">
<ele>1178.521</ele>
<time>2017-04-06T07:39:17.025Z</time>
</trkpt>
<trkpt lat="-30.3358077" lon="151.6632039">
<ele>1173.634</ele>
<time>2017-04-06T07:39:20.147Z</time>
</trkpt>
<trkpt lat="-30.3362795" lon="151.6630714">
<ele>1168.371</ele>
<time>2017-04-06T07:39:22.150Z</time>
</trkpt>
<trkpt lat="-30.3369606" lon="151.6628193">
<ele>1162.686</ele>
<time>2017-04-06T07:39:25.102Z</time>
</trkpt>
<trkpt lat="-30.3374276" lon="151.6626378">
<ele>1157.087</ele>
<time>2017-04-06T07:39:27.108Z</time>
</trkpt>
<trkpt lat="-30.3381390" lon="151.6623885">
<ele>1152.368</ele>
<time>2017-04-06T07:39:30.088Z</time>
</trkpt>
<trkpt lat="-30.3388813" lon="151.6621738">
<ele>1148.961</ele>
<time>2017-04-06T07:39:33.136Z</time>
</trkpt>
<trkpt lat="-30.3393521" lon="151.6619969">
<ele>1146.575</ele>
<time>2017-04-06T07:39:35.132Z</time>
</trkpt>
<trkpt lat="-30.3400644" lon="151.6617491">
<ele>1144.542</ele>
<time>2017-04-06T07:39:38.145Z</time>
</trkpt>
<trkpt lat="-30.3405364" lon="151.6616057">
<ele>1142.556</ele>
<time>2017-04-06T07:39:40.136Z</time>
</trkpt>
<trkpt lat="-30.3410036" lon="151.6614501">
<ele>1140.590</ele>
<time>2017-04-06T07:39:42.130Z</time>
</trkpt>
<trkpt lat="-30.3414590" lon="151.6612566">
<ele>1138.784</ele>
<time>2017-04-06T07:39:44.116Z</time>
</trkpt>
<trkpt lat="-30.3419351" lon="151.6611144">
<ele>1137.222</ele>
<time>2017-04-06T07:39:46.115Z</time>
</trkpt>
<trkpt lat="-30.3426468" lon="151.6608834">
<ele>1135.802</ele>
<time>2017-04-06T07:39:49.084Z</time>
</trkpt>
<trkpt lat="-30.3431286" lon="151.6606971">
<ele>1134.381</ele>
<time>2017-04-06T07:39:51.065Z</time>
</trkpt>
<trkpt lat="-30.3438686" lon="151.6604456">
<ele>1132.973</ele>
<time>2017-04-06T07:39:54.046Z</time>
</trkpt>
<trkpt lat="-30.3443602" lon="151.6602520">
<ele>1131.637</ele>
<time>2017-04-06T07:39:56.045Z</time>
</trkpt>
<trkpt lat="-30.3451028" lon="151.6599792">
<ele>1130.308</ele>
<time>2017-04-06T07:39:59.062Z</time>
</trkpt>
<trkpt lat="-30.3458405" lon="151.6597658">
<ele>1128.880</ele>
<time>2017-04-06T07:40:02.048Z</time>
</trkpt>
<trkpt lat="-30.3465780" lon="151.6596150">
<ele>1127.359</ele>
<time>2017-04-06T07:40:05.028Z</time>
</trkpt>
<trkpt lat="-30.3470720" lon="151.6595674">
<ele>1126.045</ele>
<time>2017-04-06T07:40:07.002Z</time>
</trkpt>
<trkpt lat="-30.3478247" lon="151.6595562">
<ele>1125.339</ele>
<time>2017-04-06T07:40:09.990Z</time>
</trkpt>
<trkpt lat="-30.3485760" lon="151.6596329">
<ele>1125.253</ele>
<time>2017-04-06T07:40:12.970Z</time>
</trkpt>
<trkpt lat="-30.3493266" lon="151.6597661">
<ele>1125.472</ele>
<time>2017-04-06T07:40:15.938Z</time>
</trkpt>
<trkpt lat="-30.3498179" lon="151.6599603">
<ele>1125.608</ele>
<time>2017-04-06T07:40:17.953Z</time>
</trkpt>
<trkpt lat="-30.3505578" lon="151.6602216">
<ele>1125.335</ele>
<time>2017-04-06T07:40:20.982Z</time>
</trkpt>
<trkpt lat="-30.3512867" lon="151.6604331">
<ele>1124.394</ele>
<time>2017-04-06T07:40:23.969Z</time>
</trkpt>
<trkpt lat="-30.3517475" lon="151.6606479">
<ele>1122.580</ele>
<time>2017-04-06T07:40:25.976Z</time>
</trkpt>
<trkpt lat="-30.3524495" lon="151.6608902">
<ele>1120.040</ele>
<time>2017-04-06T07:40:28.937Z</time>
</trkpt>
<trkpt lat="-30.3529227" lon="151.6610773">
<ele>1117.130</ele>
<time>2017-04-06T07:40:30.925Z</time>
</trkpt>
<trkpt lat="-30.3536526" lon="151.6613633">
<ele>1114.210</ele>
<time>2017-04-06T07:40:33.964Z</time>
</trkpt>
<trkpt lat="-30.3543770" lon="151.6616212">
<ele>1111.553</ele>
<time>2017-04-06T07:40:36.937Z</time>
</trkpt>
<trkpt lat="-30.3548585" lon="151.6618327">
<ele>1109.236</ele>
<time>2017-04-06T07:40:38.955Z</time>
</trkpt>
<trkpt lat="-30.3553430" lon="151.6620185">
<ele>1107.355</ele>
<time>2017-04-06T07:40:40.973Z</time>
</trkpt>
<trkpt lat="-30.3560604" lon="151.6622700">
<ele>1106.075</ele>
<time>2017-04-06T07:40:43.962Z</time>
</trkpt>
<trkpt lat="-30.3567600" lon="151.6625474">
<ele>1105.350</ele>
<time>2017-04-06T07:40:46.933Z</time>
</trkpt>
<trkpt lat="-30.3572344" lon="151.6627195">
<ele>1105.056</ele>
<time>2017-04-06T07:40:48.931Z</time>
</trkpt>
<trkpt lat="-30.3577206" lon="151.6629108">
<ele>1105.096</ele>
<time>2017-04-06T07:40:50.987Z</time>
</trkpt>
<trkpt lat="-30.3582083" lon="151.6630810">
<ele>1105.390</ele>
<time>2017-04-06T07:40:53.019Z</time>
</trkpt>
<trkpt lat="-30.3586946" lon="151.6632450">
<ele>1105.815</ele>
<time>2017-04-06T07:40:55.018Z</time>
</trkpt>
<trkpt lat="-30.3594206" lon="151.6635495">
<ele>1106.268</ele>
<time>2017-04-06T07:40:58.043Z</time>
</trkpt>
<trkpt lat="-30.3599166" lon="151.6636932">
<ele>1106.747</ele>
<time>2017-04-06T07:41:00.047Z</time>
</trkpt>
<trkpt lat="-30.3603852" lon="151.6638695">
<ele>1107.178</ele>
<time>2017-04-06T07:41:01.989Z</time>
</trkpt>
<trkpt lat="-30.3608575" lon="151.6640651">
<ele>1107.327</ele>
<time>2017-04-06T07:41:03.975Z</time>
</trkpt>
<trkpt lat="-30.3615836" lon="151.6643060">
<ele>1106.933</ele>
<time>2017-04-06T07:41:06.965Z</time>
</trkpt>
<trkpt lat="-30.3623034" lon="151.6645744">
<ele>1105.854</ele>
<time>2017-04-06T07:41:09.915Z</time>
</trkpt>
<trkpt lat="-30.3630440" lon="151.6648916">
<ele>1104.202</ele>
<time>2017-04-06T07:41:12.934Z</time>
</trkpt>
<trkpt lat="-30.3635073" lon="151.6651750">
<ele>1102.343</ele>
<time>2017-04-06T07:41:14.930Z</time>
</trkpt>
<trkpt lat="-30.3642235" lon="151.6655363">
<ele>1100.670</ele>
<time>2017-04-06T07:41:17.942Z</time>
</trkpt>
<trkpt lat="-30.3646621" lon="151.6658211">
<ele>1099.314</ele>
<time>2017-04-06T07:41:19.922Z</time>
</trkpt>
<trkpt lat="-30.3651397" lon="151.6660934">
<ele>1098.260</ele>
<time>2017-04-06T07:41:22.031Z</time>
</trkpt>
<trkpt lat="-30.3657679" lon="151.6664511">
<ele>1097.542</ele>
<time>2017-04-06T07:41:24.813Z</time>
</trkpt>
<trkpt lat="-30.3662010" lon="151.6667670">
<ele>1097.095</ele>
<time>2017-04-06T07:41:26.846Z</time>
</trkpt>
<trkpt lat="-30.3666450" lon="151.6670419">
<ele>1096.701</ele>
<time>2017-04-06T07:41:28.832Z</time>
</trkpt>
<trkpt lat="-30.3672808" lon="151.6675623">
<ele>1096.200</ele>
<time>2017-04-06T07:41:31.882Z</time>
</trkpt>
<trkpt lat="-30.3679280" lon="151.6680155">
<ele>1095.432</ele>
<time>2017-04-06T07:41:34.850Z</time>
</trkpt>
<trkpt lat="-30.3683357" lon="151.6683641">
<ele>1094.203</ele>
<time>2017-04-06T07:41:36.866Z</time>
</trkpt>
<trkpt lat="-30.3687541" lon="151.6686702">
<ele>1092.537</ele>
<time>2017-04-06T07:41:38.831Z</time>
</trkpt>
<trkpt lat="-30.3694105" lon="151.6691320">
<ele>1090.648</ele>
<time>2017-04-06T07:41:41.858Z</time>
</trkpt>
<trkpt lat="-30.3698192" lon="151.6694700">
<ele>1088.496</ele>
<time>2017-04-06T07:41:43.825Z</time>
</trkpt>
<trkpt lat="-30.3702026" lon="151.6698239">
<ele>1085.971</ele>
<time>2017-04-06T07:41:45.754Z</time>
</trkpt>
<trkpt lat="-30.3706169" lon="151.6701591">
<ele>1083.320</ele>
<time>2017-04-06T07:41:47.745Z</time>
</trkpt>
<trkpt lat="-30.3712789" lon="151.6706100">
<ele>1080.881</ele>
<time>2017-04-06T07:41:50.776Z</time>
</trkpt>
<trkpt lat="-30.3716837" lon="151.6709043">
<ele>1078.603</ele>
<time>2017-04-06T07:41:52.664Z</time>
</trkpt>
<trkpt lat="-30.3720421" lon="151.6712096">
<ele>1076.403</ele>
<time>2017-04-06T07:41:54.411Z</time>
</trkpt>
<trkpt lat="-30.3726514" lon="151.6717452">
<ele>1074.487</ele>
<time>2017-04-06T07:41:57.401Z</time>
</trkpt>
<trkpt lat="-30.3732159" lon="151.6722058">
<ele>1072.990</ele>
<time>2017-04-06T07:42:00.094Z</time>
</trkpt>
<trkpt lat="-30.3736353" lon="151.6724759">
<ele>1071.773</ele>
<time>2017-04-06T07:42:01.963Z</time>
</trkpt>
<trkpt lat="-30.3741589" lon="151.6728136">
<ele>1070.752</ele>
<time>2017-04-06T07:42:04.286Z</time>
</trkpt>
<trkpt lat="-30.3745916" lon="151.6732065">
<ele>1069.912</ele>
<time>2017-04-06T07:42:06.412Z</time>
</trkpt>
<trkpt lat="-30.3750485" lon="151.6735526">
<ele>1069.221</ele>
<time>2017-04-06T07:42:08.542Z</time>
</trkpt>
<trkpt lat="-30.3757073" lon="151.6740431">
<ele>1068.704</ele>
<time>2017-04-06T07:42:11.619Z</time>
</trkpt>
<trkpt lat="-30.3763684" lon="151.6744917">
<ele>1068.289</ele>
<time>2017-04-06T07:42:14.627Z</time>
</trkpt>
<trkpt lat="-30.3769768" lon="151.6750121">
<ele>1067.747</ele>
<time>2017-04-06T07:42:17.568Z</time>
</trkpt>
<trkpt lat="-30.3773817" lon="151.6753359">
<ele>1066.965</ele>
<time>2017-04-06T07:42:19.451Z</time>
</trkpt>
<trkpt lat="-30.3780640" lon="151.6758992">
<ele>1066.156</ele>
<time>2017-04-06T07:42:22.621Z</time>
</trkpt>
<trkpt lat="-30.3787857" lon="151.6763860">
<ele>1065.614</ele>
<time>2017-04-06T07:42:25.749Z</time>
</trkpt>
<trkpt lat="-30.3792582" lon="151.6767113">
<ele>1065.401</ele>
<time>2017-04-06T07:42:27.814Z</time>
</trkpt>
<trkpt lat="-30.3799220" lon="151.6771881">
<ele>1065.302</ele>
<time>2017-04-06T07:42:30.782Z</time>
</trkpt>
<trkpt lat="-30.3805510" lon="151.6776798">
<ele>1065.019</ele>
<time>2017-04-06T07:42:33.713Z</time>
</trkpt>
<trkpt lat="-30.3809880" lon="151.6780046">
<ele>1064.259</ele>
<time>2017-04-06T07:42:35.748Z</time>
</trkpt>
<trkpt lat="-30.3816033" lon="151.6785177">
<ele>1062.974</ele>
<time>2017-04-06T07:42:38.726Z</time>
</trkpt>
<trkpt lat="-30.3820282" lon="151.6788441">
<ele>1061.311</ele>
<time>2017-04-06T07:42:40.727Z</time>
</trkpt>
<trkpt lat="-30.3826608" lon="151.6793431">
<ele>1059.465</ele>
<time>2017-04-06T07:42:43.717Z</time>
</trkpt>
<trkpt lat="-30.3830925" lon="151.6796552">
<ele>1057.626</ele>
<time>2017-04-06T07:42:45.692Z</time>
</trkpt>
<trkpt lat="-30.3837314" lon="151.6801521">
<ele>1055.940</ele>
<time>2017-04-06T07:42:48.671Z</time>
</trkpt>
<trkpt lat="-30.3841662" lon="151.6804669">
<ele>1054.340</ele>
<time>2017-04-06T07:42:50.646Z</time>
</trkpt>
<trkpt lat="-30.3848340" lon="151.6809358">
<ele>1052.733</ele>
<time>2017-04-06T07:42:53.636Z</time>
</trkpt>
<trkpt lat="-30.3852805" lon="151.6812685">
<ele>1051.190</ele>
<time>2017-04-06T07:42:55.652Z</time>
</trkpt>
<trkpt lat="-30.3859403" lon="151.6817809">
<ele>1049.896</ele>
<time>2017-04-06T07:42:58.691Z</time>
</trkpt>
<trkpt lat="-30.3865367" lon="151.6823212">
<ele>1048.844</ele>
<time>2017-04-06T07:43:01.641Z</time>
</trkpt>
<trkpt lat="-30.3871674" lon="151.6827875">
<ele>1047.902</ele>
<time>2017-04-06T07:43:04.599Z</time>
</trkpt>
<trkpt lat="-30.3877648" lon="151.6833153">
<ele>1047.007</ele>
<time>2017-04-06T07:43:07.575Z</time>
</trkpt>
<trkpt lat="-30.3881281" lon="151.6837324">
<ele>1046.270</ele>
<time>2017-04-06T07:43:09.574Z</time>
</trkpt>
<trkpt lat="-30.3887152" lon="151.6843238">
<ele>1045.824</ele>
<time>2017-04-06T07:43:12.589Z</time>
</trkpt>
<trkpt lat="-30.3890620" lon="151.6847710">
<ele>1045.726</ele>
<time>2017-04-06T07:43:14.591Z</time>
</trkpt>
<trkpt lat="-30.3896666" lon="151.6853282">
<ele>1045.999</ele>
<time>2017-04-06T07:43:17.577Z</time>
</trkpt>
<trkpt lat="-30.3900485" lon="151.6857240">
<ele>1046.630</ele>
<time>2017-04-06T07:43:19.561Z</time>
</trkpt>
<trkpt lat="-30.3904276" lon="151.6861215">
<ele>1047.339</ele>
<time>2017-04-06T07:43:21.540Z</time>
</trkpt>
<trkpt lat="-30.3909954" lon="151.6867441">
<ele>1047.743</ele>
<time>2017-04-06T07:43:24.558Z</time>
</trkpt>
<trkpt lat="-30.3915895" lon="151.6873196">
<ele>1047.722</ele>
<time>2017-04-06T07:43:27.530Z</time>
</trkpt>
<trkpt lat="-30.3921749" lon="151.6879364">
<ele>1047.350</ele>
<time>2017-04-06T07:43:30.542Z</time>
</trkpt>
<trkpt lat="-30.3927603" lon="151.6885477">
<ele>1046.770</ele>
<time>2017-04-06T07:43:33.536Z</time>
</trkpt>
<trkpt lat="-30.3931618" lon="151.6889325">
<ele>1046.103</ele>
<time>2017-04-06T07:43:35.532Z</time>
</trkpt>
<trkpt lat="-30.3937340" lon="151.6895340">
<ele>1045.391</ele>
<time>2017-04-06T07:43:38.519Z</time>
</trkpt>
<trkpt lat="-30.3941119" lon="151.6899213">
<ele>1044.564</ele>
<time>2017-04-06T07:43:40.507Z</time>
</trkpt>
<trkpt lat="-30.3946418" lon="151.6905340">
<ele>1043.541</ele>
<time>2017-04-06T07:43:43.487Z</time>
</trkpt>
<trkpt lat="-30.3951846" lon="151.6911171">
<ele>1042.261</ele>
<time>2017-04-06T07:43:46.450Z</time>
</trkpt>
<trkpt lat="-30.3955188" lon="151.6915518">
<ele>1040.842</ele>
<time>2017-04-06T07:43:48.436Z</time>
</trkpt>
<trkpt lat="-30.3959600" lon="151.6922795">
<ele>1039.633</ele>
<time>2017-04-06T07:43:51.447Z</time>
</trkpt>
<trkpt lat="-30.3962425" lon="151.6927637">
<ele>1038.760</ele>
<time>2017-04-06T07:43:53.427Z</time>
</trkpt>
<trkpt lat="-30.3966531" lon="151.6935045">
<ele>1037.983</ele>
<time>2017-04-06T07:43:56.439Z</time>
</trkpt>
<trkpt lat="-30.3970860" lon="151.6941870">
<ele>1037.289</ele>
<time>2017-04-06T07:43:59.391Z</time>
</trkpt>
<trkpt lat="-30.3974377" lon="151.6945787">
<ele>1036.906</ele>
<time>2017-04-06T07:44:01.384Z</time>
</trkpt>
<trkpt lat="-30.3980088" lon="151.6951165">
<ele>1036.933</ele>
<time>2017-04-06T07:44:04.374Z</time>
</trkpt>
<trkpt lat="-30.3984378" lon="151.6954095">
<ele>1037.391</ele>
<time>2017-04-06T07:44:06.365Z</time>
</trkpt>
<trkpt lat="-30.3988900" lon="151.6956691">
<ele>1038.131</ele>
<time>2017-04-06T07:44:08.350Z</time>
</trkpt>
<trkpt lat="-30.3996055" lon="151.6959970">
<ele>1038.766</ele>
<time>2017-04-06T07:44:11.342Z</time>
</trkpt>
<trkpt lat="-30.4000976" lon="151.6961374">
<ele>1039.023</ele>
<time>2017-04-06T07:44:13.305Z</time>
</trkpt>
<trkpt lat="-30.4007957" lon="151.6963130">
<ele>1038.771</ele>
<time>2017-04-06T07:44:16.078Z</time>
</trkpt>
<trkpt lat="-30.4014854" lon="151.6962909">
<ele>1037.740</ele>
<time>2017-04-06T07:44:18.759Z</time>
</trkpt>
<trkpt lat="-30.4022376" lon="151.6961437">
<ele>1035.854</ele>
<time>2017-04-06T07:44:21.720Z</time>
</trkpt>
<trkpt lat="-30.4027813" lon="151.6959763">
<ele>1033.416</ele>
<time>2017-04-06T07:44:23.923Z</time>
</trkpt>
<trkpt lat="-30.4033753" lon="151.6957502">
<ele>1030.816</ele>
<time>2017-04-06T07:44:26.395Z</time>
</trkpt>
<trkpt lat="-30.4039834" lon="151.6955781">
<ele>1028.342</ele>
<time>2017-04-06T07:44:28.875Z</time>
</trkpt>
<trkpt lat="-30.4044174" lon="151.6953943">
<ele>1026.253</ele>
<time>2017-04-06T07:44:30.687Z</time>
</trkpt>
<trkpt lat="-30.4052004" lon="151.6950729">
<ele>1024.677</ele>
<time>2017-04-06T07:44:33.918Z</time>
</trkpt>
<trkpt lat="-30.4055495" lon="151.6949254">
<ele>1023.359</ele>
<time>2017-04-06T07:44:35.351Z</time>
</trkpt>
<trkpt lat="-30.4063243" lon="151.6944266">
<ele>1021.926</ele>
<time>2017-04-06T07:44:38.750Z</time>
</trkpt>
<trkpt lat="-30.4069884" lon="151.6939888">
<ele>1020.228</ele>
<time>2017-04-06T07:44:41.670Z</time>
</trkpt>
<trkpt lat="-30.4073516" lon="151.6937582">
<ele>1018.198</ele>
<time>2017-04-06T07:44:43.266Z</time>
</trkpt>
<trkpt lat="-30.4078371" lon="151.6934684">
<ele>1016.087</ele>
<time>2017-04-06T07:44:45.389Z</time>
</trkpt>
<trkpt lat="-30.4084684" lon="151.6930488">
<ele>1014.523</ele>
<time>2017-04-06T07:44:48.187Z</time>
</trkpt>
<trkpt lat="-30.4089065" lon="151.6927401">
<ele>1013.881</ele>
<time>2017-04-06T07:44:50.162Z</time>
</trkpt>
<trkpt lat="-30.4095470" lon="151.6923099">
<ele>1013.954</ele>
<time>2017-04-06T07:44:53.044Z</time>
</trkpt>
<trkpt lat="-30.4100110" lon="151.6920848">
<ele>1014.285</ele>
<time>2017-04-06T07:44:55.031Z</time>
</trkpt>
<trkpt lat="-30.4104535" lon="151.6918490">
<ele>1014.609</ele>
<time>2017-04-06T07:44:56.972Z</time>
</trkpt>
<trkpt lat="-30.4111000" lon="151.6914087">
<ele>1014.888</ele>
<time>2017-04-06T07:44:59.977Z</time>
</trkpt>
<trkpt lat="-30.4115567" lon="151.6911670">
<ele>1015.214</ele>
<time>2017-04-06T07:45:01.996Z</time>
</trkpt>
<trkpt lat="-30.4122038" lon="151.6907406">
<ele>1015.695</ele>
<time>2017-04-06T07:45:05.008Z</time>
</trkpt>
<trkpt lat="-30.4128443" lon="151.6903596">
<ele>1016.220</ele>
<time>2017-04-06T07:45:07.970Z</time>
</trkpt>
<trkpt lat="-30.4132906" lon="151.6901393">
<ele>1016.469</ele>
<time>2017-04-06T07:45:09.998Z</time>
</trkpt>
<trkpt lat="-30.4139840" lon="151.6898774">
<ele>1016.122</ele>
<time>2017-04-06T07:45:13.082Z</time>
</trkpt>
<trkpt lat="-30.4145798" lon="151.6894839">
<ele>1014.934</ele>
<time>2017-04-06T07:45:16.021Z</time>
</trkpt>
<trkpt lat="-30.4149120" lon="151.6890872">
<ele>1012.945</ele>
<time>2017-04-06T07:45:18.034Z</time>
</trkpt>
<trkpt lat="-30.4152606" lon="151.6886957">
<ele>1010.651</ele>
<time>2017-04-06T07:45:20.032Z</time>
</trkpt>
<trkpt lat="-30.4158107" lon="151.6881217">
<ele>1008.702</ele>
<time>2017-04-06T07:45:23.030Z</time>
</trkpt>
<trkpt lat="-30.4163495" lon="151.6875268">
<ele>1007.471</ele>
<time>2017-04-06T07:45:25.999Z</time>
</trkpt>
<trkpt lat="-30.4167209" lon="151.6871203">
<ele>1006.939</ele>
<time>2017-04-06T07:45:28.009Z</time>
</trkpt>
<trkpt lat="-30.4172217" lon="151.6864628">
<ele>1006.834</ele>
<time>2017-04-06T07:45:30.976Z</time>
</trkpt>
<trkpt lat="-30.4177518" lon="151.6858253">
<ele>1006.800</ele>
<time>2017-04-06T07:45:33.985Z</time>
</trkpt>
<trkpt lat="-30.4184021" lon="151.6853891">
<ele>1006.656</ele>
<time>2017-04-06T07:45:36.943Z</time>
</trkpt>
<trkpt lat="-30.4189069" lon="151.6851116">
<ele>1006.510</ele>
<time>2017-04-06T07:45:39.115Z</time>
</trkpt>
<trkpt lat="-30.4193419" lon="151.6848218">
<ele>1006.595</ele>
<time>2017-04-06T07:45:41.063Z</time>
</trkpt>
<trkpt lat="-30.4198093" lon="151.6845784">
<ele>1006.951</ele>
<time>2017-04-06T07:45:43.050Z</time>
</trkpt>
<trkpt lat="-30.4205254" lon="151.6842044">
<ele>1007.432</ele>
<time>2017-04-06T07:45:46.083Z</time>
</trkpt>
<trkpt lat="-30.4212442" lon="151.6838441">
<ele>1008.064</ele>
<time>2017-04-06T07:45:49.095Z</time>
</trkpt>
<trkpt lat="-30.4217270" lon="151.6836133">
<ele>1009.165</ele>
<time>2017-04-06T07:45:51.102Z</time>
</trkpt>
<trkpt lat="-30.4222029" lon="151.6833756">
<ele>1010.765</ele>
<time>2017-04-06T07:45:53.102Z</time>
</trkpt>
<trkpt lat="-30.4228906" lon="151.6829770">
<ele>1012.458</ele>
<time>2017-04-06T07:45:56.093Z</time>
</trkpt>
<trkpt lat="-30.4235843" lon="151.6826358">
<ele>1013.862</ele>
<time>2017-04-06T07:45:59.051Z</time>
</trkpt>
<trkpt lat="-30.4242633" lon="151.6822400">
<ele>1014.855</ele>
<time>2017-04-06T07:46:02.019Z</time>
</trkpt>
<trkpt lat="-30.4249958" lon="151.6819340">
<ele>1015.464</ele>
<time>2017-04-06T07:46:05.009Z</time>
</trkpt>
<trkpt lat="-30.4254828" lon="151.6816955">
<ele>1015.770</ele>
<time>2017-04-06T07:46:07.013Z</time>
</trkpt>
<trkpt lat="-30.4259666" lon="151.6814792">
<ele>1015.840</ele>
<time>2017-04-06T07:46:08.985Z</time>
</trkpt>
<trkpt lat="-30.4267198" lon="151.6812101">
<ele>1015.742</ele>
<time>2017-04-06T07:46:12.004Z</time>
</trkpt>
<trkpt lat="-30.4274146" lon="151.6808123">
<ele>1015.520</ele>
<time>2017-04-06T07:46:14.986Z</time>
</trkpt>
<trkpt lat="-30.4281451" lon="151.6805125">
<ele>1015.197</ele>
<time>2017-04-06T07:46:17.972Z</time>
</trkpt>
<trkpt lat="-30.4288840" lon="151.6802275">
<ele>1014.803</ele>
<time>2017-04-06T07:46:20.979Z</time>
</trkpt>
<trkpt lat="-30.4293541" lon="151.6799895">
<ele>1014.395</ele>
<time>2017-04-06T07:46:22.970Z</time>
</trkpt>
<trkpt lat="-30.4298337" lon="151.6797880">
<ele>1014.041</ele>
<time>2017-04-06T07:46:24.965Z</time>
</trkpt>
<trkpt lat="-30.4305561" lon="151.6795229">
<ele>1013.800</ele>
<time>2017-04-06T07:46:27.953Z</time>
</trkpt>
<trkpt lat="-30.4310057" lon="151.6792831">
<ele>1013.796</ele>
<time>2017-04-06T07:46:29.914Z</time>
</trkpt>
<trkpt lat="-30.4316373" lon="151.6787795">
<ele>1014.119</ele>
<time>2017-04-06T07:46:32.932Z</time>
</trkpt>
<trkpt lat="-30.4321859" lon="151.6781764">
<ele>1014.807</ele>
<time>2017-04-06T07:46:35.895Z</time>
</trkpt>
<trkpt lat="-30.4326345" lon="151.6774689">
<ele>1015.845</ele>
<time>2017-04-06T07:46:38.864Z</time>
</trkpt>
<trkpt lat="-30.4330464" lon="151.6767013">
<ele>1016.997</ele>
<time>2017-04-06T07:46:41.898Z</time>
</trkpt>
<trkpt lat="-30.4334498" lon="151.6759346">
<ele>1017.973</ele>
<time>2017-04-06T07:46:44.891Z</time>
</trkpt>
<trkpt lat="-30.4338545" lon="151.6751795">
<ele>1018.660</ele>
<time>2017-04-06T07:46:47.865Z</time>
</trkpt>
<trkpt lat="-30.4343467" lon="151.6745253">
<ele>1018.810</ele>
<time>2017-04-06T07:46:50.805Z</time>
</trkpt>
<trkpt lat="-30.4347355" lon="151.6741540">
<ele>1018.083</ele>
<time>2017-04-06T07:46:52.795Z</time>
</trkpt>
<trkpt lat="-30.4353675" lon="151.6736822">
<ele>1016.523</ele>
<time>2017-04-06T07:46:55.749Z</time>
</trkpt>
<trkpt lat="-30.4360942" lon="151.6733447">
<ele>1014.433</ele>
<time>2017-04-06T07:46:58.774Z</time>
</trkpt>
<trkpt lat="-30.4365851" lon="151.6731466">
<ele>1011.981</ele>
<time>2017-04-06T07:47:00.761Z</time>
</trkpt>
<trkpt lat="-30.4373304" lon="151.6728992">
<ele>1009.394</ele>
<time>2017-04-06T07:47:03.732Z</time>
</trkpt>
<trkpt lat="-30.4381002" lon="151.6728426">
<ele>1006.922</ele>
<time>2017-04-06T07:47:06.682Z</time>
</trkpt>
<trkpt lat="-30.4388866" lon="151.6729065">
<ele>1004.641</ele>
<time>2017-04-06T07:47:09.669Z</time>
</trkpt>
<trkpt lat="-30.4394912" lon="151.6730405">
<ele>1002.719</ele>
<time>2017-04-06T07:47:11.961Z</time>
</trkpt>
<trkpt lat="-30.4402865" lon="151.6732740">
<ele>1001.442</ele>
<time>2017-04-06T07:47:15.007Z</time>
</trkpt>
<trkpt lat="-30.4407523" lon="151.6734131">
<ele>1000.748</ele>
<time>2017-04-06T07:47:16.827Z</time>
</trkpt>
<trkpt lat="-30.4412429" lon="151.6735354">
<ele>1000.228</ele>
<time>2017-04-06T07:47:18.756Z</time>
</trkpt>
<trkpt lat="-30.4419983" lon="151.6737076">
<ele>999.614</ele>
<time>2017-04-06T07:47:21.736Z</time>
</trkpt>
<trkpt lat="-30.4425159" lon="151.6738319">
<ele>998.891</ele>
<time>2017-04-06T07:47:23.782Z</time>
</trkpt>
<trkpt lat="-30.4432563" lon="151.6740578">
<ele>998.167</ele>
<time>2017-04-06T07:47:26.748Z</time>
</trkpt>
<trkpt lat="-30.4437512" lon="151.6742092">
<ele>997.585</ele>
<time>2017-04-06T07:47:28.738Z</time>
</trkpt>
<trkpt lat="-30.4442917" lon="151.6743540">
<ele>997.157</ele>
<time>2017-04-06T07:47:30.891Z</time>
</trkpt>
<trkpt lat="-30.4447908" lon="151.6745078">
<ele>996.862</ele>
<time>2017-04-06T07:47:32.884Z</time>
</trkpt>
<trkpt lat="-30.4454855" lon="151.6749132">
<ele>996.742</ele>
<time>2017-04-06T07:47:35.876Z</time>
</trkpt>
<trkpt lat="-30.4459490" lon="151.6751520">
<ele>996.834</ele>
<time>2017-04-06T07:47:37.836Z</time>
</trkpt>
<trkpt lat="-30.4464099" lon="151.6754305">
<ele>997.133</ele>
<time>2017-04-06T07:47:39.856Z</time>
</trkpt>
<trkpt lat="-30.4470789" lon="151.6758705">
<ele>997.591</ele>
<time>2017-04-06T07:47:42.853Z</time>
</trkpt>
<trkpt lat="-30.4475454" lon="151.6761182">
<ele>998.171</ele>
<time>2017-04-06T07:47:44.852Z</time>
</trkpt>
<trkpt lat="-30.4479987" lon="151.6763957">
<ele>998.791</ele>
<time>2017-04-06T07:47:46.848Z</time>
</trkpt>
<trkpt lat="-30.4484604" lon="151.6766583">
<ele>999.270</ele>
<time>2017-04-06T07:47:48.843Z</time>
</trkpt>
<trkpt lat="-30.4491515" lon="151.6770572">
<ele>999.510</ele>
<time>2017-04-06T07:47:51.824Z</time>
</trkpt>
<trkpt lat="-30.4496132" lon="151.6773276">
<ele>999.589</ele>
<time>2017-04-06T07:47:53.809Z</time>
</trkpt>
<trkpt lat="-30.4500915" lon="151.6775624">
<ele>999.623</ele>
<time>2017-04-06T07:47:55.796Z</time>
</trkpt>
<trkpt lat="-30.4507801" lon="151.6779921">
<ele>999.638</ele>
<time>2017-04-06T07:47:58.786Z</time>
</trkpt>
<trkpt lat="-30.4512248" lon="151.6782963">
<ele>999.595</ele>
<time>2017-04-06T07:48:00.774Z</time>
</trkpt>
<trkpt lat="-30.4519051" lon="151.6787050">
<ele>999.470</ele>
<time>2017-04-06T07:48:03.748Z</time>
</trkpt>
<trkpt lat="-30.4523686" lon="151.6789281">
<ele>999.291</ele>
<time>2017-04-06T07:48:05.713Z</time>
</trkpt>
<trkpt lat="-30.4528038" lon="151.6792200">
<ele>999.129</ele>
<time>2017-04-06T07:48:07.690Z</time>
</trkpt>
<trkpt lat="-30.4532507" lon="151.6794955">
<ele>999.036</ele>
<time>2017-04-06T07:48:09.679Z</time>
</trkpt>
<trkpt lat="-30.4537139" lon="151.6797457">
<ele>998.998</ele>
<time>2017-04-06T07:48:11.675Z</time>
</trkpt>
<trkpt lat="-30.4544026" lon="151.6801571">
<ele>998.961</ele>
<time>2017-04-06T07:48:14.671Z</time>
</trkpt>
<trkpt lat="-30.4551084" lon="151.6805437">
<ele>998.910</ele>
<time>2017-04-06T07:48:17.663Z</time>
</trkpt>
<trkpt lat="-30.4555744" lon="151.6808047">
<ele>998.742</ele>
<time>2017-04-06T07:48:19.655Z</time>
</trkpt>
<trkpt lat="-30.4562198" lon="151.6810698">
<ele>998.292</ele>
<time>2017-04-06T07:48:22.315Z</time>
</trkpt>
<trkpt lat="-30.4566902" lon="151.6812302">
<ele>997.372</ele>
<time>2017-04-06T07:48:24.237Z</time>
</trkpt>
<trkpt lat="-30.4574566" lon="151.6813571">
<ele>995.923</ele>
<time>2017-04-06T07:48:27.245Z</time>
</trkpt>
<trkpt lat="-30.4579533" lon="151.6814229">
<ele>994.177</ele>
<time>2017-04-06T07:48:29.159Z</time>
</trkpt>
<trkpt lat="-30.4585908" lon="151.6814769">
<ele>992.541</ele>
<time>2017-04-06T07:48:31.577Z</time>
</trkpt>
<trkpt lat="-30.4593360" lon="151.6814431">
<ele>991.317</ele>
<time>2017-04-06T07:48:34.407Z</time>
</trkpt>
<trkpt lat="-30.4598570" lon="151.6814205">
<ele>990.627</ele>
<time>2017-04-06T07:48:36.415Z</time>
</trkpt>
<trkpt lat="-30.4603573" lon="151.6814005">
<ele>990.421</ele>
<time>2017-04-06T07:48:38.354Z</time>
</trkpt>
<trkpt lat="-30.4611379" lon="151.6813109">
<ele>990.610</ele>
<time>2017-04-06T07:48:41.393Z</time>
</trkpt>
<trkpt lat="-30.4616510" lon="151.6812266">
<ele>991.211</ele>
<time>2017-04-06T07:48:43.403Z</time>
</trkpt>
<trkpt lat="-30.4621601" lon="151.6811508">
<ele>992.176</ele>
<time>2017-04-06T07:48:45.399Z</time>
</trkpt>
<trkpt lat="-30.4629257" lon="151.6810466">
<ele>993.236</ele>
<time>2017-04-06T07:48:48.409Z</time>
</trkpt>
<trkpt lat="-30.4634319" lon="151.6809757">
<ele>994.182</ele>
<time>2017-04-06T07:48:50.408Z</time>
</trkpt>
<trkpt lat="-30.4639483" lon="151.6809348">
<ele>994.970</ele>
<time>2017-04-06T07:48:52.437Z</time>
</trkpt>
<trkpt lat="-30.4647043" lon="151.6808468">
<ele>995.512</ele>
<time>2017-04-06T07:48:55.413Z</time>
</trkpt>
<trkpt lat="-30.4652094" lon="151.6808231">
<ele>995.660</ele>
<time>2017-04-06T07:48:57.405Z</time>
</trkpt>
<trkpt lat="-30.4656994" lon="151.6807369">
<ele>995.358</ele>
<time>2017-04-06T07:48:59.377Z</time>
</trkpt>
<trkpt lat="-30.4661877" lon="151.6806436">
<ele>994.841</ele>
<time>2017-04-06T07:49:01.359Z</time>
</trkpt>
<trkpt lat="-30.4666826" lon="151.6805615">
<ele>994.484</ele>
<time>2017-04-06T07:49:03.360Z</time>
</trkpt>
<trkpt lat="-30.4671813" lon="151.6804718">
<ele>994.541</ele>
<time>2017-04-06T07:49:05.364Z</time>
</trkpt>
<trkpt lat="-30.4676777" lon="151.6803640">
<ele>995.128</ele>
<time>2017-04-06T07:49:07.361Z</time>
</trkpt>
<trkpt lat="-30.4681655" lon="151.6802300">
<ele>996.214</ele>
<time>2017-04-06T07:49:09.351Z</time>
</trkpt>
<trkpt lat="-30.4686548" lon="151.6801154">
<ele>997.658</ele>
<time>2017-04-06T07:49:11.347Z</time>
</trkpt>
<trkpt lat="-30.4693833" lon="151.6799760">
<ele>999.311</ele>
<time>2017-04-06T07:49:14.323Z</time>
</trkpt>
<trkpt lat="-30.4698752" lon="151.6798613">
<ele>1001.233</ele>
<time>2017-04-06T07:49:16.342Z</time>
</trkpt>
<trkpt lat="-30.4706134" lon="151.6796884">
<ele>1003.591</ele>
<time>2017-04-06T07:49:19.348Z</time>
</trkpt>
<trkpt lat="-30.4713530" lon="151.6795296">
<ele>1006.389</ele>
<time>2017-04-06T07:49:22.331Z</time>
</trkpt>
<trkpt lat="-30.4720975" lon="151.6793183">
<ele>1009.058</ele>
<time>2017-04-06T07:49:25.354Z</time>
</trkpt>
<trkpt lat="-30.4726493" lon="151.6792229">
<ele>1009.657</ele>
<time>2017-04-06T07:49:27.550Z</time>
</trkpt>
<trkpt lat="-30.4730901" lon="151.6791168">
<ele>1006.897</ele>
<time>2017-04-06T07:49:29.349Z</time>
</trkpt>
<trkpt lat="-30.4735344" lon="151.6791156">
<ele>1002.755</ele>
<time>2017-04-06T07:49:31.189Z</time>
</trkpt>
<trkpt lat="-30.4742192" lon="151.6793117">
<ele>1000.014</ele>
<time>2017-04-06T07:49:34.230Z</time>
</trkpt>
<trkpt lat="-30.4748631" lon="151.6796267">
<ele>999.815</ele>
<time>2017-04-06T07:49:37.265Z</time>
</trkpt>
<trkpt lat="-30.4752528" lon="151.6799015">
<ele>1002.552</ele>
<time>2017-04-06T07:49:39.221Z</time>
</trkpt>
<trkpt lat="-30.4758567" lon="151.6803194">
<ele>1007.565</ele>
<time>2017-04-06T07:49:42.204Z</time>
</trkpt>
<trkpt lat="-30.4762587" lon="151.6805963">
<ele>1013.329</ele>
<time>2017-04-06T07:49:44.172Z</time>
</trkpt>
<trkpt lat="-30.4766822" lon="151.6807981">
<ele>1018.625</ele>
<time>2017-04-06T07:49:46.119Z</time>
</trkpt>
<trkpt lat="-30.4773383" lon="151.6809011">
<ele>1022.421</ele>
<time>2017-04-06T07:49:49.000Z</time>
</trkpt>
<trkpt lat="-30.4778105" lon="151.6808441">
<ele>1024.149</ele>
<time>2017-04-06T07:49:51.058Z</time>
</trkpt>
<trkpt lat="-30.4785137" lon="151.6806462">
<ele>1024.202</ele>
<time>2017-04-06T07:49:54.079Z</time>
</trkpt>
<trkpt lat="-30.4789973" lon="151.6804887">
<ele>1023.257</ele>
<time>2017-04-06T07:49:56.121Z</time>
</trkpt>
<trkpt lat="-30.4794910" lon="151.6803301">
<ele>1021.985</ele>
<time>2017-04-06T07:49:58.165Z</time>
</trkpt>
<trkpt lat="-30.4799750" lon="151.6801713">
<ele>1020.977</ele>
<time>2017-04-06T07:50:00.143Z</time>
</trkpt>
<trkpt lat="-30.4807854" lon="151.6799219">
<ele>1020.397</ele>
<time>2017-04-06T07:50:03.390Z</time>
</trkpt>
<trkpt lat="-30.4815125" lon="151.6797201">
<ele>1020.120</ele>
<time>2017-04-06T07:50:06.251Z</time>
</trkpt>
<trkpt lat="-30.4822952" lon="151.6795017">
<ele>1020.246</ele>
<time>2017-04-06T07:50:09.314Z</time>
</trkpt>
<trkpt lat="-30.4828187" lon="151.6793609">
<ele>1021.042</ele>
<time>2017-04-06T07:50:11.356Z</time>
</trkpt>
<trkpt lat="-30.4832881" lon="151.6791913">
<ele>1022.433</ele>
<time>2017-04-06T07:50:13.261Z</time>
</trkpt>
<trkpt lat="-30.4839287" lon="151.6790076">
<ele>1023.966</ele>
<time>2017-04-06T07:50:15.997Z</time>
</trkpt>
<trkpt lat="-30.4845415" lon="151.6788948">
<ele>1025.266</ele>
<time>2017-04-06T07:50:18.875Z</time>
</trkpt>
<trkpt lat="-30.4849190" lon="151.6788084">
<ele>1026.253</ele>
<time>2017-04-06T07:50:20.762Z</time>
</trkpt>
<trkpt lat="-30.4854667" lon="151.6785893">
<ele>1027.035</ele>
<time>2017-04-06T07:50:23.700Z</time>
</trkpt>
<trkpt lat="-30.4860052" lon="151.6783116">
<ele>1027.791</ele>
<time>2017-04-06T07:50:26.708Z</time>
</trkpt>
<trkpt lat="-30.4863787" lon="151.6781445">
<ele>1028.674</ele>
<time>2017-04-06T07:50:28.722Z</time>
</trkpt>
<trkpt lat="-30.4868686" lon="151.6777379">
<ele>1029.648</ele>
<time>2017-04-06T07:50:31.718Z</time>
</trkpt>
<trkpt lat="-30.4871972" lon="151.6774916">
<ele>1030.547</ele>
<time>2017-04-06T07:50:33.681Z</time>
</trkpt>
<trkpt lat="-30.4876211" lon="151.6770340">
<ele>1031.234</ele>
<time>2017-04-06T07:50:36.646Z</time>
</trkpt>
<trkpt lat="-30.4879063" lon="151.6767872">
<ele>1031.621</ele>
<time>2017-04-06T07:50:38.527Z</time>
</trkpt>
<trkpt lat="-30.4881216" lon="151.6764947">
<ele>1031.728</ele>
<time>2017-04-06T07:50:40.368Z</time>
</trkpt>
<trkpt lat="-30.4884452" lon="151.6760864">
<ele>1031.683</ele>
<time>2017-04-06T07:50:43.194Z</time>
</trkpt>
<trkpt lat="-30.4887181" lon="151.6756613">
<ele>1031.536</ele>
<time>2017-04-06T07:50:46.025Z</time>
</trkpt>
<trkpt lat="-30.4888740" lon="151.6753573">
<ele>1031.276</ele>
<time>2017-04-06T07:50:47.961Z</time>
</trkpt>
<trkpt lat="-30.4891401" lon="151.6749122">
<ele>1030.993</ele>
<time>2017-04-06T07:50:50.980Z</time>
</trkpt>
<trkpt lat="-30.4892914" lon="151.6746055">
<ele>1030.806</ele>
<time>2017-04-06T07:50:52.952Z</time>
</trkpt>
<trkpt lat="-30.4894341" lon="151.6742950">
<ele>1030.693</ele>
<time>2017-04-06T07:50:54.920Z</time>
</trkpt>
<trkpt lat="-30.4896153" lon="151.6738287">
<ele>1030.587</ele>
<time>2017-04-06T07:50:57.813Z</time>
</trkpt>
<trkpt lat="-30.4896970" lon="151.6734824">
<ele>1030.473</ele>
<time>2017-04-06T07:50:59.854Z</time>
</trkpt>
<trkpt lat="-30.4897616" lon="151.6731398">
<ele>1030.333</ele>
<time>2017-04-06T07:51:01.848Z</time>
</trkpt>
<trkpt lat="-30.4898808" lon="151.6726483">
<ele>1030.160</ele>
<time>2017-04-06T07:51:04.776Z</time>
</trkpt>
<trkpt lat="-30.4900038" lon="151.6723534">
<ele>1029.898</ele>
<time>2017-04-06T07:51:06.682Z</time>
</trkpt>
<trkpt lat="-30.4901122" lon="151.6720534">
<ele>1029.469</ele>
<time>2017-04-06T07:51:08.625Z</time>
</trkpt>
<trkpt lat="-30.4902336" lon="151.6717631">
<ele>1028.902</ele>
<time>2017-04-06T07:51:10.601Z</time>
</trkpt>
<trkpt lat="-30.4904512" lon="151.6713758">
<ele>1028.286</ele>
<time>2017-04-06T07:51:13.493Z</time>
</trkpt>
<trkpt lat="-30.4906178" lon="151.6712170">
<ele>1027.591</ele>
<time>2017-04-06T07:51:15.080Z</time>
</trkpt>
<trkpt lat="-30.4907207" lon="151.6709419">
<ele>1026.744</ele>
<time>2017-04-06T07:51:17.231Z</time>
</trkpt>
<trkpt lat="-30.4906235" lon="151.6707588">
<ele>1025.735</ele>
<time>2017-04-06T07:51:19.096Z</time>
</trkpt>
<trkpt lat="-30.4905572" lon="151.6705105">
<ele>1024.782</ele>
<time>2017-04-06T07:51:21.427Z</time>
</trkpt>
<trkpt lat="-30.4905941" lon="151.6700318">
<ele>1024.244</ele>
<time>2017-04-06T07:51:25.149Z</time>
</trkpt>
<trkpt lat="-30.4906198" lon="151.6695369">
<ele>1024.292</ele>
<time>2017-04-06T07:51:28.390Z</time>
</trkpt>
<trkpt lat="-30.4907146" lon="151.6690468">
<ele>1024.737</ele>
<time>2017-04-06T07:51:31.443Z</time>
</trkpt>
<trkpt lat="-30.4907880" lon="151.6687062">
<ele>1025.271</ele>
<time>2017-04-06T07:51:33.523Z</time>
</trkpt>
<trkpt lat="-30.4908432" lon="151.6683633">
<ele>1025.671</ele>
<time>2017-04-06T07:51:35.539Z</time>
</trkpt>
<trkpt lat="-30.4910602" lon="151.6678269">
<ele>1025.857</ele>
<time>2017-04-06T07:51:38.928Z</time>
</trkpt>
<trkpt lat="-30.4912117" lon="151.6672925">
<ele>1025.858</ele>
<time>2017-04-06T07:51:42.082Z</time>
</trkpt>
<trkpt lat="-30.4913940" lon="151.6667387">
<ele>1025.767</ele>
<time>2017-04-06T07:51:45.257Z</time>
</trkpt>
<trkpt lat="-30.4914562" lon="151.6661735">
<ele>1025.678</ele>
<time>2017-04-06T07:51:48.204Z</time>
</trkpt>
<trkpt lat="-30.4914982" lon="151.6655971">
<ele>1025.616</ele>
<time>2017-04-06T07:51:51.171Z</time>
</trkpt>
<trkpt lat="-30.4915212" lon="151.6650024">
<ele>1025.502</ele>
<time>2017-04-06T07:51:54.198Z</time>
</trkpt>
<trkpt lat="-30.4914301" lon="151.6644133">
<ele>1025.190</ele>
<time>2017-04-06T07:51:57.201Z</time>
</trkpt>
<trkpt lat="-30.4913069" lon="151.6638383">
<ele>1024.536</ele>
<time>2017-04-06T07:52:00.155Z</time>
</trkpt>
<trkpt lat="-30.4911679" lon="151.6631751">
<ele>1023.505</ele>
<time>2017-04-06T07:52:03.415Z</time>
</trkpt>
<trkpt lat="-30.4909485" lon="151.6627005">
<ele>1022.307</ele>
<time>2017-04-06T07:52:05.731Z</time>
</trkpt>
<trkpt lat="-30.4906703" lon="151.6622538">
<ele>1021.246</ele>
<time>2017-04-06T07:52:07.875Z</time>
</trkpt>
<trkpt lat="-30.4903699" lon="151.6614776">
<ele>1020.332</ele>
<time>2017-04-06T07:52:10.991Z</time>
</trkpt>
<trkpt lat="-30.4900276" lon="151.6606727">
<ele>1019.248</ele>
<time>2017-04-06T07:52:14.083Z</time>
</trkpt>
<trkpt lat="-30.4899266" lon="151.6600742">
<ele>1017.664</ele>
<time>2017-04-06T07:52:16.126Z</time>
</trkpt>
<trkpt lat="-30.4896721" lon="151.6595333">
<ele>1015.535</ele>
<time>2017-04-06T07:52:18.181Z</time>
</trkpt>
<trkpt lat="-30.4894475" lon="151.6586841">
<ele>1013.143</ele>
<time>2017-04-06T07:52:21.150Z</time>
</trkpt>
<trkpt lat="-30.4893537" lon="151.6580870">
<ele>1010.609</ele>
<time>2017-04-06T07:52:23.174Z</time>
</trkpt>
<trkpt lat="-30.4894048" lon="151.6574909">
<ele>1007.898</ele>
<time>2017-04-06T07:52:25.167Z</time>
</trkpt>
<trkpt lat="-30.4893678" lon="151.6566220">
<ele>1005.239</ele>
<time>2017-04-06T07:52:28.108Z</time>
</trkpt>
<trkpt lat="-30.4894307" lon="151.6560847">
<ele>1002.604</ele>
<time>2017-04-06T07:52:29.981Z</time>
</trkpt>
<trkpt lat="-30.4895631" lon="151.6555527">
<ele>999.721</ele>
<time>2017-04-06T07:52:31.905Z</time>
</trkpt>
<trkpt lat="-30.4898497" lon="151.6547003">
<ele>996.844</ele>
<time>2017-04-06T07:52:35.052Z</time>
</trkpt>
<trkpt lat="-30.4903223" lon="151.6540091">
<ele>994.335</ele>
<time>2017-04-06T07:52:38.055Z</time>
</trkpt>
<trkpt lat="-30.4907925" lon="151.6533338">
<ele>992.184</ele>
<time>2017-04-06T07:52:40.983Z</time>
</trkpt>
<trkpt lat="-30.4913604" lon="151.6527149">
<ele>990.342</ele>
<time>2017-04-06T07:52:43.980Z</time>
</trkpt>
<trkpt lat="-30.4917993" lon="151.6523208">
<ele>988.795</ele>
<time>2017-04-06T07:52:46.090Z</time>
</trkpt>
<trkpt lat="-30.4925486" lon="151.6518500">
<ele>987.419</ele>
<time>2017-04-06T07:52:49.317Z</time>
</trkpt>
<trkpt lat="-30.4930362" lon="151.6515324">
<ele>985.955</ele>
<time>2017-04-06T07:52:51.446Z</time>
</trkpt>
<trkpt lat="-30.4935473" lon="151.6512869">
<ele>984.251</ele>
<time>2017-04-06T07:52:53.566Z</time>
</trkpt>
<trkpt lat="-30.4941027" lon="151.6511020">
<ele>982.481</ele>
<time>2017-04-06T07:52:55.778Z</time>
</trkpt>
<trkpt lat="-30.4946008" lon="151.6509491">
<ele>980.813</ele>
<time>2017-04-06T07:52:57.768Z</time>
</trkpt>
<trkpt lat="-30.4952927" lon="151.6506678">
<ele>979.092</ele>
<time>2017-04-06T07:53:00.653Z</time>
</trkpt>
<trkpt lat="-30.4958356" lon="151.6504735">
<ele>977.028</ele>
<time>2017-04-06T07:53:02.918Z</time>
</trkpt>
<trkpt lat="-30.4964430" lon="151.6502305">
<ele>974.655</ele>
<time>2017-04-06T07:53:05.464Z</time>
</trkpt>
<trkpt lat="-30.4971474" lon="151.6499590">
<ele>972.315</ele>
<time>2017-04-06T07:53:08.354Z</time>
</trkpt>
<trkpt lat="-30.4978820" lon="151.6497141">
<ele>970.165</ele>
<time>2017-04-06T07:53:11.311Z</time>
</trkpt>
<trkpt lat="-30.4985382" lon="151.6495140">
<ele>968.083</ele>
<time>2017-04-06T07:53:13.956Z</time>
</trkpt>
<trkpt lat="-30.4990673" lon="151.6493154">
<ele>965.992</ele>
<time>2017-04-06T07:53:16.100Z</time>
</trkpt>
<trkpt lat="-30.4998916" lon="151.6489768">
<ele>964.195</ele>
<time>2017-04-06T07:53:19.410Z</time>
</trkpt>
<trkpt lat="-30.5005404" lon="151.6487243">
<ele>963.222</ele>
<time>2017-04-06T07:53:21.968Z</time>
</trkpt>
<trkpt lat="-30.5012296" lon="151.6483579">
<ele>963.114</ele>
<time>2017-04-06T07:53:24.816Z</time>
</trkpt>
<trkpt lat="-30.5016386" lon="151.6480638">
<ele>963.383</ele>
<time>2017-04-06T07:53:26.656Z</time>
</trkpt>
<trkpt lat="-30.5022270" lon="151.6475045">
<ele>963.624</ele>
<time>2017-04-06T07:53:29.602Z</time>
</trkpt>
<trkpt lat="-30.5026346" lon="151.6470694">
<ele>963.729</ele>
<time>2017-04-06T07:53:31.768Z</time>
</trkpt>
<trkpt lat="-30.5030097" lon="151.6465784">
<ele>963.747</ele>
<time>2017-04-06T07:53:33.978Z</time>
</trkpt>
<trkpt lat="-30.5033313" lon="151.6461281">
<ele>963.794</ele>
<time>2017-04-06T07:53:35.950Z</time>
</trkpt>
<trkpt lat="-30.5036704" lon="151.6453336">
<ele>963.995</ele>
<time>2017-04-06T07:53:38.959Z</time>
</trkpt>
<trkpt lat="-30.5038406" lon="151.6447795">
<ele>964.395</ele>
<time>2017-04-06T07:53:40.969Z</time>
</trkpt>
<trkpt lat="-30.5040173" lon="151.6439271">
<ele>965.007</ele>
<time>2017-04-06T07:53:43.976Z</time>
</trkpt>
<trkpt lat="-30.5040198" lon="151.6433547">
<ele>965.928</ele>
<time>2017-04-06T07:53:45.961Z</time>
</trkpt>
<trkpt lat="-30.5040439" lon="151.6425154">
<ele>967.137</ele>
<time>2017-04-06T07:53:48.921Z</time>
</trkpt>
<trkpt lat="-30.5039698" lon="151.6417035">
<ele>968.503</ele>
<time>2017-04-06T07:53:51.887Z</time>
</trkpt>
<trkpt lat="-30.5040502" lon="151.6411841">
<ele>970.128</ele>
<time>2017-04-06T07:53:53.880Z</time>
</trkpt>
<trkpt lat="-30.5040903" lon="151.6404286">
<ele>972.036</ele>
<time>2017-04-06T07:53:56.831Z</time>
</trkpt>
<trkpt lat="-30.5041041" lon="151.6399366">
<ele>973.897</ele>
<time>2017-04-06T07:53:58.810Z</time>
</trkpt>
<trkpt lat="-30.5042164" lon="151.6394681">
<ele>975.398</ele>
<time>2017-04-06T07:54:00.787Z</time>
</trkpt>
<trkpt lat="-30.5044437" lon="151.6387964">
<ele>976.411</ele>
<time>2017-04-06T07:54:03.744Z</time>
</trkpt>
<trkpt lat="-30.5046189" lon="151.6383655">
<ele>977.085</ele>
<time>2017-04-06T07:54:05.710Z</time>
</trkpt>
<trkpt lat="-30.5048960" lon="151.6377227">
<ele>977.702</ele>
<time>2017-04-06T07:54:08.679Z</time>
</trkpt>
<trkpt lat="-30.5051558" lon="151.6373275">
<ele>978.333</ele>
<time>2017-04-06T07:54:10.692Z</time>
</trkpt>
<trkpt lat="-30.5054549" lon="151.6369454">
<ele>979.014</ele>
<time>2017-04-06T07:54:12.722Z</time>
</trkpt>
<trkpt lat="-30.5059585" lon="151.6364254">
<ele>979.855</ele>
<time>2017-04-06T07:54:15.712Z</time>
</trkpt>
<trkpt lat="-30.5065376" lon="151.6359099">
<ele>981.016</ele>
<time>2017-04-06T07:54:18.793Z</time>
</trkpt>
<trkpt lat="-30.5069607" lon="151.6355934">
<ele>982.916</ele>
<time>2017-04-06T07:54:20.828Z</time>
</trkpt>
<trkpt lat="-30.5076498" lon="151.6352421">
<ele>985.762</ele>
<time>2017-04-06T07:54:23.852Z</time>
</trkpt>
<trkpt lat="-30.5081235" lon="151.6350954">
<ele>989.544</ele>
<time>2017-04-06T07:54:25.834Z</time>
</trkpt>
<trkpt lat="-30.5088491" lon="151.6349198">
<ele>994.083</ele>
<time>2017-04-06T07:54:28.836Z</time>
</trkpt>
<trkpt lat="-30.5093529" lon="151.6347684">
<ele>998.909</ele>
<time>2017-04-06T07:54:30.920Z</time>
</trkpt>
<trkpt lat="-30.5101201" lon="151.6345645">
<ele>1003.468</ele>
<time>2017-04-06T07:54:34.041Z</time>
</trkpt>
<trkpt lat="-30.5106080" lon="151.6344307">
<ele>1007.341</ele>
<time>2017-04-06T07:54:36.026Z</time>
</trkpt>
<trkpt lat="-30.5110654" lon="151.6342169">
<ele>1010.180</ele>
<time>2017-04-06T07:54:37.983Z</time>
</trkpt>
<trkpt lat="-30.5117398" lon="151.6338342">
<ele>1011.993</ele>
<time>2017-04-06T07:54:40.956Z</time>
</trkpt>
<trkpt lat="-30.5123280" lon="151.6332707">
<ele>1013.112</ele>
<time>2017-04-06T07:54:43.953Z</time>
</trkpt>
<trkpt lat="-30.5128772" lon="151.6326553">
<ele>1013.850</ele>
<time>2017-04-06T07:54:46.944Z</time>
</trkpt>
<trkpt lat="-30.5131928" lon="151.6321928">
<ele>1014.180</ele>
<time>2017-04-06T07:54:48.935Z</time>
</trkpt>
<trkpt lat="-30.5135036" lon="151.6317164">
<ele>1014.048</ele>
<time>2017-04-06T07:54:50.946Z</time>
</trkpt>
<trkpt lat="-30.5139726" lon="151.6310042">
<ele>1013.571</ele>
<time>2017-04-06T07:54:53.953Z</time>
</trkpt>
<trkpt lat="-30.5142876" lon="151.6305335">
<ele>1012.881</ele>
<time>2017-04-06T07:54:55.936Z</time>
</trkpt>
<trkpt lat="-30.5147013" lon="151.6301637">
<ele>1012.199</ele>
<time>2017-04-06T07:54:57.933Z</time>
</trkpt>
<trkpt lat="-30.5151315" lon="151.6298091">
<ele>1011.827</ele>
<time>2017-04-06T07:54:59.951Z</time>
</trkpt>
<trkpt lat="-30.5158196" lon="151.6293921">
<ele>1011.856</ele>
<time>2017-04-06T07:55:02.963Z</time>
</trkpt>
<trkpt lat="-30.5162913" lon="151.6291912">
<ele>1012.076</ele>
<time>2017-04-06T07:55:04.960Z</time>
</trkpt>
<trkpt lat="-30.5167812" lon="151.6290413">
<ele>1012.213</ele>
<time>2017-04-06T07:55:06.958Z</time>
</trkpt>
<trkpt lat="-30.5175701" lon="151.6288903">
<ele>1012.172</ele>
<time>2017-04-06T07:55:10.034Z</time>
</trkpt>
<trkpt lat="-30.5181000" lon="151.6287922">
<ele>1012.197</ele>
<time>2017-04-06T07:55:12.051Z</time>
</trkpt>
<trkpt lat="-30.5186242" lon="151.6287054">
<ele>1012.589</ele>
<time>2017-04-06T07:55:14.043Z</time>
</trkpt>
<trkpt lat="-30.5193890" lon="151.6285499">
<ele>1013.344</ele>
<time>2017-04-06T07:55:16.980Z</time>
</trkpt>
<trkpt lat="-30.5199126" lon="151.6284611">
<ele>1014.498</ele>
<time>2017-04-06T07:55:18.986Z</time>
</trkpt>
<trkpt lat="-30.5204279" lon="151.6283628">
<ele>1016.260</ele>
<time>2017-04-06T07:55:20.978Z</time>
</trkpt>
<trkpt lat="-30.5211763" lon="151.6282226">
<ele>1018.515</ele>
<time>2017-04-06T07:55:23.926Z</time>
</trkpt>
<trkpt lat="-30.5216550" lon="151.6281418">
<ele>1021.126</ele>
<time>2017-04-06T07:55:25.879Z</time>
</trkpt>
<trkpt lat="-30.5221140" lon="151.6280238">
<ele>1024.036</ele>
<time>2017-04-06T07:55:27.823Z</time>
</trkpt>
<trkpt lat="-30.5228073" lon="151.6278152">
<ele>1026.837</ele>
<time>2017-04-06T07:55:30.824Z</time>
</trkpt>
<trkpt lat="-30.5232586" lon="151.6276442">
<ele>1029.422</ele>
<time>2017-04-06T07:55:32.867Z</time>
</trkpt>
<trkpt lat="-30.5236516" lon="151.6274818">
<ele>1032.067</ele>
<time>2017-04-06T07:55:34.819Z</time>
</trkpt>
<trkpt lat="-30.5241162" lon="151.6272430">
<ele>1034.417</ele>
<time>2017-04-06T07:55:37.497Z</time>
</trkpt>
<trkpt lat="-30.5243657" lon="151.6270538">
<ele>1035.914</ele>
<time>2017-04-06T07:55:39.340Z</time>
</trkpt>
<trkpt lat="-30.5246291" lon="151.6268850">
<ele>1036.692</ele>
<time>2017-04-06T07:55:41.294Z</time>
</trkpt>
<trkpt lat="-30.5250069" lon="151.6265850">
<ele>1037.292</ele>
<time>2017-04-06T07:55:44.271Z</time>
</trkpt>
<trkpt lat="-30.5252858" lon="151.6264161">
<ele>1038.230</ele>
<time>2017-04-06T07:55:46.290Z</time>
</trkpt>
<trkpt lat="-30.5255407" lon="151.6262040">
<ele>1039.653</ele>
<time>2017-04-06T07:55:48.291Z</time>
</trkpt>
<trkpt lat="-30.5257752" lon="151.6259742">
<ele>1041.226</ele>
<time>2017-04-06T07:55:50.262Z</time>
</trkpt>
<trkpt lat="-30.5261165" lon="151.6256437">
<ele>1042.602</ele>
<time>2017-04-06T07:55:53.171Z</time>
</trkpt>
<trkpt lat="-30.5263096" lon="151.6253965">
<ele>1043.809</ele>
<time>2017-04-06T07:55:55.118Z</time>
</trkpt>
<trkpt lat="-30.5264856" lon="151.6251496">
<ele>1044.933</ele>
<time>2017-04-06T07:55:57.055Z</time>
</trkpt>
<trkpt lat="-30.5267330" lon="151.6247780">
<ele>1045.896</ele>
<time>2017-04-06T07:56:00.010Z</time>
</trkpt>
<trkpt lat="-30.5270112" lon="151.6245733">
<ele>1046.546</ele>
<time>2017-04-06T07:56:02.665Z</time>
</trkpt>
<trkpt lat="-30.5271282" lon="151.6244443">
<ele>1046.799</ele>
<time>2017-04-06T07:56:04.208Z</time>
</trkpt>
<trkpt lat="-30.5272860" lon="151.6246161">
<ele>1046.697</ele>
<time>2017-04-06T07:56:06.820Z</time>
</trkpt>
<trkpt lat="-30.5273187" lon="151.6249543">
<ele>1046.445</ele>
<time>2017-04-06T07:56:10.262Z</time>
</trkpt>
<trkpt lat="-30.5272468" lon="151.6254284">
<ele>1046.231</ele>
<time>2017-04-06T07:56:13.667Z</time>
</trkpt>
<trkpt lat="-30.5272043" lon="151.6257871">
<ele>1046.047</ele>
<time>2017-04-06T07:56:15.799Z</time>
</trkpt>
<trkpt lat="-30.5272459" lon="151.6261772">
<ele>1045.716</ele>
<time>2017-04-06T07:56:17.870Z</time>
</trkpt>
<trkpt lat="-30.5271177" lon="151.6268111">
<ele>1045.148</ele>
<time>2017-04-06T07:56:21.023Z</time>
</trkpt>
<trkpt lat="-30.5270337" lon="151.6272559">
<ele>1044.363</ele>
<time>2017-04-06T07:56:23.084Z</time>
</trkpt>
<trkpt lat="-30.5266936" lon="151.6278143">
<ele>1043.388</ele>
<time>2017-04-06T07:56:26.123Z</time>
</trkpt>
<trkpt lat="-30.5263467" lon="151.6283709">
<ele>1042.232</ele>
<time>2017-04-06T07:56:29.134Z</time>
</trkpt>
<trkpt lat="-30.5259849" lon="151.6289045">
<ele>1040.801</ele>
<time>2017-04-06T07:56:32.089Z</time>
</trkpt>
<trkpt lat="-30.5257673" lon="151.6292827">
<ele>1038.822</ele>
<time>2017-04-06T07:56:34.044Z</time>
</trkpt>
<trkpt lat="-30.5255036" lon="151.6296486">
<ele>1036.280</ele>
<time>2017-04-06T07:56:36.063Z</time>
</trkpt>
<trkpt lat="-30.5252965" lon="151.6300530">
<ele>1033.570</ele>
<time>2017-04-06T07:56:38.041Z</time>
</trkpt>
<trkpt lat="-30.5251051" lon="151.6304704">
<ele>1031.001</ele>
<time>2017-04-06T07:56:40.030Z</time>
</trkpt>
<trkpt lat="-30.5248910" lon="151.6311380">
<ele>1028.888</ele>
<time>2017-04-06T07:56:43.017Z</time>
</trkpt>
<trkpt lat="-30.5247348" lon="151.6315833">
<ele>1028.996</ele>
<time>2017-04-06T07:56:45.015Z</time>
</trkpt>
<trkpt lat="-30.5246310" lon="151.6320453">
<ele>1032.554</ele>
<time>2017-04-06T07:56:47.016Z</time>
</trkpt>
<trkpt lat="-30.5243972" lon="151.6326802">
<ele>1037.460</ele>
<time>2017-04-06T07:56:49.998Z</time>
</trkpt>
<trkpt lat="-30.5242660" lon="151.6330743">
<ele>1040.794</ele>
<time>2017-04-06T07:56:51.996Z</time>
</trkpt>
<trkpt lat="-30.5241066" lon="151.6335647">
<ele>1041.920</ele>
<time>2017-04-06T07:56:54.733Z</time>
</trkpt>
<trkpt lat="-30.5240193" lon="151.6338296">
<ele>1041.416</ele>
<time>2017-04-06T07:56:56.509Z</time>
</trkpt>
<trkpt lat="-30.5239544" lon="151.6340158">
<ele>1039.979</ele>
<time>2017-04-06T07:56:57.991Z</time>
</trkpt>
<trkpt lat="-30.5237917" lon="151.6341536">
<ele>1038.159</ele>
<time>2017-04-06T07:57:00.398Z</time>
</trkpt>
<trkpt lat="-30.5235259" lon="151.6340597">
<ele>1036.127</ele>
<time>2017-04-06T07:57:03.756Z</time>
</trkpt>
<trkpt lat="-30.5232731" lon="151.6340053">
<ele>1033.891</ele>
<time>2017-04-06T07:57:06.674Z</time>
</trkpt>
<trkpt lat="-30.5231508" lon="151.6339839">
<ele>1029.957</ele>
<time>2017-04-06T07:57:08.306Z</time>
</trkpt>
<trkpt lat="-30.5230566" lon="151.6339997">
<ele>1023.564</ele>
<time>2017-04-06T07:57:10.040Z</time>
</trkpt>
<trkpt lat="-30.5230948" lon="151.6338945">
<ele>1017.424</ele>
<time>2017-04-06T07:57:12.200Z</time>
</trkpt>
<trkpt lat="-30.5231005" lon="151.6337875">
<ele>1014.129</ele>
<time>2017-04-06T07:57:14.510Z</time>
</trkpt>
<trkpt lat="-30.5230214" lon="151.6335960">
<ele>1013.204</ele>
<time>2017-04-06T07:57:18.186Z</time>
</trkpt>
<trkpt lat="-30.5230374" lon="151.6334422">
<ele>1013.527</ele>
<time>2017-04-06T07:57:20.400Z</time>
</trkpt>
<trkpt lat="-30.5230631" lon="151.6332239">
<ele>1014.293</ele>
<time>2017-04-06T07:57:23.493Z</time>
</trkpt>
<trkpt lat="-30.5230672" lon="151.6330908">
<ele>1015.208</ele>
<time>2017-04-06T07:57:25.465Z</time>
</trkpt>
<trkpt lat="-30.5230462" lon="151.6329746">
<ele>1016.183</ele>
<time>2017-04-06T07:57:27.376Z</time>
</trkpt>
<trkpt lat="-30.5230019" lon="151.6328392">
<ele>1017.105</ele>
<time>2017-04-06T07:57:30.002Z</time>
</trkpt>
<trkpt lat="-30.5230019" lon="151.6328392">
<ele>1017.796</ele>
<time>2017-04-06T07:57:36.002Z</time>
</trkpt>
<trkpt lat="-30.5230019" lon="151.6328392">
<ele>1017.943</ele>
<time>2017-04-06T07:57:36.102Z</time>
</trkpt>
<trkpt lat="-30.5229881" lon="151.6325859">
<ele>1017.484</ele>
<time>2017-04-06T07:57:42.328Z</time>
</trkpt>
<trkpt lat="-30.5229884" lon="151.6323902">
<ele>1017.492</ele>
<time>2017-04-06T07:57:45.225Z</time>
</trkpt>
<trkpt lat="-30.5229900" lon="151.6322581">
<ele>1018.879</ele>
<time>2017-04-06T07:57:47.245Z</time>
</trkpt>
<trkpt lat="-30.5229639" lon="151.6321488">
<ele>1020.898</ele>
<time>2017-04-06T07:57:49.018Z</time>
</trkpt>
<trkpt lat="-30.5229666" lon="151.6320330">
<ele>1022.492</ele>
<time>2017-04-06T07:57:50.839Z</time>
</trkpt>
<trkpt lat="-30.5229083" lon="151.6318786">
<ele>1023.562</ele>
<time>2017-04-06T07:57:53.525Z</time>
</trkpt>
<trkpt lat="-30.5229126" lon="151.6317665">
<ele>1024.382</ele>
<time>2017-04-06T07:57:55.371Z</time>
</trkpt>
<trkpt lat="-30.5228761" lon="151.6316169">
<ele>1025.159</ele>
<time>2017-04-06T07:57:58.076Z</time>
</trkpt>
<trkpt lat="-30.5227898" lon="151.6315033">
<ele>1025.981</ele>
<time>2017-04-06T07:58:00.873Z</time>
</trkpt>
<trkpt lat="-30.5227017" lon="151.6314112">
<ele>1026.920</ele>
<time>2017-04-06T07:58:03.636Z</time>
</trkpt>
<trkpt lat="-30.5226930" lon="151.6312929">
<ele>1027.962</ele>
<time>2017-04-06T07:58:06.279Z</time>
</trkpt>
<trkpt lat="-30.5226346" lon="151.6311942">
<ele>1028.980</ele>
<time>2017-04-06T07:58:09.120Z</time>
</trkpt>
<trkpt lat="-30.5226364" lon="151.6310727">
<ele>1029.895</ele>
<time>2017-04-06T07:58:11.950Z</time>
</trkpt>
<trkpt lat="-30.5225872" lon="151.6309574">
<ele>1030.677</ele>
<time>2017-04-06T07:58:14.987Z</time>
</trkpt>
<trkpt lat="-30.5225866" lon="151.6308420">
<ele>1031.296</ele>
<time>2017-04-06T07:58:18.002Z</time>
</trkpt>
<trkpt lat="-30.5225866" lon="151.6308420">
<ele>1031.703</ele>
<time>2017-04-06T07:58:23.002Z</time>
</trkpt>
<trkpt lat="-30.5225866" lon="151.6308420">
<ele>1031.699</ele>
<time>2017-04-06T08:05:31.999Z</time>
</trkpt>
<trkpt lat="-30.5226643" lon="151.6305528">
<ele>1032.297</ele>
<time>2017-04-06T08:06:52.835Z</time>
</trkpt>
<trkpt lat="-30.5226643" lon="151.6305528">
<ele>1032.297</ele>
<time>2017-04-06T08:06:52.835Z</time>
</trkpt>
<trkpt lat="-30.5226808" lon="151.6305920">
<ele>1032.348</ele>
<time>2017-04-06T08:07:02.648Z</time>
</trkpt>
<trkpt lat="-30.5226808" lon="151.6305920">
<ele>1032.348</ele>
<time>2017-04-06T08:07:02.648Z</time>
</trkpt>
<trkpt lat="-30.5225842" lon="151.6306009">
<ele>1032.782</ele>
<time>2017-04-06T08:07:27.953Z</time>
</trkpt>
<trkpt lat="-30.5225842" lon="151.6306009">
<ele>1032.782</ele>
<time>2017-04-06T08:07:27.953Z</time>
</trkpt>
<trkpt lat="-30.5227073" lon="151.6307979">
<ele>1031.829</ele>
<time>2017-04-06T08:09:27.265Z</time>
</trkpt>
<trkpt lat="-30.5227073" lon="151.6307979">
<ele>1031.829</ele>
<time>2017-04-06T08:09:27.265Z</time>
</trkpt>
<trkpt lat="-30.5226876" lon="151.6308056">
<ele>1032.208</ele>
<time>2017-04-06T08:09:51.999Z</time>
</trkpt>
<trkpt lat="-30.5226876" lon="151.6308056">
<ele>1031.732</ele>
<time>2017-04-06T08:10:48.998Z</time>
</trkpt>
<trkpt lat="-30.5226773" lon="151.6308704">
<ele>1032.105</ele>
<time>2017-04-06T08:11:05.998Z</time>
</trkpt>
<trkpt lat="-30.5226773" lon="151.6308704">
<ele>1031.629</ele>
<time>2017-04-06T08:11:40.998Z</time>
</trkpt>
<trkpt lat="-30.5226340" lon="151.6309204">
<ele>1031.472</ele>
<time>2017-04-06T08:11:58.423Z</time>
</trkpt>
<trkpt lat="-30.5226340" lon="151.6309204">
<ele>1031.472</ele>
<time>2017-04-06T08:11:58.423Z</time>
</trkpt>
<trkpt lat="-30.5225481" lon="151.6309618">
<ele>1031.554</ele>
<time>2017-04-06T08:12:24.734Z</time>
</trkpt>
<trkpt lat="-30.5225481" lon="151.6309618">
<ele>1031.554</ele>
<time>2017-04-06T08:12:24.734Z</time>
</trkpt>
<trkpt lat="-30.5225665" lon="151.6309978">
<ele>1029.962</ele>
<time>2017-04-06T08:12:34.928Z</time>
</trkpt>
<trkpt lat="-30.5225665" lon="151.6309978">
<ele>1029.962</ele>
<time>2017-04-06T08:12:34.928Z</time>
</trkpt>
<trkpt lat="-30.5226604" lon="151.6309775">
<ele>1030.541</ele>
<time>2017-04-06T08:16:06.000Z</time>
</trkpt>
<trkpt lat="-30.5226604" lon="151.6309775">
<ele>1030.066</ele>
<time>2017-04-06T08:17:59.000Z</time>
</trkpt>
<trkpt lat="-30.5226171" lon="151.6310998">
<ele>1029.877</ele>
<time>2017-04-06T08:19:04.106Z</time>
</trkpt>
<trkpt lat="-30.5226171" lon="151.6310998">
<ele>1029.877</ele>
<time>2017-04-06T08:19:04.106Z</time>
</trkpt>
<trkpt lat="-30.5226638" lon="151.6311455">
<ele>1029.865</ele>
<time>2017-04-06T08:19:38.997Z</time>
</trkpt>
<trkpt lat="-30.5226638" lon="151.6311455">
<ele>1029.390</ele>
<time>2017-04-06T08:19:39.997Z</time>
</trkpt>
<trkpt lat="-30.5228155" lon="151.6311598">
<ele>1029.689</ele>
<time>2017-04-06T08:21:20.735Z</time>
</trkpt>
<trkpt lat="-30.5228155" lon="151.6311598">
<ele>1029.689</ele>
<time>2017-04-06T08:21:20.735Z</time>
</trkpt>
<trkpt lat="-30.5228191" lon="151.6311016">
<ele>1029.615</ele>
<time>2017-04-06T08:21:53.997Z</time>
</trkpt>
<trkpt lat="-30.5228191" lon="151.6311016">
<ele>1029.140</ele>
<time>2017-04-06T08:21:57.997Z</time>
</trkpt>
<trkpt lat="-30.5228077" lon="151.6311001">
<ele>1029.483</ele>
<time>2017-04-06T08:22:11.997Z</time>
</trkpt>
<trkpt lat="-30.5228077" lon="151.6311001">
<ele>1029.008</ele>
<time>2017-04-06T08:22:19.999Z</time>
</trkpt>
<trkpt lat="-30.5228247" lon="151.6311231">
<ele>1029.444</ele>
<time>2017-04-06T08:22:32.000Z</time>
</trkpt>
<trkpt lat="-30.5228247" lon="151.6311231">
<ele>1028.969</ele>
<time>2017-04-06T08:23:23.000Z</time>
</trkpt>
<trkpt lat="-30.5226101" lon="151.6311557">
<ele>1029.307</ele>
<time>2017-04-06T08:27:20.842Z</time>
</trkpt>
<trkpt lat="-30.5226101" lon="151.6311557">
<ele>1029.307</ele>
<time>2017-04-06T08:27:20.842Z</time>
</trkpt>
<trkpt lat="-30.5225584" lon="151.6311232">
<ele>1029.170</ele>
<time>2017-04-06T08:27:48.400Z</time>
</trkpt>
<trkpt lat="-30.5225584" lon="151.6311232">
<ele>1029.170</ele>
<time>2017-04-06T08:27:48.400Z</time>
</trkpt>
<trkpt lat="-30.5226525" lon="151.6311954">
<ele>1029.316</ele>
<time>2017-04-06T08:28:41.283Z</time>
</trkpt>
<trkpt lat="-30.5226525" lon="151.6311954">
<ele>1029.316</ele>
<time>2017-04-06T08:28:41.283Z</time>
</trkpt>
<trkpt lat="-30.5227960" lon="151.6311995">
<ele>1029.017</ele>
<time>2017-04-06T08:29:49.999Z</time>
</trkpt>
<trkpt lat="-30.5227960" lon="151.6311995">
<ele>1028.543</ele>
<time>2017-04-06T08:30:03.999Z</time>
</trkpt>
<trkpt lat="-30.5227508" lon="151.6312081">
<ele>1029.330</ele>
<time>2017-04-06T08:30:16.999Z</time>
</trkpt>
<trkpt lat="-30.5227508" lon="151.6312081">
<ele>1028.855</ele>
<time>2017-04-06T08:30:31.999Z</time>
</trkpt>
<trkpt lat="-30.5227449" lon="151.6311864">
<ele>1029.237</ele>
<time>2017-04-06T08:30:50.999Z</time>
</trkpt>
<trkpt lat="-30.5227449" lon="151.6311864">
<ele>1028.762</ele>
<time>2017-04-06T08:30:53.999Z</time>
</trkpt>
<trkpt lat="-30.5227124" lon="151.6311369">
<ele>1028.910</ele>
<time>2017-04-06T08:31:49.999Z</time>
</trkpt>
<trkpt lat="-30.5227124" lon="151.6311369">
<ele>1028.435</ele>
<time>2017-04-06T08:31:55.999Z</time>
</trkpt>
<trkpt lat="-30.5227116" lon="151.6311292">
<ele>1029.199</ele>
<time>2017-04-06T08:32:16.999Z</time>
</trkpt>
<trkpt lat="-30.5227116" lon="151.6311292">
<ele>1028.724</ele>
<time>2017-04-06T08:32:47.999Z</time>
</trkpt>
<trkpt lat="-30.5223995" lon="151.6311194">
<ele>1028.958</ele>
<time>2017-04-06T08:36:21.669Z</time>
</trkpt>
<trkpt lat="-30.5223995" lon="151.6311194">
<ele>1028.958</ele>
<time>2017-04-06T08:36:21.669Z</time>
</trkpt>
<trkpt lat="-30.5225147" lon="151.6313143">
<ele>1029.928</ele>
<time>2017-04-06T08:38:41.000Z</time>
</trkpt>
<trkpt lat="-30.5225147" lon="151.6313143">
<ele>1029.453</ele>
<time>2017-04-06T08:38:54.000Z</time>
</trkpt>
<trkpt lat="-30.5225433" lon="151.6312303">
<ele>1028.893</ele>
<time>2017-04-06T08:39:12.000Z</time>
</trkpt>
<trkpt lat="-30.5225433" lon="151.6312303">
<ele>1028.419</ele>
<time>2017-04-06T08:41:19.000Z</time>
</trkpt>
<trkpt lat="-30.5226388" lon="151.6312204">
<ele>1028.649</ele>
<time>2017-04-06T08:43:16.885Z</time>
</trkpt>
<trkpt lat="-30.5226388" lon="151.6312204">
<ele>1028.649</ele>
<time>2017-04-06T08:43:16.885Z</time>
</trkpt>
<trkpt lat="-30.5228371" lon="151.6311931">
<ele>1028.783</ele>
<time>2017-04-06T08:46:29.737Z</time>
</trkpt>
<trkpt lat="-30.5228371" lon="151.6311931">
<ele>1028.783</ele>
<time>2017-04-06T08:46:29.737Z</time>
</trkpt>
<trkpt lat="-30.5229154" lon="151.6311378">
<ele>1029.143</ele>
<time>2017-04-06T08:47:43.869Z</time>
</trkpt>
<trkpt lat="-30.5229154" lon="151.6311378">
<ele>1029.143</ele>
<time>2017-04-06T08:47:43.869Z</time>
</trkpt>
<trkpt lat="-30.5229610" lon="151.6311422">
<ele>1029.430</ele>
<time>2017-04-06T08:48:16.325Z</time>
</trkpt>
<trkpt lat="-30.5229610" lon="151.6311422">
<ele>1029.430</ele>
<time>2017-04-06T08:48:16.325Z</time>
</trkpt>
<trkpt lat="-30.5228759" lon="151.6310931">
<ele>1029.227</ele>
<time>2017-04-06T08:49:23.790Z</time>
</trkpt>
<trkpt lat="-30.5228759" lon="151.6310931">
<ele>1029.227</ele>
<time>2017-04-06T08:49:23.790Z</time>
</trkpt>
<trkpt lat="-30.5228125" lon="151.6309103">
<ele>1029.120</ele>
<time>2017-04-06T08:54:43.994Z</time>
</trkpt>
<trkpt lat="-30.5228125" lon="151.6309103">
<ele>1028.645</ele>
<time>2017-04-06T08:55:06.994Z</time>
</trkpt>
<trkpt lat="-30.5228152" lon="151.6309742">
<ele>1029.021</ele>
<time>2017-04-06T08:56:39.100Z</time>
</trkpt>
<trkpt lat="-30.5228152" lon="151.6309742">
<ele>1029.021</ele>
<time>2017-04-06T08:56:39.100Z</time>
</trkpt>
<trkpt lat="-30.5227119" lon="151.6310936">
<ele>1028.799</ele>
<time>2017-04-06T09:00:17.245Z</time>
</trkpt>
<trkpt lat="-30.5227119" lon="151.6310936">
<ele>1028.799</ele>
<time>2017-04-06T09:00:17.245Z</time>
</trkpt>
<trkpt lat="-30.5227874" lon="151.6311454">
<ele>1029.309</ele>
<time>2017-04-06T09:03:57.998Z</time>
</trkpt>
<trkpt lat="-30.5227874" lon="151.6311454">
<ele>1028.834</ele>
<time>2017-04-06T09:04:24.998Z</time>
</trkpt>
<trkpt lat="-30.5227847" lon="151.6311593">
<ele>1028.824</ele>
<time>2017-04-06T09:05:06.210Z</time>
</trkpt>
<trkpt lat="-30.5227847" lon="151.6311593">
<ele>1028.824</ele>
<time>2017-04-06T09:05:06.210Z</time>
</trkpt>
<trkpt lat="-30.5227837" lon="151.6311458">
<ele>1028.777</ele>
<time>2017-04-06T09:05:44.998Z</time>
</trkpt>
<trkpt lat="-30.5227837" lon="151.6311458">
<ele>1028.302</ele>
<time>2017-04-06T09:06:58.999Z</time>
</trkpt>
<trkpt lat="-30.5227967" lon="151.6311709">
<ele>1028.631</ele>
<time>2017-04-06T09:07:09.999Z</time>
</trkpt>
<trkpt lat="-30.5227967" lon="151.6311709">
<ele>1028.156</ele>
<time>2017-04-06T09:13:06.999Z</time>
</trkpt>
<trkpt lat="-30.5226757" lon="151.6311266">
<ele>1028.060</ele>
<time>2017-04-06T09:16:25.419Z</time>
</trkpt>
<trkpt lat="-30.5226757" lon="151.6311266">
<ele>1028.060</ele>
<time>2017-04-06T09:16:25.419Z</time>
</trkpt>
<trkpt lat="-30.5227970" lon="151.6312432">
<ele>1027.302</ele>
<time>2017-04-06T09:20:16.306Z</time>
</trkpt>
<trkpt lat="-30.5227970" lon="151.6312432">
<ele>1027.302</ele>
<time>2017-04-06T09:20:16.306Z</time>
</trkpt>
<trkpt lat="-30.5227543" lon="151.6312692">
<ele>1027.306</ele>
<time>2017-04-06T09:21:26.902Z</time>
</trkpt>
<trkpt lat="-30.5227543" lon="151.6312692">
<ele>1027.306</ele>
<time>2017-04-06T09:21:26.902Z</time>
</trkpt>
<trkpt lat="-30.5225654" lon="151.6307053">
<ele>1027.215</ele>
<time>2017-04-06T09:28:10.740Z</time>
</trkpt>
<trkpt lat="-30.5225654" lon="151.6307053">
<ele>1027.215</ele>
<time>2017-04-06T09:28:10.740Z</time>
</trkpt>
<trkpt lat="-30.5226314" lon="151.6308175">
<ele>1027.156</ele>
<time>2017-04-06T09:28:56.729Z</time>
</trkpt>
<trkpt lat="-30.5226314" lon="151.6308175">
<ele>1027.156</ele>
<time>2017-04-06T09:28:56.729Z</time>
</trkpt>
<trkpt lat="-30.5226084" lon="151.6307473">
<ele>1027.067</ele>
<time>2017-04-06T09:30:54.000Z</time>
</trkpt>
<trkpt lat="-30.5226084" lon="151.6307473">
<ele>1026.593</ele>
<time>2017-04-06T09:31:12.999Z</time>
</trkpt>
<trkpt lat="-30.5226407" lon="151.6307542">
<ele>1026.846</ele>
<time>2017-04-06T09:31:25.999Z</time>
</trkpt>
<trkpt lat="-30.5226407" lon="151.6307542">
<ele>1026.372</ele>
<time>2017-04-06T09:32:04.999Z</time>
</trkpt>
<trkpt lat="-30.5226746" lon="151.6307937">
<ele>1026.700</ele>
<time>2017-04-06T09:32:30.999Z</time>
</trkpt>
<trkpt lat="-30.5226746" lon="151.6307937">
<ele>1026.226</ele>
<time>2017-04-06T09:34:55.997Z</time>
</trkpt>
<trkpt lat="-30.5226066" lon="151.6313920">
<ele>1025.720</ele>
<time>2017-04-06T09:43:36.240Z</time>
</trkpt>
<trkpt lat="-30.5226066" lon="151.6313920">
<ele>1025.720</ele>
<time>2017-04-06T09:43:36.240Z</time>
</trkpt>
<trkpt lat="-30.5226879" lon="151.6312573">
<ele>1025.211</ele>
<time>2017-04-06T09:44:51.701Z</time>
</trkpt>
<trkpt lat="-30.5226879" lon="151.6312573">
<ele>1025.211</ele>
<time>2017-04-06T09:44:51.701Z</time>
</trkpt>
<trkpt lat="-30.5226771" lon="151.6312454">
<ele>1025.633</ele>
<time>2017-04-06T09:45:07.000Z</time>
</trkpt>
<trkpt lat="-30.5226771" lon="151.6312454">
<ele>1025.160</ele>
<time>2017-04-06T09:46:02.000Z</time>
</trkpt>
<trkpt lat="-30.5227026" lon="151.6312017">
<ele>1025.394</ele>
<time>2017-04-06T09:47:29.952Z</time>
</trkpt>
<trkpt lat="-30.5227026" lon="151.6312017">
<ele>1025.394</ele>
<time>2017-04-06T09:47:29.952Z</time>
</trkpt>
<trkpt lat="-30.5227134" lon="151.6311181">
<ele>1026.758</ele>
<time>2017-04-06T09:49:31.729Z</time>
</trkpt>
<trkpt lat="-30.5227134" lon="151.6311181">
<ele>1026.758</ele>
<time>2017-04-06T09:49:31.729Z</time>
</trkpt>
<trkpt lat="-30.5228221" lon="151.6311777">
<ele>1025.135</ele>
<time>2017-04-06T09:52:53.999Z</time>
</trkpt>
<trkpt lat="-30.5228221" lon="151.6311777">
<ele>1024.662</ele>
<time>2017-04-06T09:54:49.001Z</time>
</trkpt>
<trkpt lat="-30.5228400" lon="151.6310198">
<ele>1024.748</ele>
<time>2017-04-06T09:57:03.363Z</time>
</trkpt>
<trkpt lat="-30.5228400" lon="151.6310198">
<ele>1024.748</ele>
<time>2017-04-06T09:57:03.363Z</time>
</trkpt>
<trkpt lat="-30.5226818" lon="151.6309934">
<ele>1024.159</ele>
<time>2017-04-06T09:59:40.001Z</time>
</trkpt>
<trkpt lat="-30.5226818" lon="151.6309934">
<ele>1023.686</ele>
<time>2017-04-06T09:59:41.001Z</time>
</trkpt>
<trkpt lat="-30.5227273" lon="151.6311308">
<ele>1024.937</ele>
<time>2017-04-06T10:00:46.946Z</time>
</trkpt>
<trkpt lat="-30.5227273" lon="151.6311308">
<ele>1024.937</ele>
<time>2017-04-06T10:00:46.946Z</time>
</trkpt>
<trkpt lat="-30.5226495" lon="151.6307945">
<ele>1024.809</ele>
<time>2017-04-06T10:03:23.000Z</time>
</trkpt>
<trkpt lat="-30.5226495" lon="151.6307945">
<ele>1024.336</ele>
<time>2017-04-06T10:04:43.000Z</time>
</trkpt>
<trkpt lat="-30.5226541" lon="151.6308164">
<ele>1024.983</ele>
<time>2017-04-06T10:04:52.000Z</time>
</trkpt>
<trkpt lat="-30.5226541" lon="151.6308164">
<ele>1024.510</ele>
<time>2017-04-06T10:04:54.000Z</time>
</trkpt>
<trkpt lat="-30.5226415" lon="151.6308661">
<ele>1024.977</ele>
<time>2017-04-06T10:06:11.841Z</time>
</trkpt>
<trkpt lat="-30.5226415" lon="151.6308661">
<ele>1024.977</ele>
<time>2017-04-06T10:06:11.841Z</time>
</trkpt>
<trkpt lat="-30.5227291" lon="151.6309196">
<ele>1025.771</ele>
<time>2017-04-06T10:07:58.038Z</time>
</trkpt>
<trkpt lat="-30.5227291" lon="151.6309196">
<ele>1025.771</ele>
<time>2017-04-06T10:07:58.038Z</time>
</trkpt>
<trkpt lat="-30.5227006" lon="151.6307313">
<ele>1026.210</ele>
<time>2017-04-06T10:10:37.735Z</time>
</trkpt>
<trkpt lat="-30.5227006" lon="151.6307313">
<ele>1026.210</ele>
<time>2017-04-06T10:10:37.735Z</time>
</trkpt>
<trkpt lat="-30.5227866" lon="151.6309920">
<ele>1026.178</ele>
<time>2017-04-06T10:13:21.784Z</time>
</trkpt>
<trkpt lat="-30.5227866" lon="151.6309920">
<ele>1026.178</ele>
<time>2017-04-06T10:13:21.784Z</time>
</trkpt>
<trkpt lat="-30.5226186" lon="151.6308354">
<ele>1026.102</ele>
<time>2017-04-06T10:16:10.001Z</time>
</trkpt>
<trkpt lat="-30.5226186" lon="151.6308354">
<ele>1025.628</ele>
<time>2017-04-06T10:16:49.000Z</time>
</trkpt>
<trkpt lat="-30.5227022" lon="151.6309643">
<ele>1025.755</ele>
<time>2017-04-06T10:17:51.000Z</time>
</trkpt>
<trkpt lat="-30.5227022" lon="151.6309643">
<ele>1025.281</ele>
<time>2017-04-06T10:18:05.000Z</time>
</trkpt>
<trkpt lat="-30.5226504" lon="151.6308550">
<ele>1026.238</ele>
<time>2017-04-06T10:23:20.863Z</time>
</trkpt>
<trkpt lat="-30.5226504" lon="151.6308550">
<ele>1026.238</ele>
<time>2017-04-06T10:23:20.863Z</time>
</trkpt>
<trkpt lat="-30.5226805" lon="151.6309020">
<ele>1025.445</ele>
<time>2017-04-06T10:25:43.041Z</time>
</trkpt>
<trkpt lat="-30.5226805" lon="151.6309020">
<ele>1025.445</ele>
<time>2017-04-06T10:25:43.041Z</time>
</trkpt>
<trkpt lat="-30.5226086" lon="151.6306722">
<ele>1025.346</ele>
<time>2017-04-06T10:35:55.000Z</time>
</trkpt>
<trkpt lat="-30.5226086" lon="151.6306722">
<ele>1024.873</ele>
<time>2017-04-06T10:49:44.000Z</time>
</trkpt>
<trkpt lat="-30.5226481" lon="151.6308680">
<ele>1025.029</ele>
<time>2017-04-06T10:50:04.000Z</time>
</trkpt>
</trkseg>
</trk>
<extensions>
<fpdata xmlns="http://www.motionx.com/GPX-Extensions/1/1" sfv="10" origin="MotionXGPSFull 24.1 Build 5049R64">
<bin enc="base64">
RgIAAAACAAAAeo/tD2M51kEBAAAACVDQ5Yk51kEAAEr+TWrjQEgfAAAf7ucCZt2N20vT
RUAjov6KHQSQQAAAAAAWAAAAQnJpc3ZlZ2FzIHRvIEFybWlkYWxlABQAAAA2IEFwciAy
MDE3IDEwOjMwIGFtAAAAAAAvUNDliTnWQZSE3vCJOdZBk8s2AhV7EJWMKJNALAAAAAIA
AACaIIiABh9jQGH48FWtWzvAZt2N20vTRUAAAAAAAAAgQAAAAMAQighAAAAAAABXsEAA
AAAAAAAAAAAAAABmZmZmZl5kQIUs6kE8A5BAAQAAAG8vwMeg1IO/AQAAAAEAAABt4m8h
NrG5P72EtCKfV7y/AQAAAAEAAAABAAAAZt2N20vTRUAAAAAAAAAAAAEAAAAaAAAAQnJp
c3ZlZ2FzX3RvX0FybWlkYWxlLmdweAABAAAAxaqNLYo51kEKAAAAAQAAABYAAABCcmlz
dmVnYXMgdG8gQXJtaWRhbGUAAAAAAAAAAAAAAAAAAAAAAFUAAACMCgBXhznWQQAAAAAA
AAAAAAAAAAAAAAD/JUS8AgAAAAAAAAAAAAAAAQAAACcAAAAyNC4xIEJ1aWxkIDUwNDlS
NjQsIE1YQUUgOC4xIGIuIDYyNlI2NAAAAAAAMXkAAAEAAAABkAAAAD+M5ViSJ+ZYBFyQ
7Q9jOdZBXJDtD2M51kEAAAAAANALPwAAAAADYr8zOmQ51kFivzM6ZDnWQQAAkP9ipJJA
AAAAAATpgMttZDnWQemAy21kOdZBAAD0Ft/dlUAAAAAAA+CBtHhkOdZB4IG0eGQ51kEA
AHgnb4yWQAAAAAAEmlpMgGQ51kGaWkyAZDnWQQAAVLLsBZdAAAAAAAMkmHOQZDnWQSSY
c5BkOdZBAAC8i2AImEAAAAAABKq7DcZkOdZBqrsNxmQ51kEAAATDAmKbQAAAAAADG4Eg
s3051kEbgSCzfTnWQQBArvEyo9pAAAAAAARMjsy6fTnWQUyOzLp9OdZBAMDe/t6q2kAA
AAAAA4XO2719OdZBhc7bvX051kEAQBQ/7q3aQAAAAAAEmE0MwX051kGYTQzBfTnWQQCA
K74esdpAAAAAAANB1mDNfTnWQUHWYM19OdZBAEDYRnO92kAAAAAABLABzNN9OdZBsAHM
03051kEAwDpy3sPaQAAAAAAD6KXe7n051kHopd7ufTnWQQCAdhbx3tpAAAAAAAQv3Arx
fTnWQS/cCvF9OdZBAICtTB3h2kAAAAAAA0hT3fF9OdZBSFPd8X051kEAAN/D7+HaQAAA
AAAE8zkL9H051kHzOQv0fTnWQQDAeaod5NpAAAAAAAOSXV0CfjnWQZJdXQJ+OdZBAEAt
zm/y2kAAAAAABPxUjAZ+OdZB/FSMBn451kEAwIbFnvbaQAAAAAAD4nJdD3451kHicl0P
fjnWQQAAfuNv/9pAAAAAAAQy6YwRfjnWQTLpjBF+OdZBAAC4WZ8B20AAAAAAA4GwGxx+
OdZBgbAbHH451kEAgBghLgzbQAAAAAAEEOjLHn451kEQ6MsefjnWQQCAkljeDttAAAAA
AAPRIl86fjnWQdEiXzp+OdZBAMBwk3Eq20AAAAAABDDbCz9+OdZBMNsLP3451kEAQL5L
Hi/bQAAAAAADYM2bTX451kFgzZtNfjnWQQDA8j2uPdtAAAAAAAQOSItRfjnWQQ5Ii1F+
OdZBAMChuJ1B20AAAAAAA9bn3m1+OdZB1ufebX451kEAwGxY8V3bQAAAAAAEJTxMfn45
1kElPEx+fjnWQQCAuKxebttAAAAAAAOsqt5+fjnWQayq3n5+OdZBAAA7G/Fu20AAAAAA
BIhkyoZ+OdZBiGTKhn451kEAgBvV3HbbQAAAAAADiewch3451kGJ7ByHfjnWQQBAHF0v
d9tAAAAAAARfQkugfjnWQV9CS6B+OdZBAADusl2Q20AAAAAAA813HKF+OdZBzXccoX45
1kEAAGToLpHbQAAAAAAEnPeLqH451kGc94uofjnWQQDAL2iemNtAAAAAAAP0+JqpfjnW
QfT4mql+OdZBAMCLaa2Z20AAAAAABDkNDK1+OdZBOQ0MrX451kEAAMx9Hp3bQAAAAAAD
O8Mar3451kE7wxqvfjnWQQDA0jMtn9tAAAAAAARwYgyyfjnWQXBiDLJ+OdZBAIAC0x6i
20AAAAAAA3LD3b5+OdZBcsPdvn451kEAAAU08K7bQAAAAAAEsBuM3n451kGwG4zefjnW
QQCAQ4yezttAAAAAAAPAkaDifjnWQcCRoOJ+OdZBAABYArPS20AAAAAABHwpjOl+OdZB
fCmM6X451kEAgAKantnbQAAAAAADcoca6n451kFyhxrqfjnWQQDAHvgs2ttAAAAAAAT/
klAYfznWQf+SUBh/OdZBAICSA2MI3EAAAAAAA+J22hl/OdZB4nbaGX851kEAQHnn7Anc
QAAAAAAE2T+LH3851kHZP4sffznWQQBAbLCdD9xAAAAAAAP21R8jfznWQfbVHyN/OdZB
AMCMRjIT3EAAAAAABHpUSyZ/OdZBelRLJn851kEAAA3FXRbcQAAAAAADk1YaKn851kGT
VhoqfznWQQAAKscsGtxAAAAAAARUVMoufznWQVRUyi5/OdZBAMDexNwe3EAAAAAAA9l3
nC9/OdZB2XecL3851kEAgGzorh/cQAAAAAAEXASLPX851kFcBIs9fznWQQDA7nSdLdxA
AAAAAAMS+xs/fznWQRL7Gz9/OdZBAMCoay4v3EAAAAAABF3hSkR/OdZBXeFKRH851kEA
gOtRXTTcQAAAAAADBycgTH851kEHJyBMfznWQQCAopcyPNxAAAAAAAS6vUpafznWQbq9
Slp/OdZBAEBNLl1K3EAAAAAAA05dnWl/OdZBTl2daX851kEAwOHNr1ncQAAAAAAEHedK
pH851kEd50qkfznWQQAAsFddlNxAAAAAAAPkEZqnfznWQeQRmqd/OdZBAEB3gqyX3EAA
AAAABKc9C6x/OdZBpz0LrH851kEAQDquHZzcQAAAAAAD7iLey3851kHuIt7LfznWQQCA
hZPwu9xAAAAAAAQa94vUfznWQRr3i9R/OdZBAMCtZ57E3EAAAAAAAxAGmtl/OdZBEAaa
2X851kEAwJp2rMncQAAAAAAE9wMLIoA51kH3AwsigDnWQQBAinQdEt1AAAAAAAO2Rp49
gDnWQbZGnj2AOdZBAMBJt7At3UAAAAAABBw/i0mAOdZBHD+LSYA51kEAgK+vnTndQAAA
AAADoI7dU4A51kGgjt1TgDnWQQCAMv/vQ91AAAAAAASkqstegDnWQaSqy16AOdZBAMAy
G95O3UAAAAAAA9YBHoGAOdZB1gEegYA51kEAAGlyMHHdQAAAAAAEyOwKhIA51kHI7AqE
gDnWQQDAUl0ddN1AAAAAAAMyPp2MgDnWQTI+nYyAOdZBAMDErq983UAAAAAABHr8CpWA
OdZBevwKlYA51kEAgA1tHYXdQAAAAAADObbamoA51kE5ttqagDnWQQCA0Cbtit1AAAAA
AAShaAqfgDnWQaFoCp+AOdZBAAA02RyP3UAAAAAAA2jnGOiAOdZBaOcY6IA51kEAwP9X
K9jdQAAAAAAECthL64A51kEK2EvrgDnWQQCAoUhe291AAAAAAAOKdV71gDnWQYp1XvWA
OdZBAAAd5nDl3UAAAAAABOV9ix+BOdZB5X2LH4E51kEAAHTunQ/eQAAAAAADFaxYJoE5
1kEVrFgmgTnWQQBArBxrFt5AAAAAAAQ9nEoqgTnWQT2cSiqBOdZBAADQDF0a3kAAAAAA
A16dWzWBOdZBXp1bNYE51kEAgPENbiXeQAAAAAAE1XpKOoE51kHVeko6gTnWQQBAcOtc
Kt5AAAAAAANA3dhMgTnWQUDd2EyBOdZBAMDKTes83kAAAAAABDP+ik+BOdZBM/6KT4E5
1kEAgMFunT/eQAAAAAADRKLYqIE51kFEotiogTnWQQCA1xLrmN5AAAAAAAQtlwqsgTnW
QS2XCqyBOdZBAADABx2c3kAAAAAAA87hmbmBOdZBzuGZuYE51kEAAGFSrKneQAAAAAAE
kurJW4I51kGS6slbgjnWQQDAIFvcS99AAAAAAAPp1pdfgjnWQenWl1+COdZBAACAR6pP
30AAAAAABLsni2mCOdZBuyeLaYI51kEAQE6YnVnfQAAAAAAD4KGYjYI51kHgoZiNgjnW
QQAAcxKrfd9AAAAAAAQoQkqTgjnWQShCSpOCOdZBAMC7slyD30AAAAAAA8Sv15eCOdZB
xK/Xl4I51kEAwFcg6offQAAAAAAEwcVKnII51kHBxUqcgjnWQQBAKjddjN9AAAAAAAMN
/F2tgjnWQQ38Xa2COdZBAECgbHCd30AAAAAABPz8irOCOdZB/PyKs4I51kEAQIttnaPf
QAAAAAADUMRYuII51kFQxFi4gjnWQQCA5zRrqN9AAAAAAATxDom7gjnWQfEOibuCOdZB
AECEf5ur30AAAAAAA1JkWsWCOdZBUmRaxYI51kEAAOXUbLXfQAAAAAAEGCLJy4I51kEY
IsnLgjnWQQCAq5Lbu99AAAAAAAOamhvwgjnWQZqaG/CCOdZBAIAsCy7g30AAAAAABIoA
C26DOdZBigALboM51kEAIJW4Di/gQAAAAAADbamcgYM51kFtqZyBgznWQQBgAo3XOOBA
AAAAAAQNGcqDgznWQQ0ZyoODOdZBAADORO454EAAAAAAA1jLloWDOdZBWMuWhYM51kEA
YPed1DrgQAAAAAAEHeTKiIM51kEd5MqIgznWQQBAWKpuPOBAAAAAAAOC/peWgznWQYL+
l5aDOdZBAOCMN1VD4EAAAAAABBgKy5mDOdZBGArLmYM51kEAYFW97kTgQAAAAAADcoXY
rYM51kFyhditgznWQQDgAnv1TuBAAAAAAATURgq3gznWQdRGCreDOdZBAGCvW45T4EAA
AAAAA4Sg2cCDOdZBhKDZwIM51kEAgI0IdljgQAAAAAAE0/iJ/YM51kHT+In9gznWQQAA
szTOduBAAAAAAAPy0lsahDnWQfLSWxqEOdZBAIDEITeF4EAAAAAABA+4yk2EOdZBD7jK
TYQ51kEA4E6U7p7gQAAAAAAD3zNXVIQ51kHfM1dUhDnWQQAgOdI0ouBAAAAAAAS9iwpj
hDnWQb2LCmOEOdZBAEAofo6p4EAAAAAAA9UIW2OEOdZB1QhbY4Q51kEAALa8tqngQAAA
AAAE/klKeoQ51kH+SUp6hDnWQQBARl0uteBAAAAAAAPImht7hDnWQciaG3uEOdZBAGCt
BZe14EAAAAAABOc4ypqEOdZB5zjKmoQ51kEAIL9UbsXgQAAAAAADqP/VroQ51kGo/9Wu
hDnWQQCAGzh0z+BAAAAAAAQ82gixhDnWQTzaCLGEOdZBAKBnpY3Q4EAAAAAAA0simbGE
OdZBSyKZsYQ51kEA4G7J1dDgQAAAAAAExVSKuYQ51kHFVIq5hDnWQQAA0mLO1OBAAAAA
AAOhgtXxhDnWQaGC1fGEOdZBACCa+fPw4EAAAAAABKDDyvmEOdZBoMPK+YQ51kEAYBWa
7vTgQAAAAAADM4kXCoU51kEziRcKhTnWQQBg5/wU/eBAAAAAAASOHsoNhTnWQY4eyg2F
OdZBAMCQR+7+4EAAAAAAA46SGRmFOdZBjpIZGYU51kEAoJABlgThQAAAAAAEbcqLJIU5
1kFtyoskhTnWQQDgfx1PCuFAAAAAAAN7aZUlhTnWQXtplSWFOdZBAAAH7dMK4UAAAAAA
BMo1ilqFOdZByjWKWoU51kEAYCxTTiXhQAAAAAADUtNWZIU51kFS01ZkhTnWQQDA9KE0
KuFAAAAAAAR7L8pzhTnWQXsvynOFOdZBAAAFUO4x4UAAAAAAA7ghW3eFOdZBuCFbd4U5
1kEAYCHJtjPhQAAAAAAEJXeKfoU51kEld4p+hTnWQQDA1XNON+FAAAAAAAMaExeBhTnW
QRoTF4GFOdZBAADbwZQ44UAAAAAABArWx3qGOdZBCtbHeoY51kEAoEwjbbXhQAAAAAAD
Pl2ae4Y51kE+XZp7hjnWQQCg7GbWteFAAAAAAARosMmChjnWQWiwyYKGOdZBAEB1EG65
4UAAAAAAAwL0FVKHOdZBAvQVUoc51kEAoE4yFCHiQAAAAAAEX2AGV4c51kFfYAZXhznW
QQCgcGiMI+JAAAAAAAGGj+0PYznWQRqMieSJOdZBAABK/k1q40AAAAAAAAAAAA==
</bin>
</fpdata>
</extensions>
</gpx>